<?xml version="1.0" encoding="UTF-8" standalone="no" ?>
<gpx xmlns="http://www.topografix.com/GPX/1/1" creator="MapSource 6.15.11" version="1.1" xmlns:xsi="http://www.w3.org/2001/XMLSchema-instance" xsi:schemaLocation="http://www.topografix.com/GPX/1/1 http://www.topografix.com/GPX/1/1/gpx.xsd">

  <metadata>
    <link href="http://www.garmin.com">
      <text>Garmin International</text>
    </link>
    <time>2010-08-23T05:10:45Z</time>
    <bounds maxlat="51.3743180" maxlon="7.8530120" minlat="50.8030190" minlon="6.8705200"/>
  </metadata>

  <trk>
    <name>ACTIVE LOG: 12 AUG 2010 17:43</name>
    <extensions>
      <gpxx:TrackExtension xmlns:gpxx="http://www.garmin.com/xmlschemas/GpxExtensions/v3">
        <gpxx:DisplayColor>White</gpxx:DisplayColor>
      </gpxx:TrackExtension>
    </extensions>
    <trkseg>
      <trkpt lat="51.1904250" lon="7.1101920">
        <ele>140.4900000</ele>
        <time>2010-08-12T15:43:50Z</time>
      </trkpt>
      <trkpt lat="51.1903920" lon="7.1102270">
        <ele>133.7600000</ele>
        <time>2010-08-12T15:44:17Z</time>
      </trkpt>
      <trkpt lat="51.1904570" lon="7.1102130">
        <ele>127.5100000</ele>
        <time>2010-08-12T15:44:30Z</time>
      </trkpt>
      <trkpt lat="51.1904880" lon="7.1101780">
        <ele>128.4700000</ele>
        <time>2010-08-12T15:45:15Z</time>
      </trkpt>
      <trkpt lat="51.1904700" lon="7.1102830">
        <ele>135.2000000</ele>
        <time>2010-08-12T15:45:50Z</time>
      </trkpt>
      <trkpt lat="51.1904740" lon="7.1102040">
        <ele>132.3200000</ele>
        <time>2010-08-12T15:46:21Z</time>
      </trkpt>
      <trkpt lat="51.1905080" lon="7.1101860">
        <ele>136.6400000</ele>
        <time>2010-08-12T15:46:49Z</time>
      </trkpt>
      <trkpt lat="51.1906460" lon="7.1101550">
        <ele>136.1600000</ele>
        <time>2010-08-12T15:47:10Z</time>
      </trkpt>
      <trkpt lat="51.1908600" lon="7.1100750">
        <ele>134.2400000</ele>
        <time>2010-08-12T15:47:16Z</time>
      </trkpt>
      <trkpt lat="51.1908650" lon="7.1100570">
        <ele>133.7600000</ele>
        <time>2010-08-12T15:47:17Z</time>
      </trkpt>
      <trkpt lat="51.1908620" lon="7.1100420">
        <ele>133.2800000</ele>
        <time>2010-08-12T15:47:18Z</time>
      </trkpt>
      <trkpt lat="51.1908510" lon="7.1100320">
        <ele>132.3200000</ele>
        <time>2010-08-12T15:47:19Z</time>
      </trkpt>
      <trkpt lat="51.1908280" lon="7.1100280">
        <ele>131.3600000</ele>
        <time>2010-08-12T15:47:20Z</time>
      </trkpt>
      <trkpt lat="51.1907900" lon="7.1100380">
        <ele>130.4000000</ele>
        <time>2010-08-12T15:47:21Z</time>
      </trkpt>
      <trkpt lat="51.1907440" lon="7.1100630">
        <ele>129.4300000</ele>
        <time>2010-08-12T15:47:22Z</time>
      </trkpt>
      <trkpt lat="51.1906970" lon="7.1100980">
        <ele>128.9500000</ele>
        <time>2010-08-12T15:47:23Z</time>
      </trkpt>
      <trkpt lat="51.1906540" lon="7.1101270">
        <ele>128.9500000</ele>
        <time>2010-08-12T15:47:24Z</time>
      </trkpt>
      <trkpt lat="51.1906110" lon="7.1101530">
        <ele>127.9900000</ele>
        <time>2010-08-12T15:47:25Z</time>
      </trkpt>
      <trkpt lat="51.1902710" lon="7.1102180">
        <ele>122.2200000</ele>
        <time>2010-08-12T15:47:32Z</time>
      </trkpt>
      <trkpt lat="51.1902150" lon="7.1102090">
        <ele>122.2200000</ele>
        <time>2010-08-12T15:47:33Z</time>
      </trkpt>
      <trkpt lat="51.1901610" lon="7.1101820">
        <ele>122.2200000</ele>
        <time>2010-08-12T15:47:34Z</time>
      </trkpt>
      <trkpt lat="51.1901180" lon="7.1101150">
        <ele>122.2200000</ele>
        <time>2010-08-12T15:47:35Z</time>
      </trkpt>
      <trkpt lat="51.1900890" lon="7.1099640">
        <ele>121.2600000</ele>
        <time>2010-08-12T15:47:36Z</time>
      </trkpt>
      <trkpt lat="51.1900740" lon="7.1097890">
        <ele>120.7800000</ele>
        <time>2010-08-12T15:47:37Z</time>
      </trkpt>
      <trkpt lat="51.1900780" lon="7.1095910">
        <ele>120.3000000</ele>
        <time>2010-08-12T15:47:38Z</time>
      </trkpt>
      <trkpt lat="51.1900810" lon="7.1093720">
        <ele>119.8200000</ele>
        <time>2010-08-12T15:47:39Z</time>
      </trkpt>
      <trkpt lat="51.1900660" lon="7.1088790">
        <ele>119.3400000</ele>
        <time>2010-08-12T15:47:41Z</time>
      </trkpt>
      <trkpt lat="51.1900370" lon="7.1086430">
        <ele>119.8200000</ele>
        <time>2010-08-12T15:47:42Z</time>
      </trkpt>
      <trkpt lat="51.1899150" lon="7.1065370">
        <ele>124.6300000</ele>
        <time>2010-08-12T15:47:51Z</time>
      </trkpt>
      <trkpt lat="51.1899480" lon="7.1062860">
        <ele>125.5900000</ele>
        <time>2010-08-12T15:47:52Z</time>
      </trkpt>
      <trkpt lat="51.1900010" lon="7.1060720">
        <ele>126.5500000</ele>
        <time>2010-08-12T15:47:53Z</time>
      </trkpt>
      <trkpt lat="51.1900630" lon="7.1058810">
        <ele>127.5100000</ele>
        <time>2010-08-12T15:47:54Z</time>
      </trkpt>
      <trkpt lat="51.1901360" lon="7.1057170">
        <ele>127.9900000</ele>
        <time>2010-08-12T15:47:55Z</time>
      </trkpt>
      <trkpt lat="51.1902090" lon="7.1055680">
        <ele>128.4700000</ele>
        <time>2010-08-12T15:47:56Z</time>
      </trkpt>
      <trkpt lat="51.1902900" lon="7.1054460">
        <ele>128.9500000</ele>
        <time>2010-08-12T15:47:57Z</time>
      </trkpt>
      <trkpt lat="51.1903810" lon="7.1053490">
        <ele>129.9200000</ele>
        <time>2010-08-12T15:47:58Z</time>
      </trkpt>
      <trkpt lat="51.1904730" lon="7.1052710">
        <ele>129.9200000</ele>
        <time>2010-08-12T15:47:59Z</time>
      </trkpt>
      <trkpt lat="51.1905670" lon="7.1052150">
        <ele>129.9200000</ele>
        <time>2010-08-12T15:48:00Z</time>
      </trkpt>
      <trkpt lat="51.1906660" lon="7.1051890">
        <ele>130.8800000</ele>
        <time>2010-08-12T15:48:01Z</time>
      </trkpt>
      <trkpt lat="51.1907670" lon="7.1052430">
        <ele>131.8400000</ele>
        <time>2010-08-12T15:48:02Z</time>
      </trkpt>
      <trkpt lat="51.1908680" lon="7.1053860">
        <ele>132.8000000</ele>
        <time>2010-08-12T15:48:03Z</time>
      </trkpt>
      <trkpt lat="51.1909520" lon="7.1055870">
        <ele>133.2800000</ele>
        <time>2010-08-12T15:48:04Z</time>
      </trkpt>
      <trkpt lat="51.1910290" lon="7.1057720">
        <ele>134.2400000</ele>
        <time>2010-08-12T15:48:05Z</time>
      </trkpt>
      <trkpt lat="51.1911040" lon="7.1059660">
        <ele>134.7200000</ele>
        <time>2010-08-12T15:48:06Z</time>
      </trkpt>
      <trkpt lat="51.1911540" lon="7.1062140">
        <ele>135.6800000</ele>
        <time>2010-08-12T15:48:07Z</time>
      </trkpt>
      <trkpt lat="51.1911110" lon="7.1064850">
        <ele>137.1300000</ele>
        <time>2010-08-12T15:48:08Z</time>
      </trkpt>
      <trkpt lat="51.1910370" lon="7.1066780">
        <ele>138.5700000</ele>
        <time>2010-08-12T15:48:09Z</time>
      </trkpt>
      <trkpt lat="51.1909380" lon="7.1068290">
        <ele>139.5300000</ele>
        <time>2010-08-12T15:48:10Z</time>
      </trkpt>
      <trkpt lat="51.1908040" lon="7.1069370">
        <ele>139.5300000</ele>
        <time>2010-08-12T15:48:11Z</time>
      </trkpt>
      <trkpt lat="51.1905980" lon="7.1070280">
        <ele>139.5300000</ele>
        <time>2010-08-12T15:48:12Z</time>
      </trkpt>
      <trkpt lat="51.1903810" lon="7.1071240">
        <ele>140.0100000</ele>
        <time>2010-08-12T15:48:13Z</time>
      </trkpt>
      <trkpt lat="51.1901470" lon="7.1072450">
        <ele>140.0100000</ele>
        <time>2010-08-12T15:48:14Z</time>
      </trkpt>
      <trkpt lat="51.1888320" lon="7.1083580">
        <ele>140.0100000</ele>
        <time>2010-08-12T15:48:19Z</time>
      </trkpt>
      <trkpt lat="51.1876490" lon="7.1102380">
        <ele>137.6100000</ele>
        <time>2010-08-12T15:48:25Z</time>
      </trkpt>
      <trkpt lat="51.1869590" lon="7.1119620">
        <ele>134.2400000</ele>
        <time>2010-08-12T15:48:31Z</time>
      </trkpt>
      <trkpt lat="51.1864230" lon="7.1135940">
        <ele>130.8800000</ele>
        <time>2010-08-12T15:48:39Z</time>
      </trkpt>
      <trkpt lat="51.1857240" lon="7.1163100">
        <ele>127.5100000</ele>
        <time>2010-08-12T15:48:50Z</time>
      </trkpt>
      <trkpt lat="51.1853690" lon="7.1185110">
        <ele>126.5500000</ele>
        <time>2010-08-12T15:48:55Z</time>
      </trkpt>
      <trkpt lat="51.1849750" lon="7.1218780">
        <ele>126.0700000</ele>
        <time>2010-08-12T15:49:02Z</time>
      </trkpt>
      <trkpt lat="51.1846040" lon="7.1238870">
        <ele>126.0700000</ele>
        <time>2010-08-12T15:49:08Z</time>
      </trkpt>
      <trkpt lat="51.1839570" lon="7.1254160">
        <ele>126.0700000</ele>
        <time>2010-08-12T15:49:15Z</time>
      </trkpt>
      <trkpt lat="51.1829440" lon="7.1265090">
        <ele>127.5100000</ele>
        <time>2010-08-12T15:49:23Z</time>
      </trkpt>
      <trkpt lat="51.1816060" lon="7.1269390">
        <ele>133.2800000</ele>
        <time>2010-08-12T15:49:32Z</time>
      </trkpt>
      <trkpt lat="51.1804570" lon="7.1266630">
        <ele>139.5300000</ele>
        <time>2010-08-12T15:49:38Z</time>
      </trkpt>
      <trkpt lat="51.1792170" lon="7.1254810">
        <ele>143.8500000</ele>
        <time>2010-08-12T15:49:43Z</time>
      </trkpt>
      <trkpt lat="51.1779380" lon="7.1244320">
        <ele>144.3400000</ele>
        <time>2010-08-12T15:49:49Z</time>
      </trkpt>
      <trkpt lat="51.1776930" lon="7.1243730">
        <ele>144.8200000</ele>
        <time>2010-08-12T15:49:50Z</time>
      </trkpt>
      <trkpt lat="51.1774490" lon="7.1243550">
        <ele>144.3400000</ele>
        <time>2010-08-12T15:49:51Z</time>
      </trkpt>
      <trkpt lat="51.1772060" lon="7.1243760">
        <ele>144.3400000</ele>
        <time>2010-08-12T15:49:52Z</time>
      </trkpt>
      <trkpt lat="51.1769690" lon="7.1244300">
        <ele>144.3400000</ele>
        <time>2010-08-12T15:49:53Z</time>
      </trkpt>
      <trkpt lat="51.1767460" lon="7.1245270">
        <ele>143.3700000</ele>
        <time>2010-08-12T15:49:54Z</time>
      </trkpt>
      <trkpt lat="51.1765330" lon="7.1246660">
        <ele>142.4100000</ele>
        <time>2010-08-12T15:49:55Z</time>
      </trkpt>
      <trkpt lat="51.1763340" lon="7.1248670">
        <ele>142.4100000</ele>
        <time>2010-08-12T15:49:56Z</time>
      </trkpt>
      <trkpt lat="51.1761620" lon="7.1251520">
        <ele>140.0100000</ele>
        <time>2010-08-12T15:49:57Z</time>
      </trkpt>
      <trkpt lat="51.1760080" lon="7.1254630">
        <ele>140.0100000</ele>
        <time>2010-08-12T15:49:58Z</time>
      </trkpt>
      <trkpt lat="51.1758960" lon="7.1257540">
        <ele>139.0500000</ele>
        <time>2010-08-12T15:49:59Z</time>
      </trkpt>
      <trkpt lat="51.1757970" lon="7.1260310">
        <ele>139.0500000</ele>
        <time>2010-08-12T15:50:00Z</time>
      </trkpt>
      <trkpt lat="51.1757140" lon="7.1263310">
        <ele>138.0900000</ele>
        <time>2010-08-12T15:50:01Z</time>
      </trkpt>
      <trkpt lat="51.1756230" lon="7.1266230">
        <ele>137.6100000</ele>
        <time>2010-08-12T15:50:02Z</time>
      </trkpt>
      <trkpt lat="51.1748600" lon="7.1286120">
        <ele>128.4700000</ele>
        <time>2010-08-12T15:50:10Z</time>
      </trkpt>
      <trkpt lat="51.1740610" lon="7.1297810">
        <ele>125.1100000</ele>
        <time>2010-08-12T15:50:18Z</time>
      </trkpt>
      <trkpt lat="51.1729640" lon="7.1309660">
        <ele>131.8400000</ele>
        <time>2010-08-12T15:50:25Z</time>
      </trkpt>
      <trkpt lat="51.1716380" lon="7.1320020">
        <ele>134.2400000</ele>
        <time>2010-08-12T15:50:30Z</time>
      </trkpt>
      <trkpt lat="51.1698360" lon="7.1328820">
        <ele>135.6800000</ele>
        <time>2010-08-12T15:50:36Z</time>
      </trkpt>
      <trkpt lat="51.1686790" lon="7.1331020">
        <ele>129.9200000</ele>
        <time>2010-08-12T15:50:41Z</time>
      </trkpt>
      <trkpt lat="51.1679170" lon="7.1331520">
        <ele>126.5500000</ele>
        <time>2010-08-12T15:50:46Z</time>
      </trkpt>
      <trkpt lat="51.1672250" lon="7.1335730">
        <ele>116.4600000</ele>
        <time>2010-08-12T15:50:53Z</time>
      </trkpt>
      <trkpt lat="51.1668510" lon="7.1341010">
        <ele>118.3800000</ele>
        <time>2010-08-12T15:50:58Z</time>
      </trkpt>
      <trkpt lat="51.1667870" lon="7.1343130">
        <ele>117.9000000</ele>
        <time>2010-08-12T15:51:00Z</time>
      </trkpt>
      <trkpt lat="51.1667550" lon="7.1344090">
        <ele>116.4600000</ele>
        <time>2010-08-12T15:51:01Z</time>
      </trkpt>
      <trkpt lat="51.1665770" lon="7.1350160">
        <ele>112.6100000</ele>
        <time>2010-08-12T15:51:06Z</time>
      </trkpt>
      <trkpt lat="51.1665500" lon="7.1351800">
        <ele>112.1300000</ele>
        <time>2010-08-12T15:51:07Z</time>
      </trkpt>
      <trkpt lat="51.1665030" lon="7.1357360">
        <ele>110.6900000</ele>
        <time>2010-08-12T15:51:11Z</time>
      </trkpt>
      <trkpt lat="51.1665330" lon="7.1358310">
        <ele>110.6900000</ele>
        <time>2010-08-12T15:51:12Z</time>
      </trkpt>
      <trkpt lat="51.1666130" lon="7.1358770">
        <ele>110.6900000</ele>
        <time>2010-08-12T15:51:13Z</time>
      </trkpt>
      <trkpt lat="51.1666810" lon="7.1359230">
        <ele>112.1300000</ele>
        <time>2010-08-12T15:51:14Z</time>
      </trkpt>
      <trkpt lat="51.1668190" lon="7.1359760">
        <ele>112.6100000</ele>
        <time>2010-08-12T15:51:15Z</time>
      </trkpt>
      <trkpt lat="51.1669990" lon="7.1360320">
        <ele>113.5700000</ele>
        <time>2010-08-12T15:51:16Z</time>
      </trkpt>
      <trkpt lat="51.1671840" lon="7.1360950">
        <ele>115.0100000</ele>
        <time>2010-08-12T15:51:17Z</time>
      </trkpt>
      <trkpt lat="51.1673630" lon="7.1361790">
        <ele>116.9400000</ele>
        <time>2010-08-12T15:51:18Z</time>
      </trkpt>
      <trkpt lat="51.1687630" lon="7.1370690">
        <ele>122.2200000</ele>
        <time>2010-08-12T15:51:27Z</time>
      </trkpt>
      <trkpt lat="51.1697160" lon="7.1383160">
        <ele>124.1500000</ele>
        <time>2010-08-12T15:51:34Z</time>
      </trkpt>
      <trkpt lat="51.1706850" lon="7.1395740">
        <ele>127.0300000</ele>
        <time>2010-08-12T15:51:41Z</time>
      </trkpt>
      <trkpt lat="51.1716750" lon="7.1408960">
        <ele>127.5100000</ele>
        <time>2010-08-12T15:51:48Z</time>
      </trkpt>
      <trkpt lat="51.1725690" lon="7.1428000">
        <ele>127.5100000</ele>
        <time>2010-08-12T15:51:55Z</time>
      </trkpt>
      <trkpt lat="51.1734430" lon="7.1450490">
        <ele>127.5100000</ele>
        <time>2010-08-12T15:52:04Z</time>
      </trkpt>
      <trkpt lat="51.1734630" lon="7.1452770">
        <ele>127.0300000</ele>
        <time>2010-08-12T15:52:05Z</time>
      </trkpt>
      <trkpt lat="51.1734500" lon="7.1454920">
        <ele>126.5500000</ele>
        <time>2010-08-12T15:52:06Z</time>
      </trkpt>
      <trkpt lat="51.1733990" lon="7.1457100">
        <ele>126.0700000</ele>
        <time>2010-08-12T15:52:07Z</time>
      </trkpt>
      <trkpt lat="51.1733050" lon="7.1459570">
        <ele>126.0700000</ele>
        <time>2010-08-12T15:52:08Z</time>
      </trkpt>
      <trkpt lat="51.1731690" lon="7.1462050">
        <ele>127.0300000</ele>
        <time>2010-08-12T15:52:09Z</time>
      </trkpt>
      <trkpt lat="51.1730440" lon="7.1464370">
        <ele>127.0300000</ele>
        <time>2010-08-12T15:52:10Z</time>
      </trkpt>
      <trkpt lat="51.1729040" lon="7.1466190">
        <ele>125.5900000</ele>
        <time>2010-08-12T15:52:11Z</time>
      </trkpt>
      <trkpt lat="51.1727690" lon="7.1468020">
        <ele>125.5900000</ele>
        <time>2010-08-12T15:52:12Z</time>
      </trkpt>
      <trkpt lat="51.1725580" lon="7.1473480">
        <ele>123.6700000</ele>
        <time>2010-08-12T15:52:15Z</time>
      </trkpt>
      <trkpt lat="51.1725620" lon="7.1475680">
        <ele>123.1900000</ele>
        <time>2010-08-12T15:52:16Z</time>
      </trkpt>
      <trkpt lat="51.1725950" lon="7.1477780">
        <ele>124.1500000</ele>
        <time>2010-08-12T15:52:17Z</time>
      </trkpt>
      <trkpt lat="51.1726670" lon="7.1479480">
        <ele>125.1100000</ele>
        <time>2010-08-12T15:52:18Z</time>
      </trkpt>
      <trkpt lat="51.1727540" lon="7.1480900">
        <ele>125.1100000</ele>
        <time>2010-08-12T15:52:19Z</time>
      </trkpt>
      <trkpt lat="51.1728440" lon="7.1482460">
        <ele>126.0700000</ele>
        <time>2010-08-12T15:52:20Z</time>
      </trkpt>
      <trkpt lat="51.1730090" lon="7.1483970">
        <ele>126.5500000</ele>
        <time>2010-08-12T15:52:21Z</time>
      </trkpt>
      <trkpt lat="51.1731990" lon="7.1485600">
        <ele>126.0700000</ele>
        <time>2010-08-12T15:52:22Z</time>
      </trkpt>
      <trkpt lat="51.1733670" lon="7.1487390">
        <ele>126.5500000</ele>
        <time>2010-08-12T15:52:23Z</time>
      </trkpt>
      <trkpt lat="51.1740980" lon="7.1502410">
        <ele>126.5500000</ele>
        <time>2010-08-12T15:52:30Z</time>
      </trkpt>
      <trkpt lat="51.1744800" lon="7.1510210">
        <ele>126.5500000</ele>
        <time>2010-08-12T15:52:34Z</time>
      </trkpt>
      <trkpt lat="51.1746040" lon="7.1511170">
        <ele>127.9900000</ele>
        <time>2010-08-12T15:52:35Z</time>
      </trkpt>
      <trkpt lat="51.1747910" lon="7.1511890">
        <ele>127.5100000</ele>
        <time>2010-08-12T15:52:36Z</time>
      </trkpt>
      <trkpt lat="51.1749520" lon="7.1512820">
        <ele>127.0300000</ele>
        <time>2010-08-12T15:52:37Z</time>
      </trkpt>
      <trkpt lat="51.1751180" lon="7.1513490">
        <ele>126.0700000</ele>
        <time>2010-08-12T15:52:38Z</time>
      </trkpt>
      <trkpt lat="51.1752790" lon="7.1514260">
        <ele>126.5500000</ele>
        <time>2010-08-12T15:52:39Z</time>
      </trkpt>
      <trkpt lat="51.1766480" lon="7.1519940">
        <ele>127.0300000</ele>
        <time>2010-08-12T15:52:47Z</time>
      </trkpt>
      <trkpt lat="51.1768300" lon="7.1519820">
        <ele>127.0300000</ele>
        <time>2010-08-12T15:52:48Z</time>
      </trkpt>
      <trkpt lat="51.1770040" lon="7.1519400">
        <ele>127.0300000</ele>
        <time>2010-08-12T15:52:49Z</time>
      </trkpt>
      <trkpt lat="51.1779390" lon="7.1516950">
        <ele>129.4300000</ele>
        <time>2010-08-12T15:52:56Z</time>
      </trkpt>
      <trkpt lat="51.1785630" lon="7.1515720">
        <ele>129.9200000</ele>
        <time>2010-08-12T15:53:04Z</time>
      </trkpt>
      <trkpt lat="51.1794430" lon="7.1513530">
        <ele>131.8400000</ele>
        <time>2010-08-12T15:53:14Z</time>
      </trkpt>
      <trkpt lat="51.1800180" lon="7.1512550">
        <ele>132.3200000</ele>
        <time>2010-08-12T15:53:20Z</time>
      </trkpt>
      <trkpt lat="51.1803980" lon="7.1511550">
        <ele>131.3600000</ele>
        <time>2010-08-12T15:53:26Z</time>
      </trkpt>
      <trkpt lat="51.1812980" lon="7.1504500">
        <ele>128.4700000</ele>
        <time>2010-08-12T15:53:32Z</time>
      </trkpt>
      <trkpt lat="51.1823120" lon="7.1497490">
        <ele>128.4700000</ele>
        <time>2010-08-12T15:53:38Z</time>
      </trkpt>
      <trkpt lat="51.1825210" lon="7.1497010">
        <ele>128.4700000</ele>
        <time>2010-08-12T15:53:39Z</time>
      </trkpt>
      <trkpt lat="51.1839000" lon="7.1488660">
        <ele>133.7600000</ele>
        <time>2010-08-12T15:53:45Z</time>
      </trkpt>
      <trkpt lat="51.1855160" lon="7.1475840">
        <ele>137.6100000</ele>
        <time>2010-08-12T15:53:53Z</time>
      </trkpt>
      <trkpt lat="51.1867930" lon="7.1462600">
        <ele>139.5300000</ele>
        <time>2010-08-12T15:54:01Z</time>
      </trkpt>
      <trkpt lat="51.1881900" lon="7.1441020">
        <ele>138.0900000</ele>
        <time>2010-08-12T15:54:11Z</time>
      </trkpt>
      <trkpt lat="51.1883510" lon="7.1435810">
        <ele>138.5700000</ele>
        <time>2010-08-12T15:54:13Z</time>
      </trkpt>
      <trkpt lat="51.1884300" lon="7.1433370">
        <ele>138.5700000</ele>
        <time>2010-08-12T15:54:14Z</time>
      </trkpt>
      <trkpt lat="51.1885360" lon="7.1431020">
        <ele>138.0900000</ele>
        <time>2010-08-12T15:54:15Z</time>
      </trkpt>
      <trkpt lat="51.1890800" lon="7.1422670">
        <ele>139.5300000</ele>
        <time>2010-08-12T15:54:19Z</time>
      </trkpt>
      <trkpt lat="51.1892490" lon="7.1421200">
        <ele>139.5300000</ele>
        <time>2010-08-12T15:54:20Z</time>
      </trkpt>
      <trkpt lat="51.1894290" lon="7.1420140">
        <ele>139.0500000</ele>
        <time>2010-08-12T15:54:21Z</time>
      </trkpt>
      <trkpt lat="51.1896100" lon="7.1419330">
        <ele>139.5300000</ele>
        <time>2010-08-12T15:54:22Z</time>
      </trkpt>
      <trkpt lat="51.1897910" lon="7.1419280">
        <ele>139.5300000</ele>
        <time>2010-08-12T15:54:23Z</time>
      </trkpt>
      <trkpt lat="51.1899620" lon="7.1419770">
        <ele>139.5300000</ele>
        <time>2010-08-12T15:54:24Z</time>
      </trkpt>
      <trkpt lat="51.1901320" lon="7.1420520">
        <ele>140.4900000</ele>
        <time>2010-08-12T15:54:25Z</time>
      </trkpt>
      <trkpt lat="51.1903020" lon="7.1422030">
        <ele>140.4900000</ele>
        <time>2010-08-12T15:54:26Z</time>
      </trkpt>
      <trkpt lat="51.1904720" lon="7.1423340">
        <ele>140.9700000</ele>
        <time>2010-08-12T15:54:27Z</time>
      </trkpt>
      <trkpt lat="51.1906530" lon="7.1425210">
        <ele>140.9700000</ele>
        <time>2010-08-12T15:54:28Z</time>
      </trkpt>
      <trkpt lat="51.1908110" lon="7.1427520">
        <ele>140.4900000</ele>
        <time>2010-08-12T15:54:29Z</time>
      </trkpt>
      <trkpt lat="51.1909490" lon="7.1429870">
        <ele>140.4900000</ele>
        <time>2010-08-12T15:54:30Z</time>
      </trkpt>
      <trkpt lat="51.1910660" lon="7.1432280">
        <ele>140.9700000</ele>
        <time>2010-08-12T15:54:31Z</time>
      </trkpt>
      <trkpt lat="51.1911700" lon="7.1434660">
        <ele>140.9700000</ele>
        <time>2010-08-12T15:54:32Z</time>
      </trkpt>
      <trkpt lat="51.1912340" lon="7.1437770">
        <ele>140.9700000</ele>
        <time>2010-08-12T15:54:33Z</time>
      </trkpt>
      <trkpt lat="51.1913280" lon="7.1443900">
        <ele>141.4500000</ele>
        <time>2010-08-12T15:54:35Z</time>
      </trkpt>
      <trkpt lat="51.1913410" lon="7.1447270">
        <ele>141.9300000</ele>
        <time>2010-08-12T15:54:36Z</time>
      </trkpt>
      <trkpt lat="51.1913280" lon="7.1450690">
        <ele>141.9300000</ele>
        <time>2010-08-12T15:54:37Z</time>
      </trkpt>
      <trkpt lat="51.1913130" lon="7.1453950">
        <ele>141.9300000</ele>
        <time>2010-08-12T15:54:38Z</time>
      </trkpt>
      <trkpt lat="51.1912990" lon="7.1457000">
        <ele>142.4100000</ele>
        <time>2010-08-12T15:54:39Z</time>
      </trkpt>
      <trkpt lat="51.1912780" lon="7.1471750">
        <ele>143.3700000</ele>
        <time>2010-08-12T15:54:45Z</time>
      </trkpt>
      <trkpt lat="51.1913260" lon="7.1476920">
        <ele>143.8500000</ele>
        <time>2010-08-12T15:54:47Z</time>
      </trkpt>
      <trkpt lat="51.1913960" lon="7.1479530">
        <ele>144.3400000</ele>
        <time>2010-08-12T15:54:48Z</time>
      </trkpt>
      <trkpt lat="51.1915030" lon="7.1482190">
        <ele>145.7800000</ele>
        <time>2010-08-12T15:54:49Z</time>
      </trkpt>
      <trkpt lat="51.1916240" lon="7.1484630">
        <ele>147.2200000</ele>
        <time>2010-08-12T15:54:50Z</time>
      </trkpt>
      <trkpt lat="51.1918250" lon="7.1485840">
        <ele>147.2200000</ele>
        <time>2010-08-12T15:54:51Z</time>
      </trkpt>
      <trkpt lat="51.1919980" lon="7.1487300">
        <ele>147.7000000</ele>
        <time>2010-08-12T15:54:52Z</time>
      </trkpt>
      <trkpt lat="51.1921570" lon="7.1488630">
        <ele>148.6600000</ele>
        <time>2010-08-12T15:54:53Z</time>
      </trkpt>
      <trkpt lat="51.1923360" lon="7.1489720">
        <ele>149.1400000</ele>
        <time>2010-08-12T15:54:54Z</time>
      </trkpt>
      <trkpt lat="51.1925410" lon="7.1490530">
        <ele>150.1000000</ele>
        <time>2010-08-12T15:54:55Z</time>
      </trkpt>
      <trkpt lat="51.1927260" lon="7.1491950">
        <ele>151.5400000</ele>
        <time>2010-08-12T15:54:56Z</time>
      </trkpt>
      <trkpt lat="51.1934050" lon="7.1501220">
        <ele>153.9500000</ele>
        <time>2010-08-12T15:55:01Z</time>
      </trkpt>
      <trkpt lat="51.1934330" lon="7.1503940">
        <ele>153.4700000</ele>
        <time>2010-08-12T15:55:02Z</time>
      </trkpt>
      <trkpt lat="51.1934570" lon="7.1506800">
        <ele>153.4700000</ele>
        <time>2010-08-12T15:55:03Z</time>
      </trkpt>
      <trkpt lat="51.1934270" lon="7.1510150">
        <ele>153.4700000</ele>
        <time>2010-08-12T15:55:04Z</time>
      </trkpt>
      <trkpt lat="51.1933280" lon="7.1513910">
        <ele>156.3500000</ele>
        <time>2010-08-12T15:55:05Z</time>
      </trkpt>
      <trkpt lat="51.1932430" lon="7.1517030">
        <ele>156.8300000</ele>
        <time>2010-08-12T15:55:06Z</time>
      </trkpt>
      <trkpt lat="51.1931420" lon="7.1519840">
        <ele>156.3500000</ele>
        <time>2010-08-12T15:55:07Z</time>
      </trkpt>
      <trkpt lat="51.1930290" lon="7.1522390">
        <ele>155.8700000</ele>
        <time>2010-08-12T15:55:08Z</time>
      </trkpt>
      <trkpt lat="51.1929360" lon="7.1524820">
        <ele>155.8700000</ele>
        <time>2010-08-12T15:55:09Z</time>
      </trkpt>
      <trkpt lat="51.1928670" lon="7.1527190">
        <ele>155.3900000</ele>
        <time>2010-08-12T15:55:10Z</time>
      </trkpt>
      <trkpt lat="51.1928310" lon="7.1529360">
        <ele>154.4300000</ele>
        <time>2010-08-12T15:55:11Z</time>
      </trkpt>
      <trkpt lat="51.1928420" lon="7.1531370">
        <ele>154.4300000</ele>
        <time>2010-08-12T15:55:12Z</time>
      </trkpt>
      <trkpt lat="51.1928540" lon="7.1533820">
        <ele>154.4300000</ele>
        <time>2010-08-12T15:55:13Z</time>
      </trkpt>
      <trkpt lat="51.1929660" lon="7.1538610">
        <ele>154.4300000</ele>
        <time>2010-08-12T15:55:15Z</time>
      </trkpt>
      <trkpt lat="51.1930910" lon="7.1540230">
        <ele>152.5100000</ele>
        <time>2010-08-12T15:55:16Z</time>
      </trkpt>
      <trkpt lat="51.1932020" lon="7.1542040">
        <ele>152.5100000</ele>
        <time>2010-08-12T15:55:17Z</time>
      </trkpt>
      <trkpt lat="51.1933020" lon="7.1543720">
        <ele>152.9900000</ele>
        <time>2010-08-12T15:55:18Z</time>
      </trkpt>
      <trkpt lat="51.1934070" lon="7.1545250">
        <ele>152.9900000</ele>
        <time>2010-08-12T15:55:19Z</time>
      </trkpt>
      <trkpt lat="51.1935180" lon="7.1546620">
        <ele>152.9900000</ele>
        <time>2010-08-12T15:55:20Z</time>
      </trkpt>
      <trkpt lat="51.1936280" lon="7.1547870">
        <ele>152.9900000</ele>
        <time>2010-08-12T15:55:21Z</time>
      </trkpt>
      <trkpt lat="51.1940340" lon="7.1551610">
        <ele>154.9100000</ele>
        <time>2010-08-12T15:55:27Z</time>
      </trkpt>
      <trkpt lat="51.1945330" lon="7.1556260">
        <ele>156.3500000</ele>
        <time>2010-08-12T15:55:34Z</time>
      </trkpt>
      <trkpt lat="51.1955570" lon="7.1567110">
        <ele>157.7900000</ele>
        <time>2010-08-12T15:55:40Z</time>
      </trkpt>
      <trkpt lat="51.1966880" lon="7.1579300">
        <ele>160.2000000</ele>
        <time>2010-08-12T15:55:47Z</time>
      </trkpt>
      <trkpt lat="51.1980970" lon="7.1585810">
        <ele>162.6000000</ele>
        <time>2010-08-12T15:55:54Z</time>
      </trkpt>
      <trkpt lat="51.1983720" lon="7.1586660">
        <ele>163.0800000</ele>
        <time>2010-08-12T15:55:55Z</time>
      </trkpt>
      <trkpt lat="51.1996330" lon="7.1589490">
        <ele>166.9300000</ele>
        <time>2010-08-12T15:56:01Z</time>
      </trkpt>
      <trkpt lat="51.1997800" lon="7.1590160">
        <ele>167.8900000</ele>
        <time>2010-08-12T15:56:02Z</time>
      </trkpt>
      <trkpt lat="51.1998940" lon="7.1591330">
        <ele>168.8500000</ele>
        <time>2010-08-12T15:56:03Z</time>
      </trkpt>
      <trkpt lat="51.2002600" lon="7.1595190">
        <ele>168.3700000</ele>
        <time>2010-08-12T15:56:07Z</time>
      </trkpt>
      <trkpt lat="51.2003270" lon="7.1596060">
        <ele>167.8900000</ele>
        <time>2010-08-12T15:56:08Z</time>
      </trkpt>
      <trkpt lat="51.2003690" lon="7.1596910">
        <ele>167.4100000</ele>
        <time>2010-08-12T15:56:09Z</time>
      </trkpt>
      <trkpt lat="51.2003950" lon="7.1597610">
        <ele>166.9300000</ele>
        <time>2010-08-12T15:56:10Z</time>
      </trkpt>
      <trkpt lat="51.2004080" lon="7.1598080">
        <ele>166.4500000</ele>
        <time>2010-08-12T15:56:11Z</time>
      </trkpt>
      <trkpt lat="51.2004250" lon="7.1599060">
        <ele>165.4800000</ele>
        <time>2010-08-12T15:56:19Z</time>
      </trkpt>
      <trkpt lat="51.2004670" lon="7.1600480">
        <ele>165.9600000</ele>
        <time>2010-08-12T15:56:21Z</time>
      </trkpt>
      <trkpt lat="51.2005220" lon="7.1601750">
        <ele>166.4500000</ele>
        <time>2010-08-12T15:56:22Z</time>
      </trkpt>
      <trkpt lat="51.2006670" lon="7.1605550">
        <ele>166.4500000</ele>
        <time>2010-08-12T15:56:24Z</time>
      </trkpt>
      <trkpt lat="51.2007410" lon="7.1608530">
        <ele>165.9600000</ele>
        <time>2010-08-12T15:56:25Z</time>
      </trkpt>
      <trkpt lat="51.2008110" lon="7.1611670">
        <ele>165.9600000</ele>
        <time>2010-08-12T15:56:26Z</time>
      </trkpt>
      <trkpt lat="51.2013890" lon="7.1641680">
        <ele>163.0800000</ele>
        <time>2010-08-12T15:56:36Z</time>
      </trkpt>
      <trkpt lat="51.2019040" lon="7.1665040">
        <ele>166.4500000</ele>
        <time>2010-08-12T15:56:45Z</time>
      </trkpt>
      <trkpt lat="51.2020380" lon="7.1667210">
        <ele>166.9300000</ele>
        <time>2010-08-12T15:56:46Z</time>
      </trkpt>
      <trkpt lat="51.2022050" lon="7.1669190">
        <ele>167.4100000</ele>
        <time>2010-08-12T15:56:47Z</time>
      </trkpt>
      <trkpt lat="51.2023740" lon="7.1671240">
        <ele>167.8900000</ele>
        <time>2010-08-12T15:56:48Z</time>
      </trkpt>
      <trkpt lat="51.2025320" lon="7.1673270">
        <ele>168.3700000</ele>
        <time>2010-08-12T15:56:49Z</time>
      </trkpt>
      <trkpt lat="51.2030540" lon="7.1682040">
        <ele>171.2500000</ele>
        <time>2010-08-12T15:56:53Z</time>
      </trkpt>
      <trkpt lat="51.2031430" lon="7.1685630">
        <ele>171.7300000</ele>
        <time>2010-08-12T15:56:54Z</time>
      </trkpt>
      <trkpt lat="51.2032370" lon="7.1689210">
        <ele>171.7300000</ele>
        <time>2010-08-12T15:56:55Z</time>
      </trkpt>
      <trkpt lat="51.2033420" lon="7.1693040">
        <ele>172.2100000</ele>
        <time>2010-08-12T15:56:56Z</time>
      </trkpt>
      <trkpt lat="51.2034530" lon="7.1696880">
        <ele>172.2100000</ele>
        <time>2010-08-12T15:56:57Z</time>
      </trkpt>
      <trkpt lat="51.2041550" lon="7.1718210">
        <ele>173.1700000</ele>
        <time>2010-08-12T15:57:04Z</time>
      </trkpt>
      <trkpt lat="51.2042730" lon="7.1720170">
        <ele>173.1700000</ele>
        <time>2010-08-12T15:57:05Z</time>
      </trkpt>
      <trkpt lat="51.2044080" lon="7.1721820">
        <ele>173.6600000</ele>
        <time>2010-08-12T15:57:06Z</time>
      </trkpt>
      <trkpt lat="51.2045880" lon="7.1722970">
        <ele>174.1400000</ele>
        <time>2010-08-12T15:57:07Z</time>
      </trkpt>
      <trkpt lat="51.2047890" lon="7.1724290">
        <ele>176.5400000</ele>
        <time>2010-08-12T15:57:08Z</time>
      </trkpt>
      <trkpt lat="51.2049870" lon="7.1725540">
        <ele>177.9800000</ele>
        <time>2010-08-12T15:57:09Z</time>
      </trkpt>
      <trkpt lat="51.2051780" lon="7.1726740">
        <ele>178.4600000</ele>
        <time>2010-08-12T15:57:10Z</time>
      </trkpt>
      <trkpt lat="51.2058140" lon="7.1732160">
        <ele>178.9400000</ele>
        <time>2010-08-12T15:57:14Z</time>
      </trkpt>
      <trkpt lat="51.2059030" lon="7.1734530">
        <ele>180.3800000</ele>
        <time>2010-08-12T15:57:15Z</time>
      </trkpt>
      <trkpt lat="51.2059670" lon="7.1737070">
        <ele>181.8300000</ele>
        <time>2010-08-12T15:57:16Z</time>
      </trkpt>
      <trkpt lat="51.2060090" lon="7.1739830">
        <ele>181.3500000</ele>
        <time>2010-08-12T15:57:17Z</time>
      </trkpt>
      <trkpt lat="51.2060370" lon="7.1742630">
        <ele>180.3800000</ele>
        <time>2010-08-12T15:57:18Z</time>
      </trkpt>
      <trkpt lat="51.2060500" lon="7.1745400">
        <ele>178.9400000</ele>
        <time>2010-08-12T15:57:19Z</time>
      </trkpt>
      <trkpt lat="51.2060410" lon="7.1748110">
        <ele>177.0200000</ele>
        <time>2010-08-12T15:57:20Z</time>
      </trkpt>
      <trkpt lat="51.2060090" lon="7.1750700">
        <ele>176.0600000</ele>
        <time>2010-08-12T15:57:21Z</time>
      </trkpt>
      <trkpt lat="51.2059380" lon="7.1753040">
        <ele>175.5800000</ele>
        <time>2010-08-12T15:57:22Z</time>
      </trkpt>
      <trkpt lat="51.2058460" lon="7.1755180">
        <ele>174.6200000</ele>
        <time>2010-08-12T15:57:23Z</time>
      </trkpt>
      <trkpt lat="51.2057410" lon="7.1757090">
        <ele>173.6600000</ele>
        <time>2010-08-12T15:57:24Z</time>
      </trkpt>
      <trkpt lat="51.2056470" lon="7.1758810">
        <ele>172.6900000</ele>
        <time>2010-08-12T15:57:25Z</time>
      </trkpt>
      <trkpt lat="51.2055400" lon="7.1760360">
        <ele>173.1700000</ele>
        <time>2010-08-12T15:57:26Z</time>
      </trkpt>
      <trkpt lat="51.2054190" lon="7.1761630">
        <ele>172.6900000</ele>
        <time>2010-08-12T15:57:27Z</time>
      </trkpt>
      <trkpt lat="51.2053110" lon="7.1762370">
        <ele>172.6900000</ele>
        <time>2010-08-12T15:57:28Z</time>
      </trkpt>
      <trkpt lat="51.2052040" lon="7.1762890">
        <ele>172.6900000</ele>
        <time>2010-08-12T15:57:29Z</time>
      </trkpt>
      <trkpt lat="51.2050780" lon="7.1763440">
        <ele>173.6600000</ele>
        <time>2010-08-12T15:57:30Z</time>
      </trkpt>
      <trkpt lat="51.2049470" lon="7.1764070">
        <ele>174.1400000</ele>
        <time>2010-08-12T15:57:31Z</time>
      </trkpt>
      <trkpt lat="51.2048190" lon="7.1764560">
        <ele>176.0600000</ele>
        <time>2010-08-12T15:57:32Z</time>
      </trkpt>
      <trkpt lat="51.2043170" lon="7.1765330">
        <ele>177.5000000</ele>
        <time>2010-08-12T15:57:36Z</time>
      </trkpt>
      <trkpt lat="51.2031750" lon="7.1762440">
        <ele>184.7100000</ele>
        <time>2010-08-12T15:57:45Z</time>
      </trkpt>
      <trkpt lat="51.2030430" lon="7.1762260">
        <ele>185.6700000</ele>
        <time>2010-08-12T15:57:46Z</time>
      </trkpt>
      <trkpt lat="51.2029110" lon="7.1762330">
        <ele>186.1500000</ele>
        <time>2010-08-12T15:57:47Z</time>
      </trkpt>
      <trkpt lat="51.2027770" lon="7.1762590">
        <ele>187.1100000</ele>
        <time>2010-08-12T15:57:48Z</time>
      </trkpt>
      <trkpt lat="51.2013600" lon="7.1767110">
        <ele>188.5600000</ele>
        <time>2010-08-12T15:57:56Z</time>
      </trkpt>
      <trkpt lat="51.2004290" lon="7.1770700">
        <ele>188.0800000</ele>
        <time>2010-08-12T15:58:01Z</time>
      </trkpt>
      <trkpt lat="51.2003030" lon="7.1771850">
        <ele>187.1100000</ele>
        <time>2010-08-12T15:58:02Z</time>
      </trkpt>
      <trkpt lat="51.2002080" lon="7.1773220">
        <ele>185.1900000</ele>
        <time>2010-08-12T15:58:03Z</time>
      </trkpt>
      <trkpt lat="51.2001380" lon="7.1774520">
        <ele>184.2300000</ele>
        <time>2010-08-12T15:58:04Z</time>
      </trkpt>
      <trkpt lat="51.2000940" lon="7.1775570">
        <ele>183.2700000</ele>
        <time>2010-08-12T15:58:05Z</time>
      </trkpt>
      <trkpt lat="51.2000710" lon="7.1776350">
        <ele>182.7900000</ele>
        <time>2010-08-12T15:58:06Z</time>
      </trkpt>
      <trkpt lat="51.2000600" lon="7.1776930">
        <ele>181.8300000</ele>
        <time>2010-08-12T15:58:07Z</time>
      </trkpt>
      <trkpt lat="51.2000440" lon="7.1777360">
        <ele>181.8300000</ele>
        <time>2010-08-12T15:58:08Z</time>
      </trkpt>
      <trkpt lat="51.2000850" lon="7.1777200">
        <ele>180.8700000</ele>
        <time>2010-08-12T15:58:16Z</time>
      </trkpt>
      <trkpt lat="51.2001020" lon="7.1777770">
        <ele>178.9400000</ele>
        <time>2010-08-12T15:58:27Z</time>
      </trkpt>
      <trkpt lat="51.2000870" lon="7.1778510">
        <ele>178.4600000</ele>
        <time>2010-08-12T15:58:28Z</time>
      </trkpt>
      <trkpt lat="51.2000740" lon="7.1779500">
        <ele>178.4600000</ele>
        <time>2010-08-12T15:58:29Z</time>
      </trkpt>
      <trkpt lat="51.2000480" lon="7.1781280">
        <ele>177.9800000</ele>
        <time>2010-08-12T15:58:30Z</time>
      </trkpt>
      <trkpt lat="51.2000420" lon="7.1783140">
        <ele>177.5000000</ele>
        <time>2010-08-12T15:58:31Z</time>
      </trkpt>
      <trkpt lat="51.2000440" lon="7.1785240">
        <ele>177.5000000</ele>
        <time>2010-08-12T15:58:32Z</time>
      </trkpt>
      <trkpt lat="51.2000560" lon="7.1790420">
        <ele>176.5400000</ele>
        <time>2010-08-12T15:58:34Z</time>
      </trkpt>
      <trkpt lat="51.2000990" lon="7.1793160">
        <ele>176.0600000</ele>
        <time>2010-08-12T15:58:35Z</time>
      </trkpt>
      <trkpt lat="51.2001870" lon="7.1796130">
        <ele>176.5400000</ele>
        <time>2010-08-12T15:58:36Z</time>
      </trkpt>
      <trkpt lat="51.2003140" lon="7.1798360">
        <ele>178.9400000</ele>
        <time>2010-08-12T15:58:37Z</time>
      </trkpt>
      <trkpt lat="51.2004540" lon="7.1800410">
        <ele>179.9000000</ele>
        <time>2010-08-12T15:58:38Z</time>
      </trkpt>
      <trkpt lat="51.2005810" lon="7.1802430">
        <ele>181.3500000</ele>
        <time>2010-08-12T15:58:39Z</time>
      </trkpt>
      <trkpt lat="51.2009130" lon="7.1814600">
        <ele>185.6700000</ele>
        <time>2010-08-12T15:58:44Z</time>
      </trkpt>
      <trkpt lat="51.2008920" lon="7.1817810">
        <ele>185.6700000</ele>
        <time>2010-08-12T15:58:45Z</time>
      </trkpt>
      <trkpt lat="51.2008820" lon="7.1820900">
        <ele>185.6700000</ele>
        <time>2010-08-12T15:58:46Z</time>
      </trkpt>
      <trkpt lat="51.2007210" lon="7.1843150">
        <ele>186.6300000</ele>
        <time>2010-08-12T15:58:53Z</time>
      </trkpt>
      <trkpt lat="51.2005770" lon="7.1848250">
        <ele>187.5900000</ele>
        <time>2010-08-12T15:58:55Z</time>
      </trkpt>
      <trkpt lat="51.2004850" lon="7.1850790">
        <ele>187.5900000</ele>
        <time>2010-08-12T15:58:56Z</time>
      </trkpt>
      <trkpt lat="51.2003650" lon="7.1853160">
        <ele>187.5900000</ele>
        <time>2010-08-12T15:58:57Z</time>
      </trkpt>
      <trkpt lat="51.2002380" lon="7.1855290">
        <ele>187.5900000</ele>
        <time>2010-08-12T15:58:58Z</time>
      </trkpt>
      <trkpt lat="51.2001210" lon="7.1857260">
        <ele>187.1100000</ele>
        <time>2010-08-12T15:58:59Z</time>
      </trkpt>
      <trkpt lat="51.1995680" lon="7.1863640">
        <ele>187.5900000</ele>
        <time>2010-08-12T15:59:03Z</time>
      </trkpt>
      <trkpt lat="51.1994290" lon="7.1864960">
        <ele>187.1100000</ele>
        <time>2010-08-12T15:59:04Z</time>
      </trkpt>
      <trkpt lat="51.1990700" lon="7.1868730">
        <ele>187.1100000</ele>
        <time>2010-08-12T15:59:07Z</time>
      </trkpt>
      <trkpt lat="51.1989820" lon="7.1870240">
        <ele>188.0800000</ele>
        <time>2010-08-12T15:59:08Z</time>
      </trkpt>
      <trkpt lat="51.1989090" lon="7.1871880">
        <ele>188.0800000</ele>
        <time>2010-08-12T15:59:09Z</time>
      </trkpt>
      <trkpt lat="51.1988510" lon="7.1874130">
        <ele>189.0400000</ele>
        <time>2010-08-12T15:59:10Z</time>
      </trkpt>
      <trkpt lat="51.1988280" lon="7.1876620">
        <ele>188.0800000</ele>
        <time>2010-08-12T15:59:11Z</time>
      </trkpt>
      <trkpt lat="51.1988270" lon="7.1879320">
        <ele>187.5900000</ele>
        <time>2010-08-12T15:59:12Z</time>
      </trkpt>
      <trkpt lat="51.1988300" lon="7.1882120">
        <ele>188.0800000</ele>
        <time>2010-08-12T15:59:13Z</time>
      </trkpt>
      <trkpt lat="51.1988630" lon="7.1884850">
        <ele>187.5900000</ele>
        <time>2010-08-12T15:59:14Z</time>
      </trkpt>
      <trkpt lat="51.1988910" lon="7.1887290">
        <ele>188.0800000</ele>
        <time>2010-08-12T15:59:15Z</time>
      </trkpt>
      <trkpt lat="51.1990300" lon="7.1891460">
        <ele>188.5600000</ele>
        <time>2010-08-12T15:59:17Z</time>
      </trkpt>
      <trkpt lat="51.1991230" lon="7.1893400">
        <ele>190.0000000</ele>
        <time>2010-08-12T15:59:18Z</time>
      </trkpt>
      <trkpt lat="51.1992140" lon="7.1895290">
        <ele>190.0000000</ele>
        <time>2010-08-12T15:59:19Z</time>
      </trkpt>
      <trkpt lat="51.2003860" lon="7.1918450">
        <ele>200.0900000</ele>
        <time>2010-08-12T15:59:31Z</time>
      </trkpt>
      <trkpt lat="51.2004610" lon="7.1923340">
        <ele>201.5300000</ele>
        <time>2010-08-12T15:59:33Z</time>
      </trkpt>
      <trkpt lat="51.2004500" lon="7.1925860">
        <ele>202.0100000</ele>
        <time>2010-08-12T15:59:34Z</time>
      </trkpt>
      <trkpt lat="51.2004180" lon="7.1928440">
        <ele>200.5700000</ele>
        <time>2010-08-12T15:59:35Z</time>
      </trkpt>
      <trkpt lat="51.2003400" lon="7.1930910">
        <ele>199.1300000</ele>
        <time>2010-08-12T15:59:36Z</time>
      </trkpt>
      <trkpt lat="51.2002450" lon="7.1933360">
        <ele>199.6100000</ele>
        <time>2010-08-12T15:59:37Z</time>
      </trkpt>
      <trkpt lat="51.2001400" lon="7.1935400">
        <ele>199.6100000</ele>
        <time>2010-08-12T15:59:38Z</time>
      </trkpt>
      <trkpt lat="51.2000280" lon="7.1937070">
        <ele>199.1300000</ele>
        <time>2010-08-12T15:59:39Z</time>
      </trkpt>
      <trkpt lat="51.1999150" lon="7.1938620">
        <ele>199.1300000</ele>
        <time>2010-08-12T15:59:40Z</time>
      </trkpt>
      <trkpt lat="51.1998110" lon="7.1940050">
        <ele>198.6500000</ele>
        <time>2010-08-12T15:59:41Z</time>
      </trkpt>
      <trkpt lat="51.1993140" lon="7.1947370">
        <ele>200.0900000</ele>
        <time>2010-08-12T15:59:47Z</time>
      </trkpt>
      <trkpt lat="51.1992740" lon="7.1948390">
        <ele>199.6100000</ele>
        <time>2010-08-12T15:59:48Z</time>
      </trkpt>
      <trkpt lat="51.1992530" lon="7.1949230">
        <ele>198.6500000</ele>
        <time>2010-08-12T15:59:49Z</time>
      </trkpt>
      <trkpt lat="51.1992590" lon="7.1949560">
        <ele>198.1700000</ele>
        <time>2010-08-12T15:59:50Z</time>
      </trkpt>
      <trkpt lat="51.1992560" lon="7.1949970">
        <ele>198.1700000</ele>
        <time>2010-08-12T15:59:51Z</time>
      </trkpt>
      <trkpt lat="51.1991930" lon="7.1950840">
        <ele>199.1300000</ele>
        <time>2010-08-12T15:59:59Z</time>
      </trkpt>
      <trkpt lat="51.1991730" lon="7.1950900">
        <ele>198.6500000</ele>
        <time>2010-08-12T16:00:00Z</time>
      </trkpt>
      <trkpt lat="51.1991530" lon="7.1950850">
        <ele>198.6500000</ele>
        <time>2010-08-12T16:00:01Z</time>
      </trkpt>
      <trkpt lat="51.1991330" lon="7.1950610">
        <ele>198.1700000</ele>
        <time>2010-08-12T16:00:02Z</time>
      </trkpt>
      <trkpt lat="51.1991130" lon="7.1949780">
        <ele>197.6900000</ele>
        <time>2010-08-12T16:00:03Z</time>
      </trkpt>
      <trkpt lat="51.1990940" lon="7.1948440">
        <ele>197.6900000</ele>
        <time>2010-08-12T16:00:04Z</time>
      </trkpt>
      <trkpt lat="51.1990660" lon="7.1946960">
        <ele>197.2100000</ele>
        <time>2010-08-12T16:00:05Z</time>
      </trkpt>
      <trkpt lat="51.1985180" lon="7.1930670">
        <ele>199.1300000</ele>
        <time>2010-08-12T16:00:17Z</time>
      </trkpt>
      <trkpt lat="51.1983780" lon="7.1928320">
        <ele>199.1300000</ele>
        <time>2010-08-12T16:00:19Z</time>
      </trkpt>
      <trkpt lat="51.1982970" lon="7.1927500">
        <ele>199.1300000</ele>
        <time>2010-08-12T16:00:20Z</time>
      </trkpt>
      <trkpt lat="51.1982110" lon="7.1926800">
        <ele>200.5700000</ele>
        <time>2010-08-12T16:00:21Z</time>
      </trkpt>
      <trkpt lat="51.1977130" lon="7.1923380">
        <ele>207.3000000</ele>
        <time>2010-08-12T16:00:29Z</time>
      </trkpt>
      <trkpt lat="51.1975870" lon="7.1922570">
        <ele>216.9100000</ele>
        <time>2010-08-12T16:00:39Z</time>
      </trkpt>
      <trkpt lat="51.1973980" lon="7.1920350">
        <ele>222.2000000</ele>
        <time>2010-08-12T16:00:53Z</time>
      </trkpt>
      <trkpt lat="51.1973630" lon="7.1919840">
        <ele>221.7200000</ele>
        <time>2010-08-12T16:00:54Z</time>
      </trkpt>
      <trkpt lat="51.1973270" lon="7.1919550">
        <ele>221.2400000</ele>
        <time>2010-08-12T16:00:55Z</time>
      </trkpt>
      <trkpt lat="51.1972820" lon="7.1919540">
        <ele>220.7600000</ele>
        <time>2010-08-12T16:00:56Z</time>
      </trkpt>
      <trkpt lat="51.1972350" lon="7.1919780">
        <ele>220.2800000</ele>
        <time>2010-08-12T16:00:57Z</time>
      </trkpt>
      <trkpt lat="51.1971860" lon="7.1920180">
        <ele>219.8000000</ele>
        <time>2010-08-12T16:00:58Z</time>
      </trkpt>
      <trkpt lat="51.1971450" lon="7.1920630">
        <ele>219.3200000</ele>
        <time>2010-08-12T16:00:59Z</time>
      </trkpt>
      <trkpt lat="51.1967220" lon="7.1925110">
        <ele>216.9100000</ele>
        <time>2010-08-12T16:01:04Z</time>
      </trkpt>
      <trkpt lat="51.1957010" lon="7.1933700">
        <ele>208.2600000</ele>
        <time>2010-08-12T16:01:13Z</time>
      </trkpt>
      <trkpt lat="51.1950930" lon="7.1939460">
        <ele>206.8200000</ele>
        <time>2010-08-12T16:01:20Z</time>
      </trkpt>
      <trkpt lat="51.1950390" lon="7.1940880">
        <ele>206.8200000</ele>
        <time>2010-08-12T16:01:21Z</time>
      </trkpt>
      <trkpt lat="51.1949970" lon="7.1942710">
        <ele>206.3400000</ele>
        <time>2010-08-12T16:01:22Z</time>
      </trkpt>
      <trkpt lat="51.1949470" lon="7.1944200">
        <ele>206.3400000</ele>
        <time>2010-08-12T16:01:23Z</time>
      </trkpt>
      <trkpt lat="51.1949150" lon="7.1945950">
        <ele>206.3400000</ele>
        <time>2010-08-12T16:01:24Z</time>
      </trkpt>
      <trkpt lat="51.1949090" lon="7.1947840">
        <ele>205.8600000</ele>
        <time>2010-08-12T16:01:25Z</time>
      </trkpt>
      <trkpt lat="51.1949170" lon="7.1949760">
        <ele>205.3800000</ele>
        <time>2010-08-12T16:01:26Z</time>
      </trkpt>
      <trkpt lat="51.1949330" lon="7.1951730">
        <ele>204.9000000</ele>
        <time>2010-08-12T16:01:27Z</time>
      </trkpt>
      <trkpt lat="51.1950110" lon="7.1968230">
        <ele>205.8600000</ele>
        <time>2010-08-12T16:01:34Z</time>
      </trkpt>
      <trkpt lat="51.1947900" lon="7.1979290">
        <ele>209.2200000</ele>
        <time>2010-08-12T16:01:39Z</time>
      </trkpt>
      <trkpt lat="51.1946760" lon="7.1980040">
        <ele>210.1900000</ele>
        <time>2010-08-12T16:01:40Z</time>
      </trkpt>
      <trkpt lat="51.1945380" lon="7.1980650">
        <ele>211.1500000</ele>
        <time>2010-08-12T16:01:41Z</time>
      </trkpt>
      <trkpt lat="51.1943890" lon="7.1980470">
        <ele>212.1100000</ele>
        <time>2010-08-12T16:01:42Z</time>
      </trkpt>
      <trkpt lat="51.1942430" lon="7.1980110">
        <ele>212.5900000</ele>
        <time>2010-08-12T16:01:43Z</time>
      </trkpt>
      <trkpt lat="51.1940400" lon="7.1978960">
        <ele>214.9900000</ele>
        <time>2010-08-12T16:01:44Z</time>
      </trkpt>
      <trkpt lat="51.1938610" lon="7.1978120">
        <ele>216.4300000</ele>
        <time>2010-08-12T16:01:45Z</time>
      </trkpt>
      <trkpt lat="51.1936980" lon="7.1977460">
        <ele>217.8800000</ele>
        <time>2010-08-12T16:01:46Z</time>
      </trkpt>
      <trkpt lat="51.1927530" lon="7.1976290">
        <ele>223.6400000</ele>
        <time>2010-08-12T16:01:54Z</time>
      </trkpt>
      <trkpt lat="51.1924010" lon="7.1976800">
        <ele>226.0500000</ele>
        <time>2010-08-12T16:01:57Z</time>
      </trkpt>
      <trkpt lat="51.1922830" lon="7.1977280">
        <ele>226.5300000</ele>
        <time>2010-08-12T16:01:58Z</time>
      </trkpt>
      <trkpt lat="51.1921610" lon="7.1977950">
        <ele>227.0100000</ele>
        <time>2010-08-12T16:01:59Z</time>
      </trkpt>
      <trkpt lat="51.1913330" lon="7.1982180">
        <ele>230.8500000</ele>
        <time>2010-08-12T16:02:06Z</time>
      </trkpt>
      <trkpt lat="51.1904650" lon="7.1982660">
        <ele>235.1800000</ele>
        <time>2010-08-12T16:02:15Z</time>
      </trkpt>
      <trkpt lat="51.1903130" lon="7.1982100">
        <ele>235.6600000</ele>
        <time>2010-08-12T16:02:16Z</time>
      </trkpt>
      <trkpt lat="51.1901460" lon="7.1981300">
        <ele>236.6200000</ele>
        <time>2010-08-12T16:02:17Z</time>
      </trkpt>
      <trkpt lat="51.1887820" lon="7.1973540">
        <ele>245.7500000</ele>
        <time>2010-08-12T16:02:27Z</time>
      </trkpt>
      <trkpt lat="51.1884810" lon="7.1972950">
        <ele>246.7200000</ele>
        <time>2010-08-12T16:02:30Z</time>
      </trkpt>
      <trkpt lat="51.1883800" lon="7.1973010">
        <ele>247.2000000</ele>
        <time>2010-08-12T16:02:31Z</time>
      </trkpt>
      <trkpt lat="51.1876160" lon="7.1974400">
        <ele>252.9600000</ele>
        <time>2010-08-12T16:02:37Z</time>
      </trkpt>
      <trkpt lat="51.1874640" lon="7.1975460">
        <ele>255.8500000</ele>
        <time>2010-08-12T16:02:38Z</time>
      </trkpt>
      <trkpt lat="51.1868310" lon="7.1976820">
        <ele>259.6900000</ele>
        <time>2010-08-12T16:02:43Z</time>
      </trkpt>
      <trkpt lat="51.1866880" lon="7.1976440">
        <ele>260.1700000</ele>
        <time>2010-08-12T16:02:44Z</time>
      </trkpt>
      <trkpt lat="51.1865440" lon="7.1975940">
        <ele>261.1400000</ele>
        <time>2010-08-12T16:02:45Z</time>
      </trkpt>
      <trkpt lat="51.1852680" lon="7.1971830">
        <ele>265.4600000</ele>
        <time>2010-08-12T16:02:55Z</time>
      </trkpt>
      <trkpt lat="51.1851660" lon="7.1972240">
        <ele>266.4200000</ele>
        <time>2010-08-12T16:02:56Z</time>
      </trkpt>
      <trkpt lat="51.1850670" lon="7.1973080">
        <ele>266.9000000</ele>
        <time>2010-08-12T16:02:57Z</time>
      </trkpt>
      <trkpt lat="51.1849690" lon="7.1974280">
        <ele>267.8600000</ele>
        <time>2010-08-12T16:02:58Z</time>
      </trkpt>
      <trkpt lat="51.1849010" lon="7.1976560">
        <ele>268.3500000</ele>
        <time>2010-08-12T16:02:59Z</time>
      </trkpt>
      <trkpt lat="51.1848210" lon="7.1978460">
        <ele>269.7900000</ele>
        <time>2010-08-12T16:03:00Z</time>
      </trkpt>
      <trkpt lat="51.1847380" lon="7.1980020">
        <ele>270.7500000</ele>
        <time>2010-08-12T16:03:01Z</time>
      </trkpt>
      <trkpt lat="51.1846500" lon="7.1981300">
        <ele>271.2300000</ele>
        <time>2010-08-12T16:03:02Z</time>
      </trkpt>
      <trkpt lat="51.1838070" lon="7.1993060">
        <ele>274.5900000</ele>
        <time>2010-08-12T16:03:11Z</time>
      </trkpt>
      <trkpt lat="51.1831910" lon="7.2005460">
        <ele>278.4400000</ele>
        <time>2010-08-12T16:03:20Z</time>
      </trkpt>
      <trkpt lat="51.1831200" lon="7.2006740">
        <ele>278.4400000</ele>
        <time>2010-08-12T16:03:21Z</time>
      </trkpt>
      <trkpt lat="51.1829450" lon="7.2008730">
        <ele>279.8800000</ele>
        <time>2010-08-12T16:03:23Z</time>
      </trkpt>
      <trkpt lat="51.1828390" lon="7.2009160">
        <ele>280.8400000</ele>
        <time>2010-08-12T16:03:24Z</time>
      </trkpt>
      <trkpt lat="51.1827270" lon="7.2009290">
        <ele>281.8000000</ele>
        <time>2010-08-12T16:03:25Z</time>
      </trkpt>
      <trkpt lat="51.1825980" lon="7.2009140">
        <ele>282.7700000</ele>
        <time>2010-08-12T16:03:26Z</time>
      </trkpt>
      <trkpt lat="51.1824740" lon="7.2009070">
        <ele>284.2100000</ele>
        <time>2010-08-12T16:03:27Z</time>
      </trkpt>
      <trkpt lat="51.1816630" lon="7.2011130">
        <ele>294.7800000</ele>
        <time>2010-08-12T16:03:33Z</time>
      </trkpt>
      <trkpt lat="51.1804990" lon="7.2018420">
        <ele>298.6300000</ele>
        <time>2010-08-12T16:03:43Z</time>
      </trkpt>
      <trkpt lat="51.1794390" lon="7.2027260">
        <ele>301.9900000</ele>
        <time>2010-08-12T16:03:55Z</time>
      </trkpt>
      <trkpt lat="51.1786030" lon="7.2034540">
        <ele>300.5500000</ele>
        <time>2010-08-12T16:04:05Z</time>
      </trkpt>
      <trkpt lat="51.1784690" lon="7.2036020">
        <ele>303.9100000</ele>
        <time>2010-08-12T16:04:12Z</time>
      </trkpt>
      <trkpt lat="51.1783810" lon="7.2037030">
        <ele>306.3200000</ele>
        <time>2010-08-12T16:04:59Z</time>
      </trkpt>
      <trkpt lat="51.1781030" lon="7.2040020">
        <ele>302.9500000</ele>
        <time>2010-08-12T16:05:56Z</time>
      </trkpt>
      <trkpt lat="51.1772890" lon="7.2052740">
        <ele>298.6300000</ele>
        <time>2010-08-12T16:06:03Z</time>
      </trkpt>
      <trkpt lat="51.1768310" lon="7.2057000">
        <ele>300.0700000</ele>
        <time>2010-08-12T16:06:06Z</time>
      </trkpt>
      <trkpt lat="51.1766640" lon="7.2058490">
        <ele>300.0700000</ele>
        <time>2010-08-12T16:06:07Z</time>
      </trkpt>
      <trkpt lat="51.1755800" lon="7.2068950">
        <ele>307.2800000</ele>
        <time>2010-08-12T16:06:15Z</time>
      </trkpt>
      <trkpt lat="51.1752670" lon="7.2072260">
        <ele>308.2400000</ele>
        <time>2010-08-12T16:06:20Z</time>
      </trkpt>
      <trkpt lat="51.1752400" lon="7.2072890">
        <ele>309.2000000</ele>
        <time>2010-08-12T16:06:21Z</time>
      </trkpt>
      <trkpt lat="51.1752360" lon="7.2072770">
        <ele>307.7600000</ele>
        <time>2010-08-12T16:06:28Z</time>
      </trkpt>
      <trkpt lat="51.1749750" lon="7.2075010">
        <ele>304.3900000</ele>
        <time>2010-08-12T16:07:01Z</time>
      </trkpt>
      <trkpt lat="51.1742390" lon="7.2082450">
        <ele>310.1600000</ele>
        <time>2010-08-12T16:07:08Z</time>
      </trkpt>
      <trkpt lat="51.1740590" lon="7.2084300">
        <ele>315.4500000</ele>
        <time>2010-08-12T16:07:14Z</time>
      </trkpt>
      <trkpt lat="51.1739460" lon="7.2085480">
        <ele>315.9300000</ele>
        <time>2010-08-12T16:07:21Z</time>
      </trkpt>
      <trkpt lat="51.1738960" lon="7.2086090">
        <ele>316.4100000</ele>
        <time>2010-08-12T16:07:22Z</time>
      </trkpt>
      <trkpt lat="51.1738440" lon="7.2086870">
        <ele>316.4100000</ele>
        <time>2010-08-12T16:07:23Z</time>
      </trkpt>
      <trkpt lat="51.1737960" lon="7.2087810">
        <ele>316.8900000</ele>
        <time>2010-08-12T16:07:24Z</time>
      </trkpt>
      <trkpt lat="51.1737500" lon="7.2088920">
        <ele>317.3700000</ele>
        <time>2010-08-12T16:07:25Z</time>
      </trkpt>
      <trkpt lat="51.1737180" lon="7.2090290">
        <ele>317.3700000</ele>
        <time>2010-08-12T16:07:26Z</time>
      </trkpt>
      <trkpt lat="51.1737000" lon="7.2091750">
        <ele>317.8500000</ele>
        <time>2010-08-12T16:07:27Z</time>
      </trkpt>
      <trkpt lat="51.1736970" lon="7.2093180">
        <ele>317.8500000</ele>
        <time>2010-08-12T16:07:28Z</time>
      </trkpt>
      <trkpt lat="51.1737100" lon="7.2094670">
        <ele>317.8500000</ele>
        <time>2010-08-12T16:07:29Z</time>
      </trkpt>
      <trkpt lat="51.1737240" lon="7.2096220">
        <ele>317.8500000</ele>
        <time>2010-08-12T16:07:30Z</time>
      </trkpt>
      <trkpt lat="51.1738450" lon="7.2109720">
        <ele>321.2200000</ele>
        <time>2010-08-12T16:07:40Z</time>
      </trkpt>
      <trkpt lat="51.1739850" lon="7.2123390">
        <ele>324.1000000</ele>
        <time>2010-08-12T16:07:50Z</time>
      </trkpt>
      <trkpt lat="51.1742300" lon="7.2138270">
        <ele>324.1000000</ele>
        <time>2010-08-12T16:07:58Z</time>
      </trkpt>
      <trkpt lat="51.1744110" lon="7.2148520">
        <ele>324.1000000</ele>
        <time>2010-08-12T16:08:04Z</time>
      </trkpt>
      <trkpt lat="51.1744230" lon="7.2150300">
        <ele>324.1000000</ele>
        <time>2010-08-12T16:08:05Z</time>
      </trkpt>
      <trkpt lat="51.1744220" lon="7.2155350">
        <ele>326.5000000</ele>
        <time>2010-08-12T16:08:08Z</time>
      </trkpt>
      <trkpt lat="51.1743730" lon="7.2157000">
        <ele>326.9900000</ele>
        <time>2010-08-12T16:08:09Z</time>
      </trkpt>
      <trkpt lat="51.1743260" lon="7.2158490">
        <ele>326.9900000</ele>
        <time>2010-08-12T16:08:10Z</time>
      </trkpt>
      <trkpt lat="51.1742740" lon="7.2159780">
        <ele>326.9900000</ele>
        <time>2010-08-12T16:08:11Z</time>
      </trkpt>
      <trkpt lat="51.1742110" lon="7.2160730">
        <ele>326.9900000</ele>
        <time>2010-08-12T16:08:12Z</time>
      </trkpt>
      <trkpt lat="51.1741450" lon="7.2161380">
        <ele>326.9900000</ele>
        <time>2010-08-12T16:08:13Z</time>
      </trkpt>
      <trkpt lat="51.1740800" lon="7.2161790">
        <ele>326.9900000</ele>
        <time>2010-08-12T16:08:14Z</time>
      </trkpt>
      <trkpt lat="51.1740170" lon="7.2162060">
        <ele>327.4700000</ele>
        <time>2010-08-12T16:08:15Z</time>
      </trkpt>
      <trkpt lat="51.1739670" lon="7.2162450">
        <ele>327.4700000</ele>
        <time>2010-08-12T16:08:16Z</time>
      </trkpt>
      <trkpt lat="51.1739340" lon="7.2163000">
        <ele>327.9500000</ele>
        <time>2010-08-12T16:08:17Z</time>
      </trkpt>
      <trkpt lat="51.1739190" lon="7.2163670">
        <ele>328.4300000</ele>
        <time>2010-08-12T16:08:18Z</time>
      </trkpt>
      <trkpt lat="51.1739140" lon="7.2164380">
        <ele>328.4300000</ele>
        <time>2010-08-12T16:08:19Z</time>
      </trkpt>
      <trkpt lat="51.1739100" lon="7.2165070">
        <ele>328.9100000</ele>
        <time>2010-08-12T16:08:20Z</time>
      </trkpt>
      <trkpt lat="51.1739150" lon="7.2170470">
        <ele>329.3900000</ele>
        <time>2010-08-12T16:08:26Z</time>
      </trkpt>
      <trkpt lat="51.1739320" lon="7.2171660">
        <ele>330.3500000</ele>
        <time>2010-08-12T16:08:27Z</time>
      </trkpt>
      <trkpt lat="51.1739530" lon="7.2172790">
        <ele>329.8700000</ele>
        <time>2010-08-12T16:08:28Z</time>
      </trkpt>
      <trkpt lat="51.1740290" lon="7.2176260">
        <ele>330.3500000</ele>
        <time>2010-08-12T16:08:31Z</time>
      </trkpt>
      <trkpt lat="51.1740410" lon="7.2177500">
        <ele>330.8300000</ele>
        <time>2010-08-12T16:08:32Z</time>
      </trkpt>
      <trkpt lat="51.1740390" lon="7.2178780">
        <ele>331.3100000</ele>
        <time>2010-08-12T16:08:33Z</time>
      </trkpt>
      <trkpt lat="51.1740240" lon="7.2180100">
        <ele>331.3100000</ele>
        <time>2010-08-12T16:08:34Z</time>
      </trkpt>
      <trkpt lat="51.1740050" lon="7.2181480">
        <ele>331.3100000</ele>
        <time>2010-08-12T16:08:35Z</time>
      </trkpt>
      <trkpt lat="51.1738770" lon="7.2197230">
        <ele>326.5000000</ele>
        <time>2010-08-12T16:08:46Z</time>
      </trkpt>
      <trkpt lat="51.1738200" lon="7.2214340">
        <ele>321.7000000</ele>
        <time>2010-08-12T16:08:57Z</time>
      </trkpt>
      <trkpt lat="51.1734850" lon="7.2232700">
        <ele>316.8900000</ele>
        <time>2010-08-12T16:09:08Z</time>
      </trkpt>
      <trkpt lat="51.1728970" lon="7.2248530">
        <ele>313.0500000</ele>
        <time>2010-08-12T16:09:18Z</time>
      </trkpt>
      <trkpt lat="51.1728050" lon="7.2250070">
        <ele>313.0500000</ele>
        <time>2010-08-12T16:09:19Z</time>
      </trkpt>
      <trkpt lat="51.1717080" lon="7.2265560">
        <ele>309.2000000</ele>
        <time>2010-08-12T16:09:31Z</time>
      </trkpt>
      <trkpt lat="51.1709980" lon="7.2277100">
        <ele>299.1100000</ele>
        <time>2010-08-12T16:09:40Z</time>
      </trkpt>
      <trkpt lat="51.1709420" lon="7.2278580">
        <ele>298.1500000</ele>
        <time>2010-08-12T16:09:41Z</time>
      </trkpt>
      <trkpt lat="51.1709020" lon="7.2280180">
        <ele>297.6700000</ele>
        <time>2010-08-12T16:09:42Z</time>
      </trkpt>
      <trkpt lat="51.1708290" lon="7.2282960">
        <ele>295.2600000</ele>
        <time>2010-08-12T16:09:44Z</time>
      </trkpt>
      <trkpt lat="51.1707760" lon="7.2284230">
        <ele>294.3000000</ele>
        <time>2010-08-12T16:09:45Z</time>
      </trkpt>
      <trkpt lat="51.1706980" lon="7.2285260">
        <ele>294.3000000</ele>
        <time>2010-08-12T16:09:46Z</time>
      </trkpt>
      <trkpt lat="51.1704480" lon="7.2290310">
        <ele>291.4200000</ele>
        <time>2010-08-12T16:09:50Z</time>
      </trkpt>
      <trkpt lat="51.1704190" lon="7.2291750">
        <ele>290.9400000</ele>
        <time>2010-08-12T16:09:51Z</time>
      </trkpt>
      <trkpt lat="51.1703040" lon="7.2299440">
        <ele>287.0900000</ele>
        <time>2010-08-12T16:09:56Z</time>
      </trkpt>
      <trkpt lat="51.1702580" lon="7.2300940">
        <ele>286.6100000</ele>
        <time>2010-08-12T16:09:57Z</time>
      </trkpt>
      <trkpt lat="51.1701930" lon="7.2302220">
        <ele>285.6500000</ele>
        <time>2010-08-12T16:09:58Z</time>
      </trkpt>
      <trkpt lat="51.1692980" lon="7.2314510">
        <ele>278.4400000</ele>
        <time>2010-08-12T16:10:09Z</time>
      </trkpt>
      <trkpt lat="51.1692220" lon="7.2315380">
        <ele>277.4800000</ele>
        <time>2010-08-12T16:10:10Z</time>
      </trkpt>
      <trkpt lat="51.1691450" lon="7.2315990">
        <ele>277.0000000</ele>
        <time>2010-08-12T16:10:11Z</time>
      </trkpt>
      <trkpt lat="51.1690800" lon="7.2316660">
        <ele>276.5200000</ele>
        <time>2010-08-12T16:10:12Z</time>
      </trkpt>
      <trkpt lat="51.1690350" lon="7.2317540">
        <ele>276.0400000</ele>
        <time>2010-08-12T16:10:13Z</time>
      </trkpt>
      <trkpt lat="51.1689970" lon="7.2318450">
        <ele>275.5600000</ele>
        <time>2010-08-12T16:10:14Z</time>
      </trkpt>
      <trkpt lat="51.1689530" lon="7.2319280">
        <ele>275.0700000</ele>
        <time>2010-08-12T16:10:15Z</time>
      </trkpt>
      <trkpt lat="51.1689040" lon="7.2319990">
        <ele>274.1100000</ele>
        <time>2010-08-12T16:10:16Z</time>
      </trkpt>
      <trkpt lat="51.1688510" lon="7.2320730">
        <ele>273.6300000</ele>
        <time>2010-08-12T16:10:17Z</time>
      </trkpt>
      <trkpt lat="51.1685470" lon="7.2324530">
        <ele>271.2300000</ele>
        <time>2010-08-12T16:10:22Z</time>
      </trkpt>
      <trkpt lat="51.1684690" lon="7.2324990">
        <ele>270.7500000</ele>
        <time>2010-08-12T16:10:23Z</time>
      </trkpt>
      <trkpt lat="51.1676240" lon="7.2329040">
        <ele>264.5000000</ele>
        <time>2010-08-12T16:10:33Z</time>
      </trkpt>
      <trkpt lat="51.1675250" lon="7.2328750">
        <ele>264.0200000</ele>
        <time>2010-08-12T16:10:34Z</time>
      </trkpt>
      <trkpt lat="51.1666860" lon="7.2326540">
        <ele>260.1700000</ele>
        <time>2010-08-12T16:10:43Z</time>
      </trkpt>
      <trkpt lat="51.1666360" lon="7.2327220">
        <ele>259.6900000</ele>
        <time>2010-08-12T16:10:44Z</time>
      </trkpt>
      <trkpt lat="51.1665970" lon="7.2328080">
        <ele>259.6900000</ele>
        <time>2010-08-12T16:10:45Z</time>
      </trkpt>
      <trkpt lat="51.1665770" lon="7.2329010">
        <ele>259.6900000</ele>
        <time>2010-08-12T16:10:46Z</time>
      </trkpt>
      <trkpt lat="51.1665720" lon="7.2329750">
        <ele>259.2100000</ele>
        <time>2010-08-12T16:10:47Z</time>
      </trkpt>
      <trkpt lat="51.1666220" lon="7.2331130">
        <ele>260.1700000</ele>
        <time>2010-08-12T16:10:48Z</time>
      </trkpt>
      <trkpt lat="51.1666850" lon="7.2332220">
        <ele>259.2100000</ele>
        <time>2010-08-12T16:10:49Z</time>
      </trkpt>
      <trkpt lat="51.1667450" lon="7.2332980">
        <ele>257.7700000</ele>
        <time>2010-08-12T16:10:50Z</time>
      </trkpt>
      <trkpt lat="51.1668640" lon="7.2333160">
        <ele>257.2900000</ele>
        <time>2010-08-12T16:10:51Z</time>
      </trkpt>
      <trkpt lat="51.1669680" lon="7.2333180">
        <ele>256.3300000</ele>
        <time>2010-08-12T16:10:52Z</time>
      </trkpt>
      <trkpt lat="51.1670650" lon="7.2333280">
        <ele>255.3700000</ele>
        <time>2010-08-12T16:10:53Z</time>
      </trkpt>
      <trkpt lat="51.1673930" lon="7.2333930">
        <ele>253.9300000</ele>
        <time>2010-08-12T16:10:58Z</time>
      </trkpt>
      <trkpt lat="51.1672010" lon="7.2336390">
        <ele>250.0800000</ele>
        <time>2010-08-12T16:11:03Z</time>
      </trkpt>
      <trkpt lat="51.1671140" lon="7.2336500">
        <ele>250.0800000</ele>
        <time>2010-08-12T16:11:04Z</time>
      </trkpt>
      <trkpt lat="51.1670270" lon="7.2336790">
        <ele>249.6000000</ele>
        <time>2010-08-12T16:11:05Z</time>
      </trkpt>
      <trkpt lat="51.1669520" lon="7.2337220">
        <ele>247.6800000</ele>
        <time>2010-08-12T16:11:06Z</time>
      </trkpt>
      <trkpt lat="51.1668860" lon="7.2337770">
        <ele>246.2300000</ele>
        <time>2010-08-12T16:11:07Z</time>
      </trkpt>
      <trkpt lat="51.1668330" lon="7.2338330">
        <ele>245.7500000</ele>
        <time>2010-08-12T16:11:08Z</time>
      </trkpt>
      <trkpt lat="51.1667970" lon="7.2338930">
        <ele>244.7900000</ele>
        <time>2010-08-12T16:11:09Z</time>
      </trkpt>
      <trkpt lat="51.1667750" lon="7.2339820">
        <ele>244.3100000</ele>
        <time>2010-08-12T16:11:10Z</time>
      </trkpt>
      <trkpt lat="51.1667680" lon="7.2341350">
        <ele>243.8300000</ele>
        <time>2010-08-12T16:11:11Z</time>
      </trkpt>
      <trkpt lat="51.1667860" lon="7.2342660">
        <ele>242.8700000</ele>
        <time>2010-08-12T16:11:12Z</time>
      </trkpt>
      <trkpt lat="51.1667880" lon="7.2344010">
        <ele>242.8700000</ele>
        <time>2010-08-12T16:11:13Z</time>
      </trkpt>
      <trkpt lat="51.1667740" lon="7.2345470">
        <ele>242.3900000</ele>
        <time>2010-08-12T16:11:14Z</time>
      </trkpt>
      <trkpt lat="51.1665290" lon="7.2356310">
        <ele>245.2700000</ele>
        <time>2010-08-12T16:11:21Z</time>
      </trkpt>
      <trkpt lat="51.1665250" lon="7.2357700">
        <ele>247.2000000</ele>
        <time>2010-08-12T16:11:22Z</time>
      </trkpt>
      <trkpt lat="51.1665380" lon="7.2359200">
        <ele>248.6400000</ele>
        <time>2010-08-12T16:11:23Z</time>
      </trkpt>
      <trkpt lat="51.1666380" lon="7.2360430">
        <ele>250.0800000</ele>
        <time>2010-08-12T16:11:24Z</time>
      </trkpt>
      <trkpt lat="51.1667340" lon="7.2361610">
        <ele>252.9600000</ele>
        <time>2010-08-12T16:11:25Z</time>
      </trkpt>
      <trkpt lat="51.1668110" lon="7.2362870">
        <ele>254.8900000</ele>
        <time>2010-08-12T16:11:26Z</time>
      </trkpt>
      <trkpt lat="51.1668570" lon="7.2364390">
        <ele>256.8100000</ele>
        <time>2010-08-12T16:11:27Z</time>
      </trkpt>
      <trkpt lat="51.1668730" lon="7.2366000">
        <ele>258.7300000</ele>
        <time>2010-08-12T16:11:28Z</time>
      </trkpt>
      <trkpt lat="51.1668820" lon="7.2367440">
        <ele>259.2100000</ele>
        <time>2010-08-12T16:11:29Z</time>
      </trkpt>
      <trkpt lat="51.1669150" lon="7.2370820">
        <ele>263.5400000</ele>
        <time>2010-08-12T16:11:35Z</time>
      </trkpt>
      <trkpt lat="51.1668840" lon="7.2371810">
        <ele>264.5000000</ele>
        <time>2010-08-12T16:11:37Z</time>
      </trkpt>
      <trkpt lat="51.1668380" lon="7.2372330">
        <ele>264.9800000</ele>
        <time>2010-08-12T16:11:38Z</time>
      </trkpt>
      <trkpt lat="51.1666200" lon="7.2374300">
        <ele>265.9400000</ele>
        <time>2010-08-12T16:11:41Z</time>
      </trkpt>
      <trkpt lat="51.1665350" lon="7.2374840">
        <ele>266.4200000</ele>
        <time>2010-08-12T16:11:42Z</time>
      </trkpt>
      <trkpt lat="51.1664440" lon="7.2375310">
        <ele>267.3800000</ele>
        <time>2010-08-12T16:11:43Z</time>
      </trkpt>
      <trkpt lat="51.1663520" lon="7.2375700">
        <ele>268.3500000</ele>
        <time>2010-08-12T16:11:44Z</time>
      </trkpt>
      <trkpt lat="51.1662650" lon="7.2375940">
        <ele>269.3100000</ele>
        <time>2010-08-12T16:11:45Z</time>
      </trkpt>
      <trkpt lat="51.1661850" lon="7.2376040">
        <ele>269.7900000</ele>
        <time>2010-08-12T16:11:46Z</time>
      </trkpt>
      <trkpt lat="51.1660980" lon="7.2375930">
        <ele>270.7500000</ele>
        <time>2010-08-12T16:11:47Z</time>
      </trkpt>
      <trkpt lat="51.1660250" lon="7.2375390">
        <ele>271.7100000</ele>
        <time>2010-08-12T16:11:48Z</time>
      </trkpt>
      <trkpt lat="51.1659620" lon="7.2374760">
        <ele>272.1900000</ele>
        <time>2010-08-12T16:11:49Z</time>
      </trkpt>
      <trkpt lat="51.1659050" lon="7.2374010">
        <ele>273.1500000</ele>
        <time>2010-08-12T16:11:50Z</time>
      </trkpt>
      <trkpt lat="51.1658580" lon="7.2373120">
        <ele>273.6300000</ele>
        <time>2010-08-12T16:11:51Z</time>
      </trkpt>
      <trkpt lat="51.1658230" lon="7.2372060">
        <ele>274.1100000</ele>
        <time>2010-08-12T16:11:52Z</time>
      </trkpt>
      <trkpt lat="51.1657900" lon="7.2370930">
        <ele>275.0700000</ele>
        <time>2010-08-12T16:11:53Z</time>
      </trkpt>
      <trkpt lat="51.1657460" lon="7.2369810">
        <ele>275.5600000</ele>
        <time>2010-08-12T16:11:54Z</time>
      </trkpt>
      <trkpt lat="51.1656890" lon="7.2368810">
        <ele>276.0400000</ele>
        <time>2010-08-12T16:11:55Z</time>
      </trkpt>
      <trkpt lat="51.1656270" lon="7.2368230">
        <ele>276.5200000</ele>
        <time>2010-08-12T16:11:56Z</time>
      </trkpt>
      <trkpt lat="51.1655510" lon="7.2368270">
        <ele>277.0000000</ele>
        <time>2010-08-12T16:11:57Z</time>
      </trkpt>
      <trkpt lat="51.1654710" lon="7.2368490">
        <ele>277.0000000</ele>
        <time>2010-08-12T16:11:58Z</time>
      </trkpt>
      <trkpt lat="51.1653800" lon="7.2368840">
        <ele>277.0000000</ele>
        <time>2010-08-12T16:11:59Z</time>
      </trkpt>
      <trkpt lat="51.1652930" lon="7.2369140">
        <ele>277.4800000</ele>
        <time>2010-08-12T16:12:00Z</time>
      </trkpt>
      <trkpt lat="51.1650920" lon="7.2370030">
        <ele>277.9600000</ele>
        <time>2010-08-12T16:12:03Z</time>
      </trkpt>
      <trkpt lat="51.1650390" lon="7.2370730">
        <ele>277.9600000</ele>
        <time>2010-08-12T16:12:04Z</time>
      </trkpt>
      <trkpt lat="51.1649890" lon="7.2371760">
        <ele>278.9200000</ele>
        <time>2010-08-12T16:12:05Z</time>
      </trkpt>
      <trkpt lat="51.1648820" lon="7.2374500">
        <ele>279.8800000</ele>
        <time>2010-08-12T16:12:07Z</time>
      </trkpt>
      <trkpt lat="51.1645960" lon="7.2380250">
        <ele>283.2500000</ele>
        <time>2010-08-12T16:12:12Z</time>
      </trkpt>
      <trkpt lat="51.1645690" lon="7.2381150">
        <ele>283.7300000</ele>
        <time>2010-08-12T16:12:13Z</time>
      </trkpt>
      <trkpt lat="51.1645660" lon="7.2382180">
        <ele>284.2100000</ele>
        <time>2010-08-12T16:12:14Z</time>
      </trkpt>
      <trkpt lat="51.1645780" lon="7.2383160">
        <ele>284.6900000</ele>
        <time>2010-08-12T16:12:15Z</time>
      </trkpt>
      <trkpt lat="51.1645940" lon="7.2384020">
        <ele>284.6900000</ele>
        <time>2010-08-12T16:12:16Z</time>
      </trkpt>
      <trkpt lat="51.1646380" lon="7.2386910">
        <ele>285.1700000</ele>
        <time>2010-08-12T16:12:20Z</time>
      </trkpt>
      <trkpt lat="51.1646410" lon="7.2387610">
        <ele>284.6900000</ele>
        <time>2010-08-12T16:12:21Z</time>
      </trkpt>
      <trkpt lat="51.1646400" lon="7.2388310">
        <ele>284.6900000</ele>
        <time>2010-08-12T16:12:22Z</time>
      </trkpt>
      <trkpt lat="51.1646320" lon="7.2389010">
        <ele>284.2100000</ele>
        <time>2010-08-12T16:12:23Z</time>
      </trkpt>
      <trkpt lat="51.1646150" lon="7.2389680">
        <ele>284.2100000</ele>
        <time>2010-08-12T16:12:24Z</time>
      </trkpt>
      <trkpt lat="51.1645910" lon="7.2390340">
        <ele>283.7300000</ele>
        <time>2010-08-12T16:12:25Z</time>
      </trkpt>
      <trkpt lat="51.1645610" lon="7.2391060">
        <ele>283.2500000</ele>
        <time>2010-08-12T16:12:26Z</time>
      </trkpt>
      <trkpt lat="51.1641950" lon="7.2400320">
        <ele>278.9200000</ele>
        <time>2010-08-12T16:12:35Z</time>
      </trkpt>
      <trkpt lat="51.1641740" lon="7.2401460">
        <ele>278.9200000</ele>
        <time>2010-08-12T16:12:36Z</time>
      </trkpt>
      <trkpt lat="51.1641660" lon="7.2402710">
        <ele>278.4400000</ele>
        <time>2010-08-12T16:12:37Z</time>
      </trkpt>
      <trkpt lat="51.1641670" lon="7.2404050">
        <ele>277.9600000</ele>
        <time>2010-08-12T16:12:38Z</time>
      </trkpt>
      <trkpt lat="51.1641710" lon="7.2405480">
        <ele>277.0000000</ele>
        <time>2010-08-12T16:12:39Z</time>
      </trkpt>
      <trkpt lat="51.1642290" lon="7.2420470">
        <ele>271.7100000</ele>
        <time>2010-08-12T16:12:49Z</time>
      </trkpt>
      <trkpt lat="51.1643000" lon="7.2423380">
        <ele>271.2300000</ele>
        <time>2010-08-12T16:12:51Z</time>
      </trkpt>
      <trkpt lat="51.1643500" lon="7.2424780">
        <ele>270.7500000</ele>
        <time>2010-08-12T16:12:52Z</time>
      </trkpt>
      <trkpt lat="51.1644150" lon="7.2426050">
        <ele>269.7900000</ele>
        <time>2010-08-12T16:12:53Z</time>
      </trkpt>
      <trkpt lat="51.1645110" lon="7.2426910">
        <ele>270.2700000</ele>
        <time>2010-08-12T16:12:54Z</time>
      </trkpt>
      <trkpt lat="51.1645970" lon="7.2427760">
        <ele>270.7500000</ele>
        <time>2010-08-12T16:12:55Z</time>
      </trkpt>
      <trkpt lat="51.1646690" lon="7.2431290">
        <ele>267.3800000</ele>
        <time>2010-08-12T16:12:58Z</time>
      </trkpt>
      <trkpt lat="51.1646380" lon="7.2432240">
        <ele>265.4600000</ele>
        <time>2010-08-12T16:12:59Z</time>
      </trkpt>
      <trkpt lat="51.1646000" lon="7.2433540">
        <ele>263.0600000</ele>
        <time>2010-08-12T16:13:00Z</time>
      </trkpt>
      <trkpt lat="51.1645250" lon="7.2434950">
        <ele>261.1400000</ele>
        <time>2010-08-12T16:13:01Z</time>
      </trkpt>
      <trkpt lat="51.1645010" lon="7.2436170">
        <ele>259.2100000</ele>
        <time>2010-08-12T16:13:02Z</time>
      </trkpt>
      <trkpt lat="51.1644750" lon="7.2437270">
        <ele>257.7700000</ele>
        <time>2010-08-12T16:13:03Z</time>
      </trkpt>
      <trkpt lat="51.1644180" lon="7.2437930">
        <ele>256.8100000</ele>
        <time>2010-08-12T16:13:04Z</time>
      </trkpt>
      <trkpt lat="51.1643700" lon="7.2438350">
        <ele>256.3300000</ele>
        <time>2010-08-12T16:13:05Z</time>
      </trkpt>
      <trkpt lat="51.1642830" lon="7.2438450">
        <ele>258.2500000</ele>
        <time>2010-08-12T16:13:06Z</time>
      </trkpt>
      <trkpt lat="51.1641990" lon="7.2438540">
        <ele>258.7300000</ele>
        <time>2010-08-12T16:13:07Z</time>
      </trkpt>
      <trkpt lat="51.1640980" lon="7.2438590">
        <ele>259.2100000</ele>
        <time>2010-08-12T16:13:08Z</time>
      </trkpt>
      <trkpt lat="51.1639950" lon="7.2438530">
        <ele>259.6900000</ele>
        <time>2010-08-12T16:13:09Z</time>
      </trkpt>
      <trkpt lat="51.1638960" lon="7.2438200">
        <ele>260.1700000</ele>
        <time>2010-08-12T16:13:10Z</time>
      </trkpt>
      <trkpt lat="51.1638100" lon="7.2437670">
        <ele>260.6500000</ele>
        <time>2010-08-12T16:13:11Z</time>
      </trkpt>
      <trkpt lat="51.1637300" lon="7.2436900">
        <ele>260.1700000</ele>
        <time>2010-08-12T16:13:12Z</time>
      </trkpt>
      <trkpt lat="51.1636410" lon="7.2436110">
        <ele>260.6500000</ele>
        <time>2010-08-12T16:13:13Z</time>
      </trkpt>
      <trkpt lat="51.1629730" lon="7.2428210">
        <ele>266.4200000</ele>
        <time>2010-08-12T16:13:21Z</time>
      </trkpt>
      <trkpt lat="51.1628960" lon="7.2428190">
        <ele>268.3500000</ele>
        <time>2010-08-12T16:13:22Z</time>
      </trkpt>
      <trkpt lat="51.1628180" lon="7.2428600">
        <ele>270.2700000</ele>
        <time>2010-08-12T16:13:23Z</time>
      </trkpt>
      <trkpt lat="51.1627250" lon="7.2428700">
        <ele>271.2300000</ele>
        <time>2010-08-12T16:13:24Z</time>
      </trkpt>
      <trkpt lat="51.1626220" lon="7.2429240">
        <ele>274.1100000</ele>
        <time>2010-08-12T16:13:25Z</time>
      </trkpt>
      <trkpt lat="51.1627180" lon="7.2431490">
        <ele>283.7300000</ele>
        <time>2010-08-12T16:13:30Z</time>
      </trkpt>
      <trkpt lat="51.1628060" lon="7.2432470">
        <ele>285.1700000</ele>
        <time>2010-08-12T16:13:31Z</time>
      </trkpt>
      <trkpt lat="51.1628890" lon="7.2433430">
        <ele>286.1300000</ele>
        <time>2010-08-12T16:13:32Z</time>
      </trkpt>
      <trkpt lat="51.1629860" lon="7.2435240">
        <ele>287.0900000</ele>
        <time>2010-08-12T16:13:34Z</time>
      </trkpt>
      <trkpt lat="51.1630260" lon="7.2436090">
        <ele>289.0100000</ele>
        <time>2010-08-12T16:13:35Z</time>
      </trkpt>
      <trkpt lat="51.1631580" lon="7.2439520">
        <ele>290.4600000</ele>
        <time>2010-08-12T16:13:39Z</time>
      </trkpt>
      <trkpt lat="51.1631510" lon="7.2440890">
        <ele>289.9700000</ele>
        <time>2010-08-12T16:13:41Z</time>
      </trkpt>
      <trkpt lat="51.1631100" lon="7.2441330">
        <ele>289.0100000</ele>
        <time>2010-08-12T16:13:42Z</time>
      </trkpt>
      <trkpt lat="51.1630560" lon="7.2441490">
        <ele>288.0500000</ele>
        <time>2010-08-12T16:13:43Z</time>
      </trkpt>
      <trkpt lat="51.1629530" lon="7.2441220">
        <ele>288.0500000</ele>
        <time>2010-08-12T16:13:44Z</time>
      </trkpt>
      <trkpt lat="51.1628500" lon="7.2440990">
        <ele>289.0100000</ele>
        <time>2010-08-12T16:13:45Z</time>
      </trkpt>
      <trkpt lat="51.1627440" lon="7.2440880">
        <ele>289.0100000</ele>
        <time>2010-08-12T16:13:46Z</time>
      </trkpt>
      <trkpt lat="51.1626480" lon="7.2441220">
        <ele>289.9700000</ele>
        <time>2010-08-12T16:13:47Z</time>
      </trkpt>
      <trkpt lat="51.1625590" lon="7.2441990">
        <ele>289.4900000</ele>
        <time>2010-08-12T16:13:48Z</time>
      </trkpt>
      <trkpt lat="51.1624670" lon="7.2443150">
        <ele>290.4600000</ele>
        <time>2010-08-12T16:13:49Z</time>
      </trkpt>
      <trkpt lat="51.1623720" lon="7.2444810">
        <ele>291.9000000</ele>
        <time>2010-08-12T16:13:50Z</time>
      </trkpt>
      <trkpt lat="51.1622780" lon="7.2446580">
        <ele>293.3400000</ele>
        <time>2010-08-12T16:13:51Z</time>
      </trkpt>
      <trkpt lat="51.1616250" lon="7.2462670">
        <ele>303.9100000</ele>
        <time>2010-08-12T16:14:01Z</time>
      </trkpt>
      <trkpt lat="51.1611280" lon="7.2483930">
        <ele>307.7600000</ele>
        <time>2010-08-12T16:14:16Z</time>
      </trkpt>
      <trkpt lat="51.1608770" lon="7.2500400">
        <ele>305.8400000</ele>
        <time>2010-08-12T16:14:27Z</time>
      </trkpt>
      <trkpt lat="51.1608870" lon="7.2513890">
        <ele>304.3900000</ele>
        <time>2010-08-12T16:14:38Z</time>
      </trkpt>
      <trkpt lat="51.1609200" lon="7.2517720">
        <ele>304.8800000</ele>
        <time>2010-08-12T16:14:42Z</time>
      </trkpt>
      <trkpt lat="51.1609470" lon="7.2519770">
        <ele>306.3200000</ele>
        <time>2010-08-12T16:14:44Z</time>
      </trkpt>
      <trkpt lat="51.1609350" lon="7.2520850">
        <ele>306.8000000</ele>
        <time>2010-08-12T16:14:45Z</time>
      </trkpt>
      <trkpt lat="51.1607910" lon="7.2531090">
        <ele>313.5300000</ele>
        <time>2010-08-12T16:14:51Z</time>
      </trkpt>
      <trkpt lat="51.1607380" lon="7.2534570">
        <ele>316.4100000</ele>
        <time>2010-08-12T16:14:53Z</time>
      </trkpt>
      <trkpt lat="51.1607250" lon="7.2536320">
        <ele>317.3700000</ele>
        <time>2010-08-12T16:14:54Z</time>
      </trkpt>
      <trkpt lat="51.1606760" lon="7.2555040">
        <ele>328.4300000</ele>
        <time>2010-08-12T16:15:04Z</time>
      </trkpt>
      <trkpt lat="51.1606030" lon="7.2578600">
        <ele>333.7100000</ele>
        <time>2010-08-12T16:15:16Z</time>
      </trkpt>
      <trkpt lat="51.1605310" lon="7.2587650">
        <ele>333.7100000</ele>
        <time>2010-08-12T16:15:21Z</time>
      </trkpt>
      <trkpt lat="51.1604950" lon="7.2589290">
        <ele>333.2300000</ele>
        <time>2010-08-12T16:15:22Z</time>
      </trkpt>
      <trkpt lat="51.1604520" lon="7.2590820">
        <ele>332.7500000</ele>
        <time>2010-08-12T16:15:23Z</time>
      </trkpt>
      <trkpt lat="51.1604070" lon="7.2592170">
        <ele>332.2700000</ele>
        <time>2010-08-12T16:15:24Z</time>
      </trkpt>
      <trkpt lat="51.1603640" lon="7.2593320">
        <ele>331.7900000</ele>
        <time>2010-08-12T16:15:25Z</time>
      </trkpt>
      <trkpt lat="51.1603180" lon="7.2594320">
        <ele>330.8300000</ele>
        <time>2010-08-12T16:15:26Z</time>
      </trkpt>
      <trkpt lat="51.1602630" lon="7.2595180">
        <ele>330.8300000</ele>
        <time>2010-08-12T16:15:27Z</time>
      </trkpt>
      <trkpt lat="51.1602030" lon="7.2595920">
        <ele>330.8300000</ele>
        <time>2010-08-12T16:15:28Z</time>
      </trkpt>
      <trkpt lat="51.1601380" lon="7.2596560">
        <ele>331.3100000</ele>
        <time>2010-08-12T16:15:29Z</time>
      </trkpt>
      <trkpt lat="51.1600700" lon="7.2597200">
        <ele>331.7900000</ele>
        <time>2010-08-12T16:15:30Z</time>
      </trkpt>
      <trkpt lat="51.1598050" lon="7.2600050">
        <ele>335.6400000</ele>
        <time>2010-08-12T16:15:34Z</time>
      </trkpt>
      <trkpt lat="51.1597620" lon="7.2600960">
        <ele>336.1200000</ele>
        <time>2010-08-12T16:15:35Z</time>
      </trkpt>
      <trkpt lat="51.1597390" lon="7.2602020">
        <ele>336.6000000</ele>
        <time>2010-08-12T16:15:36Z</time>
      </trkpt>
      <trkpt lat="51.1597410" lon="7.2603190">
        <ele>337.0800000</ele>
        <time>2010-08-12T16:15:37Z</time>
      </trkpt>
      <trkpt lat="51.1597580" lon="7.2604400">
        <ele>337.5600000</ele>
        <time>2010-08-12T16:15:38Z</time>
      </trkpt>
      <trkpt lat="51.1597850" lon="7.2605600">
        <ele>338.0400000</ele>
        <time>2010-08-12T16:15:39Z</time>
      </trkpt>
      <trkpt lat="51.1598210" lon="7.2606780">
        <ele>339.0000000</ele>
        <time>2010-08-12T16:15:40Z</time>
      </trkpt>
      <trkpt lat="51.1598650" lon="7.2607950">
        <ele>339.4800000</ele>
        <time>2010-08-12T16:15:41Z</time>
      </trkpt>
      <trkpt lat="51.1599140" lon="7.2609110">
        <ele>340.4400000</ele>
        <time>2010-08-12T16:15:42Z</time>
      </trkpt>
      <trkpt lat="51.1603110" lon="7.2620830">
        <ele>348.1300000</ele>
        <time>2010-08-12T16:15:52Z</time>
      </trkpt>
      <trkpt lat="51.1604520" lon="7.2631040">
        <ele>348.6200000</ele>
        <time>2010-08-12T16:15:58Z</time>
      </trkpt>
      <trkpt lat="51.1604440" lon="7.2632730">
        <ele>348.6200000</ele>
        <time>2010-08-12T16:15:59Z</time>
      </trkpt>
      <trkpt lat="51.1604150" lon="7.2634360">
        <ele>348.1300000</ele>
        <time>2010-08-12T16:16:00Z</time>
      </trkpt>
      <trkpt lat="51.1603720" lon="7.2635890">
        <ele>348.1300000</ele>
        <time>2010-08-12T16:16:01Z</time>
      </trkpt>
      <trkpt lat="51.1603210" lon="7.2637360">
        <ele>348.1300000</ele>
        <time>2010-08-12T16:16:02Z</time>
      </trkpt>
      <trkpt lat="51.1599200" lon="7.2648100">
        <ele>347.6500000</ele>
        <time>2010-08-12T16:16:11Z</time>
      </trkpt>
      <trkpt lat="51.1599000" lon="7.2648910">
        <ele>347.6500000</ele>
        <time>2010-08-12T16:16:12Z</time>
      </trkpt>
      <trkpt lat="51.1598920" lon="7.2649670">
        <ele>347.1700000</ele>
        <time>2010-08-12T16:16:13Z</time>
      </trkpt>
      <trkpt lat="51.1598840" lon="7.2650290">
        <ele>346.2100000</ele>
        <time>2010-08-12T16:16:14Z</time>
      </trkpt>
      <trkpt lat="51.1598750" lon="7.2650640">
        <ele>346.2100000</ele>
        <time>2010-08-12T16:16:15Z</time>
      </trkpt>
      <trkpt lat="51.1598260" lon="7.2651360">
        <ele>345.2500000</ele>
        <time>2010-08-12T16:16:20Z</time>
      </trkpt>
      <trkpt lat="51.1597720" lon="7.2651550">
        <ele>345.2500000</ele>
        <time>2010-08-12T16:16:21Z</time>
      </trkpt>
      <trkpt lat="51.1597000" lon="7.2651600">
        <ele>345.2500000</ele>
        <time>2010-08-12T16:16:22Z</time>
      </trkpt>
      <trkpt lat="51.1586190" lon="7.2652190">
        <ele>344.2900000</ele>
        <time>2010-08-12T16:16:33Z</time>
      </trkpt>
      <trkpt lat="51.1573370" lon="7.2651960">
        <ele>346.6900000</ele>
        <time>2010-08-12T16:16:43Z</time>
      </trkpt>
      <trkpt lat="51.1560780" lon="7.2647810">
        <ele>347.6500000</ele>
        <time>2010-08-12T16:16:54Z</time>
      </trkpt>
      <trkpt lat="51.1542960" lon="7.2636530">
        <ele>343.3300000</ele>
        <time>2010-08-12T16:17:11Z</time>
      </trkpt>
      <trkpt lat="51.1533880" lon="7.2630820">
        <ele>341.8900000</ele>
        <time>2010-08-12T16:17:17Z</time>
      </trkpt>
      <trkpt lat="51.1516570" lon="7.2619580">
        <ele>337.5600000</ele>
        <time>2010-08-12T16:17:29Z</time>
      </trkpt>
      <trkpt lat="51.1508320" lon="7.2610450">
        <ele>335.1600000</ele>
        <time>2010-08-12T16:17:36Z</time>
      </trkpt>
      <trkpt lat="51.1502510" lon="7.2593960">
        <ele>332.7500000</ele>
        <time>2010-08-12T16:17:44Z</time>
      </trkpt>
      <trkpt lat="51.1494670" lon="7.2567970">
        <ele>326.5000000</ele>
        <time>2010-08-12T16:17:55Z</time>
      </trkpt>
      <trkpt lat="51.1487110" lon="7.2537640">
        <ele>318.3300000</ele>
        <time>2010-08-12T16:18:07Z</time>
      </trkpt>
      <trkpt lat="51.1483540" lon="7.2515050">
        <ele>315.9300000</ele>
        <time>2010-08-12T16:18:17Z</time>
      </trkpt>
      <trkpt lat="51.1477930" lon="7.2484330">
        <ele>317.3700000</ele>
        <time>2010-08-12T16:18:31Z</time>
      </trkpt>
      <trkpt lat="51.1472710" lon="7.2465900">
        <ele>316.8900000</ele>
        <time>2010-08-12T16:18:42Z</time>
      </trkpt>
      <trkpt lat="51.1468750" lon="7.2452530">
        <ele>314.4900000</ele>
        <time>2010-08-12T16:18:53Z</time>
      </trkpt>
      <trkpt lat="51.1467270" lon="7.2447640">
        <ele>314.0100000</ele>
        <time>2010-08-12T16:19:01Z</time>
      </trkpt>
      <trkpt lat="51.1464280" lon="7.2436290">
        <ele>313.5300000</ele>
        <time>2010-08-12T16:19:08Z</time>
      </trkpt>
      <trkpt lat="51.1464090" lon="7.2434070">
        <ele>314.0100000</ele>
        <time>2010-08-12T16:19:09Z</time>
      </trkpt>
      <trkpt lat="51.1463980" lon="7.2431930">
        <ele>314.0100000</ele>
        <time>2010-08-12T16:19:10Z</time>
      </trkpt>
      <trkpt lat="51.1463930" lon="7.2429900">
        <ele>313.5300000</ele>
        <time>2010-08-12T16:19:11Z</time>
      </trkpt>
      <trkpt lat="51.1464020" lon="7.2427750">
        <ele>313.5300000</ele>
        <time>2010-08-12T16:19:12Z</time>
      </trkpt>
      <trkpt lat="51.1464150" lon="7.2425660">
        <ele>313.0500000</ele>
        <time>2010-08-12T16:19:13Z</time>
      </trkpt>
      <trkpt lat="51.1464410" lon="7.2423530">
        <ele>313.5300000</ele>
        <time>2010-08-12T16:19:14Z</time>
      </trkpt>
      <trkpt lat="51.1465830" lon="7.2406660">
        <ele>314.9700000</ele>
        <time>2010-08-12T16:19:22Z</time>
      </trkpt>
      <trkpt lat="51.1465760" lon="7.2404670">
        <ele>314.4900000</ele>
        <time>2010-08-12T16:19:23Z</time>
      </trkpt>
      <trkpt lat="51.1465600" lon="7.2402810">
        <ele>314.0100000</ele>
        <time>2010-08-12T16:19:24Z</time>
      </trkpt>
      <trkpt lat="51.1463900" lon="7.2390300">
        <ele>312.5700000</ele>
        <time>2010-08-12T16:19:33Z</time>
      </trkpt>
      <trkpt lat="51.1462960" lon="7.2383490">
        <ele>311.6000000</ele>
        <time>2010-08-12T16:19:43Z</time>
      </trkpt>
      <trkpt lat="51.1462970" lon="7.2382060">
        <ele>312.0900000</ele>
        <time>2010-08-12T16:19:53Z</time>
      </trkpt>
      <trkpt lat="51.1462990" lon="7.2380530">
        <ele>311.6000000</ele>
        <time>2010-08-12T16:19:55Z</time>
      </trkpt>
      <trkpt lat="51.1462930" lon="7.2379650">
        <ele>311.6000000</ele>
        <time>2010-08-12T16:19:56Z</time>
      </trkpt>
      <trkpt lat="51.1462880" lon="7.2378610">
        <ele>311.6000000</ele>
        <time>2010-08-12T16:19:57Z</time>
      </trkpt>
      <trkpt lat="51.1462900" lon="7.2377350">
        <ele>311.6000000</ele>
        <time>2010-08-12T16:19:58Z</time>
      </trkpt>
      <trkpt lat="51.1462970" lon="7.2375960">
        <ele>311.1200000</ele>
        <time>2010-08-12T16:19:59Z</time>
      </trkpt>
      <trkpt lat="51.1463290" lon="7.2372040">
        <ele>311.6000000</ele>
        <time>2010-08-12T16:20:02Z</time>
      </trkpt>
      <trkpt lat="51.1463540" lon="7.2370950">
        <ele>311.6000000</ele>
        <time>2010-08-12T16:20:03Z</time>
      </trkpt>
      <trkpt lat="51.1463950" lon="7.2370110">
        <ele>311.1200000</ele>
        <time>2010-08-12T16:20:04Z</time>
      </trkpt>
      <trkpt lat="51.1464620" lon="7.2369740">
        <ele>311.1200000</ele>
        <time>2010-08-12T16:20:05Z</time>
      </trkpt>
      <trkpt lat="51.1465340" lon="7.2369830">
        <ele>311.1200000</ele>
        <time>2010-08-12T16:20:06Z</time>
      </trkpt>
      <trkpt lat="51.1466030" lon="7.2370200">
        <ele>310.6400000</ele>
        <time>2010-08-12T16:20:07Z</time>
      </trkpt>
      <trkpt lat="51.1466700" lon="7.2370910">
        <ele>310.6400000</ele>
        <time>2010-08-12T16:20:08Z</time>
      </trkpt>
      <trkpt lat="51.1467350" lon="7.2371900">
        <ele>310.6400000</ele>
        <time>2010-08-12T16:20:09Z</time>
      </trkpt>
      <trkpt lat="51.1468000" lon="7.2373130">
        <ele>310.6400000</ele>
        <time>2010-08-12T16:20:10Z</time>
      </trkpt>
      <trkpt lat="51.1468670" lon="7.2374450">
        <ele>310.1600000</ele>
        <time>2010-08-12T16:20:11Z</time>
      </trkpt>
      <trkpt lat="51.1470550" lon="7.2379070">
        <ele>308.7200000</ele>
        <time>2010-08-12T16:20:14Z</time>
      </trkpt>
      <trkpt lat="51.1471020" lon="7.2380820">
        <ele>308.2400000</ele>
        <time>2010-08-12T16:20:15Z</time>
      </trkpt>
      <trkpt lat="51.1471350" lon="7.2382680">
        <ele>307.2800000</ele>
        <time>2010-08-12T16:20:16Z</time>
      </trkpt>
      <trkpt lat="51.1471570" lon="7.2384680">
        <ele>306.8000000</ele>
        <time>2010-08-12T16:20:17Z</time>
      </trkpt>
      <trkpt lat="51.1471670" lon="7.2386790">
        <ele>306.3200000</ele>
        <time>2010-08-12T16:20:18Z</time>
      </trkpt>
      <trkpt lat="51.1471740" lon="7.2388910">
        <ele>305.8400000</ele>
        <time>2010-08-12T16:20:19Z</time>
      </trkpt>
      <trkpt lat="51.1473240" lon="7.2411740">
        <ele>302.9500000</ele>
        <time>2010-08-12T16:20:30Z</time>
      </trkpt>
      <trkpt lat="51.1474260" lon="7.2415290">
        <ele>301.9900000</ele>
        <time>2010-08-12T16:20:32Z</time>
      </trkpt>
      <trkpt lat="51.1474980" lon="7.2416720">
        <ele>302.4700000</ele>
        <time>2010-08-12T16:20:33Z</time>
      </trkpt>
      <trkpt lat="51.1475800" lon="7.2418020">
        <ele>301.9900000</ele>
        <time>2010-08-12T16:20:34Z</time>
      </trkpt>
      <trkpt lat="51.1476770" lon="7.2418890">
        <ele>301.9900000</ele>
        <time>2010-08-12T16:20:35Z</time>
      </trkpt>
      <trkpt lat="51.1477790" lon="7.2419710">
        <ele>301.5100000</ele>
        <time>2010-08-12T16:20:36Z</time>
      </trkpt>
      <trkpt lat="51.1478860" lon="7.2420150">
        <ele>301.5100000</ele>
        <time>2010-08-12T16:20:37Z</time>
      </trkpt>
      <trkpt lat="51.1479860" lon="7.2420360">
        <ele>301.5100000</ele>
        <time>2010-08-12T16:20:38Z</time>
      </trkpt>
      <trkpt lat="51.1480830" lon="7.2420270">
        <ele>301.5100000</ele>
        <time>2010-08-12T16:20:39Z</time>
      </trkpt>
      <trkpt lat="51.1481730" lon="7.2419820">
        <ele>301.5100000</ele>
        <time>2010-08-12T16:20:40Z</time>
      </trkpt>
      <trkpt lat="51.1482620" lon="7.2419200">
        <ele>301.5100000</ele>
        <time>2010-08-12T16:20:41Z</time>
      </trkpt>
      <trkpt lat="51.1483450" lon="7.2418090">
        <ele>301.5100000</ele>
        <time>2010-08-12T16:20:42Z</time>
      </trkpt>
      <trkpt lat="51.1484130" lon="7.2416680">
        <ele>301.5100000</ele>
        <time>2010-08-12T16:20:43Z</time>
      </trkpt>
      <trkpt lat="51.1484760" lon="7.2415270">
        <ele>301.9900000</ele>
        <time>2010-08-12T16:20:44Z</time>
      </trkpt>
      <trkpt lat="51.1485240" lon="7.2413570">
        <ele>302.9500000</ele>
        <time>2010-08-12T16:20:45Z</time>
      </trkpt>
      <trkpt lat="51.1485460" lon="7.2411740">
        <ele>303.9100000</ele>
        <time>2010-08-12T16:20:46Z</time>
      </trkpt>
      <trkpt lat="51.1485610" lon="7.2409810">
        <ele>303.9100000</ele>
        <time>2010-08-12T16:20:47Z</time>
      </trkpt>
      <trkpt lat="51.1485680" lon="7.2407730">
        <ele>302.9500000</ele>
        <time>2010-08-12T16:20:48Z</time>
      </trkpt>
      <trkpt lat="51.1485700" lon="7.2405510">
        <ele>302.4700000</ele>
        <time>2010-08-12T16:20:49Z</time>
      </trkpt>
      <trkpt lat="51.1484330" lon="7.2381840">
        <ele>294.7800000</ele>
        <time>2010-08-12T16:20:59Z</time>
      </trkpt>
      <trkpt lat="51.1484320" lon="7.2379560">
        <ele>293.8200000</ele>
        <time>2010-08-12T16:21:00Z</time>
      </trkpt>
      <trkpt lat="51.1484500" lon="7.2377330">
        <ele>292.8600000</ele>
        <time>2010-08-12T16:21:01Z</time>
      </trkpt>
      <trkpt lat="51.1484950" lon="7.2375120">
        <ele>292.3800000</ele>
        <time>2010-08-12T16:21:02Z</time>
      </trkpt>
      <trkpt lat="51.1485530" lon="7.2372960">
        <ele>291.4200000</ele>
        <time>2010-08-12T16:21:03Z</time>
      </trkpt>
      <trkpt lat="51.1486190" lon="7.2370830">
        <ele>290.4600000</ele>
        <time>2010-08-12T16:21:04Z</time>
      </trkpt>
      <trkpt lat="51.1486890" lon="7.2368790">
        <ele>289.0100000</ele>
        <time>2010-08-12T16:21:05Z</time>
      </trkpt>
      <trkpt lat="51.1489520" lon="7.2361640">
        <ele>288.5300000</ele>
        <time>2010-08-12T16:21:11Z</time>
      </trkpt>
      <trkpt lat="51.1489590" lon="7.2361200">
        <ele>287.0900000</ele>
        <time>2010-08-12T16:21:13Z</time>
      </trkpt>
      <trkpt lat="51.1489600" lon="7.2361010">
        <ele>287.0900000</ele>
        <time>2010-08-12T16:21:14Z</time>
      </trkpt>
    </trkseg>
  </trk>

  <trk>
    <name>ACTIVE LOG: 12 AUG 2010 18:21</name>
    <extensions>
      <gpxx:TrackExtension xmlns:gpxx="http://www.garmin.com/xmlschemas/GpxExtensions/v3">
        <gpxx:DisplayColor>White</gpxx:DisplayColor>
      </gpxx:TrackExtension>
    </extensions>
    <trkseg>
      <trkpt lat="51.1489530" lon="7.2360570">
        <ele>279.8800000</ele>
        <time>2010-08-12T16:21:21Z</time>
      </trkpt>
      <trkpt lat="51.1489710" lon="7.2359490">
        <ele>279.8800000</ele>
        <time>2010-08-12T16:21:30Z</time>
      </trkpt>
      <trkpt lat="51.1491040" lon="7.2353820">
        <ele>278.4400000</ele>
        <time>2010-08-12T16:21:34Z</time>
      </trkpt>
      <trkpt lat="51.1491280" lon="7.2351810">
        <ele>277.0000000</ele>
        <time>2010-08-12T16:21:35Z</time>
      </trkpt>
      <trkpt lat="51.1491180" lon="7.2348850">
        <ele>276.5200000</ele>
        <time>2010-08-12T16:21:36Z</time>
      </trkpt>
      <trkpt lat="51.1490580" lon="7.2345610">
        <ele>275.5600000</ele>
        <time>2010-08-12T16:21:37Z</time>
      </trkpt>
      <trkpt lat="51.1490000" lon="7.2342990">
        <ele>276.0400000</ele>
        <time>2010-08-12T16:21:38Z</time>
      </trkpt>
      <trkpt lat="51.1489540" lon="7.2340600">
        <ele>277.0000000</ele>
        <time>2010-08-12T16:21:39Z</time>
      </trkpt>
      <trkpt lat="51.1488760" lon="7.2332290">
        <ele>277.0000000</ele>
        <time>2010-08-12T16:21:43Z</time>
      </trkpt>
      <trkpt lat="51.1488870" lon="7.2330550">
        <ele>276.5200000</ele>
        <time>2010-08-12T16:21:44Z</time>
      </trkpt>
      <trkpt lat="51.1489350" lon="7.2328800">
        <ele>276.0400000</ele>
        <time>2010-08-12T16:21:45Z</time>
      </trkpt>
      <trkpt lat="51.1490330" lon="7.2326900">
        <ele>277.0000000</ele>
        <time>2010-08-12T16:21:46Z</time>
      </trkpt>
      <trkpt lat="51.1491800" lon="7.2325200">
        <ele>276.5200000</ele>
        <time>2010-08-12T16:21:47Z</time>
      </trkpt>
      <trkpt lat="51.1493300" lon="7.2323710">
        <ele>275.0700000</ele>
        <time>2010-08-12T16:21:48Z</time>
      </trkpt>
      <trkpt lat="51.1494520" lon="7.2322350">
        <ele>274.5900000</ele>
        <time>2010-08-12T16:21:49Z</time>
      </trkpt>
      <trkpt lat="51.1495780" lon="7.2321190">
        <ele>276.0400000</ele>
        <time>2010-08-12T16:21:50Z</time>
      </trkpt>
      <trkpt lat="51.1497020" lon="7.2319710">
        <ele>278.9200000</ele>
        <time>2010-08-12T16:21:51Z</time>
      </trkpt>
      <trkpt lat="51.1508530" lon="7.2305360">
        <ele>280.3600000</ele>
        <time>2010-08-12T16:22:01Z</time>
      </trkpt>
      <trkpt lat="51.1512900" lon="7.2297750">
        <ele>269.3100000</ele>
        <time>2010-08-12T16:22:05Z</time>
      </trkpt>
      <trkpt lat="51.1525430" lon="7.2286880">
        <ele>259.6900000</ele>
        <time>2010-08-12T16:22:14Z</time>
      </trkpt>
      <trkpt lat="51.1527310" lon="7.2283310">
        <ele>258.7300000</ele>
        <time>2010-08-12T16:22:16Z</time>
      </trkpt>
      <trkpt lat="51.1528190" lon="7.2281380">
        <ele>257.2900000</ele>
        <time>2010-08-12T16:22:17Z</time>
      </trkpt>
      <trkpt lat="51.1532890" lon="7.2271970">
        <ele>247.6800000</ele>
        <time>2010-08-12T16:22:22Z</time>
      </trkpt>
      <trkpt lat="51.1534070" lon="7.2270770">
        <ele>246.7200000</ele>
        <time>2010-08-12T16:22:23Z</time>
      </trkpt>
      <trkpt lat="51.1535660" lon="7.2269380">
        <ele>246.2300000</ele>
        <time>2010-08-12T16:22:24Z</time>
      </trkpt>
      <trkpt lat="51.1537150" lon="7.2268270">
        <ele>245.2700000</ele>
        <time>2010-08-12T16:22:25Z</time>
      </trkpt>
      <trkpt lat="51.1538660" lon="7.2267290">
        <ele>244.7900000</ele>
        <time>2010-08-12T16:22:26Z</time>
      </trkpt>
      <trkpt lat="51.1540210" lon="7.2266450">
        <ele>244.3100000</ele>
        <time>2010-08-12T16:22:27Z</time>
      </trkpt>
      <trkpt lat="51.1541670" lon="7.2265650">
        <ele>242.3900000</ele>
        <time>2010-08-12T16:22:28Z</time>
      </trkpt>
      <trkpt lat="51.1554310" lon="7.2255730">
        <ele>236.1400000</ele>
        <time>2010-08-12T16:22:37Z</time>
      </trkpt>
      <trkpt lat="51.1564180" lon="7.2242480">
        <ele>227.4900000</ele>
        <time>2010-08-12T16:22:45Z</time>
      </trkpt>
      <trkpt lat="51.1565820" lon="7.2241580">
        <ele>227.9700000</ele>
        <time>2010-08-12T16:22:46Z</time>
      </trkpt>
      <trkpt lat="51.1567460" lon="7.2240710">
        <ele>228.4500000</ele>
        <time>2010-08-12T16:22:47Z</time>
      </trkpt>
      <trkpt lat="51.1573390" lon="7.2238960">
        <ele>226.5300000</ele>
        <time>2010-08-12T16:22:51Z</time>
      </trkpt>
      <trkpt lat="51.1574690" lon="7.2238920">
        <ele>226.0500000</ele>
        <time>2010-08-12T16:22:52Z</time>
      </trkpt>
      <trkpt lat="51.1575840" lon="7.2239040">
        <ele>226.0500000</ele>
        <time>2010-08-12T16:22:53Z</time>
      </trkpt>
      <trkpt lat="51.1577370" lon="7.2239170">
        <ele>227.0100000</ele>
        <time>2010-08-12T16:22:55Z</time>
      </trkpt>
      <trkpt lat="51.1577950" lon="7.2239020">
        <ele>227.0100000</ele>
        <time>2010-08-12T16:22:56Z</time>
      </trkpt>
      <trkpt lat="51.1578350" lon="7.2238470">
        <ele>227.0100000</ele>
        <time>2010-08-12T16:22:57Z</time>
      </trkpt>
      <trkpt lat="51.1578650" lon="7.2237700">
        <ele>227.0100000</ele>
        <time>2010-08-12T16:22:58Z</time>
      </trkpt>
      <trkpt lat="51.1578760" lon="7.2236500">
        <ele>226.5300000</ele>
        <time>2010-08-12T16:22:59Z</time>
      </trkpt>
      <trkpt lat="51.1578990" lon="7.2234980">
        <ele>225.5700000</ele>
        <time>2010-08-12T16:23:00Z</time>
      </trkpt>
      <trkpt lat="51.1581120" lon="7.2226740">
        <ele>225.5700000</ele>
        <time>2010-08-12T16:23:04Z</time>
      </trkpt>
      <trkpt lat="51.1582100" lon="7.2224880">
        <ele>226.0500000</ele>
        <time>2010-08-12T16:23:05Z</time>
      </trkpt>
      <trkpt lat="51.1583560" lon="7.2223640">
        <ele>226.0500000</ele>
        <time>2010-08-12T16:23:06Z</time>
      </trkpt>
      <trkpt lat="51.1585060" lon="7.2222430">
        <ele>226.0500000</ele>
        <time>2010-08-12T16:23:07Z</time>
      </trkpt>
      <trkpt lat="51.1586790" lon="7.2221270">
        <ele>225.0900000</ele>
        <time>2010-08-12T16:23:08Z</time>
      </trkpt>
      <trkpt lat="51.1588740" lon="7.2220180">
        <ele>224.6100000</ele>
        <time>2010-08-12T16:23:09Z</time>
      </trkpt>
      <trkpt lat="51.1590690" lon="7.2218950">
        <ele>223.6400000</ele>
        <time>2010-08-12T16:23:10Z</time>
      </trkpt>
      <trkpt lat="51.1603610" lon="7.2209920">
        <ele>212.1100000</ele>
        <time>2010-08-12T16:23:18Z</time>
      </trkpt>
      <trkpt lat="51.1604830" lon="7.2208480">
        <ele>211.1500000</ele>
        <time>2010-08-12T16:23:19Z</time>
      </trkpt>
      <trkpt lat="51.1605320" lon="7.2206180">
        <ele>209.7000000</ele>
        <time>2010-08-12T16:23:20Z</time>
      </trkpt>
      <trkpt lat="51.1605780" lon="7.2203980">
        <ele>209.7000000</ele>
        <time>2010-08-12T16:23:21Z</time>
      </trkpt>
      <trkpt lat="51.1605930" lon="7.2201710">
        <ele>209.2200000</ele>
        <time>2010-08-12T16:23:22Z</time>
      </trkpt>
      <trkpt lat="51.1606100" lon="7.2199640">
        <ele>208.7400000</ele>
        <time>2010-08-12T16:23:23Z</time>
      </trkpt>
      <trkpt lat="51.1606100" lon="7.2197460">
        <ele>207.7800000</ele>
        <time>2010-08-12T16:23:24Z</time>
      </trkpt>
      <trkpt lat="51.1605910" lon="7.2195470">
        <ele>207.3000000</ele>
        <time>2010-08-12T16:23:25Z</time>
      </trkpt>
      <trkpt lat="51.1605550" lon="7.2193350">
        <ele>207.3000000</ele>
        <time>2010-08-12T16:23:26Z</time>
      </trkpt>
      <trkpt lat="51.1605150" lon="7.2191250">
        <ele>207.7800000</ele>
        <time>2010-08-12T16:23:27Z</time>
      </trkpt>
      <trkpt lat="51.1604520" lon="7.2189490">
        <ele>207.7800000</ele>
        <time>2010-08-12T16:23:28Z</time>
      </trkpt>
      <trkpt lat="51.1603940" lon="7.2187880">
        <ele>207.7800000</ele>
        <time>2010-08-12T16:23:29Z</time>
      </trkpt>
      <trkpt lat="51.1602390" lon="7.2183660">
        <ele>211.1500000</ele>
        <time>2010-08-12T16:23:32Z</time>
      </trkpt>
      <trkpt lat="51.1601760" lon="7.2182390">
        <ele>210.6700000</ele>
        <time>2010-08-12T16:23:33Z</time>
      </trkpt>
      <trkpt lat="51.1593240" lon="7.2171750">
        <ele>216.4300000</ele>
        <time>2010-08-12T16:23:43Z</time>
      </trkpt>
      <trkpt lat="51.1585670" lon="7.2160250">
        <ele>212.1100000</ele>
        <time>2010-08-12T16:23:53Z</time>
      </trkpt>
      <trkpt lat="51.1577190" lon="7.2146900">
        <ele>210.1900000</ele>
        <time>2010-08-12T16:24:02Z</time>
      </trkpt>
      <trkpt lat="51.1569790" lon="7.2131510">
        <ele>205.8600000</ele>
        <time>2010-08-12T16:24:11Z</time>
      </trkpt>
      <trkpt lat="51.1566550" lon="7.2126350">
        <ele>203.4600000</ele>
        <time>2010-08-12T16:24:15Z</time>
      </trkpt>
      <trkpt lat="51.1565400" lon="7.2125610">
        <ele>202.4900000</ele>
        <time>2010-08-12T16:24:16Z</time>
      </trkpt>
      <trkpt lat="51.1563120" lon="7.2124270">
        <ele>199.6100000</ele>
        <time>2010-08-12T16:24:18Z</time>
      </trkpt>
      <trkpt lat="51.1553020" lon="7.2117270">
        <ele>203.9400000</ele>
        <time>2010-08-12T16:24:27Z</time>
      </trkpt>
      <trkpt lat="51.1550240" lon="7.2112380">
        <ele>207.7800000</ele>
        <time>2010-08-12T16:24:31Z</time>
      </trkpt>
      <trkpt lat="51.1549860" lon="7.2111000">
        <ele>203.9400000</ele>
        <time>2010-08-12T16:24:32Z</time>
      </trkpt>
      <trkpt lat="51.1549610" lon="7.2109490">
        <ele>202.9800000</ele>
        <time>2010-08-12T16:24:33Z</time>
      </trkpt>
      <trkpt lat="51.1548910" lon="7.2102500">
        <ele>191.9200000</ele>
        <time>2010-08-12T16:24:38Z</time>
      </trkpt>
      <trkpt lat="51.1548970" lon="7.2101080">
        <ele>191.9200000</ele>
        <time>2010-08-12T16:24:39Z</time>
      </trkpt>
      <trkpt lat="51.1549200" lon="7.2099600">
        <ele>190.9600000</ele>
        <time>2010-08-12T16:24:40Z</time>
      </trkpt>
      <trkpt lat="51.1549570" lon="7.2098070">
        <ele>190.4800000</ele>
        <time>2010-08-12T16:24:41Z</time>
      </trkpt>
      <trkpt lat="51.1550050" lon="7.2096380">
        <ele>190.9600000</ele>
        <time>2010-08-12T16:24:42Z</time>
      </trkpt>
      <trkpt lat="51.1550600" lon="7.2094640">
        <ele>191.4400000</ele>
        <time>2010-08-12T16:24:43Z</time>
      </trkpt>
      <trkpt lat="51.1555050" lon="7.2079070">
        <ele>192.4000000</ele>
        <time>2010-08-12T16:24:52Z</time>
      </trkpt>
      <trkpt lat="51.1555170" lon="7.2077580">
        <ele>193.3600000</ele>
        <time>2010-08-12T16:24:53Z</time>
      </trkpt>
      <trkpt lat="51.1555050" lon="7.2076550">
        <ele>194.3200000</ele>
        <time>2010-08-12T16:24:54Z</time>
      </trkpt>
      <trkpt lat="51.1554830" lon="7.2073600">
        <ele>195.2800000</ele>
        <time>2010-08-12T16:25:00Z</time>
      </trkpt>
      <trkpt lat="51.1555850" lon="7.2067890">
        <ele>194.8000000</ele>
        <time>2010-08-12T16:25:04Z</time>
      </trkpt>
      <trkpt lat="51.1557820" lon="7.2048630">
        <ele>190.4800000</ele>
        <time>2010-08-12T16:25:14Z</time>
      </trkpt>
      <trkpt lat="51.1557620" lon="7.2046890">
        <ele>190.0000000</ele>
        <time>2010-08-12T16:25:15Z</time>
      </trkpt>
      <trkpt lat="51.1557280" lon="7.2045260">
        <ele>190.0000000</ele>
        <time>2010-08-12T16:25:16Z</time>
      </trkpt>
      <trkpt lat="51.1556870" lon="7.2043740">
        <ele>189.5200000</ele>
        <time>2010-08-12T16:25:17Z</time>
      </trkpt>
      <trkpt lat="51.1556470" lon="7.2042350">
        <ele>190.0000000</ele>
        <time>2010-08-12T16:25:18Z</time>
      </trkpt>
      <trkpt lat="51.1555210" lon="7.2038560">
        <ele>189.5200000</ele>
        <time>2010-08-12T16:25:24Z</time>
      </trkpt>
      <trkpt lat="51.1555060" lon="7.2038450">
        <ele>184.2300000</ele>
        <time>2010-08-12T16:25:34Z</time>
      </trkpt>
      <trkpt lat="51.1554830" lon="7.2038280">
        <ele>184.2300000</ele>
        <time>2010-08-12T16:25:35Z</time>
      </trkpt>
      <trkpt lat="51.1554420" lon="7.2038100">
        <ele>184.7100000</ele>
        <time>2010-08-12T16:25:36Z</time>
      </trkpt>
      <trkpt lat="51.1553840" lon="7.2038030">
        <ele>185.1900000</ele>
        <time>2010-08-12T16:25:37Z</time>
      </trkpt>
      <trkpt lat="51.1553180" lon="7.2037890">
        <ele>185.1900000</ele>
        <time>2010-08-12T16:25:38Z</time>
      </trkpt>
      <trkpt lat="51.1552450" lon="7.2037510">
        <ele>185.1900000</ele>
        <time>2010-08-12T16:25:39Z</time>
      </trkpt>
      <trkpt lat="51.1551610" lon="7.2036780">
        <ele>185.6700000</ele>
        <time>2010-08-12T16:25:40Z</time>
      </trkpt>
      <trkpt lat="51.1550590" lon="7.2035700">
        <ele>185.6700000</ele>
        <time>2010-08-12T16:25:41Z</time>
      </trkpt>
      <trkpt lat="51.1549530" lon="7.2034580">
        <ele>186.6300000</ele>
        <time>2010-08-12T16:25:42Z</time>
      </trkpt>
      <trkpt lat="51.1538070" lon="7.2025690">
        <ele>186.1500000</ele>
        <time>2010-08-12T16:25:50Z</time>
      </trkpt>
      <trkpt lat="51.1527140" lon="7.2017420">
        <ele>187.1100000</ele>
        <time>2010-08-12T16:25:58Z</time>
      </trkpt>
      <trkpt lat="51.1518150" lon="7.2005740">
        <ele>180.8700000</ele>
        <time>2010-08-12T16:26:06Z</time>
      </trkpt>
      <trkpt lat="51.1510480" lon="7.1994470">
        <ele>183.7500000</ele>
        <time>2010-08-12T16:26:13Z</time>
      </trkpt>
      <trkpt lat="51.1509600" lon="7.1992590">
        <ele>184.7100000</ele>
        <time>2010-08-12T16:26:14Z</time>
      </trkpt>
      <trkpt lat="51.1505330" lon="7.1976930">
        <ele>182.3100000</ele>
        <time>2010-08-12T16:26:21Z</time>
      </trkpt>
      <trkpt lat="51.1505320" lon="7.1974300">
        <ele>183.7500000</ele>
        <time>2010-08-12T16:26:22Z</time>
      </trkpt>
      <trkpt lat="51.1506570" lon="7.1963420">
        <ele>180.3800000</ele>
        <time>2010-08-12T16:26:27Z</time>
      </trkpt>
      <trkpt lat="51.1507570" lon="7.1961330">
        <ele>179.9000000</ele>
        <time>2010-08-12T16:26:28Z</time>
      </trkpt>
      <trkpt lat="51.1508840" lon="7.1959340">
        <ele>179.9000000</ele>
        <time>2010-08-12T16:26:29Z</time>
      </trkpt>
      <trkpt lat="51.1510020" lon="7.1957610">
        <ele>178.9400000</ele>
        <time>2010-08-12T16:26:30Z</time>
      </trkpt>
      <trkpt lat="51.1511300" lon="7.1955790">
        <ele>178.4600000</ele>
        <time>2010-08-12T16:26:31Z</time>
      </trkpt>
      <trkpt lat="51.1523640" lon="7.1943550">
        <ele>186.6300000</ele>
        <time>2010-08-12T16:26:39Z</time>
      </trkpt>
      <trkpt lat="51.1535120" lon="7.1929820">
        <ele>182.7900000</ele>
        <time>2010-08-12T16:26:47Z</time>
      </trkpt>
      <trkpt lat="51.1541680" lon="7.1918510">
        <ele>178.4600000</ele>
        <time>2010-08-12T16:26:53Z</time>
      </trkpt>
      <trkpt lat="51.1541570" lon="7.1916170">
        <ele>176.0600000</ele>
        <time>2010-08-12T16:26:54Z</time>
      </trkpt>
      <trkpt lat="51.1541200" lon="7.1914030">
        <ele>174.1400000</ele>
        <time>2010-08-12T16:26:55Z</time>
      </trkpt>
      <trkpt lat="51.1540580" lon="7.1911980">
        <ele>172.6900000</ele>
        <time>2010-08-12T16:26:56Z</time>
      </trkpt>
      <trkpt lat="51.1539230" lon="7.1910210">
        <ele>171.2500000</ele>
        <time>2010-08-12T16:26:57Z</time>
      </trkpt>
      <trkpt lat="51.1538230" lon="7.1908150">
        <ele>169.3300000</ele>
        <time>2010-08-12T16:26:58Z</time>
      </trkpt>
      <trkpt lat="51.1536680" lon="7.1906760">
        <ele>171.2500000</ele>
        <time>2010-08-12T16:26:59Z</time>
      </trkpt>
      <trkpt lat="51.1535230" lon="7.1905720">
        <ele>171.2500000</ele>
        <time>2010-08-12T16:27:00Z</time>
      </trkpt>
      <trkpt lat="51.1534100" lon="7.1904300">
        <ele>171.2500000</ele>
        <time>2010-08-12T16:27:01Z</time>
      </trkpt>
      <trkpt lat="51.1533200" lon="7.1903060">
        <ele>170.2900000</ele>
        <time>2010-08-12T16:27:02Z</time>
      </trkpt>
      <trkpt lat="51.1532800" lon="7.1899300">
        <ele>170.2900000</ele>
        <time>2010-08-12T16:27:04Z</time>
      </trkpt>
      <trkpt lat="51.1532830" lon="7.1897510">
        <ele>169.8100000</ele>
        <time>2010-08-12T16:27:05Z</time>
      </trkpt>
      <trkpt lat="51.1533600" lon="7.1894290">
        <ele>169.3300000</ele>
        <time>2010-08-12T16:27:06Z</time>
      </trkpt>
      <trkpt lat="51.1534350" lon="7.1891060">
        <ele>168.8500000</ele>
        <time>2010-08-12T16:27:07Z</time>
      </trkpt>
      <trkpt lat="51.1535180" lon="7.1887940">
        <ele>169.3300000</ele>
        <time>2010-08-12T16:27:08Z</time>
      </trkpt>
      <trkpt lat="51.1535930" lon="7.1884900">
        <ele>168.8500000</ele>
        <time>2010-08-12T16:27:09Z</time>
      </trkpt>
      <trkpt lat="51.1540710" lon="7.1869080">
        <ele>165.0000000</ele>
        <time>2010-08-12T16:27:15Z</time>
      </trkpt>
      <trkpt lat="51.1542130" lon="7.1867030">
        <ele>164.0400000</ele>
        <time>2010-08-12T16:27:16Z</time>
      </trkpt>
      <trkpt lat="51.1543560" lon="7.1865070">
        <ele>163.5600000</ele>
        <time>2010-08-12T16:27:17Z</time>
      </trkpt>
      <trkpt lat="51.1548940" lon="7.1854650">
        <ele>162.6000000</ele>
        <time>2010-08-12T16:27:22Z</time>
      </trkpt>
      <trkpt lat="51.1549190" lon="7.1852440">
        <ele>162.1200000</ele>
        <time>2010-08-12T16:27:23Z</time>
      </trkpt>
      <trkpt lat="51.1549130" lon="7.1850280">
        <ele>162.1200000</ele>
        <time>2010-08-12T16:27:24Z</time>
      </trkpt>
      <trkpt lat="51.1548760" lon="7.1848150">
        <ele>162.1200000</ele>
        <time>2010-08-12T16:27:25Z</time>
      </trkpt>
      <trkpt lat="51.1548170" lon="7.1846040">
        <ele>162.6000000</ele>
        <time>2010-08-12T16:27:26Z</time>
      </trkpt>
      <trkpt lat="51.1547250" lon="7.1843880">
        <ele>164.0400000</ele>
        <time>2010-08-12T16:27:27Z</time>
      </trkpt>
      <trkpt lat="51.1546020" lon="7.1841720">
        <ele>164.5200000</ele>
        <time>2010-08-12T16:27:28Z</time>
      </trkpt>
      <trkpt lat="51.1544570" lon="7.1839560">
        <ele>165.0000000</ele>
        <time>2010-08-12T16:27:29Z</time>
      </trkpt>
      <trkpt lat="51.1543020" lon="7.1837300">
        <ele>164.0400000</ele>
        <time>2010-08-12T16:27:30Z</time>
      </trkpt>
      <trkpt lat="51.1531010" lon="7.1817720">
        <ele>163.0800000</ele>
        <time>2010-08-12T16:27:39Z</time>
      </trkpt>
      <trkpt lat="51.1530510" lon="7.1814920">
        <ele>160.6800000</ele>
        <time>2010-08-12T16:27:40Z</time>
      </trkpt>
      <trkpt lat="51.1530100" lon="7.1811680">
        <ele>158.7500000</ele>
        <time>2010-08-12T16:27:41Z</time>
      </trkpt>
      <trkpt lat="51.1527470" lon="7.1794400">
        <ele>155.3900000</ele>
        <time>2010-08-12T16:27:47Z</time>
      </trkpt>
      <trkpt lat="51.1527710" lon="7.1792110">
        <ele>154.4300000</ele>
        <time>2010-08-12T16:27:48Z</time>
      </trkpt>
      <trkpt lat="51.1528680" lon="7.1789130">
        <ele>155.3900000</ele>
        <time>2010-08-12T16:27:49Z</time>
      </trkpt>
      <trkpt lat="51.1529700" lon="7.1786480">
        <ele>155.3900000</ele>
        <time>2010-08-12T16:27:50Z</time>
      </trkpt>
      <trkpt lat="51.1531000" lon="7.1783800">
        <ele>155.8700000</ele>
        <time>2010-08-12T16:27:51Z</time>
      </trkpt>
      <trkpt lat="51.1532550" lon="7.1781710">
        <ele>155.8700000</ele>
        <time>2010-08-12T16:27:52Z</time>
      </trkpt>
      <trkpt lat="51.1534140" lon="7.1779810">
        <ele>155.3900000</ele>
        <time>2010-08-12T16:27:53Z</time>
      </trkpt>
      <trkpt lat="51.1535690" lon="7.1778210">
        <ele>154.4300000</ele>
        <time>2010-08-12T16:27:54Z</time>
      </trkpt>
      <trkpt lat="51.1537020" lon="7.1777030">
        <ele>152.9900000</ele>
        <time>2010-08-12T16:27:55Z</time>
      </trkpt>
      <trkpt lat="51.1538880" lon="7.1773800">
        <ele>153.9500000</ele>
        <time>2010-08-12T16:27:57Z</time>
      </trkpt>
      <trkpt lat="51.1539000" lon="7.1772060">
        <ele>153.4700000</ele>
        <time>2010-08-12T16:27:58Z</time>
      </trkpt>
      <trkpt lat="51.1538750" lon="7.1769600">
        <ele>152.0300000</ele>
        <time>2010-08-12T16:27:59Z</time>
      </trkpt>
      <trkpt lat="51.1538230" lon="7.1767290">
        <ele>151.0600000</ele>
        <time>2010-08-12T16:28:00Z</time>
      </trkpt>
      <trkpt lat="51.1537400" lon="7.1764570">
        <ele>150.5800000</ele>
        <time>2010-08-12T16:28:01Z</time>
      </trkpt>
      <trkpt lat="51.1536250" lon="7.1761020">
        <ele>150.1000000</ele>
        <time>2010-08-12T16:28:02Z</time>
      </trkpt>
      <trkpt lat="51.1535060" lon="7.1756980">
        <ele>149.1400000</ele>
        <time>2010-08-12T16:28:03Z</time>
      </trkpt>
      <trkpt lat="51.1527610" lon="7.1734510">
        <ele>149.1400000</ele>
        <time>2010-08-12T16:28:09Z</time>
      </trkpt>
      <trkpt lat="51.1521160" lon="7.1718620">
        <ele>148.6600000</ele>
        <time>2010-08-12T16:28:15Z</time>
      </trkpt>
      <trkpt lat="51.1521100" lon="7.1715740">
        <ele>149.6200000</ele>
        <time>2010-08-12T16:28:16Z</time>
      </trkpt>
      <trkpt lat="51.1521140" lon="7.1712700">
        <ele>148.6600000</ele>
        <time>2010-08-12T16:28:17Z</time>
      </trkpt>
      <trkpt lat="51.1524860" lon="7.1691200">
        <ele>147.2200000</ele>
        <time>2010-08-12T16:28:24Z</time>
      </trkpt>
      <trkpt lat="51.1526520" lon="7.1688270">
        <ele>150.5800000</ele>
        <time>2010-08-12T16:28:25Z</time>
      </trkpt>
      <trkpt lat="51.1527940" lon="7.1685360">
        <ele>150.5800000</ele>
        <time>2010-08-12T16:28:26Z</time>
      </trkpt>
      <trkpt lat="51.1532110" lon="7.1675680">
        <ele>148.1800000</ele>
        <time>2010-08-12T16:28:30Z</time>
      </trkpt>
      <trkpt lat="51.1532360" lon="7.1672920">
        <ele>147.7000000</ele>
        <time>2010-08-12T16:28:31Z</time>
      </trkpt>
      <trkpt lat="51.1532520" lon="7.1669750">
        <ele>148.1800000</ele>
        <time>2010-08-12T16:28:32Z</time>
      </trkpt>
      <trkpt lat="51.1532380" lon="7.1666170">
        <ele>147.2200000</ele>
        <time>2010-08-12T16:28:33Z</time>
      </trkpt>
      <trkpt lat="51.1532570" lon="7.1663000">
        <ele>146.7400000</ele>
        <time>2010-08-12T16:28:34Z</time>
      </trkpt>
      <trkpt lat="51.1539270" lon="7.1644090">
        <ele>148.1800000</ele>
        <time>2010-08-12T16:28:41Z</time>
      </trkpt>
      <trkpt lat="51.1540710" lon="7.1641910">
        <ele>149.1400000</ele>
        <time>2010-08-12T16:28:42Z</time>
      </trkpt>
      <trkpt lat="51.1541970" lon="7.1639530">
        <ele>145.7800000</ele>
        <time>2010-08-12T16:28:43Z</time>
      </trkpt>
      <trkpt lat="51.1544370" lon="7.1635050">
        <ele>142.8900000</ele>
        <time>2010-08-12T16:28:45Z</time>
      </trkpt>
      <trkpt lat="51.1551180" lon="7.1626300">
        <ele>149.1400000</ele>
        <time>2010-08-12T16:28:52Z</time>
      </trkpt>
      <trkpt lat="51.1550170" lon="7.1623920">
        <ele>148.1800000</ele>
        <time>2010-08-12T16:28:53Z</time>
      </trkpt>
      <trkpt lat="51.1549330" lon="7.1621770">
        <ele>147.2200000</ele>
        <time>2010-08-12T16:28:54Z</time>
      </trkpt>
      <trkpt lat="51.1548400" lon="7.1619570">
        <ele>146.7400000</ele>
        <time>2010-08-12T16:28:55Z</time>
      </trkpt>
      <trkpt lat="51.1547340" lon="7.1617490">
        <ele>146.7400000</ele>
        <time>2010-08-12T16:28:56Z</time>
      </trkpt>
      <trkpt lat="51.1546440" lon="7.1615530">
        <ele>146.2600000</ele>
        <time>2010-08-12T16:28:57Z</time>
      </trkpt>
      <trkpt lat="51.1545720" lon="7.1613610">
        <ele>145.7800000</ele>
        <time>2010-08-12T16:28:58Z</time>
      </trkpt>
      <trkpt lat="51.1545210" lon="7.1611700">
        <ele>145.3000000</ele>
        <time>2010-08-12T16:28:59Z</time>
      </trkpt>
      <trkpt lat="51.1544680" lon="7.1605860">
        <ele>133.2800000</ele>
        <time>2010-08-12T16:29:02Z</time>
      </trkpt>
      <trkpt lat="51.1545140" lon="7.1604350">
        <ele>131.8400000</ele>
        <time>2010-08-12T16:29:03Z</time>
      </trkpt>
      <trkpt lat="51.1546330" lon="7.1600600">
        <ele>128.4700000</ele>
        <time>2010-08-12T16:29:08Z</time>
      </trkpt>
      <trkpt lat="51.1546440" lon="7.1599870">
        <ele>128.9500000</ele>
        <time>2010-08-12T16:29:14Z</time>
      </trkpt>
      <trkpt lat="51.1546150" lon="7.1599900">
        <ele>128.9500000</ele>
        <time>2010-08-12T16:29:15Z</time>
      </trkpt>
      <trkpt lat="51.1545570" lon="7.1599420">
        <ele>128.9500000</ele>
        <time>2010-08-12T16:29:16Z</time>
      </trkpt>
      <trkpt lat="51.1544740" lon="7.1599930">
        <ele>128.4700000</ele>
        <time>2010-08-12T16:29:17Z</time>
      </trkpt>
      <trkpt lat="51.1543910" lon="7.1600390">
        <ele>128.4700000</ele>
        <time>2010-08-12T16:29:18Z</time>
      </trkpt>
      <trkpt lat="51.1542830" lon="7.1601290">
        <ele>128.9500000</ele>
        <time>2010-08-12T16:29:19Z</time>
      </trkpt>
      <trkpt lat="51.1541440" lon="7.1602560">
        <ele>128.4700000</ele>
        <time>2010-08-12T16:29:20Z</time>
      </trkpt>
      <trkpt lat="51.1540030" lon="7.1603360">
        <ele>127.5100000</ele>
        <time>2010-08-12T16:29:21Z</time>
      </trkpt>
      <trkpt lat="51.1538690" lon="7.1603680">
        <ele>127.0300000</ele>
        <time>2010-08-12T16:29:22Z</time>
      </trkpt>
      <trkpt lat="51.1537190" lon="7.1603970">
        <ele>125.1100000</ele>
        <time>2010-08-12T16:29:23Z</time>
      </trkpt>
      <trkpt lat="51.1535730" lon="7.1603680">
        <ele>124.6300000</ele>
        <time>2010-08-12T16:29:24Z</time>
      </trkpt>
      <trkpt lat="51.1534150" lon="7.1602930">
        <ele>123.1900000</ele>
        <time>2010-08-12T16:29:25Z</time>
      </trkpt>
      <trkpt lat="51.1532840" lon="7.1601250">
        <ele>122.7100000</ele>
        <time>2010-08-12T16:29:26Z</time>
      </trkpt>
      <trkpt lat="51.1531500" lon="7.1599730">
        <ele>121.7400000</ele>
        <time>2010-08-12T16:29:27Z</time>
      </trkpt>
      <trkpt lat="51.1530040" lon="7.1598590">
        <ele>119.3400000</ele>
        <time>2010-08-12T16:29:28Z</time>
      </trkpt>
      <trkpt lat="51.1524180" lon="7.1594020">
        <ele>115.5000000</ele>
        <time>2010-08-12T16:29:32Z</time>
      </trkpt>
      <trkpt lat="51.1522340" lon="7.1593600">
        <ele>112.1300000</ele>
        <time>2010-08-12T16:29:33Z</time>
      </trkpt>
      <trkpt lat="51.1520800" lon="7.1593020">
        <ele>108.7700000</ele>
        <time>2010-08-12T16:29:34Z</time>
      </trkpt>
      <trkpt lat="51.1509270" lon="7.1581320">
        <ele>113.5700000</ele>
        <time>2010-08-12T16:29:43Z</time>
      </trkpt>
      <trkpt lat="51.1508170" lon="7.1579190">
        <ele>113.5700000</ele>
        <time>2010-08-12T16:29:44Z</time>
      </trkpt>
      <trkpt lat="51.1500100" lon="7.1565820">
        <ele>111.6500000</ele>
        <time>2010-08-12T16:29:52Z</time>
      </trkpt>
      <trkpt lat="51.1497550" lon="7.1564450">
        <ele>111.6500000</ele>
        <time>2010-08-12T16:29:54Z</time>
      </trkpt>
      <trkpt lat="51.1496510" lon="7.1563630">
        <ele>120.3000000</ele>
        <time>2010-08-12T16:29:55Z</time>
      </trkpt>
      <trkpt lat="51.1495070" lon="7.1563770">
        <ele>121.2600000</ele>
        <time>2010-08-12T16:29:56Z</time>
      </trkpt>
      <trkpt lat="51.1493600" lon="7.1564280">
        <ele>122.7100000</ele>
        <time>2010-08-12T16:29:57Z</time>
      </trkpt>
      <trkpt lat="51.1492550" lon="7.1564620">
        <ele>125.1100000</ele>
        <time>2010-08-12T16:29:58Z</time>
      </trkpt>
      <trkpt lat="51.1491120" lon="7.1564260">
        <ele>127.0300000</ele>
        <time>2010-08-12T16:29:59Z</time>
      </trkpt>
      <trkpt lat="51.1479780" lon="7.1562250">
        <ele>130.4000000</ele>
        <time>2010-08-12T16:30:07Z</time>
      </trkpt>
      <trkpt lat="51.1475500" lon="7.1560020">
        <ele>128.9500000</ele>
        <time>2010-08-12T16:30:10Z</time>
      </trkpt>
      <trkpt lat="51.1474110" lon="7.1559050">
        <ele>127.0300000</ele>
        <time>2010-08-12T16:30:11Z</time>
      </trkpt>
      <trkpt lat="51.1466820" lon="7.1552620">
        <ele>118.3800000</ele>
        <time>2010-08-12T16:30:17Z</time>
      </trkpt>
      <trkpt lat="51.1465810" lon="7.1550690">
        <ele>117.4200000</ele>
        <time>2010-08-12T16:30:18Z</time>
      </trkpt>
      <trkpt lat="51.1464910" lon="7.1548600">
        <ele>116.4600000</ele>
        <time>2010-08-12T16:30:19Z</time>
      </trkpt>
      <trkpt lat="51.1464110" lon="7.1546440">
        <ele>115.9800000</ele>
        <time>2010-08-12T16:30:20Z</time>
      </trkpt>
      <trkpt lat="51.1463340" lon="7.1544370">
        <ele>114.5300000</ele>
        <time>2010-08-12T16:30:21Z</time>
      </trkpt>
      <trkpt lat="51.1457290" lon="7.1527040">
        <ele>108.7700000</ele>
        <time>2010-08-12T16:30:30Z</time>
      </trkpt>
      <trkpt lat="51.1456410" lon="7.1525180">
        <ele>107.8100000</ele>
        <time>2010-08-12T16:30:31Z</time>
      </trkpt>
      <trkpt lat="51.1455410" lon="7.1523490">
        <ele>107.3200000</ele>
        <time>2010-08-12T16:30:32Z</time>
      </trkpt>
      <trkpt lat="51.1446040" lon="7.1508960">
        <ele>102.0400000</ele>
        <time>2010-08-12T16:30:39Z</time>
      </trkpt>
      <trkpt lat="51.1441870" lon="7.1501650">
        <ele>99.1500000</ele>
        <time>2010-08-12T16:30:43Z</time>
      </trkpt>
      <trkpt lat="51.1441270" lon="7.1500080">
        <ele>99.1500000</ele>
        <time>2010-08-12T16:30:44Z</time>
      </trkpt>
      <trkpt lat="51.1440820" lon="7.1498570">
        <ele>98.1900000</ele>
        <time>2010-08-12T16:30:45Z</time>
      </trkpt>
      <trkpt lat="51.1438020" lon="7.1491630">
        <ele>95.7900000</ele>
        <time>2010-08-12T16:30:51Z</time>
      </trkpt>
      <trkpt lat="51.1437390" lon="7.1490870">
        <ele>96.2700000</ele>
        <time>2010-08-12T16:30:52Z</time>
      </trkpt>
      <trkpt lat="51.1436710" lon="7.1490150">
        <ele>96.2700000</ele>
        <time>2010-08-12T16:30:53Z</time>
      </trkpt>
      <trkpt lat="51.1435910" lon="7.1489800">
        <ele>95.7900000</ele>
        <time>2010-08-12T16:30:54Z</time>
      </trkpt>
      <trkpt lat="51.1435350" lon="7.1489650">
        <ele>97.7100000</ele>
        <time>2010-08-12T16:30:55Z</time>
      </trkpt>
      <trkpt lat="51.1434660" lon="7.1489230">
        <ele>99.1500000</ele>
        <time>2010-08-12T16:30:56Z</time>
      </trkpt>
      <trkpt lat="51.1433970" lon="7.1489070">
        <ele>100.1100000</ele>
        <time>2010-08-12T16:30:57Z</time>
      </trkpt>
      <trkpt lat="51.1433270" lon="7.1488980">
        <ele>100.6000000</ele>
        <time>2010-08-12T16:30:58Z</time>
      </trkpt>
      <trkpt lat="51.1432560" lon="7.1489060">
        <ele>101.5600000</ele>
        <time>2010-08-12T16:30:59Z</time>
      </trkpt>
      <trkpt lat="51.1431810" lon="7.1489200">
        <ele>101.5600000</ele>
        <time>2010-08-12T16:31:00Z</time>
      </trkpt>
      <trkpt lat="51.1431040" lon="7.1489470">
        <ele>101.5600000</ele>
        <time>2010-08-12T16:31:01Z</time>
      </trkpt>
      <trkpt lat="51.1430330" lon="7.1489860">
        <ele>102.5200000</ele>
        <time>2010-08-12T16:31:02Z</time>
      </trkpt>
      <trkpt lat="51.1425590" lon="7.1493080">
        <ele>107.3200000</ele>
        <time>2010-08-12T16:31:11Z</time>
      </trkpt>
      <trkpt lat="51.1424930" lon="7.1493330">
        <ele>116.4600000</ele>
        <time>2010-08-12T16:31:21Z</time>
      </trkpt>
      <trkpt lat="51.1424090" lon="7.1493710">
        <ele>115.9800000</ele>
        <time>2010-08-12T16:31:23Z</time>
      </trkpt>
      <trkpt lat="51.1423580" lon="7.1493990">
        <ele>115.9800000</ele>
        <time>2010-08-12T16:31:24Z</time>
      </trkpt>
      <trkpt lat="51.1422260" lon="7.1494650">
        <ele>118.3800000</ele>
        <time>2010-08-12T16:31:26Z</time>
      </trkpt>
      <trkpt lat="51.1412640" lon="7.1496140">
        <ele>120.3000000</ele>
        <time>2010-08-12T16:31:37Z</time>
      </trkpt>
      <trkpt lat="51.1411930" lon="7.1495940">
        <ele>120.7800000</ele>
        <time>2010-08-12T16:31:38Z</time>
      </trkpt>
      <trkpt lat="51.1411270" lon="7.1495640">
        <ele>118.3800000</ele>
        <time>2010-08-12T16:31:39Z</time>
      </trkpt>
      <trkpt lat="51.1410520" lon="7.1495280">
        <ele>116.4600000</ele>
        <time>2010-08-12T16:31:40Z</time>
      </trkpt>
      <trkpt lat="51.1409620" lon="7.1494730">
        <ele>115.9800000</ele>
        <time>2010-08-12T16:31:41Z</time>
      </trkpt>
      <trkpt lat="51.1408580" lon="7.1494070">
        <ele>115.0100000</ele>
        <time>2010-08-12T16:31:42Z</time>
      </trkpt>
      <trkpt lat="51.1405120" lon="7.1492150">
        <ele>110.6900000</ele>
        <time>2010-08-12T16:31:45Z</time>
      </trkpt>
      <trkpt lat="51.1404560" lon="7.1492450">
        <ele>110.2100000</ele>
        <time>2010-08-12T16:31:46Z</time>
      </trkpt>
      <trkpt lat="51.1403520" lon="7.1492550">
        <ele>109.2500000</ele>
        <time>2010-08-12T16:31:47Z</time>
      </trkpt>
      <trkpt lat="51.1402680" lon="7.1492750">
        <ele>107.8100000</ele>
        <time>2010-08-12T16:31:48Z</time>
      </trkpt>
      <trkpt lat="51.1401960" lon="7.1493300">
        <ele>107.3200000</ele>
        <time>2010-08-12T16:31:49Z</time>
      </trkpt>
      <trkpt lat="51.1401360" lon="7.1493790">
        <ele>107.3200000</ele>
        <time>2010-08-12T16:31:50Z</time>
      </trkpt>
      <trkpt lat="51.1400250" lon="7.1494970">
        <ele>109.2500000</ele>
        <time>2010-08-12T16:31:52Z</time>
      </trkpt>
      <trkpt lat="51.1400050" lon="7.1495570">
        <ele>110.2100000</ele>
        <time>2010-08-12T16:31:53Z</time>
      </trkpt>
      <trkpt lat="51.1400180" lon="7.1495280">
        <ele>113.5700000</ele>
        <time>2010-08-12T16:31:54Z</time>
      </trkpt>
      <trkpt lat="51.1400550" lon="7.1494690">
        <ele>121.7400000</ele>
        <time>2010-08-12T16:32:11Z</time>
      </trkpt>
      <trkpt lat="51.1400060" lon="7.1494870">
        <ele>144.8200000</ele>
        <time>2010-08-12T16:32:49Z</time>
      </trkpt>
      <trkpt lat="51.1399560" lon="7.1494240">
        <ele>145.7800000</ele>
        <time>2010-08-12T16:32:50Z</time>
      </trkpt>
      <trkpt lat="51.1399180" lon="7.1493940">
        <ele>145.7800000</ele>
        <time>2010-08-12T16:32:51Z</time>
      </trkpt>
      <trkpt lat="51.1398470" lon="7.1494120">
        <ele>147.2200000</ele>
        <time>2010-08-12T16:32:52Z</time>
      </trkpt>
      <trkpt lat="51.1397730" lon="7.1494030">
        <ele>147.2200000</ele>
        <time>2010-08-12T16:32:53Z</time>
      </trkpt>
      <trkpt lat="51.1394580" lon="7.1493120">
        <ele>143.3700000</ele>
        <time>2010-08-12T16:32:56Z</time>
      </trkpt>
      <trkpt lat="51.1393640" lon="7.1492350">
        <ele>140.9700000</ele>
        <time>2010-08-12T16:32:57Z</time>
      </trkpt>
      <trkpt lat="51.1392810" lon="7.1491310">
        <ele>139.0500000</ele>
        <time>2010-08-12T16:32:58Z</time>
      </trkpt>
      <trkpt lat="51.1389550" lon="7.1487900">
        <ele>126.5500000</ele>
        <time>2010-08-12T16:33:02Z</time>
      </trkpt>
      <trkpt lat="51.1388430" lon="7.1487440">
        <ele>123.6700000</ele>
        <time>2010-08-12T16:33:03Z</time>
      </trkpt>
      <trkpt lat="51.1377560" lon="7.1479420">
        <ele>100.6000000</ele>
        <time>2010-08-12T16:33:13Z</time>
      </trkpt>
      <trkpt lat="51.1376550" lon="7.1478730">
        <ele>100.6000000</ele>
        <time>2010-08-12T16:33:14Z</time>
      </trkpt>
      <trkpt lat="51.1375460" lon="7.1478230">
        <ele>100.6000000</ele>
        <time>2010-08-12T16:33:15Z</time>
      </trkpt>
      <trkpt lat="51.1374310" lon="7.1477940">
        <ele>100.6000000</ele>
        <time>2010-08-12T16:33:16Z</time>
      </trkpt>
      <trkpt lat="51.1373220" lon="7.1477990">
        <ele>100.1100000</ele>
        <time>2010-08-12T16:33:17Z</time>
      </trkpt>
      <trkpt lat="51.1372090" lon="7.1478540">
        <ele>99.6300000</ele>
        <time>2010-08-12T16:33:18Z</time>
      </trkpt>
      <trkpt lat="51.1371060" lon="7.1479620">
        <ele>99.6300000</ele>
        <time>2010-08-12T16:33:19Z</time>
      </trkpt>
      <trkpt lat="51.1370290" lon="7.1481060">
        <ele>100.1100000</ele>
        <time>2010-08-12T16:33:20Z</time>
      </trkpt>
      <trkpt lat="51.1369560" lon="7.1482340">
        <ele>100.6000000</ele>
        <time>2010-08-12T16:33:21Z</time>
      </trkpt>
      <trkpt lat="51.1368780" lon="7.1483200">
        <ele>100.1100000</ele>
        <time>2010-08-12T16:33:22Z</time>
      </trkpt>
      <trkpt lat="51.1368030" lon="7.1483420">
        <ele>100.1100000</ele>
        <time>2010-08-12T16:33:23Z</time>
      </trkpt>
      <trkpt lat="51.1367240" lon="7.1483270">
        <ele>100.1100000</ele>
        <time>2010-08-12T16:33:24Z</time>
      </trkpt>
      <trkpt lat="51.1366620" lon="7.1482250">
        <ele>100.6000000</ele>
        <time>2010-08-12T16:33:25Z</time>
      </trkpt>
      <trkpt lat="51.1366090" lon="7.1480580">
        <ele>100.6000000</ele>
        <time>2010-08-12T16:33:26Z</time>
      </trkpt>
      <trkpt lat="51.1365410" lon="7.1478150">
        <ele>101.0800000</ele>
        <time>2010-08-12T16:33:27Z</time>
      </trkpt>
      <trkpt lat="51.1364660" lon="7.1475400">
        <ele>100.1100000</ele>
        <time>2010-08-12T16:33:28Z</time>
      </trkpt>
      <trkpt lat="51.1363450" lon="7.1472310">
        <ele>101.5600000</ele>
        <time>2010-08-12T16:33:29Z</time>
      </trkpt>
      <trkpt lat="51.1362270" lon="7.1463520">
        <ele>103.0000000</ele>
        <time>2010-08-12T16:33:31Z</time>
      </trkpt>
      <trkpt lat="51.1361630" lon="7.1459130">
        <ele>103.9600000</ele>
        <time>2010-08-12T16:33:32Z</time>
      </trkpt>
      <trkpt lat="51.1360050" lon="7.1443160">
        <ele>112.1300000</ele>
        <time>2010-08-12T16:33:36Z</time>
      </trkpt>
      <trkpt lat="51.1360180" lon="7.1439650">
        <ele>114.0500000</ele>
        <time>2010-08-12T16:33:37Z</time>
      </trkpt>
      <trkpt lat="51.1359450" lon="7.1417980">
        <ele>124.6300000</ele>
        <time>2010-08-12T16:33:44Z</time>
      </trkpt>
      <trkpt lat="51.1354350" lon="7.1403780">
        <ele>129.9200000</ele>
        <time>2010-08-12T16:33:48Z</time>
      </trkpt>
      <trkpt lat="51.1352460" lon="7.1390050">
        <ele>137.1300000</ele>
        <time>2010-08-12T16:33:53Z</time>
      </trkpt>
      <trkpt lat="51.1353230" lon="7.1387830">
        <ele>138.0900000</ele>
        <time>2010-08-12T16:33:54Z</time>
      </trkpt>
      <trkpt lat="51.1354830" lon="7.1384980">
        <ele>139.0500000</ele>
        <time>2010-08-12T16:33:55Z</time>
      </trkpt>
      <trkpt lat="51.1356830" lon="7.1382570">
        <ele>140.4900000</ele>
        <time>2010-08-12T16:33:56Z</time>
      </trkpt>
      <trkpt lat="51.1359140" lon="7.1380630">
        <ele>142.4100000</ele>
        <time>2010-08-12T16:33:57Z</time>
      </trkpt>
      <trkpt lat="51.1361430" lon="7.1378630">
        <ele>143.8500000</ele>
        <time>2010-08-12T16:33:58Z</time>
      </trkpt>
      <trkpt lat="51.1363620" lon="7.1376310">
        <ele>145.3000000</ele>
        <time>2010-08-12T16:33:59Z</time>
      </trkpt>
      <trkpt lat="51.1365810" lon="7.1374050">
        <ele>146.7400000</ele>
        <time>2010-08-12T16:34:00Z</time>
      </trkpt>
      <trkpt lat="51.1382850" lon="7.1355300">
        <ele>161.6400000</ele>
        <time>2010-08-12T16:34:09Z</time>
      </trkpt>
      <trkpt lat="51.1387190" lon="7.1352170">
        <ele>168.8500000</ele>
        <time>2010-08-12T16:34:12Z</time>
      </trkpt>
      <trkpt lat="51.1388560" lon="7.1351910">
        <ele>170.7700000</ele>
        <time>2010-08-12T16:34:13Z</time>
      </trkpt>
      <trkpt lat="51.1389820" lon="7.1351470">
        <ele>173.1700000</ele>
        <time>2010-08-12T16:34:14Z</time>
      </trkpt>
      <trkpt lat="51.1392360" lon="7.1347670">
        <ele>178.9400000</ele>
        <time>2010-08-12T16:34:17Z</time>
      </trkpt>
      <trkpt lat="51.1393230" lon="7.1344180">
        <ele>187.5900000</ele>
        <time>2010-08-12T16:34:19Z</time>
      </trkpt>
      <trkpt lat="51.1392900" lon="7.1341920">
        <ele>190.9600000</ele>
        <time>2010-08-12T16:34:20Z</time>
      </trkpt>
      <trkpt lat="51.1392150" lon="7.1339380">
        <ele>186.6300000</ele>
        <time>2010-08-12T16:34:21Z</time>
      </trkpt>
      <trkpt lat="51.1391910" lon="7.1337110">
        <ele>188.0800000</ele>
        <time>2010-08-12T16:34:22Z</time>
      </trkpt>
      <trkpt lat="51.1393200" lon="7.1333870">
        <ele>189.0400000</ele>
        <time>2010-08-12T16:34:24Z</time>
      </trkpt>
      <trkpt lat="51.1394760" lon="7.1333040">
        <ele>189.0400000</ele>
        <time>2010-08-12T16:34:25Z</time>
      </trkpt>
      <trkpt lat="51.1396520" lon="7.1332440">
        <ele>188.0800000</ele>
        <time>2010-08-12T16:34:26Z</time>
      </trkpt>
      <trkpt lat="51.1398790" lon="7.1331900">
        <ele>188.0800000</ele>
        <time>2010-08-12T16:34:27Z</time>
      </trkpt>
      <trkpt lat="51.1401170" lon="7.1331890">
        <ele>188.0800000</ele>
        <time>2010-08-12T16:34:28Z</time>
      </trkpt>
      <trkpt lat="51.1403130" lon="7.1331900">
        <ele>188.0800000</ele>
        <time>2010-08-12T16:34:29Z</time>
      </trkpt>
      <trkpt lat="51.1404990" lon="7.1332110">
        <ele>189.0400000</ele>
        <time>2010-08-12T16:34:30Z</time>
      </trkpt>
      <trkpt lat="51.1406830" lon="7.1332570">
        <ele>190.0000000</ele>
        <time>2010-08-12T16:34:31Z</time>
      </trkpt>
      <trkpt lat="51.1408810" lon="7.1332840">
        <ele>190.9600000</ele>
        <time>2010-08-12T16:34:32Z</time>
      </trkpt>
      <trkpt lat="51.1417150" lon="7.1331160">
        <ele>188.5600000</ele>
        <time>2010-08-12T16:34:36Z</time>
      </trkpt>
      <trkpt lat="51.1419030" lon="7.1329260">
        <ele>187.5900000</ele>
        <time>2010-08-12T16:34:37Z</time>
      </trkpt>
      <trkpt lat="51.1420550" lon="7.1327170">
        <ele>189.0400000</ele>
        <time>2010-08-12T16:34:38Z</time>
      </trkpt>
      <trkpt lat="51.1423590" lon="7.1321440">
        <ele>184.2300000</ele>
        <time>2010-08-12T16:34:40Z</time>
      </trkpt>
      <trkpt lat="51.1424780" lon="7.1317890">
        <ele>182.7900000</ele>
        <time>2010-08-12T16:34:41Z</time>
      </trkpt>
      <trkpt lat="51.1425820" lon="7.1313960">
        <ele>181.3500000</ele>
        <time>2010-08-12T16:34:42Z</time>
      </trkpt>
      <trkpt lat="51.1426730" lon="7.1310050">
        <ele>178.9400000</ele>
        <time>2010-08-12T16:34:43Z</time>
      </trkpt>
      <trkpt lat="51.1427400" lon="7.1305640">
        <ele>177.9800000</ele>
        <time>2010-08-12T16:34:44Z</time>
      </trkpt>
      <trkpt lat="51.1428390" lon="7.1301250">
        <ele>177.5000000</ele>
        <time>2010-08-12T16:34:45Z</time>
      </trkpt>
      <trkpt lat="51.1429130" lon="7.1297060">
        <ele>181.3500000</ele>
        <time>2010-08-12T16:34:46Z</time>
      </trkpt>
      <trkpt lat="51.1436030" lon="7.1278170">
        <ele>194.8000000</ele>
        <time>2010-08-12T16:34:53Z</time>
      </trkpt>
      <trkpt lat="51.1437830" lon="7.1276100">
        <ele>195.7700000</ele>
        <time>2010-08-12T16:34:54Z</time>
      </trkpt>
      <trkpt lat="51.1440170" lon="7.1274450">
        <ele>198.6500000</ele>
        <time>2010-08-12T16:34:55Z</time>
      </trkpt>
      <trkpt lat="51.1442460" lon="7.1272290">
        <ele>199.6100000</ele>
        <time>2010-08-12T16:34:56Z</time>
      </trkpt>
      <trkpt lat="51.1444760" lon="7.1270010">
        <ele>199.1300000</ele>
        <time>2010-08-12T16:34:57Z</time>
      </trkpt>
      <trkpt lat="51.1457160" lon="7.1259520">
        <ele>210.6700000</ele>
        <time>2010-08-12T16:35:03Z</time>
      </trkpt>
      <trkpt lat="51.1471290" lon="7.1248500">
        <ele>215.4700000</ele>
        <time>2010-08-12T16:35:11Z</time>
      </trkpt>
      <trkpt lat="51.1487320" lon="7.1239070">
        <ele>223.1600000</ele>
        <time>2010-08-12T16:35:20Z</time>
      </trkpt>
      <trkpt lat="51.1500920" lon="7.1232550">
        <ele>226.5300000</ele>
        <time>2010-08-12T16:35:29Z</time>
      </trkpt>
      <trkpt lat="51.1513700" lon="7.1226290">
        <ele>230.3700000</ele>
        <time>2010-08-12T16:35:34Z</time>
      </trkpt>
      <trkpt lat="51.1530380" lon="7.1217130">
        <ele>237.1000000</ele>
        <time>2010-08-12T16:35:42Z</time>
      </trkpt>
      <trkpt lat="51.1544970" lon="7.1206570">
        <ele>234.7000000</ele>
        <time>2010-08-12T16:35:51Z</time>
      </trkpt>
      <trkpt lat="51.1561710" lon="7.1194100">
        <ele>233.7400000</ele>
        <time>2010-08-12T16:36:03Z</time>
      </trkpt>
      <trkpt lat="51.1574930" lon="7.1184540">
        <ele>234.7000000</ele>
        <time>2010-08-12T16:36:14Z</time>
      </trkpt>
      <trkpt lat="51.1584260" lon="7.1174070">
        <ele>235.1800000</ele>
        <time>2010-08-12T16:36:23Z</time>
      </trkpt>
      <trkpt lat="51.1595050" lon="7.1158930">
        <ele>241.4300000</ele>
        <time>2010-08-12T16:36:34Z</time>
      </trkpt>
      <trkpt lat="51.1606620" lon="7.1142920">
        <ele>244.3100000</ele>
        <time>2010-08-12T16:36:47Z</time>
      </trkpt>
      <trkpt lat="51.1610390" lon="7.1137540">
        <ele>244.7900000</ele>
        <time>2010-08-12T16:36:52Z</time>
      </trkpt>
      <trkpt lat="51.1611840" lon="7.1135570">
        <ele>245.2700000</ele>
        <time>2010-08-12T16:36:54Z</time>
      </trkpt>
      <trkpt lat="51.1616640" lon="7.1128690">
        <ele>249.1200000</ele>
        <time>2010-08-12T16:37:03Z</time>
      </trkpt>
      <trkpt lat="51.1616840" lon="7.1128610">
        <ele>252.9600000</ele>
        <time>2010-08-12T16:37:10Z</time>
      </trkpt>
      <trkpt lat="51.1616850" lon="7.1128440">
        <ele>265.4600000</ele>
        <time>2010-08-12T16:37:47Z</time>
      </trkpt>
      <trkpt lat="51.1620230" lon="7.1122270">
        <ele>265.4600000</ele>
        <time>2010-08-12T16:37:55Z</time>
      </trkpt>
      <trkpt lat="51.1621680" lon="7.1118830">
        <ele>265.9400000</ele>
        <time>2010-08-12T16:37:59Z</time>
      </trkpt>
      <trkpt lat="51.1621950" lon="7.1117740">
        <ele>266.4200000</ele>
        <time>2010-08-12T16:38:00Z</time>
      </trkpt>
      <trkpt lat="51.1622250" lon="7.1116480">
        <ele>266.4200000</ele>
        <time>2010-08-12T16:38:01Z</time>
      </trkpt>
      <trkpt lat="51.1622400" lon="7.1115360">
        <ele>265.9400000</ele>
        <time>2010-08-12T16:38:02Z</time>
      </trkpt>
      <trkpt lat="51.1622480" lon="7.1114270">
        <ele>265.9400000</ele>
        <time>2010-08-12T16:38:03Z</time>
      </trkpt>
      <trkpt lat="51.1622560" lon="7.1113260">
        <ele>265.9400000</ele>
        <time>2010-08-12T16:38:04Z</time>
      </trkpt>
      <trkpt lat="51.1622480" lon="7.1110220">
        <ele>265.4600000</ele>
        <time>2010-08-12T16:38:07Z</time>
      </trkpt>
      <trkpt lat="51.1622340" lon="7.1108920">
        <ele>264.9800000</ele>
        <time>2010-08-12T16:38:08Z</time>
      </trkpt>
      <trkpt lat="51.1622150" lon="7.1107560">
        <ele>265.4600000</ele>
        <time>2010-08-12T16:38:09Z</time>
      </trkpt>
      <trkpt lat="51.1620560" lon="7.1100080">
        <ele>263.0600000</ele>
        <time>2010-08-12T16:38:15Z</time>
      </trkpt>
      <trkpt lat="51.1617110" lon="7.1083890">
        <ele>260.1700000</ele>
        <time>2010-08-12T16:38:25Z</time>
      </trkpt>
      <trkpt lat="51.1612880" lon="7.1063460">
        <ele>253.4400000</ele>
        <time>2010-08-12T16:38:38Z</time>
      </trkpt>
      <trkpt lat="51.1610350" lon="7.1042950">
        <ele>250.0800000</ele>
        <time>2010-08-12T16:38:50Z</time>
      </trkpt>
      <trkpt lat="51.1612350" lon="7.1019510">
        <ele>244.7900000</ele>
        <time>2010-08-12T16:39:03Z</time>
      </trkpt>
      <trkpt lat="51.1613840" lon="7.1010650">
        <ele>246.2300000</ele>
        <time>2010-08-12T16:39:08Z</time>
      </trkpt>
      <trkpt lat="51.1619810" lon="7.0993020">
        <ele>243.8300000</ele>
        <time>2010-08-12T16:39:19Z</time>
      </trkpt>
      <trkpt lat="51.1627220" lon="7.0975470">
        <ele>237.5800000</ele>
        <time>2010-08-12T16:39:30Z</time>
      </trkpt>
      <trkpt lat="51.1636720" lon="7.0952700">
        <ele>225.5700000</ele>
        <time>2010-08-12T16:39:43Z</time>
      </trkpt>
      <trkpt lat="51.1646220" lon="7.0930130">
        <ele>220.2800000</ele>
        <time>2010-08-12T16:39:56Z</time>
      </trkpt>
      <trkpt lat="51.1650460" lon="7.0919170">
        <ele>218.8400000</ele>
        <time>2010-08-12T16:40:04Z</time>
      </trkpt>
      <trkpt lat="51.1654390" lon="7.0909970">
        <ele>218.8400000</ele>
        <time>2010-08-12T16:40:14Z</time>
      </trkpt>
      <trkpt lat="51.1660830" lon="7.0894890">
        <ele>213.0700000</ele>
        <time>2010-08-12T16:40:26Z</time>
      </trkpt>
      <trkpt lat="51.1663450" lon="7.0890000">
        <ele>212.5900000</ele>
        <time>2010-08-12T16:40:29Z</time>
      </trkpt>
      <trkpt lat="51.1672740" lon="7.0879220">
        <ele>214.0300000</ele>
        <time>2010-08-12T16:40:38Z</time>
      </trkpt>
      <trkpt lat="51.1682080" lon="7.0868360">
        <ele>217.8800000</ele>
        <time>2010-08-12T16:40:45Z</time>
      </trkpt>
      <trkpt lat="51.1691160" lon="7.0860640">
        <ele>218.3600000</ele>
        <time>2010-08-12T16:40:52Z</time>
      </trkpt>
      <trkpt lat="51.1692580" lon="7.0861000">
        <ele>219.3200000</ele>
        <time>2010-08-12T16:40:53Z</time>
      </trkpt>
      <trkpt lat="51.1693880" lon="7.0861650">
        <ele>219.3200000</ele>
        <time>2010-08-12T16:40:54Z</time>
      </trkpt>
      <trkpt lat="51.1711960" lon="7.0866830">
        <ele>220.7600000</ele>
        <time>2010-08-12T16:41:06Z</time>
      </trkpt>
      <trkpt lat="51.1721420" lon="7.0866550">
        <ele>224.1200000</ele>
        <time>2010-08-12T16:41:14Z</time>
      </trkpt>
      <trkpt lat="51.1730870" lon="7.0863590">
        <ele>245.2700000</ele>
        <time>2010-08-12T16:41:24Z</time>
      </trkpt>
      <trkpt lat="51.1738510" lon="7.0859230">
        <ele>257.7700000</ele>
        <time>2010-08-12T16:41:32Z</time>
      </trkpt>
      <trkpt lat="51.1739190" lon="7.0858480">
        <ele>258.7300000</ele>
        <time>2010-08-12T16:41:33Z</time>
      </trkpt>
      <trkpt lat="51.1739830" lon="7.0857590">
        <ele>257.2900000</ele>
        <time>2010-08-12T16:41:34Z</time>
      </trkpt>
      <trkpt lat="51.1740290" lon="7.0856580">
        <ele>257.7700000</ele>
        <time>2010-08-12T16:41:35Z</time>
      </trkpt>
      <trkpt lat="51.1740750" lon="7.0855590">
        <ele>256.8100000</ele>
        <time>2010-08-12T16:41:36Z</time>
      </trkpt>
      <trkpt lat="51.1741160" lon="7.0854610">
        <ele>256.3300000</ele>
        <time>2010-08-12T16:41:37Z</time>
      </trkpt>
      <trkpt lat="51.1742140" lon="7.0852070">
        <ele>252.9600000</ele>
        <time>2010-08-12T16:41:40Z</time>
      </trkpt>
      <trkpt lat="51.1742450" lon="7.0851010">
        <ele>251.5200000</ele>
        <time>2010-08-12T16:41:41Z</time>
      </trkpt>
      <trkpt lat="51.1742790" lon="7.0849930">
        <ele>252.0000000</ele>
        <time>2010-08-12T16:41:42Z</time>
      </trkpt>
      <trkpt lat="51.1743950" lon="7.0847170">
        <ele>255.3700000</ele>
        <time>2010-08-12T16:41:47Z</time>
      </trkpt>
      <trkpt lat="51.1744110" lon="7.0847360">
        <ele>259.6900000</ele>
        <time>2010-08-12T16:41:59Z</time>
      </trkpt>
      <trkpt lat="51.1745970" lon="7.0846100">
        <ele>260.1700000</ele>
        <time>2010-08-12T16:42:13Z</time>
      </trkpt>
      <trkpt lat="51.1748060" lon="7.0843430">
        <ele>252.9600000</ele>
        <time>2010-08-12T16:42:16Z</time>
      </trkpt>
      <trkpt lat="51.1747820" lon="7.0842600">
        <ele>250.0800000</ele>
        <time>2010-08-12T16:42:17Z</time>
      </trkpt>
      <trkpt lat="51.1747170" lon="7.0841960">
        <ele>248.1600000</ele>
        <time>2010-08-12T16:42:18Z</time>
      </trkpt>
      <trkpt lat="51.1746790" lon="7.0841030">
        <ele>247.2000000</ele>
        <time>2010-08-12T16:42:19Z</time>
      </trkpt>
      <trkpt lat="51.1746430" lon="7.0840210">
        <ele>245.7500000</ele>
        <time>2010-08-12T16:42:20Z</time>
      </trkpt>
      <trkpt lat="51.1746010" lon="7.0839690">
        <ele>244.7900000</ele>
        <time>2010-08-12T16:42:21Z</time>
      </trkpt>
      <trkpt lat="51.1745870" lon="7.0838820">
        <ele>244.7900000</ele>
        <time>2010-08-12T16:42:22Z</time>
      </trkpt>
      <trkpt lat="51.1744740" lon="7.0839520">
        <ele>241.4300000</ele>
        <time>2010-08-12T16:42:23Z</time>
      </trkpt>
      <trkpt lat="51.1743890" lon="7.0839730">
        <ele>239.0200000</ele>
        <time>2010-08-12T16:42:24Z</time>
      </trkpt>
      <trkpt lat="51.1736920" lon="7.0839020">
        <ele>235.6600000</ele>
        <time>2010-08-12T16:42:33Z</time>
      </trkpt>
      <trkpt lat="51.1735360" lon="7.0838870">
        <ele>237.1000000</ele>
        <time>2010-08-12T16:42:35Z</time>
      </trkpt>
      <trkpt lat="51.1734570" lon="7.0838550">
        <ele>237.1000000</ele>
        <time>2010-08-12T16:42:36Z</time>
      </trkpt>
      <trkpt lat="51.1730170" lon="7.0836350">
        <ele>242.3900000</ele>
        <time>2010-08-12T16:42:44Z</time>
      </trkpt>
      <trkpt lat="51.1729670" lon="7.0835890">
        <ele>242.3900000</ele>
        <time>2010-08-12T16:42:45Z</time>
      </trkpt>
      <trkpt lat="51.1729230" lon="7.0835540">
        <ele>241.9100000</ele>
        <time>2010-08-12T16:42:46Z</time>
      </trkpt>
      <trkpt lat="51.1727550" lon="7.0834960">
        <ele>241.4300000</ele>
        <time>2010-08-12T16:42:49Z</time>
      </trkpt>
      <trkpt lat="51.1720540" lon="7.0833530">
        <ele>233.7400000</ele>
        <time>2010-08-12T16:43:01Z</time>
      </trkpt>
      <trkpt lat="51.1718390" lon="7.0833860">
        <ele>232.7800000</ele>
        <time>2010-08-12T16:43:04Z</time>
      </trkpt>
      <trkpt lat="51.1714210" lon="7.0830540">
        <ele>225.0900000</ele>
        <time>2010-08-12T16:43:11Z</time>
      </trkpt>
      <trkpt lat="51.1712840" lon="7.0827490">
        <ele>225.0900000</ele>
        <time>2010-08-12T16:43:13Z</time>
      </trkpt>
      <trkpt lat="51.1711460" lon="7.0825900">
        <ele>225.0900000</ele>
        <time>2010-08-12T16:43:15Z</time>
      </trkpt>
      <trkpt lat="51.1710940" lon="7.0825100">
        <ele>225.5700000</ele>
        <time>2010-08-12T16:43:16Z</time>
      </trkpt>
      <trkpt lat="51.1710620" lon="7.0824090">
        <ele>228.9300000</ele>
        <time>2010-08-12T16:43:17Z</time>
      </trkpt>
      <trkpt lat="51.1710200" lon="7.0823290">
        <ele>229.4100000</ele>
        <time>2010-08-12T16:43:18Z</time>
      </trkpt>
      <trkpt lat="51.1709720" lon="7.0822600">
        <ele>228.9300000</ele>
        <time>2010-08-12T16:43:19Z</time>
      </trkpt>
      <trkpt lat="51.1709300" lon="7.0821910">
        <ele>228.4500000</ele>
        <time>2010-08-12T16:43:20Z</time>
      </trkpt>
      <trkpt lat="51.1707010" lon="7.0815230">
        <ele>227.4900000</ele>
        <time>2010-08-12T16:43:31Z</time>
      </trkpt>
      <trkpt lat="51.1706200" lon="7.0813780">
        <ele>227.0100000</ele>
        <time>2010-08-12T16:43:34Z</time>
      </trkpt>
      <trkpt lat="51.1705670" lon="7.0812740">
        <ele>227.0100000</ele>
        <time>2010-08-12T16:43:35Z</time>
      </trkpt>
      <trkpt lat="51.1704930" lon="7.0811670">
        <ele>225.5700000</ele>
        <time>2010-08-12T16:43:36Z</time>
      </trkpt>
      <trkpt lat="51.1703190" lon="7.0806520">
        <ele>224.6100000</ele>
        <time>2010-08-12T16:43:39Z</time>
      </trkpt>
      <trkpt lat="51.1698590" lon="7.0793020">
        <ele>223.1600000</ele>
        <time>2010-08-12T16:43:48Z</time>
      </trkpt>
      <trkpt lat="51.1698170" lon="7.0792320">
        <ele>223.6400000</ele>
        <time>2010-08-12T16:43:49Z</time>
      </trkpt>
      <trkpt lat="51.1697980" lon="7.0791870">
        <ele>224.1200000</ele>
        <time>2010-08-12T16:43:50Z</time>
      </trkpt>
      <trkpt lat="51.1697730" lon="7.0791720">
        <ele>224.1200000</ele>
        <time>2010-08-12T16:43:51Z</time>
      </trkpt>
      <trkpt lat="51.1697450" lon="7.0791850">
        <ele>224.1200000</ele>
        <time>2010-08-12T16:43:52Z</time>
      </trkpt>
      <trkpt lat="51.1697050" lon="7.0792380">
        <ele>224.1200000</ele>
        <time>2010-08-12T16:43:53Z</time>
      </trkpt>
      <trkpt lat="51.1696560" lon="7.0793230">
        <ele>224.6100000</ele>
        <time>2010-08-12T16:43:54Z</time>
      </trkpt>
      <trkpt lat="51.1696080" lon="7.0794120">
        <ele>225.0900000</ele>
        <time>2010-08-12T16:43:55Z</time>
      </trkpt>
      <trkpt lat="51.1694890" lon="7.0796230">
        <ele>227.0100000</ele>
        <time>2010-08-12T16:44:01Z</time>
      </trkpt>
      <trkpt lat="51.1694970" lon="7.0796590">
        <ele>227.0100000</ele>
        <time>2010-08-12T16:44:06Z</time>
      </trkpt>
      <trkpt lat="51.1695020" lon="7.0796970">
        <ele>227.0100000</ele>
        <time>2010-08-12T16:44:07Z</time>
      </trkpt>
      <trkpt lat="51.1695200" lon="7.0797470">
        <ele>227.0100000</ele>
        <time>2010-08-12T16:44:08Z</time>
      </trkpt>
      <trkpt lat="51.1695450" lon="7.0798080">
        <ele>226.5300000</ele>
        <time>2010-08-12T16:44:09Z</time>
      </trkpt>
      <trkpt lat="51.1695810" lon="7.0798760">
        <ele>227.0100000</ele>
        <time>2010-08-12T16:44:10Z</time>
      </trkpt>
      <trkpt lat="51.1696210" lon="7.0799440">
        <ele>226.5300000</ele>
        <time>2010-08-12T16:44:11Z</time>
      </trkpt>
      <trkpt lat="51.1696930" lon="7.0801110">
        <ele>226.0500000</ele>
        <time>2010-08-12T16:44:13Z</time>
      </trkpt>
      <trkpt lat="51.1697720" lon="7.0803250">
        <ele>226.5300000</ele>
        <time>2010-08-12T16:44:15Z</time>
      </trkpt>
      <trkpt lat="51.1701690" lon="7.0810490">
        <ele>228.9300000</ele>
        <time>2010-08-12T16:44:24Z</time>
      </trkpt>
      <trkpt lat="51.1702290" lon="7.0810170">
        <ele>229.4100000</ele>
        <time>2010-08-12T16:44:25Z</time>
      </trkpt>
      <trkpt lat="51.1703510" lon="7.0809740">
        <ele>232.3000000</ele>
        <time>2010-08-12T16:44:26Z</time>
      </trkpt>
      <trkpt lat="51.1704220" lon="7.0808820">
        <ele>235.1800000</ele>
        <time>2010-08-12T16:44:27Z</time>
      </trkpt>
      <trkpt lat="51.1704760" lon="7.0808120">
        <ele>238.0600000</ele>
        <time>2010-08-12T16:44:28Z</time>
      </trkpt>
      <trkpt lat="51.1704530" lon="7.0807630">
        <ele>237.5800000</ele>
        <time>2010-08-12T16:44:29Z</time>
      </trkpt>
      <trkpt lat="51.1703840" lon="7.0806370">
        <ele>237.1000000</ele>
        <time>2010-08-12T16:44:30Z</time>
      </trkpt>
      <trkpt lat="51.1703420" lon="7.0805140">
        <ele>236.6200000</ele>
        <time>2010-08-12T16:44:31Z</time>
      </trkpt>
      <trkpt lat="51.1702690" lon="7.0803510">
        <ele>234.2200000</ele>
        <time>2010-08-12T16:44:32Z</time>
      </trkpt>
      <trkpt lat="51.1702040" lon="7.0801750">
        <ele>232.7800000</ele>
        <time>2010-08-12T16:44:33Z</time>
      </trkpt>
      <trkpt lat="51.1699230" lon="7.0793970">
        <ele>230.8500000</ele>
        <time>2010-08-12T16:44:38Z</time>
      </trkpt>
      <trkpt lat="51.1698540" lon="7.0793020">
        <ele>230.3700000</ele>
        <time>2010-08-12T16:44:39Z</time>
      </trkpt>
      <trkpt lat="51.1698010" lon="7.0792050">
        <ele>229.4100000</ele>
        <time>2010-08-12T16:44:40Z</time>
      </trkpt>
      <trkpt lat="51.1697360" lon="7.0790210">
        <ele>227.9700000</ele>
        <time>2010-08-12T16:44:42Z</time>
      </trkpt>
      <trkpt lat="51.1697120" lon="7.0790130">
        <ele>227.4900000</ele>
        <time>2010-08-12T16:44:43Z</time>
      </trkpt>
      <trkpt lat="51.1696710" lon="7.0790360">
        <ele>227.9700000</ele>
        <time>2010-08-12T16:44:44Z</time>
      </trkpt>
      <trkpt lat="51.1696110" lon="7.0790530">
        <ele>227.4900000</ele>
        <time>2010-08-12T16:44:45Z</time>
      </trkpt>
      <trkpt lat="51.1695550" lon="7.0791120">
        <ele>227.0100000</ele>
        <time>2010-08-12T16:44:46Z</time>
      </trkpt>
      <trkpt lat="51.1695170" lon="7.0792210">
        <ele>227.0100000</ele>
        <time>2010-08-12T16:44:47Z</time>
      </trkpt>
      <trkpt lat="51.1694930" lon="7.0792880">
        <ele>228.4500000</ele>
        <time>2010-08-12T16:44:48Z</time>
      </trkpt>
      <trkpt lat="51.1694610" lon="7.0793450">
        <ele>230.3700000</ele>
        <time>2010-08-12T16:44:49Z</time>
      </trkpt>
      <trkpt lat="51.1694420" lon="7.0793840">
        <ele>231.3300000</ele>
        <time>2010-08-12T16:44:50Z</time>
      </trkpt>
      <trkpt lat="51.1694360" lon="7.0794420">
        <ele>236.1400000</ele>
        <time>2010-08-12T16:44:51Z</time>
      </trkpt>
      <trkpt lat="51.1694320" lon="7.0794810">
        <ele>239.0200000</ele>
        <time>2010-08-12T16:44:52Z</time>
      </trkpt>
      <trkpt lat="51.1694310" lon="7.0795060">
        <ele>240.9500000</ele>
        <time>2010-08-12T16:44:53Z</time>
      </trkpt>
      <trkpt lat="51.1694370" lon="7.0795310">
        <ele>242.8700000</ele>
        <time>2010-08-12T16:44:54Z</time>
      </trkpt>
      <trkpt lat="51.1694390" lon="7.0795530">
        <ele>243.3500000</ele>
        <time>2010-08-12T16:44:55Z</time>
      </trkpt>
      <trkpt lat="51.1694490" lon="7.0795850">
        <ele>242.3900000</ele>
        <time>2010-08-12T16:44:56Z</time>
      </trkpt>
      <trkpt lat="51.1694630" lon="7.0796120">
        <ele>241.4300000</ele>
        <time>2010-08-12T16:44:57Z</time>
      </trkpt>
      <trkpt lat="51.1694740" lon="7.0796410">
        <ele>239.9900000</ele>
        <time>2010-08-12T16:44:58Z</time>
      </trkpt>
      <trkpt lat="51.1694830" lon="7.0796670">
        <ele>238.5400000</ele>
        <time>2010-08-12T16:44:59Z</time>
      </trkpt>
      <trkpt lat="51.1694930" lon="7.0796850">
        <ele>240.4700000</ele>
        <time>2010-08-12T16:45:00Z</time>
      </trkpt>
      <trkpt lat="51.1694870" lon="7.0797060">
        <ele>239.9900000</ele>
        <time>2010-08-12T16:45:01Z</time>
      </trkpt>
      <trkpt lat="51.1694850" lon="7.0797180">
        <ele>232.7800000</ele>
        <time>2010-08-12T16:45:15Z</time>
      </trkpt>
      <trkpt lat="51.1694160" lon="7.0798650">
        <ele>226.5300000</ele>
        <time>2010-08-12T16:45:49Z</time>
      </trkpt>
      <trkpt lat="51.1693680" lon="7.0799520">
        <ele>236.6200000</ele>
        <time>2010-08-12T16:46:01Z</time>
      </trkpt>
      <trkpt lat="51.1694180" lon="7.0799510">
        <ele>257.7700000</ele>
        <time>2010-08-12T16:46:23Z</time>
      </trkpt>
      <trkpt lat="51.1694300" lon="7.0799360">
        <ele>257.7700000</ele>
        <time>2010-08-12T16:46:24Z</time>
      </trkpt>
      <trkpt lat="51.1694420" lon="7.0799200">
        <ele>257.2900000</ele>
        <time>2010-08-12T16:46:25Z</time>
      </trkpt>
      <trkpt lat="51.1694490" lon="7.0799010">
        <ele>256.8100000</ele>
        <time>2010-08-12T16:46:26Z</time>
      </trkpt>
      <trkpt lat="51.1694600" lon="7.0798670">
        <ele>254.4100000</ele>
        <time>2010-08-12T16:46:28Z</time>
      </trkpt>
      <trkpt lat="51.1694700" lon="7.0797950">
        <ele>237.5800000</ele>
        <time>2010-08-12T16:46:39Z</time>
      </trkpt>
      <trkpt lat="51.1694860" lon="7.0797790">
        <ele>228.4500000</ele>
        <time>2010-08-12T16:46:49Z</time>
      </trkpt>
    </trkseg>
  </trk>

  <trk>
    <name>ACTIVE LOG: 14 AUG 2010 12:17</name>
    <extensions>
      <gpxx:TrackExtension xmlns:gpxx="http://www.garmin.com/xmlschemas/GpxExtensions/v3">
        <gpxx:DisplayColor>White</gpxx:DisplayColor>
      </gpxx:TrackExtension>
    </extensions>
    <trkseg>
      <trkpt lat="51.1694150" lon="7.0795830">
        <ele>243.8300000</ele>
        <time>2010-08-14T10:17:34Z</time>
      </trkpt>
      <trkpt lat="51.1694320" lon="7.0796530">
        <ele>233.2600000</ele>
        <time>2010-08-14T10:18:10Z</time>
      </trkpt>
      <trkpt lat="51.1694890" lon="7.0797240">
        <ele>231.3300000</ele>
        <time>2010-08-14T10:18:12Z</time>
      </trkpt>
      <trkpt lat="51.1695400" lon="7.0798220">
        <ele>232.3000000</ele>
        <time>2010-08-14T10:18:13Z</time>
      </trkpt>
      <trkpt lat="51.1698740" lon="7.0806760">
        <ele>232.7800000</ele>
        <time>2010-08-14T10:18:20Z</time>
      </trkpt>
      <trkpt lat="51.1700300" lon="7.0811410">
        <ele>235.6600000</ele>
        <time>2010-08-14T10:18:25Z</time>
      </trkpt>
      <trkpt lat="51.1700990" lon="7.0813100">
        <ele>234.2200000</ele>
        <time>2010-08-14T10:18:27Z</time>
      </trkpt>
      <trkpt lat="51.1701080" lon="7.0813860">
        <ele>233.2600000</ele>
        <time>2010-08-14T10:18:28Z</time>
      </trkpt>
      <trkpt lat="51.1700990" lon="7.0816140">
        <ele>231.8100000</ele>
        <time>2010-08-14T10:18:31Z</time>
      </trkpt>
      <trkpt lat="51.1700080" lon="7.0816940">
        <ele>230.3700000</ele>
        <time>2010-08-14T10:18:32Z</time>
      </trkpt>
      <trkpt lat="51.1699450" lon="7.0817660">
        <ele>229.8900000</ele>
        <time>2010-08-14T10:18:33Z</time>
      </trkpt>
      <trkpt lat="51.1698830" lon="7.0818340">
        <ele>230.3700000</ele>
        <time>2010-08-14T10:18:34Z</time>
      </trkpt>
      <trkpt lat="51.1698280" lon="7.0819130">
        <ele>230.8500000</ele>
        <time>2010-08-14T10:18:35Z</time>
      </trkpt>
      <trkpt lat="51.1695540" lon="7.0821970">
        <ele>239.9900000</ele>
        <time>2010-08-14T10:18:44Z</time>
      </trkpt>
      <trkpt lat="51.1695920" lon="7.0824020">
        <ele>234.7000000</ele>
        <time>2010-08-14T10:18:47Z</time>
      </trkpt>
      <trkpt lat="51.1696430" lon="7.0824880">
        <ele>236.1400000</ele>
        <time>2010-08-14T10:18:48Z</time>
      </trkpt>
      <trkpt lat="51.1697090" lon="7.0825920">
        <ele>238.0600000</ele>
        <time>2010-08-14T10:18:49Z</time>
      </trkpt>
      <trkpt lat="51.1697710" lon="7.0826890">
        <ele>240.4700000</ele>
        <time>2010-08-14T10:18:50Z</time>
      </trkpt>
      <trkpt lat="51.1698260" lon="7.0827850">
        <ele>242.8700000</ele>
        <time>2010-08-14T10:18:51Z</time>
      </trkpt>
      <trkpt lat="51.1699240" lon="7.0829870">
        <ele>245.2700000</ele>
        <time>2010-08-14T10:18:53Z</time>
      </trkpt>
      <trkpt lat="51.1699470" lon="7.0830830">
        <ele>247.6800000</ele>
        <time>2010-08-14T10:18:54Z</time>
      </trkpt>
      <trkpt lat="51.1699470" lon="7.0832130">
        <ele>249.6000000</ele>
        <time>2010-08-14T10:18:55Z</time>
      </trkpt>
      <trkpt lat="51.1699460" lon="7.0833580">
        <ele>249.6000000</ele>
        <time>2010-08-14T10:18:56Z</time>
      </trkpt>
      <trkpt lat="51.1699440" lon="7.0834950">
        <ele>250.0800000</ele>
        <time>2010-08-14T10:18:57Z</time>
      </trkpt>
      <trkpt lat="51.1699390" lon="7.0841770">
        <ele>243.3500000</ele>
        <time>2010-08-14T10:19:02Z</time>
      </trkpt>
      <trkpt lat="51.1698650" lon="7.0843040">
        <ele>239.0200000</ele>
        <time>2010-08-14T10:19:03Z</time>
      </trkpt>
      <trkpt lat="51.1691910" lon="7.0852080">
        <ele>228.4500000</ele>
        <time>2010-08-14T10:19:13Z</time>
      </trkpt>
      <trkpt lat="51.1690490" lon="7.0857910">
        <ele>226.5300000</ele>
        <time>2010-08-14T10:19:18Z</time>
      </trkpt>
      <trkpt lat="51.1688740" lon="7.0858700">
        <ele>226.5300000</ele>
        <time>2010-08-14T10:19:19Z</time>
      </trkpt>
      <trkpt lat="51.1687370" lon="7.0859630">
        <ele>225.0900000</ele>
        <time>2010-08-14T10:19:20Z</time>
      </trkpt>
      <trkpt lat="51.1686950" lon="7.0860760">
        <ele>224.6100000</ele>
        <time>2010-08-14T10:19:21Z</time>
      </trkpt>
      <trkpt lat="51.1686340" lon="7.0862210">
        <ele>224.6100000</ele>
        <time>2010-08-14T10:19:22Z</time>
      </trkpt>
      <trkpt lat="51.1680710" lon="7.0869060">
        <ele>222.2000000</ele>
        <time>2010-08-14T10:19:30Z</time>
      </trkpt>
      <trkpt lat="51.1679790" lon="7.0869950">
        <ele>220.7600000</ele>
        <time>2010-08-14T10:19:32Z</time>
      </trkpt>
      <trkpt lat="51.1679700" lon="7.0870560">
        <ele>219.8000000</ele>
        <time>2010-08-14T10:19:33Z</time>
      </trkpt>
      <trkpt lat="51.1679130" lon="7.0871850">
        <ele>220.2800000</ele>
        <time>2010-08-14T10:19:36Z</time>
      </trkpt>
      <trkpt lat="51.1678560" lon="7.0872420">
        <ele>221.2400000</ele>
        <time>2010-08-14T10:19:37Z</time>
      </trkpt>
      <trkpt lat="51.1677900" lon="7.0872920">
        <ele>221.7200000</ele>
        <time>2010-08-14T10:19:38Z</time>
      </trkpt>
      <trkpt lat="51.1677520" lon="7.0873340">
        <ele>222.2000000</ele>
        <time>2010-08-14T10:19:39Z</time>
      </trkpt>
      <trkpt lat="51.1677110" lon="7.0873680">
        <ele>223.6400000</ele>
        <time>2010-08-14T10:19:40Z</time>
      </trkpt>
      <trkpt lat="51.1673350" lon="7.0877730">
        <ele>221.7200000</ele>
        <time>2010-08-14T10:19:49Z</time>
      </trkpt>
      <trkpt lat="51.1671360" lon="7.0880160">
        <ele>216.4300000</ele>
        <time>2010-08-14T10:19:57Z</time>
      </trkpt>
      <trkpt lat="51.1669160" lon="7.0882300">
        <ele>215.9500000</ele>
        <time>2010-08-14T10:20:54Z</time>
      </trkpt>
      <trkpt lat="51.1662900" lon="7.0890620">
        <ele>214.9900000</ele>
        <time>2010-08-14T10:21:03Z</time>
      </trkpt>
      <trkpt lat="51.1660900" lon="7.0893760">
        <ele>215.9500000</ele>
        <time>2010-08-14T10:21:06Z</time>
      </trkpt>
      <trkpt lat="51.1660420" lon="7.0894810">
        <ele>214.9900000</ele>
        <time>2010-08-14T10:21:07Z</time>
      </trkpt>
      <trkpt lat="51.1654730" lon="7.0907390">
        <ele>214.0300000</ele>
        <time>2010-08-14T10:21:18Z</time>
      </trkpt>
      <trkpt lat="51.1650350" lon="7.0919010">
        <ele>214.9900000</ele>
        <time>2010-08-14T10:21:28Z</time>
      </trkpt>
      <trkpt lat="51.1649630" lon="7.0919190">
        <ele>215.4700000</ele>
        <time>2010-08-14T10:21:29Z</time>
      </trkpt>
      <trkpt lat="51.1648950" lon="7.0919570">
        <ele>216.4300000</ele>
        <time>2010-08-14T10:21:30Z</time>
      </trkpt>
      <trkpt lat="51.1648510" lon="7.0919250">
        <ele>215.9500000</ele>
        <time>2010-08-14T10:21:31Z</time>
      </trkpt>
      <trkpt lat="51.1648090" lon="7.0918860">
        <ele>215.4700000</ele>
        <time>2010-08-14T10:21:32Z</time>
      </trkpt>
      <trkpt lat="51.1647670" lon="7.0918610">
        <ele>215.4700000</ele>
        <time>2010-08-14T10:21:33Z</time>
      </trkpt>
      <trkpt lat="51.1647140" lon="7.0918110">
        <ele>215.9500000</ele>
        <time>2010-08-14T10:21:36Z</time>
      </trkpt>
      <trkpt lat="51.1647370" lon="7.0917350">
        <ele>216.4300000</ele>
        <time>2010-08-14T10:21:52Z</time>
      </trkpt>
      <trkpt lat="51.1647570" lon="7.0917170">
        <ele>220.7600000</ele>
        <time>2010-08-14T10:22:10Z</time>
      </trkpt>
      <trkpt lat="51.1647820" lon="7.0918540">
        <ele>204.9000000</ele>
        <time>2010-08-14T10:23:02Z</time>
      </trkpt>
      <trkpt lat="51.1647290" lon="7.0918340">
        <ele>206.3400000</ele>
        <time>2010-08-14T10:24:05Z</time>
      </trkpt>
    </trkseg>
  </trk>

  <trk>
    <name>ACTIVE LOG: 14 AUG 2010 12:24</name>
    <extensions>
      <gpxx:TrackExtension xmlns:gpxx="http://www.garmin.com/xmlschemas/GpxExtensions/v3">
        <gpxx:DisplayColor>White</gpxx:DisplayColor>
      </gpxx:TrackExtension>
    </extensions>
    <trkseg>
      <trkpt lat="51.1646710" lon="7.0917770">
        <ele>221.7200000</ele>
        <time>2010-08-14T10:24:33Z</time>
      </trkpt>
      <trkpt lat="51.1646440" lon="7.0917240">
        <ele>226.0500000</ele>
        <time>2010-08-14T10:25:03Z</time>
      </trkpt>
      <trkpt lat="51.1646210" lon="7.0917400">
        <ele>227.0100000</ele>
        <time>2010-08-14T10:25:05Z</time>
      </trkpt>
      <trkpt lat="51.1646130" lon="7.0917740">
        <ele>227.4900000</ele>
        <time>2010-08-14T10:25:06Z</time>
      </trkpt>
      <trkpt lat="51.1646100" lon="7.0918340">
        <ele>227.4900000</ele>
        <time>2010-08-14T10:25:07Z</time>
      </trkpt>
      <trkpt lat="51.1646190" lon="7.0919300">
        <ele>226.0500000</ele>
        <time>2010-08-14T10:25:08Z</time>
      </trkpt>
      <trkpt lat="51.1646500" lon="7.0920130">
        <ele>223.6400000</ele>
        <time>2010-08-14T10:25:09Z</time>
      </trkpt>
      <trkpt lat="51.1646960" lon="7.0920650">
        <ele>223.1600000</ele>
        <time>2010-08-14T10:25:10Z</time>
      </trkpt>
      <trkpt lat="51.1647720" lon="7.0921740">
        <ele>220.2800000</ele>
        <time>2010-08-14T10:25:13Z</time>
      </trkpt>
      <trkpt lat="51.1647780" lon="7.0922830">
        <ele>218.8400000</ele>
        <time>2010-08-14T10:25:15Z</time>
      </trkpt>
      <trkpt lat="51.1647600" lon="7.0924330">
        <ele>218.3600000</ele>
        <time>2010-08-14T10:25:16Z</time>
      </trkpt>
      <trkpt lat="51.1647060" lon="7.0926020">
        <ele>217.8800000</ele>
        <time>2010-08-14T10:25:17Z</time>
      </trkpt>
      <trkpt lat="51.1646510" lon="7.0927700">
        <ele>217.4000000</ele>
        <time>2010-08-14T10:25:18Z</time>
      </trkpt>
      <trkpt lat="51.1640780" lon="7.0941820">
        <ele>216.9100000</ele>
        <time>2010-08-14T10:25:26Z</time>
      </trkpt>
      <trkpt lat="51.1636320" lon="7.0952810">
        <ele>220.2800000</ele>
        <time>2010-08-14T10:25:34Z</time>
      </trkpt>
      <trkpt lat="51.1635290" lon="7.0955930">
        <ele>221.7200000</ele>
        <time>2010-08-14T10:25:40Z</time>
      </trkpt>
      <trkpt lat="51.1632630" lon="7.0962350">
        <ele>223.1600000</ele>
        <time>2010-08-14T10:25:46Z</time>
      </trkpt>
      <trkpt lat="51.1625900" lon="7.0978060">
        <ele>232.3000000</ele>
        <time>2010-08-14T10:25:57Z</time>
      </trkpt>
      <trkpt lat="51.1620440" lon="7.0991110">
        <ele>236.6200000</ele>
        <time>2010-08-14T10:26:05Z</time>
      </trkpt>
      <trkpt lat="51.1614050" lon="7.1008770">
        <ele>242.3900000</ele>
        <time>2010-08-14T10:26:16Z</time>
      </trkpt>
      <trkpt lat="51.1611810" lon="7.1020950">
        <ele>245.7500000</ele>
        <time>2010-08-14T10:26:25Z</time>
      </trkpt>
      <trkpt lat="51.1611480" lon="7.1024750">
        <ele>247.2000000</ele>
        <time>2010-08-14T10:26:32Z</time>
      </trkpt>
      <trkpt lat="51.1610160" lon="7.1035830">
        <ele>249.6000000</ele>
        <time>2010-08-14T10:26:40Z</time>
      </trkpt>
      <trkpt lat="51.1610100" lon="7.1037410">
        <ele>249.6000000</ele>
        <time>2010-08-14T10:26:41Z</time>
      </trkpt>
      <trkpt lat="51.1610300" lon="7.1053190">
        <ele>252.0000000</ele>
        <time>2010-08-14T10:26:50Z</time>
      </trkpt>
      <trkpt lat="51.1614190" lon="7.1072670">
        <ele>254.4100000</ele>
        <time>2010-08-14T10:27:00Z</time>
      </trkpt>
      <trkpt lat="51.1618750" lon="7.1093490">
        <ele>257.2900000</ele>
        <time>2010-08-14T10:27:11Z</time>
      </trkpt>
      <trkpt lat="51.1621880" lon="7.1109700">
        <ele>256.8100000</ele>
        <time>2010-08-14T10:27:21Z</time>
      </trkpt>
      <trkpt lat="51.1622140" lon="7.1110460">
        <ele>256.3300000</ele>
        <time>2010-08-14T10:27:28Z</time>
      </trkpt>
      <trkpt lat="51.1622330" lon="7.1112800">
        <ele>257.2900000</ele>
        <time>2010-08-14T10:28:03Z</time>
      </trkpt>
      <trkpt lat="51.1622370" lon="7.1113690">
        <ele>256.8100000</ele>
        <time>2010-08-14T10:28:04Z</time>
      </trkpt>
      <trkpt lat="51.1622360" lon="7.1114650">
        <ele>256.8100000</ele>
        <time>2010-08-14T10:28:05Z</time>
      </trkpt>
      <trkpt lat="51.1622290" lon="7.1115660">
        <ele>256.8100000</ele>
        <time>2010-08-14T10:28:06Z</time>
      </trkpt>
      <trkpt lat="51.1622130" lon="7.1118490">
        <ele>255.3700000</ele>
        <time>2010-08-14T10:28:09Z</time>
      </trkpt>
      <trkpt lat="51.1622110" lon="7.1119320">
        <ele>254.8900000</ele>
        <time>2010-08-14T10:28:10Z</time>
      </trkpt>
      <trkpt lat="51.1622210" lon="7.1120120">
        <ele>254.4100000</ele>
        <time>2010-08-14T10:28:11Z</time>
      </trkpt>
      <trkpt lat="51.1622500" lon="7.1120720">
        <ele>253.9300000</ele>
        <time>2010-08-14T10:28:12Z</time>
      </trkpt>
      <trkpt lat="51.1623060" lon="7.1121230">
        <ele>253.9300000</ele>
        <time>2010-08-14T10:28:13Z</time>
      </trkpt>
      <trkpt lat="51.1623740" lon="7.1121650">
        <ele>253.4400000</ele>
        <time>2010-08-14T10:28:14Z</time>
      </trkpt>
      <trkpt lat="51.1624480" lon="7.1122110">
        <ele>252.9600000</ele>
        <time>2010-08-14T10:28:15Z</time>
      </trkpt>
      <trkpt lat="51.1634620" lon="7.1131100">
        <ele>250.0800000</ele>
        <time>2010-08-14T10:28:27Z</time>
      </trkpt>
      <trkpt lat="51.1638830" lon="7.1134290">
        <ele>248.1600000</ele>
        <time>2010-08-14T10:28:31Z</time>
      </trkpt>
      <trkpt lat="51.1639910" lon="7.1134750">
        <ele>247.6800000</ele>
        <time>2010-08-14T10:28:32Z</time>
      </trkpt>
      <trkpt lat="51.1641070" lon="7.1134980">
        <ele>247.6800000</ele>
        <time>2010-08-14T10:28:33Z</time>
      </trkpt>
      <trkpt lat="51.1642260" lon="7.1135000">
        <ele>247.6800000</ele>
        <time>2010-08-14T10:28:34Z</time>
      </trkpt>
      <trkpt lat="51.1643500" lon="7.1134980">
        <ele>247.2000000</ele>
        <time>2010-08-14T10:28:35Z</time>
      </trkpt>
      <trkpt lat="51.1650990" lon="7.1134660">
        <ele>243.8300000</ele>
        <time>2010-08-14T10:28:41Z</time>
      </trkpt>
      <trkpt lat="51.1652180" lon="7.1134920">
        <ele>243.3500000</ele>
        <time>2010-08-14T10:28:42Z</time>
      </trkpt>
      <trkpt lat="51.1653330" lon="7.1135510">
        <ele>242.8700000</ele>
        <time>2010-08-14T10:28:43Z</time>
      </trkpt>
      <trkpt lat="51.1654420" lon="7.1136370">
        <ele>242.3900000</ele>
        <time>2010-08-14T10:28:44Z</time>
      </trkpt>
      <trkpt lat="51.1655460" lon="7.1137450">
        <ele>241.9100000</ele>
        <time>2010-08-14T10:28:45Z</time>
      </trkpt>
      <trkpt lat="51.1656440" lon="7.1138660">
        <ele>241.4300000</ele>
        <time>2010-08-14T10:28:46Z</time>
      </trkpt>
      <trkpt lat="51.1657330" lon="7.1139870">
        <ele>240.9500000</ele>
        <time>2010-08-14T10:28:47Z</time>
      </trkpt>
      <trkpt lat="51.1667840" lon="7.1155340">
        <ele>232.3000000</ele>
        <time>2010-08-14T10:29:00Z</time>
      </trkpt>
      <trkpt lat="51.1684530" lon="7.1180370">
        <ele>220.7600000</ele>
        <time>2010-08-14T10:29:18Z</time>
      </trkpt>
      <trkpt lat="51.1685610" lon="7.1182180">
        <ele>219.8000000</ele>
        <time>2010-08-14T10:29:19Z</time>
      </trkpt>
      <trkpt lat="51.1686590" lon="7.1184460">
        <ele>218.8400000</ele>
        <time>2010-08-14T10:29:20Z</time>
      </trkpt>
      <trkpt lat="51.1687480" lon="7.1186950">
        <ele>217.8800000</ele>
        <time>2010-08-14T10:29:21Z</time>
      </trkpt>
      <trkpt lat="51.1691610" lon="7.1202750">
        <ele>212.1100000</ele>
        <time>2010-08-14T10:29:28Z</time>
      </trkpt>
      <trkpt lat="51.1692330" lon="7.1206990">
        <ele>210.1900000</ele>
        <time>2010-08-14T10:29:30Z</time>
      </trkpt>
      <trkpt lat="51.1692480" lon="7.1209230">
        <ele>209.2200000</ele>
        <time>2010-08-14T10:29:31Z</time>
      </trkpt>
      <trkpt lat="51.1692500" lon="7.1211550">
        <ele>208.2600000</ele>
        <time>2010-08-14T10:29:32Z</time>
      </trkpt>
      <trkpt lat="51.1691780" lon="7.1233710">
        <ele>199.1300000</ele>
        <time>2010-08-14T10:29:42Z</time>
      </trkpt>
      <trkpt lat="51.1690980" lon="7.1253740">
        <ele>189.5200000</ele>
        <time>2010-08-14T10:29:51Z</time>
      </trkpt>
      <trkpt lat="51.1690140" lon="7.1269050">
        <ele>181.3500000</ele>
        <time>2010-08-14T10:29:59Z</time>
      </trkpt>
      <trkpt lat="51.1690770" lon="7.1270660">
        <ele>180.8700000</ele>
        <time>2010-08-14T10:30:00Z</time>
      </trkpt>
      <trkpt lat="51.1691450" lon="7.1271960">
        <ele>179.4200000</ele>
        <time>2010-08-14T10:30:01Z</time>
      </trkpt>
      <trkpt lat="51.1692270" lon="7.1272260">
        <ele>178.9400000</ele>
        <time>2010-08-14T10:30:02Z</time>
      </trkpt>
      <trkpt lat="51.1694240" lon="7.1272230">
        <ele>179.9000000</ele>
        <time>2010-08-14T10:30:04Z</time>
      </trkpt>
      <trkpt lat="51.1695200" lon="7.1272350">
        <ele>180.3800000</ele>
        <time>2010-08-14T10:30:05Z</time>
      </trkpt>
      <trkpt lat="51.1696430" lon="7.1271460">
        <ele>179.4200000</ele>
        <time>2010-08-14T10:30:06Z</time>
      </trkpt>
      <trkpt lat="51.1697700" lon="7.1270890">
        <ele>179.4200000</ele>
        <time>2010-08-14T10:30:07Z</time>
      </trkpt>
      <trkpt lat="51.1699080" lon="7.1270080">
        <ele>178.4600000</ele>
        <time>2010-08-14T10:30:08Z</time>
      </trkpt>
      <trkpt lat="51.1700460" lon="7.1269520">
        <ele>178.9400000</ele>
        <time>2010-08-14T10:30:09Z</time>
      </trkpt>
      <trkpt lat="51.1707540" lon="7.1266010">
        <ele>181.3500000</ele>
        <time>2010-08-14T10:30:15Z</time>
      </trkpt>
      <trkpt lat="51.1708410" lon="7.1265010">
        <ele>180.8700000</ele>
        <time>2010-08-14T10:30:16Z</time>
      </trkpt>
      <trkpt lat="51.1709070" lon="7.1263420">
        <ele>180.3800000</ele>
        <time>2010-08-14T10:30:17Z</time>
      </trkpt>
      <trkpt lat="51.1709660" lon="7.1261670">
        <ele>180.3800000</ele>
        <time>2010-08-14T10:30:18Z</time>
      </trkpt>
      <trkpt lat="51.1710250" lon="7.1260430">
        <ele>179.9000000</ele>
        <time>2010-08-14T10:30:19Z</time>
      </trkpt>
      <trkpt lat="51.1710620" lon="7.1259390">
        <ele>179.9000000</ele>
        <time>2010-08-14T10:30:20Z</time>
      </trkpt>
      <trkpt lat="51.1710990" lon="7.1258420">
        <ele>179.9000000</ele>
        <time>2010-08-14T10:30:21Z</time>
      </trkpt>
      <trkpt lat="51.1711570" lon="7.1257890">
        <ele>179.9000000</ele>
        <time>2010-08-14T10:30:22Z</time>
      </trkpt>
      <trkpt lat="51.1712100" lon="7.1257590">
        <ele>178.9400000</ele>
        <time>2010-08-14T10:30:23Z</time>
      </trkpt>
      <trkpt lat="51.1712720" lon="7.1258030">
        <ele>178.4600000</ele>
        <time>2010-08-14T10:30:24Z</time>
      </trkpt>
      <trkpt lat="51.1713260" lon="7.1259100">
        <ele>177.5000000</ele>
        <time>2010-08-14T10:30:25Z</time>
      </trkpt>
      <trkpt lat="51.1713420" lon="7.1260150">
        <ele>176.5400000</ele>
        <time>2010-08-14T10:30:26Z</time>
      </trkpt>
      <trkpt lat="51.1713080" lon="7.1261400">
        <ele>175.5800000</ele>
        <time>2010-08-14T10:30:27Z</time>
      </trkpt>
      <trkpt lat="51.1712730" lon="7.1262750">
        <ele>175.5800000</ele>
        <time>2010-08-14T10:30:28Z</time>
      </trkpt>
      <trkpt lat="51.1712060" lon="7.1264040">
        <ele>174.6200000</ele>
        <time>2010-08-14T10:30:29Z</time>
      </trkpt>
      <trkpt lat="51.1711110" lon="7.1265240">
        <ele>174.1400000</ele>
        <time>2010-08-14T10:30:30Z</time>
      </trkpt>
      <trkpt lat="51.1710190" lon="7.1266320">
        <ele>172.6900000</ele>
        <time>2010-08-14T10:30:31Z</time>
      </trkpt>
      <trkpt lat="51.1709330" lon="7.1267610">
        <ele>172.2100000</ele>
        <time>2010-08-14T10:30:32Z</time>
      </trkpt>
      <trkpt lat="51.1700950" lon="7.1276850">
        <ele>165.9600000</ele>
        <time>2010-08-14T10:30:40Z</time>
      </trkpt>
      <trkpt lat="51.1692140" lon="7.1284980">
        <ele>157.3100000</ele>
        <time>2010-08-14T10:30:49Z</time>
      </trkpt>
      <trkpt lat="51.1689190" lon="7.1287630">
        <ele>154.4300000</ele>
        <time>2010-08-14T10:30:52Z</time>
      </trkpt>
      <trkpt lat="51.1688180" lon="7.1288140">
        <ele>152.9900000</ele>
        <time>2010-08-14T10:30:53Z</time>
      </trkpt>
      <trkpt lat="51.1687190" lon="7.1288090">
        <ele>151.5400000</ele>
        <time>2010-08-14T10:30:54Z</time>
      </trkpt>
      <trkpt lat="51.1686300" lon="7.1287630">
        <ele>149.6200000</ele>
        <time>2010-08-14T10:30:55Z</time>
      </trkpt>
      <trkpt lat="51.1685240" lon="7.1285830">
        <ele>149.1400000</ele>
        <time>2010-08-14T10:30:56Z</time>
      </trkpt>
      <trkpt lat="51.1684670" lon="7.1283990">
        <ele>149.1400000</ele>
        <time>2010-08-14T10:30:57Z</time>
      </trkpt>
      <trkpt lat="51.1684400" lon="7.1282290">
        <ele>149.1400000</ele>
        <time>2010-08-14T10:30:58Z</time>
      </trkpt>
      <trkpt lat="51.1684450" lon="7.1280340">
        <ele>149.1400000</ele>
        <time>2010-08-14T10:30:59Z</time>
      </trkpt>
      <trkpt lat="51.1684330" lon="7.1278610">
        <ele>149.1400000</ele>
        <time>2010-08-14T10:31:00Z</time>
      </trkpt>
      <trkpt lat="51.1683880" lon="7.1266340">
        <ele>151.0600000</ele>
        <time>2010-08-14T10:31:09Z</time>
      </trkpt>
      <trkpt lat="51.1683400" lon="7.1264940">
        <ele>156.8300000</ele>
        <time>2010-08-14T10:31:10Z</time>
      </trkpt>
      <trkpt lat="51.1683170" lon="7.1264110">
        <ele>155.8700000</ele>
        <time>2010-08-14T10:31:11Z</time>
      </trkpt>
      <trkpt lat="51.1682900" lon="7.1263430">
        <ele>154.9100000</ele>
        <time>2010-08-14T10:31:12Z</time>
      </trkpt>
      <trkpt lat="51.1682550" lon="7.1263290">
        <ele>153.9500000</ele>
        <time>2010-08-14T10:31:13Z</time>
      </trkpt>
      <trkpt lat="51.1681550" lon="7.1263800">
        <ele>149.6200000</ele>
        <time>2010-08-14T10:31:15Z</time>
      </trkpt>
      <trkpt lat="51.1681110" lon="7.1264880">
        <ele>146.7400000</ele>
        <time>2010-08-14T10:31:16Z</time>
      </trkpt>
      <trkpt lat="51.1680810" lon="7.1267380">
        <ele>146.2600000</ele>
        <time>2010-08-14T10:31:17Z</time>
      </trkpt>
      <trkpt lat="51.1680400" lon="7.1269900">
        <ele>144.8200000</ele>
        <time>2010-08-14T10:31:18Z</time>
      </trkpt>
      <trkpt lat="51.1677000" lon="7.1285850">
        <ele>140.9700000</ele>
        <time>2010-08-14T10:31:25Z</time>
      </trkpt>
      <trkpt lat="51.1675270" lon="7.1291020">
        <ele>139.5300000</ele>
        <time>2010-08-14T10:31:28Z</time>
      </trkpt>
      <trkpt lat="51.1673330" lon="7.1293600">
        <ele>139.0500000</ele>
        <time>2010-08-14T10:31:30Z</time>
      </trkpt>
      <trkpt lat="51.1672500" lon="7.1294680">
        <ele>138.0900000</ele>
        <time>2010-08-14T10:31:31Z</time>
      </trkpt>
      <trkpt lat="51.1671750" lon="7.1296210">
        <ele>138.5700000</ele>
        <time>2010-08-14T10:31:32Z</time>
      </trkpt>
      <trkpt lat="51.1669880" lon="7.1300850">
        <ele>139.0500000</ele>
        <time>2010-08-14T10:31:35Z</time>
      </trkpt>
      <trkpt lat="51.1669700" lon="7.1302450">
        <ele>138.5700000</ele>
        <time>2010-08-14T10:31:36Z</time>
      </trkpt>
      <trkpt lat="51.1669060" lon="7.1307330">
        <ele>134.2400000</ele>
        <time>2010-08-14T10:31:39Z</time>
      </trkpt>
      <trkpt lat="51.1669200" lon="7.1309120">
        <ele>132.8000000</ele>
        <time>2010-08-14T10:31:40Z</time>
      </trkpt>
      <trkpt lat="51.1669190" lon="7.1310870">
        <ele>131.8400000</ele>
        <time>2010-08-14T10:31:41Z</time>
      </trkpt>
      <trkpt lat="51.1669140" lon="7.1312520">
        <ele>130.8800000</ele>
        <time>2010-08-14T10:31:42Z</time>
      </trkpt>
      <trkpt lat="51.1668970" lon="7.1314080">
        <ele>129.4300000</ele>
        <time>2010-08-14T10:31:43Z</time>
      </trkpt>
      <trkpt lat="51.1668600" lon="7.1315680">
        <ele>129.4300000</ele>
        <time>2010-08-14T10:31:44Z</time>
      </trkpt>
      <trkpt lat="51.1667680" lon="7.1317410">
        <ele>129.4300000</ele>
        <time>2010-08-14T10:31:45Z</time>
      </trkpt>
      <trkpt lat="51.1666860" lon="7.1318850">
        <ele>128.9500000</ele>
        <time>2010-08-14T10:31:46Z</time>
      </trkpt>
      <trkpt lat="51.1666010" lon="7.1320270">
        <ele>129.9200000</ele>
        <time>2010-08-14T10:31:47Z</time>
      </trkpt>
      <trkpt lat="51.1659150" lon="7.1333800">
        <ele>125.1100000</ele>
        <time>2010-08-14T10:31:56Z</time>
      </trkpt>
      <trkpt lat="51.1656980" lon="7.1349290">
        <ele>115.5000000</ele>
        <time>2010-08-14T10:32:05Z</time>
      </trkpt>
      <trkpt lat="51.1656990" lon="7.1350970">
        <ele>113.5700000</ele>
        <time>2010-08-14T10:32:06Z</time>
      </trkpt>
      <trkpt lat="51.1657180" lon="7.1352590">
        <ele>111.6500000</ele>
        <time>2010-08-14T10:32:07Z</time>
      </trkpt>
      <trkpt lat="51.1661260" lon="7.1366070">
        <ele>106.3600000</ele>
        <time>2010-08-14T10:32:17Z</time>
      </trkpt>
      <trkpt lat="51.1662670" lon="7.1368360">
        <ele>104.4400000</ele>
        <time>2010-08-14T10:32:27Z</time>
      </trkpt>
      <trkpt lat="51.1663190" lon="7.1368770">
        <ele>103.9600000</ele>
        <time>2010-08-14T10:32:28Z</time>
      </trkpt>
      <trkpt lat="51.1663740" lon="7.1368630">
        <ele>103.9600000</ele>
        <time>2010-08-14T10:32:29Z</time>
      </trkpt>
      <trkpt lat="51.1664340" lon="7.1367900">
        <ele>103.4800000</ele>
        <time>2010-08-14T10:32:30Z</time>
      </trkpt>
      <trkpt lat="51.1664770" lon="7.1366740">
        <ele>103.4800000</ele>
        <time>2010-08-14T10:32:31Z</time>
      </trkpt>
      <trkpt lat="51.1664930" lon="7.1365310">
        <ele>103.0000000</ele>
        <time>2010-08-14T10:32:32Z</time>
      </trkpt>
      <trkpt lat="51.1664910" lon="7.1363710">
        <ele>103.0000000</ele>
        <time>2010-08-14T10:32:33Z</time>
      </trkpt>
      <trkpt lat="51.1664920" lon="7.1362120">
        <ele>102.5200000</ele>
        <time>2010-08-14T10:32:34Z</time>
      </trkpt>
      <trkpt lat="51.1665010" lon="7.1360680">
        <ele>102.0400000</ele>
        <time>2010-08-14T10:32:35Z</time>
      </trkpt>
      <trkpt lat="51.1665260" lon="7.1359510">
        <ele>102.0400000</ele>
        <time>2010-08-14T10:32:36Z</time>
      </trkpt>
      <trkpt lat="51.1665840" lon="7.1358990">
        <ele>101.5600000</ele>
        <time>2010-08-14T10:32:37Z</time>
      </trkpt>
      <trkpt lat="51.1666670" lon="7.1358830">
        <ele>101.5600000</ele>
        <time>2010-08-14T10:32:38Z</time>
      </trkpt>
      <trkpt lat="51.1667840" lon="7.1359120">
        <ele>102.0400000</ele>
        <time>2010-08-14T10:32:39Z</time>
      </trkpt>
      <trkpt lat="51.1669190" lon="7.1359550">
        <ele>102.0400000</ele>
        <time>2010-08-14T10:32:40Z</time>
      </trkpt>
      <trkpt lat="51.1670800" lon="7.1360160">
        <ele>102.5200000</ele>
        <time>2010-08-14T10:32:41Z</time>
      </trkpt>
      <trkpt lat="51.1681720" lon="7.1365600">
        <ele>102.0400000</ele>
        <time>2010-08-14T10:32:47Z</time>
      </trkpt>
      <trkpt lat="51.1691090" lon="7.1375640">
        <ele>102.5200000</ele>
        <time>2010-08-14T10:32:54Z</time>
      </trkpt>
      <trkpt lat="51.1702120" lon="7.1389110">
        <ele>104.4400000</ele>
        <time>2010-08-14T10:33:00Z</time>
      </trkpt>
      <trkpt lat="51.1717110" lon="7.1408490">
        <ele>107.8100000</ele>
        <time>2010-08-14T10:33:09Z</time>
      </trkpt>
      <trkpt lat="51.1725710" lon="7.1426650">
        <ele>110.2100000</ele>
        <time>2010-08-14T10:33:15Z</time>
      </trkpt>
      <trkpt lat="51.1733230" lon="7.1444040">
        <ele>113.0900000</ele>
        <time>2010-08-14T10:33:22Z</time>
      </trkpt>
      <trkpt lat="51.1733850" lon="7.1446030">
        <ele>112.6100000</ele>
        <time>2010-08-14T10:33:23Z</time>
      </trkpt>
      <trkpt lat="51.1734350" lon="7.1448120">
        <ele>112.6100000</ele>
        <time>2010-08-14T10:33:24Z</time>
      </trkpt>
      <trkpt lat="51.1734520" lon="7.1450440">
        <ele>113.0900000</ele>
        <time>2010-08-14T10:33:25Z</time>
      </trkpt>
      <trkpt lat="51.1734390" lon="7.1452950">
        <ele>113.5700000</ele>
        <time>2010-08-14T10:33:26Z</time>
      </trkpt>
      <trkpt lat="51.1733770" lon="7.1455580">
        <ele>113.5700000</ele>
        <time>2010-08-14T10:33:27Z</time>
      </trkpt>
      <trkpt lat="51.1732900" lon="7.1458250">
        <ele>114.0500000</ele>
        <time>2010-08-14T10:33:28Z</time>
      </trkpt>
      <trkpt lat="51.1732080" lon="7.1460720">
        <ele>114.5300000</ele>
        <time>2010-08-14T10:33:29Z</time>
      </trkpt>
      <trkpt lat="51.1725410" lon="7.1476280">
        <ele>116.9400000</ele>
        <time>2010-08-14T10:33:36Z</time>
      </trkpt>
      <trkpt lat="51.1725870" lon="7.1478720">
        <ele>115.9800000</ele>
        <time>2010-08-14T10:33:37Z</time>
      </trkpt>
      <trkpt lat="51.1727080" lon="7.1480820">
        <ele>116.9400000</ele>
        <time>2010-08-14T10:33:38Z</time>
      </trkpt>
      <trkpt lat="51.1728320" lon="7.1482520">
        <ele>117.9000000</ele>
        <time>2010-08-14T10:33:39Z</time>
      </trkpt>
      <trkpt lat="51.1730060" lon="7.1484080">
        <ele>118.3800000</ele>
        <time>2010-08-14T10:33:40Z</time>
      </trkpt>
      <trkpt lat="51.1732080" lon="7.1485730">
        <ele>118.3800000</ele>
        <time>2010-08-14T10:33:41Z</time>
      </trkpt>
      <trkpt lat="51.1733850" lon="7.1487770">
        <ele>118.8600000</ele>
        <time>2010-08-14T10:33:42Z</time>
      </trkpt>
      <trkpt lat="51.1735440" lon="7.1490010">
        <ele>118.8600000</ele>
        <time>2010-08-14T10:33:43Z</time>
      </trkpt>
      <trkpt lat="51.1736840" lon="7.1492520">
        <ele>118.8600000</ele>
        <time>2010-08-14T10:33:44Z</time>
      </trkpt>
      <trkpt lat="51.1738160" lon="7.1495160">
        <ele>118.3800000</ele>
        <time>2010-08-14T10:33:45Z</time>
      </trkpt>
      <trkpt lat="51.1739250" lon="7.1498080">
        <ele>118.8600000</ele>
        <time>2010-08-14T10:33:46Z</time>
      </trkpt>
      <trkpt lat="51.1740230" lon="7.1500990">
        <ele>118.8600000</ele>
        <time>2010-08-14T10:33:47Z</time>
      </trkpt>
      <trkpt lat="51.1741210" lon="7.1503730">
        <ele>118.3800000</ele>
        <time>2010-08-14T10:33:48Z</time>
      </trkpt>
      <trkpt lat="51.1745640" lon="7.1511020">
        <ele>117.4200000</ele>
        <time>2010-08-14T10:33:52Z</time>
      </trkpt>
      <trkpt lat="51.1747110" lon="7.1512360">
        <ele>117.9000000</ele>
        <time>2010-08-14T10:33:53Z</time>
      </trkpt>
      <trkpt lat="51.1749120" lon="7.1513110">
        <ele>117.4200000</ele>
        <time>2010-08-14T10:33:54Z</time>
      </trkpt>
      <trkpt lat="51.1751140" lon="7.1513920">
        <ele>116.9400000</ele>
        <time>2010-08-14T10:33:55Z</time>
      </trkpt>
      <trkpt lat="51.1752900" lon="7.1514940">
        <ele>117.9000000</ele>
        <time>2010-08-14T10:33:56Z</time>
      </trkpt>
      <trkpt lat="51.1767030" lon="7.1520420">
        <ele>118.8600000</ele>
        <time>2010-08-14T10:34:03Z</time>
      </trkpt>
      <trkpt lat="51.1769150" lon="7.1520290">
        <ele>118.8600000</ele>
        <time>2010-08-14T10:34:04Z</time>
      </trkpt>
      <trkpt lat="51.1771500" lon="7.1519620">
        <ele>118.8600000</ele>
        <time>2010-08-14T10:34:05Z</time>
      </trkpt>
      <trkpt lat="51.1794230" lon="7.1514110">
        <ele>124.1500000</ele>
        <time>2010-08-14T10:34:15Z</time>
      </trkpt>
      <trkpt lat="51.1805090" lon="7.1511470">
        <ele>125.1100000</ele>
        <time>2010-08-14T10:34:20Z</time>
      </trkpt>
      <trkpt lat="51.1807000" lon="7.1510310">
        <ele>125.5900000</ele>
        <time>2010-08-14T10:34:21Z</time>
      </trkpt>
      <trkpt lat="51.1808890" lon="7.1508930">
        <ele>126.0700000</ele>
        <time>2010-08-14T10:34:22Z</time>
      </trkpt>
      <trkpt lat="51.1819190" lon="7.1499130">
        <ele>131.8400000</ele>
        <time>2010-08-14T10:34:29Z</time>
      </trkpt>
      <trkpt lat="51.1820290" lon="7.1498590">
        <ele>132.3200000</ele>
        <time>2010-08-14T10:34:30Z</time>
      </trkpt>
      <trkpt lat="51.1821140" lon="7.1498140">
        <ele>132.8000000</ele>
        <time>2010-08-14T10:34:31Z</time>
      </trkpt>
      <trkpt lat="51.1821890" lon="7.1498160">
        <ele>132.8000000</ele>
        <time>2010-08-14T10:34:32Z</time>
      </trkpt>
      <trkpt lat="51.1822530" lon="7.1498120">
        <ele>133.2800000</ele>
        <time>2010-08-14T10:34:33Z</time>
      </trkpt>
      <trkpt lat="51.1823170" lon="7.1498020">
        <ele>132.8000000</ele>
        <time>2010-08-14T10:34:34Z</time>
      </trkpt>
      <trkpt lat="51.1830930" lon="7.1493760">
        <ele>136.6400000</ele>
        <time>2010-08-14T10:34:41Z</time>
      </trkpt>
      <trkpt lat="51.1842060" lon="7.1486180">
        <ele>140.0100000</ele>
        <time>2010-08-14T10:34:46Z</time>
      </trkpt>
      <trkpt lat="51.1857720" lon="7.1472370">
        <ele>139.5300000</ele>
        <time>2010-08-14T10:34:54Z</time>
      </trkpt>
      <trkpt lat="51.1873030" lon="7.1455180">
        <ele>135.6800000</ele>
        <time>2010-08-14T10:35:03Z</time>
      </trkpt>
      <trkpt lat="51.1883100" lon="7.1437450">
        <ele>137.1300000</ele>
        <time>2010-08-14T10:35:11Z</time>
      </trkpt>
      <trkpt lat="51.1888620" lon="7.1425180">
        <ele>137.1300000</ele>
        <time>2010-08-14T10:35:16Z</time>
      </trkpt>
      <trkpt lat="51.1890320" lon="7.1423200">
        <ele>137.6100000</ele>
        <time>2010-08-14T10:35:17Z</time>
      </trkpt>
      <trkpt lat="51.1892070" lon="7.1421520">
        <ele>136.6400000</ele>
        <time>2010-08-14T10:35:18Z</time>
      </trkpt>
      <trkpt lat="51.1894120" lon="7.1420680">
        <ele>136.1600000</ele>
        <time>2010-08-14T10:35:19Z</time>
      </trkpt>
      <trkpt lat="51.1896030" lon="7.1419880">
        <ele>135.2000000</ele>
        <time>2010-08-14T10:35:20Z</time>
      </trkpt>
      <trkpt lat="51.1897920" lon="7.1419660">
        <ele>134.2400000</ele>
        <time>2010-08-14T10:35:21Z</time>
      </trkpt>
      <trkpt lat="51.1899770" lon="7.1420110">
        <ele>134.2400000</ele>
        <time>2010-08-14T10:35:22Z</time>
      </trkpt>
      <trkpt lat="51.1901590" lon="7.1420910">
        <ele>133.2800000</ele>
        <time>2010-08-14T10:35:23Z</time>
      </trkpt>
      <trkpt lat="51.1903370" lon="7.1422060">
        <ele>132.3200000</ele>
        <time>2010-08-14T10:35:24Z</time>
      </trkpt>
      <trkpt lat="51.1905210" lon="7.1423580">
        <ele>131.8400000</ele>
        <time>2010-08-14T10:35:25Z</time>
      </trkpt>
      <trkpt lat="51.1906860" lon="7.1425730">
        <ele>133.7600000</ele>
        <time>2010-08-14T10:35:26Z</time>
      </trkpt>
      <trkpt lat="51.1908430" lon="7.1428050">
        <ele>134.7200000</ele>
        <time>2010-08-14T10:35:27Z</time>
      </trkpt>
      <trkpt lat="51.1909940" lon="7.1430370">
        <ele>134.7200000</ele>
        <time>2010-08-14T10:35:28Z</time>
      </trkpt>
      <trkpt lat="51.1911170" lon="7.1432840">
        <ele>134.7200000</ele>
        <time>2010-08-14T10:35:29Z</time>
      </trkpt>
      <trkpt lat="51.1912250" lon="7.1435400">
        <ele>135.2000000</ele>
        <time>2010-08-14T10:35:30Z</time>
      </trkpt>
      <trkpt lat="51.1912990" lon="7.1438390">
        <ele>135.6800000</ele>
        <time>2010-08-14T10:35:31Z</time>
      </trkpt>
      <trkpt lat="51.1913320" lon="7.1441490">
        <ele>135.6800000</ele>
        <time>2010-08-14T10:35:32Z</time>
      </trkpt>
      <trkpt lat="51.1913430" lon="7.1444970">
        <ele>136.1600000</ele>
        <time>2010-08-14T10:35:33Z</time>
      </trkpt>
      <trkpt lat="51.1913480" lon="7.1448490">
        <ele>137.1300000</ele>
        <time>2010-08-14T10:35:34Z</time>
      </trkpt>
      <trkpt lat="51.1913380" lon="7.1452170">
        <ele>136.6400000</ele>
        <time>2010-08-14T10:35:35Z</time>
      </trkpt>
      <trkpt lat="51.1913220" lon="7.1456010">
        <ele>137.1300000</ele>
        <time>2010-08-14T10:35:36Z</time>
      </trkpt>
      <trkpt lat="51.1913020" lon="7.1474620">
        <ele>138.0900000</ele>
        <time>2010-08-14T10:35:42Z</time>
      </trkpt>
      <trkpt lat="51.1913480" lon="7.1477250">
        <ele>137.6100000</ele>
        <time>2010-08-14T10:35:43Z</time>
      </trkpt>
      <trkpt lat="51.1914230" lon="7.1480020">
        <ele>138.0900000</ele>
        <time>2010-08-14T10:35:44Z</time>
      </trkpt>
      <trkpt lat="51.1915460" lon="7.1482570">
        <ele>138.5700000</ele>
        <time>2010-08-14T10:35:45Z</time>
      </trkpt>
      <trkpt lat="51.1916770" lon="7.1484850">
        <ele>139.5300000</ele>
        <time>2010-08-14T10:35:46Z</time>
      </trkpt>
      <trkpt lat="51.1918400" lon="7.1486480">
        <ele>140.0100000</ele>
        <time>2010-08-14T10:35:47Z</time>
      </trkpt>
      <trkpt lat="51.1920090" lon="7.1487550">
        <ele>140.0100000</ele>
        <time>2010-08-14T10:35:48Z</time>
      </trkpt>
      <trkpt lat="51.1921730" lon="7.1488450">
        <ele>140.0100000</ele>
        <time>2010-08-14T10:35:49Z</time>
      </trkpt>
      <trkpt lat="51.1923380" lon="7.1489240">
        <ele>140.0100000</ele>
        <time>2010-08-14T10:35:50Z</time>
      </trkpt>
      <trkpt lat="51.1931720" lon="7.1497130">
        <ele>142.4100000</ele>
        <time>2010-08-14T10:35:57Z</time>
      </trkpt>
      <trkpt lat="51.1932500" lon="7.1498510">
        <ele>142.4100000</ele>
        <time>2010-08-14T10:35:58Z</time>
      </trkpt>
      <trkpt lat="51.1933050" lon="7.1500160">
        <ele>142.4100000</ele>
        <time>2010-08-14T10:35:59Z</time>
      </trkpt>
      <trkpt lat="51.1933490" lon="7.1501990">
        <ele>142.8900000</ele>
        <time>2010-08-14T10:36:00Z</time>
      </trkpt>
      <trkpt lat="51.1933820" lon="7.1503700">
        <ele>142.8900000</ele>
        <time>2010-08-14T10:36:01Z</time>
      </trkpt>
      <trkpt lat="51.1933840" lon="7.1505430">
        <ele>142.4100000</ele>
        <time>2010-08-14T10:36:02Z</time>
      </trkpt>
      <trkpt lat="51.1933810" lon="7.1507380">
        <ele>141.9300000</ele>
        <time>2010-08-14T10:36:03Z</time>
      </trkpt>
      <trkpt lat="51.1933750" lon="7.1509250">
        <ele>141.4500000</ele>
        <time>2010-08-14T10:36:04Z</time>
      </trkpt>
      <trkpt lat="51.1933600" lon="7.1511040">
        <ele>140.9700000</ele>
        <time>2010-08-14T10:36:05Z</time>
      </trkpt>
      <trkpt lat="51.1933330" lon="7.1512790">
        <ele>140.9700000</ele>
        <time>2010-08-14T10:36:06Z</time>
      </trkpt>
      <trkpt lat="51.1932910" lon="7.1514530">
        <ele>140.9700000</ele>
        <time>2010-08-14T10:36:07Z</time>
      </trkpt>
      <trkpt lat="51.1932400" lon="7.1516200">
        <ele>141.4500000</ele>
        <time>2010-08-14T10:36:08Z</time>
      </trkpt>
      <trkpt lat="51.1931850" lon="7.1517820">
        <ele>141.4500000</ele>
        <time>2010-08-14T10:36:09Z</time>
      </trkpt>
      <trkpt lat="51.1931230" lon="7.1519370">
        <ele>141.9300000</ele>
        <time>2010-08-14T10:36:10Z</time>
      </trkpt>
      <trkpt lat="51.1929290" lon="7.1523780">
        <ele>142.4100000</ele>
        <time>2010-08-14T10:36:13Z</time>
      </trkpt>
      <trkpt lat="51.1928790" lon="7.1525410">
        <ele>142.8900000</ele>
        <time>2010-08-14T10:36:14Z</time>
      </trkpt>
      <trkpt lat="51.1928410" lon="7.1527100">
        <ele>143.3700000</ele>
        <time>2010-08-14T10:36:15Z</time>
      </trkpt>
      <trkpt lat="51.1928190" lon="7.1528790">
        <ele>143.3700000</ele>
        <time>2010-08-14T10:36:16Z</time>
      </trkpt>
      <trkpt lat="51.1928180" lon="7.1530430">
        <ele>143.3700000</ele>
        <time>2010-08-14T10:36:17Z</time>
      </trkpt>
      <trkpt lat="51.1928320" lon="7.1532070">
        <ele>143.8500000</ele>
        <time>2010-08-14T10:36:18Z</time>
      </trkpt>
      <trkpt lat="51.1928660" lon="7.1533670">
        <ele>143.8500000</ele>
        <time>2010-08-14T10:36:19Z</time>
      </trkpt>
      <trkpt lat="51.1929170" lon="7.1535250">
        <ele>143.3700000</ele>
        <time>2010-08-14T10:36:20Z</time>
      </trkpt>
      <trkpt lat="51.1929730" lon="7.1536810">
        <ele>143.3700000</ele>
        <time>2010-08-14T10:36:21Z</time>
      </trkpt>
      <trkpt lat="51.1930410" lon="7.1538280">
        <ele>143.8500000</ele>
        <time>2010-08-14T10:36:22Z</time>
      </trkpt>
      <trkpt lat="51.1932870" lon="7.1543170">
        <ele>143.8500000</ele>
        <time>2010-08-14T10:36:25Z</time>
      </trkpt>
      <trkpt lat="51.1939960" lon="7.1551740">
        <ele>145.7800000</ele>
        <time>2010-08-14T10:36:29Z</time>
      </trkpt>
      <trkpt lat="51.1953970" lon="7.1566210">
        <ele>150.1000000</ele>
        <time>2010-08-14T10:36:36Z</time>
      </trkpt>
      <trkpt lat="51.1972450" lon="7.1583610">
        <ele>156.3500000</ele>
        <time>2010-08-14T10:36:46Z</time>
      </trkpt>
      <trkpt lat="51.1987800" lon="7.1588690">
        <ele>159.7200000</ele>
        <time>2010-08-14T10:36:53Z</time>
      </trkpt>
      <trkpt lat="51.1995860" lon="7.1589760">
        <ele>162.6000000</ele>
        <time>2010-08-14T10:36:58Z</time>
      </trkpt>
      <trkpt lat="51.1997210" lon="7.1590660">
        <ele>162.6000000</ele>
        <time>2010-08-14T10:36:59Z</time>
      </trkpt>
      <trkpt lat="51.2002960" lon="7.1595490">
        <ele>162.6000000</ele>
        <time>2010-08-14T10:37:04Z</time>
      </trkpt>
      <trkpt lat="51.2003510" lon="7.1596360">
        <ele>162.1200000</ele>
        <time>2010-08-14T10:37:05Z</time>
      </trkpt>
      <trkpt lat="51.2003920" lon="7.1597200">
        <ele>161.6400000</ele>
        <time>2010-08-14T10:37:06Z</time>
      </trkpt>
      <trkpt lat="51.2003980" lon="7.1597920">
        <ele>161.6400000</ele>
        <time>2010-08-14T10:37:07Z</time>
      </trkpt>
      <trkpt lat="51.2004140" lon="7.1598210">
        <ele>161.6400000</ele>
        <time>2010-08-14T10:37:08Z</time>
      </trkpt>
      <trkpt lat="51.2004390" lon="7.1597950">
        <ele>164.5200000</ele>
        <time>2010-08-14T10:37:20Z</time>
      </trkpt>
      <trkpt lat="51.2005610" lon="7.1601600">
        <ele>163.0800000</ele>
        <time>2010-08-14T10:38:13Z</time>
      </trkpt>
      <trkpt lat="51.2008830" lon="7.1614190">
        <ele>161.6400000</ele>
        <time>2010-08-14T10:38:18Z</time>
      </trkpt>
      <trkpt lat="51.2016860" lon="7.1656740">
        <ele>161.1600000</ele>
        <time>2010-08-14T10:38:32Z</time>
      </trkpt>
      <trkpt lat="51.2020440" lon="7.1666600">
        <ele>162.1200000</ele>
        <time>2010-08-14T10:38:36Z</time>
      </trkpt>
      <trkpt lat="51.2022090" lon="7.1668570">
        <ele>162.6000000</ele>
        <time>2010-08-14T10:38:37Z</time>
      </trkpt>
      <trkpt lat="51.2023750" lon="7.1670660">
        <ele>163.0800000</ele>
        <time>2010-08-14T10:38:38Z</time>
      </trkpt>
      <trkpt lat="51.2030450" lon="7.1682410">
        <ele>164.0400000</ele>
        <time>2010-08-14T10:38:43Z</time>
      </trkpt>
      <trkpt lat="51.2031450" lon="7.1685760">
        <ele>164.5200000</ele>
        <time>2010-08-14T10:38:44Z</time>
      </trkpt>
      <trkpt lat="51.2032480" lon="7.1689320">
        <ele>165.0000000</ele>
        <time>2010-08-14T10:38:45Z</time>
      </trkpt>
      <trkpt lat="51.2040600" lon="7.1716390">
        <ele>167.4100000</ele>
        <time>2010-08-14T10:38:53Z</time>
      </trkpt>
      <trkpt lat="51.2041820" lon="7.1718840">
        <ele>167.8900000</ele>
        <time>2010-08-14T10:38:54Z</time>
      </trkpt>
      <trkpt lat="51.2043100" lon="7.1721050">
        <ele>168.3700000</ele>
        <time>2010-08-14T10:38:55Z</time>
      </trkpt>
      <trkpt lat="51.2044690" lon="7.1722900">
        <ele>168.8500000</ele>
        <time>2010-08-14T10:38:56Z</time>
      </trkpt>
      <trkpt lat="51.2046500" lon="7.1724380">
        <ele>169.3300000</ele>
        <time>2010-08-14T10:38:57Z</time>
      </trkpt>
      <trkpt lat="51.2048370" lon="7.1725600">
        <ele>169.8100000</ele>
        <time>2010-08-14T10:38:58Z</time>
      </trkpt>
      <trkpt lat="51.2050400" lon="7.1726440">
        <ele>169.8100000</ele>
        <time>2010-08-14T10:38:59Z</time>
      </trkpt>
      <trkpt lat="51.2052540" lon="7.1727440">
        <ele>170.2900000</ele>
        <time>2010-08-14T10:39:00Z</time>
      </trkpt>
      <trkpt lat="51.2057550" lon="7.1731360">
        <ele>170.2900000</ele>
        <time>2010-08-14T10:39:03Z</time>
      </trkpt>
      <trkpt lat="51.2058760" lon="7.1733450">
        <ele>169.8100000</ele>
        <time>2010-08-14T10:39:04Z</time>
      </trkpt>
      <trkpt lat="51.2059720" lon="7.1735960">
        <ele>169.3300000</ele>
        <time>2010-08-14T10:39:05Z</time>
      </trkpt>
      <trkpt lat="51.2060490" lon="7.1738790">
        <ele>168.3700000</ele>
        <time>2010-08-14T10:39:06Z</time>
      </trkpt>
      <trkpt lat="51.2060740" lon="7.1741920">
        <ele>168.3700000</ele>
        <time>2010-08-14T10:39:07Z</time>
      </trkpt>
      <trkpt lat="51.2060330" lon="7.1745400">
        <ele>168.8500000</ele>
        <time>2010-08-14T10:39:08Z</time>
      </trkpt>
      <trkpt lat="51.2059850" lon="7.1749670">
        <ele>169.3300000</ele>
        <time>2010-08-14T10:39:09Z</time>
      </trkpt>
      <trkpt lat="51.2059460" lon="7.1752920">
        <ele>168.3700000</ele>
        <time>2010-08-14T10:39:10Z</time>
      </trkpt>
      <trkpt lat="51.2058320" lon="7.1755220">
        <ele>169.3300000</ele>
        <time>2010-08-14T10:39:11Z</time>
      </trkpt>
      <trkpt lat="51.2057310" lon="7.1757940">
        <ele>169.8100000</ele>
        <time>2010-08-14T10:39:12Z</time>
      </trkpt>
      <trkpt lat="51.2055800" lon="7.1759920">
        <ele>169.3300000</ele>
        <time>2010-08-14T10:39:13Z</time>
      </trkpt>
      <trkpt lat="51.2054170" lon="7.1761430">
        <ele>169.8100000</ele>
        <time>2010-08-14T10:39:14Z</time>
      </trkpt>
      <trkpt lat="51.2052540" lon="7.1762670">
        <ele>169.8100000</ele>
        <time>2010-08-14T10:39:15Z</time>
      </trkpt>
      <trkpt lat="51.2050440" lon="7.1763270">
        <ele>170.7700000</ele>
        <time>2010-08-14T10:39:16Z</time>
      </trkpt>
      <trkpt lat="51.2048290" lon="7.1763570">
        <ele>172.2100000</ele>
        <time>2010-08-14T10:39:17Z</time>
      </trkpt>
      <trkpt lat="51.2046310" lon="7.1765100">
        <ele>173.6600000</ele>
        <time>2010-08-14T10:39:18Z</time>
      </trkpt>
      <trkpt lat="51.2044000" lon="7.1765290">
        <ele>176.5400000</ele>
        <time>2010-08-14T10:39:19Z</time>
      </trkpt>
      <trkpt lat="51.2041610" lon="7.1765210">
        <ele>176.0600000</ele>
        <time>2010-08-14T10:39:20Z</time>
      </trkpt>
      <trkpt lat="51.2039160" lon="7.1764750">
        <ele>176.5400000</ele>
        <time>2010-08-14T10:39:21Z</time>
      </trkpt>
      <trkpt lat="51.2036960" lon="7.1764200">
        <ele>175.5800000</ele>
        <time>2010-08-14T10:39:22Z</time>
      </trkpt>
      <trkpt lat="51.2034810" lon="7.1763570">
        <ele>175.1000000</ele>
        <time>2010-08-14T10:39:23Z</time>
      </trkpt>
      <trkpt lat="51.2026690" lon="7.1762630">
        <ele>175.5800000</ele>
        <time>2010-08-14T10:39:27Z</time>
      </trkpt>
      <trkpt lat="51.2024630" lon="7.1763370">
        <ele>176.5400000</ele>
        <time>2010-08-14T10:39:28Z</time>
      </trkpt>
      <trkpt lat="51.2012640" lon="7.1767620">
        <ele>177.0200000</ele>
        <time>2010-08-14T10:39:35Z</time>
      </trkpt>
      <trkpt lat="51.2005790" lon="7.1770160">
        <ele>177.0200000</ele>
        <time>2010-08-14T10:39:40Z</time>
      </trkpt>
      <trkpt lat="51.2004560" lon="7.1770950">
        <ele>177.0200000</ele>
        <time>2010-08-14T10:39:41Z</time>
      </trkpt>
      <trkpt lat="51.2003450" lon="7.1771990">
        <ele>177.0200000</ele>
        <time>2010-08-14T10:39:42Z</time>
      </trkpt>
      <trkpt lat="51.2002470" lon="7.1773160">
        <ele>177.0200000</ele>
        <time>2010-08-14T10:39:43Z</time>
      </trkpt>
      <trkpt lat="51.2001650" lon="7.1774440">
        <ele>177.0200000</ele>
        <time>2010-08-14T10:39:44Z</time>
      </trkpt>
      <trkpt lat="51.2000930" lon="7.1775820">
        <ele>176.5400000</ele>
        <time>2010-08-14T10:39:45Z</time>
      </trkpt>
      <trkpt lat="51.2000330" lon="7.1777390">
        <ele>176.0600000</ele>
        <time>2010-08-14T10:39:46Z</time>
      </trkpt>
      <trkpt lat="51.2000140" lon="7.1779340">
        <ele>175.5800000</ele>
        <time>2010-08-14T10:39:47Z</time>
      </trkpt>
      <trkpt lat="51.1999990" lon="7.1781450">
        <ele>176.0600000</ele>
        <time>2010-08-14T10:39:48Z</time>
      </trkpt>
      <trkpt lat="51.1999930" lon="7.1783750">
        <ele>175.5800000</ele>
        <time>2010-08-14T10:39:49Z</time>
      </trkpt>
      <trkpt lat="51.2000030" lon="7.1786260">
        <ele>176.0600000</ele>
        <time>2010-08-14T10:39:50Z</time>
      </trkpt>
      <trkpt lat="51.2000210" lon="7.1788800">
        <ele>176.0600000</ele>
        <time>2010-08-14T10:39:51Z</time>
      </trkpt>
      <trkpt lat="51.2000610" lon="7.1791250">
        <ele>176.0600000</ele>
        <time>2010-08-14T10:39:52Z</time>
      </trkpt>
      <trkpt lat="51.2001180" lon="7.1793510">
        <ele>176.0600000</ele>
        <time>2010-08-14T10:39:53Z</time>
      </trkpt>
      <trkpt lat="51.2001820" lon="7.1795670">
        <ele>176.5400000</ele>
        <time>2010-08-14T10:39:54Z</time>
      </trkpt>
      <trkpt lat="51.2002750" lon="7.1797570">
        <ele>177.0200000</ele>
        <time>2010-08-14T10:39:55Z</time>
      </trkpt>
      <trkpt lat="51.2003670" lon="7.1799410">
        <ele>177.9800000</ele>
        <time>2010-08-14T10:39:56Z</time>
      </trkpt>
      <trkpt lat="51.2008770" lon="7.1809330">
        <ele>180.3800000</ele>
        <time>2010-08-14T10:40:02Z</time>
      </trkpt>
      <trkpt lat="51.2009070" lon="7.1811390">
        <ele>180.8700000</ele>
        <time>2010-08-14T10:40:03Z</time>
      </trkpt>
      <trkpt lat="51.2008540" lon="7.1814030">
        <ele>180.8700000</ele>
        <time>2010-08-14T10:40:04Z</time>
      </trkpt>
      <trkpt lat="51.2008490" lon="7.1835380">
        <ele>183.7500000</ele>
        <time>2010-08-14T10:40:14Z</time>
      </trkpt>
      <trkpt lat="51.2005310" lon="7.1849040">
        <ele>182.7900000</ele>
        <time>2010-08-14T10:40:21Z</time>
      </trkpt>
      <trkpt lat="51.2004500" lon="7.1850720">
        <ele>182.3100000</ele>
        <time>2010-08-14T10:40:22Z</time>
      </trkpt>
      <trkpt lat="51.1994290" lon="7.1864930">
        <ele>182.3100000</ele>
        <time>2010-08-14T10:40:31Z</time>
      </trkpt>
      <trkpt lat="51.1989290" lon="7.1871680">
        <ele>183.2700000</ele>
        <time>2010-08-14T10:40:35Z</time>
      </trkpt>
      <trkpt lat="51.1988550" lon="7.1873680">
        <ele>183.2700000</ele>
        <time>2010-08-14T10:40:36Z</time>
      </trkpt>
      <trkpt lat="51.1988180" lon="7.1875690">
        <ele>183.7500000</ele>
        <time>2010-08-14T10:40:37Z</time>
      </trkpt>
      <trkpt lat="51.1988170" lon="7.1877710">
        <ele>183.7500000</ele>
        <time>2010-08-14T10:40:38Z</time>
      </trkpt>
      <trkpt lat="51.1988390" lon="7.1879750">
        <ele>183.7500000</ele>
        <time>2010-08-14T10:40:39Z</time>
      </trkpt>
      <trkpt lat="51.1988630" lon="7.1881700">
        <ele>184.7100000</ele>
        <time>2010-08-14T10:40:40Z</time>
      </trkpt>
      <trkpt lat="51.1988800" lon="7.1883780">
        <ele>185.6700000</ele>
        <time>2010-08-14T10:40:41Z</time>
      </trkpt>
      <trkpt lat="51.1989090" lon="7.1885750">
        <ele>185.6700000</ele>
        <time>2010-08-14T10:40:42Z</time>
      </trkpt>
      <trkpt lat="51.1989800" lon="7.1887730">
        <ele>186.1500000</ele>
        <time>2010-08-14T10:40:43Z</time>
      </trkpt>
      <trkpt lat="51.1990120" lon="7.1889590">
        <ele>186.6300000</ele>
        <time>2010-08-14T10:40:44Z</time>
      </trkpt>
      <trkpt lat="51.1990780" lon="7.1891540">
        <ele>186.6300000</ele>
        <time>2010-08-14T10:40:45Z</time>
      </trkpt>
      <trkpt lat="51.1991890" lon="7.1893550">
        <ele>186.6300000</ele>
        <time>2010-08-14T10:40:46Z</time>
      </trkpt>
      <trkpt lat="51.1993200" lon="7.1895910">
        <ele>187.1100000</ele>
        <time>2010-08-14T10:40:47Z</time>
      </trkpt>
      <trkpt lat="51.2001510" lon="7.1912370">
        <ele>188.5600000</ele>
        <time>2010-08-14T10:40:53Z</time>
      </trkpt>
      <trkpt lat="51.2004830" lon="7.1921070">
        <ele>190.0000000</ele>
        <time>2010-08-14T10:40:57Z</time>
      </trkpt>
      <trkpt lat="51.2004430" lon="7.1924220">
        <ele>190.0000000</ele>
        <time>2010-08-14T10:40:58Z</time>
      </trkpt>
      <trkpt lat="51.2003820" lon="7.1927150">
        <ele>190.4800000</ele>
        <time>2010-08-14T10:40:59Z</time>
      </trkpt>
      <trkpt lat="51.2002910" lon="7.1930050">
        <ele>190.9600000</ele>
        <time>2010-08-14T10:41:00Z</time>
      </trkpt>
      <trkpt lat="51.2002100" lon="7.1932830">
        <ele>191.4400000</ele>
        <time>2010-08-14T10:41:01Z</time>
      </trkpt>
      <trkpt lat="51.2001100" lon="7.1935270">
        <ele>191.4400000</ele>
        <time>2010-08-14T10:41:02Z</time>
      </trkpt>
      <trkpt lat="51.1999660" lon="7.1937500">
        <ele>190.9600000</ele>
        <time>2010-08-14T10:41:03Z</time>
      </trkpt>
      <trkpt lat="51.1998140" lon="7.1939700">
        <ele>191.9200000</ele>
        <time>2010-08-14T10:41:04Z</time>
      </trkpt>
      <trkpt lat="51.1993470" lon="7.1946680">
        <ele>191.9200000</ele>
        <time>2010-08-14T10:41:08Z</time>
      </trkpt>
      <trkpt lat="51.1992830" lon="7.1948300">
        <ele>191.9200000</ele>
        <time>2010-08-14T10:41:09Z</time>
      </trkpt>
      <trkpt lat="51.1992470" lon="7.1949680">
        <ele>192.4000000</ele>
        <time>2010-08-14T10:41:10Z</time>
      </trkpt>
      <trkpt lat="51.1992200" lon="7.1950660">
        <ele>192.4000000</ele>
        <time>2010-08-14T10:41:11Z</time>
      </trkpt>
      <trkpt lat="51.1991870" lon="7.1951350">
        <ele>191.9200000</ele>
        <time>2010-08-14T10:41:12Z</time>
      </trkpt>
      <trkpt lat="51.1991450" lon="7.1951300">
        <ele>191.9200000</ele>
        <time>2010-08-14T10:41:13Z</time>
      </trkpt>
      <trkpt lat="51.1991120" lon="7.1951060">
        <ele>191.9200000</ele>
        <time>2010-08-14T10:41:14Z</time>
      </trkpt>
      <trkpt lat="51.1990890" lon="7.1950320">
        <ele>191.9200000</ele>
        <time>2010-08-14T10:41:15Z</time>
      </trkpt>
      <trkpt lat="51.1990670" lon="7.1949300">
        <ele>191.4400000</ele>
        <time>2010-08-14T10:41:16Z</time>
      </trkpt>
      <trkpt lat="51.1990410" lon="7.1947940">
        <ele>191.9200000</ele>
        <time>2010-08-14T10:41:17Z</time>
      </trkpt>
      <trkpt lat="51.1987570" lon="7.1936990">
        <ele>191.9200000</ele>
        <time>2010-08-14T10:41:22Z</time>
      </trkpt>
      <trkpt lat="51.1984760" lon="7.1929990">
        <ele>192.4000000</ele>
        <time>2010-08-14T10:41:26Z</time>
      </trkpt>
      <trkpt lat="51.1983630" lon="7.1928540">
        <ele>192.8800000</ele>
        <time>2010-08-14T10:41:27Z</time>
      </trkpt>
      <trkpt lat="51.1982360" lon="7.1927300">
        <ele>193.8400000</ele>
        <time>2010-08-14T10:41:28Z</time>
      </trkpt>
      <trkpt lat="51.1975620" lon="7.1921840">
        <ele>200.5700000</ele>
        <time>2010-08-14T10:41:35Z</time>
      </trkpt>
      <trkpt lat="51.1974210" lon="7.1920320">
        <ele>202.9800000</ele>
        <time>2010-08-14T10:41:41Z</time>
      </trkpt>
      <trkpt lat="51.1973890" lon="7.1920260">
        <ele>203.4600000</ele>
        <time>2010-08-14T10:42:19Z</time>
      </trkpt>
      <trkpt lat="51.1973360" lon="7.1919970">
        <ele>203.9400000</ele>
        <time>2010-08-14T10:42:20Z</time>
      </trkpt>
      <trkpt lat="51.1972710" lon="7.1920030">
        <ele>203.9400000</ele>
        <time>2010-08-14T10:42:21Z</time>
      </trkpt>
      <trkpt lat="51.1971820" lon="7.1920820">
        <ele>203.9400000</ele>
        <time>2010-08-14T10:42:22Z</time>
      </trkpt>
      <trkpt lat="51.1970850" lon="7.1922190">
        <ele>203.9400000</ele>
        <time>2010-08-14T10:42:23Z</time>
      </trkpt>
      <trkpt lat="51.1969470" lon="7.1923380">
        <ele>203.9400000</ele>
        <time>2010-08-14T10:42:24Z</time>
      </trkpt>
      <trkpt lat="51.1968160" lon="7.1924570">
        <ele>203.4600000</ele>
        <time>2010-08-14T10:42:25Z</time>
      </trkpt>
      <trkpt lat="51.1966820" lon="7.1925660">
        <ele>202.4900000</ele>
        <time>2010-08-14T10:42:26Z</time>
      </trkpt>
      <trkpt lat="51.1953070" lon="7.1936990">
        <ele>202.0100000</ele>
        <time>2010-08-14T10:42:37Z</time>
      </trkpt>
      <trkpt lat="51.1951880" lon="7.1938140">
        <ele>202.4900000</ele>
        <time>2010-08-14T10:42:38Z</time>
      </trkpt>
      <trkpt lat="51.1950730" lon="7.1939520">
        <ele>202.9800000</ele>
        <time>2010-08-14T10:42:39Z</time>
      </trkpt>
      <trkpt lat="51.1950160" lon="7.1941410">
        <ele>202.9800000</ele>
        <time>2010-08-14T10:42:40Z</time>
      </trkpt>
      <trkpt lat="51.1949500" lon="7.1943630">
        <ele>203.4600000</ele>
        <time>2010-08-14T10:42:41Z</time>
      </trkpt>
      <trkpt lat="51.1948910" lon="7.1945650">
        <ele>202.9800000</ele>
        <time>2010-08-14T10:42:42Z</time>
      </trkpt>
      <trkpt lat="51.1949060" lon="7.1948400">
        <ele>202.9800000</ele>
        <time>2010-08-14T10:42:43Z</time>
      </trkpt>
      <trkpt lat="51.1949030" lon="7.1951480">
        <ele>202.0100000</ele>
        <time>2010-08-14T10:42:44Z</time>
      </trkpt>
      <trkpt lat="51.1949430" lon="7.1954680">
        <ele>202.0100000</ele>
        <time>2010-08-14T10:42:45Z</time>
      </trkpt>
      <trkpt lat="51.1949860" lon="7.1958070">
        <ele>202.0100000</ele>
        <time>2010-08-14T10:42:46Z</time>
      </trkpt>
      <trkpt lat="51.1950130" lon="7.1961430">
        <ele>202.0100000</ele>
        <time>2010-08-14T10:42:47Z</time>
      </trkpt>
      <trkpt lat="51.1950150" lon="7.1964870">
        <ele>202.0100000</ele>
        <time>2010-08-14T10:42:48Z</time>
      </trkpt>
      <trkpt lat="51.1950010" lon="7.1968180">
        <ele>202.9800000</ele>
        <time>2010-08-14T10:42:49Z</time>
      </trkpt>
      <trkpt lat="51.1949590" lon="7.1973270">
        <ele>204.9000000</ele>
        <time>2010-08-14T10:42:51Z</time>
      </trkpt>
      <trkpt lat="51.1949190" lon="7.1975350">
        <ele>205.3800000</ele>
        <time>2010-08-14T10:42:52Z</time>
      </trkpt>
      <trkpt lat="51.1948670" lon="7.1977180">
        <ele>205.8600000</ele>
        <time>2010-08-14T10:42:53Z</time>
      </trkpt>
      <trkpt lat="51.1948080" lon="7.1978450">
        <ele>206.8200000</ele>
        <time>2010-08-14T10:42:54Z</time>
      </trkpt>
      <trkpt lat="51.1947130" lon="7.1979680">
        <ele>207.3000000</ele>
        <time>2010-08-14T10:42:55Z</time>
      </trkpt>
      <trkpt lat="51.1945830" lon="7.1980190">
        <ele>207.7800000</ele>
        <time>2010-08-14T10:42:56Z</time>
      </trkpt>
      <trkpt lat="51.1944360" lon="7.1980010">
        <ele>207.7800000</ele>
        <time>2010-08-14T10:42:57Z</time>
      </trkpt>
      <trkpt lat="51.1942790" lon="7.1979660">
        <ele>208.7400000</ele>
        <time>2010-08-14T10:42:58Z</time>
      </trkpt>
      <trkpt lat="51.1941270" lon="7.1978820">
        <ele>209.2200000</ele>
        <time>2010-08-14T10:42:59Z</time>
      </trkpt>
      <trkpt lat="51.1939630" lon="7.1978080">
        <ele>210.6700000</ele>
        <time>2010-08-14T10:43:00Z</time>
      </trkpt>
      <trkpt lat="51.1937830" lon="7.1977170">
        <ele>211.6300000</ele>
        <time>2010-08-14T10:43:01Z</time>
      </trkpt>
      <trkpt lat="51.1926720" lon="7.1975670">
        <ele>216.9100000</ele>
        <time>2010-08-14T10:43:08Z</time>
      </trkpt>
      <trkpt lat="51.1923520" lon="7.1976340">
        <ele>218.3600000</ele>
        <time>2010-08-14T10:43:10Z</time>
      </trkpt>
      <trkpt lat="51.1921830" lon="7.1977260">
        <ele>219.8000000</ele>
        <time>2010-08-14T10:43:11Z</time>
      </trkpt>
      <trkpt lat="51.1909150" lon="7.1982630">
        <ele>227.0100000</ele>
        <time>2010-08-14T10:43:18Z</time>
      </trkpt>
      <trkpt lat="51.1904180" lon="7.1982820">
        <ele>229.4100000</ele>
        <time>2010-08-14T10:43:21Z</time>
      </trkpt>
      <trkpt lat="51.1902600" lon="7.1982390">
        <ele>230.3700000</ele>
        <time>2010-08-14T10:43:22Z</time>
      </trkpt>
      <trkpt lat="51.1900900" lon="7.1981430">
        <ele>230.8500000</ele>
        <time>2010-08-14T10:43:23Z</time>
      </trkpt>
      <trkpt lat="51.1899130" lon="7.1980180">
        <ele>232.7800000</ele>
        <time>2010-08-14T10:43:24Z</time>
      </trkpt>
      <trkpt lat="51.1897200" lon="7.1978810">
        <ele>233.7400000</ele>
        <time>2010-08-14T10:43:25Z</time>
      </trkpt>
      <trkpt lat="51.1885670" lon="7.1973250">
        <ele>238.5400000</ele>
        <time>2010-08-14T10:43:31Z</time>
      </trkpt>
      <trkpt lat="51.1871390" lon="7.1976310">
        <ele>248.1600000</ele>
        <time>2010-08-14T10:43:39Z</time>
      </trkpt>
      <trkpt lat="51.1867730" lon="7.1976470">
        <ele>249.6000000</ele>
        <time>2010-08-14T10:43:41Z</time>
      </trkpt>
      <trkpt lat="51.1865700" lon="7.1975890">
        <ele>250.5600000</ele>
        <time>2010-08-14T10:43:42Z</time>
      </trkpt>
      <trkpt lat="51.1863520" lon="7.1975070">
        <ele>252.0000000</ele>
        <time>2010-08-14T10:43:43Z</time>
      </trkpt>
      <trkpt lat="51.1852460" lon="7.1972490">
        <ele>259.2100000</ele>
        <time>2010-08-14T10:43:49Z</time>
      </trkpt>
      <trkpt lat="51.1851140" lon="7.1973260">
        <ele>260.1700000</ele>
        <time>2010-08-14T10:43:50Z</time>
      </trkpt>
      <trkpt lat="51.1850090" lon="7.1974670">
        <ele>261.6200000</ele>
        <time>2010-08-14T10:43:51Z</time>
      </trkpt>
      <trkpt lat="51.1848890" lon="7.1976900">
        <ele>263.0600000</ele>
        <time>2010-08-14T10:43:52Z</time>
      </trkpt>
      <trkpt lat="51.1847700" lon="7.1978600">
        <ele>263.5400000</ele>
        <time>2010-08-14T10:43:53Z</time>
      </trkpt>
      <trkpt lat="51.1846390" lon="7.1980840">
        <ele>264.5000000</ele>
        <time>2010-08-14T10:43:54Z</time>
      </trkpt>
      <trkpt lat="51.1834730" lon="7.1998050">
        <ele>275.5600000</ele>
        <time>2010-08-14T10:44:03Z</time>
      </trkpt>
      <trkpt lat="51.1831130" lon="7.2006400">
        <ele>278.4400000</ele>
        <time>2010-08-14T10:44:07Z</time>
      </trkpt>
      <trkpt lat="51.1830090" lon="7.2008050">
        <ele>279.4000000</ele>
        <time>2010-08-14T10:44:08Z</time>
      </trkpt>
      <trkpt lat="51.1828900" lon="7.2009010">
        <ele>279.8800000</ele>
        <time>2010-08-14T10:44:09Z</time>
      </trkpt>
      <trkpt lat="51.1827200" lon="7.2008890">
        <ele>281.3200000</ele>
        <time>2010-08-14T10:44:10Z</time>
      </trkpt>
      <trkpt lat="51.1825550" lon="7.2008750">
        <ele>281.8000000</ele>
        <time>2010-08-14T10:44:11Z</time>
      </trkpt>
      <trkpt lat="51.1824070" lon="7.2008780">
        <ele>282.2800000</ele>
        <time>2010-08-14T10:44:12Z</time>
      </trkpt>
      <trkpt lat="51.1817140" lon="7.2010980">
        <ele>285.1700000</ele>
        <time>2010-08-14T10:44:17Z</time>
      </trkpt>
      <trkpt lat="51.1804660" lon="7.2018740">
        <ele>290.9400000</ele>
        <time>2010-08-14T10:44:26Z</time>
      </trkpt>
      <trkpt lat="51.1788190" lon="7.2032730">
        <ele>298.6300000</ele>
        <time>2010-08-14T10:44:38Z</time>
      </trkpt>
      <trkpt lat="51.1784450" lon="7.2036190">
        <ele>297.6700000</ele>
        <time>2010-08-14T10:44:43Z</time>
      </trkpt>
      <trkpt lat="51.1784440" lon="7.2036220">
        <ele>297.6700000</ele>
        <time>2010-08-14T10:44:51Z</time>
      </trkpt>
      <trkpt lat="51.1782580" lon="7.2038400">
        <ele>297.1800000</ele>
        <time>2010-08-14T10:45:00Z</time>
      </trkpt>
      <trkpt lat="51.1778980" lon="7.2044110">
        <ele>298.1500000</ele>
        <time>2010-08-14T10:45:06Z</time>
      </trkpt>
      <trkpt lat="51.1771670" lon="7.2051830">
        <ele>299.1100000</ele>
        <time>2010-08-14T10:45:15Z</time>
      </trkpt>
      <trkpt lat="51.1768830" lon="7.2055470">
        <ele>298.1500000</ele>
        <time>2010-08-14T10:45:22Z</time>
      </trkpt>
      <trkpt lat="51.1768780" lon="7.2055610">
        <ele>297.6700000</ele>
        <time>2010-08-14T10:45:34Z</time>
      </trkpt>
      <trkpt lat="51.1766370" lon="7.2058270">
        <ele>298.1500000</ele>
        <time>2010-08-14T10:45:42Z</time>
      </trkpt>
      <trkpt lat="51.1759010" lon="7.2066060">
        <ele>301.0300000</ele>
        <time>2010-08-14T10:45:50Z</time>
      </trkpt>
      <trkpt lat="51.1749990" lon="7.2075110">
        <ele>304.8800000</ele>
        <time>2010-08-14T10:45:57Z</time>
      </trkpt>
      <trkpt lat="51.1738980" lon="7.2086080">
        <ele>317.3700000</ele>
        <time>2010-08-14T10:46:06Z</time>
      </trkpt>
      <trkpt lat="51.1738110" lon="7.2087530">
        <ele>318.3300000</ele>
        <time>2010-08-14T10:46:07Z</time>
      </trkpt>
      <trkpt lat="51.1737470" lon="7.2088960">
        <ele>318.8100000</ele>
        <time>2010-08-14T10:46:08Z</time>
      </trkpt>
      <trkpt lat="51.1737200" lon="7.2090390">
        <ele>319.7800000</ele>
        <time>2010-08-14T10:46:09Z</time>
      </trkpt>
      <trkpt lat="51.1737010" lon="7.2091770">
        <ele>320.2600000</ele>
        <time>2010-08-14T10:46:10Z</time>
      </trkpt>
      <trkpt lat="51.1736970" lon="7.2093110">
        <ele>320.2600000</ele>
        <time>2010-08-14T10:46:11Z</time>
      </trkpt>
      <trkpt lat="51.1737130" lon="7.2094380">
        <ele>320.2600000</ele>
        <time>2010-08-14T10:46:12Z</time>
      </trkpt>
      <trkpt lat="51.1737250" lon="7.2095660">
        <ele>320.7400000</ele>
        <time>2010-08-14T10:46:13Z</time>
      </trkpt>
      <trkpt lat="51.1737290" lon="7.2097020">
        <ele>320.7400000</ele>
        <time>2010-08-14T10:46:14Z</time>
      </trkpt>
      <trkpt lat="51.1738980" lon="7.2110110">
        <ele>322.6600000</ele>
        <time>2010-08-14T10:46:25Z</time>
      </trkpt>
      <trkpt lat="51.1741350" lon="7.2127730">
        <ele>326.5000000</ele>
        <time>2010-08-14T10:46:35Z</time>
      </trkpt>
      <trkpt lat="51.1744680" lon="7.2147940">
        <ele>325.5400000</ele>
        <time>2010-08-14T10:46:47Z</time>
      </trkpt>
      <trkpt lat="51.1744970" lon="7.2149280">
        <ele>326.0200000</ele>
        <time>2010-08-14T10:46:48Z</time>
      </trkpt>
      <trkpt lat="51.1745070" lon="7.2150690">
        <ele>326.0200000</ele>
        <time>2010-08-14T10:46:49Z</time>
      </trkpt>
      <trkpt lat="51.1745030" lon="7.2152120">
        <ele>326.0200000</ele>
        <time>2010-08-14T10:46:50Z</time>
      </trkpt>
      <trkpt lat="51.1745140" lon="7.2153600">
        <ele>326.9900000</ele>
        <time>2010-08-14T10:46:51Z</time>
      </trkpt>
      <trkpt lat="51.1744900" lon="7.2154790">
        <ele>327.9500000</ele>
        <time>2010-08-14T10:46:52Z</time>
      </trkpt>
      <trkpt lat="51.1744720" lon="7.2155850">
        <ele>328.4300000</ele>
        <time>2010-08-14T10:46:53Z</time>
      </trkpt>
      <trkpt lat="51.1743090" lon="7.2158880">
        <ele>327.9500000</ele>
        <time>2010-08-14T10:46:56Z</time>
      </trkpt>
      <trkpt lat="51.1742620" lon="7.2159810">
        <ele>328.4300000</ele>
        <time>2010-08-14T10:46:57Z</time>
      </trkpt>
      <trkpt lat="51.1742110" lon="7.2160520">
        <ele>328.4300000</ele>
        <time>2010-08-14T10:46:58Z</time>
      </trkpt>
      <trkpt lat="51.1741580" lon="7.2161020">
        <ele>328.4300000</ele>
        <time>2010-08-14T10:46:59Z</time>
      </trkpt>
      <trkpt lat="51.1741050" lon="7.2161410">
        <ele>328.4300000</ele>
        <time>2010-08-14T10:47:00Z</time>
      </trkpt>
      <trkpt lat="51.1740510" lon="7.2161760">
        <ele>328.4300000</ele>
        <time>2010-08-14T10:47:01Z</time>
      </trkpt>
      <trkpt lat="51.1739950" lon="7.2162170">
        <ele>328.4300000</ele>
        <time>2010-08-14T10:47:02Z</time>
      </trkpt>
      <trkpt lat="51.1739450" lon="7.2162750">
        <ele>328.4300000</ele>
        <time>2010-08-14T10:47:03Z</time>
      </trkpt>
      <trkpt lat="51.1739070" lon="7.2163400">
        <ele>328.4300000</ele>
        <time>2010-08-14T10:47:04Z</time>
      </trkpt>
      <trkpt lat="51.1738920" lon="7.2164120">
        <ele>328.4300000</ele>
        <time>2010-08-14T10:47:05Z</time>
      </trkpt>
      <trkpt lat="51.1738900" lon="7.2164940">
        <ele>327.9500000</ele>
        <time>2010-08-14T10:47:06Z</time>
      </trkpt>
      <trkpt lat="51.1738950" lon="7.2165710">
        <ele>327.9500000</ele>
        <time>2010-08-14T10:47:07Z</time>
      </trkpt>
      <trkpt lat="51.1739290" lon="7.2171120">
        <ele>327.9500000</ele>
        <time>2010-08-14T10:47:13Z</time>
      </trkpt>
      <trkpt lat="51.1740290" lon="7.2172210">
        <ele>329.3900000</ele>
        <time>2010-08-14T10:47:14Z</time>
      </trkpt>
      <trkpt lat="51.1740840" lon="7.2177020">
        <ele>330.3500000</ele>
        <time>2010-08-14T10:47:18Z</time>
      </trkpt>
      <trkpt lat="51.1740730" lon="7.2178340">
        <ele>330.3500000</ele>
        <time>2010-08-14T10:47:19Z</time>
      </trkpt>
      <trkpt lat="51.1740510" lon="7.2180800">
        <ele>330.8300000</ele>
        <time>2010-08-14T10:47:21Z</time>
      </trkpt>
      <trkpt lat="51.1739060" lon="7.2195830">
        <ele>330.3500000</ele>
        <time>2010-08-14T10:47:32Z</time>
      </trkpt>
      <trkpt lat="51.1739120" lon="7.2208020">
        <ele>324.1000000</ele>
        <time>2010-08-14T10:47:41Z</time>
      </trkpt>
      <trkpt lat="51.1737540" lon="7.2222270">
        <ele>318.8100000</ele>
        <time>2010-08-14T10:47:51Z</time>
      </trkpt>
      <trkpt lat="51.1732490" lon="7.2239600">
        <ele>315.9300000</ele>
        <time>2010-08-14T10:48:02Z</time>
      </trkpt>
      <trkpt lat="51.1726370" lon="7.2252910">
        <ele>315.4500000</ele>
        <time>2010-08-14T10:48:11Z</time>
      </trkpt>
      <trkpt lat="51.1718980" lon="7.2262840">
        <ele>314.0100000</ele>
        <time>2010-08-14T10:48:20Z</time>
      </trkpt>
      <trkpt lat="51.1710150" lon="7.2277060">
        <ele>298.6300000</ele>
        <time>2010-08-14T10:48:31Z</time>
      </trkpt>
      <trkpt lat="51.1709600" lon="7.2278580">
        <ele>297.6700000</ele>
        <time>2010-08-14T10:48:32Z</time>
      </trkpt>
      <trkpt lat="51.1709170" lon="7.2280150">
        <ele>296.2200000</ele>
        <time>2010-08-14T10:48:33Z</time>
      </trkpt>
      <trkpt lat="51.1708760" lon="7.2281710">
        <ele>295.2600000</ele>
        <time>2010-08-14T10:48:34Z</time>
      </trkpt>
      <trkpt lat="51.1708260" lon="7.2283120">
        <ele>294.3000000</ele>
        <time>2010-08-14T10:48:35Z</time>
      </trkpt>
      <trkpt lat="51.1707650" lon="7.2284410">
        <ele>293.3400000</ele>
        <time>2010-08-14T10:48:36Z</time>
      </trkpt>
      <trkpt lat="51.1706930" lon="7.2285670">
        <ele>292.8600000</ele>
        <time>2010-08-14T10:48:37Z</time>
      </trkpt>
      <trkpt lat="51.1704900" lon="7.2289380">
        <ele>290.4600000</ele>
        <time>2010-08-14T10:48:40Z</time>
      </trkpt>
      <trkpt lat="51.1704480" lon="7.2290870">
        <ele>289.9700000</ele>
        <time>2010-08-14T10:48:41Z</time>
      </trkpt>
      <trkpt lat="51.1704190" lon="7.2292470">
        <ele>289.4900000</ele>
        <time>2010-08-14T10:48:42Z</time>
      </trkpt>
      <trkpt lat="51.1702780" lon="7.2300380">
        <ele>284.6900000</ele>
        <time>2010-08-14T10:48:47Z</time>
      </trkpt>
      <trkpt lat="51.1702210" lon="7.2301680">
        <ele>283.7300000</ele>
        <time>2010-08-14T10:48:48Z</time>
      </trkpt>
      <trkpt lat="51.1701530" lon="7.2302670">
        <ele>283.2500000</ele>
        <time>2010-08-14T10:48:49Z</time>
      </trkpt>
      <trkpt lat="51.1699640" lon="7.2304830">
        <ele>280.8400000</ele>
        <time>2010-08-14T10:48:55Z</time>
      </trkpt>
      <trkpt lat="51.1697930" lon="7.2307060">
        <ele>279.8800000</ele>
        <time>2010-08-14T10:50:20Z</time>
      </trkpt>
      <trkpt lat="51.1692330" lon="7.2314920">
        <ele>275.0700000</ele>
        <time>2010-08-14T10:50:27Z</time>
      </trkpt>
      <trkpt lat="51.1691500" lon="7.2315580">
        <ele>274.5900000</ele>
        <time>2010-08-14T10:50:28Z</time>
      </trkpt>
      <trkpt lat="51.1690790" lon="7.2316330">
        <ele>273.6300000</ele>
        <time>2010-08-14T10:50:29Z</time>
      </trkpt>
      <trkpt lat="51.1690310" lon="7.2317310">
        <ele>273.1500000</ele>
        <time>2010-08-14T10:50:30Z</time>
      </trkpt>
      <trkpt lat="51.1689830" lon="7.2318310">
        <ele>272.1900000</ele>
        <time>2010-08-14T10:50:31Z</time>
      </trkpt>
      <trkpt lat="51.1689200" lon="7.2319300">
        <ele>271.7100000</ele>
        <time>2010-08-14T10:50:32Z</time>
      </trkpt>
      <trkpt lat="51.1688550" lon="7.2320190">
        <ele>270.7500000</ele>
        <time>2010-08-14T10:50:33Z</time>
      </trkpt>
      <trkpt lat="51.1685790" lon="7.2324170">
        <ele>267.8600000</ele>
        <time>2010-08-14T10:50:37Z</time>
      </trkpt>
      <trkpt lat="51.1684860" lon="7.2324770">
        <ele>267.3800000</ele>
        <time>2010-08-14T10:50:38Z</time>
      </trkpt>
      <trkpt lat="51.1676590" lon="7.2329090">
        <ele>261.6200000</ele>
        <time>2010-08-14T10:50:46Z</time>
      </trkpt>
      <trkpt lat="51.1675770" lon="7.2329010">
        <ele>261.1400000</ele>
        <time>2010-08-14T10:50:47Z</time>
      </trkpt>
      <trkpt lat="51.1667240" lon="7.2326620">
        <ele>259.2100000</ele>
        <time>2010-08-14T10:50:55Z</time>
      </trkpt>
      <trkpt lat="51.1666170" lon="7.2327570">
        <ele>257.7700000</ele>
        <time>2010-08-14T10:50:57Z</time>
      </trkpt>
      <trkpt lat="51.1666120" lon="7.2328270">
        <ele>257.7700000</ele>
        <time>2010-08-14T10:50:58Z</time>
      </trkpt>
      <trkpt lat="51.1666140" lon="7.2329150">
        <ele>257.2900000</ele>
        <time>2010-08-14T10:50:59Z</time>
      </trkpt>
      <trkpt lat="51.1666170" lon="7.2329680">
        <ele>259.2100000</ele>
        <time>2010-08-14T10:51:00Z</time>
      </trkpt>
      <trkpt lat="51.1666620" lon="7.2330560">
        <ele>258.2500000</ele>
        <time>2010-08-14T10:51:01Z</time>
      </trkpt>
      <trkpt lat="51.1667040" lon="7.2331440">
        <ele>257.2900000</ele>
        <time>2010-08-14T10:51:02Z</time>
      </trkpt>
      <trkpt lat="51.1667560" lon="7.2332180">
        <ele>255.8500000</ele>
        <time>2010-08-14T10:51:03Z</time>
      </trkpt>
      <trkpt lat="51.1668140" lon="7.2332750">
        <ele>253.4400000</ele>
        <time>2010-08-14T10:51:04Z</time>
      </trkpt>
      <trkpt lat="51.1668790" lon="7.2333230">
        <ele>251.5200000</ele>
        <time>2010-08-14T10:51:05Z</time>
      </trkpt>
      <trkpt lat="51.1669830" lon="7.2333310">
        <ele>251.5200000</ele>
        <time>2010-08-14T10:51:06Z</time>
      </trkpt>
      <trkpt lat="51.1670750" lon="7.2333370">
        <ele>251.0400000</ele>
        <time>2010-08-14T10:51:07Z</time>
      </trkpt>
      <trkpt lat="51.1674220" lon="7.2333850">
        <ele>244.7900000</ele>
        <time>2010-08-14T10:51:14Z</time>
      </trkpt>
      <trkpt lat="51.1673770" lon="7.2334540">
        <ele>241.4300000</ele>
        <time>2010-08-14T10:51:16Z</time>
      </trkpt>
      <trkpt lat="51.1672670" lon="7.2334940">
        <ele>238.5400000</ele>
        <time>2010-08-14T10:51:18Z</time>
      </trkpt>
      <trkpt lat="51.1670900" lon="7.2335790">
        <ele>236.1400000</ele>
        <time>2010-08-14T10:51:20Z</time>
      </trkpt>
      <trkpt lat="51.1670150" lon="7.2336230">
        <ele>234.2200000</ele>
        <time>2010-08-14T10:51:21Z</time>
      </trkpt>
      <trkpt lat="51.1668480" lon="7.2337750">
        <ele>231.8100000</ele>
        <time>2010-08-14T10:51:24Z</time>
      </trkpt>
      <trkpt lat="51.1668080" lon="7.2341180">
        <ele>230.8500000</ele>
        <time>2010-08-14T10:51:27Z</time>
      </trkpt>
      <trkpt lat="51.1668260" lon="7.2342310">
        <ele>230.3700000</ele>
        <time>2010-08-14T10:51:28Z</time>
      </trkpt>
      <trkpt lat="51.1668350" lon="7.2343380">
        <ele>229.4100000</ele>
        <time>2010-08-14T10:51:29Z</time>
      </trkpt>
      <trkpt lat="51.1668190" lon="7.2344660">
        <ele>229.4100000</ele>
        <time>2010-08-14T10:51:30Z</time>
      </trkpt>
      <trkpt lat="51.1668000" lon="7.2345660">
        <ele>229.4100000</ele>
        <time>2010-08-14T10:51:31Z</time>
      </trkpt>
      <trkpt lat="51.1667440" lon="7.2347290">
        <ele>233.2600000</ele>
        <time>2010-08-14T10:51:32Z</time>
      </trkpt>
      <trkpt lat="51.1666280" lon="7.2354070">
        <ele>231.8100000</ele>
        <time>2010-08-14T10:51:39Z</time>
      </trkpt>
      <trkpt lat="51.1665990" lon="7.2356390">
        <ele>235.6600000</ele>
        <time>2010-08-14T10:51:40Z</time>
      </trkpt>
      <trkpt lat="51.1666140" lon="7.2358480">
        <ele>239.0200000</ele>
        <time>2010-08-14T10:51:41Z</time>
      </trkpt>
      <trkpt lat="51.1666690" lon="7.2359850">
        <ele>242.3900000</ele>
        <time>2010-08-14T10:51:42Z</time>
      </trkpt>
      <trkpt lat="51.1667330" lon="7.2360920">
        <ele>244.7900000</ele>
        <time>2010-08-14T10:51:43Z</time>
      </trkpt>
      <trkpt lat="51.1667960" lon="7.2361880">
        <ele>246.7200000</ele>
        <time>2010-08-14T10:51:44Z</time>
      </trkpt>
      <trkpt lat="51.1668450" lon="7.2363000">
        <ele>247.6800000</ele>
        <time>2010-08-14T10:51:45Z</time>
      </trkpt>
      <trkpt lat="51.1668780" lon="7.2364250">
        <ele>249.1200000</ele>
        <time>2010-08-14T10:51:46Z</time>
      </trkpt>
      <trkpt lat="51.1668940" lon="7.2365500">
        <ele>250.0800000</ele>
        <time>2010-08-14T10:51:47Z</time>
      </trkpt>
      <trkpt lat="51.1668970" lon="7.2366660">
        <ele>251.5200000</ele>
        <time>2010-08-14T10:51:48Z</time>
      </trkpt>
      <trkpt lat="51.1668960" lon="7.2367720">
        <ele>252.9600000</ele>
        <time>2010-08-14T10:51:49Z</time>
      </trkpt>
      <trkpt lat="51.1669100" lon="7.2370740">
        <ele>255.8500000</ele>
        <time>2010-08-14T10:51:53Z</time>
      </trkpt>
      <trkpt lat="51.1668950" lon="7.2371390">
        <ele>256.3300000</ele>
        <time>2010-08-14T10:51:54Z</time>
      </trkpt>
      <trkpt lat="51.1668650" lon="7.2372040">
        <ele>256.3300000</ele>
        <time>2010-08-14T10:51:55Z</time>
      </trkpt>
      <trkpt lat="51.1668140" lon="7.2372620">
        <ele>256.8100000</ele>
        <time>2010-08-14T10:51:56Z</time>
      </trkpt>
      <trkpt lat="51.1667560" lon="7.2373150">
        <ele>257.2900000</ele>
        <time>2010-08-14T10:51:57Z</time>
      </trkpt>
      <trkpt lat="51.1667010" lon="7.2373640">
        <ele>258.2500000</ele>
        <time>2010-08-14T10:51:58Z</time>
      </trkpt>
      <trkpt lat="51.1662030" lon="7.2375810">
        <ele>264.0200000</ele>
        <time>2010-08-14T10:52:06Z</time>
      </trkpt>
      <trkpt lat="51.1661300" lon="7.2375750">
        <ele>264.5000000</ele>
        <time>2010-08-14T10:52:07Z</time>
      </trkpt>
      <trkpt lat="51.1660530" lon="7.2375360">
        <ele>265.4600000</ele>
        <time>2010-08-14T10:52:08Z</time>
      </trkpt>
      <trkpt lat="51.1659850" lon="7.2374740">
        <ele>266.4200000</ele>
        <time>2010-08-14T10:52:09Z</time>
      </trkpt>
      <trkpt lat="51.1659290" lon="7.2374030">
        <ele>266.9000000</ele>
        <time>2010-08-14T10:52:10Z</time>
      </trkpt>
      <trkpt lat="51.1658850" lon="7.2373520">
        <ele>267.3800000</ele>
        <time>2010-08-14T10:52:11Z</time>
      </trkpt>
      <trkpt lat="51.1658450" lon="7.2372640">
        <ele>267.8600000</ele>
        <time>2010-08-14T10:52:12Z</time>
      </trkpt>
      <trkpt lat="51.1658120" lon="7.2371610">
        <ele>268.3500000</ele>
        <time>2010-08-14T10:52:13Z</time>
      </trkpt>
      <trkpt lat="51.1657800" lon="7.2370590">
        <ele>269.3100000</ele>
        <time>2010-08-14T10:52:14Z</time>
      </trkpt>
      <trkpt lat="51.1657470" lon="7.2369620">
        <ele>269.7900000</ele>
        <time>2010-08-14T10:52:15Z</time>
      </trkpt>
      <trkpt lat="51.1657070" lon="7.2368720">
        <ele>270.2700000</ele>
        <time>2010-08-14T10:52:16Z</time>
      </trkpt>
      <trkpt lat="51.1656540" lon="7.2368090">
        <ele>270.7500000</ele>
        <time>2010-08-14T10:52:17Z</time>
      </trkpt>
      <trkpt lat="51.1655830" lon="7.2367960">
        <ele>270.7500000</ele>
        <time>2010-08-14T10:52:18Z</time>
      </trkpt>
      <trkpt lat="51.1655060" lon="7.2368240">
        <ele>271.2300000</ele>
        <time>2010-08-14T10:52:19Z</time>
      </trkpt>
      <trkpt lat="51.1654290" lon="7.2368570">
        <ele>271.2300000</ele>
        <time>2010-08-14T10:52:20Z</time>
      </trkpt>
      <trkpt lat="51.1651220" lon="7.2369570">
        <ele>272.1900000</ele>
        <time>2010-08-14T10:52:24Z</time>
      </trkpt>
      <trkpt lat="51.1650680" lon="7.2369940">
        <ele>272.6700000</ele>
        <time>2010-08-14T10:52:25Z</time>
      </trkpt>
      <trkpt lat="51.1650280" lon="7.2370560">
        <ele>272.6700000</ele>
        <time>2010-08-14T10:52:26Z</time>
      </trkpt>
      <trkpt lat="51.1649970" lon="7.2371390">
        <ele>273.1500000</ele>
        <time>2010-08-14T10:52:27Z</time>
      </trkpt>
      <trkpt lat="51.1649640" lon="7.2372350">
        <ele>274.1100000</ele>
        <time>2010-08-14T10:52:28Z</time>
      </trkpt>
      <trkpt lat="51.1647210" lon="7.2378210">
        <ele>278.9200000</ele>
        <time>2010-08-14T10:52:35Z</time>
      </trkpt>
      <trkpt lat="51.1646850" lon="7.2378790">
        <ele>279.4000000</ele>
        <time>2010-08-14T10:52:36Z</time>
      </trkpt>
      <trkpt lat="51.1646050" lon="7.2380030">
        <ele>280.3600000</ele>
        <time>2010-08-14T10:52:38Z</time>
      </trkpt>
      <trkpt lat="51.1645820" lon="7.2380820">
        <ele>280.8400000</ele>
        <time>2010-08-14T10:52:39Z</time>
      </trkpt>
      <trkpt lat="51.1645750" lon="7.2381730">
        <ele>281.3200000</ele>
        <time>2010-08-14T10:52:40Z</time>
      </trkpt>
      <trkpt lat="51.1645810" lon="7.2382630">
        <ele>281.8000000</ele>
        <time>2010-08-14T10:52:41Z</time>
      </trkpt>
      <trkpt lat="51.1645970" lon="7.2383670">
        <ele>281.8000000</ele>
        <time>2010-08-14T10:52:42Z</time>
      </trkpt>
      <trkpt lat="51.1646260" lon="7.2385010">
        <ele>281.8000000</ele>
        <time>2010-08-14T10:52:43Z</time>
      </trkpt>
      <trkpt lat="51.1646500" lon="7.2386580">
        <ele>281.3200000</ele>
        <time>2010-08-14T10:52:44Z</time>
      </trkpt>
      <trkpt lat="51.1646520" lon="7.2388170">
        <ele>280.8400000</ele>
        <time>2010-08-14T10:52:45Z</time>
      </trkpt>
      <trkpt lat="51.1646140" lon="7.2390020">
        <ele>280.8400000</ele>
        <time>2010-08-14T10:52:46Z</time>
      </trkpt>
      <trkpt lat="51.1645470" lon="7.2391810">
        <ele>280.8400000</ele>
        <time>2010-08-14T10:52:47Z</time>
      </trkpt>
      <trkpt lat="51.1644680" lon="7.2393620">
        <ele>279.8800000</ele>
        <time>2010-08-14T10:52:48Z</time>
      </trkpt>
      <trkpt lat="51.1641840" lon="7.2401040">
        <ele>276.5200000</ele>
        <time>2010-08-14T10:52:52Z</time>
      </trkpt>
      <trkpt lat="51.1641770" lon="7.2403040">
        <ele>276.0400000</ele>
        <time>2010-08-14T10:52:53Z</time>
      </trkpt>
      <trkpt lat="51.1641840" lon="7.2405760">
        <ele>275.0700000</ele>
        <time>2010-08-14T10:52:54Z</time>
      </trkpt>
      <trkpt lat="51.1642900" lon="7.2422170">
        <ele>266.9000000</ele>
        <time>2010-08-14T10:53:01Z</time>
      </trkpt>
      <trkpt lat="51.1643540" lon="7.2424040">
        <ele>266.4200000</ele>
        <time>2010-08-14T10:53:02Z</time>
      </trkpt>
      <trkpt lat="51.1644280" lon="7.2425690">
        <ele>264.9800000</ele>
        <time>2010-08-14T10:53:03Z</time>
      </trkpt>
      <trkpt lat="51.1645160" lon="7.2426990">
        <ele>264.0200000</ele>
        <time>2010-08-14T10:53:04Z</time>
      </trkpt>
      <trkpt lat="51.1646120" lon="7.2427990">
        <ele>263.0600000</ele>
        <time>2010-08-14T10:53:05Z</time>
      </trkpt>
      <trkpt lat="51.1646860" lon="7.2428740">
        <ele>262.1000000</ele>
        <time>2010-08-14T10:53:06Z</time>
      </trkpt>
      <trkpt lat="51.1646780" lon="7.2430840">
        <ele>258.2500000</ele>
        <time>2010-08-14T10:53:09Z</time>
      </trkpt>
      <trkpt lat="51.1643530" lon="7.2436580">
        <ele>250.5600000</ele>
        <time>2010-08-14T10:53:15Z</time>
      </trkpt>
      <trkpt lat="51.1642660" lon="7.2437230">
        <ele>248.6400000</ele>
        <time>2010-08-14T10:53:16Z</time>
      </trkpt>
      <trkpt lat="51.1641730" lon="7.2437680">
        <ele>248.6400000</ele>
        <time>2010-08-14T10:53:17Z</time>
      </trkpt>
      <trkpt lat="51.1640910" lon="7.2437490">
        <ele>249.1200000</ele>
        <time>2010-08-14T10:53:18Z</time>
      </trkpt>
      <trkpt lat="51.1639840" lon="7.2437130">
        <ele>251.0400000</ele>
        <time>2010-08-14T10:53:19Z</time>
      </trkpt>
      <trkpt lat="51.1638290" lon="7.2436500">
        <ele>253.9300000</ele>
        <time>2010-08-14T10:53:20Z</time>
      </trkpt>
      <trkpt lat="51.1636750" lon="7.2435620">
        <ele>252.4800000</ele>
        <time>2010-08-14T10:53:21Z</time>
      </trkpt>
      <trkpt lat="51.1635690" lon="7.2434470">
        <ele>255.8500000</ele>
        <time>2010-08-14T10:53:22Z</time>
      </trkpt>
      <trkpt lat="51.1634640" lon="7.2433420">
        <ele>256.8100000</ele>
        <time>2010-08-14T10:53:23Z</time>
      </trkpt>
      <trkpt lat="51.1633620" lon="7.2432210">
        <ele>256.8100000</ele>
        <time>2010-08-14T10:53:24Z</time>
      </trkpt>
      <trkpt lat="51.1632760" lon="7.2431120">
        <ele>258.2500000</ele>
        <time>2010-08-14T10:53:25Z</time>
      </trkpt>
      <trkpt lat="51.1631740" lon="7.2429990">
        <ele>260.6500000</ele>
        <time>2010-08-14T10:53:26Z</time>
      </trkpt>
      <trkpt lat="51.1630760" lon="7.2429300">
        <ele>262.1000000</ele>
        <time>2010-08-14T10:53:27Z</time>
      </trkpt>
      <trkpt lat="51.1629710" lon="7.2428780">
        <ele>262.5800000</ele>
        <time>2010-08-14T10:53:28Z</time>
      </trkpt>
      <trkpt lat="51.1628590" lon="7.2428560">
        <ele>263.0600000</ele>
        <time>2010-08-14T10:53:29Z</time>
      </trkpt>
      <trkpt lat="51.1627630" lon="7.2428410">
        <ele>264.9800000</ele>
        <time>2010-08-14T10:53:30Z</time>
      </trkpt>
      <trkpt lat="51.1626830" lon="7.2428630">
        <ele>265.4600000</ele>
        <time>2010-08-14T10:53:31Z</time>
      </trkpt>
      <trkpt lat="51.1626500" lon="7.2429450">
        <ele>266.9000000</ele>
        <time>2010-08-14T10:53:32Z</time>
      </trkpt>
      <trkpt lat="51.1625460" lon="7.2430950">
        <ele>268.8300000</ele>
        <time>2010-08-14T10:53:34Z</time>
      </trkpt>
      <trkpt lat="51.1627780" lon="7.2433690">
        <ele>273.6300000</ele>
        <time>2010-08-14T10:53:37Z</time>
      </trkpt>
      <trkpt lat="51.1628150" lon="7.2434970">
        <ele>273.1500000</ele>
        <time>2010-08-14T10:53:38Z</time>
      </trkpt>
      <trkpt lat="51.1628510" lon="7.2436390">
        <ele>271.2300000</ele>
        <time>2010-08-14T10:53:39Z</time>
      </trkpt>
      <trkpt lat="51.1629000" lon="7.2437650">
        <ele>271.2300000</ele>
        <time>2010-08-14T10:53:40Z</time>
      </trkpt>
      <trkpt lat="51.1629630" lon="7.2439010">
        <ele>270.7500000</ele>
        <time>2010-08-14T10:53:41Z</time>
      </trkpt>
      <trkpt lat="51.1630320" lon="7.2439950">
        <ele>272.6700000</ele>
        <time>2010-08-14T10:53:42Z</time>
      </trkpt>
      <trkpt lat="51.1630360" lon="7.2440670">
        <ele>274.5900000</ele>
        <time>2010-08-14T10:53:43Z</time>
      </trkpt>
      <trkpt lat="51.1629980" lon="7.2441030">
        <ele>279.4000000</ele>
        <time>2010-08-14T10:53:45Z</time>
      </trkpt>
      <trkpt lat="51.1629640" lon="7.2441260">
        <ele>280.3600000</ele>
        <time>2010-08-14T10:53:46Z</time>
      </trkpt>
      <trkpt lat="51.1629080" lon="7.2441200">
        <ele>281.8000000</ele>
        <time>2010-08-14T10:53:47Z</time>
      </trkpt>
      <trkpt lat="51.1628160" lon="7.2440620">
        <ele>282.7700000</ele>
        <time>2010-08-14T10:53:48Z</time>
      </trkpt>
      <trkpt lat="51.1626100" lon="7.2440500">
        <ele>283.7300000</ele>
        <time>2010-08-14T10:53:50Z</time>
      </trkpt>
      <trkpt lat="51.1625160" lon="7.2441360">
        <ele>283.7300000</ele>
        <time>2010-08-14T10:53:51Z</time>
      </trkpt>
      <trkpt lat="51.1623470" lon="7.2443960">
        <ele>283.7300000</ele>
        <time>2010-08-14T10:53:53Z</time>
      </trkpt>
      <trkpt lat="51.1622530" lon="7.2445910">
        <ele>284.2100000</ele>
        <time>2010-08-14T10:53:54Z</time>
      </trkpt>
      <trkpt lat="51.1621520" lon="7.2448100">
        <ele>286.6100000</ele>
        <time>2010-08-14T10:53:55Z</time>
      </trkpt>
      <trkpt lat="51.1614720" lon="7.2467730">
        <ele>299.5900000</ele>
        <time>2010-08-14T10:54:03Z</time>
      </trkpt>
      <trkpt lat="51.1609880" lon="7.2490100">
        <ele>302.4700000</ele>
        <time>2010-08-14T10:54:12Z</time>
      </trkpt>
      <trkpt lat="51.1608650" lon="7.2508720">
        <ele>300.5500000</ele>
        <time>2010-08-14T10:54:20Z</time>
      </trkpt>
      <trkpt lat="51.1609200" lon="7.2517970">
        <ele>301.5100000</ele>
        <time>2010-08-14T10:54:25Z</time>
      </trkpt>
      <trkpt lat="51.1609380" lon="7.2519550">
        <ele>301.9900000</ele>
        <time>2010-08-14T10:54:26Z</time>
      </trkpt>
      <trkpt lat="51.1609350" lon="7.2521160">
        <ele>302.9500000</ele>
        <time>2010-08-14T10:54:27Z</time>
      </trkpt>
      <trkpt lat="51.1609110" lon="7.2522990">
        <ele>303.9100000</ele>
        <time>2010-08-14T10:54:28Z</time>
      </trkpt>
      <trkpt lat="51.1608810" lon="7.2525150">
        <ele>305.3600000</ele>
        <time>2010-08-14T10:54:29Z</time>
      </trkpt>
      <trkpt lat="51.1607310" lon="7.2537810">
        <ele>314.0100000</ele>
        <time>2010-08-14T10:54:34Z</time>
      </trkpt>
      <trkpt lat="51.1607320" lon="7.2540950">
        <ele>315.4500000</ele>
        <time>2010-08-14T10:54:35Z</time>
      </trkpt>
      <trkpt lat="51.1606800" lon="7.2561280">
        <ele>324.1000000</ele>
        <time>2010-08-14T10:54:41Z</time>
      </trkpt>
      <trkpt lat="51.1605710" lon="7.2585490">
        <ele>329.8700000</ele>
        <time>2010-08-14T10:54:49Z</time>
      </trkpt>
      <trkpt lat="51.1605350" lon="7.2587790">
        <ele>330.3500000</ele>
        <time>2010-08-14T10:54:50Z</time>
      </trkpt>
      <trkpt lat="51.1604820" lon="7.2590060">
        <ele>330.3500000</ele>
        <time>2010-08-14T10:54:51Z</time>
      </trkpt>
      <trkpt lat="51.1604070" lon="7.2592360">
        <ele>329.8700000</ele>
        <time>2010-08-14T10:54:52Z</time>
      </trkpt>
      <trkpt lat="51.1603100" lon="7.2594610">
        <ele>329.3900000</ele>
        <time>2010-08-14T10:54:53Z</time>
      </trkpt>
      <trkpt lat="51.1601740" lon="7.2596530">
        <ele>327.9500000</ele>
        <time>2010-08-14T10:54:54Z</time>
      </trkpt>
      <trkpt lat="51.1600170" lon="7.2597870">
        <ele>328.9100000</ele>
        <time>2010-08-14T10:54:55Z</time>
      </trkpt>
      <trkpt lat="51.1598850" lon="7.2599160">
        <ele>328.9100000</ele>
        <time>2010-08-14T10:54:56Z</time>
      </trkpt>
      <trkpt lat="51.1597850" lon="7.2600360">
        <ele>329.3900000</ele>
        <time>2010-08-14T10:54:57Z</time>
      </trkpt>
      <trkpt lat="51.1597300" lon="7.2601530">
        <ele>329.3900000</ele>
        <time>2010-08-14T10:54:58Z</time>
      </trkpt>
      <trkpt lat="51.1596680" lon="7.2605830">
        <ele>327.4700000</ele>
        <time>2010-08-14T10:55:01Z</time>
      </trkpt>
      <trkpt lat="51.1597150" lon="7.2607770">
        <ele>326.5000000</ele>
        <time>2010-08-14T10:55:02Z</time>
      </trkpt>
      <trkpt lat="51.1598050" lon="7.2610110">
        <ele>326.0200000</ele>
        <time>2010-08-14T10:55:03Z</time>
      </trkpt>
      <trkpt lat="51.1598960" lon="7.2612290">
        <ele>326.0200000</ele>
        <time>2010-08-14T10:55:04Z</time>
      </trkpt>
      <trkpt lat="51.1599770" lon="7.2614370">
        <ele>326.9900000</ele>
        <time>2010-08-14T10:55:05Z</time>
      </trkpt>
      <trkpt lat="51.1603970" lon="7.2630330">
        <ele>332.7500000</ele>
        <time>2010-08-14T10:55:12Z</time>
      </trkpt>
      <trkpt lat="51.1604200" lon="7.2632380">
        <ele>334.2000000</ele>
        <time>2010-08-14T10:55:13Z</time>
      </trkpt>
      <trkpt lat="51.1604050" lon="7.2634330">
        <ele>335.1600000</ele>
        <time>2010-08-14T10:55:14Z</time>
      </trkpt>
      <trkpt lat="51.1603550" lon="7.2636250">
        <ele>335.6400000</ele>
        <time>2010-08-14T10:55:15Z</time>
      </trkpt>
      <trkpt lat="51.1602810" lon="7.2638300">
        <ele>336.6000000</ele>
        <time>2010-08-14T10:55:16Z</time>
      </trkpt>
      <trkpt lat="51.1602080" lon="7.2640380">
        <ele>337.5600000</ele>
        <time>2010-08-14T10:55:17Z</time>
      </trkpt>
      <trkpt lat="51.1599040" lon="7.2649360">
        <ele>341.4100000</ele>
        <time>2010-08-14T10:55:23Z</time>
      </trkpt>
      <trkpt lat="51.1598590" lon="7.2650330">
        <ele>342.3700000</ele>
        <time>2010-08-14T10:55:28Z</time>
      </trkpt>
      <trkpt lat="51.1598490" lon="7.2650350">
        <ele>342.3700000</ele>
        <time>2010-08-14T10:55:33Z</time>
      </trkpt>
      <trkpt lat="51.1598170" lon="7.2650640">
        <ele>342.3700000</ele>
        <time>2010-08-14T10:55:34Z</time>
      </trkpt>
      <trkpt lat="51.1597580" lon="7.2650900">
        <ele>342.3700000</ele>
        <time>2010-08-14T10:55:35Z</time>
      </trkpt>
      <trkpt lat="51.1596830" lon="7.2651050">
        <ele>342.3700000</ele>
        <time>2010-08-14T10:55:36Z</time>
      </trkpt>
      <trkpt lat="51.1596020" lon="7.2651120">
        <ele>342.3700000</ele>
        <time>2010-08-14T10:55:37Z</time>
      </trkpt>
      <trkpt lat="51.1585430" lon="7.2651810">
        <ele>341.4100000</ele>
        <time>2010-08-14T10:55:48Z</time>
      </trkpt>
      <trkpt lat="51.1573400" lon="7.2651870">
        <ele>341.8900000</ele>
        <time>2010-08-14T10:55:59Z</time>
      </trkpt>
      <trkpt lat="51.1560940" lon="7.2648000">
        <ele>343.3300000</ele>
        <time>2010-08-14T10:56:11Z</time>
      </trkpt>
      <trkpt lat="51.1549260" lon="7.2640140">
        <ele>338.0400000</ele>
        <time>2010-08-14T10:56:24Z</time>
      </trkpt>
      <trkpt lat="51.1539760" lon="7.2634870">
        <ele>335.6400000</ele>
        <time>2010-08-14T10:56:34Z</time>
      </trkpt>
      <trkpt lat="51.1539210" lon="7.2634750">
        <ele>335.6400000</ele>
        <time>2010-08-14T10:56:35Z</time>
      </trkpt>
      <trkpt lat="51.1538860" lon="7.2634760">
        <ele>335.6400000</ele>
        <time>2010-08-14T10:56:36Z</time>
      </trkpt>
      <trkpt lat="51.1538900" lon="7.2634380">
        <ele>338.5200000</ele>
        <time>2010-08-14T10:56:44Z</time>
      </trkpt>
      <trkpt lat="51.1537960" lon="7.2634270">
        <ele>342.3700000</ele>
        <time>2010-08-14T10:57:14Z</time>
      </trkpt>
      <trkpt lat="51.1537340" lon="7.2634330">
        <ele>341.4100000</ele>
        <time>2010-08-14T10:57:15Z</time>
      </trkpt>
      <trkpt lat="51.1536830" lon="7.2634850">
        <ele>340.4400000</ele>
        <time>2010-08-14T10:57:16Z</time>
      </trkpt>
      <trkpt lat="51.1536720" lon="7.2635800">
        <ele>339.4800000</ele>
        <time>2010-08-14T10:57:17Z</time>
      </trkpt>
      <trkpt lat="51.1536850" lon="7.2638480">
        <ele>337.0800000</ele>
        <time>2010-08-14T10:57:19Z</time>
      </trkpt>
      <trkpt lat="51.1537080" lon="7.2639710">
        <ele>335.1600000</ele>
        <time>2010-08-14T10:57:20Z</time>
      </trkpt>
      <trkpt lat="51.1537940" lon="7.2641080">
        <ele>334.6800000</ele>
        <time>2010-08-14T10:57:21Z</time>
      </trkpt>
      <trkpt lat="51.1538730" lon="7.2642850">
        <ele>334.2000000</ele>
        <time>2010-08-14T10:57:22Z</time>
      </trkpt>
      <trkpt lat="51.1539300" lon="7.2644840">
        <ele>334.2000000</ele>
        <time>2010-08-14T10:57:23Z</time>
      </trkpt>
      <trkpt lat="51.1539520" lon="7.2647130">
        <ele>333.2300000</ele>
        <time>2010-08-14T10:57:24Z</time>
      </trkpt>
      <trkpt lat="51.1543290" lon="7.2667630">
        <ele>332.2700000</ele>
        <time>2010-08-14T10:57:32Z</time>
      </trkpt>
      <trkpt lat="51.1545310" lon="7.2676800">
        <ele>332.7500000</ele>
        <time>2010-08-14T10:57:36Z</time>
      </trkpt>
      <trkpt lat="51.1545360" lon="7.2679030">
        <ele>332.7500000</ele>
        <time>2010-08-14T10:57:37Z</time>
      </trkpt>
      <trkpt lat="51.1545270" lon="7.2681290">
        <ele>332.2700000</ele>
        <time>2010-08-14T10:57:38Z</time>
      </trkpt>
      <trkpt lat="51.1545070" lon="7.2683600">
        <ele>332.2700000</ele>
        <time>2010-08-14T10:57:39Z</time>
      </trkpt>
      <trkpt lat="51.1544780" lon="7.2685990">
        <ele>332.7500000</ele>
        <time>2010-08-14T10:57:40Z</time>
      </trkpt>
      <trkpt lat="51.1542180" lon="7.2704160">
        <ele>332.7500000</ele>
        <time>2010-08-14T10:57:49Z</time>
      </trkpt>
      <trkpt lat="51.1539380" lon="7.2725620">
        <ele>331.3100000</ele>
        <time>2010-08-14T10:58:00Z</time>
      </trkpt>
      <trkpt lat="51.1537270" lon="7.2745780">
        <ele>326.9900000</ele>
        <time>2010-08-14T10:58:09Z</time>
      </trkpt>
      <trkpt lat="51.1537390" lon="7.2748180">
        <ele>326.9900000</ele>
        <time>2010-08-14T10:58:10Z</time>
      </trkpt>
      <trkpt lat="51.1537660" lon="7.2750580">
        <ele>326.9900000</ele>
        <time>2010-08-14T10:58:11Z</time>
      </trkpt>
      <trkpt lat="51.1542270" lon="7.2776340">
        <ele>330.3500000</ele>
        <time>2010-08-14T10:58:21Z</time>
      </trkpt>
      <trkpt lat="51.1547370" lon="7.2805780">
        <ele>324.1000000</ele>
        <time>2010-08-14T10:58:32Z</time>
      </trkpt>
      <trkpt lat="51.1551550" lon="7.2829680">
        <ele>318.3300000</ele>
        <time>2010-08-14T10:58:38Z</time>
      </trkpt>
      <trkpt lat="51.1554580" lon="7.2851240">
        <ele>313.0500000</ele>
        <time>2010-08-14T10:58:44Z</time>
      </trkpt>
      <trkpt lat="51.1554220" lon="7.2854500">
        <ele>311.6000000</ele>
        <time>2010-08-14T10:58:45Z</time>
      </trkpt>
      <trkpt lat="51.1553630" lon="7.2857780">
        <ele>310.6400000</ele>
        <time>2010-08-14T10:58:46Z</time>
      </trkpt>
      <trkpt lat="51.1552830" lon="7.2860970">
        <ele>310.1600000</ele>
        <time>2010-08-14T10:58:47Z</time>
      </trkpt>
      <trkpt lat="51.1551930" lon="7.2864080">
        <ele>309.6800000</ele>
        <time>2010-08-14T10:58:48Z</time>
      </trkpt>
      <trkpt lat="51.1550760" lon="7.2866950">
        <ele>310.1600000</ele>
        <time>2010-08-14T10:58:49Z</time>
      </trkpt>
      <trkpt lat="51.1549580" lon="7.2869760">
        <ele>310.6400000</ele>
        <time>2010-08-14T10:58:50Z</time>
      </trkpt>
      <trkpt lat="51.1535940" lon="7.2903900">
        <ele>305.3600000</ele>
        <time>2010-08-14T10:59:02Z</time>
      </trkpt>
      <trkpt lat="51.1520400" lon="7.2944070">
        <ele>293.8200000</ele>
        <time>2010-08-14T10:59:17Z</time>
      </trkpt>
      <trkpt lat="51.1515360" lon="7.2954610">
        <ele>289.4900000</ele>
        <time>2010-08-14T10:59:22Z</time>
      </trkpt>
      <trkpt lat="51.1514020" lon="7.2955650">
        <ele>288.5300000</ele>
        <time>2010-08-14T10:59:23Z</time>
      </trkpt>
      <trkpt lat="51.1512560" lon="7.2956280">
        <ele>287.5700000</ele>
        <time>2010-08-14T10:59:24Z</time>
      </trkpt>
      <trkpt lat="51.1511250" lon="7.2956710">
        <ele>287.0900000</ele>
        <time>2010-08-14T10:59:25Z</time>
      </trkpt>
      <trkpt lat="51.1509800" lon="7.2956710">
        <ele>286.1300000</ele>
        <time>2010-08-14T10:59:26Z</time>
      </trkpt>
      <trkpt lat="51.1508130" lon="7.2956320">
        <ele>285.6500000</ele>
        <time>2010-08-14T10:59:27Z</time>
      </trkpt>
      <trkpt lat="51.1506450" lon="7.2955920">
        <ele>285.1700000</ele>
        <time>2010-08-14T10:59:28Z</time>
      </trkpt>
      <trkpt lat="51.1484770" lon="7.2951120">
        <ele>279.8800000</ele>
        <time>2010-08-14T10:59:41Z</time>
      </trkpt>
      <trkpt lat="51.1478520" lon="7.2950390">
        <ele>278.9200000</ele>
        <time>2010-08-14T10:59:46Z</time>
      </trkpt>
      <trkpt lat="51.1477430" lon="7.2950770">
        <ele>278.9200000</ele>
        <time>2010-08-14T10:59:47Z</time>
      </trkpt>
      <trkpt lat="51.1476430" lon="7.2951340">
        <ele>278.9200000</ele>
        <time>2010-08-14T10:59:48Z</time>
      </trkpt>
      <trkpt lat="51.1475530" lon="7.2952080">
        <ele>279.4000000</ele>
        <time>2010-08-14T10:59:49Z</time>
      </trkpt>
      <trkpt lat="51.1474780" lon="7.2953000">
        <ele>279.4000000</ele>
        <time>2010-08-14T10:59:50Z</time>
      </trkpt>
      <trkpt lat="51.1474110" lon="7.2954170">
        <ele>279.8800000</ele>
        <time>2010-08-14T10:59:51Z</time>
      </trkpt>
      <trkpt lat="51.1473450" lon="7.2955570">
        <ele>280.3600000</ele>
        <time>2010-08-14T10:59:52Z</time>
      </trkpt>
      <trkpt lat="51.1472910" lon="7.2957770">
        <ele>280.3600000</ele>
        <time>2010-08-14T10:59:53Z</time>
      </trkpt>
      <trkpt lat="51.1472030" lon="7.2960390">
        <ele>280.3600000</ele>
        <time>2010-08-14T10:59:54Z</time>
      </trkpt>
      <trkpt lat="51.1464730" lon="7.2977350">
        <ele>284.6900000</ele>
        <time>2010-08-14T10:59:59Z</time>
      </trkpt>
      <trkpt lat="51.1458500" lon="7.2990310">
        <ele>291.9000000</ele>
        <time>2010-08-14T11:00:05Z</time>
      </trkpt>
      <trkpt lat="51.1458230" lon="7.2991390">
        <ele>292.8600000</ele>
        <time>2010-08-14T11:00:06Z</time>
      </trkpt>
      <trkpt lat="51.1458060" lon="7.2992230">
        <ele>293.8200000</ele>
        <time>2010-08-14T11:00:07Z</time>
      </trkpt>
      <trkpt lat="51.1457800" lon="7.2993580">
        <ele>294.3000000</ele>
        <time>2010-08-14T11:00:08Z</time>
      </trkpt>
      <trkpt lat="51.1457260" lon="7.2994090">
        <ele>295.2600000</ele>
        <time>2010-08-14T11:00:09Z</time>
      </trkpt>
      <trkpt lat="51.1457060" lon="7.2994410">
        <ele>295.2600000</ele>
        <time>2010-08-14T11:00:10Z</time>
      </trkpt>
      <trkpt lat="51.1456880" lon="7.2994680">
        <ele>298.1500000</ele>
        <time>2010-08-14T11:00:17Z</time>
      </trkpt>
      <trkpt lat="51.1456350" lon="7.2995840">
        <ele>297.6700000</ele>
        <time>2010-08-14T11:00:24Z</time>
      </trkpt>
      <trkpt lat="51.1456170" lon="7.2996740">
        <ele>297.1800000</ele>
        <time>2010-08-14T11:00:25Z</time>
      </trkpt>
      <trkpt lat="51.1456400" lon="7.2998130">
        <ele>296.2200000</ele>
        <time>2010-08-14T11:00:26Z</time>
      </trkpt>
      <trkpt lat="51.1456980" lon="7.2999740">
        <ele>295.7400000</ele>
        <time>2010-08-14T11:00:27Z</time>
      </trkpt>
      <trkpt lat="51.1458040" lon="7.3001450">
        <ele>295.2600000</ele>
        <time>2010-08-14T11:00:28Z</time>
      </trkpt>
      <trkpt lat="51.1459140" lon="7.3003420">
        <ele>294.7800000</ele>
        <time>2010-08-14T11:00:29Z</time>
      </trkpt>
      <trkpt lat="51.1467280" lon="7.3019000">
        <ele>299.5900000</ele>
        <time>2010-08-14T11:00:36Z</time>
      </trkpt>
      <trkpt lat="51.1470030" lon="7.3024850">
        <ele>301.5100000</ele>
        <time>2010-08-14T11:00:39Z</time>
      </trkpt>
      <trkpt lat="51.1470530" lon="7.3026880">
        <ele>301.5100000</ele>
        <time>2010-08-14T11:00:40Z</time>
      </trkpt>
      <trkpt lat="51.1470900" lon="7.3029190">
        <ele>302.4700000</ele>
        <time>2010-08-14T11:00:41Z</time>
      </trkpt>
      <trkpt lat="51.1471040" lon="7.3031960">
        <ele>302.9500000</ele>
        <time>2010-08-14T11:00:42Z</time>
      </trkpt>
      <trkpt lat="51.1471050" lon="7.3034990">
        <ele>303.9100000</ele>
        <time>2010-08-14T11:00:43Z</time>
      </trkpt>
      <trkpt lat="51.1471070" lon="7.3037940">
        <ele>304.8800000</ele>
        <time>2010-08-14T11:00:44Z</time>
      </trkpt>
      <trkpt lat="51.1471340" lon="7.3045960">
        <ele>308.2400000</ele>
        <time>2010-08-14T11:00:47Z</time>
      </trkpt>
      <trkpt lat="51.1472020" lon="7.3048090">
        <ele>309.2000000</ele>
        <time>2010-08-14T11:00:48Z</time>
      </trkpt>
      <trkpt lat="51.1472850" lon="7.3049880">
        <ele>310.1600000</ele>
        <time>2010-08-14T11:00:49Z</time>
      </trkpt>
      <trkpt lat="51.1474020" lon="7.3051170">
        <ele>310.6400000</ele>
        <time>2010-08-14T11:00:50Z</time>
      </trkpt>
      <trkpt lat="51.1475790" lon="7.3051810">
        <ele>312.5700000</ele>
        <time>2010-08-14T11:00:51Z</time>
      </trkpt>
      <trkpt lat="51.1477240" lon="7.3052510">
        <ele>313.5300000</ele>
        <time>2010-08-14T11:00:52Z</time>
      </trkpt>
      <trkpt lat="51.1479040" lon="7.3052930">
        <ele>314.4900000</ele>
        <time>2010-08-14T11:00:53Z</time>
      </trkpt>
      <trkpt lat="51.1480720" lon="7.3053450">
        <ele>315.4500000</ele>
        <time>2010-08-14T11:00:54Z</time>
      </trkpt>
      <trkpt lat="51.1488120" lon="7.3057740">
        <ele>318.3300000</ele>
        <time>2010-08-14T11:00:59Z</time>
      </trkpt>
      <trkpt lat="51.1489210" lon="7.3059140">
        <ele>318.8100000</ele>
        <time>2010-08-14T11:01:00Z</time>
      </trkpt>
      <trkpt lat="51.1490040" lon="7.3060630">
        <ele>319.3000000</ele>
        <time>2010-08-14T11:01:01Z</time>
      </trkpt>
      <trkpt lat="51.1490450" lon="7.3062130">
        <ele>319.3000000</ele>
        <time>2010-08-14T11:01:02Z</time>
      </trkpt>
      <trkpt lat="51.1490480" lon="7.3064170">
        <ele>319.3000000</ele>
        <time>2010-08-14T11:01:03Z</time>
      </trkpt>
      <trkpt lat="51.1490240" lon="7.3066560">
        <ele>319.7800000</ele>
        <time>2010-08-14T11:01:04Z</time>
      </trkpt>
      <trkpt lat="51.1489690" lon="7.3069380">
        <ele>319.7800000</ele>
        <time>2010-08-14T11:01:05Z</time>
      </trkpt>
      <trkpt lat="51.1488920" lon="7.3072550">
        <ele>319.7800000</ele>
        <time>2010-08-14T11:01:06Z</time>
      </trkpt>
      <trkpt lat="51.1488360" lon="7.3075600">
        <ele>320.7400000</ele>
        <time>2010-08-14T11:01:07Z</time>
      </trkpt>
      <trkpt lat="51.1485350" lon="7.3109920">
        <ele>326.9900000</ele>
        <time>2010-08-14T11:01:19Z</time>
      </trkpt>
      <trkpt lat="51.1483850" lon="7.3137250">
        <ele>334.2000000</ele>
        <time>2010-08-14T11:01:30Z</time>
      </trkpt>
      <trkpt lat="51.1482790" lon="7.3152570">
        <ele>340.9200000</ele>
        <time>2010-08-14T11:01:39Z</time>
      </trkpt>
      <trkpt lat="51.1481580" lon="7.3170430">
        <ele>343.3300000</ele>
        <time>2010-08-14T11:01:48Z</time>
      </trkpt>
      <trkpt lat="51.1479890" lon="7.3187290">
        <ele>337.5600000</ele>
        <time>2010-08-14T11:01:56Z</time>
      </trkpt>
      <trkpt lat="51.1476230" lon="7.3230920">
        <ele>322.6600000</ele>
        <time>2010-08-14T11:02:15Z</time>
      </trkpt>
      <trkpt lat="51.1477200" lon="7.3252250">
        <ele>325.0600000</ele>
        <time>2010-08-14T11:02:24Z</time>
      </trkpt>
      <trkpt lat="51.1479020" lon="7.3271550">
        <ele>318.3300000</ele>
        <time>2010-08-14T11:02:32Z</time>
      </trkpt>
      <trkpt lat="51.1483520" lon="7.3300300">
        <ele>303.9100000</ele>
        <time>2010-08-14T11:02:44Z</time>
      </trkpt>
      <trkpt lat="51.1488200" lon="7.3330810">
        <ele>287.5700000</ele>
        <time>2010-08-14T11:02:58Z</time>
      </trkpt>
      <trkpt lat="51.1489650" lon="7.3340670">
        <ele>281.3200000</ele>
        <time>2010-08-14T11:03:05Z</time>
      </trkpt>
      <trkpt lat="51.1489560" lon="7.3341180">
        <ele>279.4000000</ele>
        <time>2010-08-14T11:03:06Z</time>
      </trkpt>
      <trkpt lat="51.1489510" lon="7.3341630">
        <ele>277.9600000</ele>
        <time>2010-08-14T11:03:07Z</time>
      </trkpt>
      <trkpt lat="51.1489480" lon="7.3341820">
        <ele>277.0000000</ele>
        <time>2010-08-14T11:03:08Z</time>
      </trkpt>
      <trkpt lat="51.1489330" lon="7.3341730">
        <ele>274.5900000</ele>
        <time>2010-08-14T11:03:22Z</time>
      </trkpt>
      <trkpt lat="51.1489390" lon="7.3341840">
        <ele>273.6300000</ele>
        <time>2010-08-14T11:03:29Z</time>
      </trkpt>
      <trkpt lat="51.1489010" lon="7.3343730">
        <ele>271.2300000</ele>
        <time>2010-08-14T11:03:33Z</time>
      </trkpt>
      <trkpt lat="51.1488560" lon="7.3344380">
        <ele>269.7900000</ele>
        <time>2010-08-14T11:03:34Z</time>
      </trkpt>
      <trkpt lat="51.1488090" lon="7.3345430">
        <ele>268.8300000</ele>
        <time>2010-08-14T11:03:35Z</time>
      </trkpt>
      <trkpt lat="51.1487760" lon="7.3347240">
        <ele>268.3500000</ele>
        <time>2010-08-14T11:03:36Z</time>
      </trkpt>
      <trkpt lat="51.1487880" lon="7.3348920">
        <ele>268.3500000</ele>
        <time>2010-08-14T11:03:37Z</time>
      </trkpt>
      <trkpt lat="51.1488100" lon="7.3350550">
        <ele>267.8600000</ele>
        <time>2010-08-14T11:03:38Z</time>
      </trkpt>
      <trkpt lat="51.1488350" lon="7.3352090">
        <ele>267.8600000</ele>
        <time>2010-08-14T11:03:39Z</time>
      </trkpt>
      <trkpt lat="51.1488580" lon="7.3353570">
        <ele>267.8600000</ele>
        <time>2010-08-14T11:03:40Z</time>
      </trkpt>
      <trkpt lat="51.1488660" lon="7.3355000">
        <ele>267.3800000</ele>
        <time>2010-08-14T11:03:41Z</time>
      </trkpt>
      <trkpt lat="51.1488650" lon="7.3356360">
        <ele>266.9000000</ele>
        <time>2010-08-14T11:03:42Z</time>
      </trkpt>
      <trkpt lat="51.1488550" lon="7.3357650">
        <ele>266.4200000</ele>
        <time>2010-08-14T11:03:43Z</time>
      </trkpt>
      <trkpt lat="51.1488720" lon="7.3358640">
        <ele>266.9000000</ele>
        <time>2010-08-14T11:03:44Z</time>
      </trkpt>
      <trkpt lat="51.1488320" lon="7.3361160">
        <ele>266.9000000</ele>
        <time>2010-08-14T11:03:50Z</time>
      </trkpt>
      <trkpt lat="51.1488150" lon="7.3362120">
        <ele>264.9800000</ele>
        <time>2010-08-14T11:04:00Z</time>
      </trkpt>
      <trkpt lat="51.1488320" lon="7.3364150">
        <ele>264.5000000</ele>
        <time>2010-08-14T11:04:02Z</time>
      </trkpt>
      <trkpt lat="51.1488650" lon="7.3366290">
        <ele>263.0600000</ele>
        <time>2010-08-14T11:04:03Z</time>
      </trkpt>
      <trkpt lat="51.1489080" lon="7.3368130">
        <ele>262.5800000</ele>
        <time>2010-08-14T11:04:04Z</time>
      </trkpt>
      <trkpt lat="51.1489840" lon="7.3369820">
        <ele>262.5800000</ele>
        <time>2010-08-14T11:04:05Z</time>
      </trkpt>
      <trkpt lat="51.1490450" lon="7.3371540">
        <ele>262.1000000</ele>
        <time>2010-08-14T11:04:06Z</time>
      </trkpt>
      <trkpt lat="51.1491130" lon="7.3373330">
        <ele>261.6200000</ele>
        <time>2010-08-14T11:04:07Z</time>
      </trkpt>
      <trkpt lat="51.1492590" lon="7.3374390">
        <ele>263.0600000</ele>
        <time>2010-08-14T11:04:08Z</time>
      </trkpt>
      <trkpt lat="51.1493440" lon="7.3375660">
        <ele>263.0600000</ele>
        <time>2010-08-14T11:04:09Z</time>
      </trkpt>
      <trkpt lat="51.1503560" lon="7.3386620">
        <ele>262.5800000</ele>
        <time>2010-08-14T11:04:19Z</time>
      </trkpt>
      <trkpt lat="51.1511580" lon="7.3394000">
        <ele>259.6900000</ele>
        <time>2010-08-14T11:04:28Z</time>
      </trkpt>
      <trkpt lat="51.1518220" lon="7.3401000">
        <ele>257.7700000</ele>
        <time>2010-08-14T11:04:36Z</time>
      </trkpt>
      <trkpt lat="51.1518880" lon="7.3402230">
        <ele>257.7700000</ele>
        <time>2010-08-14T11:04:37Z</time>
      </trkpt>
      <trkpt lat="51.1519260" lon="7.3403600">
        <ele>257.2900000</ele>
        <time>2010-08-14T11:04:38Z</time>
      </trkpt>
      <trkpt lat="51.1519360" lon="7.3404950">
        <ele>256.8100000</ele>
        <time>2010-08-14T11:04:39Z</time>
      </trkpt>
      <trkpt lat="51.1519280" lon="7.3406380">
        <ele>256.3300000</ele>
        <time>2010-08-14T11:04:40Z</time>
      </trkpt>
      <trkpt lat="51.1519120" lon="7.3407840">
        <ele>256.3300000</ele>
        <time>2010-08-14T11:04:41Z</time>
      </trkpt>
      <trkpt lat="51.1518740" lon="7.3409320">
        <ele>256.3300000</ele>
        <time>2010-08-14T11:04:42Z</time>
      </trkpt>
      <trkpt lat="51.1518090" lon="7.3410790">
        <ele>255.8500000</ele>
        <time>2010-08-14T11:04:43Z</time>
      </trkpt>
      <trkpt lat="51.1517420" lon="7.3412070">
        <ele>255.8500000</ele>
        <time>2010-08-14T11:04:44Z</time>
      </trkpt>
      <trkpt lat="51.1516680" lon="7.3413290">
        <ele>256.3300000</ele>
        <time>2010-08-14T11:04:45Z</time>
      </trkpt>
      <trkpt lat="51.1515840" lon="7.3414310">
        <ele>256.3300000</ele>
        <time>2010-08-14T11:04:46Z</time>
      </trkpt>
      <trkpt lat="51.1514970" lon="7.3415390">
        <ele>256.8100000</ele>
        <time>2010-08-14T11:04:47Z</time>
      </trkpt>
      <trkpt lat="51.1506830" lon="7.3423210">
        <ele>256.8100000</ele>
        <time>2010-08-14T11:04:57Z</time>
      </trkpt>
      <trkpt lat="51.1502560" lon="7.3427120">
        <ele>256.8100000</ele>
        <time>2010-08-14T11:05:04Z</time>
      </trkpt>
      <trkpt lat="51.1500020" lon="7.3429800">
        <ele>261.1400000</ele>
        <time>2010-08-14T11:05:12Z</time>
      </trkpt>
      <trkpt lat="51.1497880" lon="7.3432100">
        <ele>264.9800000</ele>
        <time>2010-08-14T11:05:35Z</time>
      </trkpt>
      <trkpt lat="51.1497500" lon="7.3432750">
        <ele>264.5000000</ele>
        <time>2010-08-14T11:05:36Z</time>
      </trkpt>
      <trkpt lat="51.1497150" lon="7.3433450">
        <ele>264.0200000</ele>
        <time>2010-08-14T11:05:37Z</time>
      </trkpt>
      <trkpt lat="51.1492830" lon="7.3445190">
        <ele>267.8600000</ele>
        <time>2010-08-14T11:05:48Z</time>
      </trkpt>
      <trkpt lat="51.1486980" lon="7.3457870">
        <ele>268.3500000</ele>
        <time>2010-08-14T11:05:58Z</time>
      </trkpt>
      <trkpt lat="51.1482570" lon="7.3465460">
        <ele>263.5400000</ele>
        <time>2010-08-14T11:06:06Z</time>
      </trkpt>
      <trkpt lat="51.1481900" lon="7.3465720">
        <ele>263.5400000</ele>
        <time>2010-08-14T11:06:07Z</time>
      </trkpt>
      <trkpt lat="51.1481350" lon="7.3465830">
        <ele>263.0600000</ele>
        <time>2010-08-14T11:06:08Z</time>
      </trkpt>
      <trkpt lat="51.1480810" lon="7.3466080">
        <ele>263.5400000</ele>
        <time>2010-08-14T11:06:09Z</time>
      </trkpt>
      <trkpt lat="51.1480400" lon="7.3466350">
        <ele>263.5400000</ele>
        <time>2010-08-14T11:06:10Z</time>
      </trkpt>
      <trkpt lat="51.1480150" lon="7.3466990">
        <ele>263.0600000</ele>
        <time>2010-08-14T11:06:11Z</time>
      </trkpt>
      <trkpt lat="51.1480060" lon="7.3467860">
        <ele>262.5800000</ele>
        <time>2010-08-14T11:06:12Z</time>
      </trkpt>
      <trkpt lat="51.1480060" lon="7.3468910">
        <ele>262.1000000</ele>
        <time>2010-08-14T11:06:13Z</time>
      </trkpt>
      <trkpt lat="51.1479960" lon="7.3470100">
        <ele>261.6200000</ele>
        <time>2010-08-14T11:06:14Z</time>
      </trkpt>
      <trkpt lat="51.1479730" lon="7.3471350">
        <ele>261.6200000</ele>
        <time>2010-08-14T11:06:15Z</time>
      </trkpt>
      <trkpt lat="51.1479340" lon="7.3472700">
        <ele>261.6200000</ele>
        <time>2010-08-14T11:06:16Z</time>
      </trkpt>
      <trkpt lat="51.1478770" lon="7.3474060">
        <ele>261.6200000</ele>
        <time>2010-08-14T11:06:17Z</time>
      </trkpt>
      <trkpt lat="51.1478030" lon="7.3475440">
        <ele>262.1000000</ele>
        <time>2010-08-14T11:06:18Z</time>
      </trkpt>
      <trkpt lat="51.1477320" lon="7.3476840">
        <ele>262.5800000</ele>
        <time>2010-08-14T11:06:19Z</time>
      </trkpt>
      <trkpt lat="51.1469240" lon="7.3488920">
        <ele>271.2300000</ele>
        <time>2010-08-14T11:06:28Z</time>
      </trkpt>
      <trkpt lat="51.1468240" lon="7.3490200">
        <ele>270.7500000</ele>
        <time>2010-08-14T11:06:29Z</time>
      </trkpt>
      <trkpt lat="51.1459620" lon="7.3498790">
        <ele>264.5000000</ele>
        <time>2010-08-14T11:06:39Z</time>
      </trkpt>
      <trkpt lat="51.1458770" lon="7.3499330">
        <ele>264.0200000</ele>
        <time>2010-08-14T11:06:40Z</time>
      </trkpt>
      <trkpt lat="51.1457660" lon="7.3500050">
        <ele>263.5400000</ele>
        <time>2010-08-14T11:06:41Z</time>
      </trkpt>
      <trkpt lat="51.1449480" lon="7.3504750">
        <ele>261.1400000</ele>
        <time>2010-08-14T11:06:46Z</time>
      </trkpt>
      <trkpt lat="51.1439000" lon="7.3506800">
        <ele>259.6900000</ele>
        <time>2010-08-14T11:06:53Z</time>
      </trkpt>
      <trkpt lat="51.1422370" lon="7.3505880">
        <ele>259.6900000</ele>
        <time>2010-08-14T11:07:04Z</time>
      </trkpt>
      <trkpt lat="51.1420750" lon="7.3504970">
        <ele>260.1700000</ele>
        <time>2010-08-14T11:07:05Z</time>
      </trkpt>
      <trkpt lat="51.1419070" lon="7.3503810">
        <ele>260.6500000</ele>
        <time>2010-08-14T11:07:06Z</time>
      </trkpt>
      <trkpt lat="51.1408180" lon="7.3495930">
        <ele>261.1400000</ele>
        <time>2010-08-14T11:07:14Z</time>
      </trkpt>
      <trkpt lat="51.1407610" lon="7.3496240">
        <ele>261.6200000</ele>
        <time>2010-08-14T11:07:15Z</time>
      </trkpt>
      <trkpt lat="51.1407260" lon="7.3497120">
        <ele>261.6200000</ele>
        <time>2010-08-14T11:07:16Z</time>
      </trkpt>
      <trkpt lat="51.1406810" lon="7.3498350">
        <ele>261.6200000</ele>
        <time>2010-08-14T11:07:17Z</time>
      </trkpt>
      <trkpt lat="51.1406390" lon="7.3500100">
        <ele>261.6200000</ele>
        <time>2010-08-14T11:07:18Z</time>
      </trkpt>
      <trkpt lat="51.1406010" lon="7.3502630">
        <ele>261.1400000</ele>
        <time>2010-08-14T11:07:19Z</time>
      </trkpt>
      <trkpt lat="51.1402900" lon="7.3512960">
        <ele>260.1700000</ele>
        <time>2010-08-14T11:07:24Z</time>
      </trkpt>
      <trkpt lat="51.1402170" lon="7.3514950">
        <ele>259.6900000</ele>
        <time>2010-08-14T11:07:25Z</time>
      </trkpt>
      <trkpt lat="51.1401380" lon="7.3516760">
        <ele>259.2100000</ele>
        <time>2010-08-14T11:07:26Z</time>
      </trkpt>
      <trkpt lat="51.1400560" lon="7.3518450">
        <ele>258.7300000</ele>
        <time>2010-08-14T11:07:27Z</time>
      </trkpt>
      <trkpt lat="51.1396720" lon="7.3523830">
        <ele>257.7700000</ele>
        <time>2010-08-14T11:07:31Z</time>
      </trkpt>
      <trkpt lat="51.1386930" lon="7.3535490">
        <ele>256.8100000</ele>
        <time>2010-08-14T11:07:41Z</time>
      </trkpt>
      <trkpt lat="51.1380450" lon="7.3551910">
        <ele>257.2900000</ele>
        <time>2010-08-14T11:07:51Z</time>
      </trkpt>
      <trkpt lat="51.1376180" lon="7.3561750">
        <ele>259.6900000</ele>
        <time>2010-08-14T11:07:57Z</time>
      </trkpt>
      <trkpt lat="51.1375640" lon="7.3563600">
        <ele>260.6500000</ele>
        <time>2010-08-14T11:07:58Z</time>
      </trkpt>
      <trkpt lat="51.1375040" lon="7.3565370">
        <ele>261.1400000</ele>
        <time>2010-08-14T11:07:59Z</time>
      </trkpt>
      <trkpt lat="51.1374770" lon="7.3567280">
        <ele>261.6200000</ele>
        <time>2010-08-14T11:08:00Z</time>
      </trkpt>
      <trkpt lat="51.1374570" lon="7.3569120">
        <ele>262.1000000</ele>
        <time>2010-08-14T11:08:01Z</time>
      </trkpt>
      <trkpt lat="51.1374470" lon="7.3571000">
        <ele>262.1000000</ele>
        <time>2010-08-14T11:08:02Z</time>
      </trkpt>
      <trkpt lat="51.1373920" lon="7.3587990">
        <ele>263.5400000</ele>
        <time>2010-08-14T11:08:11Z</time>
      </trkpt>
      <trkpt lat="51.1372740" lon="7.3616500">
        <ele>264.5000000</ele>
        <time>2010-08-14T11:08:23Z</time>
      </trkpt>
      <trkpt lat="51.1372860" lon="7.3636260">
        <ele>265.4600000</ele>
        <time>2010-08-14T11:08:31Z</time>
      </trkpt>
      <trkpt lat="51.1373450" lon="7.3638790">
        <ele>265.4600000</ele>
        <time>2010-08-14T11:08:32Z</time>
      </trkpt>
      <trkpt lat="51.1374160" lon="7.3641220">
        <ele>265.9400000</ele>
        <time>2010-08-14T11:08:33Z</time>
      </trkpt>
      <trkpt lat="51.1378560" lon="7.3657260">
        <ele>268.8300000</ele>
        <time>2010-08-14T11:08:40Z</time>
      </trkpt>
      <trkpt lat="51.1378720" lon="7.3659410">
        <ele>269.3100000</ele>
        <time>2010-08-14T11:08:41Z</time>
      </trkpt>
      <trkpt lat="51.1378400" lon="7.3661430">
        <ele>269.7900000</ele>
        <time>2010-08-14T11:08:42Z</time>
      </trkpt>
      <trkpt lat="51.1377710" lon="7.3663850">
        <ele>270.2700000</ele>
        <time>2010-08-14T11:08:43Z</time>
      </trkpt>
      <trkpt lat="51.1377020" lon="7.3665970">
        <ele>271.2300000</ele>
        <time>2010-08-14T11:08:44Z</time>
      </trkpt>
      <trkpt lat="51.1376460" lon="7.3667960">
        <ele>271.7100000</ele>
        <time>2010-08-14T11:08:45Z</time>
      </trkpt>
      <trkpt lat="51.1376110" lon="7.3669980">
        <ele>272.1900000</ele>
        <time>2010-08-14T11:08:46Z</time>
      </trkpt>
      <trkpt lat="51.1376000" lon="7.3672010">
        <ele>272.1900000</ele>
        <time>2010-08-14T11:08:47Z</time>
      </trkpt>
      <trkpt lat="51.1376070" lon="7.3674050">
        <ele>272.6700000</ele>
        <time>2010-08-14T11:08:48Z</time>
      </trkpt>
      <trkpt lat="51.1376320" lon="7.3676100">
        <ele>272.6700000</ele>
        <time>2010-08-14T11:08:49Z</time>
      </trkpt>
      <trkpt lat="51.1376800" lon="7.3678130">
        <ele>273.6300000</ele>
        <time>2010-08-14T11:08:50Z</time>
      </trkpt>
      <trkpt lat="51.1377380" lon="7.3680140">
        <ele>273.6300000</ele>
        <time>2010-08-14T11:08:51Z</time>
      </trkpt>
      <trkpt lat="51.1378050" lon="7.3682130">
        <ele>274.1100000</ele>
        <time>2010-08-14T11:08:52Z</time>
      </trkpt>
      <trkpt lat="51.1378820" lon="7.3684130">
        <ele>274.1100000</ele>
        <time>2010-08-14T11:08:53Z</time>
      </trkpt>
      <trkpt lat="51.1389310" lon="7.3706650">
        <ele>283.7300000</ele>
        <time>2010-08-14T11:09:04Z</time>
      </trkpt>
      <trkpt lat="51.1398860" lon="7.3722080">
        <ele>290.9400000</ele>
        <time>2010-08-14T11:09:13Z</time>
      </trkpt>
      <trkpt lat="51.1406040" lon="7.3731150">
        <ele>296.7000000</ele>
        <time>2010-08-14T11:09:21Z</time>
      </trkpt>
      <trkpt lat="51.1410140" lon="7.3734040">
        <ele>298.1500000</ele>
        <time>2010-08-14T11:09:30Z</time>
      </trkpt>
      <trkpt lat="51.1410460" lon="7.3734410">
        <ele>298.6300000</ele>
        <time>2010-08-14T11:09:31Z</time>
      </trkpt>
      <trkpt lat="51.1410740" lon="7.3734840">
        <ele>299.1100000</ele>
        <time>2010-08-14T11:09:32Z</time>
      </trkpt>
      <trkpt lat="51.1410940" lon="7.3735250">
        <ele>299.1100000</ele>
        <time>2010-08-14T11:09:33Z</time>
      </trkpt>
      <trkpt lat="51.1411160" lon="7.3735600">
        <ele>299.1100000</ele>
        <time>2010-08-14T11:09:34Z</time>
      </trkpt>
      <trkpt lat="51.1411400" lon="7.3735870">
        <ele>299.1100000</ele>
        <time>2010-08-14T11:09:35Z</time>
      </trkpt>
    </trkseg>
  </trk>

  <trk>
    <name>ACTIVE LOG: 14 AUG 2010 13:09</name>
    <extensions>
      <gpxx:TrackExtension xmlns:gpxx="http://www.garmin.com/xmlschemas/GpxExtensions/v3">
        <gpxx:DisplayColor>White</gpxx:DisplayColor>
      </gpxx:TrackExtension>
    </extensions>
    <trkseg>
      <trkpt lat="51.1411670" lon="7.3736090">
        <ele>299.1100000</ele>
        <time>2010-08-14T11:09:36Z</time>
      </trkpt>
      <trkpt lat="51.1411950" lon="7.3736280">
        <ele>299.1100000</ele>
        <time>2010-08-14T11:09:37Z</time>
      </trkpt>
      <trkpt lat="51.1412570" lon="7.3736990">
        <ele>299.1100000</ele>
        <time>2010-08-14T11:09:40Z</time>
      </trkpt>
      <trkpt lat="51.1412640" lon="7.3737300">
        <ele>299.1100000</ele>
        <time>2010-08-14T11:09:41Z</time>
      </trkpt>
      <trkpt lat="51.1412690" lon="7.3737560">
        <ele>299.5900000</ele>
        <time>2010-08-14T11:09:42Z</time>
      </trkpt>
      <trkpt lat="51.1412770" lon="7.3737790">
        <ele>299.1100000</ele>
        <time>2010-08-14T11:09:43Z</time>
      </trkpt>
      <trkpt lat="51.1412890" lon="7.3737670">
        <ele>299.5900000</ele>
        <time>2010-08-14T11:09:52Z</time>
      </trkpt>
      <trkpt lat="51.1412750" lon="7.3737460">
        <ele>300.0700000</ele>
        <time>2010-08-14T11:10:04Z</time>
      </trkpt>
      <trkpt lat="51.1412280" lon="7.3736110">
        <ele>302.9500000</ele>
        <time>2010-08-14T11:10:58Z</time>
      </trkpt>
      <trkpt lat="51.1412260" lon="7.3736440">
        <ele>299.5900000</ele>
        <time>2010-08-14T11:12:53Z</time>
      </trkpt>
      <trkpt lat="51.1412240" lon="7.3736600">
        <ele>301.9900000</ele>
        <time>2010-08-14T11:19:43Z</time>
      </trkpt>
      <trkpt lat="51.1412260" lon="7.3736950">
        <ele>300.0700000</ele>
        <time>2010-08-14T11:22:55Z</time>
      </trkpt>
      <trkpt lat="51.1412490" lon="7.3735810">
        <ele>298.6300000</ele>
        <time>2010-08-14T11:23:10Z</time>
      </trkpt>
      <trkpt lat="51.1412800" lon="7.3736710">
        <ele>299.1100000</ele>
        <time>2010-08-14T11:23:40Z</time>
      </trkpt>
      <trkpt lat="51.1412290" lon="7.3737330">
        <ele>298.6300000</ele>
        <time>2010-08-14T11:25:00Z</time>
      </trkpt>
      <trkpt lat="51.1412560" lon="7.3737110">
        <ele>303.9100000</ele>
        <time>2010-08-14T11:26:03Z</time>
      </trkpt>
      <trkpt lat="51.1412310" lon="7.3737100">
        <ele>303.4300000</ele>
        <time>2010-08-14T11:26:55Z</time>
      </trkpt>
      <trkpt lat="51.1412520" lon="7.3736190">
        <ele>301.9900000</ele>
        <time>2010-08-14T11:27:40Z</time>
      </trkpt>
      <trkpt lat="51.1412730" lon="7.3736250">
        <ele>293.8200000</ele>
        <time>2010-08-14T11:28:16Z</time>
      </trkpt>
      <trkpt lat="51.1412280" lon="7.3735680">
        <ele>301.0300000</ele>
        <time>2010-08-14T11:28:46Z</time>
      </trkpt>
      <trkpt lat="51.1411810" lon="7.3735700">
        <ele>304.3900000</ele>
        <time>2010-08-14T11:29:23Z</time>
      </trkpt>
      <trkpt lat="51.1411480" lon="7.3736640">
        <ele>283.2500000</ele>
        <time>2010-08-14T11:29:55Z</time>
      </trkpt>
      <trkpt lat="51.1411510" lon="7.3736760">
        <ele>285.6500000</ele>
        <time>2010-08-14T11:30:31Z</time>
      </trkpt>
      <trkpt lat="51.1412200" lon="7.3735750">
        <ele>295.7400000</ele>
        <time>2010-08-14T11:31:35Z</time>
      </trkpt>
      <trkpt lat="51.1411690" lon="7.3734980">
        <ele>311.6000000</ele>
        <time>2010-08-14T11:34:25Z</time>
      </trkpt>
      <trkpt lat="51.1411940" lon="7.3735930">
        <ele>300.0700000</ele>
        <time>2010-08-14T11:35:18Z</time>
      </trkpt>
      <trkpt lat="51.1412100" lon="7.3736150">
        <ele>296.2200000</ele>
        <time>2010-08-14T11:35:41Z</time>
      </trkpt>
      <trkpt lat="51.1411440" lon="7.3735940">
        <ele>303.9100000</ele>
        <time>2010-08-14T11:36:23Z</time>
      </trkpt>
      <trkpt lat="51.1410020" lon="7.3736110">
        <ele>323.1400000</ele>
        <time>2010-08-14T11:37:04Z</time>
      </trkpt>
      <trkpt lat="51.1409760" lon="7.3736160">
        <ele>327.9500000</ele>
        <time>2010-08-14T11:37:25Z</time>
      </trkpt>
      <trkpt lat="51.1410540" lon="7.3736320">
        <ele>323.6200000</ele>
        <time>2010-08-14T11:37:57Z</time>
      </trkpt>
      <trkpt lat="51.1411770" lon="7.3735310">
        <ele>305.3600000</ele>
        <time>2010-08-14T11:38:56Z</time>
      </trkpt>
      <trkpt lat="51.1412440" lon="7.3735700">
        <ele>295.2600000</ele>
        <time>2010-08-14T11:39:24Z</time>
      </trkpt>
      <trkpt lat="51.1412690" lon="7.3735490">
        <ele>297.6700000</ele>
        <time>2010-08-14T11:40:01Z</time>
      </trkpt>
      <trkpt lat="51.1413190" lon="7.3736660">
        <ele>294.3000000</ele>
        <time>2010-08-14T11:40:34Z</time>
      </trkpt>
      <trkpt lat="51.1412710" lon="7.3737620">
        <ele>294.3000000</ele>
        <time>2010-08-14T11:41:01Z</time>
      </trkpt>
      <trkpt lat="51.1413020" lon="7.3738230">
        <ele>301.9900000</ele>
        <time>2010-08-14T11:41:16Z</time>
      </trkpt>
      <trkpt lat="51.1413570" lon="7.3737350">
        <ele>311.1200000</ele>
        <time>2010-08-14T11:42:00Z</time>
      </trkpt>
      <trkpt lat="51.1413480" lon="7.3737760">
        <ele>305.3600000</ele>
        <time>2010-08-14T11:42:29Z</time>
      </trkpt>
      <trkpt lat="51.1413470" lon="7.3737510">
        <ele>302.9500000</ele>
        <time>2010-08-14T11:42:49Z</time>
      </trkpt>
      <trkpt lat="51.1413150" lon="7.3737890">
        <ele>306.3200000</ele>
        <time>2010-08-14T11:43:10Z</time>
      </trkpt>
      <trkpt lat="51.1413350" lon="7.3737410">
        <ele>302.4700000</ele>
        <time>2010-08-14T11:43:31Z</time>
      </trkpt>
      <trkpt lat="51.1413600" lon="7.3737460">
        <ele>305.8400000</ele>
        <time>2010-08-14T11:43:58Z</time>
      </trkpt>
      <trkpt lat="51.1413540" lon="7.3737570">
        <ele>309.6800000</ele>
        <time>2010-08-14T11:44:45Z</time>
      </trkpt>
      <trkpt lat="51.1413890" lon="7.3737690">
        <ele>314.0100000</ele>
        <time>2010-08-14T11:45:09Z</time>
      </trkpt>
      <trkpt lat="51.1413630" lon="7.3737180">
        <ele>314.4900000</ele>
        <time>2010-08-14T11:45:26Z</time>
      </trkpt>
      <trkpt lat="51.1412340" lon="7.3736960">
        <ele>305.3600000</ele>
        <time>2010-08-14T11:46:12Z</time>
      </trkpt>
      <trkpt lat="51.1412170" lon="7.3736740">
        <ele>310.1600000</ele>
        <time>2010-08-14T11:46:59Z</time>
      </trkpt>
      <trkpt lat="51.1412980" lon="7.3738480">
        <ele>292.8600000</ele>
        <time>2010-08-14T11:48:33Z</time>
      </trkpt>
      <trkpt lat="51.1413360" lon="7.3738560">
        <ele>292.8600000</ele>
        <time>2010-08-14T11:48:58Z</time>
      </trkpt>
      <trkpt lat="51.1412620" lon="7.3738030">
        <ele>288.5300000</ele>
        <time>2010-08-14T11:50:12Z</time>
      </trkpt>
      <trkpt lat="51.1412790" lon="7.3738040">
        <ele>299.1100000</ele>
        <time>2010-08-14T11:50:48Z</time>
      </trkpt>
      <trkpt lat="51.1413250" lon="7.3737910">
        <ele>318.3300000</ele>
        <time>2010-08-14T11:51:38Z</time>
      </trkpt>
      <trkpt lat="51.1412960" lon="7.3737130">
        <ele>312.5700000</ele>
        <time>2010-08-14T11:52:12Z</time>
      </trkpt>
      <trkpt lat="51.1415180" lon="7.3738190">
        <ele>347.6500000</ele>
        <time>2010-08-14T11:52:38Z</time>
      </trkpt>
      <trkpt lat="51.1414470" lon="7.3738310">
        <ele>314.9700000</ele>
        <time>2010-08-14T11:53:28Z</time>
      </trkpt>
      <trkpt lat="51.1414350" lon="7.3738130">
        <ele>314.9700000</ele>
        <time>2010-08-14T11:53:51Z</time>
      </trkpt>
      <trkpt lat="51.1414270" lon="7.3738090">
        <ele>316.4100000</ele>
        <time>2010-08-14T11:54:24Z</time>
      </trkpt>
      <trkpt lat="51.1412880" lon="7.3737280">
        <ele>304.8800000</ele>
        <time>2010-08-14T11:55:13Z</time>
      </trkpt>
      <trkpt lat="51.1413530" lon="7.3737790">
        <ele>312.0900000</ele>
        <time>2010-08-14T11:55:39Z</time>
      </trkpt>
      <trkpt lat="51.1413280" lon="7.3737690">
        <ele>316.8900000</ele>
        <time>2010-08-14T11:56:06Z</time>
      </trkpt>
      <trkpt lat="51.1414260" lon="7.3737290">
        <ele>316.4100000</ele>
        <time>2010-08-14T11:56:35Z</time>
      </trkpt>
      <trkpt lat="51.1414690" lon="7.3737600">
        <ele>315.9300000</ele>
        <time>2010-08-14T11:56:36Z</time>
      </trkpt>
      <trkpt lat="51.1415270" lon="7.3738170">
        <ele>316.4100000</ele>
        <time>2010-08-14T11:56:37Z</time>
      </trkpt>
      <trkpt lat="51.1417230" lon="7.3739900">
        <ele>316.8900000</ele>
        <time>2010-08-14T11:56:39Z</time>
      </trkpt>
      <trkpt lat="51.1426360" lon="7.3747320">
        <ele>311.6000000</ele>
        <time>2010-08-14T11:56:46Z</time>
      </trkpt>
      <trkpt lat="51.1427300" lon="7.3748890">
        <ele>311.6000000</ele>
        <time>2010-08-14T11:56:47Z</time>
      </trkpt>
      <trkpt lat="51.1428070" lon="7.3750560">
        <ele>311.1200000</ele>
        <time>2010-08-14T11:56:48Z</time>
      </trkpt>
      <trkpt lat="51.1428640" lon="7.3752230">
        <ele>311.6000000</ele>
        <time>2010-08-14T11:56:49Z</time>
      </trkpt>
      <trkpt lat="51.1429290" lon="7.3753840">
        <ele>311.1200000</ele>
        <time>2010-08-14T11:56:50Z</time>
      </trkpt>
      <trkpt lat="51.1434960" lon="7.3767080">
        <ele>309.6800000</ele>
        <time>2010-08-14T11:56:59Z</time>
      </trkpt>
      <trkpt lat="51.1441760" lon="7.3782800">
        <ele>311.1200000</ele>
        <time>2010-08-14T11:57:08Z</time>
      </trkpt>
      <trkpt lat="51.1449660" lon="7.3798120">
        <ele>311.1200000</ele>
        <time>2010-08-14T11:57:17Z</time>
      </trkpt>
      <trkpt lat="51.1460610" lon="7.3813420">
        <ele>309.2000000</ele>
        <time>2010-08-14T11:57:27Z</time>
      </trkpt>
      <trkpt lat="51.1468700" lon="7.3829300">
        <ele>312.0900000</ele>
        <time>2010-08-14T11:57:36Z</time>
      </trkpt>
      <trkpt lat="51.1476270" lon="7.3844590">
        <ele>315.4500000</ele>
        <time>2010-08-14T11:57:44Z</time>
      </trkpt>
      <trkpt lat="51.1482800" lon="7.3860220">
        <ele>323.6200000</ele>
        <time>2010-08-14T11:57:52Z</time>
      </trkpt>
      <trkpt lat="51.1492420" lon="7.3879260">
        <ele>332.7500000</ele>
        <time>2010-08-14T11:57:58Z</time>
      </trkpt>
      <trkpt lat="51.1503480" lon="7.3897010">
        <ele>340.4400000</ele>
        <time>2010-08-14T11:58:05Z</time>
      </trkpt>
      <trkpt lat="51.1505070" lon="7.3898630">
        <ele>341.8900000</ele>
        <time>2010-08-14T11:58:06Z</time>
      </trkpt>
      <trkpt lat="51.1506600" lon="7.3899950">
        <ele>342.8500000</ele>
        <time>2010-08-14T11:58:07Z</time>
      </trkpt>
      <trkpt lat="51.1508010" lon="7.3900920">
        <ele>343.8100000</ele>
        <time>2010-08-14T11:58:08Z</time>
      </trkpt>
      <trkpt lat="51.1509340" lon="7.3901610">
        <ele>344.2900000</ele>
        <time>2010-08-14T11:58:09Z</time>
      </trkpt>
      <trkpt lat="51.1510600" lon="7.3901970">
        <ele>344.7700000</ele>
        <time>2010-08-14T11:58:10Z</time>
      </trkpt>
      <trkpt lat="51.1511820" lon="7.3902150">
        <ele>344.7700000</ele>
        <time>2010-08-14T11:58:11Z</time>
      </trkpt>
      <trkpt lat="51.1515010" lon="7.3902740">
        <ele>345.7300000</ele>
        <time>2010-08-14T11:58:14Z</time>
      </trkpt>
      <trkpt lat="51.1515720" lon="7.3903050">
        <ele>346.2100000</ele>
        <time>2010-08-14T11:58:15Z</time>
      </trkpt>
      <trkpt lat="51.1516000" lon="7.3903740">
        <ele>346.2100000</ele>
        <time>2010-08-14T11:58:16Z</time>
      </trkpt>
      <trkpt lat="51.1515690" lon="7.3905380">
        <ele>346.6900000</ele>
        <time>2010-08-14T11:58:18Z</time>
      </trkpt>
      <trkpt lat="51.1514920" lon="7.3905950">
        <ele>347.1700000</ele>
        <time>2010-08-14T11:58:19Z</time>
      </trkpt>
      <trkpt lat="51.1513750" lon="7.3906550">
        <ele>348.6200000</ele>
        <time>2010-08-14T11:58:20Z</time>
      </trkpt>
      <trkpt lat="51.1512160" lon="7.3907040">
        <ele>348.6200000</ele>
        <time>2010-08-14T11:58:21Z</time>
      </trkpt>
      <trkpt lat="51.1509940" lon="7.3907570">
        <ele>349.1000000</ele>
        <time>2010-08-14T11:58:22Z</time>
      </trkpt>
      <trkpt lat="51.1507560" lon="7.3908180">
        <ele>349.5800000</ele>
        <time>2010-08-14T11:58:23Z</time>
      </trkpt>
      <trkpt lat="51.1505180" lon="7.3908750">
        <ele>350.5400000</ele>
        <time>2010-08-14T11:58:24Z</time>
      </trkpt>
      <trkpt lat="51.1502960" lon="7.3909330">
        <ele>351.5000000</ele>
        <time>2010-08-14T11:58:25Z</time>
      </trkpt>
      <trkpt lat="51.1496430" lon="7.3912510">
        <ele>352.9400000</ele>
        <time>2010-08-14T11:58:29Z</time>
      </trkpt>
      <trkpt lat="51.1494550" lon="7.3914530">
        <ele>353.4200000</ele>
        <time>2010-08-14T11:58:31Z</time>
      </trkpt>
      <trkpt lat="51.1493470" lon="7.3915950">
        <ele>352.9400000</ele>
        <time>2010-08-14T11:58:33Z</time>
      </trkpt>
      <trkpt lat="51.1493100" lon="7.3916550">
        <ele>352.9400000</ele>
        <time>2010-08-14T11:58:34Z</time>
      </trkpt>
      <trkpt lat="51.1492850" lon="7.3917120">
        <ele>352.4600000</ele>
        <time>2010-08-14T11:58:35Z</time>
      </trkpt>
      <trkpt lat="51.1492790" lon="7.3917810">
        <ele>351.9800000</ele>
        <time>2010-08-14T11:58:36Z</time>
      </trkpt>
      <trkpt lat="51.1493090" lon="7.3918800">
        <ele>352.4600000</ele>
        <time>2010-08-14T11:58:37Z</time>
      </trkpt>
      <trkpt lat="51.1494090" lon="7.3920740">
        <ele>352.9400000</ele>
        <time>2010-08-14T11:58:38Z</time>
      </trkpt>
      <trkpt lat="51.1494790" lon="7.3922660">
        <ele>353.4200000</ele>
        <time>2010-08-14T11:58:39Z</time>
      </trkpt>
      <trkpt lat="51.1495800" lon="7.3924590">
        <ele>353.4200000</ele>
        <time>2010-08-14T11:58:40Z</time>
      </trkpt>
      <trkpt lat="51.1497040" lon="7.3926210">
        <ele>352.4600000</ele>
        <time>2010-08-14T11:58:41Z</time>
      </trkpt>
      <trkpt lat="51.1498240" lon="7.3927440">
        <ele>351.9800000</ele>
        <time>2010-08-14T11:58:42Z</time>
      </trkpt>
      <trkpt lat="51.1499430" lon="7.3928370">
        <ele>352.4600000</ele>
        <time>2010-08-14T11:58:43Z</time>
      </trkpt>
      <trkpt lat="51.1500440" lon="7.3929390">
        <ele>351.9800000</ele>
        <time>2010-08-14T11:58:44Z</time>
      </trkpt>
      <trkpt lat="51.1501170" lon="7.3930900">
        <ele>351.9800000</ele>
        <time>2010-08-14T11:58:45Z</time>
      </trkpt>
      <trkpt lat="51.1501540" lon="7.3932800">
        <ele>351.9800000</ele>
        <time>2010-08-14T11:58:46Z</time>
      </trkpt>
      <trkpt lat="51.1501320" lon="7.3934650">
        <ele>351.5000000</ele>
        <time>2010-08-14T11:58:47Z</time>
      </trkpt>
      <trkpt lat="51.1500870" lon="7.3936510">
        <ele>351.0200000</ele>
        <time>2010-08-14T11:58:48Z</time>
      </trkpt>
      <trkpt lat="51.1500260" lon="7.3938580">
        <ele>351.0200000</ele>
        <time>2010-08-14T11:58:49Z</time>
      </trkpt>
      <trkpt lat="51.1499550" lon="7.3940900">
        <ele>351.0200000</ele>
        <time>2010-08-14T11:58:50Z</time>
      </trkpt>
      <trkpt lat="51.1497450" lon="7.3956610">
        <ele>349.5800000</ele>
        <time>2010-08-14T11:58:56Z</time>
      </trkpt>
      <trkpt lat="51.1498070" lon="7.3958920">
        <ele>350.0600000</ele>
        <time>2010-08-14T11:58:57Z</time>
      </trkpt>
      <trkpt lat="51.1499010" lon="7.3961220">
        <ele>351.0200000</ele>
        <time>2010-08-14T11:58:58Z</time>
      </trkpt>
      <trkpt lat="51.1499790" lon="7.3967850">
        <ele>351.0200000</ele>
        <time>2010-08-14T11:59:01Z</time>
      </trkpt>
      <trkpt lat="51.1499230" lon="7.3970250">
        <ele>351.0200000</ele>
        <time>2010-08-14T11:59:02Z</time>
      </trkpt>
      <trkpt lat="51.1498500" lon="7.3972750">
        <ele>351.0200000</ele>
        <time>2010-08-14T11:59:03Z</time>
      </trkpt>
      <trkpt lat="51.1497150" lon="7.3981320">
        <ele>350.0600000</ele>
        <time>2010-08-14T11:59:07Z</time>
      </trkpt>
      <trkpt lat="51.1497160" lon="7.3983220">
        <ele>349.5800000</ele>
        <time>2010-08-14T11:59:08Z</time>
      </trkpt>
      <trkpt lat="51.1497300" lon="7.3984990">
        <ele>349.1000000</ele>
        <time>2010-08-14T11:59:09Z</time>
      </trkpt>
      <trkpt lat="51.1497580" lon="7.3986780">
        <ele>349.5800000</ele>
        <time>2010-08-14T11:59:10Z</time>
      </trkpt>
      <trkpt lat="51.1497890" lon="7.3988660">
        <ele>349.5800000</ele>
        <time>2010-08-14T11:59:11Z</time>
      </trkpt>
      <trkpt lat="51.1501410" lon="7.4004940">
        <ele>348.1300000</ele>
        <time>2010-08-14T11:59:18Z</time>
      </trkpt>
      <trkpt lat="51.1501870" lon="7.4010110">
        <ele>348.1300000</ele>
        <time>2010-08-14T11:59:20Z</time>
      </trkpt>
      <trkpt lat="51.1501790" lon="7.4012820">
        <ele>348.6200000</ele>
        <time>2010-08-14T11:59:21Z</time>
      </trkpt>
      <trkpt lat="51.1502490" lon="7.4019860">
        <ele>352.4600000</ele>
        <time>2010-08-14T11:59:25Z</time>
      </trkpt>
      <trkpt lat="51.1503110" lon="7.4020300">
        <ele>354.3800000</ele>
        <time>2010-08-14T11:59:26Z</time>
      </trkpt>
      <trkpt lat="51.1503190" lon="7.4020170">
        <ele>355.3400000</ele>
        <time>2010-08-14T11:59:27Z</time>
      </trkpt>
      <trkpt lat="51.1502290" lon="7.4019070">
        <ele>359.6700000</ele>
        <time>2010-08-14T11:59:38Z</time>
      </trkpt>
      <trkpt lat="51.1501320" lon="7.4018210">
        <ele>351.5000000</ele>
        <time>2010-08-14T12:00:33Z</time>
      </trkpt>
      <trkpt lat="51.1501280" lon="7.4018890">
        <ele>354.3800000</ele>
        <time>2010-08-14T12:00:59Z</time>
      </trkpt>
      <trkpt lat="51.1501340" lon="7.4019140">
        <ele>353.9000000</ele>
        <time>2010-08-14T12:01:00Z</time>
      </trkpt>
      <trkpt lat="51.1501540" lon="7.4024870">
        <ele>348.1300000</ele>
        <time>2010-08-14T12:01:09Z</time>
      </trkpt>
      <trkpt lat="51.1501230" lon="7.4036650">
        <ele>349.1000000</ele>
        <time>2010-08-14T12:01:15Z</time>
      </trkpt>
      <trkpt lat="51.1501230" lon="7.4054890">
        <ele>350.5400000</ele>
        <time>2010-08-14T12:01:21Z</time>
      </trkpt>
      <trkpt lat="51.1501830" lon="7.4066180">
        <ele>351.9800000</ele>
        <time>2010-08-14T12:01:25Z</time>
      </trkpt>
      <trkpt lat="51.1502360" lon="7.4068740">
        <ele>352.4600000</ele>
        <time>2010-08-14T12:01:26Z</time>
      </trkpt>
      <trkpt lat="51.1506700" lon="7.4082900">
        <ele>352.9400000</ele>
        <time>2010-08-14T12:01:33Z</time>
      </trkpt>
      <trkpt lat="51.1513200" lon="7.4094970">
        <ele>352.9400000</ele>
        <time>2010-08-14T12:01:40Z</time>
      </trkpt>
      <trkpt lat="51.1521830" lon="7.4105870">
        <ele>348.1300000</ele>
        <time>2010-08-14T12:01:45Z</time>
      </trkpt>
      <trkpt lat="51.1523100" lon="7.4107910">
        <ele>346.6900000</ele>
        <time>2010-08-14T12:01:46Z</time>
      </trkpt>
      <trkpt lat="51.1524240" lon="7.4110200">
        <ele>345.2500000</ele>
        <time>2010-08-14T12:01:47Z</time>
      </trkpt>
      <trkpt lat="51.1525300" lon="7.4112830">
        <ele>344.2900000</ele>
        <time>2010-08-14T12:01:48Z</time>
      </trkpt>
      <trkpt lat="51.1526270" lon="7.4115710">
        <ele>342.8500000</ele>
        <time>2010-08-14T12:01:49Z</time>
      </trkpt>
      <trkpt lat="51.1527320" lon="7.4118620">
        <ele>341.8900000</ele>
        <time>2010-08-14T12:01:50Z</time>
      </trkpt>
      <trkpt lat="51.1528570" lon="7.4121400">
        <ele>340.9200000</ele>
        <time>2010-08-14T12:01:51Z</time>
      </trkpt>
      <trkpt lat="51.1530070" lon="7.4124100">
        <ele>341.4100000</ele>
        <time>2010-08-14T12:01:52Z</time>
      </trkpt>
      <trkpt lat="51.1531740" lon="7.4126860">
        <ele>342.3700000</ele>
        <time>2010-08-14T12:01:53Z</time>
      </trkpt>
      <trkpt lat="51.1545550" lon="7.4148950">
        <ele>346.6900000</ele>
        <time>2010-08-14T12:02:02Z</time>
      </trkpt>
      <trkpt lat="51.1554210" lon="7.4163990">
        <ele>353.4200000</ele>
        <time>2010-08-14T12:02:08Z</time>
      </trkpt>
      <trkpt lat="51.1567000" lon="7.4174230">
        <ele>364.4800000</ele>
        <time>2010-08-14T12:02:14Z</time>
      </trkpt>
      <trkpt lat="51.1571930" lon="7.4177440">
        <ele>367.8400000</ele>
        <time>2010-08-14T12:02:17Z</time>
      </trkpt>
      <trkpt lat="51.1573270" lon="7.4178790">
        <ele>368.8000000</ele>
        <time>2010-08-14T12:02:18Z</time>
      </trkpt>
      <trkpt lat="51.1574590" lon="7.4180440">
        <ele>369.2800000</ele>
        <time>2010-08-14T12:02:19Z</time>
      </trkpt>
      <trkpt lat="51.1575880" lon="7.4182370">
        <ele>370.2400000</ele>
        <time>2010-08-14T12:02:20Z</time>
      </trkpt>
      <trkpt lat="51.1577250" lon="7.4184460">
        <ele>370.7300000</ele>
        <time>2010-08-14T12:02:21Z</time>
      </trkpt>
      <trkpt lat="51.1587190" lon="7.4195610">
        <ele>370.7300000</ele>
        <time>2010-08-14T12:02:26Z</time>
      </trkpt>
      <trkpt lat="51.1602770" lon="7.4212680">
        <ele>367.8400000</ele>
        <time>2010-08-14T12:02:34Z</time>
      </trkpt>
      <trkpt lat="51.1608840" lon="7.4217780">
        <ele>367.3600000</ele>
        <time>2010-08-14T12:02:37Z</time>
      </trkpt>
      <trkpt lat="51.1611310" lon="7.4219110">
        <ele>367.3600000</ele>
        <time>2010-08-14T12:02:38Z</time>
      </trkpt>
      <trkpt lat="51.1628090" lon="7.4224730">
        <ele>364.9600000</ele>
        <time>2010-08-14T12:02:45Z</time>
      </trkpt>
      <trkpt lat="51.1632570" lon="7.4226920">
        <ele>363.5200000</ele>
        <time>2010-08-14T12:02:47Z</time>
      </trkpt>
      <trkpt lat="51.1634710" lon="7.4228700">
        <ele>363.0400000</ele>
        <time>2010-08-14T12:02:48Z</time>
      </trkpt>
      <trkpt lat="51.1651080" lon="7.4237180">
        <ele>361.5900000</ele>
        <time>2010-08-14T12:02:55Z</time>
      </trkpt>
      <trkpt lat="51.1653380" lon="7.4237590">
        <ele>362.0700000</ele>
        <time>2010-08-14T12:02:56Z</time>
      </trkpt>
      <trkpt lat="51.1655710" lon="7.4237740">
        <ele>363.0400000</ele>
        <time>2010-08-14T12:02:57Z</time>
      </trkpt>
      <trkpt lat="51.1666410" lon="7.4238990">
        <ele>365.4400000</ele>
        <time>2010-08-14T12:03:02Z</time>
      </trkpt>
      <trkpt lat="51.1668600" lon="7.4240040">
        <ele>365.4400000</ele>
        <time>2010-08-14T12:03:03Z</time>
      </trkpt>
      <trkpt lat="51.1670830" lon="7.4241300">
        <ele>365.9200000</ele>
        <time>2010-08-14T12:03:04Z</time>
      </trkpt>
      <trkpt lat="51.1673030" lon="7.4242800">
        <ele>365.9200000</ele>
        <time>2010-08-14T12:03:05Z</time>
      </trkpt>
      <trkpt lat="51.1675130" lon="7.4244420">
        <ele>366.4000000</ele>
        <time>2010-08-14T12:03:06Z</time>
      </trkpt>
      <trkpt lat="51.1684430" lon="7.4254270">
        <ele>368.3200000</ele>
        <time>2010-08-14T12:03:12Z</time>
      </trkpt>
      <trkpt lat="51.1694040" lon="7.4261790">
        <ele>374.0900000</ele>
        <time>2010-08-14T12:03:20Z</time>
      </trkpt>
      <trkpt lat="51.1704580" lon="7.4269440">
        <ele>377.4500000</ele>
        <time>2010-08-14T12:03:30Z</time>
      </trkpt>
      <trkpt lat="51.1709180" lon="7.4273090">
        <ele>377.9400000</ele>
        <time>2010-08-14T12:03:38Z</time>
      </trkpt>
      <trkpt lat="51.1711740" lon="7.4275190">
        <ele>376.9700000</ele>
        <time>2010-08-14T12:03:51Z</time>
      </trkpt>
      <trkpt lat="51.1714730" lon="7.4277240">
        <ele>378.4200000</ele>
        <time>2010-08-14T12:03:56Z</time>
      </trkpt>
      <trkpt lat="51.1716050" lon="7.4277830">
        <ele>378.9000000</ele>
        <time>2010-08-14T12:03:57Z</time>
      </trkpt>
      <trkpt lat="51.1717790" lon="7.4278190">
        <ele>379.8600000</ele>
        <time>2010-08-14T12:03:58Z</time>
      </trkpt>
      <trkpt lat="51.1719750" lon="7.4278350">
        <ele>380.8200000</ele>
        <time>2010-08-14T12:03:59Z</time>
      </trkpt>
      <trkpt lat="51.1721690" lon="7.4278490">
        <ele>382.7400000</ele>
        <time>2010-08-14T12:04:00Z</time>
      </trkpt>
      <trkpt lat="51.1731460" lon="7.4278020">
        <ele>387.5500000</ele>
        <time>2010-08-14T12:04:06Z</time>
      </trkpt>
      <trkpt lat="51.1733110" lon="7.4276900">
        <ele>388.5100000</ele>
        <time>2010-08-14T12:04:07Z</time>
      </trkpt>
      <trkpt lat="51.1734670" lon="7.4275250">
        <ele>389.4700000</ele>
        <time>2010-08-14T12:04:08Z</time>
      </trkpt>
      <trkpt lat="51.1736330" lon="7.4273020">
        <ele>389.9500000</ele>
        <time>2010-08-14T12:04:09Z</time>
      </trkpt>
      <trkpt lat="51.1738080" lon="7.4270880">
        <ele>390.4300000</ele>
        <time>2010-08-14T12:04:10Z</time>
      </trkpt>
      <trkpt lat="51.1742230" lon="7.4267120">
        <ele>390.9100000</ele>
        <time>2010-08-14T12:04:12Z</time>
      </trkpt>
      <trkpt lat="51.1744460" lon="7.4265620">
        <ele>391.8700000</ele>
        <time>2010-08-14T12:04:13Z</time>
      </trkpt>
      <trkpt lat="51.1746830" lon="7.4264280">
        <ele>393.3200000</ele>
        <time>2010-08-14T12:04:14Z</time>
      </trkpt>
      <trkpt lat="51.1749280" lon="7.4263120">
        <ele>393.8000000</ele>
        <time>2010-08-14T12:04:15Z</time>
      </trkpt>
      <trkpt lat="51.1751570" lon="7.4262170">
        <ele>394.7600000</ele>
        <time>2010-08-14T12:04:16Z</time>
      </trkpt>
      <trkpt lat="51.1758120" lon="7.4259880">
        <ele>395.7200000</ele>
        <time>2010-08-14T12:04:20Z</time>
      </trkpt>
      <trkpt lat="51.1759180" lon="7.4259960">
        <ele>395.2400000</ele>
        <time>2010-08-14T12:04:21Z</time>
      </trkpt>
      <trkpt lat="51.1760290" lon="7.4260780">
        <ele>395.2400000</ele>
        <time>2010-08-14T12:04:22Z</time>
      </trkpt>
      <trkpt lat="51.1761520" lon="7.4262060">
        <ele>394.7600000</ele>
        <time>2010-08-14T12:04:23Z</time>
      </trkpt>
      <trkpt lat="51.1762890" lon="7.4263570">
        <ele>395.2400000</ele>
        <time>2010-08-14T12:04:24Z</time>
      </trkpt>
      <trkpt lat="51.1764180" lon="7.4265160">
        <ele>396.2000000</ele>
        <time>2010-08-14T12:04:25Z</time>
      </trkpt>
      <trkpt lat="51.1765340" lon="7.4266730">
        <ele>397.1600000</ele>
        <time>2010-08-14T12:04:26Z</time>
      </trkpt>
      <trkpt lat="51.1773520" lon="7.4279290">
        <ele>398.6000000</ele>
        <time>2010-08-14T12:04:33Z</time>
      </trkpt>
      <trkpt lat="51.1780420" lon="7.4301810">
        <ele>400.0500000</ele>
        <time>2010-08-14T12:04:40Z</time>
      </trkpt>
      <trkpt lat="51.1782300" lon="7.4315370">
        <ele>399.5700000</ele>
        <time>2010-08-14T12:04:44Z</time>
      </trkpt>
      <trkpt lat="51.1783050" lon="7.4318180">
        <ele>398.6000000</ele>
        <time>2010-08-14T12:04:45Z</time>
      </trkpt>
      <trkpt lat="51.1784150" lon="7.4320610">
        <ele>397.6400000</ele>
        <time>2010-08-14T12:04:46Z</time>
      </trkpt>
      <trkpt lat="51.1785530" lon="7.4322880">
        <ele>396.6800000</ele>
        <time>2010-08-14T12:04:47Z</time>
      </trkpt>
      <trkpt lat="51.1787340" lon="7.4325120">
        <ele>395.7200000</ele>
        <time>2010-08-14T12:04:48Z</time>
      </trkpt>
      <trkpt lat="51.1789480" lon="7.4327640">
        <ele>393.8000000</ele>
        <time>2010-08-14T12:04:49Z</time>
      </trkpt>
      <trkpt lat="51.1791450" lon="7.4330250">
        <ele>392.3600000</ele>
        <time>2010-08-14T12:04:50Z</time>
      </trkpt>
      <trkpt lat="51.1793200" lon="7.4332880">
        <ele>391.3900000</ele>
        <time>2010-08-14T12:04:51Z</time>
      </trkpt>
      <trkpt lat="51.1794770" lon="7.4335310">
        <ele>390.4300000</ele>
        <time>2010-08-14T12:04:52Z</time>
      </trkpt>
      <trkpt lat="51.1804950" lon="7.4346200">
        <ele>385.6300000</ele>
        <time>2010-08-14T12:04:58Z</time>
      </trkpt>
      <trkpt lat="51.1811900" lon="7.4354320">
        <ele>383.2200000</ele>
        <time>2010-08-14T12:05:02Z</time>
      </trkpt>
      <trkpt lat="51.1813580" lon="7.4355740">
        <ele>382.7400000</ele>
        <time>2010-08-14T12:05:03Z</time>
      </trkpt>
      <trkpt lat="51.1815510" lon="7.4356530">
        <ele>382.2600000</ele>
        <time>2010-08-14T12:05:04Z</time>
      </trkpt>
      <trkpt lat="51.1817460" lon="7.4357240">
        <ele>382.2600000</ele>
        <time>2010-08-14T12:05:05Z</time>
      </trkpt>
      <trkpt lat="51.1819230" lon="7.4358020">
        <ele>381.7800000</ele>
        <time>2010-08-14T12:05:06Z</time>
      </trkpt>
      <trkpt lat="51.1820740" lon="7.4359230">
        <ele>381.3000000</ele>
        <time>2010-08-14T12:05:07Z</time>
      </trkpt>
      <trkpt lat="51.1821840" lon="7.4361100">
        <ele>381.3000000</ele>
        <time>2010-08-14T12:05:08Z</time>
      </trkpt>
      <trkpt lat="51.1822580" lon="7.4363610">
        <ele>381.7800000</ele>
        <time>2010-08-14T12:05:09Z</time>
      </trkpt>
      <trkpt lat="51.1823330" lon="7.4366140">
        <ele>381.7800000</ele>
        <time>2010-08-14T12:05:10Z</time>
      </trkpt>
      <trkpt lat="51.1823840" lon="7.4368550">
        <ele>382.2600000</ele>
        <time>2010-08-14T12:05:11Z</time>
      </trkpt>
      <trkpt lat="51.1824010" lon="7.4370600">
        <ele>382.2600000</ele>
        <time>2010-08-14T12:05:12Z</time>
      </trkpt>
      <trkpt lat="51.1823730" lon="7.4372470">
        <ele>381.7800000</ele>
        <time>2010-08-14T12:05:13Z</time>
      </trkpt>
      <trkpt lat="51.1822940" lon="7.4374220">
        <ele>381.7800000</ele>
        <time>2010-08-14T12:05:14Z</time>
      </trkpt>
      <trkpt lat="51.1821640" lon="7.4376190">
        <ele>382.7400000</ele>
        <time>2010-08-14T12:05:15Z</time>
      </trkpt>
      <trkpt lat="51.1819830" lon="7.4377720">
        <ele>382.7400000</ele>
        <time>2010-08-14T12:05:16Z</time>
      </trkpt>
      <trkpt lat="51.1817730" lon="7.4379940">
        <ele>382.7400000</ele>
        <time>2010-08-14T12:05:17Z</time>
      </trkpt>
      <trkpt lat="51.1815590" lon="7.4382730">
        <ele>382.7400000</ele>
        <time>2010-08-14T12:05:18Z</time>
      </trkpt>
      <trkpt lat="51.1810000" lon="7.4394660">
        <ele>387.5500000</ele>
        <time>2010-08-14T12:05:23Z</time>
      </trkpt>
      <trkpt lat="51.1810060" lon="7.4395900">
        <ele>388.0300000</ele>
        <time>2010-08-14T12:05:24Z</time>
      </trkpt>
      <trkpt lat="51.1810690" lon="7.4396840">
        <ele>388.9900000</ele>
        <time>2010-08-14T12:05:25Z</time>
      </trkpt>
      <trkpt lat="51.1811750" lon="7.4397790">
        <ele>389.4700000</ele>
        <time>2010-08-14T12:05:26Z</time>
      </trkpt>
      <trkpt lat="51.1813260" lon="7.4399050">
        <ele>389.9500000</ele>
        <time>2010-08-14T12:05:27Z</time>
      </trkpt>
      <trkpt lat="51.1814960" lon="7.4400560">
        <ele>389.4700000</ele>
        <time>2010-08-14T12:05:28Z</time>
      </trkpt>
      <trkpt lat="51.1816870" lon="7.4402500">
        <ele>388.9900000</ele>
        <time>2010-08-14T12:05:29Z</time>
      </trkpt>
      <trkpt lat="51.1825520" lon="7.4413340">
        <ele>387.5500000</ele>
        <time>2010-08-14T12:05:34Z</time>
      </trkpt>
      <trkpt lat="51.1828730" lon="7.4419670">
        <ele>385.1500000</ele>
        <time>2010-08-14T12:05:39Z</time>
      </trkpt>
      <trkpt lat="51.1829270" lon="7.4420560">
        <ele>385.1500000</ele>
        <time>2010-08-14T12:05:44Z</time>
      </trkpt>
      <trkpt lat="51.1829680" lon="7.4420580">
        <ele>385.6300000</ele>
        <time>2010-08-14T12:05:45Z</time>
      </trkpt>
      <trkpt lat="51.1830300" lon="7.4420420">
        <ele>385.6300000</ele>
        <time>2010-08-14T12:05:46Z</time>
      </trkpt>
      <trkpt lat="51.1832390" lon="7.4419490">
        <ele>386.5900000</ele>
        <time>2010-08-14T12:05:48Z</time>
      </trkpt>
      <trkpt lat="51.1839290" lon="7.4419340">
        <ele>388.5100000</ele>
        <time>2010-08-14T12:05:54Z</time>
      </trkpt>
      <trkpt lat="51.1841000" lon="7.4419700">
        <ele>388.5100000</ele>
        <time>2010-08-14T12:05:55Z</time>
      </trkpt>
      <trkpt lat="51.1842670" lon="7.4419710">
        <ele>389.4700000</ele>
        <time>2010-08-14T12:05:56Z</time>
      </trkpt>
      <trkpt lat="51.1853700" lon="7.4419690">
        <ele>394.2800000</ele>
        <time>2010-08-14T12:06:03Z</time>
      </trkpt>
      <trkpt lat="51.1855440" lon="7.4419450">
        <ele>395.2400000</ele>
        <time>2010-08-14T12:06:04Z</time>
      </trkpt>
      <trkpt lat="51.1857070" lon="7.4418870">
        <ele>395.7200000</ele>
        <time>2010-08-14T12:06:05Z</time>
      </trkpt>
      <trkpt lat="51.1858510" lon="7.4417910">
        <ele>396.2000000</ele>
        <time>2010-08-14T12:06:06Z</time>
      </trkpt>
      <trkpt lat="51.1859980" lon="7.4416870">
        <ele>396.6800000</ele>
        <time>2010-08-14T12:06:07Z</time>
      </trkpt>
      <trkpt lat="51.1861460" lon="7.4415710">
        <ele>396.6800000</ele>
        <time>2010-08-14T12:06:08Z</time>
      </trkpt>
      <trkpt lat="51.1875850" lon="7.4404510">
        <ele>397.6400000</ele>
        <time>2010-08-14T12:06:17Z</time>
      </trkpt>
      <trkpt lat="51.1887290" lon="7.4397990">
        <ele>396.6800000</ele>
        <time>2010-08-14T12:06:24Z</time>
      </trkpt>
      <trkpt lat="51.1888960" lon="7.4396250">
        <ele>395.2400000</ele>
        <time>2010-08-14T12:06:25Z</time>
      </trkpt>
      <trkpt lat="51.1899060" lon="7.4384370">
        <ele>386.1100000</ele>
        <time>2010-08-14T12:06:32Z</time>
      </trkpt>
      <trkpt lat="51.1900510" lon="7.4383220">
        <ele>385.1500000</ele>
        <time>2010-08-14T12:06:33Z</time>
      </trkpt>
      <trkpt lat="51.1901960" lon="7.4382600">
        <ele>383.7000000</ele>
        <time>2010-08-14T12:06:34Z</time>
      </trkpt>
      <trkpt lat="51.1903660" lon="7.4382650">
        <ele>382.2600000</ele>
        <time>2010-08-14T12:06:35Z</time>
      </trkpt>
      <trkpt lat="51.1905430" lon="7.4383290">
        <ele>380.8200000</ele>
        <time>2010-08-14T12:06:36Z</time>
      </trkpt>
      <trkpt lat="51.1907040" lon="7.4384220">
        <ele>379.3800000</ele>
        <time>2010-08-14T12:06:37Z</time>
      </trkpt>
      <trkpt lat="51.1908490" lon="7.4385720">
        <ele>378.4200000</ele>
        <time>2010-08-14T12:06:38Z</time>
      </trkpt>
      <trkpt lat="51.1909820" lon="7.4388010">
        <ele>376.9700000</ele>
        <time>2010-08-14T12:06:39Z</time>
      </trkpt>
      <trkpt lat="51.1910960" lon="7.4390740">
        <ele>375.0500000</ele>
        <time>2010-08-14T12:06:40Z</time>
      </trkpt>
      <trkpt lat="51.1911830" lon="7.4393380">
        <ele>373.6100000</ele>
        <time>2010-08-14T12:06:41Z</time>
      </trkpt>
      <trkpt lat="51.1912640" lon="7.4396540">
        <ele>373.1300000</ele>
        <time>2010-08-14T12:06:42Z</time>
      </trkpt>
      <trkpt lat="51.1913420" lon="7.4399480">
        <ele>372.1700000</ele>
        <time>2010-08-14T12:06:43Z</time>
      </trkpt>
      <trkpt lat="51.1915220" lon="7.4407170">
        <ele>369.7600000</ele>
        <time>2010-08-14T12:06:46Z</time>
      </trkpt>
      <trkpt lat="51.1915310" lon="7.4409310">
        <ele>368.8000000</ele>
        <time>2010-08-14T12:06:47Z</time>
      </trkpt>
      <trkpt lat="51.1915110" lon="7.4410710">
        <ele>368.8000000</ele>
        <time>2010-08-14T12:06:48Z</time>
      </trkpt>
      <trkpt lat="51.1915200" lon="7.4411620">
        <ele>368.3200000</ele>
        <time>2010-08-14T12:06:49Z</time>
      </trkpt>
      <trkpt lat="51.1915460" lon="7.4411960">
        <ele>368.8000000</ele>
        <time>2010-08-14T12:06:50Z</time>
      </trkpt>
      <trkpt lat="51.1915910" lon="7.4412420">
        <ele>368.8000000</ele>
        <time>2010-08-14T12:06:51Z</time>
      </trkpt>
      <trkpt lat="51.1916400" lon="7.4412550">
        <ele>369.2800000</ele>
        <time>2010-08-14T12:06:52Z</time>
      </trkpt>
      <trkpt lat="51.1916860" lon="7.4412780">
        <ele>370.2400000</ele>
        <time>2010-08-14T12:06:53Z</time>
      </trkpt>
      <trkpt lat="51.1917350" lon="7.4413430">
        <ele>370.2400000</ele>
        <time>2010-08-14T12:06:54Z</time>
      </trkpt>
      <trkpt lat="51.1917740" lon="7.4414810">
        <ele>369.7600000</ele>
        <time>2010-08-14T12:06:55Z</time>
      </trkpt>
      <trkpt lat="51.1918290" lon="7.4416870">
        <ele>369.7600000</ele>
        <time>2010-08-14T12:06:56Z</time>
      </trkpt>
      <trkpt lat="51.1920580" lon="7.4425750">
        <ele>368.8000000</ele>
        <time>2010-08-14T12:06:59Z</time>
      </trkpt>
      <trkpt lat="51.1924320" lon="7.4453080">
        <ele>361.5900000</ele>
        <time>2010-08-14T12:07:07Z</time>
      </trkpt>
      <trkpt lat="51.1929770" lon="7.4497240">
        <ele>350.0600000</ele>
        <time>2010-08-14T12:07:19Z</time>
      </trkpt>
      <trkpt lat="51.1931080" lon="7.4526410">
        <ele>341.8900000</ele>
        <time>2010-08-14T12:07:27Z</time>
      </trkpt>
      <trkpt lat="51.1929990" lon="7.4542870">
        <ele>337.5600000</ele>
        <time>2010-08-14T12:07:33Z</time>
      </trkpt>
      <trkpt lat="51.1929120" lon="7.4550800">
        <ele>335.6400000</ele>
        <time>2010-08-14T12:07:40Z</time>
      </trkpt>
      <trkpt lat="51.1929100" lon="7.4552260">
        <ele>335.1600000</ele>
        <time>2010-08-14T12:07:44Z</time>
      </trkpt>
      <trkpt lat="51.1929340" lon="7.4552920">
        <ele>334.6800000</ele>
        <time>2010-08-14T12:07:45Z</time>
      </trkpt>
      <trkpt lat="51.1929810" lon="7.4553500">
        <ele>334.2000000</ele>
        <time>2010-08-14T12:07:46Z</time>
      </trkpt>
      <trkpt lat="51.1930660" lon="7.4553110">
        <ele>334.2000000</ele>
        <time>2010-08-14T12:07:47Z</time>
      </trkpt>
      <trkpt lat="51.1931680" lon="7.4552980">
        <ele>333.7100000</ele>
        <time>2010-08-14T12:07:48Z</time>
      </trkpt>
      <trkpt lat="51.1932960" lon="7.4552750">
        <ele>333.7100000</ele>
        <time>2010-08-14T12:07:49Z</time>
      </trkpt>
      <trkpt lat="51.1934540" lon="7.4552340">
        <ele>333.2300000</ele>
        <time>2010-08-14T12:07:50Z</time>
      </trkpt>
      <trkpt lat="51.1936210" lon="7.4551820">
        <ele>333.2300000</ele>
        <time>2010-08-14T12:07:51Z</time>
      </trkpt>
      <trkpt lat="51.1951160" lon="7.4547370">
        <ele>332.7500000</ele>
        <time>2010-08-14T12:07:59Z</time>
      </trkpt>
      <trkpt lat="51.1963470" lon="7.4544310">
        <ele>331.7900000</ele>
        <time>2010-08-14T12:08:06Z</time>
      </trkpt>
      <trkpt lat="51.1965230" lon="7.4544500">
        <ele>331.7900000</ele>
        <time>2010-08-14T12:08:07Z</time>
      </trkpt>
      <trkpt lat="51.1966960" lon="7.4545030">
        <ele>331.7900000</ele>
        <time>2010-08-14T12:08:08Z</time>
      </trkpt>
      <trkpt lat="51.1968610" lon="7.4546220">
        <ele>331.3100000</ele>
        <time>2010-08-14T12:08:09Z</time>
      </trkpt>
      <trkpt lat="51.1970060" lon="7.4547670">
        <ele>330.8300000</ele>
        <time>2010-08-14T12:08:10Z</time>
      </trkpt>
      <trkpt lat="51.1971250" lon="7.4549340">
        <ele>330.8300000</ele>
        <time>2010-08-14T12:08:11Z</time>
      </trkpt>
      <trkpt lat="51.1972240" lon="7.4551260">
        <ele>330.3500000</ele>
        <time>2010-08-14T12:08:12Z</time>
      </trkpt>
      <trkpt lat="51.1973070" lon="7.4553370">
        <ele>330.8300000</ele>
        <time>2010-08-14T12:08:13Z</time>
      </trkpt>
      <trkpt lat="51.1973790" lon="7.4555250">
        <ele>330.3500000</ele>
        <time>2010-08-14T12:08:14Z</time>
      </trkpt>
      <trkpt lat="51.1974780" lon="7.4558380">
        <ele>329.8700000</ele>
        <time>2010-08-14T12:08:16Z</time>
      </trkpt>
      <trkpt lat="51.1974940" lon="7.4559800">
        <ele>329.8700000</ele>
        <time>2010-08-14T12:08:17Z</time>
      </trkpt>
      <trkpt lat="51.1975800" lon="7.4566480">
        <ele>329.3900000</ele>
        <time>2010-08-14T12:08:22Z</time>
      </trkpt>
      <trkpt lat="51.1975700" lon="7.4567650">
        <ele>328.9100000</ele>
        <time>2010-08-14T12:08:23Z</time>
      </trkpt>
      <trkpt lat="51.1975470" lon="7.4568790">
        <ele>328.4300000</ele>
        <time>2010-08-14T12:08:24Z</time>
      </trkpt>
      <trkpt lat="51.1974970" lon="7.4570020">
        <ele>328.4300000</ele>
        <time>2010-08-14T12:08:25Z</time>
      </trkpt>
      <trkpt lat="51.1974210" lon="7.4571450">
        <ele>328.4300000</ele>
        <time>2010-08-14T12:08:26Z</time>
      </trkpt>
      <trkpt lat="51.1973620" lon="7.4573020">
        <ele>329.8700000</ele>
        <time>2010-08-14T12:08:27Z</time>
      </trkpt>
      <trkpt lat="51.1973000" lon="7.4574580">
        <ele>330.8300000</ele>
        <time>2010-08-14T12:08:28Z</time>
      </trkpt>
      <trkpt lat="51.1972070" lon="7.4578760">
        <ele>333.7100000</ele>
        <time>2010-08-14T12:08:30Z</time>
      </trkpt>
      <trkpt lat="51.1972070" lon="7.4581420">
        <ele>335.1600000</ele>
        <time>2010-08-14T12:08:31Z</time>
      </trkpt>
      <trkpt lat="51.1972350" lon="7.4584470">
        <ele>335.6400000</ele>
        <time>2010-08-14T12:08:32Z</time>
      </trkpt>
      <trkpt lat="51.1972790" lon="7.4587730">
        <ele>336.6000000</ele>
        <time>2010-08-14T12:08:33Z</time>
      </trkpt>
      <trkpt lat="51.1973120" lon="7.4590880">
        <ele>337.5600000</ele>
        <time>2010-08-14T12:08:34Z</time>
      </trkpt>
      <trkpt lat="51.1974240" lon="7.4614060">
        <ele>346.6900000</ele>
        <time>2010-08-14T12:08:42Z</time>
      </trkpt>
      <trkpt lat="51.1976750" lon="7.4635860">
        <ele>351.0200000</ele>
        <time>2010-08-14T12:08:49Z</time>
      </trkpt>
      <trkpt lat="51.1980290" lon="7.4661790">
        <ele>349.5800000</ele>
        <time>2010-08-14T12:08:58Z</time>
      </trkpt>
      <trkpt lat="51.1985020" lon="7.4679030">
        <ele>344.7700000</ele>
        <time>2010-08-14T12:09:04Z</time>
      </trkpt>
      <trkpt lat="51.1989370" lon="7.4700540">
        <ele>343.8100000</ele>
        <time>2010-08-14T12:09:10Z</time>
      </trkpt>
      <trkpt lat="51.1996780" lon="7.4725880">
        <ele>346.6900000</ele>
        <time>2010-08-14T12:09:17Z</time>
      </trkpt>
      <trkpt lat="51.2003980" lon="7.4746990">
        <ele>351.9800000</ele>
        <time>2010-08-14T12:09:24Z</time>
      </trkpt>
      <trkpt lat="51.2011340" lon="7.4768890">
        <ele>355.8300000</ele>
        <time>2010-08-14T12:09:32Z</time>
      </trkpt>
      <trkpt lat="51.2013800" lon="7.4788880">
        <ele>360.1500000</ele>
        <time>2010-08-14T12:09:38Z</time>
      </trkpt>
      <trkpt lat="51.2014370" lon="7.4807740">
        <ele>361.5900000</ele>
        <time>2010-08-14T12:09:44Z</time>
      </trkpt>
      <trkpt lat="51.2013750" lon="7.4809170">
        <ele>362.5500000</ele>
        <time>2010-08-14T12:09:45Z</time>
      </trkpt>
      <trkpt lat="51.2012890" lon="7.4810930">
        <ele>363.5200000</ele>
        <time>2010-08-14T12:09:46Z</time>
      </trkpt>
      <trkpt lat="51.2011620" lon="7.4812030">
        <ele>363.5200000</ele>
        <time>2010-08-14T12:09:47Z</time>
      </trkpt>
      <trkpt lat="51.2009870" lon="7.4812310">
        <ele>364.4800000</ele>
        <time>2010-08-14T12:09:48Z</time>
      </trkpt>
      <trkpt lat="51.2007980" lon="7.4812200">
        <ele>365.4400000</ele>
        <time>2010-08-14T12:09:49Z</time>
      </trkpt>
      <trkpt lat="51.2006120" lon="7.4811950">
        <ele>366.4000000</ele>
        <time>2010-08-14T12:09:50Z</time>
      </trkpt>
      <trkpt lat="51.2004320" lon="7.4811560">
        <ele>366.8800000</ele>
        <time>2010-08-14T12:09:51Z</time>
      </trkpt>
      <trkpt lat="51.2002050" lon="7.4810840">
        <ele>367.3600000</ele>
        <time>2010-08-14T12:09:52Z</time>
      </trkpt>
      <trkpt lat="51.1999860" lon="7.4810400">
        <ele>367.8400000</ele>
        <time>2010-08-14T12:09:53Z</time>
      </trkpt>
      <trkpt lat="51.1995950" lon="7.4810540">
        <ele>368.3200000</ele>
        <time>2010-08-14T12:09:55Z</time>
      </trkpt>
      <trkpt lat="51.1993980" lon="7.4811000">
        <ele>369.2800000</ele>
        <time>2010-08-14T12:09:56Z</time>
      </trkpt>
      <trkpt lat="51.1981450" lon="7.4819400">
        <ele>371.2100000</ele>
        <time>2010-08-14T12:10:03Z</time>
      </trkpt>
      <trkpt lat="51.1973920" lon="7.4829800">
        <ele>373.6100000</ele>
        <time>2010-08-14T12:10:09Z</time>
      </trkpt>
      <trkpt lat="51.1973080" lon="7.4831660">
        <ele>373.6100000</ele>
        <time>2010-08-14T12:10:10Z</time>
      </trkpt>
      <trkpt lat="51.1969670" lon="7.4840590">
        <ele>375.5300000</ele>
        <time>2010-08-14T12:10:16Z</time>
      </trkpt>
      <trkpt lat="51.1969760" lon="7.4841520">
        <ele>375.5300000</ele>
        <time>2010-08-14T12:10:17Z</time>
      </trkpt>
      <trkpt lat="51.1970120" lon="7.4842450">
        <ele>375.0500000</ele>
        <time>2010-08-14T12:10:18Z</time>
      </trkpt>
      <trkpt lat="51.1971040" lon="7.4843450">
        <ele>375.0500000</ele>
        <time>2010-08-14T12:10:19Z</time>
      </trkpt>
      <trkpt lat="51.1972050" lon="7.4844490">
        <ele>374.0900000</ele>
        <time>2010-08-14T12:10:20Z</time>
      </trkpt>
      <trkpt lat="51.1973300" lon="7.4844950">
        <ele>374.0900000</ele>
        <time>2010-08-14T12:10:21Z</time>
      </trkpt>
      <trkpt lat="51.1974530" lon="7.4844910">
        <ele>374.0900000</ele>
        <time>2010-08-14T12:10:22Z</time>
      </trkpt>
      <trkpt lat="51.1975840" lon="7.4844780">
        <ele>373.6100000</ele>
        <time>2010-08-14T12:10:23Z</time>
      </trkpt>
      <trkpt lat="51.1976960" lon="7.4844280">
        <ele>373.6100000</ele>
        <time>2010-08-14T12:10:24Z</time>
      </trkpt>
      <trkpt lat="51.1979240" lon="7.4843600">
        <ele>372.1700000</ele>
        <time>2010-08-14T12:10:27Z</time>
      </trkpt>
      <trkpt lat="51.1979700" lon="7.4844720">
        <ele>371.6900000</ele>
        <time>2010-08-14T12:10:28Z</time>
      </trkpt>
      <trkpt lat="51.1980310" lon="7.4846180">
        <ele>371.6900000</ele>
        <time>2010-08-14T12:10:29Z</time>
      </trkpt>
      <trkpt lat="51.1981060" lon="7.4847850">
        <ele>372.1700000</ele>
        <time>2010-08-14T12:10:30Z</time>
      </trkpt>
      <trkpt lat="51.1982170" lon="7.4849900">
        <ele>373.1300000</ele>
        <time>2010-08-14T12:10:31Z</time>
      </trkpt>
      <trkpt lat="51.1990810" lon="7.4865410">
        <ele>383.2200000</ele>
        <time>2010-08-14T12:10:38Z</time>
      </trkpt>
      <trkpt lat="51.1995570" lon="7.4871480">
        <ele>389.4700000</ele>
        <time>2010-08-14T12:10:42Z</time>
      </trkpt>
      <trkpt lat="51.1998570" lon="7.4875000">
        <ele>391.8700000</ele>
        <time>2010-08-14T12:10:47Z</time>
      </trkpt>
      <trkpt lat="51.1998900" lon="7.4875820">
        <ele>391.8700000</ele>
        <time>2010-08-14T12:10:48Z</time>
      </trkpt>
      <trkpt lat="51.1999120" lon="7.4876760">
        <ele>391.8700000</ele>
        <time>2010-08-14T12:10:49Z</time>
      </trkpt>
      <trkpt lat="51.1999250" lon="7.4877740">
        <ele>391.8700000</ele>
        <time>2010-08-14T12:10:50Z</time>
      </trkpt>
      <trkpt lat="51.1999290" lon="7.4878550">
        <ele>392.3600000</ele>
        <time>2010-08-14T12:10:51Z</time>
      </trkpt>
      <trkpt lat="51.1999650" lon="7.4879960">
        <ele>391.8700000</ele>
        <time>2010-08-14T12:10:54Z</time>
      </trkpt>
      <trkpt lat="51.2000230" lon="7.4879970">
        <ele>391.8700000</ele>
        <time>2010-08-14T12:10:55Z</time>
      </trkpt>
      <trkpt lat="51.2001080" lon="7.4879600">
        <ele>392.3600000</ele>
        <time>2010-08-14T12:10:56Z</time>
      </trkpt>
      <trkpt lat="51.2002160" lon="7.4879570">
        <ele>392.8400000</ele>
        <time>2010-08-14T12:10:57Z</time>
      </trkpt>
      <trkpt lat="51.2003740" lon="7.4879350">
        <ele>393.3200000</ele>
        <time>2010-08-14T12:10:58Z</time>
      </trkpt>
      <trkpt lat="51.2007820" lon="7.4879730">
        <ele>393.8000000</ele>
        <time>2010-08-14T12:11:00Z</time>
      </trkpt>
      <trkpt lat="51.2010050" lon="7.4880450">
        <ele>393.3200000</ele>
        <time>2010-08-14T12:11:01Z</time>
      </trkpt>
      <trkpt lat="51.2012300" lon="7.4881530">
        <ele>393.3200000</ele>
        <time>2010-08-14T12:11:02Z</time>
      </trkpt>
      <trkpt lat="51.2016470" lon="7.4883920">
        <ele>393.8000000</ele>
        <time>2010-08-14T12:11:04Z</time>
      </trkpt>
      <trkpt lat="51.2018210" lon="7.4885320">
        <ele>393.8000000</ele>
        <time>2010-08-14T12:11:05Z</time>
      </trkpt>
      <trkpt lat="51.2032230" lon="7.4898700">
        <ele>400.0500000</ele>
        <time>2010-08-14T12:11:12Z</time>
      </trkpt>
      <trkpt lat="51.2048270" lon="7.4910030">
        <ele>408.7000000</ele>
        <time>2010-08-14T12:11:19Z</time>
      </trkpt>
      <trkpt lat="51.2050460" lon="7.4910320">
        <ele>409.1800000</ele>
        <time>2010-08-14T12:11:20Z</time>
      </trkpt>
      <trkpt lat="51.2053280" lon="7.4909300">
        <ele>409.1800000</ele>
        <time>2010-08-14T12:11:21Z</time>
      </trkpt>
      <trkpt lat="51.2055760" lon="7.4909220">
        <ele>408.7000000</ele>
        <time>2010-08-14T12:11:22Z</time>
      </trkpt>
      <trkpt lat="51.2059050" lon="7.4908990">
        <ele>408.7000000</ele>
        <time>2010-08-14T12:11:23Z</time>
      </trkpt>
      <trkpt lat="51.2061870" lon="7.4906800">
        <ele>409.1800000</ele>
        <time>2010-08-14T12:11:24Z</time>
      </trkpt>
      <trkpt lat="51.2063420" lon="7.4903250">
        <ele>410.1400000</ele>
        <time>2010-08-14T12:11:25Z</time>
      </trkpt>
      <trkpt lat="51.2064960" lon="7.4900550">
        <ele>411.1000000</ele>
        <time>2010-08-14T12:11:26Z</time>
      </trkpt>
      <trkpt lat="51.2066310" lon="7.4897690">
        <ele>413.0200000</ele>
        <time>2010-08-14T12:11:27Z</time>
      </trkpt>
      <trkpt lat="51.2067740" lon="7.4894980">
        <ele>413.5000000</ele>
        <time>2010-08-14T12:11:28Z</time>
      </trkpt>
      <trkpt lat="51.2079950" lon="7.4879530">
        <ele>427.9200000</ele>
        <time>2010-08-14T12:11:35Z</time>
      </trkpt>
      <trkpt lat="51.2082090" lon="7.4878570">
        <ele>429.8500000</ele>
        <time>2010-08-14T12:11:36Z</time>
      </trkpt>
      <trkpt lat="51.2084290" lon="7.4878040">
        <ele>431.7700000</ele>
        <time>2010-08-14T12:11:37Z</time>
      </trkpt>
      <trkpt lat="51.2086330" lon="7.4877680">
        <ele>433.2100000</ele>
        <time>2010-08-14T12:11:38Z</time>
      </trkpt>
      <trkpt lat="51.2088220" lon="7.4877530">
        <ele>434.1700000</ele>
        <time>2010-08-14T12:11:39Z</time>
      </trkpt>
      <trkpt lat="51.2089860" lon="7.4877480">
        <ele>435.6100000</ele>
        <time>2010-08-14T12:11:40Z</time>
      </trkpt>
      <trkpt lat="51.2094730" lon="7.4877440">
        <ele>440.9000000</ele>
        <time>2010-08-14T12:11:44Z</time>
      </trkpt>
      <trkpt lat="51.2095290" lon="7.4878040">
        <ele>441.8600000</ele>
        <time>2010-08-14T12:11:45Z</time>
      </trkpt>
      <trkpt lat="51.2095620" lon="7.4878640">
        <ele>442.8200000</ele>
        <time>2010-08-14T12:11:46Z</time>
      </trkpt>
      <trkpt lat="51.2095840" lon="7.4879210">
        <ele>443.3100000</ele>
        <time>2010-08-14T12:11:47Z</time>
      </trkpt>
      <trkpt lat="51.2095890" lon="7.4879920">
        <ele>443.7900000</ele>
        <time>2010-08-14T12:11:48Z</time>
      </trkpt>
      <trkpt lat="51.2095910" lon="7.4880880">
        <ele>444.2700000</ele>
        <time>2010-08-14T12:11:49Z</time>
      </trkpt>
      <trkpt lat="51.2095900" lon="7.4882390">
        <ele>444.2700000</ele>
        <time>2010-08-14T12:11:50Z</time>
      </trkpt>
      <trkpt lat="51.2096030" lon="7.4894580">
        <ele>444.2700000</ele>
        <time>2010-08-14T12:11:55Z</time>
      </trkpt>
      <trkpt lat="51.2096540" lon="7.4923810">
        <ele>444.7500000</ele>
        <time>2010-08-14T12:12:05Z</time>
      </trkpt>
      <trkpt lat="51.2097720" lon="7.4943320">
        <ele>440.9000000</ele>
        <time>2010-08-14T12:12:12Z</time>
      </trkpt>
      <trkpt lat="51.2098380" lon="7.4945750">
        <ele>440.4200000</ele>
        <time>2010-08-14T12:12:13Z</time>
      </trkpt>
      <trkpt lat="51.2099210" lon="7.4948140">
        <ele>439.4600000</ele>
        <time>2010-08-14T12:12:14Z</time>
      </trkpt>
      <trkpt lat="51.2109410" lon="7.4974530">
        <ele>433.2100000</ele>
        <time>2010-08-14T12:12:24Z</time>
      </trkpt>
      <trkpt lat="51.2116620" lon="7.4987720">
        <ele>426.0000000</ele>
        <time>2010-08-14T12:12:30Z</time>
      </trkpt>
      <trkpt lat="51.2118700" lon="7.4988560">
        <ele>424.5600000</ele>
        <time>2010-08-14T12:12:31Z</time>
      </trkpt>
      <trkpt lat="51.2120300" lon="7.4989570">
        <ele>422.6400000</ele>
        <time>2010-08-14T12:12:32Z</time>
      </trkpt>
      <trkpt lat="51.2122290" lon="7.4990140">
        <ele>421.1900000</ele>
        <time>2010-08-14T12:12:33Z</time>
      </trkpt>
      <trkpt lat="51.2124220" lon="7.4990510">
        <ele>419.7500000</ele>
        <time>2010-08-14T12:12:34Z</time>
      </trkpt>
      <trkpt lat="51.2126110" lon="7.4991160">
        <ele>418.7900000</ele>
        <time>2010-08-14T12:12:35Z</time>
      </trkpt>
      <trkpt lat="51.2127940" lon="7.4992200">
        <ele>417.3500000</ele>
        <time>2010-08-14T12:12:36Z</time>
      </trkpt>
      <trkpt lat="51.2129650" lon="7.4993870">
        <ele>415.4300000</ele>
        <time>2010-08-14T12:12:37Z</time>
      </trkpt>
      <trkpt lat="51.2131460" lon="7.4995870">
        <ele>413.9800000</ele>
        <time>2010-08-14T12:12:38Z</time>
      </trkpt>
      <trkpt lat="51.2133400" lon="7.4998210">
        <ele>412.0600000</ele>
        <time>2010-08-14T12:12:39Z</time>
      </trkpt>
      <trkpt lat="51.2148620" lon="7.5017000">
        <ele>402.4500000</ele>
        <time>2010-08-14T12:12:47Z</time>
      </trkpt>
      <trkpt lat="51.2162180" lon="7.5037300">
        <ele>403.8900000</ele>
        <time>2010-08-14T12:12:55Z</time>
      </trkpt>
      <trkpt lat="51.2171950" lon="7.5057020">
        <ele>405.8100000</ele>
        <time>2010-08-14T12:13:02Z</time>
      </trkpt>
      <trkpt lat="51.2173400" lon="7.5058700">
        <ele>405.3300000</ele>
        <time>2010-08-14T12:13:03Z</time>
      </trkpt>
      <trkpt lat="51.2175100" lon="7.5060210">
        <ele>405.3300000</ele>
        <time>2010-08-14T12:13:04Z</time>
      </trkpt>
      <trkpt lat="51.2177070" lon="7.5061760">
        <ele>404.8500000</ele>
        <time>2010-08-14T12:13:05Z</time>
      </trkpt>
      <trkpt lat="51.2188790" lon="7.5069520">
        <ele>402.4500000</ele>
        <time>2010-08-14T12:13:10Z</time>
      </trkpt>
      <trkpt lat="51.2193450" lon="7.5070360">
        <ele>402.4500000</ele>
        <time>2010-08-14T12:13:12Z</time>
      </trkpt>
      <trkpt lat="51.2195810" lon="7.5070130">
        <ele>401.9700000</ele>
        <time>2010-08-14T12:13:13Z</time>
      </trkpt>
      <trkpt lat="51.2209940" lon="7.5071800">
        <ele>406.2900000</ele>
        <time>2010-08-14T12:13:19Z</time>
      </trkpt>
      <trkpt lat="51.2225140" lon="7.5079120">
        <ele>410.1400000</ele>
        <time>2010-08-14T12:13:26Z</time>
      </trkpt>
      <trkpt lat="51.2231780" lon="7.5079800">
        <ele>412.0600000</ele>
        <time>2010-08-14T12:13:29Z</time>
      </trkpt>
      <trkpt lat="51.2234010" lon="7.5079510">
        <ele>412.5400000</ele>
        <time>2010-08-14T12:13:30Z</time>
      </trkpt>
      <trkpt lat="51.2248220" lon="7.5075590">
        <ele>408.7000000</ele>
        <time>2010-08-14T12:13:37Z</time>
      </trkpt>
      <trkpt lat="51.2269550" lon="7.5068000">
        <ele>399.0800000</ele>
        <time>2010-08-14T12:13:47Z</time>
      </trkpt>
      <trkpt lat="51.2292440" lon="7.5058050">
        <ele>395.7200000</ele>
        <time>2010-08-14T12:13:57Z</time>
      </trkpt>
      <trkpt lat="51.2307100" lon="7.5053780">
        <ele>394.2800000</ele>
        <time>2010-08-14T12:14:04Z</time>
      </trkpt>
      <trkpt lat="51.2308830" lon="7.5054200">
        <ele>394.2800000</ele>
        <time>2010-08-14T12:14:05Z</time>
      </trkpt>
      <trkpt lat="51.2310740" lon="7.5055050">
        <ele>393.8000000</ele>
        <time>2010-08-14T12:14:06Z</time>
      </trkpt>
      <trkpt lat="51.2312740" lon="7.5056170">
        <ele>394.2800000</ele>
        <time>2010-08-14T12:14:07Z</time>
      </trkpt>
      <trkpt lat="51.2314710" lon="7.5057520">
        <ele>394.2800000</ele>
        <time>2010-08-14T12:14:08Z</time>
      </trkpt>
      <trkpt lat="51.2316470" lon="7.5059000">
        <ele>394.2800000</ele>
        <time>2010-08-14T12:14:09Z</time>
      </trkpt>
      <trkpt lat="51.2318010" lon="7.5060500">
        <ele>393.8000000</ele>
        <time>2010-08-14T12:14:10Z</time>
      </trkpt>
      <trkpt lat="51.2320510" lon="7.5063820">
        <ele>394.2800000</ele>
        <time>2010-08-14T12:14:12Z</time>
      </trkpt>
      <trkpt lat="51.2321460" lon="7.5065780">
        <ele>393.8000000</ele>
        <time>2010-08-14T12:14:13Z</time>
      </trkpt>
      <trkpt lat="51.2322350" lon="7.5067960">
        <ele>393.8000000</ele>
        <time>2010-08-14T12:14:14Z</time>
      </trkpt>
      <trkpt lat="51.2323090" lon="7.5070380">
        <ele>394.2800000</ele>
        <time>2010-08-14T12:14:15Z</time>
      </trkpt>
      <trkpt lat="51.2323690" lon="7.5072970">
        <ele>394.2800000</ele>
        <time>2010-08-14T12:14:16Z</time>
      </trkpt>
      <trkpt lat="51.2324320" lon="7.5075490">
        <ele>394.2800000</ele>
        <time>2010-08-14T12:14:17Z</time>
      </trkpt>
      <trkpt lat="51.2325150" lon="7.5077770">
        <ele>393.8000000</ele>
        <time>2010-08-14T12:14:18Z</time>
      </trkpt>
      <trkpt lat="51.2326170" lon="7.5079820">
        <ele>393.3200000</ele>
        <time>2010-08-14T12:14:19Z</time>
      </trkpt>
      <trkpt lat="51.2327310" lon="7.5081690">
        <ele>392.8400000</ele>
        <time>2010-08-14T12:14:20Z</time>
      </trkpt>
      <trkpt lat="51.2328480" lon="7.5083490">
        <ele>392.3600000</ele>
        <time>2010-08-14T12:14:21Z</time>
      </trkpt>
      <trkpt lat="51.2338360" lon="7.5099340">
        <ele>384.1800000</ele>
        <time>2010-08-14T12:14:31Z</time>
      </trkpt>
      <trkpt lat="51.2345290" lon="7.5109510">
        <ele>376.9700000</ele>
        <time>2010-08-14T12:14:38Z</time>
      </trkpt>
      <trkpt lat="51.2346100" lon="7.5111170">
        <ele>376.4900000</ele>
        <time>2010-08-14T12:14:39Z</time>
      </trkpt>
      <trkpt lat="51.2354140" lon="7.5124850">
        <ele>369.2800000</ele>
        <time>2010-08-14T12:14:47Z</time>
      </trkpt>
      <trkpt lat="51.2366280" lon="7.5135730">
        <ele>360.1500000</ele>
        <time>2010-08-14T12:14:55Z</time>
      </trkpt>
      <trkpt lat="51.2367480" lon="7.5137550">
        <ele>359.1900000</ele>
        <time>2010-08-14T12:14:56Z</time>
      </trkpt>
      <trkpt lat="51.2368580" lon="7.5139530">
        <ele>358.2300000</ele>
        <time>2010-08-14T12:14:57Z</time>
      </trkpt>
      <trkpt lat="51.2369570" lon="7.5141570">
        <ele>356.7900000</ele>
        <time>2010-08-14T12:14:58Z</time>
      </trkpt>
      <trkpt lat="51.2370430" lon="7.5143670">
        <ele>355.8300000</ele>
        <time>2010-08-14T12:14:59Z</time>
      </trkpt>
      <trkpt lat="51.2371180" lon="7.5145800">
        <ele>354.8600000</ele>
        <time>2010-08-14T12:15:00Z</time>
      </trkpt>
      <trkpt lat="51.2377790" lon="7.5169850">
        <ele>342.3700000</ele>
        <time>2010-08-14T12:15:12Z</time>
      </trkpt>
      <trkpt lat="51.2381650" lon="7.5184030">
        <ele>331.7900000</ele>
        <time>2010-08-14T12:15:19Z</time>
      </trkpt>
      <trkpt lat="51.2382550" lon="7.5186430">
        <ele>331.3100000</ele>
        <time>2010-08-14T12:15:20Z</time>
      </trkpt>
      <trkpt lat="51.2383680" lon="7.5188610">
        <ele>330.3500000</ele>
        <time>2010-08-14T12:15:21Z</time>
      </trkpt>
      <trkpt lat="51.2385050" lon="7.5190480">
        <ele>328.9100000</ele>
        <time>2010-08-14T12:15:22Z</time>
      </trkpt>
      <trkpt lat="51.2386460" lon="7.5192200">
        <ele>327.9500000</ele>
        <time>2010-08-14T12:15:23Z</time>
      </trkpt>
      <trkpt lat="51.2392940" lon="7.5198600">
        <ele>325.0600000</ele>
        <time>2010-08-14T12:15:28Z</time>
      </trkpt>
      <trkpt lat="51.2394090" lon="7.5199150">
        <ele>325.0600000</ele>
        <time>2010-08-14T12:15:29Z</time>
      </trkpt>
      <trkpt lat="51.2395160" lon="7.5199410">
        <ele>325.5400000</ele>
        <time>2010-08-14T12:15:30Z</time>
      </trkpt>
      <trkpt lat="51.2404020" lon="7.5201570">
        <ele>322.1800000</ele>
        <time>2010-08-14T12:15:37Z</time>
      </trkpt>
      <trkpt lat="51.2413600" lon="7.5207840">
        <ele>314.0100000</ele>
        <time>2010-08-14T12:15:44Z</time>
      </trkpt>
      <trkpt lat="51.2414480" lon="7.5209410">
        <ele>313.0500000</ele>
        <time>2010-08-14T12:15:45Z</time>
      </trkpt>
      <trkpt lat="51.2423180" lon="7.5223840">
        <ele>301.0300000</ele>
        <time>2010-08-14T12:15:55Z</time>
      </trkpt>
      <trkpt lat="51.2423790" lon="7.5225520">
        <ele>300.0700000</ele>
        <time>2010-08-14T12:15:56Z</time>
      </trkpt>
      <trkpt lat="51.2424190" lon="7.5227340">
        <ele>299.1100000</ele>
        <time>2010-08-14T12:15:57Z</time>
      </trkpt>
      <trkpt lat="51.2424370" lon="7.5229270">
        <ele>298.6300000</ele>
        <time>2010-08-14T12:15:58Z</time>
      </trkpt>
      <trkpt lat="51.2424340" lon="7.5231350">
        <ele>297.6700000</ele>
        <time>2010-08-14T12:15:59Z</time>
      </trkpt>
      <trkpt lat="51.2424050" lon="7.5233490">
        <ele>296.2200000</ele>
        <time>2010-08-14T12:16:00Z</time>
      </trkpt>
      <trkpt lat="51.2423530" lon="7.5235510">
        <ele>294.3000000</ele>
        <time>2010-08-14T12:16:01Z</time>
      </trkpt>
      <trkpt lat="51.2422680" lon="7.5237490">
        <ele>294.3000000</ele>
        <time>2010-08-14T12:16:02Z</time>
      </trkpt>
      <trkpt lat="51.2421600" lon="7.5239390">
        <ele>293.8200000</ele>
        <time>2010-08-14T12:16:03Z</time>
      </trkpt>
      <trkpt lat="51.2420390" lon="7.5241180">
        <ele>293.3400000</ele>
        <time>2010-08-14T12:16:04Z</time>
      </trkpt>
      <trkpt lat="51.2419180" lon="7.5242890">
        <ele>292.3800000</ele>
        <time>2010-08-14T12:16:05Z</time>
      </trkpt>
      <trkpt lat="51.2415730" lon="7.5247310">
        <ele>288.5300000</ele>
        <time>2010-08-14T12:16:08Z</time>
      </trkpt>
      <trkpt lat="51.2414520" lon="7.5248190">
        <ele>287.0900000</ele>
        <time>2010-08-14T12:16:09Z</time>
      </trkpt>
      <trkpt lat="51.2413230" lon="7.5248800">
        <ele>286.1300000</ele>
        <time>2010-08-14T12:16:10Z</time>
      </trkpt>
      <trkpt lat="51.2407780" lon="7.5253000">
        <ele>279.4000000</ele>
        <time>2010-08-14T12:16:14Z</time>
      </trkpt>
      <trkpt lat="51.2406660" lon="7.5254970">
        <ele>278.9200000</ele>
        <time>2010-08-14T12:16:15Z</time>
      </trkpt>
      <trkpt lat="51.2399490" lon="7.5266230">
        <ele>267.8600000</ele>
        <time>2010-08-14T12:16:22Z</time>
      </trkpt>
      <trkpt lat="51.2398770" lon="7.5267830">
        <ele>265.9400000</ele>
        <time>2010-08-14T12:16:23Z</time>
      </trkpt>
      <trkpt lat="51.2398300" lon="7.5269570">
        <ele>264.5000000</ele>
        <time>2010-08-14T12:16:24Z</time>
      </trkpt>
      <trkpt lat="51.2398170" lon="7.5271420">
        <ele>262.5800000</ele>
        <time>2010-08-14T12:16:25Z</time>
      </trkpt>
      <trkpt lat="51.2398640" lon="7.5273030">
        <ele>260.1700000</ele>
        <time>2010-08-14T12:16:26Z</time>
      </trkpt>
      <trkpt lat="51.2399690" lon="7.5273960">
        <ele>259.2100000</ele>
        <time>2010-08-14T12:16:27Z</time>
      </trkpt>
      <trkpt lat="51.2400570" lon="7.5275180">
        <ele>257.2900000</ele>
        <time>2010-08-14T12:16:28Z</time>
      </trkpt>
      <trkpt lat="51.2402050" lon="7.5276270">
        <ele>255.8500000</ele>
        <time>2010-08-14T12:16:29Z</time>
      </trkpt>
      <trkpt lat="51.2403880" lon="7.5277110">
        <ele>254.4100000</ele>
        <time>2010-08-14T12:16:30Z</time>
      </trkpt>
      <trkpt lat="51.2405880" lon="7.5277730">
        <ele>252.9600000</ele>
        <time>2010-08-14T12:16:31Z</time>
      </trkpt>
      <trkpt lat="51.2407380" lon="7.5278300">
        <ele>252.0000000</ele>
        <time>2010-08-14T12:16:32Z</time>
      </trkpt>
      <trkpt lat="51.2408960" lon="7.5278640">
        <ele>252.0000000</ele>
        <time>2010-08-14T12:16:33Z</time>
      </trkpt>
      <trkpt lat="51.2413030" lon="7.5281400">
        <ele>247.6800000</ele>
        <time>2010-08-14T12:16:36Z</time>
      </trkpt>
      <trkpt lat="51.2414190" lon="7.5282750">
        <ele>246.2300000</ele>
        <time>2010-08-14T12:16:37Z</time>
      </trkpt>
      <trkpt lat="51.2419600" lon="7.5291950">
        <ele>235.6600000</ele>
        <time>2010-08-14T12:16:44Z</time>
      </trkpt>
      <trkpt lat="51.2419060" lon="7.5293420">
        <ele>234.2200000</ele>
        <time>2010-08-14T12:16:45Z</time>
      </trkpt>
      <trkpt lat="51.2418040" lon="7.5293490">
        <ele>232.3000000</ele>
        <time>2010-08-14T12:16:46Z</time>
      </trkpt>
      <trkpt lat="51.2416750" lon="7.5292760">
        <ele>231.3300000</ele>
        <time>2010-08-14T12:16:47Z</time>
      </trkpt>
      <trkpt lat="51.2415400" lon="7.5292080">
        <ele>229.8900000</ele>
        <time>2010-08-14T12:16:48Z</time>
      </trkpt>
      <trkpt lat="51.2406680" lon="7.5290550">
        <ele>221.7200000</ele>
        <time>2010-08-14T12:16:54Z</time>
      </trkpt>
      <trkpt lat="51.2401920" lon="7.5291590">
        <ele>219.8000000</ele>
        <time>2010-08-14T12:16:59Z</time>
      </trkpt>
      <trkpt lat="51.2401500" lon="7.5291980">
        <ele>217.8800000</ele>
        <time>2010-08-14T12:17:00Z</time>
      </trkpt>
      <trkpt lat="51.2401290" lon="7.5292880">
        <ele>217.8800000</ele>
        <time>2010-08-14T12:17:01Z</time>
      </trkpt>
      <trkpt lat="51.2401430" lon="7.5293780">
        <ele>216.4300000</ele>
        <time>2010-08-14T12:17:02Z</time>
      </trkpt>
      <trkpt lat="51.2401960" lon="7.5294260">
        <ele>214.9900000</ele>
        <time>2010-08-14T12:17:03Z</time>
      </trkpt>
      <trkpt lat="51.2402950" lon="7.5294200">
        <ele>214.9900000</ele>
        <time>2010-08-14T12:17:04Z</time>
      </trkpt>
      <trkpt lat="51.2404010" lon="7.5294040">
        <ele>214.5100000</ele>
        <time>2010-08-14T12:17:05Z</time>
      </trkpt>
      <trkpt lat="51.2405220" lon="7.5293710">
        <ele>215.9500000</ele>
        <time>2010-08-14T12:17:06Z</time>
      </trkpt>
      <trkpt lat="51.2407770" lon="7.5293260">
        <ele>216.9100000</ele>
        <time>2010-08-14T12:17:08Z</time>
      </trkpt>
      <trkpt lat="51.2409100" lon="7.5293310">
        <ele>218.3600000</ele>
        <time>2010-08-14T12:17:09Z</time>
      </trkpt>
      <trkpt lat="51.2416060" lon="7.5295500">
        <ele>219.8000000</ele>
        <time>2010-08-14T12:17:14Z</time>
      </trkpt>
      <trkpt lat="51.2421600" lon="7.5299680">
        <ele>220.7600000</ele>
        <time>2010-08-14T12:17:19Z</time>
      </trkpt>
      <trkpt lat="51.2422350" lon="7.5301120">
        <ele>220.2800000</ele>
        <time>2010-08-14T12:17:20Z</time>
      </trkpt>
      <trkpt lat="51.2422990" lon="7.5302020">
        <ele>219.8000000</ele>
        <time>2010-08-14T12:17:21Z</time>
      </trkpt>
      <trkpt lat="51.2423330" lon="7.5302840">
        <ele>218.8400000</ele>
        <time>2010-08-14T12:17:22Z</time>
      </trkpt>
      <trkpt lat="51.2423610" lon="7.5303530">
        <ele>218.8400000</ele>
        <time>2010-08-14T12:17:23Z</time>
      </trkpt>
      <trkpt lat="51.2424010" lon="7.5304710">
        <ele>219.3200000</ele>
        <time>2010-08-14T12:17:30Z</time>
      </trkpt>
      <trkpt lat="51.2423930" lon="7.5304970">
        <ele>221.7200000</ele>
        <time>2010-08-14T12:17:42Z</time>
      </trkpt>
      <trkpt lat="51.2423850" lon="7.5305700">
        <ele>222.2000000</ele>
        <time>2010-08-14T12:17:43Z</time>
      </trkpt>
      <trkpt lat="51.2423320" lon="7.5307930">
        <ele>223.1600000</ele>
        <time>2010-08-14T12:17:45Z</time>
      </trkpt>
      <trkpt lat="51.2422670" lon="7.5309040">
        <ele>223.6400000</ele>
        <time>2010-08-14T12:17:46Z</time>
      </trkpt>
      <trkpt lat="51.2421790" lon="7.5310360">
        <ele>223.6400000</ele>
        <time>2010-08-14T12:17:47Z</time>
      </trkpt>
      <trkpt lat="51.2416180" lon="7.5322740">
        <ele>222.6800000</ele>
        <time>2010-08-14T12:17:54Z</time>
      </trkpt>
      <trkpt lat="51.2412860" lon="7.5338850">
        <ele>222.2000000</ele>
        <time>2010-08-14T12:18:01Z</time>
      </trkpt>
      <trkpt lat="51.2410740" lon="7.5347210">
        <ele>217.4000000</ele>
        <time>2010-08-14T12:18:08Z</time>
      </trkpt>
      <trkpt lat="51.2409800" lon="7.5349080">
        <ele>217.8800000</ele>
        <time>2010-08-14T12:18:12Z</time>
      </trkpt>
      <trkpt lat="51.2409840" lon="7.5349860">
        <ele>217.8800000</ele>
        <time>2010-08-14T12:18:13Z</time>
      </trkpt>
      <trkpt lat="51.2410120" lon="7.5350560">
        <ele>217.8800000</ele>
        <time>2010-08-14T12:18:14Z</time>
      </trkpt>
      <trkpt lat="51.2410560" lon="7.5351200">
        <ele>218.3600000</ele>
        <time>2010-08-14T12:18:15Z</time>
      </trkpt>
      <trkpt lat="51.2411130" lon="7.5351840">
        <ele>217.8800000</ele>
        <time>2010-08-14T12:18:16Z</time>
      </trkpt>
      <trkpt lat="51.2411690" lon="7.5352490">
        <ele>218.3600000</ele>
        <time>2010-08-14T12:18:17Z</time>
      </trkpt>
      <trkpt lat="51.2418600" lon="7.5359470">
        <ele>225.0900000</ele>
        <time>2010-08-14T12:18:27Z</time>
      </trkpt>
      <trkpt lat="51.2424480" lon="7.5362370">
        <ele>230.8500000</ele>
        <time>2010-08-14T12:18:33Z</time>
      </trkpt>
      <trkpt lat="51.2425530" lon="7.5363300">
        <ele>229.8900000</ele>
        <time>2010-08-14T12:18:34Z</time>
      </trkpt>
      <trkpt lat="51.2426650" lon="7.5364350">
        <ele>230.3700000</ele>
        <time>2010-08-14T12:18:35Z</time>
      </trkpt>
      <trkpt lat="51.2427430" lon="7.5365970">
        <ele>230.3700000</ele>
        <time>2010-08-14T12:18:36Z</time>
      </trkpt>
      <trkpt lat="51.2428150" lon="7.5367660">
        <ele>230.3700000</ele>
        <time>2010-08-14T12:18:37Z</time>
      </trkpt>
      <trkpt lat="51.2428910" lon="7.5369560">
        <ele>230.8500000</ele>
        <time>2010-08-14T12:18:38Z</time>
      </trkpt>
      <trkpt lat="51.2429730" lon="7.5371710">
        <ele>231.8100000</ele>
        <time>2010-08-14T12:18:39Z</time>
      </trkpt>
      <trkpt lat="51.2433950" lon="7.5382440">
        <ele>236.6200000</ele>
        <time>2010-08-14T12:18:44Z</time>
      </trkpt>
      <trkpt lat="51.2434610" lon="7.5384570">
        <ele>237.5800000</ele>
        <time>2010-08-14T12:18:45Z</time>
      </trkpt>
      <trkpt lat="51.2440480" lon="7.5404180">
        <ele>245.7500000</ele>
        <time>2010-08-14T12:18:54Z</time>
      </trkpt>
      <trkpt lat="51.2441340" lon="7.5406070">
        <ele>246.7200000</ele>
        <time>2010-08-14T12:18:55Z</time>
      </trkpt>
      <trkpt lat="51.2447960" lon="7.5422530">
        <ele>253.9300000</ele>
        <time>2010-08-14T12:19:03Z</time>
      </trkpt>
      <trkpt lat="51.2448840" lon="7.5424510">
        <ele>254.8900000</ele>
        <time>2010-08-14T12:19:04Z</time>
      </trkpt>
      <trkpt lat="51.2449840" lon="7.5426290">
        <ele>255.8500000</ele>
        <time>2010-08-14T12:19:05Z</time>
      </trkpt>
      <trkpt lat="51.2451000" lon="7.5427980">
        <ele>256.3300000</ele>
        <time>2010-08-14T12:19:06Z</time>
      </trkpt>
      <trkpt lat="51.2452410" lon="7.5429610">
        <ele>257.2900000</ele>
        <time>2010-08-14T12:19:07Z</time>
      </trkpt>
      <trkpt lat="51.2453720" lon="7.5431330">
        <ele>258.2500000</ele>
        <time>2010-08-14T12:19:08Z</time>
      </trkpt>
      <trkpt lat="51.2463210" lon="7.5445740">
        <ele>262.1000000</ele>
        <time>2010-08-14T12:19:17Z</time>
      </trkpt>
      <trkpt lat="51.2468080" lon="7.5453310">
        <ele>266.4200000</ele>
        <time>2010-08-14T12:19:26Z</time>
      </trkpt>
      <trkpt lat="51.2468290" lon="7.5453490">
        <ele>268.8300000</ele>
        <time>2010-08-14T12:19:37Z</time>
      </trkpt>
      <trkpt lat="51.2468330" lon="7.5454370">
        <ele>279.4000000</ele>
        <time>2010-08-14T12:20:46Z</time>
      </trkpt>
      <trkpt lat="51.2472000" lon="7.5464280">
        <ele>276.5200000</ele>
        <time>2010-08-14T12:20:53Z</time>
      </trkpt>
      <trkpt lat="51.2475410" lon="7.5476220">
        <ele>278.9200000</ele>
        <time>2010-08-14T12:20:58Z</time>
      </trkpt>
      <trkpt lat="51.2477540" lon="7.5496060">
        <ele>283.7300000</ele>
        <time>2010-08-14T12:21:05Z</time>
      </trkpt>
      <trkpt lat="51.2482360" lon="7.5518010">
        <ele>291.4200000</ele>
        <time>2010-08-14T12:21:14Z</time>
      </trkpt>
      <trkpt lat="51.2484330" lon="7.5522000">
        <ele>292.3800000</ele>
        <time>2010-08-14T12:21:16Z</time>
      </trkpt>
      <trkpt lat="51.2491200" lon="7.5534890">
        <ele>296.2200000</ele>
        <time>2010-08-14T12:21:20Z</time>
      </trkpt>
      <trkpt lat="51.2503040" lon="7.5561440">
        <ele>304.3900000</ele>
        <time>2010-08-14T12:21:26Z</time>
      </trkpt>
      <trkpt lat="51.2512790" lon="7.5586790">
        <ele>313.5300000</ele>
        <time>2010-08-14T12:21:32Z</time>
      </trkpt>
      <trkpt lat="51.2517920" lon="7.5604090">
        <ele>320.2600000</ele>
        <time>2010-08-14T12:21:37Z</time>
      </trkpt>
      <trkpt lat="51.2521270" lon="7.5608960">
        <ele>324.5800000</ele>
        <time>2010-08-14T12:21:40Z</time>
      </trkpt>
      <trkpt lat="51.2522540" lon="7.5609460">
        <ele>326.0200000</ele>
        <time>2010-08-14T12:21:41Z</time>
      </trkpt>
      <trkpt lat="51.2523820" lon="7.5609050">
        <ele>328.4300000</ele>
        <time>2010-08-14T12:21:42Z</time>
      </trkpt>
      <trkpt lat="51.2525600" lon="7.5608400">
        <ele>329.8700000</ele>
        <time>2010-08-14T12:21:43Z</time>
      </trkpt>
      <trkpt lat="51.2527630" lon="7.5607150">
        <ele>330.8300000</ele>
        <time>2010-08-14T12:21:44Z</time>
      </trkpt>
      <trkpt lat="51.2529930" lon="7.5605940">
        <ele>332.2700000</ele>
        <time>2010-08-14T12:21:45Z</time>
      </trkpt>
      <trkpt lat="51.2541260" lon="7.5598580">
        <ele>344.2900000</ele>
        <time>2010-08-14T12:21:50Z</time>
      </trkpt>
      <trkpt lat="51.2543670" lon="7.5598060">
        <ele>347.1700000</ele>
        <time>2010-08-14T12:21:51Z</time>
      </trkpt>
      <trkpt lat="51.2546590" lon="7.5598400">
        <ele>350.0600000</ele>
        <time>2010-08-14T12:21:52Z</time>
      </trkpt>
      <trkpt lat="51.2556660" lon="7.5601640">
        <ele>362.5500000</ele>
        <time>2010-08-14T12:21:57Z</time>
      </trkpt>
      <trkpt lat="51.2558040" lon="7.5603320">
        <ele>364.0000000</ele>
        <time>2010-08-14T12:21:58Z</time>
      </trkpt>
      <trkpt lat="51.2558850" lon="7.5605150">
        <ele>365.4400000</ele>
        <time>2010-08-14T12:21:59Z</time>
      </trkpt>
      <trkpt lat="51.2558320" lon="7.5608240">
        <ele>367.3600000</ele>
        <time>2010-08-14T12:22:00Z</time>
      </trkpt>
      <trkpt lat="51.2558030" lon="7.5610740">
        <ele>369.2800000</ele>
        <time>2010-08-14T12:22:01Z</time>
      </trkpt>
      <trkpt lat="51.2557130" lon="7.5612770">
        <ele>370.2400000</ele>
        <time>2010-08-14T12:22:02Z</time>
      </trkpt>
      <trkpt lat="51.2555770" lon="7.5614920">
        <ele>371.6900000</ele>
        <time>2010-08-14T12:22:03Z</time>
      </trkpt>
      <trkpt lat="51.2554480" lon="7.5617140">
        <ele>372.1700000</ele>
        <time>2010-08-14T12:22:04Z</time>
      </trkpt>
      <trkpt lat="51.2552490" lon="7.5618640">
        <ele>375.0500000</ele>
        <time>2010-08-14T12:22:05Z</time>
      </trkpt>
      <trkpt lat="51.2550410" lon="7.5619860">
        <ele>375.0500000</ele>
        <time>2010-08-14T12:22:06Z</time>
      </trkpt>
      <trkpt lat="51.2547960" lon="7.5620450">
        <ele>375.5300000</ele>
        <time>2010-08-14T12:22:07Z</time>
      </trkpt>
      <trkpt lat="51.2545640" lon="7.5621160">
        <ele>375.5300000</ele>
        <time>2010-08-14T12:22:08Z</time>
      </trkpt>
      <trkpt lat="51.2543450" lon="7.5621730">
        <ele>375.0500000</ele>
        <time>2010-08-14T12:22:09Z</time>
      </trkpt>
      <trkpt lat="51.2541390" lon="7.5622430">
        <ele>376.4900000</ele>
        <time>2010-08-14T12:22:10Z</time>
      </trkpt>
      <trkpt lat="51.2538100" lon="7.5627300">
        <ele>374.0900000</ele>
        <time>2010-08-14T12:22:13Z</time>
      </trkpt>
      <trkpt lat="51.2538060" lon="7.5629910">
        <ele>372.6500000</ele>
        <time>2010-08-14T12:22:14Z</time>
      </trkpt>
      <trkpt lat="51.2538700" lon="7.5631770">
        <ele>374.0900000</ele>
        <time>2010-08-14T12:22:15Z</time>
      </trkpt>
      <trkpt lat="51.2539850" lon="7.5634130">
        <ele>375.5300000</ele>
        <time>2010-08-14T12:22:16Z</time>
      </trkpt>
      <trkpt lat="51.2541200" lon="7.5636900">
        <ele>376.4900000</ele>
        <time>2010-08-14T12:22:17Z</time>
      </trkpt>
      <trkpt lat="51.2542970" lon="7.5639700">
        <ele>376.4900000</ele>
        <time>2010-08-14T12:22:18Z</time>
      </trkpt>
      <trkpt lat="51.2544910" lon="7.5642400">
        <ele>379.3800000</ele>
        <time>2010-08-14T12:22:19Z</time>
      </trkpt>
      <trkpt lat="51.2547320" lon="7.5645470">
        <ele>380.8200000</ele>
        <time>2010-08-14T12:22:20Z</time>
      </trkpt>
      <trkpt lat="51.2550020" lon="7.5648760">
        <ele>382.7400000</ele>
        <time>2010-08-14T12:22:21Z</time>
      </trkpt>
      <trkpt lat="51.2552740" lon="7.5652340">
        <ele>383.7000000</ele>
        <time>2010-08-14T12:22:22Z</time>
      </trkpt>
      <trkpt lat="51.2572180" lon="7.5675990">
        <ele>402.4500000</ele>
        <time>2010-08-14T12:22:30Z</time>
      </trkpt>
      <trkpt lat="51.2581160" lon="7.5685460">
        <ele>414.4700000</ele>
        <time>2010-08-14T12:22:35Z</time>
      </trkpt>
      <trkpt lat="51.2581930" lon="7.5687040">
        <ele>416.3900000</ele>
        <time>2010-08-14T12:22:36Z</time>
      </trkpt>
      <trkpt lat="51.2582570" lon="7.5688600">
        <ele>417.8300000</ele>
        <time>2010-08-14T12:22:37Z</time>
      </trkpt>
      <trkpt lat="51.2583210" lon="7.5690180">
        <ele>417.3500000</ele>
        <time>2010-08-14T12:22:38Z</time>
      </trkpt>
      <trkpt lat="51.2583750" lon="7.5691820">
        <ele>417.8300000</ele>
        <time>2010-08-14T12:22:39Z</time>
      </trkpt>
      <trkpt lat="51.2584200" lon="7.5693460">
        <ele>418.7900000</ele>
        <time>2010-08-14T12:22:40Z</time>
      </trkpt>
      <trkpt lat="51.2584550" lon="7.5695070">
        <ele>419.7500000</ele>
        <time>2010-08-14T12:22:41Z</time>
      </trkpt>
      <trkpt lat="51.2584840" lon="7.5696570">
        <ele>420.2300000</ele>
        <time>2010-08-14T12:22:42Z</time>
      </trkpt>
      <trkpt lat="51.2586750" lon="7.5709770">
        <ele>422.1600000</ele>
        <time>2010-08-14T12:22:52Z</time>
      </trkpt>
      <trkpt lat="51.2586120" lon="7.5712510">
        <ele>421.6800000</ele>
        <time>2010-08-14T12:22:58Z</time>
      </trkpt>
      <trkpt lat="51.2585610" lon="7.5713090">
        <ele>421.1900000</ele>
        <time>2010-08-14T12:22:59Z</time>
      </trkpt>
      <trkpt lat="51.2584800" lon="7.5713730">
        <ele>421.1900000</ele>
        <time>2010-08-14T12:23:00Z</time>
      </trkpt>
      <trkpt lat="51.2583820" lon="7.5714520">
        <ele>421.1900000</ele>
        <time>2010-08-14T12:23:01Z</time>
      </trkpt>
      <trkpt lat="51.2582810" lon="7.5715630">
        <ele>421.1900000</ele>
        <time>2010-08-14T12:23:02Z</time>
      </trkpt>
      <trkpt lat="51.2581820" lon="7.5717090">
        <ele>420.7100000</ele>
        <time>2010-08-14T12:23:03Z</time>
      </trkpt>
      <trkpt lat="51.2580880" lon="7.5718970">
        <ele>420.7100000</ele>
        <time>2010-08-14T12:23:04Z</time>
      </trkpt>
      <trkpt lat="51.2580040" lon="7.5721290">
        <ele>421.1900000</ele>
        <time>2010-08-14T12:23:05Z</time>
      </trkpt>
      <trkpt lat="51.2579310" lon="7.5723960">
        <ele>421.6800000</ele>
        <time>2010-08-14T12:23:06Z</time>
      </trkpt>
      <trkpt lat="51.2578630" lon="7.5726830">
        <ele>422.6400000</ele>
        <time>2010-08-14T12:23:07Z</time>
      </trkpt>
      <trkpt lat="51.2573170" lon="7.5750740">
        <ele>429.3700000</ele>
        <time>2010-08-14T12:23:16Z</time>
      </trkpt>
      <trkpt lat="51.2572360" lon="7.5769880">
        <ele>435.1300000</ele>
        <time>2010-08-14T12:23:23Z</time>
      </trkpt>
      <trkpt lat="51.2574340" lon="7.5790420">
        <ele>440.9000000</ele>
        <time>2010-08-14T12:23:32Z</time>
      </trkpt>
      <trkpt lat="51.2575550" lon="7.5806130">
        <ele>442.8200000</ele>
        <time>2010-08-14T12:23:40Z</time>
      </trkpt>
      <trkpt lat="51.2575440" lon="7.5808010">
        <ele>442.8200000</ele>
        <time>2010-08-14T12:23:41Z</time>
      </trkpt>
      <trkpt lat="51.2575200" lon="7.5809910">
        <ele>442.8200000</ele>
        <time>2010-08-14T12:23:42Z</time>
      </trkpt>
      <trkpt lat="51.2574870" lon="7.5811740">
        <ele>442.8200000</ele>
        <time>2010-08-14T12:23:43Z</time>
      </trkpt>
      <trkpt lat="51.2574440" lon="7.5813490">
        <ele>442.8200000</ele>
        <time>2010-08-14T12:23:44Z</time>
      </trkpt>
      <trkpt lat="51.2573940" lon="7.5815130">
        <ele>442.3400000</ele>
        <time>2010-08-14T12:23:45Z</time>
      </trkpt>
      <trkpt lat="51.2573380" lon="7.5816640">
        <ele>442.8200000</ele>
        <time>2010-08-14T12:23:46Z</time>
      </trkpt>
      <trkpt lat="51.2572780" lon="7.5818000">
        <ele>442.8200000</ele>
        <time>2010-08-14T12:23:47Z</time>
      </trkpt>
      <trkpt lat="51.2572120" lon="7.5819250">
        <ele>442.8200000</ele>
        <time>2010-08-14T12:23:48Z</time>
      </trkpt>
      <trkpt lat="51.2571430" lon="7.5820490">
        <ele>442.8200000</ele>
        <time>2010-08-14T12:23:49Z</time>
      </trkpt>
      <trkpt lat="51.2563140" lon="7.5833070">
        <ele>440.9000000</ele>
        <time>2010-08-14T12:24:00Z</time>
      </trkpt>
      <trkpt lat="51.2560750" lon="7.5834250">
        <ele>437.5400000</ele>
        <time>2010-08-14T12:24:07Z</time>
      </trkpt>
      <trkpt lat="51.2558740" lon="7.5835580">
        <ele>433.6900000</ele>
        <time>2010-08-14T12:24:16Z</time>
      </trkpt>
      <trkpt lat="51.2558240" lon="7.5836550">
        <ele>432.2500000</ele>
        <time>2010-08-14T12:24:20Z</time>
      </trkpt>
      <trkpt lat="51.2558390" lon="7.5836420">
        <ele>429.3700000</ele>
        <time>2010-08-14T12:24:33Z</time>
      </trkpt>
      <trkpt lat="51.2558510" lon="7.5836410">
        <ele>434.6500000</ele>
        <time>2010-08-14T12:25:21Z</time>
      </trkpt>
      <trkpt lat="51.2558490" lon="7.5836500">
        <ele>437.0600000</ele>
        <time>2010-08-14T12:26:04Z</time>
      </trkpt>
      <trkpt lat="51.2558500" lon="7.5836480">
        <ele>438.0200000</ele>
        <time>2010-08-14T12:27:23Z</time>
      </trkpt>
      <trkpt lat="51.2558420" lon="7.5836640">
        <ele>439.4600000</ele>
        <time>2010-08-14T12:28:16Z</time>
      </trkpt>
      <trkpt lat="51.2558500" lon="7.5836780">
        <ele>439.4600000</ele>
        <time>2010-08-14T12:28:22Z</time>
      </trkpt>
      <trkpt lat="51.2558810" lon="7.5837910">
        <ele>438.5000000</ele>
        <time>2010-08-14T12:28:27Z</time>
      </trkpt>
      <trkpt lat="51.2558230" lon="7.5839810">
        <ele>437.5400000</ele>
        <time>2010-08-14T12:28:32Z</time>
      </trkpt>
      <trkpt lat="51.2557680" lon="7.5840620">
        <ele>437.5400000</ele>
        <time>2010-08-14T12:28:33Z</time>
      </trkpt>
      <trkpt lat="51.2552100" lon="7.5848660">
        <ele>433.2100000</ele>
        <time>2010-08-14T12:28:39Z</time>
      </trkpt>
      <trkpt lat="51.2538680" lon="7.5868290">
        <ele>418.7900000</ele>
        <time>2010-08-14T12:28:52Z</time>
      </trkpt>
      <trkpt lat="51.2527020" lon="7.5885200">
        <ele>415.9100000</ele>
        <time>2010-08-14T12:28:59Z</time>
      </trkpt>
      <trkpt lat="51.2512750" lon="7.5905520">
        <ele>419.2700000</ele>
        <time>2010-08-14T12:29:08Z</time>
      </trkpt>
      <trkpt lat="51.2496760" lon="7.5928870">
        <ele>419.2700000</ele>
        <time>2010-08-14T12:29:19Z</time>
      </trkpt>
      <trkpt lat="51.2489080" lon="7.5940110">
        <ele>415.9100000</ele>
        <time>2010-08-14T12:29:26Z</time>
      </trkpt>
      <trkpt lat="51.2486920" lon="7.5943320">
        <ele>413.9800000</ele>
        <time>2010-08-14T12:29:31Z</time>
      </trkpt>
      <trkpt lat="51.2487050" lon="7.5943380">
        <ele>414.4700000</ele>
        <time>2010-08-14T12:29:41Z</time>
      </trkpt>
      <trkpt lat="51.2486620" lon="7.5944100">
        <ele>413.9800000</ele>
        <time>2010-08-14T12:29:46Z</time>
      </trkpt>
      <trkpt lat="51.2485340" lon="7.5946060">
        <ele>413.5000000</ele>
        <time>2010-08-14T12:29:49Z</time>
      </trkpt>
      <trkpt lat="51.2485110" lon="7.5946950">
        <ele>413.0200000</ele>
        <time>2010-08-14T12:29:50Z</time>
      </trkpt>
      <trkpt lat="51.2485090" lon="7.5948000">
        <ele>412.5400000</ele>
        <time>2010-08-14T12:29:51Z</time>
      </trkpt>
      <trkpt lat="51.2485330" lon="7.5949130">
        <ele>412.5400000</ele>
        <time>2010-08-14T12:29:52Z</time>
      </trkpt>
      <trkpt lat="51.2486010" lon="7.5950240">
        <ele>412.0600000</ele>
        <time>2010-08-14T12:29:53Z</time>
      </trkpt>
      <trkpt lat="51.2487100" lon="7.5951580">
        <ele>412.0600000</ele>
        <time>2010-08-14T12:29:54Z</time>
      </trkpt>
      <trkpt lat="51.2488110" lon="7.5953180">
        <ele>412.5400000</ele>
        <time>2010-08-14T12:29:55Z</time>
      </trkpt>
      <trkpt lat="51.2489180" lon="7.5954950">
        <ele>412.0600000</ele>
        <time>2010-08-14T12:29:56Z</time>
      </trkpt>
      <trkpt lat="51.2499410" lon="7.5972240">
        <ele>408.7000000</ele>
        <time>2010-08-14T12:30:05Z</time>
      </trkpt>
      <trkpt lat="51.2515170" lon="7.5998950">
        <ele>408.2200000</ele>
        <time>2010-08-14T12:30:17Z</time>
      </trkpt>
      <trkpt lat="51.2525570" lon="7.6013770">
        <ele>406.7700000</ele>
        <time>2010-08-14T12:30:23Z</time>
      </trkpt>
      <trkpt lat="51.2539750" lon="7.6024590">
        <ele>407.7400000</ele>
        <time>2010-08-14T12:30:29Z</time>
      </trkpt>
      <trkpt lat="51.2557850" lon="7.6034170">
        <ele>409.6600000</ele>
        <time>2010-08-14T12:30:35Z</time>
      </trkpt>
      <trkpt lat="51.2573640" lon="7.6044840">
        <ele>413.9800000</ele>
        <time>2010-08-14T12:30:42Z</time>
      </trkpt>
      <trkpt lat="51.2585100" lon="7.6059100">
        <ele>419.7500000</ele>
        <time>2010-08-14T12:30:49Z</time>
      </trkpt>
      <trkpt lat="51.2591110" lon="7.6071590">
        <ele>423.1200000</ele>
        <time>2010-08-14T12:30:56Z</time>
      </trkpt>
      <trkpt lat="51.2593750" lon="7.6078520">
        <ele>425.0400000</ele>
        <time>2010-08-14T12:31:02Z</time>
      </trkpt>
      <trkpt lat="51.2593850" lon="7.6079430">
        <ele>425.5200000</ele>
        <time>2010-08-14T12:31:03Z</time>
      </trkpt>
      <trkpt lat="51.2593810" lon="7.6080400">
        <ele>426.0000000</ele>
        <time>2010-08-14T12:31:04Z</time>
      </trkpt>
      <trkpt lat="51.2593780" lon="7.6081430">
        <ele>426.0000000</ele>
        <time>2010-08-14T12:31:05Z</time>
      </trkpt>
      <trkpt lat="51.2593950" lon="7.6082470">
        <ele>426.4800000</ele>
        <time>2010-08-14T12:31:06Z</time>
      </trkpt>
      <trkpt lat="51.2594310" lon="7.6083290">
        <ele>426.4800000</ele>
        <time>2010-08-14T12:31:07Z</time>
      </trkpt>
      <trkpt lat="51.2594980" lon="7.6084210">
        <ele>426.9600000</ele>
        <time>2010-08-14T12:31:08Z</time>
      </trkpt>
      <trkpt lat="51.2595760" lon="7.6085720">
        <ele>426.9600000</ele>
        <time>2010-08-14T12:31:09Z</time>
      </trkpt>
      <trkpt lat="51.2596500" lon="7.6087930">
        <ele>427.4400000</ele>
        <time>2010-08-14T12:31:10Z</time>
      </trkpt>
      <trkpt lat="51.2597240" lon="7.6090480">
        <ele>428.8900000</ele>
        <time>2010-08-14T12:31:11Z</time>
      </trkpt>
      <trkpt lat="51.2603640" lon="7.6107280">
        <ele>437.5400000</ele>
        <time>2010-08-14T12:31:18Z</time>
      </trkpt>
      <trkpt lat="51.2607900" lon="7.6113310">
        <ele>441.3800000</ele>
        <time>2010-08-14T12:31:22Z</time>
      </trkpt>
      <trkpt lat="51.2609150" lon="7.6114520">
        <ele>442.3400000</ele>
        <time>2010-08-14T12:31:23Z</time>
      </trkpt>
      <trkpt lat="51.2617630" lon="7.6121320">
        <ele>449.5500000</ele>
        <time>2010-08-14T12:31:31Z</time>
      </trkpt>
      <trkpt lat="51.2618420" lon="7.6121490">
        <ele>450.5200000</ele>
        <time>2010-08-14T12:31:32Z</time>
      </trkpt>
      <trkpt lat="51.2619150" lon="7.6120580">
        <ele>451.0000000</ele>
        <time>2010-08-14T12:31:33Z</time>
      </trkpt>
      <trkpt lat="51.2619580" lon="7.6119390">
        <ele>452.4400000</ele>
        <time>2010-08-14T12:31:34Z</time>
      </trkpt>
      <trkpt lat="51.2620380" lon="7.6118160">
        <ele>452.4400000</ele>
        <time>2010-08-14T12:31:35Z</time>
      </trkpt>
      <trkpt lat="51.2621310" lon="7.6117100">
        <ele>452.9200000</ele>
        <time>2010-08-14T12:31:36Z</time>
      </trkpt>
      <trkpt lat="51.2622430" lon="7.6116250">
        <ele>452.9200000</ele>
        <time>2010-08-14T12:31:37Z</time>
      </trkpt>
      <trkpt lat="51.2634090" lon="7.6106860">
        <ele>452.9200000</ele>
        <time>2010-08-14T12:31:46Z</time>
      </trkpt>
      <trkpt lat="51.2639470" lon="7.6102610">
        <ele>452.4400000</ele>
        <time>2010-08-14T12:31:50Z</time>
      </trkpt>
      <trkpt lat="51.2640870" lon="7.6101970">
        <ele>452.4400000</ele>
        <time>2010-08-14T12:31:51Z</time>
      </trkpt>
      <trkpt lat="51.2642280" lon="7.6101550">
        <ele>452.9200000</ele>
        <time>2010-08-14T12:31:52Z</time>
      </trkpt>
      <trkpt lat="51.2643810" lon="7.6101500">
        <ele>451.4800000</ele>
        <time>2010-08-14T12:31:53Z</time>
      </trkpt>
      <trkpt lat="51.2645310" lon="7.6101730">
        <ele>450.0300000</ele>
        <time>2010-08-14T12:31:54Z</time>
      </trkpt>
      <trkpt lat="51.2646770" lon="7.6102210">
        <ele>449.0700000</ele>
        <time>2010-08-14T12:31:55Z</time>
      </trkpt>
      <trkpt lat="51.2648190" lon="7.6102910">
        <ele>448.1100000</ele>
        <time>2010-08-14T12:31:56Z</time>
      </trkpt>
      <trkpt lat="51.2649640" lon="7.6103760">
        <ele>447.1500000</ele>
        <time>2010-08-14T12:31:57Z</time>
      </trkpt>
      <trkpt lat="51.2653770" lon="7.6105700">
        <ele>446.6700000</ele>
        <time>2010-08-14T12:32:00Z</time>
      </trkpt>
      <trkpt lat="51.2654970" lon="7.6105490">
        <ele>447.6300000</ele>
        <time>2010-08-14T12:32:01Z</time>
      </trkpt>
      <trkpt lat="51.2656200" lon="7.6105330">
        <ele>446.6700000</ele>
        <time>2010-08-14T12:32:02Z</time>
      </trkpt>
      <trkpt lat="51.2657330" lon="7.6104600">
        <ele>445.7100000</ele>
        <time>2010-08-14T12:32:03Z</time>
      </trkpt>
      <trkpt lat="51.2658190" lon="7.6103650">
        <ele>445.2300000</ele>
        <time>2010-08-14T12:32:04Z</time>
      </trkpt>
      <trkpt lat="51.2658780" lon="7.6102180">
        <ele>444.7500000</ele>
        <time>2010-08-14T12:32:05Z</time>
      </trkpt>
      <trkpt lat="51.2659330" lon="7.6100700">
        <ele>443.7900000</ele>
        <time>2010-08-14T12:32:06Z</time>
      </trkpt>
      <trkpt lat="51.2659860" lon="7.6098830">
        <ele>442.8200000</ele>
        <time>2010-08-14T12:32:07Z</time>
      </trkpt>
      <trkpt lat="51.2660640" lon="7.6096880">
        <ele>442.3400000</ele>
        <time>2010-08-14T12:32:08Z</time>
      </trkpt>
      <trkpt lat="51.2664780" lon="7.6091780">
        <ele>443.3100000</ele>
        <time>2010-08-14T12:32:12Z</time>
      </trkpt>
      <trkpt lat="51.2665820" lon="7.6091070">
        <ele>445.2300000</ele>
        <time>2010-08-14T12:32:13Z</time>
      </trkpt>
      <trkpt lat="51.2666660" lon="7.6090410">
        <ele>448.1100000</ele>
        <time>2010-08-14T12:32:14Z</time>
      </trkpt>
      <trkpt lat="51.2668070" lon="7.6090290">
        <ele>450.5200000</ele>
        <time>2010-08-14T12:32:15Z</time>
      </trkpt>
      <trkpt lat="51.2669350" lon="7.6089810">
        <ele>450.5200000</ele>
        <time>2010-08-14T12:32:16Z</time>
      </trkpt>
      <trkpt lat="51.2676950" lon="7.6085880">
        <ele>450.5200000</ele>
        <time>2010-08-14T12:32:21Z</time>
      </trkpt>
      <trkpt lat="51.2678510" lon="7.6084540">
        <ele>450.5200000</ele>
        <time>2010-08-14T12:32:22Z</time>
      </trkpt>
      <trkpt lat="51.2686830" lon="7.6078800">
        <ele>451.9600000</ele>
        <time>2010-08-14T12:32:28Z</time>
      </trkpt>
      <trkpt lat="51.2692830" lon="7.6074880">
        <ele>453.8800000</ele>
        <time>2010-08-14T12:32:36Z</time>
      </trkpt>
      <trkpt lat="51.2693410" lon="7.6074850">
        <ele>452.9200000</ele>
        <time>2010-08-14T12:32:37Z</time>
      </trkpt>
      <trkpt lat="51.2693870" lon="7.6075070">
        <ele>452.9200000</ele>
        <time>2010-08-14T12:32:38Z</time>
      </trkpt>
      <trkpt lat="51.2694200" lon="7.6075540">
        <ele>453.8800000</ele>
        <time>2010-08-14T12:32:39Z</time>
      </trkpt>
      <trkpt lat="51.2694390" lon="7.6076230">
        <ele>454.3600000</ele>
        <time>2010-08-14T12:32:40Z</time>
      </trkpt>
      <trkpt lat="51.2694250" lon="7.6077240">
        <ele>455.3200000</ele>
        <time>2010-08-14T12:32:41Z</time>
      </trkpt>
      <trkpt lat="51.2694220" lon="7.6078500">
        <ele>456.2800000</ele>
        <time>2010-08-14T12:32:42Z</time>
      </trkpt>
      <trkpt lat="51.2694280" lon="7.6080000">
        <ele>457.2400000</ele>
        <time>2010-08-14T12:32:43Z</time>
      </trkpt>
      <trkpt lat="51.2694480" lon="7.6081550">
        <ele>457.7200000</ele>
        <time>2010-08-14T12:32:44Z</time>
      </trkpt>
      <trkpt lat="51.2694770" lon="7.6082920">
        <ele>457.7200000</ele>
        <time>2010-08-14T12:32:45Z</time>
      </trkpt>
      <trkpt lat="51.2695140" lon="7.6083990">
        <ele>457.7200000</ele>
        <time>2010-08-14T12:32:46Z</time>
      </trkpt>
      <trkpt lat="51.2695650" lon="7.6084610">
        <ele>457.2400000</ele>
        <time>2010-08-14T12:32:47Z</time>
      </trkpt>
      <trkpt lat="51.2696080" lon="7.6085200">
        <ele>456.7600000</ele>
        <time>2010-08-14T12:32:48Z</time>
      </trkpt>
      <trkpt lat="51.2702930" lon="7.6093900">
        <ele>452.4400000</ele>
        <time>2010-08-14T12:33:00Z</time>
      </trkpt>
      <trkpt lat="51.2708670" lon="7.6101120">
        <ele>447.6300000</ele>
        <time>2010-08-14T12:33:07Z</time>
      </trkpt>
      <trkpt lat="51.2709580" lon="7.6101810">
        <ele>446.6700000</ele>
        <time>2010-08-14T12:33:08Z</time>
      </trkpt>
      <trkpt lat="51.2710550" lon="7.6102180">
        <ele>445.7100000</ele>
        <time>2010-08-14T12:33:09Z</time>
      </trkpt>
      <trkpt lat="51.2720940" lon="7.6104830">
        <ele>434.1700000</ele>
        <time>2010-08-14T12:33:20Z</time>
      </trkpt>
      <trkpt lat="51.2721740" lon="7.6105370">
        <ele>433.2100000</ele>
        <time>2010-08-14T12:33:21Z</time>
      </trkpt>
      <trkpt lat="51.2722500" lon="7.6106120">
        <ele>432.2500000</ele>
        <time>2010-08-14T12:33:22Z</time>
      </trkpt>
      <trkpt lat="51.2723230" lon="7.6107150">
        <ele>431.7700000</ele>
        <time>2010-08-14T12:33:23Z</time>
      </trkpt>
      <trkpt lat="51.2723910" lon="7.6108380">
        <ele>431.2900000</ele>
        <time>2010-08-14T12:33:24Z</time>
      </trkpt>
      <trkpt lat="51.2724540" lon="7.6109650">
        <ele>430.8100000</ele>
        <time>2010-08-14T12:33:25Z</time>
      </trkpt>
      <trkpt lat="51.2727170" lon="7.6115680">
        <ele>426.9600000</ele>
        <time>2010-08-14T12:33:31Z</time>
      </trkpt>
      <trkpt lat="51.2727230" lon="7.6116620">
        <ele>426.0000000</ele>
        <time>2010-08-14T12:33:32Z</time>
      </trkpt>
      <trkpt lat="51.2727060" lon="7.6117530">
        <ele>426.0000000</ele>
        <time>2010-08-14T12:33:33Z</time>
      </trkpt>
      <trkpt lat="51.2726640" lon="7.6118280">
        <ele>425.5200000</ele>
        <time>2010-08-14T12:33:34Z</time>
      </trkpt>
      <trkpt lat="51.2726030" lon="7.6118880">
        <ele>425.0400000</ele>
        <time>2010-08-14T12:33:35Z</time>
      </trkpt>
      <trkpt lat="51.2725370" lon="7.6119370">
        <ele>425.0400000</ele>
        <time>2010-08-14T12:33:36Z</time>
      </trkpt>
      <trkpt lat="51.2724710" lon="7.6119770">
        <ele>425.0400000</ele>
        <time>2010-08-14T12:33:37Z</time>
      </trkpt>
      <trkpt lat="51.2724060" lon="7.6120100">
        <ele>425.0400000</ele>
        <time>2010-08-14T12:33:38Z</time>
      </trkpt>
      <trkpt lat="51.2717280" lon="7.6121680">
        <ele>425.0400000</ele>
        <time>2010-08-14T12:33:47Z</time>
      </trkpt>
      <trkpt lat="51.2716560" lon="7.6122200">
        <ele>425.0400000</ele>
        <time>2010-08-14T12:33:48Z</time>
      </trkpt>
      <trkpt lat="51.2715950" lon="7.6122970">
        <ele>424.5600000</ele>
        <time>2010-08-14T12:33:49Z</time>
      </trkpt>
      <trkpt lat="51.2715520" lon="7.6124020">
        <ele>424.0800000</ele>
        <time>2010-08-14T12:33:50Z</time>
      </trkpt>
      <trkpt lat="51.2715220" lon="7.6125300">
        <ele>423.6000000</ele>
        <time>2010-08-14T12:33:51Z</time>
      </trkpt>
      <trkpt lat="51.2715060" lon="7.6126710">
        <ele>423.6000000</ele>
        <time>2010-08-14T12:33:52Z</time>
      </trkpt>
      <trkpt lat="51.2715020" lon="7.6128150">
        <ele>423.1200000</ele>
        <time>2010-08-14T12:33:53Z</time>
      </trkpt>
      <trkpt lat="51.2715020" lon="7.6129480">
        <ele>422.6400000</ele>
        <time>2010-08-14T12:33:54Z</time>
      </trkpt>
      <trkpt lat="51.2715180" lon="7.6131880">
        <ele>422.1600000</ele>
        <time>2010-08-14T12:33:56Z</time>
      </trkpt>
      <trkpt lat="51.2715490" lon="7.6133120">
        <ele>421.1900000</ele>
        <time>2010-08-14T12:33:57Z</time>
      </trkpt>
      <trkpt lat="51.2716010" lon="7.6134250">
        <ele>420.7100000</ele>
        <time>2010-08-14T12:33:58Z</time>
      </trkpt>
      <trkpt lat="51.2717590" lon="7.6139270">
        <ele>417.3500000</ele>
        <time>2010-08-14T12:34:05Z</time>
      </trkpt>
      <trkpt lat="51.2717090" lon="7.6144910">
        <ele>410.6200000</ele>
        <time>2010-08-14T12:34:16Z</time>
      </trkpt>
      <trkpt lat="51.2716610" lon="7.6148520">
        <ele>407.7400000</ele>
        <time>2010-08-14T12:34:21Z</time>
      </trkpt>
      <trkpt lat="51.2714940" lon="7.6152940">
        <ele>403.8900000</ele>
        <time>2010-08-14T12:34:31Z</time>
      </trkpt>
      <trkpt lat="51.2713070" lon="7.6156170">
        <ele>400.5300000</ele>
        <time>2010-08-14T12:34:46Z</time>
      </trkpt>
      <trkpt lat="51.2712270" lon="7.6159360">
        <ele>401.0100000</ele>
        <time>2010-08-14T12:34:58Z</time>
      </trkpt>
      <trkpt lat="51.2712280" lon="7.6161100">
        <ele>401.4900000</ele>
        <time>2010-08-14T12:35:04Z</time>
      </trkpt>
      <trkpt lat="51.2712430" lon="7.6161370">
        <ele>401.4900000</ele>
        <time>2010-08-14T12:35:05Z</time>
      </trkpt>
      <trkpt lat="51.2712590" lon="7.6161550">
        <ele>401.9700000</ele>
        <time>2010-08-14T12:35:06Z</time>
      </trkpt>
      <trkpt lat="51.2712790" lon="7.6161640">
        <ele>402.9300000</ele>
        <time>2010-08-14T12:35:07Z</time>
      </trkpt>
      <trkpt lat="51.2712490" lon="7.6161770">
        <ele>407.2600000</ele>
        <time>2010-08-14T12:35:20Z</time>
      </trkpt>
      <trkpt lat="51.2712580" lon="7.6161440">
        <ele>413.0200000</ele>
        <time>2010-08-14T12:36:11Z</time>
      </trkpt>
      <trkpt lat="51.2712490" lon="7.6161220">
        <ele>413.5000000</ele>
        <time>2010-08-14T12:36:30Z</time>
      </trkpt>
      <trkpt lat="51.2712390" lon="7.6160780">
        <ele>415.9100000</ele>
        <time>2010-08-14T12:36:40Z</time>
      </trkpt>
      <trkpt lat="51.2711930" lon="7.6161810">
        <ele>395.2400000</ele>
        <time>2010-08-14T13:33:20Z</time>
      </trkpt>
      <trkpt lat="51.2712050" lon="7.6161640">
        <ele>407.7400000</ele>
        <time>2010-08-14T13:34:27Z</time>
      </trkpt>
      <trkpt lat="51.2712040" lon="7.6161450">
        <ele>408.2200000</ele>
        <time>2010-08-14T13:34:30Z</time>
      </trkpt>
      <trkpt lat="51.2712330" lon="7.6159560">
        <ele>409.6600000</ele>
        <time>2010-08-14T13:34:36Z</time>
      </trkpt>
      <trkpt lat="51.2712650" lon="7.6157030">
        <ele>411.1000000</ele>
        <time>2010-08-14T13:34:43Z</time>
      </trkpt>
      <trkpt lat="51.2713940" lon="7.6155030">
        <ele>413.0200000</ele>
        <time>2010-08-14T13:34:49Z</time>
      </trkpt>
      <trkpt lat="51.2714240" lon="7.6154350">
        <ele>413.0200000</ele>
        <time>2010-08-14T13:34:50Z</time>
      </trkpt>
      <trkpt lat="51.2714560" lon="7.6153740">
        <ele>413.0200000</ele>
        <time>2010-08-14T13:34:51Z</time>
      </trkpt>
      <trkpt lat="51.2716620" lon="7.6147830">
        <ele>413.0200000</ele>
        <time>2010-08-14T13:34:58Z</time>
      </trkpt>
      <trkpt lat="51.2716790" lon="7.6146750">
        <ele>413.5000000</ele>
        <time>2010-08-14T13:34:59Z</time>
      </trkpt>
      <trkpt lat="51.2717560" lon="7.6139930">
        <ele>418.3100000</ele>
        <time>2010-08-14T13:35:06Z</time>
      </trkpt>
      <trkpt lat="51.2717500" lon="7.6138190">
        <ele>419.7500000</ele>
        <time>2010-08-14T13:35:08Z</time>
      </trkpt>
      <trkpt lat="51.2717320" lon="7.6137220">
        <ele>420.2300000</ele>
        <time>2010-08-14T13:35:09Z</time>
      </trkpt>
      <trkpt lat="51.2717030" lon="7.6136240">
        <ele>421.1900000</ele>
        <time>2010-08-14T13:35:10Z</time>
      </trkpt>
      <trkpt lat="51.2716670" lon="7.6135220">
        <ele>421.6800000</ele>
        <time>2010-08-14T13:35:11Z</time>
      </trkpt>
      <trkpt lat="51.2716280" lon="7.6134200">
        <ele>422.6400000</ele>
        <time>2010-08-14T13:35:12Z</time>
      </trkpt>
      <trkpt lat="51.2715180" lon="7.6131280">
        <ele>424.5600000</ele>
        <time>2010-08-14T13:35:15Z</time>
      </trkpt>
      <trkpt lat="51.2714990" lon="7.6130310">
        <ele>425.0400000</ele>
        <time>2010-08-14T13:35:16Z</time>
      </trkpt>
      <trkpt lat="51.2714910" lon="7.6129240">
        <ele>425.0400000</ele>
        <time>2010-08-14T13:35:17Z</time>
      </trkpt>
      <trkpt lat="51.2714950" lon="7.6128100">
        <ele>425.0400000</ele>
        <time>2010-08-14T13:35:18Z</time>
      </trkpt>
      <trkpt lat="51.2715010" lon="7.6126970">
        <ele>425.5200000</ele>
        <time>2010-08-14T13:35:19Z</time>
      </trkpt>
      <trkpt lat="51.2715230" lon="7.6124440">
        <ele>426.0000000</ele>
        <time>2010-08-14T13:35:21Z</time>
      </trkpt>
      <trkpt lat="51.2715640" lon="7.6123080">
        <ele>426.4800000</ele>
        <time>2010-08-14T13:35:22Z</time>
      </trkpt>
      <trkpt lat="51.2716660" lon="7.6121180">
        <ele>427.4400000</ele>
        <time>2010-08-14T13:35:24Z</time>
      </trkpt>
      <trkpt lat="51.2717430" lon="7.6121110">
        <ele>427.4400000</ele>
        <time>2010-08-14T13:35:25Z</time>
      </trkpt>
      <trkpt lat="51.2723230" lon="7.6119790">
        <ele>429.3700000</ele>
        <time>2010-08-14T13:35:30Z</time>
      </trkpt>
      <trkpt lat="51.2724350" lon="7.6119320">
        <ele>429.3700000</ele>
        <time>2010-08-14T13:35:31Z</time>
      </trkpt>
      <trkpt lat="51.2725300" lon="7.6118710">
        <ele>429.8500000</ele>
        <time>2010-08-14T13:35:32Z</time>
      </trkpt>
      <trkpt lat="51.2726110" lon="7.6118040">
        <ele>429.8500000</ele>
        <time>2010-08-14T13:35:33Z</time>
      </trkpt>
      <trkpt lat="51.2726720" lon="7.6117290">
        <ele>429.8500000</ele>
        <time>2010-08-14T13:35:34Z</time>
      </trkpt>
      <trkpt lat="51.2727090" lon="7.6116380">
        <ele>430.3300000</ele>
        <time>2010-08-14T13:35:35Z</time>
      </trkpt>
      <trkpt lat="51.2727210" lon="7.6115460">
        <ele>430.3300000</ele>
        <time>2010-08-14T13:35:36Z</time>
      </trkpt>
      <trkpt lat="51.2727070" lon="7.6114630">
        <ele>430.8100000</ele>
        <time>2010-08-14T13:35:37Z</time>
      </trkpt>
      <trkpt lat="51.2726720" lon="7.6113790">
        <ele>430.8100000</ele>
        <time>2010-08-14T13:35:38Z</time>
      </trkpt>
      <trkpt lat="51.2725870" lon="7.6112600">
        <ele>431.2900000</ele>
        <time>2010-08-14T13:35:39Z</time>
      </trkpt>
      <trkpt lat="51.2725010" lon="7.6111160">
        <ele>432.2500000</ele>
        <time>2010-08-14T13:35:40Z</time>
      </trkpt>
      <trkpt lat="51.2721760" lon="7.6105270">
        <ele>433.6900000</ele>
        <time>2010-08-14T13:35:44Z</time>
      </trkpt>
      <trkpt lat="51.2720630" lon="7.6104150">
        <ele>434.1700000</ele>
        <time>2010-08-14T13:35:45Z</time>
      </trkpt>
      <trkpt lat="51.2719390" lon="7.6103380">
        <ele>435.1300000</ele>
        <time>2010-08-14T13:35:46Z</time>
      </trkpt>
      <trkpt lat="51.2718180" lon="7.6102900">
        <ele>436.1000000</ele>
        <time>2010-08-14T13:35:47Z</time>
      </trkpt>
      <trkpt lat="51.2716990" lon="7.6102650">
        <ele>437.5400000</ele>
        <time>2010-08-14T13:35:48Z</time>
      </trkpt>
      <trkpt lat="51.2715850" lon="7.6102450">
        <ele>438.9800000</ele>
        <time>2010-08-14T13:35:49Z</time>
      </trkpt>
      <trkpt lat="51.2708700" lon="7.6100770">
        <ele>447.6300000</ele>
        <time>2010-08-14T13:35:55Z</time>
      </trkpt>
      <trkpt lat="51.2707680" lon="7.6099980">
        <ele>448.5900000</ele>
        <time>2010-08-14T13:35:56Z</time>
      </trkpt>
      <trkpt lat="51.2706540" lon="7.6098580">
        <ele>449.5500000</ele>
        <time>2010-08-14T13:35:57Z</time>
      </trkpt>
      <trkpt lat="51.2697190" lon="7.6086500">
        <ele>455.3200000</ele>
        <time>2010-08-14T13:36:06Z</time>
      </trkpt>
      <trkpt lat="51.2693960" lon="7.6081930">
        <ele>456.7600000</ele>
        <time>2010-08-14T13:36:10Z</time>
      </trkpt>
      <trkpt lat="51.2693530" lon="7.6080630">
        <ele>456.2800000</ele>
        <time>2010-08-14T13:36:11Z</time>
      </trkpt>
      <trkpt lat="51.2693280" lon="7.6079260">
        <ele>455.8000000</ele>
        <time>2010-08-14T13:36:12Z</time>
      </trkpt>
      <trkpt lat="51.2693210" lon="7.6077950">
        <ele>455.3200000</ele>
        <time>2010-08-14T13:36:13Z</time>
      </trkpt>
      <trkpt lat="51.2693300" lon="7.6076810">
        <ele>454.3600000</ele>
        <time>2010-08-14T13:36:14Z</time>
      </trkpt>
      <trkpt lat="51.2693500" lon="7.6075930">
        <ele>453.8800000</ele>
        <time>2010-08-14T13:36:15Z</time>
      </trkpt>
      <trkpt lat="51.2693720" lon="7.6075290">
        <ele>453.4000000</ele>
        <time>2010-08-14T13:36:16Z</time>
      </trkpt>
      <trkpt lat="51.2693730" lon="7.6074040">
        <ele>452.4400000</ele>
        <time>2010-08-14T13:36:20Z</time>
      </trkpt>
      <trkpt lat="51.2693510" lon="7.6073880">
        <ele>451.9600000</ele>
        <time>2010-08-14T13:36:21Z</time>
      </trkpt>
      <trkpt lat="51.2693070" lon="7.6073830">
        <ele>451.4800000</ele>
        <time>2010-08-14T13:36:22Z</time>
      </trkpt>
      <trkpt lat="51.2692400" lon="7.6073990">
        <ele>451.0000000</ele>
        <time>2010-08-14T13:36:23Z</time>
      </trkpt>
      <trkpt lat="51.2691550" lon="7.6074380">
        <ele>450.5200000</ele>
        <time>2010-08-14T13:36:24Z</time>
      </trkpt>
      <trkpt lat="51.2690530" lon="7.6075050">
        <ele>450.0300000</ele>
        <time>2010-08-14T13:36:25Z</time>
      </trkpt>
      <trkpt lat="51.2689100" lon="7.6076670">
        <ele>450.5200000</ele>
        <time>2010-08-14T13:36:26Z</time>
      </trkpt>
      <trkpt lat="51.2679050" lon="7.6084600">
        <ele>455.3200000</ele>
        <time>2010-08-14T13:36:33Z</time>
      </trkpt>
      <trkpt lat="51.2669260" lon="7.6090440">
        <ele>459.6500000</ele>
        <time>2010-08-14T13:36:41Z</time>
      </trkpt>
      <trkpt lat="51.2661960" lon="7.6093270">
        <ele>458.6900000</ele>
        <time>2010-08-14T13:36:46Z</time>
      </trkpt>
      <trkpt lat="51.2660720" lon="7.6094210">
        <ele>458.2100000</ele>
        <time>2010-08-14T13:36:47Z</time>
      </trkpt>
      <trkpt lat="51.2657650" lon="7.6099640">
        <ele>457.7200000</ele>
        <time>2010-08-14T13:36:50Z</time>
      </trkpt>
      <trkpt lat="51.2656820" lon="7.6101640">
        <ele>457.7200000</ele>
        <time>2010-08-14T13:36:51Z</time>
      </trkpt>
      <trkpt lat="51.2655860" lon="7.6103200">
        <ele>457.7200000</ele>
        <time>2010-08-14T13:36:52Z</time>
      </trkpt>
      <trkpt lat="51.2652010" lon="7.6105660">
        <ele>456.7600000</ele>
        <time>2010-08-14T13:36:55Z</time>
      </trkpt>
      <trkpt lat="51.2650740" lon="7.6105480">
        <ele>455.3200000</ele>
        <time>2010-08-14T13:36:56Z</time>
      </trkpt>
      <trkpt lat="51.2649180" lon="7.6104330">
        <ele>453.8800000</ele>
        <time>2010-08-14T13:36:57Z</time>
      </trkpt>
      <trkpt lat="51.2647700" lon="7.6103340">
        <ele>452.9200000</ele>
        <time>2010-08-14T13:36:58Z</time>
      </trkpt>
      <trkpt lat="51.2646350" lon="7.6102720">
        <ele>452.4400000</ele>
        <time>2010-08-14T13:36:59Z</time>
      </trkpt>
      <trkpt lat="51.2644880" lon="7.6102170">
        <ele>451.4800000</ele>
        <time>2010-08-14T13:37:00Z</time>
      </trkpt>
      <trkpt lat="51.2643490" lon="7.6101770">
        <ele>451.0000000</ele>
        <time>2010-08-14T13:37:01Z</time>
      </trkpt>
      <trkpt lat="51.2642110" lon="7.6101620">
        <ele>450.0300000</ele>
        <time>2010-08-14T13:37:02Z</time>
      </trkpt>
      <trkpt lat="51.2640590" lon="7.6101820">
        <ele>450.0300000</ele>
        <time>2010-08-14T13:37:03Z</time>
      </trkpt>
      <trkpt lat="51.2639080" lon="7.6102380">
        <ele>449.5500000</ele>
        <time>2010-08-14T13:37:04Z</time>
      </trkpt>
      <trkpt lat="51.2637510" lon="7.6103370">
        <ele>449.5500000</ele>
        <time>2010-08-14T13:37:05Z</time>
      </trkpt>
      <trkpt lat="51.2635920" lon="7.6104650">
        <ele>450.0300000</ele>
        <time>2010-08-14T13:37:06Z</time>
      </trkpt>
      <trkpt lat="51.2634310" lon="7.6106130">
        <ele>450.5200000</ele>
        <time>2010-08-14T13:37:07Z</time>
      </trkpt>
      <trkpt lat="51.2621030" lon="7.6117250">
        <ele>452.9200000</ele>
        <time>2010-08-14T13:37:16Z</time>
      </trkpt>
      <trkpt lat="51.2618440" lon="7.6118690">
        <ele>452.4400000</ele>
        <time>2010-08-14T13:37:19Z</time>
      </trkpt>
      <trkpt lat="51.2618050" lon="7.6119130">
        <ele>452.4400000</ele>
        <time>2010-08-14T13:37:20Z</time>
      </trkpt>
      <trkpt lat="51.2617430" lon="7.6120410">
        <ele>451.9600000</ele>
        <time>2010-08-14T13:37:27Z</time>
      </trkpt>
      <trkpt lat="51.2617470" lon="7.6120510">
        <ele>451.9600000</ele>
        <time>2010-08-14T13:37:30Z</time>
      </trkpt>
      <trkpt lat="51.2617520" lon="7.6120860">
        <ele>451.9600000</ele>
        <time>2010-08-14T13:37:31Z</time>
      </trkpt>
      <trkpt lat="51.2617810" lon="7.6121750">
        <ele>452.4400000</ele>
        <time>2010-08-14T13:37:32Z</time>
      </trkpt>
      <trkpt lat="51.2618440" lon="7.6122870">
        <ele>452.9200000</ele>
        <time>2010-08-14T13:37:33Z</time>
      </trkpt>
      <trkpt lat="51.2619510" lon="7.6124000">
        <ele>453.4000000</ele>
        <time>2010-08-14T13:37:34Z</time>
      </trkpt>
      <trkpt lat="51.2620810" lon="7.6125060">
        <ele>453.8800000</ele>
        <time>2010-08-14T13:37:35Z</time>
      </trkpt>
      <trkpt lat="51.2622400" lon="7.6126500">
        <ele>454.3600000</ele>
        <time>2010-08-14T13:37:36Z</time>
      </trkpt>
      <trkpt lat="51.2633980" lon="7.6137980">
        <ele>460.1300000</ele>
        <time>2010-08-14T13:37:41Z</time>
      </trkpt>
      <trkpt lat="51.2645470" lon="7.6151250">
        <ele>472.6300000</ele>
        <time>2010-08-14T13:37:47Z</time>
      </trkpt>
      <trkpt lat="51.2657220" lon="7.6171210">
        <ele>483.2000000</ele>
        <time>2010-08-14T13:37:55Z</time>
      </trkpt>
      <trkpt lat="51.2666780" lon="7.6196480">
        <ele>486.5600000</ele>
        <time>2010-08-14T13:38:02Z</time>
      </trkpt>
      <trkpt lat="51.2672520" lon="7.6221080">
        <ele>485.1200000</ele>
        <time>2010-08-14T13:38:08Z</time>
      </trkpt>
      <trkpt lat="51.2677560" lon="7.6257510">
        <ele>482.7200000</ele>
        <time>2010-08-14T13:38:17Z</time>
      </trkpt>
      <trkpt lat="51.2684990" lon="7.6287190">
        <ele>486.5600000</ele>
        <time>2010-08-14T13:38:25Z</time>
      </trkpt>
      <trkpt lat="51.2693140" lon="7.6305870">
        <ele>490.8900000</ele>
        <time>2010-08-14T13:38:31Z</time>
      </trkpt>
      <trkpt lat="51.2705940" lon="7.6324260">
        <ele>495.7000000</ele>
        <time>2010-08-14T13:38:38Z</time>
      </trkpt>
      <trkpt lat="51.2720480" lon="7.6337350">
        <ele>501.9500000</ele>
        <time>2010-08-14T13:38:45Z</time>
      </trkpt>
      <trkpt lat="51.2734590" lon="7.6343820">
        <ele>506.2700000</ele>
        <time>2010-08-14T13:38:52Z</time>
      </trkpt>
      <trkpt lat="51.2752170" lon="7.6345410">
        <ele>503.3900000</ele>
        <time>2010-08-14T13:39:00Z</time>
      </trkpt>
      <trkpt lat="51.2769280" lon="7.6340400">
        <ele>493.2900000</ele>
        <time>2010-08-14T13:39:08Z</time>
      </trkpt>
      <trkpt lat="51.2791090" lon="7.6332500">
        <ele>483.6800000</ele>
        <time>2010-08-14T13:39:19Z</time>
      </trkpt>
      <trkpt lat="51.2809580" lon="7.6333970">
        <ele>475.5100000</ele>
        <time>2010-08-14T13:39:28Z</time>
      </trkpt>
      <trkpt lat="51.2824400" lon="7.6332520">
        <ele>467.3400000</ele>
        <time>2010-08-14T13:39:35Z</time>
      </trkpt>
      <trkpt lat="51.2840540" lon="7.6324110">
        <ele>455.8000000</ele>
        <time>2010-08-14T13:39:43Z</time>
      </trkpt>
      <trkpt lat="51.2854760" lon="7.6309350">
        <ele>446.6700000</ele>
        <time>2010-08-14T13:39:51Z</time>
      </trkpt>
      <trkpt lat="51.2871240" lon="7.6288510">
        <ele>446.1900000</ele>
        <time>2010-08-14T13:40:02Z</time>
      </trkpt>
      <trkpt lat="51.2875810" lon="7.6284300">
        <ele>448.1100000</ele>
        <time>2010-08-14T13:40:06Z</time>
      </trkpt>
      <trkpt lat="51.2876470" lon="7.6284420">
        <ele>448.1100000</ele>
        <time>2010-08-14T13:40:07Z</time>
      </trkpt>
      <trkpt lat="51.2876920" lon="7.6285210">
        <ele>448.1100000</ele>
        <time>2010-08-14T13:40:08Z</time>
      </trkpt>
      <trkpt lat="51.2877210" lon="7.6286570">
        <ele>448.1100000</ele>
        <time>2010-08-14T13:40:09Z</time>
      </trkpt>
      <trkpt lat="51.2877250" lon="7.6288270">
        <ele>448.1100000</ele>
        <time>2010-08-14T13:40:10Z</time>
      </trkpt>
      <trkpt lat="51.2877090" lon="7.6290010">
        <ele>447.6300000</ele>
        <time>2010-08-14T13:40:11Z</time>
      </trkpt>
      <trkpt lat="51.2876960" lon="7.6291870">
        <ele>446.6700000</ele>
        <time>2010-08-14T13:40:12Z</time>
      </trkpt>
      <trkpt lat="51.2877050" lon="7.6293690">
        <ele>445.2300000</ele>
        <time>2010-08-14T13:40:13Z</time>
      </trkpt>
      <trkpt lat="51.2877480" lon="7.6295280">
        <ele>444.2700000</ele>
        <time>2010-08-14T13:40:14Z</time>
      </trkpt>
      <trkpt lat="51.2878300" lon="7.6296290">
        <ele>443.3100000</ele>
        <time>2010-08-14T13:40:15Z</time>
      </trkpt>
      <trkpt lat="51.2879540" lon="7.6296840">
        <ele>442.3400000</ele>
        <time>2010-08-14T13:40:16Z</time>
      </trkpt>
      <trkpt lat="51.2881050" lon="7.6297200">
        <ele>441.8600000</ele>
        <time>2010-08-14T13:40:17Z</time>
      </trkpt>
      <trkpt lat="51.2882730" lon="7.6297370">
        <ele>441.3800000</ele>
        <time>2010-08-14T13:40:18Z</time>
      </trkpt>
      <trkpt lat="51.2884420" lon="7.6297450">
        <ele>440.9000000</ele>
        <time>2010-08-14T13:40:19Z</time>
      </trkpt>
      <trkpt lat="51.2886120" lon="7.6297760">
        <ele>440.9000000</ele>
        <time>2010-08-14T13:40:20Z</time>
      </trkpt>
      <trkpt lat="51.2887870" lon="7.6298830">
        <ele>440.9000000</ele>
        <time>2010-08-14T13:40:21Z</time>
      </trkpt>
      <trkpt lat="51.2889590" lon="7.6300540">
        <ele>441.3800000</ele>
        <time>2010-08-14T13:40:22Z</time>
      </trkpt>
      <trkpt lat="51.2891200" lon="7.6302490">
        <ele>441.3800000</ele>
        <time>2010-08-14T13:40:23Z</time>
      </trkpt>
      <trkpt lat="51.2892660" lon="7.6304550">
        <ele>441.8600000</ele>
        <time>2010-08-14T13:40:24Z</time>
      </trkpt>
      <trkpt lat="51.2893950" lon="7.6306600">
        <ele>441.8600000</ele>
        <time>2010-08-14T13:40:25Z</time>
      </trkpt>
      <trkpt lat="51.2895050" lon="7.6308690">
        <ele>441.8600000</ele>
        <time>2010-08-14T13:40:26Z</time>
      </trkpt>
      <trkpt lat="51.2895950" lon="7.6310780">
        <ele>441.8600000</ele>
        <time>2010-08-14T13:40:27Z</time>
      </trkpt>
      <trkpt lat="51.2896680" lon="7.6312750">
        <ele>441.3800000</ele>
        <time>2010-08-14T13:40:28Z</time>
      </trkpt>
      <trkpt lat="51.2897770" lon="7.6316560">
        <ele>440.4200000</ele>
        <time>2010-08-14T13:40:30Z</time>
      </trkpt>
      <trkpt lat="51.2898080" lon="7.6318570">
        <ele>439.4600000</ele>
        <time>2010-08-14T13:40:31Z</time>
      </trkpt>
      <trkpt lat="51.2898150" lon="7.6320710">
        <ele>438.9800000</ele>
        <time>2010-08-14T13:40:32Z</time>
      </trkpt>
      <trkpt lat="51.2898000" lon="7.6322880">
        <ele>438.0200000</ele>
        <time>2010-08-14T13:40:33Z</time>
      </trkpt>
      <trkpt lat="51.2897870" lon="7.6325030">
        <ele>437.0600000</ele>
        <time>2010-08-14T13:40:34Z</time>
      </trkpt>
      <trkpt lat="51.2898060" lon="7.6329470">
        <ele>434.6500000</ele>
        <time>2010-08-14T13:40:36Z</time>
      </trkpt>
      <trkpt lat="51.2898400" lon="7.6331750">
        <ele>433.6900000</ele>
        <time>2010-08-14T13:40:37Z</time>
      </trkpt>
      <trkpt lat="51.2898830" lon="7.6334000">
        <ele>431.7700000</ele>
        <time>2010-08-14T13:40:38Z</time>
      </trkpt>
      <trkpt lat="51.2899510" lon="7.6336110">
        <ele>430.3300000</ele>
        <time>2010-08-14T13:40:39Z</time>
      </trkpt>
      <trkpt lat="51.2900230" lon="7.6338110">
        <ele>428.8900000</ele>
        <time>2010-08-14T13:40:40Z</time>
      </trkpt>
      <trkpt lat="51.2900890" lon="7.6339910">
        <ele>427.9200000</ele>
        <time>2010-08-14T13:40:41Z</time>
      </trkpt>
      <trkpt lat="51.2903220" lon="7.6345200">
        <ele>424.5600000</ele>
        <time>2010-08-14T13:40:46Z</time>
      </trkpt>
      <trkpt lat="51.2903500" lon="7.6345910">
        <ele>424.5600000</ele>
        <time>2010-08-14T13:40:47Z</time>
      </trkpt>
      <trkpt lat="51.2903520" lon="7.6346400">
        <ele>423.6000000</ele>
        <time>2010-08-14T13:40:48Z</time>
      </trkpt>
      <trkpt lat="51.2903260" lon="7.6346400">
        <ele>422.1600000</ele>
        <time>2010-08-14T13:40:49Z</time>
      </trkpt>
      <trkpt lat="51.2902880" lon="7.6346120">
        <ele>420.7100000</ele>
        <time>2010-08-14T13:40:50Z</time>
      </trkpt>
      <trkpt lat="51.2902360" lon="7.6345760">
        <ele>419.2700000</ele>
        <time>2010-08-14T13:40:51Z</time>
      </trkpt>
      <trkpt lat="51.2901470" lon="7.6344920">
        <ele>417.8300000</ele>
        <time>2010-08-14T13:40:52Z</time>
      </trkpt>
      <trkpt lat="51.2900270" lon="7.6343810">
        <ele>416.3900000</ele>
        <time>2010-08-14T13:40:53Z</time>
      </trkpt>
      <trkpt lat="51.2892510" lon="7.6339640">
        <ele>409.6600000</ele>
        <time>2010-08-14T13:40:58Z</time>
      </trkpt>
      <trkpt lat="51.2887400" lon="7.6334470">
        <ele>401.4900000</ele>
        <time>2010-08-14T13:41:04Z</time>
      </trkpt>
      <trkpt lat="51.2886950" lon="7.6334470">
        <ele>395.7200000</ele>
        <time>2010-08-14T13:41:06Z</time>
      </trkpt>
      <trkpt lat="51.2887420" lon="7.6335210">
        <ele>395.7200000</ele>
        <time>2010-08-14T13:41:07Z</time>
      </trkpt>
      <trkpt lat="51.2887660" lon="7.6336350">
        <ele>394.2800000</ele>
        <time>2010-08-14T13:41:08Z</time>
      </trkpt>
      <trkpt lat="51.2887770" lon="7.6338650">
        <ele>393.3200000</ele>
        <time>2010-08-14T13:41:09Z</time>
      </trkpt>
      <trkpt lat="51.2888100" lon="7.6340750">
        <ele>392.8400000</ele>
        <time>2010-08-14T13:41:10Z</time>
      </trkpt>
      <trkpt lat="51.2888640" lon="7.6342990">
        <ele>390.4300000</ele>
        <time>2010-08-14T13:41:11Z</time>
      </trkpt>
      <trkpt lat="51.2889760" lon="7.6346020">
        <ele>388.5100000</ele>
        <time>2010-08-14T13:41:12Z</time>
      </trkpt>
      <trkpt lat="51.2890790" lon="7.6348500">
        <ele>385.1500000</ele>
        <time>2010-08-14T13:41:13Z</time>
      </trkpt>
      <trkpt lat="51.2891700" lon="7.6351170">
        <ele>382.2600000</ele>
        <time>2010-08-14T13:41:14Z</time>
      </trkpt>
      <trkpt lat="51.2892500" lon="7.6353880">
        <ele>379.3800000</ele>
        <time>2010-08-14T13:41:15Z</time>
      </trkpt>
      <trkpt lat="51.2898080" lon="7.6372290">
        <ele>363.0400000</ele>
        <time>2010-08-14T13:41:23Z</time>
      </trkpt>
      <trkpt lat="51.2900640" lon="7.6376880">
        <ele>355.3400000</ele>
        <time>2010-08-14T13:41:26Z</time>
      </trkpt>
      <trkpt lat="51.2901640" lon="7.6378040">
        <ele>352.9400000</ele>
        <time>2010-08-14T13:41:27Z</time>
      </trkpt>
      <trkpt lat="51.2902670" lon="7.6379040">
        <ele>351.0200000</ele>
        <time>2010-08-14T13:41:28Z</time>
      </trkpt>
      <trkpt lat="51.2903710" lon="7.6379770">
        <ele>350.0600000</ele>
        <time>2010-08-14T13:41:29Z</time>
      </trkpt>
      <trkpt lat="51.2904790" lon="7.6380180">
        <ele>348.6200000</ele>
        <time>2010-08-14T13:41:30Z</time>
      </trkpt>
      <trkpt lat="51.2905880" lon="7.6380360">
        <ele>347.1700000</ele>
        <time>2010-08-14T13:41:31Z</time>
      </trkpt>
      <trkpt lat="51.2906950" lon="7.6380440">
        <ele>345.2500000</ele>
        <time>2010-08-14T13:41:32Z</time>
      </trkpt>
      <trkpt lat="51.2908120" lon="7.6380260">
        <ele>343.8100000</ele>
        <time>2010-08-14T13:41:33Z</time>
      </trkpt>
      <trkpt lat="51.2909290" lon="7.6380300">
        <ele>341.8900000</ele>
        <time>2010-08-14T13:41:34Z</time>
      </trkpt>
      <trkpt lat="51.2910300" lon="7.6380880">
        <ele>340.9200000</ele>
        <time>2010-08-14T13:41:35Z</time>
      </trkpt>
      <trkpt lat="51.2911170" lon="7.6381990">
        <ele>339.4800000</ele>
        <time>2010-08-14T13:41:36Z</time>
      </trkpt>
      <trkpt lat="51.2912000" lon="7.6383220">
        <ele>338.5200000</ele>
        <time>2010-08-14T13:41:37Z</time>
      </trkpt>
      <trkpt lat="51.2913780" lon="7.6385320">
        <ele>336.1200000</ele>
        <time>2010-08-14T13:41:39Z</time>
      </trkpt>
      <trkpt lat="51.2916010" lon="7.6388120">
        <ele>335.1600000</ele>
        <time>2010-08-14T13:41:43Z</time>
      </trkpt>
      <trkpt lat="51.2916210" lon="7.6388950">
        <ele>334.6800000</ele>
        <time>2010-08-14T13:41:44Z</time>
      </trkpt>
      <trkpt lat="51.2915220" lon="7.6390310">
        <ele>335.6400000</ele>
        <time>2010-08-14T13:41:45Z</time>
      </trkpt>
      <trkpt lat="51.2914010" lon="7.6391750">
        <ele>335.6400000</ele>
        <time>2010-08-14T13:41:46Z</time>
      </trkpt>
      <trkpt lat="51.2913310" lon="7.6393160">
        <ele>335.6400000</ele>
        <time>2010-08-14T13:41:47Z</time>
      </trkpt>
      <trkpt lat="51.2912770" lon="7.6394200">
        <ele>336.1200000</ele>
        <time>2010-08-14T13:41:48Z</time>
      </trkpt>
      <trkpt lat="51.2912390" lon="7.6395350">
        <ele>335.6400000</ele>
        <time>2010-08-14T13:41:49Z</time>
      </trkpt>
      <trkpt lat="51.2912740" lon="7.6396810">
        <ele>335.6400000</ele>
        <time>2010-08-14T13:41:50Z</time>
      </trkpt>
      <trkpt lat="51.2913020" lon="7.6398500">
        <ele>334.2000000</ele>
        <time>2010-08-14T13:41:51Z</time>
      </trkpt>
      <trkpt lat="51.2913230" lon="7.6400160">
        <ele>333.2300000</ele>
        <time>2010-08-14T13:41:52Z</time>
      </trkpt>
      <trkpt lat="51.2913510" lon="7.6402210">
        <ele>333.2300000</ele>
        <time>2010-08-14T13:41:53Z</time>
      </trkpt>
      <trkpt lat="51.2913830" lon="7.6403340">
        <ele>332.2700000</ele>
        <time>2010-08-14T13:41:54Z</time>
      </trkpt>
      <trkpt lat="51.2914520" lon="7.6403930">
        <ele>331.3100000</ele>
        <time>2010-08-14T13:41:55Z</time>
      </trkpt>
      <trkpt lat="51.2915410" lon="7.6404290">
        <ele>330.8300000</ele>
        <time>2010-08-14T13:41:56Z</time>
      </trkpt>
      <trkpt lat="51.2916190" lon="7.6404500">
        <ele>330.3500000</ele>
        <time>2010-08-14T13:41:57Z</time>
      </trkpt>
      <trkpt lat="51.2916370" lon="7.6405030">
        <ele>332.2700000</ele>
        <time>2010-08-14T13:41:58Z</time>
      </trkpt>
      <trkpt lat="51.2916490" lon="7.6405620">
        <ele>335.6400000</ele>
        <time>2010-08-14T13:41:59Z</time>
      </trkpt>
      <trkpt lat="51.2916160" lon="7.6406100">
        <ele>339.0000000</ele>
        <time>2010-08-14T13:42:00Z</time>
      </trkpt>
      <trkpt lat="51.2915870" lon="7.6406180">
        <ele>337.0800000</ele>
        <time>2010-08-14T13:42:01Z</time>
      </trkpt>
      <trkpt lat="51.2915110" lon="7.6405450">
        <ele>336.6000000</ele>
        <time>2010-08-14T13:42:02Z</time>
      </trkpt>
      <trkpt lat="51.2913930" lon="7.6404450">
        <ele>335.6400000</ele>
        <time>2010-08-14T13:42:03Z</time>
      </trkpt>
      <trkpt lat="51.2912580" lon="7.6404010">
        <ele>334.2000000</ele>
        <time>2010-08-14T13:42:04Z</time>
      </trkpt>
      <trkpt lat="51.2911450" lon="7.6403140">
        <ele>332.7500000</ele>
        <time>2010-08-14T13:42:05Z</time>
      </trkpt>
      <trkpt lat="51.2910810" lon="7.6401340">
        <ele>330.8300000</ele>
        <time>2010-08-14T13:42:06Z</time>
      </trkpt>
      <trkpt lat="51.2910110" lon="7.6399600">
        <ele>327.9500000</ele>
        <time>2010-08-14T13:42:07Z</time>
      </trkpt>
      <trkpt lat="51.2909530" lon="7.6397800">
        <ele>325.0600000</ele>
        <time>2010-08-14T13:42:08Z</time>
      </trkpt>
      <trkpt lat="51.2909020" lon="7.6396100">
        <ele>323.6200000</ele>
        <time>2010-08-14T13:42:09Z</time>
      </trkpt>
      <trkpt lat="51.2908610" lon="7.6394600">
        <ele>321.7000000</ele>
        <time>2010-08-14T13:42:10Z</time>
      </trkpt>
      <trkpt lat="51.2907510" lon="7.6393720">
        <ele>318.3300000</ele>
        <time>2010-08-14T13:42:12Z</time>
      </trkpt>
      <trkpt lat="51.2906900" lon="7.6393570">
        <ele>316.4100000</ele>
        <time>2010-08-14T13:42:13Z</time>
      </trkpt>
      <trkpt lat="51.2906150" lon="7.6393940">
        <ele>314.9700000</ele>
        <time>2010-08-14T13:42:14Z</time>
      </trkpt>
      <trkpt lat="51.2904310" lon="7.6394510">
        <ele>312.0900000</ele>
        <time>2010-08-14T13:42:16Z</time>
      </trkpt>
      <trkpt lat="51.2902960" lon="7.6397030">
        <ele>309.6800000</ele>
        <time>2010-08-14T13:42:18Z</time>
      </trkpt>
      <trkpt lat="51.2902810" lon="7.6397340">
        <ele>309.2000000</ele>
        <time>2010-08-14T13:42:19Z</time>
      </trkpt>
      <trkpt lat="51.2903540" lon="7.6397480">
        <ele>307.2800000</ele>
        <time>2010-08-14T13:42:20Z</time>
      </trkpt>
      <trkpt lat="51.2904230" lon="7.6398140">
        <ele>305.8400000</ele>
        <time>2010-08-14T13:42:21Z</time>
      </trkpt>
      <trkpt lat="51.2905050" lon="7.6399180">
        <ele>303.9100000</ele>
        <time>2010-08-14T13:42:22Z</time>
      </trkpt>
      <trkpt lat="51.2906470" lon="7.6401790">
        <ele>300.0700000</ele>
        <time>2010-08-14T13:42:23Z</time>
      </trkpt>
      <trkpt lat="51.2910330" lon="7.6416300">
        <ele>289.9700000</ele>
        <time>2010-08-14T13:42:29Z</time>
      </trkpt>
      <trkpt lat="51.2912190" lon="7.6436240">
        <ele>272.6700000</ele>
        <time>2010-08-14T13:42:37Z</time>
      </trkpt>
      <trkpt lat="51.2912830" lon="7.6460150">
        <ele>260.1700000</ele>
        <time>2010-08-14T13:42:47Z</time>
      </trkpt>
      <trkpt lat="51.2913680" lon="7.6477310">
        <ele>242.8700000</ele>
        <time>2010-08-14T13:42:55Z</time>
      </trkpt>
      <trkpt lat="51.2914250" lon="7.6480630">
        <ele>239.0200000</ele>
        <time>2010-08-14T13:42:57Z</time>
      </trkpt>
      <trkpt lat="51.2914840" lon="7.6481960">
        <ele>236.6200000</ele>
        <time>2010-08-14T13:42:58Z</time>
      </trkpt>
      <trkpt lat="51.2915620" lon="7.6483110">
        <ele>235.1800000</ele>
        <time>2010-08-14T13:42:59Z</time>
      </trkpt>
      <trkpt lat="51.2916470" lon="7.6484170">
        <ele>233.7400000</ele>
        <time>2010-08-14T13:43:00Z</time>
      </trkpt>
      <trkpt lat="51.2917270" lon="7.6485150">
        <ele>232.7800000</ele>
        <time>2010-08-14T13:43:01Z</time>
      </trkpt>
      <trkpt lat="51.2921060" lon="7.6489420">
        <ele>230.3700000</ele>
        <time>2010-08-14T13:43:06Z</time>
      </trkpt>
      <trkpt lat="51.2921950" lon="7.6490000">
        <ele>229.4100000</ele>
        <time>2010-08-14T13:43:07Z</time>
      </trkpt>
      <trkpt lat="51.2922960" lon="7.6490430">
        <ele>228.9300000</ele>
        <time>2010-08-14T13:43:08Z</time>
      </trkpt>
      <trkpt lat="51.2924020" lon="7.6490690">
        <ele>228.4500000</ele>
        <time>2010-08-14T13:43:09Z</time>
      </trkpt>
      <trkpt lat="51.2925080" lon="7.6490750">
        <ele>227.4900000</ele>
        <time>2010-08-14T13:43:10Z</time>
      </trkpt>
      <trkpt lat="51.2926110" lon="7.6490580">
        <ele>226.5300000</ele>
        <time>2010-08-14T13:43:11Z</time>
      </trkpt>
      <trkpt lat="51.2927140" lon="7.6490280">
        <ele>225.5700000</ele>
        <time>2010-08-14T13:43:12Z</time>
      </trkpt>
      <trkpt lat="51.2928190" lon="7.6489750">
        <ele>225.0900000</ele>
        <time>2010-08-14T13:43:13Z</time>
      </trkpt>
      <trkpt lat="51.2929230" lon="7.6489080">
        <ele>225.0900000</ele>
        <time>2010-08-14T13:43:14Z</time>
      </trkpt>
      <trkpt lat="51.2930230" lon="7.6488370">
        <ele>225.5700000</ele>
        <time>2010-08-14T13:43:15Z</time>
      </trkpt>
      <trkpt lat="51.2939840" lon="7.6480980">
        <ele>232.3000000</ele>
        <time>2010-08-14T13:43:25Z</time>
      </trkpt>
      <trkpt lat="51.2949090" lon="7.6478750">
        <ele>234.2200000</ele>
        <time>2010-08-14T13:43:35Z</time>
      </trkpt>
      <trkpt lat="51.2960550" lon="7.6479390">
        <ele>218.8400000</ele>
        <time>2010-08-14T13:43:47Z</time>
      </trkpt>
      <trkpt lat="51.2968440" lon="7.6480350">
        <ele>212.1100000</ele>
        <time>2010-08-14T13:43:56Z</time>
      </trkpt>
      <trkpt lat="51.2973470" lon="7.6481260">
        <ele>209.7000000</ele>
        <time>2010-08-14T13:44:02Z</time>
      </trkpt>
      <trkpt lat="51.2974360" lon="7.6481880">
        <ele>208.7400000</ele>
        <time>2010-08-14T13:44:03Z</time>
      </trkpt>
      <trkpt lat="51.2975260" lon="7.6482620">
        <ele>208.2600000</ele>
        <time>2010-08-14T13:44:04Z</time>
      </trkpt>
      <trkpt lat="51.2982020" lon="7.6491260">
        <ele>201.5300000</ele>
        <time>2010-08-14T13:44:13Z</time>
      </trkpt>
      <trkpt lat="51.2984770" lon="7.6495640">
        <ele>199.6100000</ele>
        <time>2010-08-14T13:44:17Z</time>
      </trkpt>
      <trkpt lat="51.2985520" lon="7.6496460">
        <ele>199.6100000</ele>
        <time>2010-08-14T13:44:18Z</time>
      </trkpt>
      <trkpt lat="51.2986300" lon="7.6497130">
        <ele>199.1300000</ele>
        <time>2010-08-14T13:44:19Z</time>
      </trkpt>
      <trkpt lat="51.2995380" lon="7.6501480">
        <ele>195.7700000</ele>
        <time>2010-08-14T13:44:30Z</time>
      </trkpt>
      <trkpt lat="51.3001690" lon="7.6504480">
        <ele>191.9200000</ele>
        <time>2010-08-14T13:44:37Z</time>
      </trkpt>
      <trkpt lat="51.3006290" lon="7.6509510">
        <ele>190.9600000</ele>
        <time>2010-08-14T13:44:43Z</time>
      </trkpt>
      <trkpt lat="51.3006840" lon="7.6510370">
        <ele>190.9600000</ele>
        <time>2010-08-14T13:44:44Z</time>
      </trkpt>
      <trkpt lat="51.3009360" lon="7.6515010">
        <ele>189.0400000</ele>
        <time>2010-08-14T13:44:49Z</time>
      </trkpt>
      <trkpt lat="51.3014110" lon="7.6522410">
        <ele>184.7100000</ele>
        <time>2010-08-14T13:44:58Z</time>
      </trkpt>
      <trkpt lat="51.3014930" lon="7.6522640">
        <ele>184.2300000</ele>
        <time>2010-08-14T13:44:59Z</time>
      </trkpt>
      <trkpt lat="51.3015920" lon="7.6522800">
        <ele>183.7500000</ele>
        <time>2010-08-14T13:45:00Z</time>
      </trkpt>
      <trkpt lat="51.3016850" lon="7.6522920">
        <ele>182.7900000</ele>
        <time>2010-08-14T13:45:01Z</time>
      </trkpt>
      <trkpt lat="51.3017710" lon="7.6523330">
        <ele>182.7900000</ele>
        <time>2010-08-14T13:45:02Z</time>
      </trkpt>
      <trkpt lat="51.3018570" lon="7.6524480">
        <ele>182.3100000</ele>
        <time>2010-08-14T13:45:03Z</time>
      </trkpt>
      <trkpt lat="51.3019270" lon="7.6526020">
        <ele>181.8300000</ele>
        <time>2010-08-14T13:45:04Z</time>
      </trkpt>
      <trkpt lat="51.3019840" lon="7.6527700">
        <ele>181.3500000</ele>
        <time>2010-08-14T13:45:05Z</time>
      </trkpt>
      <trkpt lat="51.3020290" lon="7.6529620">
        <ele>180.8700000</ele>
        <time>2010-08-14T13:45:06Z</time>
      </trkpt>
      <trkpt lat="51.3020620" lon="7.6531620">
        <ele>180.3800000</ele>
        <time>2010-08-14T13:45:07Z</time>
      </trkpt>
      <trkpt lat="51.3020870" lon="7.6533610">
        <ele>179.9000000</ele>
        <time>2010-08-14T13:45:08Z</time>
      </trkpt>
      <trkpt lat="51.3021090" lon="7.6535550">
        <ele>178.9400000</ele>
        <time>2010-08-14T13:45:09Z</time>
      </trkpt>
      <trkpt lat="51.3022110" lon="7.6542710">
        <ele>177.0200000</ele>
        <time>2010-08-14T13:45:13Z</time>
      </trkpt>
      <trkpt lat="51.3022590" lon="7.6544220">
        <ele>177.0200000</ele>
        <time>2010-08-14T13:45:14Z</time>
      </trkpt>
      <trkpt lat="51.3023370" lon="7.6545570">
        <ele>176.0600000</ele>
        <time>2010-08-14T13:45:15Z</time>
      </trkpt>
      <trkpt lat="51.3024920" lon="7.6548940">
        <ele>175.1000000</ele>
        <time>2010-08-14T13:45:17Z</time>
      </trkpt>
      <trkpt lat="51.3025620" lon="7.6550910">
        <ele>174.6200000</ele>
        <time>2010-08-14T13:45:18Z</time>
      </trkpt>
      <trkpt lat="51.3032890" lon="7.6565220">
        <ele>171.2500000</ele>
        <time>2010-08-14T13:45:27Z</time>
      </trkpt>
      <trkpt lat="51.3037720" lon="7.6569650">
        <ele>168.8500000</ele>
        <time>2010-08-14T13:45:32Z</time>
      </trkpt>
      <trkpt lat="51.3038770" lon="7.6570120">
        <ele>167.8900000</ele>
        <time>2010-08-14T13:45:33Z</time>
      </trkpt>
      <trkpt lat="51.3039910" lon="7.6570380">
        <ele>167.4100000</ele>
        <time>2010-08-14T13:45:34Z</time>
      </trkpt>
      <trkpt lat="51.3047750" lon="7.6573260">
        <ele>162.1200000</ele>
        <time>2010-08-14T13:45:41Z</time>
      </trkpt>
      <trkpt lat="51.3048790" lon="7.6573960">
        <ele>161.6400000</ele>
        <time>2010-08-14T13:45:42Z</time>
      </trkpt>
      <trkpt lat="51.3053980" lon="7.6578010">
        <ele>159.7200000</ele>
        <time>2010-08-14T13:45:50Z</time>
      </trkpt>
      <trkpt lat="51.3055160" lon="7.6579140">
        <ele>162.1200000</ele>
        <time>2010-08-14T13:45:57Z</time>
      </trkpt>
      <trkpt lat="51.3055400" lon="7.6580110">
        <ele>162.6000000</ele>
        <time>2010-08-14T13:45:58Z</time>
      </trkpt>
      <trkpt lat="51.3055600" lon="7.6581370">
        <ele>163.0800000</ele>
        <time>2010-08-14T13:45:59Z</time>
      </trkpt>
      <trkpt lat="51.3055980" lon="7.6584260">
        <ele>163.0800000</ele>
        <time>2010-08-14T13:46:01Z</time>
      </trkpt>
      <trkpt lat="51.3060830" lon="7.6600150">
        <ele>166.4500000</ele>
        <time>2010-08-14T13:46:10Z</time>
      </trkpt>
      <trkpt lat="51.3068640" lon="7.6616120">
        <ele>170.7700000</ele>
        <time>2010-08-14T13:46:19Z</time>
      </trkpt>
      <trkpt lat="51.3069550" lon="7.6616450">
        <ele>171.7300000</ele>
        <time>2010-08-14T13:46:20Z</time>
      </trkpt>
      <trkpt lat="51.3070530" lon="7.6616950">
        <ele>172.2100000</ele>
        <time>2010-08-14T13:46:21Z</time>
      </trkpt>
      <trkpt lat="51.3071510" lon="7.6617690">
        <ele>172.2100000</ele>
        <time>2010-08-14T13:46:22Z</time>
      </trkpt>
      <trkpt lat="51.3072410" lon="7.6618640">
        <ele>171.7300000</ele>
        <time>2010-08-14T13:46:23Z</time>
      </trkpt>
      <trkpt lat="51.3073150" lon="7.6619950">
        <ele>172.2100000</ele>
        <time>2010-08-14T13:46:24Z</time>
      </trkpt>
      <trkpt lat="51.3073780" lon="7.6621410">
        <ele>172.2100000</ele>
        <time>2010-08-14T13:46:25Z</time>
      </trkpt>
      <trkpt lat="51.3074270" lon="7.6622900">
        <ele>172.2100000</ele>
        <time>2010-08-14T13:46:26Z</time>
      </trkpt>
      <trkpt lat="51.3074590" lon="7.6624350">
        <ele>172.2100000</ele>
        <time>2010-08-14T13:46:27Z</time>
      </trkpt>
      <trkpt lat="51.3074760" lon="7.6625720">
        <ele>172.2100000</ele>
        <time>2010-08-14T13:46:28Z</time>
      </trkpt>
      <trkpt lat="51.3074780" lon="7.6626980">
        <ele>172.2100000</ele>
        <time>2010-08-14T13:46:29Z</time>
      </trkpt>
      <trkpt lat="51.3074650" lon="7.6628110">
        <ele>171.7300000</ele>
        <time>2010-08-14T13:46:30Z</time>
      </trkpt>
      <trkpt lat="51.3074400" lon="7.6629190">
        <ele>171.7300000</ele>
        <time>2010-08-14T13:46:31Z</time>
      </trkpt>
      <trkpt lat="51.3074230" lon="7.6630340">
        <ele>171.7300000</ele>
        <time>2010-08-14T13:46:32Z</time>
      </trkpt>
      <trkpt lat="51.3074340" lon="7.6631510">
        <ele>171.2500000</ele>
        <time>2010-08-14T13:46:33Z</time>
      </trkpt>
      <trkpt lat="51.3074580" lon="7.6632700">
        <ele>171.2500000</ele>
        <time>2010-08-14T13:46:34Z</time>
      </trkpt>
      <trkpt lat="51.3074690" lon="7.6633990">
        <ele>170.7700000</ele>
        <time>2010-08-14T13:46:35Z</time>
      </trkpt>
      <trkpt lat="51.3074580" lon="7.6635460">
        <ele>170.2900000</ele>
        <time>2010-08-14T13:46:36Z</time>
      </trkpt>
      <trkpt lat="51.3074220" lon="7.6637000">
        <ele>169.8100000</ele>
        <time>2010-08-14T13:46:37Z</time>
      </trkpt>
      <trkpt lat="51.3073620" lon="7.6638500">
        <ele>169.3300000</ele>
        <time>2010-08-14T13:46:38Z</time>
      </trkpt>
      <trkpt lat="51.3072860" lon="7.6639990">
        <ele>168.8500000</ele>
        <time>2010-08-14T13:46:39Z</time>
      </trkpt>
      <trkpt lat="51.3072010" lon="7.6641590">
        <ele>168.3700000</ele>
        <time>2010-08-14T13:46:40Z</time>
      </trkpt>
      <trkpt lat="51.3065110" lon="7.6654510">
        <ele>164.5200000</ele>
        <time>2010-08-14T13:46:47Z</time>
      </trkpt>
      <trkpt lat="51.3062310" lon="7.6657290">
        <ele>163.5600000</ele>
        <time>2010-08-14T13:46:51Z</time>
      </trkpt>
      <trkpt lat="51.3061910" lon="7.6657810">
        <ele>163.5600000</ele>
        <time>2010-08-14T13:46:52Z</time>
      </trkpt>
      <trkpt lat="51.3061780" lon="7.6658470">
        <ele>163.5600000</ele>
        <time>2010-08-14T13:46:53Z</time>
      </trkpt>
      <trkpt lat="51.3063370" lon="7.6661700">
        <ele>162.1200000</ele>
        <time>2010-08-14T13:46:57Z</time>
      </trkpt>
      <trkpt lat="51.3064220" lon="7.6662420">
        <ele>161.6400000</ele>
        <time>2010-08-14T13:46:58Z</time>
      </trkpt>
      <trkpt lat="51.3065210" lon="7.6663260">
        <ele>161.1600000</ele>
        <time>2010-08-14T13:46:59Z</time>
      </trkpt>
      <trkpt lat="51.3066430" lon="7.6664780">
        <ele>160.6800000</ele>
        <time>2010-08-14T13:47:00Z</time>
      </trkpt>
      <trkpt lat="51.3067490" lon="7.6666450">
        <ele>159.7200000</ele>
        <time>2010-08-14T13:47:01Z</time>
      </trkpt>
      <trkpt lat="51.3068450" lon="7.6668150">
        <ele>159.7200000</ele>
        <time>2010-08-14T13:47:02Z</time>
      </trkpt>
      <trkpt lat="51.3073160" lon="7.6676160">
        <ele>161.1600000</ele>
        <time>2010-08-14T13:47:07Z</time>
      </trkpt>
      <trkpt lat="51.3074360" lon="7.6677240">
        <ele>161.1600000</ele>
        <time>2010-08-14T13:47:08Z</time>
      </trkpt>
      <trkpt lat="51.3075890" lon="7.6677210">
        <ele>161.6400000</ele>
        <time>2010-08-14T13:47:09Z</time>
      </trkpt>
      <trkpt lat="51.3077600" lon="7.6677210">
        <ele>162.1200000</ele>
        <time>2010-08-14T13:47:10Z</time>
      </trkpt>
      <trkpt lat="51.3079550" lon="7.6677270">
        <ele>162.6000000</ele>
        <time>2010-08-14T13:47:11Z</time>
      </trkpt>
      <trkpt lat="51.3089320" lon="7.6677630">
        <ele>164.5200000</ele>
        <time>2010-08-14T13:47:17Z</time>
      </trkpt>
      <trkpt lat="51.3090350" lon="7.6678430">
        <ele>165.0000000</ele>
        <time>2010-08-14T13:47:18Z</time>
      </trkpt>
      <trkpt lat="51.3091110" lon="7.6679750">
        <ele>165.0000000</ele>
        <time>2010-08-14T13:47:19Z</time>
      </trkpt>
      <trkpt lat="51.3091430" lon="7.6681520">
        <ele>166.4500000</ele>
        <time>2010-08-14T13:47:20Z</time>
      </trkpt>
      <trkpt lat="51.3091480" lon="7.6683480">
        <ele>166.9300000</ele>
        <time>2010-08-14T13:47:21Z</time>
      </trkpt>
      <trkpt lat="51.3091350" lon="7.6685560">
        <ele>167.8900000</ele>
        <time>2010-08-14T13:47:22Z</time>
      </trkpt>
      <trkpt lat="51.3091120" lon="7.6687910">
        <ele>168.8500000</ele>
        <time>2010-08-14T13:47:23Z</time>
      </trkpt>
      <trkpt lat="51.3090430" lon="7.6690490">
        <ele>169.8100000</ele>
        <time>2010-08-14T13:47:24Z</time>
      </trkpt>
      <trkpt lat="51.3089580" lon="7.6693170">
        <ele>171.2500000</ele>
        <time>2010-08-14T13:47:25Z</time>
      </trkpt>
      <trkpt lat="51.3088910" lon="7.6695720">
        <ele>172.2100000</ele>
        <time>2010-08-14T13:47:26Z</time>
      </trkpt>
      <trkpt lat="51.3087710" lon="7.6704840">
        <ele>174.6200000</ele>
        <time>2010-08-14T13:47:30Z</time>
      </trkpt>
      <trkpt lat="51.3088010" lon="7.6706750">
        <ele>175.1000000</ele>
        <time>2010-08-14T13:47:31Z</time>
      </trkpt>
      <trkpt lat="51.3088830" lon="7.6707900">
        <ele>175.1000000</ele>
        <time>2010-08-14T13:47:32Z</time>
      </trkpt>
      <trkpt lat="51.3089490" lon="7.6708800">
        <ele>175.5800000</ele>
        <time>2010-08-14T13:47:33Z</time>
      </trkpt>
      <trkpt lat="51.3090150" lon="7.6709300">
        <ele>175.5800000</ele>
        <time>2010-08-14T13:47:34Z</time>
      </trkpt>
      <trkpt lat="51.3090560" lon="7.6709840">
        <ele>175.5800000</ele>
        <time>2010-08-14T13:47:35Z</time>
      </trkpt>
      <trkpt lat="51.3090830" lon="7.6710510">
        <ele>176.0600000</ele>
        <time>2010-08-14T13:47:36Z</time>
      </trkpt>
      <trkpt lat="51.3091000" lon="7.6711380">
        <ele>177.0200000</ele>
        <time>2010-08-14T13:47:37Z</time>
      </trkpt>
      <trkpt lat="51.3090810" lon="7.6712420">
        <ele>177.5000000</ele>
        <time>2010-08-14T13:47:38Z</time>
      </trkpt>
      <trkpt lat="51.3090490" lon="7.6713620">
        <ele>178.4600000</ele>
        <time>2010-08-14T13:47:39Z</time>
      </trkpt>
      <trkpt lat="51.3088830" lon="7.6727770">
        <ele>184.7100000</ele>
        <time>2010-08-14T13:47:47Z</time>
      </trkpt>
      <trkpt lat="51.3088170" lon="7.6745540">
        <ele>196.2500000</ele>
        <time>2010-08-14T13:47:55Z</time>
      </trkpt>
      <trkpt lat="51.3085460" lon="7.6765030">
        <ele>209.2200000</ele>
        <time>2010-08-14T13:48:02Z</time>
      </trkpt>
      <trkpt lat="51.3082230" lon="7.6781790">
        <ele>220.2800000</ele>
        <time>2010-08-14T13:48:10Z</time>
      </trkpt>
      <trkpt lat="51.3080480" lon="7.6792990">
        <ele>228.9300000</ele>
        <time>2010-08-14T13:48:16Z</time>
      </trkpt>
      <trkpt lat="51.3080550" lon="7.6810180">
        <ele>238.5400000</ele>
        <time>2010-08-14T13:48:24Z</time>
      </trkpt>
      <trkpt lat="51.3082780" lon="7.6833630">
        <ele>260.1700000</ele>
        <time>2010-08-14T13:48:33Z</time>
      </trkpt>
      <trkpt lat="51.3083750" lon="7.6839200">
        <ele>265.9400000</ele>
        <time>2010-08-14T13:48:35Z</time>
      </trkpt>
      <trkpt lat="51.3089850" lon="7.6858050">
        <ele>281.8000000</ele>
        <time>2010-08-14T13:48:43Z</time>
      </trkpt>
      <trkpt lat="51.3091070" lon="7.6862960">
        <ele>286.1300000</ele>
        <time>2010-08-14T13:48:45Z</time>
      </trkpt>
      <trkpt lat="51.3092380" lon="7.6875890">
        <ele>299.1100000</ele>
        <time>2010-08-14T13:48:52Z</time>
      </trkpt>
      <trkpt lat="51.3091670" lon="7.6876350">
        <ele>301.5100000</ele>
        <time>2010-08-14T13:48:53Z</time>
      </trkpt>
      <trkpt lat="51.3091140" lon="7.6876350">
        <ele>302.9500000</ele>
        <time>2010-08-14T13:48:54Z</time>
      </trkpt>
      <trkpt lat="51.3090600" lon="7.6876150">
        <ele>303.9100000</ele>
        <time>2010-08-14T13:48:55Z</time>
      </trkpt>
      <trkpt lat="51.3090300" lon="7.6875190">
        <ele>305.3600000</ele>
        <time>2010-08-14T13:48:56Z</time>
      </trkpt>
      <trkpt lat="51.3089790" lon="7.6873820">
        <ele>306.3200000</ele>
        <time>2010-08-14T13:48:57Z</time>
      </trkpt>
      <trkpt lat="51.3089170" lon="7.6872560">
        <ele>307.2800000</ele>
        <time>2010-08-14T13:48:58Z</time>
      </trkpt>
      <trkpt lat="51.3088270" lon="7.6871030">
        <ele>308.2400000</ele>
        <time>2010-08-14T13:48:59Z</time>
      </trkpt>
      <trkpt lat="51.3087170" lon="7.6869410">
        <ele>308.2400000</ele>
        <time>2010-08-14T13:49:00Z</time>
      </trkpt>
      <trkpt lat="51.3083680" lon="7.6864300">
        <ele>310.6400000</ele>
        <time>2010-08-14T13:49:06Z</time>
      </trkpt>
      <trkpt lat="51.3083600" lon="7.6864900">
        <ele>310.6400000</ele>
        <time>2010-08-14T13:49:07Z</time>
      </trkpt>
      <trkpt lat="51.3083380" lon="7.6865520">
        <ele>309.6800000</ele>
        <time>2010-08-14T13:49:08Z</time>
      </trkpt>
      <trkpt lat="51.3083660" lon="7.6866530">
        <ele>309.2000000</ele>
        <time>2010-08-14T13:49:09Z</time>
      </trkpt>
      <trkpt lat="51.3084180" lon="7.6867550">
        <ele>309.6800000</ele>
        <time>2010-08-14T13:49:10Z</time>
      </trkpt>
      <trkpt lat="51.3085090" lon="7.6869070">
        <ele>309.6800000</ele>
        <time>2010-08-14T13:49:11Z</time>
      </trkpt>
      <trkpt lat="51.3085730" lon="7.6870600">
        <ele>309.6800000</ele>
        <time>2010-08-14T13:49:12Z</time>
      </trkpt>
      <trkpt lat="51.3088980" lon="7.6882900">
        <ele>315.4500000</ele>
        <time>2010-08-14T13:49:18Z</time>
      </trkpt>
      <trkpt lat="51.3094360" lon="7.6902830">
        <ele>325.5400000</ele>
        <time>2010-08-14T13:49:27Z</time>
      </trkpt>
      <trkpt lat="51.3097470" lon="7.6910660">
        <ele>332.7500000</ele>
        <time>2010-08-14T13:49:33Z</time>
      </trkpt>
      <trkpt lat="51.3097790" lon="7.6910930">
        <ele>334.6800000</ele>
        <time>2010-08-14T13:49:34Z</time>
      </trkpt>
      <trkpt lat="51.3098100" lon="7.6910310">
        <ele>336.6000000</ele>
        <time>2010-08-14T13:49:35Z</time>
      </trkpt>
      <trkpt lat="51.3098290" lon="7.6910050">
        <ele>338.0400000</ele>
        <time>2010-08-14T13:49:36Z</time>
      </trkpt>
      <trkpt lat="51.3098850" lon="7.6909220">
        <ele>338.5200000</ele>
        <time>2010-08-14T13:49:37Z</time>
      </trkpt>
      <trkpt lat="51.3099070" lon="7.6907350">
        <ele>339.0000000</ele>
        <time>2010-08-14T13:49:38Z</time>
      </trkpt>
      <trkpt lat="51.3099220" lon="7.6904370">
        <ele>339.9600000</ele>
        <time>2010-08-14T13:49:39Z</time>
      </trkpt>
      <trkpt lat="51.3099440" lon="7.6901590">
        <ele>340.9200000</ele>
        <time>2010-08-14T13:49:40Z</time>
      </trkpt>
      <trkpt lat="51.3100050" lon="7.6898100">
        <ele>341.4100000</ele>
        <time>2010-08-14T13:49:41Z</time>
      </trkpt>
      <trkpt lat="51.3102990" lon="7.6879310">
        <ele>348.1300000</ele>
        <time>2010-08-14T13:49:48Z</time>
      </trkpt>
      <trkpt lat="51.3103530" lon="7.6877730">
        <ele>348.1300000</ele>
        <time>2010-08-14T13:49:49Z</time>
      </trkpt>
      <trkpt lat="51.3103890" lon="7.6876150">
        <ele>349.5800000</ele>
        <time>2010-08-14T13:49:50Z</time>
      </trkpt>
      <trkpt lat="51.3104230" lon="7.6869380">
        <ele>355.3400000</ele>
        <time>2010-08-14T13:49:53Z</time>
      </trkpt>
      <trkpt lat="51.3104200" lon="7.6854670">
        <ele>362.5500000</ele>
        <time>2010-08-14T13:49:58Z</time>
      </trkpt>
      <trkpt lat="51.3103600" lon="7.6845040">
        <ele>372.6500000</ele>
        <time>2010-08-14T13:50:04Z</time>
      </trkpt>
      <trkpt lat="51.3103510" lon="7.6844720">
        <ele>373.6100000</ele>
        <time>2010-08-14T13:50:05Z</time>
      </trkpt>
      <trkpt lat="51.3103920" lon="7.6843960">
        <ele>373.6100000</ele>
        <time>2010-08-14T13:50:07Z</time>
      </trkpt>
      <trkpt lat="51.3104520" lon="7.6844510">
        <ele>373.1300000</ele>
        <time>2010-08-14T13:50:08Z</time>
      </trkpt>
      <trkpt lat="51.3104890" lon="7.6845210">
        <ele>373.1300000</ele>
        <time>2010-08-14T13:50:09Z</time>
      </trkpt>
      <trkpt lat="51.3105110" lon="7.6846280">
        <ele>372.6500000</ele>
        <time>2010-08-14T13:50:10Z</time>
      </trkpt>
      <trkpt lat="51.3105470" lon="7.6848290">
        <ele>372.1700000</ele>
        <time>2010-08-14T13:50:11Z</time>
      </trkpt>
      <trkpt lat="51.3105770" lon="7.6849950">
        <ele>373.6100000</ele>
        <time>2010-08-14T13:50:12Z</time>
      </trkpt>
      <trkpt lat="51.3108000" lon="7.6853940">
        <ele>376.9700000</ele>
        <time>2010-08-14T13:50:19Z</time>
      </trkpt>
      <trkpt lat="51.3108630" lon="7.6852150">
        <ele>376.9700000</ele>
        <time>2010-08-14T13:50:20Z</time>
      </trkpt>
      <trkpt lat="51.3109270" lon="7.6850440">
        <ele>378.4200000</ele>
        <time>2010-08-14T13:50:21Z</time>
      </trkpt>
      <trkpt lat="51.3110050" lon="7.6849400">
        <ele>379.3800000</ele>
        <time>2010-08-14T13:50:22Z</time>
      </trkpt>
      <trkpt lat="51.3110820" lon="7.6848740">
        <ele>380.3400000</ele>
        <time>2010-08-14T13:50:23Z</time>
      </trkpt>
      <trkpt lat="51.3111590" lon="7.6848370">
        <ele>381.3000000</ele>
        <time>2010-08-14T13:50:24Z</time>
      </trkpt>
      <trkpt lat="51.3112370" lon="7.6848040">
        <ele>382.2600000</ele>
        <time>2010-08-14T13:50:25Z</time>
      </trkpt>
      <trkpt lat="51.3113980" lon="7.6847590">
        <ele>383.7000000</ele>
        <time>2010-08-14T13:50:27Z</time>
      </trkpt>
      <trkpt lat="51.3114850" lon="7.6847790">
        <ele>384.6600000</ele>
        <time>2010-08-14T13:50:28Z</time>
      </trkpt>
      <trkpt lat="51.3115630" lon="7.6848300">
        <ele>385.1500000</ele>
        <time>2010-08-14T13:50:29Z</time>
      </trkpt>
      <trkpt lat="51.3116250" lon="7.6848950">
        <ele>386.1100000</ele>
        <time>2010-08-14T13:50:30Z</time>
      </trkpt>
      <trkpt lat="51.3116760" lon="7.6849650">
        <ele>386.5900000</ele>
        <time>2010-08-14T13:50:31Z</time>
      </trkpt>
      <trkpt lat="51.3117190" lon="7.6850410">
        <ele>387.0700000</ele>
        <time>2010-08-14T13:50:32Z</time>
      </trkpt>
      <trkpt lat="51.3117580" lon="7.6851280">
        <ele>388.0300000</ele>
        <time>2010-08-14T13:50:33Z</time>
      </trkpt>
      <trkpt lat="51.3117890" lon="7.6852280">
        <ele>388.5100000</ele>
        <time>2010-08-14T13:50:34Z</time>
      </trkpt>
      <trkpt lat="51.3118110" lon="7.6853350">
        <ele>388.9900000</ele>
        <time>2010-08-14T13:50:35Z</time>
      </trkpt>
      <trkpt lat="51.3118270" lon="7.6854390">
        <ele>389.9500000</ele>
        <time>2010-08-14T13:50:36Z</time>
      </trkpt>
      <trkpt lat="51.3118400" lon="7.6855400">
        <ele>390.4300000</ele>
        <time>2010-08-14T13:50:37Z</time>
      </trkpt>
      <trkpt lat="51.3121410" lon="7.6866250">
        <ele>396.6800000</ele>
        <time>2010-08-14T13:50:48Z</time>
      </trkpt>
      <trkpt lat="51.3125440" lon="7.6880330">
        <ele>403.8900000</ele>
        <time>2010-08-14T13:51:00Z</time>
      </trkpt>
      <trkpt lat="51.3125710" lon="7.6882280">
        <ele>404.8500000</ele>
        <time>2010-08-14T13:51:01Z</time>
      </trkpt>
      <trkpt lat="51.3125840" lon="7.6884560">
        <ele>405.3300000</ele>
        <time>2010-08-14T13:51:02Z</time>
      </trkpt>
      <trkpt lat="51.3126010" lon="7.6889310">
        <ele>407.2600000</ele>
        <time>2010-08-14T13:51:04Z</time>
      </trkpt>
      <trkpt lat="51.3126320" lon="7.6891640">
        <ele>407.7400000</ele>
        <time>2010-08-14T13:51:05Z</time>
      </trkpt>
      <trkpt lat="51.3126860" lon="7.6893980">
        <ele>408.7000000</ele>
        <time>2010-08-14T13:51:06Z</time>
      </trkpt>
      <trkpt lat="51.3129080" lon="7.6900900">
        <ele>412.0600000</ele>
        <time>2010-08-14T13:51:09Z</time>
      </trkpt>
      <trkpt lat="51.3130160" lon="7.6903080">
        <ele>413.5000000</ele>
        <time>2010-08-14T13:51:10Z</time>
      </trkpt>
      <trkpt lat="51.3135220" lon="7.6910810">
        <ele>418.3100000</ele>
        <time>2010-08-14T13:51:14Z</time>
      </trkpt>
      <trkpt lat="51.3136530" lon="7.6912180">
        <ele>419.2700000</ele>
        <time>2010-08-14T13:51:15Z</time>
      </trkpt>
      <trkpt lat="51.3137830" lon="7.6913300">
        <ele>420.2300000</ele>
        <time>2010-08-14T13:51:16Z</time>
      </trkpt>
      <trkpt lat="51.3141390" lon="7.6915870">
        <ele>422.6400000</ele>
        <time>2010-08-14T13:51:19Z</time>
      </trkpt>
      <trkpt lat="51.3142570" lon="7.6916330">
        <ele>423.6000000</ele>
        <time>2010-08-14T13:51:20Z</time>
      </trkpt>
      <trkpt lat="51.3143760" lon="7.6916510">
        <ele>424.5600000</ele>
        <time>2010-08-14T13:51:21Z</time>
      </trkpt>
      <trkpt lat="51.3145000" lon="7.6916450">
        <ele>425.0400000</ele>
        <time>2010-08-14T13:51:22Z</time>
      </trkpt>
      <trkpt lat="51.3146230" lon="7.6916160">
        <ele>425.5200000</ele>
        <time>2010-08-14T13:51:23Z</time>
      </trkpt>
      <trkpt lat="51.3147380" lon="7.6915620">
        <ele>426.4800000</ele>
        <time>2010-08-14T13:51:24Z</time>
      </trkpt>
      <trkpt lat="51.3148380" lon="7.6914900">
        <ele>426.9600000</ele>
        <time>2010-08-14T13:51:25Z</time>
      </trkpt>
      <trkpt lat="51.3149190" lon="7.6914020">
        <ele>427.9200000</ele>
        <time>2010-08-14T13:51:26Z</time>
      </trkpt>
      <trkpt lat="51.3149650" lon="7.6912210">
        <ele>428.4000000</ele>
        <time>2010-08-14T13:51:27Z</time>
      </trkpt>
      <trkpt lat="51.3150030" lon="7.6910480">
        <ele>429.3700000</ele>
        <time>2010-08-14T13:51:28Z</time>
      </trkpt>
      <trkpt lat="51.3150280" lon="7.6908710">
        <ele>430.3300000</ele>
        <time>2010-08-14T13:51:29Z</time>
      </trkpt>
      <trkpt lat="51.3150470" lon="7.6907040">
        <ele>430.8100000</ele>
        <time>2010-08-14T13:51:30Z</time>
      </trkpt>
      <trkpt lat="51.3152690" lon="7.6894730">
        <ele>435.6100000</ele>
        <time>2010-08-14T13:51:38Z</time>
      </trkpt>
      <trkpt lat="51.3153440" lon="7.6892770">
        <ele>436.5800000</ele>
        <time>2010-08-14T13:51:39Z</time>
      </trkpt>
      <trkpt lat="51.3154300" lon="7.6890970">
        <ele>437.5400000</ele>
        <time>2010-08-14T13:51:40Z</time>
      </trkpt>
      <trkpt lat="51.3155320" lon="7.6889350">
        <ele>438.0200000</ele>
        <time>2010-08-14T13:51:41Z</time>
      </trkpt>
      <trkpt lat="51.3156490" lon="7.6887890">
        <ele>438.9800000</ele>
        <time>2010-08-14T13:51:42Z</time>
      </trkpt>
      <trkpt lat="51.3157710" lon="7.6886600">
        <ele>439.9400000</ele>
        <time>2010-08-14T13:51:43Z</time>
      </trkpt>
      <trkpt lat="51.3159100" lon="7.6885440">
        <ele>440.9000000</ele>
        <time>2010-08-14T13:51:44Z</time>
      </trkpt>
      <trkpt lat="51.3160460" lon="7.6884720">
        <ele>442.3400000</ele>
        <time>2010-08-14T13:51:45Z</time>
      </trkpt>
      <trkpt lat="51.3162120" lon="7.6884540">
        <ele>443.3100000</ele>
        <time>2010-08-14T13:51:46Z</time>
      </trkpt>
      <trkpt lat="51.3163670" lon="7.6884630">
        <ele>445.2300000</ele>
        <time>2010-08-14T13:51:47Z</time>
      </trkpt>
      <trkpt lat="51.3165190" lon="7.6884120">
        <ele>445.7100000</ele>
        <time>2010-08-14T13:51:48Z</time>
      </trkpt>
      <trkpt lat="51.3166680" lon="7.6883600">
        <ele>447.6300000</ele>
        <time>2010-08-14T13:51:49Z</time>
      </trkpt>
      <trkpt lat="51.3172320" lon="7.6879810">
        <ele>450.5200000</ele>
        <time>2010-08-14T13:51:53Z</time>
      </trkpt>
      <trkpt lat="51.3173400" lon="7.6877970">
        <ele>450.5200000</ele>
        <time>2010-08-14T13:51:54Z</time>
      </trkpt>
      <trkpt lat="51.3177340" lon="7.6871130">
        <ele>451.0000000</ele>
        <time>2010-08-14T13:51:58Z</time>
      </trkpt>
      <trkpt lat="51.3178210" lon="7.6870490">
        <ele>451.4800000</ele>
        <time>2010-08-14T13:51:59Z</time>
      </trkpt>
      <trkpt lat="51.3179160" lon="7.6870470">
        <ele>451.9600000</ele>
        <time>2010-08-14T13:52:00Z</time>
      </trkpt>
      <trkpt lat="51.3180180" lon="7.6870620">
        <ele>452.4400000</ele>
        <time>2010-08-14T13:52:01Z</time>
      </trkpt>
      <trkpt lat="51.3181210" lon="7.6870940">
        <ele>453.4000000</ele>
        <time>2010-08-14T13:52:02Z</time>
      </trkpt>
      <trkpt lat="51.3182090" lon="7.6871230">
        <ele>454.3600000</ele>
        <time>2010-08-14T13:52:03Z</time>
      </trkpt>
      <trkpt lat="51.3184510" lon="7.6871990">
        <ele>455.3200000</ele>
        <time>2010-08-14T13:52:09Z</time>
      </trkpt>
      <trkpt lat="51.3188900" lon="7.6872440">
        <ele>453.8800000</ele>
        <time>2010-08-14T13:52:16Z</time>
      </trkpt>
      <trkpt lat="51.3197220" lon="7.6874060">
        <ele>446.6700000</ele>
        <time>2010-08-14T13:52:25Z</time>
      </trkpt>
      <trkpt lat="51.3197650" lon="7.6874970">
        <ele>445.7100000</ele>
        <time>2010-08-14T13:52:26Z</time>
      </trkpt>
      <trkpt lat="51.3197710" lon="7.6876300">
        <ele>444.7500000</ele>
        <time>2010-08-14T13:52:27Z</time>
      </trkpt>
      <trkpt lat="51.3197380" lon="7.6877820">
        <ele>443.7900000</ele>
        <time>2010-08-14T13:52:28Z</time>
      </trkpt>
      <trkpt lat="51.3196860" lon="7.6879680">
        <ele>443.3100000</ele>
        <time>2010-08-14T13:52:29Z</time>
      </trkpt>
      <trkpt lat="51.3196340" lon="7.6881870">
        <ele>443.3100000</ele>
        <time>2010-08-14T13:52:30Z</time>
      </trkpt>
      <trkpt lat="51.3195340" lon="7.6887980">
        <ele>443.3100000</ele>
        <time>2010-08-14T13:52:33Z</time>
      </trkpt>
      <trkpt lat="51.3195390" lon="7.6889480">
        <ele>443.3100000</ele>
        <time>2010-08-14T13:52:34Z</time>
      </trkpt>
      <trkpt lat="51.3195750" lon="7.6890780">
        <ele>442.8200000</ele>
        <time>2010-08-14T13:52:35Z</time>
      </trkpt>
      <trkpt lat="51.3196520" lon="7.6892070">
        <ele>441.8600000</ele>
        <time>2010-08-14T13:52:36Z</time>
      </trkpt>
      <trkpt lat="51.3197580" lon="7.6893290">
        <ele>440.9000000</ele>
        <time>2010-08-14T13:52:37Z</time>
      </trkpt>
      <trkpt lat="51.3198470" lon="7.6894570">
        <ele>440.4200000</ele>
        <time>2010-08-14T13:52:38Z</time>
      </trkpt>
      <trkpt lat="51.3199260" lon="7.6895910">
        <ele>438.9800000</ele>
        <time>2010-08-14T13:52:39Z</time>
      </trkpt>
      <trkpt lat="51.3200040" lon="7.6897280">
        <ele>438.0200000</ele>
        <time>2010-08-14T13:52:40Z</time>
      </trkpt>
      <trkpt lat="51.3201110" lon="7.6898830">
        <ele>437.0600000</ele>
        <time>2010-08-14T13:52:41Z</time>
      </trkpt>
      <trkpt lat="51.3206920" lon="7.6909240">
        <ele>432.2500000</ele>
        <time>2010-08-14T13:52:46Z</time>
      </trkpt>
      <trkpt lat="51.3208900" lon="7.6912680">
        <ele>430.3300000</ele>
        <time>2010-08-14T13:52:48Z</time>
      </trkpt>
      <trkpt lat="51.3210030" lon="7.6913950">
        <ele>429.3700000</ele>
        <time>2010-08-14T13:52:49Z</time>
      </trkpt>
      <trkpt lat="51.3211280" lon="7.6914820">
        <ele>428.4000000</ele>
        <time>2010-08-14T13:52:50Z</time>
      </trkpt>
      <trkpt lat="51.3212610" lon="7.6915320">
        <ele>427.4400000</ele>
        <time>2010-08-14T13:52:51Z</time>
      </trkpt>
      <trkpt lat="51.3214060" lon="7.6915390">
        <ele>426.9600000</ele>
        <time>2010-08-14T13:52:52Z</time>
      </trkpt>
      <trkpt lat="51.3215430" lon="7.6915350">
        <ele>426.0000000</ele>
        <time>2010-08-14T13:52:53Z</time>
      </trkpt>
      <trkpt lat="51.3220710" lon="7.6916110">
        <ele>420.7100000</ele>
        <time>2010-08-14T13:52:58Z</time>
      </trkpt>
      <trkpt lat="51.3220880" lon="7.6917960">
        <ele>419.2700000</ele>
        <time>2010-08-14T13:52:59Z</time>
      </trkpt>
      <trkpt lat="51.3221070" lon="7.6919640">
        <ele>418.3100000</ele>
        <time>2010-08-14T13:53:00Z</time>
      </trkpt>
      <trkpt lat="51.3221190" lon="7.6921350">
        <ele>416.8700000</ele>
        <time>2010-08-14T13:53:01Z</time>
      </trkpt>
      <trkpt lat="51.3221310" lon="7.6922970">
        <ele>415.9100000</ele>
        <time>2010-08-14T13:53:02Z</time>
      </trkpt>
      <trkpt lat="51.3221520" lon="7.6924370">
        <ele>415.4300000</ele>
        <time>2010-08-14T13:53:03Z</time>
      </trkpt>
      <trkpt lat="51.3223090" lon="7.6922010">
        <ele>409.1800000</ele>
        <time>2010-08-14T13:53:08Z</time>
      </trkpt>
      <trkpt lat="51.3223570" lon="7.6920380">
        <ele>409.1800000</ele>
        <time>2010-08-14T13:53:09Z</time>
      </trkpt>
      <trkpt lat="51.3223970" lon="7.6919140">
        <ele>409.6600000</ele>
        <time>2010-08-14T13:53:10Z</time>
      </trkpt>
      <trkpt lat="51.3224370" lon="7.6918260">
        <ele>409.6600000</ele>
        <time>2010-08-14T13:53:11Z</time>
      </trkpt>
      <trkpt lat="51.3224810" lon="7.6917910">
        <ele>409.1800000</ele>
        <time>2010-08-14T13:53:12Z</time>
      </trkpt>
      <trkpt lat="51.3225290" lon="7.6918180">
        <ele>408.7000000</ele>
        <time>2010-08-14T13:53:13Z</time>
      </trkpt>
      <trkpt lat="51.3225770" lon="7.6918920">
        <ele>408.7000000</ele>
        <time>2010-08-14T13:53:14Z</time>
      </trkpt>
      <trkpt lat="51.3226090" lon="7.6920160">
        <ele>408.2200000</ele>
        <time>2010-08-14T13:53:15Z</time>
      </trkpt>
      <trkpt lat="51.3226320" lon="7.6921760">
        <ele>407.2600000</ele>
        <time>2010-08-14T13:53:16Z</time>
      </trkpt>
      <trkpt lat="51.3226360" lon="7.6923580">
        <ele>406.7700000</ele>
        <time>2010-08-14T13:53:17Z</time>
      </trkpt>
      <trkpt lat="51.3226250" lon="7.6925420">
        <ele>405.8100000</ele>
        <time>2010-08-14T13:53:18Z</time>
      </trkpt>
      <trkpt lat="51.3226250" lon="7.6927420">
        <ele>405.3300000</ele>
        <time>2010-08-14T13:53:19Z</time>
      </trkpt>
      <trkpt lat="51.3224610" lon="7.6943340">
        <ele>398.1200000</ele>
        <time>2010-08-14T13:53:26Z</time>
      </trkpt>
      <trkpt lat="51.3224550" lon="7.6952240">
        <ele>392.8400000</ele>
        <time>2010-08-14T13:53:30Z</time>
      </trkpt>
      <trkpt lat="51.3225030" lon="7.6954620">
        <ele>391.3900000</ele>
        <time>2010-08-14T13:53:31Z</time>
      </trkpt>
      <trkpt lat="51.3226890" lon="7.6962710">
        <ele>387.0700000</ele>
        <time>2010-08-14T13:53:35Z</time>
      </trkpt>
      <trkpt lat="51.3226980" lon="7.6964250">
        <ele>386.1100000</ele>
        <time>2010-08-14T13:53:36Z</time>
      </trkpt>
      <trkpt lat="51.3226780" lon="7.6965680">
        <ele>385.1500000</ele>
        <time>2010-08-14T13:53:37Z</time>
      </trkpt>
      <trkpt lat="51.3226250" lon="7.6967150">
        <ele>384.1800000</ele>
        <time>2010-08-14T13:53:38Z</time>
      </trkpt>
      <trkpt lat="51.3225430" lon="7.6968750">
        <ele>383.2200000</ele>
        <time>2010-08-14T13:53:39Z</time>
      </trkpt>
      <trkpt lat="51.3224520" lon="7.6970440">
        <ele>381.7800000</ele>
        <time>2010-08-14T13:53:40Z</time>
      </trkpt>
      <trkpt lat="51.3218210" lon="7.6980970">
        <ele>375.0500000</ele>
        <time>2010-08-14T13:53:48Z</time>
      </trkpt>
      <trkpt lat="51.3218370" lon="7.6981430">
        <ele>373.1300000</ele>
        <time>2010-08-14T13:53:49Z</time>
      </trkpt>
      <trkpt lat="51.3218540" lon="7.6981860">
        <ele>372.6500000</ele>
        <time>2010-08-14T13:53:50Z</time>
      </trkpt>
      <trkpt lat="51.3219340" lon="7.6981130">
        <ele>372.6500000</ele>
        <time>2010-08-14T13:53:51Z</time>
      </trkpt>
      <trkpt lat="51.3219620" lon="7.6980770">
        <ele>374.0900000</ele>
        <time>2010-08-14T13:53:52Z</time>
      </trkpt>
      <trkpt lat="51.3220570" lon="7.6979910">
        <ele>374.5700000</ele>
        <time>2010-08-14T13:53:53Z</time>
      </trkpt>
      <trkpt lat="51.3222390" lon="7.6978720">
        <ele>376.4900000</ele>
        <time>2010-08-14T13:53:54Z</time>
      </trkpt>
      <trkpt lat="51.3226820" lon="7.6975740">
        <ele>377.4500000</ele>
        <time>2010-08-14T13:53:56Z</time>
      </trkpt>
      <trkpt lat="51.3228290" lon="7.6974290">
        <ele>375.0500000</ele>
        <time>2010-08-14T13:53:57Z</time>
      </trkpt>
      <trkpt lat="51.3229630" lon="7.6973000">
        <ele>372.1700000</ele>
        <time>2010-08-14T13:53:58Z</time>
      </trkpt>
      <trkpt lat="51.3231090" lon="7.6972070">
        <ele>370.7300000</ele>
        <time>2010-08-14T13:53:59Z</time>
      </trkpt>
      <trkpt lat="51.3232680" lon="7.6971630">
        <ele>368.8000000</ele>
        <time>2010-08-14T13:54:00Z</time>
      </trkpt>
      <trkpt lat="51.3234230" lon="7.6971290">
        <ele>366.4000000</ele>
        <time>2010-08-14T13:54:01Z</time>
      </trkpt>
      <trkpt lat="51.3244550" lon="7.6970350">
        <ele>354.3800000</ele>
        <time>2010-08-14T13:54:09Z</time>
      </trkpt>
      <trkpt lat="51.3247000" lon="7.6969600">
        <ele>351.9800000</ele>
        <time>2010-08-14T13:54:14Z</time>
      </trkpt>
      <trkpt lat="51.3247280" lon="7.6969620">
        <ele>351.0200000</ele>
        <time>2010-08-14T13:54:22Z</time>
      </trkpt>
      <trkpt lat="51.3247530" lon="7.6969860">
        <ele>351.0200000</ele>
        <time>2010-08-14T13:54:23Z</time>
      </trkpt>
      <trkpt lat="51.3247850" lon="7.6970340">
        <ele>351.0200000</ele>
        <time>2010-08-14T13:54:24Z</time>
      </trkpt>
      <trkpt lat="51.3248170" lon="7.6971030">
        <ele>351.0200000</ele>
        <time>2010-08-14T13:54:25Z</time>
      </trkpt>
      <trkpt lat="51.3248470" lon="7.6971820">
        <ele>351.0200000</ele>
        <time>2010-08-14T13:54:26Z</time>
      </trkpt>
      <trkpt lat="51.3248750" lon="7.6972650">
        <ele>351.0200000</ele>
        <time>2010-08-14T13:54:27Z</time>
      </trkpt>
      <trkpt lat="51.3249130" lon="7.6973440">
        <ele>350.5400000</ele>
        <time>2010-08-14T13:54:28Z</time>
      </trkpt>
      <trkpt lat="51.3249710" lon="7.6974160">
        <ele>351.0200000</ele>
        <time>2010-08-14T13:54:29Z</time>
      </trkpt>
      <trkpt lat="51.3250370" lon="7.6974690">
        <ele>351.0200000</ele>
        <time>2010-08-14T13:54:30Z</time>
      </trkpt>
      <trkpt lat="51.3251020" lon="7.6975040">
        <ele>351.5000000</ele>
        <time>2010-08-14T13:54:31Z</time>
      </trkpt>
      <trkpt lat="51.3251560" lon="7.6975250">
        <ele>351.5000000</ele>
        <time>2010-08-14T13:54:32Z</time>
      </trkpt>
      <trkpt lat="51.3251950" lon="7.6975340">
        <ele>351.5000000</ele>
        <time>2010-08-14T13:54:33Z</time>
      </trkpt>
      <trkpt lat="51.3252250" lon="7.6975380">
        <ele>351.9800000</ele>
        <time>2010-08-14T13:54:34Z</time>
      </trkpt>
      <trkpt lat="51.3253190" lon="7.6975670">
        <ele>353.4200000</ele>
        <time>2010-08-14T13:54:37Z</time>
      </trkpt>
      <trkpt lat="51.3253630" lon="7.6976050">
        <ele>353.4200000</ele>
        <time>2010-08-14T13:54:38Z</time>
      </trkpt>
      <trkpt lat="51.3254320" lon="7.6977100">
        <ele>353.9000000</ele>
        <time>2010-08-14T13:54:39Z</time>
      </trkpt>
      <trkpt lat="51.3254710" lon="7.6979270">
        <ele>354.3800000</ele>
        <time>2010-08-14T13:54:40Z</time>
      </trkpt>
      <trkpt lat="51.3255360" lon="7.6981080">
        <ele>354.8600000</ele>
        <time>2010-08-14T13:54:41Z</time>
      </trkpt>
      <trkpt lat="51.3255650" lon="7.6983460">
        <ele>355.3400000</ele>
        <time>2010-08-14T13:54:42Z</time>
      </trkpt>
      <trkpt lat="51.3256340" lon="7.6985540">
        <ele>355.8300000</ele>
        <time>2010-08-14T13:54:43Z</time>
      </trkpt>
      <trkpt lat="51.3256750" lon="7.6987860">
        <ele>356.3100000</ele>
        <time>2010-08-14T13:54:44Z</time>
      </trkpt>
      <trkpt lat="51.3256910" lon="7.6990250">
        <ele>356.7900000</ele>
        <time>2010-08-14T13:54:45Z</time>
      </trkpt>
      <trkpt lat="51.3256690" lon="7.6992870">
        <ele>357.2700000</ele>
        <time>2010-08-14T13:54:46Z</time>
      </trkpt>
      <trkpt lat="51.3256230" lon="7.6995660">
        <ele>357.7500000</ele>
        <time>2010-08-14T13:54:47Z</time>
      </trkpt>
      <trkpt lat="51.3255610" lon="7.6998700">
        <ele>358.2300000</ele>
        <time>2010-08-14T13:54:48Z</time>
      </trkpt>
      <trkpt lat="51.3254950" lon="7.7001750">
        <ele>359.1900000</ele>
        <time>2010-08-14T13:54:49Z</time>
      </trkpt>
      <trkpt lat="51.3254300" lon="7.7004720">
        <ele>360.1500000</ele>
        <time>2010-08-14T13:54:50Z</time>
      </trkpt>
      <trkpt lat="51.3250940" lon="7.7032020">
        <ele>368.3200000</ele>
        <time>2010-08-14T13:54:59Z</time>
      </trkpt>
      <trkpt lat="51.3251150" lon="7.7034880">
        <ele>368.8000000</ele>
        <time>2010-08-14T13:55:00Z</time>
      </trkpt>
      <trkpt lat="51.3251620" lon="7.7037620">
        <ele>369.2800000</ele>
        <time>2010-08-14T13:55:01Z</time>
      </trkpt>
      <trkpt lat="51.3252620" lon="7.7040170">
        <ele>369.2800000</ele>
        <time>2010-08-14T13:55:02Z</time>
      </trkpt>
      <trkpt lat="51.3253950" lon="7.7042580">
        <ele>369.7600000</ele>
        <time>2010-08-14T13:55:03Z</time>
      </trkpt>
      <trkpt lat="51.3255890" lon="7.7045030">
        <ele>370.7300000</ele>
        <time>2010-08-14T13:55:04Z</time>
      </trkpt>
      <trkpt lat="51.3257990" lon="7.7047460">
        <ele>372.1700000</ele>
        <time>2010-08-14T13:55:05Z</time>
      </trkpt>
      <trkpt lat="51.3260110" lon="7.7049890">
        <ele>372.6500000</ele>
        <time>2010-08-14T13:55:06Z</time>
      </trkpt>
      <trkpt lat="51.3270130" lon="7.7064730">
        <ele>377.4500000</ele>
        <time>2010-08-14T13:55:12Z</time>
      </trkpt>
      <trkpt lat="51.3270880" lon="7.7067890">
        <ele>377.9400000</ele>
        <time>2010-08-14T13:55:13Z</time>
      </trkpt>
      <trkpt lat="51.3271330" lon="7.7071270">
        <ele>378.9000000</ele>
        <time>2010-08-14T13:55:14Z</time>
      </trkpt>
      <trkpt lat="51.3271510" lon="7.7074850">
        <ele>379.8600000</ele>
        <time>2010-08-14T13:55:15Z</time>
      </trkpt>
      <trkpt lat="51.3271460" lon="7.7078750">
        <ele>381.3000000</ele>
        <time>2010-08-14T13:55:16Z</time>
      </trkpt>
      <trkpt lat="51.3271290" lon="7.7082990">
        <ele>382.7400000</ele>
        <time>2010-08-14T13:55:17Z</time>
      </trkpt>
      <trkpt lat="51.3271190" lon="7.7087220">
        <ele>384.1800000</ele>
        <time>2010-08-14T13:55:18Z</time>
      </trkpt>
      <trkpt lat="51.3272310" lon="7.7114140">
        <ele>389.9500000</ele>
        <time>2010-08-14T13:55:25Z</time>
      </trkpt>
      <trkpt lat="51.3278960" lon="7.7139740">
        <ele>399.5700000</ele>
        <time>2010-08-14T13:55:32Z</time>
      </trkpt>
      <trkpt lat="51.3283110" lon="7.7162540">
        <ele>408.7000000</ele>
        <time>2010-08-14T13:55:38Z</time>
      </trkpt>
      <trkpt lat="51.3287800" lon="7.7191030">
        <ele>425.0400000</ele>
        <time>2010-08-14T13:55:47Z</time>
      </trkpt>
      <trkpt lat="51.3289000" lon="7.7196990">
        <ele>429.3700000</ele>
        <time>2010-08-14T13:55:52Z</time>
      </trkpt>
      <trkpt lat="51.3289290" lon="7.7197640">
        <ele>429.8500000</ele>
        <time>2010-08-14T13:55:53Z</time>
      </trkpt>
      <trkpt lat="51.3289750" lon="7.7198100">
        <ele>429.8500000</ele>
        <time>2010-08-14T13:55:54Z</time>
      </trkpt>
      <trkpt lat="51.3290410" lon="7.7198280">
        <ele>430.3300000</ele>
        <time>2010-08-14T13:55:55Z</time>
      </trkpt>
      <trkpt lat="51.3297200" lon="7.7198430">
        <ele>432.7300000</ele>
        <time>2010-08-14T13:56:00Z</time>
      </trkpt>
      <trkpt lat="51.3298770" lon="7.7197410">
        <ele>433.2100000</ele>
        <time>2010-08-14T13:56:01Z</time>
      </trkpt>
      <trkpt lat="51.3300400" lon="7.7195820">
        <ele>433.6900000</ele>
        <time>2010-08-14T13:56:02Z</time>
      </trkpt>
      <trkpt lat="51.3308450" lon="7.7185800">
        <ele>440.4200000</ele>
        <time>2010-08-14T13:56:06Z</time>
      </trkpt>
      <trkpt lat="51.3310290" lon="7.7183360">
        <ele>442.3400000</ele>
        <time>2010-08-14T13:56:07Z</time>
      </trkpt>
      <trkpt lat="51.3311870" lon="7.7180760">
        <ele>444.2700000</ele>
        <time>2010-08-14T13:56:08Z</time>
      </trkpt>
      <trkpt lat="51.3313190" lon="7.7178030">
        <ele>446.1900000</ele>
        <time>2010-08-14T13:56:09Z</time>
      </trkpt>
      <trkpt lat="51.3314070" lon="7.7174970">
        <ele>448.1100000</ele>
        <time>2010-08-14T13:56:10Z</time>
      </trkpt>
      <trkpt lat="51.3314630" lon="7.7171780">
        <ele>450.0300000</ele>
        <time>2010-08-14T13:56:11Z</time>
      </trkpt>
      <trkpt lat="51.3314950" lon="7.7168590">
        <ele>451.9600000</ele>
        <time>2010-08-14T13:56:12Z</time>
      </trkpt>
      <trkpt lat="51.3314950" lon="7.7165700">
        <ele>453.4000000</ele>
        <time>2010-08-14T13:56:13Z</time>
      </trkpt>
      <trkpt lat="51.3314850" lon="7.7163010">
        <ele>455.3200000</ele>
        <time>2010-08-14T13:56:14Z</time>
      </trkpt>
      <trkpt lat="51.3314980" lon="7.7158560">
        <ele>458.2100000</ele>
        <time>2010-08-14T13:56:16Z</time>
      </trkpt>
      <trkpt lat="51.3315420" lon="7.7156230">
        <ele>460.1300000</ele>
        <time>2010-08-14T13:56:17Z</time>
      </trkpt>
      <trkpt lat="51.3316110" lon="7.7153820">
        <ele>461.5700000</ele>
        <time>2010-08-14T13:56:18Z</time>
      </trkpt>
      <trkpt lat="51.3317010" lon="7.7151430">
        <ele>462.5300000</ele>
        <time>2010-08-14T13:56:19Z</time>
      </trkpt>
      <trkpt lat="51.3318150" lon="7.7148940">
        <ele>463.9700000</ele>
        <time>2010-08-14T13:56:20Z</time>
      </trkpt>
      <trkpt lat="51.3319550" lon="7.7146180">
        <ele>464.9300000</ele>
        <time>2010-08-14T13:56:21Z</time>
      </trkpt>
      <trkpt lat="51.3328920" lon="7.7129220">
        <ele>463.0100000</ele>
        <time>2010-08-14T13:56:26Z</time>
      </trkpt>
      <trkpt lat="51.3339780" lon="7.7112590">
        <ele>457.2400000</ele>
        <time>2010-08-14T13:56:32Z</time>
      </trkpt>
      <trkpt lat="51.3347190" lon="7.7095900">
        <ele>450.5200000</ele>
        <time>2010-08-14T13:56:39Z</time>
      </trkpt>
      <trkpt lat="51.3351940" lon="7.7084370">
        <ele>443.7900000</ele>
        <time>2010-08-14T13:56:45Z</time>
      </trkpt>
      <trkpt lat="51.3352880" lon="7.7082920">
        <ele>443.3100000</ele>
        <time>2010-08-14T13:56:46Z</time>
      </trkpt>
      <trkpt lat="51.3353860" lon="7.7081690">
        <ele>442.3400000</ele>
        <time>2010-08-14T13:56:47Z</time>
      </trkpt>
      <trkpt lat="51.3359150" lon="7.7075920">
        <ele>439.9400000</ele>
        <time>2010-08-14T13:56:53Z</time>
      </trkpt>
      <trkpt lat="51.3360120" lon="7.7075290">
        <ele>439.4600000</ele>
        <time>2010-08-14T13:56:54Z</time>
      </trkpt>
      <trkpt lat="51.3361280" lon="7.7075210">
        <ele>438.9800000</ele>
        <time>2010-08-14T13:56:55Z</time>
      </trkpt>
      <trkpt lat="51.3362490" lon="7.7075170">
        <ele>438.5000000</ele>
        <time>2010-08-14T13:56:56Z</time>
      </trkpt>
      <trkpt lat="51.3363710" lon="7.7075020">
        <ele>438.5000000</ele>
        <time>2010-08-14T13:56:57Z</time>
      </trkpt>
      <trkpt lat="51.3364920" lon="7.7074770">
        <ele>438.5000000</ele>
        <time>2010-08-14T13:56:58Z</time>
      </trkpt>
      <trkpt lat="51.3366080" lon="7.7074280">
        <ele>438.5000000</ele>
        <time>2010-08-14T13:56:59Z</time>
      </trkpt>
      <trkpt lat="51.3367120" lon="7.7073530">
        <ele>438.9800000</ele>
        <time>2010-08-14T13:57:00Z</time>
      </trkpt>
      <trkpt lat="51.3368100" lon="7.7072610">
        <ele>438.9800000</ele>
        <time>2010-08-14T13:57:01Z</time>
      </trkpt>
      <trkpt lat="51.3369080" lon="7.7071540">
        <ele>438.9800000</ele>
        <time>2010-08-14T13:57:02Z</time>
      </trkpt>
      <trkpt lat="51.3370100" lon="7.7070330">
        <ele>438.9800000</ele>
        <time>2010-08-14T13:57:03Z</time>
      </trkpt>
      <trkpt lat="51.3372320" lon="7.7067900">
        <ele>438.9800000</ele>
        <time>2010-08-14T13:57:05Z</time>
      </trkpt>
      <trkpt lat="51.3373520" lon="7.7067010">
        <ele>438.9800000</ele>
        <time>2010-08-14T13:57:06Z</time>
      </trkpt>
      <trkpt lat="51.3374780" lon="7.7066550">
        <ele>438.9800000</ele>
        <time>2010-08-14T13:57:07Z</time>
      </trkpt>
      <trkpt lat="51.3376090" lon="7.7066380">
        <ele>438.9800000</ele>
        <time>2010-08-14T13:57:08Z</time>
      </trkpt>
      <trkpt lat="51.3377480" lon="7.7066370">
        <ele>438.5000000</ele>
        <time>2010-08-14T13:57:09Z</time>
      </trkpt>
      <trkpt lat="51.3378940" lon="7.7066470">
        <ele>438.5000000</ele>
        <time>2010-08-14T13:57:10Z</time>
      </trkpt>
      <trkpt lat="51.3389860" lon="7.7070140">
        <ele>437.0600000</ele>
        <time>2010-08-14T13:57:17Z</time>
      </trkpt>
      <trkpt lat="51.3391480" lon="7.7071310">
        <ele>437.0600000</ele>
        <time>2010-08-14T13:57:18Z</time>
      </trkpt>
      <trkpt lat="51.3397020" lon="7.7075190">
        <ele>434.6500000</ele>
        <time>2010-08-14T13:57:22Z</time>
      </trkpt>
      <trkpt lat="51.3398250" lon="7.7075670">
        <ele>433.6900000</ele>
        <time>2010-08-14T13:57:23Z</time>
      </trkpt>
      <trkpt lat="51.3399540" lon="7.7075970">
        <ele>432.7300000</ele>
        <time>2010-08-14T13:57:24Z</time>
      </trkpt>
      <trkpt lat="51.3400980" lon="7.7076130">
        <ele>431.2900000</ele>
        <time>2010-08-14T13:57:25Z</time>
      </trkpt>
      <trkpt lat="51.3402630" lon="7.7076080">
        <ele>429.8500000</ele>
        <time>2010-08-14T13:57:26Z</time>
      </trkpt>
      <trkpt lat="51.3404490" lon="7.7075870">
        <ele>428.4000000</ele>
        <time>2010-08-14T13:57:27Z</time>
      </trkpt>
      <trkpt lat="51.3410160" lon="7.7076280">
        <ele>423.6000000</ele>
        <time>2010-08-14T13:57:30Z</time>
      </trkpt>
      <trkpt lat="51.3412010" lon="7.7077620">
        <ele>421.6800000</ele>
        <time>2010-08-14T13:57:31Z</time>
      </trkpt>
      <trkpt lat="51.3413970" lon="7.7079250">
        <ele>420.2300000</ele>
        <time>2010-08-14T13:57:32Z</time>
      </trkpt>
      <trkpt lat="51.3424800" lon="7.7085530">
        <ele>410.1400000</ele>
        <time>2010-08-14T13:57:37Z</time>
      </trkpt>
      <trkpt lat="51.3428560" lon="7.7086890">
        <ele>406.7700000</ele>
        <time>2010-08-14T13:57:39Z</time>
      </trkpt>
      <trkpt lat="51.3430270" lon="7.7086820">
        <ele>404.8500000</ele>
        <time>2010-08-14T13:57:40Z</time>
      </trkpt>
      <trkpt lat="51.3432060" lon="7.7086220">
        <ele>402.9300000</ele>
        <time>2010-08-14T13:57:41Z</time>
      </trkpt>
      <trkpt lat="51.3434130" lon="7.7084930">
        <ele>401.0100000</ele>
        <time>2010-08-14T13:57:42Z</time>
      </trkpt>
      <trkpt lat="51.3436350" lon="7.7083650">
        <ele>399.0800000</ele>
        <time>2010-08-14T13:57:43Z</time>
      </trkpt>
      <trkpt lat="51.3438680" lon="7.7081990">
        <ele>397.1600000</ele>
        <time>2010-08-14T13:57:44Z</time>
      </trkpt>
      <trkpt lat="51.3441060" lon="7.7080060">
        <ele>394.7600000</ele>
        <time>2010-08-14T13:57:45Z</time>
      </trkpt>
      <trkpt lat="51.3443390" lon="7.7078080">
        <ele>392.3600000</ele>
        <time>2010-08-14T13:57:46Z</time>
      </trkpt>
      <trkpt lat="51.3454130" lon="7.7065360">
        <ele>376.4900000</ele>
        <time>2010-08-14T13:57:52Z</time>
      </trkpt>
      <trkpt lat="51.3455730" lon="7.7064070">
        <ele>374.0900000</ele>
        <time>2010-08-14T13:57:53Z</time>
      </trkpt>
      <trkpt lat="51.3457530" lon="7.7063460">
        <ele>372.1700000</ele>
        <time>2010-08-14T13:57:54Z</time>
      </trkpt>
      <trkpt lat="51.3459500" lon="7.7063380">
        <ele>369.7600000</ele>
        <time>2010-08-14T13:57:55Z</time>
      </trkpt>
      <trkpt lat="51.3461530" lon="7.7063740">
        <ele>367.3600000</ele>
        <time>2010-08-14T13:57:56Z</time>
      </trkpt>
      <trkpt lat="51.3463770" lon="7.7064990">
        <ele>364.4800000</ele>
        <time>2010-08-14T13:57:57Z</time>
      </trkpt>
      <trkpt lat="51.3465850" lon="7.7066200">
        <ele>362.0700000</ele>
        <time>2010-08-14T13:57:58Z</time>
      </trkpt>
      <trkpt lat="51.3468050" lon="7.7067340">
        <ele>362.0700000</ele>
        <time>2010-08-14T13:57:59Z</time>
      </trkpt>
      <trkpt lat="51.3474000" lon="7.7067110">
        <ele>358.2300000</ele>
        <time>2010-08-14T13:58:02Z</time>
      </trkpt>
      <trkpt lat="51.3475900" lon="7.7065880">
        <ele>356.3100000</ele>
        <time>2010-08-14T13:58:03Z</time>
      </trkpt>
      <trkpt lat="51.3477660" lon="7.7064000">
        <ele>354.3800000</ele>
        <time>2010-08-14T13:58:04Z</time>
      </trkpt>
      <trkpt lat="51.3479320" lon="7.7061520">
        <ele>352.4600000</ele>
        <time>2010-08-14T13:58:05Z</time>
      </trkpt>
      <trkpt lat="51.3480850" lon="7.7058460">
        <ele>350.5400000</ele>
        <time>2010-08-14T13:58:06Z</time>
      </trkpt>
      <trkpt lat="51.3482310" lon="7.7055160">
        <ele>348.6200000</ele>
        <time>2010-08-14T13:58:07Z</time>
      </trkpt>
      <trkpt lat="51.3483240" lon="7.7051010">
        <ele>345.7300000</ele>
        <time>2010-08-14T13:58:08Z</time>
      </trkpt>
      <trkpt lat="51.3484300" lon="7.7046920">
        <ele>344.7700000</ele>
        <time>2010-08-14T13:58:09Z</time>
      </trkpt>
      <trkpt lat="51.3485190" lon="7.7042880">
        <ele>343.3300000</ele>
        <time>2010-08-14T13:58:10Z</time>
      </trkpt>
      <trkpt lat="51.3485940" lon="7.7038990">
        <ele>340.9200000</ele>
        <time>2010-08-14T13:58:11Z</time>
      </trkpt>
      <trkpt lat="51.3486560" lon="7.7035090">
        <ele>339.0000000</ele>
        <time>2010-08-14T13:58:12Z</time>
      </trkpt>
      <trkpt lat="51.3491760" lon="7.7010600">
        <ele>325.0600000</ele>
        <time>2010-08-14T13:58:19Z</time>
      </trkpt>
      <trkpt lat="51.3493190" lon="7.7007620">
        <ele>323.6200000</ele>
        <time>2010-08-14T13:58:20Z</time>
      </trkpt>
      <trkpt lat="51.3494920" lon="7.7005060">
        <ele>322.1800000</ele>
        <time>2010-08-14T13:58:21Z</time>
      </trkpt>
      <trkpt lat="51.3496690" lon="7.7002780">
        <ele>320.2600000</ele>
        <time>2010-08-14T13:58:22Z</time>
      </trkpt>
      <trkpt lat="51.3498540" lon="7.7000520">
        <ele>318.8100000</ele>
        <time>2010-08-14T13:58:23Z</time>
      </trkpt>
      <trkpt lat="51.3500630" lon="7.6998590">
        <ele>317.3700000</ele>
        <time>2010-08-14T13:58:24Z</time>
      </trkpt>
      <trkpt lat="51.3502840" lon="7.6996970">
        <ele>315.4500000</ele>
        <time>2010-08-14T13:58:25Z</time>
      </trkpt>
      <trkpt lat="51.3505020" lon="7.6995500">
        <ele>313.5300000</ele>
        <time>2010-08-14T13:58:26Z</time>
      </trkpt>
      <trkpt lat="51.3507280" lon="7.6994250">
        <ele>311.6000000</ele>
        <time>2010-08-14T13:58:27Z</time>
      </trkpt>
      <trkpt lat="51.3509550" lon="7.6993170">
        <ele>309.2000000</ele>
        <time>2010-08-14T13:58:28Z</time>
      </trkpt>
      <trkpt lat="51.3524380" lon="7.6991220">
        <ele>301.9900000</ele>
        <time>2010-08-14T13:58:34Z</time>
      </trkpt>
      <trkpt lat="51.3545830" lon="7.6989450">
        <ele>297.1800000</ele>
        <time>2010-08-14T13:58:43Z</time>
      </trkpt>
      <trkpt lat="51.3559640" lon="7.6988600">
        <ele>294.3000000</ele>
        <time>2010-08-14T13:58:49Z</time>
      </trkpt>
      <trkpt lat="51.3561800" lon="7.6989860">
        <ele>293.3400000</ele>
        <time>2010-08-14T13:58:50Z</time>
      </trkpt>
      <trkpt lat="51.3563900" lon="7.6991400">
        <ele>292.8600000</ele>
        <time>2010-08-14T13:58:51Z</time>
      </trkpt>
      <trkpt lat="51.3565880" lon="7.6993160">
        <ele>292.8600000</ele>
        <time>2010-08-14T13:58:52Z</time>
      </trkpt>
      <trkpt lat="51.3567830" lon="7.6994990">
        <ele>293.8200000</ele>
        <time>2010-08-14T13:58:53Z</time>
      </trkpt>
      <trkpt lat="51.3581470" lon="7.7004630">
        <ele>292.8600000</ele>
        <time>2010-08-14T13:58:59Z</time>
      </trkpt>
      <trkpt lat="51.3593160" lon="7.7009480">
        <ele>292.3800000</ele>
        <time>2010-08-14T13:59:05Z</time>
      </trkpt>
      <trkpt lat="51.3606480" lon="7.7014710">
        <ele>289.0100000</ele>
        <time>2010-08-14T13:59:10Z</time>
      </trkpt>
      <trkpt lat="51.3627570" lon="7.7021700">
        <ele>277.0000000</ele>
        <time>2010-08-14T13:59:18Z</time>
      </trkpt>
      <trkpt lat="51.3643830" lon="7.7025800">
        <ele>271.7100000</ele>
        <time>2010-08-14T13:59:25Z</time>
      </trkpt>
      <trkpt lat="51.3659160" lon="7.7030640">
        <ele>268.3500000</ele>
        <time>2010-08-14T13:59:33Z</time>
      </trkpt>
      <trkpt lat="51.3670590" lon="7.7037890">
        <ele>265.4600000</ele>
        <time>2010-08-14T13:59:42Z</time>
      </trkpt>
      <trkpt lat="51.3677890" lon="7.7039540">
        <ele>263.5400000</ele>
        <time>2010-08-14T13:59:50Z</time>
      </trkpt>
      <trkpt lat="51.3679070" lon="7.7039650">
        <ele>262.5800000</ele>
        <time>2010-08-14T13:59:59Z</time>
      </trkpt>
      <trkpt lat="51.3679610" lon="7.7039010">
        <ele>263.0600000</ele>
        <time>2010-08-14T14:00:13Z</time>
      </trkpt>
      <trkpt lat="51.3680940" lon="7.7038250">
        <ele>262.5800000</ele>
        <time>2010-08-14T14:00:15Z</time>
      </trkpt>
      <trkpt lat="51.3681660" lon="7.7037450">
        <ele>262.1000000</ele>
        <time>2010-08-14T14:00:16Z</time>
      </trkpt>
      <trkpt lat="51.3682290" lon="7.7036530">
        <ele>261.1400000</ele>
        <time>2010-08-14T14:00:17Z</time>
      </trkpt>
      <trkpt lat="51.3682900" lon="7.7035380">
        <ele>261.1400000</ele>
        <time>2010-08-14T14:00:18Z</time>
      </trkpt>
      <trkpt lat="51.3683470" lon="7.7034210">
        <ele>260.6500000</ele>
        <time>2010-08-14T14:00:19Z</time>
      </trkpt>
      <trkpt lat="51.3690340" lon="7.7023570">
        <ele>257.2900000</ele>
        <time>2010-08-14T14:00:28Z</time>
      </trkpt>
      <trkpt lat="51.3697770" lon="7.7014260">
        <ele>251.5200000</ele>
        <time>2010-08-14T14:00:36Z</time>
      </trkpt>
      <trkpt lat="51.3698290" lon="7.7013110">
        <ele>251.0400000</ele>
        <time>2010-08-14T14:00:37Z</time>
      </trkpt>
      <trkpt lat="51.3699260" lon="7.7010480">
        <ele>249.6000000</ele>
        <time>2010-08-14T14:00:39Z</time>
      </trkpt>
      <trkpt lat="51.3703820" lon="7.6994650">
        <ele>247.2000000</ele>
        <time>2010-08-14T14:00:49Z</time>
      </trkpt>
      <trkpt lat="51.3704490" lon="7.6993290">
        <ele>246.7200000</ele>
        <time>2010-08-14T14:00:50Z</time>
      </trkpt>
      <trkpt lat="51.3705220" lon="7.6991830">
        <ele>246.7200000</ele>
        <time>2010-08-14T14:00:51Z</time>
      </trkpt>
      <trkpt lat="51.3706110" lon="7.6990750">
        <ele>246.2300000</ele>
        <time>2010-08-14T14:00:52Z</time>
      </trkpt>
      <trkpt lat="51.3707180" lon="7.6989500">
        <ele>246.7200000</ele>
        <time>2010-08-14T14:00:53Z</time>
      </trkpt>
      <trkpt lat="51.3708170" lon="7.6988280">
        <ele>248.6400000</ele>
        <time>2010-08-14T14:00:54Z</time>
      </trkpt>
      <trkpt lat="51.3719410" lon="7.6979870">
        <ele>245.2700000</ele>
        <time>2010-08-14T14:01:05Z</time>
      </trkpt>
      <trkpt lat="51.3720390" lon="7.6979780">
        <ele>245.2700000</ele>
        <time>2010-08-14T14:01:06Z</time>
      </trkpt>
      <trkpt lat="51.3721260" lon="7.6980520">
        <ele>244.3100000</ele>
        <time>2010-08-14T14:01:07Z</time>
      </trkpt>
      <trkpt lat="51.3722130" lon="7.6981810">
        <ele>243.3500000</ele>
        <time>2010-08-14T14:01:08Z</time>
      </trkpt>
      <trkpt lat="51.3722950" lon="7.6983200">
        <ele>243.3500000</ele>
        <time>2010-08-14T14:01:09Z</time>
      </trkpt>
      <trkpt lat="51.3723760" lon="7.6984470">
        <ele>243.3500000</ele>
        <time>2010-08-14T14:01:10Z</time>
      </trkpt>
      <trkpt lat="51.3727640" lon="7.6989800">
        <ele>242.3900000</ele>
        <time>2010-08-14T14:01:14Z</time>
      </trkpt>
      <trkpt lat="51.3728620" lon="7.6991740">
        <ele>242.8700000</ele>
        <time>2010-08-14T14:01:15Z</time>
      </trkpt>
      <trkpt lat="51.3729390" lon="7.6993790">
        <ele>242.8700000</ele>
        <time>2010-08-14T14:01:16Z</time>
      </trkpt>
      <trkpt lat="51.3729930" lon="7.6995920">
        <ele>242.8700000</ele>
        <time>2010-08-14T14:01:17Z</time>
      </trkpt>
      <trkpt lat="51.3730220" lon="7.6998170">
        <ele>243.3500000</ele>
        <time>2010-08-14T14:01:18Z</time>
      </trkpt>
      <trkpt lat="51.3730370" lon="7.7000430">
        <ele>243.8300000</ele>
        <time>2010-08-14T14:01:19Z</time>
      </trkpt>
      <trkpt lat="51.3730480" lon="7.7002670">
        <ele>243.8300000</ele>
        <time>2010-08-14T14:01:20Z</time>
      </trkpt>
      <trkpt lat="51.3730920" lon="7.7020630">
        <ele>247.6800000</ele>
        <time>2010-08-14T14:01:29Z</time>
      </trkpt>
      <trkpt lat="51.3730610" lon="7.7028270">
        <ele>250.5600000</ele>
        <time>2010-08-14T14:01:33Z</time>
      </trkpt>
      <trkpt lat="51.3727040" lon="7.7045310">
        <ele>258.2500000</ele>
        <time>2010-08-14T14:01:42Z</time>
      </trkpt>
      <trkpt lat="51.3725300" lon="7.7057060">
        <ele>262.1000000</ele>
        <time>2010-08-14T14:01:48Z</time>
      </trkpt>
      <trkpt lat="51.3725250" lon="7.7058050">
        <ele>263.0600000</ele>
        <time>2010-08-14T14:01:49Z</time>
      </trkpt>
      <trkpt lat="51.3725260" lon="7.7058720">
        <ele>263.0600000</ele>
        <time>2010-08-14T14:01:50Z</time>
      </trkpt>
      <trkpt lat="51.3725430" lon="7.7059100">
        <ele>264.0200000</ele>
        <time>2010-08-14T14:01:51Z</time>
      </trkpt>
      <trkpt lat="51.3725640" lon="7.7059230">
        <ele>264.0200000</ele>
        <time>2010-08-14T14:01:52Z</time>
      </trkpt>
      <trkpt lat="51.3726460" lon="7.7059280">
        <ele>264.9800000</ele>
        <time>2010-08-14T14:02:01Z</time>
      </trkpt>
      <trkpt lat="51.3727340" lon="7.7059940">
        <ele>264.5000000</ele>
        <time>2010-08-14T14:02:03Z</time>
      </trkpt>
      <trkpt lat="51.3727700" lon="7.7060430">
        <ele>264.0200000</ele>
        <time>2010-08-14T14:02:04Z</time>
      </trkpt>
      <trkpt lat="51.3727890" lon="7.7061170">
        <ele>264.0200000</ele>
        <time>2010-08-14T14:02:05Z</time>
      </trkpt>
      <trkpt lat="51.3727820" lon="7.7062310">
        <ele>263.5400000</ele>
        <time>2010-08-14T14:02:06Z</time>
      </trkpt>
      <trkpt lat="51.3727510" lon="7.7063700">
        <ele>263.5400000</ele>
        <time>2010-08-14T14:02:07Z</time>
      </trkpt>
      <trkpt lat="51.3727230" lon="7.7065150">
        <ele>264.0200000</ele>
        <time>2010-08-14T14:02:08Z</time>
      </trkpt>
      <trkpt lat="51.3726010" lon="7.7083190">
        <ele>264.9800000</ele>
        <time>2010-08-14T14:02:19Z</time>
      </trkpt>
      <trkpt lat="51.3725380" lon="7.7101300">
        <ele>268.3500000</ele>
        <time>2010-08-14T14:02:28Z</time>
      </trkpt>
      <trkpt lat="51.3724220" lon="7.7121170">
        <ele>269.3100000</ele>
        <time>2010-08-14T14:02:39Z</time>
      </trkpt>
      <trkpt lat="51.3723960" lon="7.7144330">
        <ele>263.0600000</ele>
        <time>2010-08-14T14:02:50Z</time>
      </trkpt>
      <trkpt lat="51.3724060" lon="7.7161930">
        <ele>256.8100000</ele>
        <time>2010-08-14T14:03:00Z</time>
      </trkpt>
      <trkpt lat="51.3723940" lon="7.7166010">
        <ele>255.3700000</ele>
        <time>2010-08-14T14:03:07Z</time>
      </trkpt>
      <trkpt lat="51.3723890" lon="7.7166290">
        <ele>255.3700000</ele>
        <time>2010-08-14T14:03:17Z</time>
      </trkpt>
      <trkpt lat="51.3723780" lon="7.7167730">
        <ele>254.8900000</ele>
        <time>2010-08-14T14:03:28Z</time>
      </trkpt>
      <trkpt lat="51.3723770" lon="7.7168730">
        <ele>254.4100000</ele>
        <time>2010-08-14T14:03:29Z</time>
      </trkpt>
      <trkpt lat="51.3723730" lon="7.7180350">
        <ele>251.5200000</ele>
        <time>2010-08-14T14:03:37Z</time>
      </trkpt>
      <trkpt lat="51.3725750" lon="7.7195430">
        <ele>248.1600000</ele>
        <time>2010-08-14T14:03:47Z</time>
      </trkpt>
      <trkpt lat="51.3725880" lon="7.7198200">
        <ele>248.1600000</ele>
        <time>2010-08-14T14:03:52Z</time>
      </trkpt>
      <trkpt lat="51.3725720" lon="7.7198410">
        <ele>248.1600000</ele>
        <time>2010-08-14T14:03:53Z</time>
      </trkpt>
      <trkpt lat="51.3725500" lon="7.7198460">
        <ele>247.6800000</ele>
        <time>2010-08-14T14:03:54Z</time>
      </trkpt>
      <trkpt lat="51.3725300" lon="7.7198350">
        <ele>247.6800000</ele>
        <time>2010-08-14T14:03:55Z</time>
      </trkpt>
      <trkpt lat="51.3725100" lon="7.7198060">
        <ele>247.2000000</ele>
        <time>2010-08-14T14:03:56Z</time>
      </trkpt>
      <trkpt lat="51.3724850" lon="7.7197560">
        <ele>247.2000000</ele>
        <time>2010-08-14T14:03:57Z</time>
      </trkpt>
      <trkpt lat="51.3724540" lon="7.7196780">
        <ele>247.2000000</ele>
        <time>2010-08-14T14:03:58Z</time>
      </trkpt>
      <trkpt lat="51.3720830" lon="7.7187380">
        <ele>247.2000000</ele>
        <time>2010-08-14T14:04:06Z</time>
      </trkpt>
      <trkpt lat="51.3720540" lon="7.7186660">
        <ele>247.2000000</ele>
        <time>2010-08-14T14:04:07Z</time>
      </trkpt>
      <trkpt lat="51.3720480" lon="7.7185900">
        <ele>247.2000000</ele>
        <time>2010-08-14T14:04:08Z</time>
      </trkpt>
      <trkpt lat="51.3720040" lon="7.7184180">
        <ele>247.6800000</ele>
        <time>2010-08-14T14:04:16Z</time>
      </trkpt>
      <trkpt lat="51.3719840" lon="7.7184250">
        <ele>247.6800000</ele>
        <time>2010-08-14T14:04:17Z</time>
      </trkpt>
      <trkpt lat="51.3719690" lon="7.7184390">
        <ele>247.6800000</ele>
        <time>2010-08-14T14:04:18Z</time>
      </trkpt>
      <trkpt lat="51.3719620" lon="7.7184580">
        <ele>247.6800000</ele>
        <time>2010-08-14T14:04:19Z</time>
      </trkpt>
      <trkpt lat="51.3719630" lon="7.7184790">
        <ele>247.6800000</ele>
        <time>2010-08-14T14:04:20Z</time>
      </trkpt>
      <trkpt lat="51.3719720" lon="7.7185090">
        <ele>247.2000000</ele>
        <time>2010-08-14T14:04:21Z</time>
      </trkpt>
      <trkpt lat="51.3719980" lon="7.7185460">
        <ele>247.2000000</ele>
        <time>2010-08-14T14:04:22Z</time>
      </trkpt>
      <trkpt lat="51.3720360" lon="7.7186010">
        <ele>247.6800000</ele>
        <time>2010-08-14T14:04:23Z</time>
      </trkpt>
      <trkpt lat="51.3720700" lon="7.7186860">
        <ele>247.2000000</ele>
        <time>2010-08-14T14:04:24Z</time>
      </trkpt>
      <trkpt lat="51.3721060" lon="7.7187820">
        <ele>247.2000000</ele>
        <time>2010-08-14T14:04:25Z</time>
      </trkpt>
      <trkpt lat="51.3724740" lon="7.7197880">
        <ele>246.2300000</ele>
        <time>2010-08-14T14:04:36Z</time>
      </trkpt>
      <trkpt lat="51.3725000" lon="7.7198420">
        <ele>246.2300000</ele>
        <time>2010-08-14T14:04:37Z</time>
      </trkpt>
      <trkpt lat="51.3725270" lon="7.7198830">
        <ele>246.2300000</ele>
        <time>2010-08-14T14:04:38Z</time>
      </trkpt>
      <trkpt lat="51.3725530" lon="7.7199080">
        <ele>246.7200000</ele>
        <time>2010-08-14T14:04:39Z</time>
      </trkpt>
      <trkpt lat="51.3725750" lon="7.7199230">
        <ele>246.7200000</ele>
        <time>2010-08-14T14:04:40Z</time>
      </trkpt>
      <trkpt lat="51.3725970" lon="7.7199370">
        <ele>247.2000000</ele>
        <time>2010-08-14T14:04:41Z</time>
      </trkpt>
      <trkpt lat="51.3726240" lon="7.7199660">
        <ele>247.2000000</ele>
        <time>2010-08-14T14:04:42Z</time>
      </trkpt>
      <trkpt lat="51.3726560" lon="7.7200260">
        <ele>247.6800000</ele>
        <time>2010-08-14T14:04:43Z</time>
      </trkpt>
      <trkpt lat="51.3726790" lon="7.7201150">
        <ele>247.6800000</ele>
        <time>2010-08-14T14:04:44Z</time>
      </trkpt>
      <trkpt lat="51.3727000" lon="7.7202180">
        <ele>247.6800000</ele>
        <time>2010-08-14T14:04:45Z</time>
      </trkpt>
      <trkpt lat="51.3729280" lon="7.7213280">
        <ele>247.2000000</ele>
        <time>2010-08-14T14:04:53Z</time>
      </trkpt>
      <trkpt lat="51.3732390" lon="7.7228530">
        <ele>249.6000000</ele>
        <time>2010-08-14T14:05:01Z</time>
      </trkpt>
      <trkpt lat="51.3736770" lon="7.7250900">
        <ele>255.3700000</ele>
        <time>2010-08-14T14:05:12Z</time>
      </trkpt>
      <trkpt lat="51.3739050" lon="7.7279530">
        <ele>256.3300000</ele>
        <time>2010-08-14T14:05:26Z</time>
      </trkpt>
      <trkpt lat="51.3740870" lon="7.7304860">
        <ele>253.4400000</ele>
        <time>2010-08-14T14:05:38Z</time>
      </trkpt>
      <trkpt lat="51.3742320" lon="7.7325760">
        <ele>254.4100000</ele>
        <time>2010-08-14T14:05:49Z</time>
      </trkpt>
      <trkpt lat="51.3742540" lon="7.7330150">
        <ele>254.4100000</ele>
        <time>2010-08-14T14:05:55Z</time>
      </trkpt>
      <trkpt lat="51.3742780" lon="7.7329780">
        <ele>256.3300000</ele>
        <time>2010-08-14T14:06:15Z</time>
      </trkpt>
      <trkpt lat="51.3743070" lon="7.7333620">
        <ele>255.8500000</ele>
        <time>2010-08-14T14:06:24Z</time>
      </trkpt>
      <trkpt lat="51.3743180" lon="7.7335900">
        <ele>258.7300000</ele>
        <time>2010-08-14T14:06:28Z</time>
      </trkpt>
      <trkpt lat="51.3742940" lon="7.7336260">
        <ele>259.2100000</ele>
        <time>2010-08-14T14:06:29Z</time>
      </trkpt>
      <trkpt lat="51.3742550" lon="7.7336500">
        <ele>259.2100000</ele>
        <time>2010-08-14T14:06:30Z</time>
      </trkpt>
      <trkpt lat="51.3740970" lon="7.7336940">
        <ele>260.1700000</ele>
        <time>2010-08-14T14:06:33Z</time>
      </trkpt>
      <trkpt lat="51.3740360" lon="7.7337220">
        <ele>260.1700000</ele>
        <time>2010-08-14T14:06:34Z</time>
      </trkpt>
      <trkpt lat="51.3739740" lon="7.7337720">
        <ele>260.6500000</ele>
        <time>2010-08-14T14:06:35Z</time>
      </trkpt>
      <trkpt lat="51.3739170" lon="7.7338450">
        <ele>260.6500000</ele>
        <time>2010-08-14T14:06:36Z</time>
      </trkpt>
      <trkpt lat="51.3738710" lon="7.7339330">
        <ele>261.1400000</ele>
        <time>2010-08-14T14:06:37Z</time>
      </trkpt>
      <trkpt lat="51.3738380" lon="7.7340320">
        <ele>260.6500000</ele>
        <time>2010-08-14T14:06:38Z</time>
      </trkpt>
      <trkpt lat="51.3738100" lon="7.7341410">
        <ele>260.6500000</ele>
        <time>2010-08-14T14:06:39Z</time>
      </trkpt>
      <trkpt lat="51.3736860" lon="7.7345190">
        <ele>260.1700000</ele>
        <time>2010-08-14T14:06:43Z</time>
      </trkpt>
      <trkpt lat="51.3736400" lon="7.7345710">
        <ele>260.1700000</ele>
        <time>2010-08-14T14:06:44Z</time>
      </trkpt>
      <trkpt lat="51.3735790" lon="7.7346050">
        <ele>260.6500000</ele>
        <time>2010-08-14T14:06:45Z</time>
      </trkpt>
      <trkpt lat="51.3734940" lon="7.7346070">
        <ele>261.1400000</ele>
        <time>2010-08-14T14:06:46Z</time>
      </trkpt>
      <trkpt lat="51.3733890" lon="7.7345890">
        <ele>260.6500000</ele>
        <time>2010-08-14T14:06:47Z</time>
      </trkpt>
      <trkpt lat="51.3732800" lon="7.7345620">
        <ele>261.1400000</ele>
        <time>2010-08-14T14:06:48Z</time>
      </trkpt>
      <trkpt lat="51.3731730" lon="7.7345290">
        <ele>261.1400000</ele>
        <time>2010-08-14T14:06:49Z</time>
      </trkpt>
      <trkpt lat="51.3730710" lon="7.7344910">
        <ele>261.1400000</ele>
        <time>2010-08-14T14:06:50Z</time>
      </trkpt>
      <trkpt lat="51.3728580" lon="7.7344470">
        <ele>262.5800000</ele>
        <time>2010-08-14T14:06:52Z</time>
      </trkpt>
      <trkpt lat="51.3727560" lon="7.7344520">
        <ele>263.0600000</ele>
        <time>2010-08-14T14:06:53Z</time>
      </trkpt>
      <trkpt lat="51.3726570" lon="7.7345250">
        <ele>263.5400000</ele>
        <time>2010-08-14T14:06:54Z</time>
      </trkpt>
      <trkpt lat="51.3725980" lon="7.7346050">
        <ele>263.5400000</ele>
        <time>2010-08-14T14:06:55Z</time>
      </trkpt>
      <trkpt lat="51.3725580" lon="7.7346920">
        <ele>264.0200000</ele>
        <time>2010-08-14T14:06:56Z</time>
      </trkpt>
      <trkpt lat="51.3725360" lon="7.7347920">
        <ele>264.5000000</ele>
        <time>2010-08-14T14:06:57Z</time>
      </trkpt>
      <trkpt lat="51.3725480" lon="7.7349030">
        <ele>264.5000000</ele>
        <time>2010-08-14T14:06:58Z</time>
      </trkpt>
      <trkpt lat="51.3725710" lon="7.7350290">
        <ele>264.5000000</ele>
        <time>2010-08-14T14:06:59Z</time>
      </trkpt>
      <trkpt lat="51.3725900" lon="7.7351540">
        <ele>264.9800000</ele>
        <time>2010-08-14T14:07:00Z</time>
      </trkpt>
      <trkpt lat="51.3728440" lon="7.7365380">
        <ele>267.8600000</ele>
        <time>2010-08-14T14:07:10Z</time>
      </trkpt>
      <trkpt lat="51.3732510" lon="7.7378700">
        <ele>269.7900000</ele>
        <time>2010-08-14T14:07:17Z</time>
      </trkpt>
      <trkpt lat="51.3738610" lon="7.7399550">
        <ele>270.7500000</ele>
        <time>2010-08-14T14:07:26Z</time>
      </trkpt>
      <trkpt lat="51.3740870" lon="7.7406820">
        <ele>271.2300000</ele>
        <time>2010-08-14T14:07:30Z</time>
      </trkpt>
      <trkpt lat="51.3741170" lon="7.7408530">
        <ele>271.7100000</ele>
        <time>2010-08-14T14:07:31Z</time>
      </trkpt>
      <trkpt lat="51.3741200" lon="7.7410050">
        <ele>271.7100000</ele>
        <time>2010-08-14T14:07:32Z</time>
      </trkpt>
      <trkpt lat="51.3741040" lon="7.7411610">
        <ele>271.7100000</ele>
        <time>2010-08-14T14:07:33Z</time>
      </trkpt>
      <trkpt lat="51.3740400" lon="7.7412820">
        <ele>273.1500000</ele>
        <time>2010-08-14T14:07:34Z</time>
      </trkpt>
      <trkpt lat="51.3739400" lon="7.7413500">
        <ele>273.6300000</ele>
        <time>2010-08-14T14:07:35Z</time>
      </trkpt>
      <trkpt lat="51.3738240" lon="7.7414230">
        <ele>274.5900000</ele>
        <time>2010-08-14T14:07:36Z</time>
      </trkpt>
      <trkpt lat="51.3736950" lon="7.7414990">
        <ele>275.5600000</ele>
        <time>2010-08-14T14:07:37Z</time>
      </trkpt>
      <trkpt lat="51.3735680" lon="7.7415870">
        <ele>276.5200000</ele>
        <time>2010-08-14T14:07:38Z</time>
      </trkpt>
      <trkpt lat="51.3731040" lon="7.7419030">
        <ele>280.3600000</ele>
        <time>2010-08-14T14:07:44Z</time>
      </trkpt>
      <trkpt lat="51.3730650" lon="7.7419780">
        <ele>280.8400000</ele>
        <time>2010-08-14T14:07:46Z</time>
      </trkpt>
      <trkpt lat="51.3730670" lon="7.7420250">
        <ele>280.8400000</ele>
        <time>2010-08-14T14:07:47Z</time>
      </trkpt>
      <trkpt lat="51.3730840" lon="7.7420790">
        <ele>280.8400000</ele>
        <time>2010-08-14T14:07:48Z</time>
      </trkpt>
      <trkpt lat="51.3731120" lon="7.7421380">
        <ele>280.8400000</ele>
        <time>2010-08-14T14:07:49Z</time>
      </trkpt>
      <trkpt lat="51.3731510" lon="7.7422140">
        <ele>280.3600000</ele>
        <time>2010-08-14T14:07:50Z</time>
      </trkpt>
      <trkpt lat="51.3731970" lon="7.7423230">
        <ele>280.3600000</ele>
        <time>2010-08-14T14:07:51Z</time>
      </trkpt>
      <trkpt lat="51.3732400" lon="7.7424630">
        <ele>279.8800000</ele>
        <time>2010-08-14T14:07:52Z</time>
      </trkpt>
      <trkpt lat="51.3735500" lon="7.7441150">
        <ele>281.3200000</ele>
        <time>2010-08-14T14:08:02Z</time>
      </trkpt>
      <trkpt lat="51.3736390" lon="7.7456660">
        <ele>281.3200000</ele>
        <time>2010-08-14T14:08:12Z</time>
      </trkpt>
      <trkpt lat="51.3735830" lon="7.7470260">
        <ele>277.9600000</ele>
        <time>2010-08-14T14:08:21Z</time>
      </trkpt>
      <trkpt lat="51.3735890" lon="7.7471760">
        <ele>277.4800000</ele>
        <time>2010-08-14T14:08:22Z</time>
      </trkpt>
      <trkpt lat="51.3736120" lon="7.7473260">
        <ele>277.0000000</ele>
        <time>2010-08-14T14:08:23Z</time>
      </trkpt>
      <trkpt lat="51.3738420" lon="7.7488370">
        <ele>266.9000000</ele>
        <time>2010-08-14T14:08:33Z</time>
      </trkpt>
      <trkpt lat="51.3738880" lon="7.7496310">
        <ele>262.1000000</ele>
        <time>2010-08-14T14:08:38Z</time>
      </trkpt>
      <trkpt lat="51.3738810" lon="7.7497480">
        <ele>261.1400000</ele>
        <time>2010-08-14T14:08:39Z</time>
      </trkpt>
      <trkpt lat="51.3737930" lon="7.7502260">
        <ele>256.8100000</ele>
        <time>2010-08-14T14:08:46Z</time>
      </trkpt>
      <trkpt lat="51.3737450" lon="7.7502140">
        <ele>256.8100000</ele>
        <time>2010-08-14T14:08:47Z</time>
      </trkpt>
      <trkpt lat="51.3736780" lon="7.7501680">
        <ele>256.8100000</ele>
        <time>2010-08-14T14:08:48Z</time>
      </trkpt>
      <trkpt lat="51.3735810" lon="7.7501690">
        <ele>257.7700000</ele>
        <time>2010-08-14T14:08:49Z</time>
      </trkpt>
      <trkpt lat="51.3735070" lon="7.7501020">
        <ele>258.2500000</ele>
        <time>2010-08-14T14:08:50Z</time>
      </trkpt>
      <trkpt lat="51.3729310" lon="7.7497570">
        <ele>259.2100000</ele>
        <time>2010-08-14T14:08:55Z</time>
      </trkpt>
      <trkpt lat="51.3728070" lon="7.7497000">
        <ele>258.7300000</ele>
        <time>2010-08-14T14:08:56Z</time>
      </trkpt>
      <trkpt lat="51.3726870" lon="7.7497080">
        <ele>258.2500000</ele>
        <time>2010-08-14T14:08:57Z</time>
      </trkpt>
      <trkpt lat="51.3725700" lon="7.7497890">
        <ele>257.2900000</ele>
        <time>2010-08-14T14:08:58Z</time>
      </trkpt>
      <trkpt lat="51.3724580" lon="7.7499140">
        <ele>257.2900000</ele>
        <time>2010-08-14T14:08:59Z</time>
      </trkpt>
      <trkpt lat="51.3723880" lon="7.7500770">
        <ele>255.8500000</ele>
        <time>2010-08-14T14:09:00Z</time>
      </trkpt>
      <trkpt lat="51.3723560" lon="7.7502290">
        <ele>254.4100000</ele>
        <time>2010-08-14T14:09:01Z</time>
      </trkpt>
      <trkpt lat="51.3723560" lon="7.7503650">
        <ele>253.4400000</ele>
        <time>2010-08-14T14:09:02Z</time>
      </trkpt>
      <trkpt lat="51.3723580" lon="7.7504990">
        <ele>252.4800000</ele>
        <time>2010-08-14T14:09:03Z</time>
      </trkpt>
      <trkpt lat="51.3723420" lon="7.7506300">
        <ele>252.0000000</ele>
        <time>2010-08-14T14:09:04Z</time>
      </trkpt>
      <trkpt lat="51.3723130" lon="7.7507640">
        <ele>251.0400000</ele>
        <time>2010-08-14T14:09:05Z</time>
      </trkpt>
      <trkpt lat="51.3722710" lon="7.7509030">
        <ele>250.0800000</ele>
        <time>2010-08-14T14:09:06Z</time>
      </trkpt>
      <trkpt lat="51.3722110" lon="7.7510480">
        <ele>249.6000000</ele>
        <time>2010-08-14T14:09:07Z</time>
      </trkpt>
      <trkpt lat="51.3721330" lon="7.7511960">
        <ele>249.1200000</ele>
        <time>2010-08-14T14:09:08Z</time>
      </trkpt>
      <trkpt lat="51.3720370" lon="7.7513310">
        <ele>248.1600000</ele>
        <time>2010-08-14T14:09:09Z</time>
      </trkpt>
      <trkpt lat="51.3719320" lon="7.7514510">
        <ele>247.6800000</ele>
        <time>2010-08-14T14:09:10Z</time>
      </trkpt>
      <trkpt lat="51.3718240" lon="7.7515520">
        <ele>246.7200000</ele>
        <time>2010-08-14T14:09:11Z</time>
      </trkpt>
      <trkpt lat="51.3717200" lon="7.7516260">
        <ele>246.2300000</ele>
        <time>2010-08-14T14:09:12Z</time>
      </trkpt>
      <trkpt lat="51.3716350" lon="7.7516600">
        <ele>245.7500000</ele>
        <time>2010-08-14T14:09:13Z</time>
      </trkpt>
      <trkpt lat="51.3715590" lon="7.7516790">
        <ele>244.7900000</ele>
        <time>2010-08-14T14:09:14Z</time>
      </trkpt>
      <trkpt lat="51.3714930" lon="7.7516930">
        <ele>243.8300000</ele>
        <time>2010-08-14T14:09:15Z</time>
      </trkpt>
      <trkpt lat="51.3714350" lon="7.7517010">
        <ele>243.3500000</ele>
        <time>2010-08-14T14:09:16Z</time>
      </trkpt>
      <trkpt lat="51.3713680" lon="7.7517020">
        <ele>242.8700000</ele>
        <time>2010-08-14T14:09:17Z</time>
      </trkpt>
      <trkpt lat="51.3712870" lon="7.7516820">
        <ele>242.3900000</ele>
        <time>2010-08-14T14:09:18Z</time>
      </trkpt>
      <trkpt lat="51.3706340" lon="7.7515660">
        <ele>241.9100000</ele>
        <time>2010-08-14T14:09:22Z</time>
      </trkpt>
      <trkpt lat="51.3704140" lon="7.7516110">
        <ele>241.9100000</ele>
        <time>2010-08-14T14:09:23Z</time>
      </trkpt>
      <trkpt lat="51.3702050" lon="7.7516940">
        <ele>242.3900000</ele>
        <time>2010-08-14T14:09:24Z</time>
      </trkpt>
      <trkpt lat="51.3689940" lon="7.7524090">
        <ele>247.6800000</ele>
        <time>2010-08-14T14:09:31Z</time>
      </trkpt>
      <trkpt lat="51.3671520" lon="7.7535030">
        <ele>255.3700000</ele>
        <time>2010-08-14T14:09:41Z</time>
      </trkpt>
      <trkpt lat="51.3662790" lon="7.7543270">
        <ele>257.7700000</ele>
        <time>2010-08-14T14:09:46Z</time>
      </trkpt>
      <trkpt lat="51.3654840" lon="7.7549920">
        <ele>258.7300000</ele>
        <time>2010-08-14T14:09:50Z</time>
      </trkpt>
      <trkpt lat="51.3645700" lon="7.7551730">
        <ele>260.6500000</ele>
        <time>2010-08-14T14:09:55Z</time>
      </trkpt>
      <trkpt lat="51.3643800" lon="7.7551170">
        <ele>261.1400000</ele>
        <time>2010-08-14T14:09:56Z</time>
      </trkpt>
      <trkpt lat="51.3641690" lon="7.7550460">
        <ele>262.1000000</ele>
        <time>2010-08-14T14:09:57Z</time>
      </trkpt>
      <trkpt lat="51.3627260" lon="7.7543620">
        <ele>267.8600000</ele>
        <time>2010-08-14T14:10:05Z</time>
      </trkpt>
      <trkpt lat="51.3621950" lon="7.7538740">
        <ele>270.2700000</ele>
        <time>2010-08-14T14:10:09Z</time>
      </trkpt>
      <trkpt lat="51.3621100" lon="7.7536940">
        <ele>270.2700000</ele>
        <time>2010-08-14T14:10:10Z</time>
      </trkpt>
      <trkpt lat="51.3620470" lon="7.7534850">
        <ele>270.7500000</ele>
        <time>2010-08-14T14:10:11Z</time>
      </trkpt>
      <trkpt lat="51.3620060" lon="7.7531900">
        <ele>271.2300000</ele>
        <time>2010-08-14T14:10:12Z</time>
      </trkpt>
      <trkpt lat="51.3619850" lon="7.7528800">
        <ele>271.2300000</ele>
        <time>2010-08-14T14:10:13Z</time>
      </trkpt>
      <trkpt lat="51.3619680" lon="7.7525780">
        <ele>271.7100000</ele>
        <time>2010-08-14T14:10:14Z</time>
      </trkpt>
      <trkpt lat="51.3619490" lon="7.7522640">
        <ele>271.7100000</ele>
        <time>2010-08-14T14:10:15Z</time>
      </trkpt>
      <trkpt lat="51.3619220" lon="7.7519560">
        <ele>272.6700000</ele>
        <time>2010-08-14T14:10:16Z</time>
      </trkpt>
      <trkpt lat="51.3615490" lon="7.7489980">
        <ele>277.4800000</ele>
        <time>2010-08-14T14:10:26Z</time>
      </trkpt>
      <trkpt lat="51.3610950" lon="7.7474100">
        <ele>278.4400000</ele>
        <time>2010-08-14T14:10:34Z</time>
      </trkpt>
      <trkpt lat="51.3608610" lon="7.7468360">
        <ele>278.9200000</ele>
        <time>2010-08-14T14:10:37Z</time>
      </trkpt>
      <trkpt lat="51.3607520" lon="7.7466660">
        <ele>278.9200000</ele>
        <time>2010-08-14T14:10:38Z</time>
      </trkpt>
      <trkpt lat="51.3606210" lon="7.7465200">
        <ele>279.4000000</ele>
        <time>2010-08-14T14:10:39Z</time>
      </trkpt>
      <trkpt lat="51.3604670" lon="7.7464010">
        <ele>279.4000000</ele>
        <time>2010-08-14T14:10:40Z</time>
      </trkpt>
      <trkpt lat="51.3602960" lon="7.7463070">
        <ele>279.8800000</ele>
        <time>2010-08-14T14:10:41Z</time>
      </trkpt>
      <trkpt lat="51.3601020" lon="7.7462590">
        <ele>280.3600000</ele>
        <time>2010-08-14T14:10:42Z</time>
      </trkpt>
      <trkpt lat="51.3599270" lon="7.7462140">
        <ele>281.3200000</ele>
        <time>2010-08-14T14:10:43Z</time>
      </trkpt>
      <trkpt lat="51.3597380" lon="7.7462040">
        <ele>281.8000000</ele>
        <time>2010-08-14T14:10:44Z</time>
      </trkpt>
      <trkpt lat="51.3595450" lon="7.7462580">
        <ele>281.8000000</ele>
        <time>2010-08-14T14:10:45Z</time>
      </trkpt>
      <trkpt lat="51.3593710" lon="7.7463140">
        <ele>282.7700000</ele>
        <time>2010-08-14T14:10:46Z</time>
      </trkpt>
      <trkpt lat="51.3592000" lon="7.7463800">
        <ele>282.7700000</ele>
        <time>2010-08-14T14:10:47Z</time>
      </trkpt>
      <trkpt lat="51.3575770" lon="7.7473890">
        <ele>289.0100000</ele>
        <time>2010-08-14T14:10:56Z</time>
      </trkpt>
      <trkpt lat="51.3562040" lon="7.7479200">
        <ele>292.8600000</ele>
        <time>2010-08-14T14:11:03Z</time>
      </trkpt>
      <trkpt lat="51.3547390" lon="7.7478320">
        <ele>297.1800000</ele>
        <time>2010-08-14T14:11:11Z</time>
      </trkpt>
      <trkpt lat="51.3531030" lon="7.7477140">
        <ele>302.4700000</ele>
        <time>2010-08-14T14:11:20Z</time>
      </trkpt>
      <trkpt lat="51.3516020" lon="7.7474630">
        <ele>306.3200000</ele>
        <time>2010-08-14T14:11:29Z</time>
      </trkpt>
      <trkpt lat="51.3498200" lon="7.7471960">
        <ele>310.1600000</ele>
        <time>2010-08-14T14:11:40Z</time>
      </trkpt>
      <trkpt lat="51.3494050" lon="7.7470170">
        <ele>311.1200000</ele>
        <time>2010-08-14T14:11:43Z</time>
      </trkpt>
      <trkpt lat="51.3492760" lon="7.7469260">
        <ele>311.1200000</ele>
        <time>2010-08-14T14:11:44Z</time>
      </trkpt>
      <trkpt lat="51.3484600" lon="7.7459260">
        <ele>313.0500000</ele>
        <time>2010-08-14T14:11:49Z</time>
      </trkpt>
      <trkpt lat="51.3472360" lon="7.7448670">
        <ele>315.9300000</ele>
        <time>2010-08-14T14:11:56Z</time>
      </trkpt>
      <trkpt lat="51.3470360" lon="7.7448640">
        <ele>316.4100000</ele>
        <time>2010-08-14T14:11:57Z</time>
      </trkpt>
      <trkpt lat="51.3468450" lon="7.7448670">
        <ele>317.3700000</ele>
        <time>2010-08-14T14:11:58Z</time>
      </trkpt>
      <trkpt lat="51.3466650" lon="7.7448800">
        <ele>317.3700000</ele>
        <time>2010-08-14T14:11:59Z</time>
      </trkpt>
      <trkpt lat="51.3450870" lon="7.7452280">
        <ele>322.1800000</ele>
        <time>2010-08-14T14:12:07Z</time>
      </trkpt>
      <trkpt lat="51.3435780" lon="7.7452950">
        <ele>327.4700000</ele>
        <time>2010-08-14T14:12:16Z</time>
      </trkpt>
      <trkpt lat="51.3429880" lon="7.7452400">
        <ele>327.9500000</ele>
        <time>2010-08-14T14:12:20Z</time>
      </trkpt>
      <trkpt lat="51.3428580" lon="7.7451730">
        <ele>327.9500000</ele>
        <time>2010-08-14T14:12:21Z</time>
      </trkpt>
      <trkpt lat="51.3427320" lon="7.7450740">
        <ele>327.9500000</ele>
        <time>2010-08-14T14:12:22Z</time>
      </trkpt>
      <trkpt lat="51.3426120" lon="7.7449450">
        <ele>328.4300000</ele>
        <time>2010-08-14T14:12:23Z</time>
      </trkpt>
      <trkpt lat="51.3425160" lon="7.7447670">
        <ele>328.9100000</ele>
        <time>2010-08-14T14:12:24Z</time>
      </trkpt>
      <trkpt lat="51.3424200" lon="7.7445630">
        <ele>328.9100000</ele>
        <time>2010-08-14T14:12:25Z</time>
      </trkpt>
      <trkpt lat="51.3423380" lon="7.7443170">
        <ele>329.3900000</ele>
        <time>2010-08-14T14:12:26Z</time>
      </trkpt>
      <trkpt lat="51.3422710" lon="7.7440430">
        <ele>329.8700000</ele>
        <time>2010-08-14T14:12:27Z</time>
      </trkpt>
      <trkpt lat="51.3422040" lon="7.7437740">
        <ele>330.3500000</ele>
        <time>2010-08-14T14:12:28Z</time>
      </trkpt>
      <trkpt lat="51.3415200" lon="7.7412190">
        <ele>335.1600000</ele>
        <time>2010-08-14T14:12:39Z</time>
      </trkpt>
      <trkpt lat="51.3410870" lon="7.7388960">
        <ele>340.4400000</ele>
        <time>2010-08-14T14:12:48Z</time>
      </trkpt>
      <trkpt lat="51.3409060" lon="7.7381180">
        <ele>341.4100000</ele>
        <time>2010-08-14T14:12:51Z</time>
      </trkpt>
      <trkpt lat="51.3408210" lon="7.7378750">
        <ele>341.8900000</ele>
        <time>2010-08-14T14:12:52Z</time>
      </trkpt>
      <trkpt lat="51.3407220" lon="7.7376380">
        <ele>342.3700000</ele>
        <time>2010-08-14T14:12:53Z</time>
      </trkpt>
      <trkpt lat="51.3406110" lon="7.7374070">
        <ele>342.8500000</ele>
        <time>2010-08-14T14:12:54Z</time>
      </trkpt>
      <trkpt lat="51.3404850" lon="7.7371760">
        <ele>343.3300000</ele>
        <time>2010-08-14T14:12:55Z</time>
      </trkpt>
      <trkpt lat="51.3403420" lon="7.7369520">
        <ele>343.8100000</ele>
        <time>2010-08-14T14:12:56Z</time>
      </trkpt>
      <trkpt lat="51.3401870" lon="7.7367570">
        <ele>344.2900000</ele>
        <time>2010-08-14T14:12:57Z</time>
      </trkpt>
      <trkpt lat="51.3400340" lon="7.7365870">
        <ele>344.7700000</ele>
        <time>2010-08-14T14:12:58Z</time>
      </trkpt>
      <trkpt lat="51.3398820" lon="7.7364350">
        <ele>345.2500000</ele>
        <time>2010-08-14T14:12:59Z</time>
      </trkpt>
      <trkpt lat="51.3393130" lon="7.7358900">
        <ele>347.1700000</ele>
        <time>2010-08-14T14:13:03Z</time>
      </trkpt>
      <trkpt lat="51.3391850" lon="7.7357160">
        <ele>347.1700000</ele>
        <time>2010-08-14T14:13:04Z</time>
      </trkpt>
      <trkpt lat="51.3390600" lon="7.7355240">
        <ele>347.1700000</ele>
        <time>2010-08-14T14:13:05Z</time>
      </trkpt>
      <trkpt lat="51.3389420" lon="7.7353140">
        <ele>347.1700000</ele>
        <time>2010-08-14T14:13:06Z</time>
      </trkpt>
      <trkpt lat="51.3388350" lon="7.7350900">
        <ele>347.6500000</ele>
        <time>2010-08-14T14:13:07Z</time>
      </trkpt>
      <trkpt lat="51.3384030" lon="7.7343160">
        <ele>348.1300000</ele>
        <time>2010-08-14T14:13:11Z</time>
      </trkpt>
      <trkpt lat="51.3382640" lon="7.7341530">
        <ele>348.1300000</ele>
        <time>2010-08-14T14:13:12Z</time>
      </trkpt>
      <trkpt lat="51.3381100" lon="7.7340040">
        <ele>348.6200000</ele>
        <time>2010-08-14T14:13:13Z</time>
      </trkpt>
      <trkpt lat="51.3379370" lon="7.7338960">
        <ele>349.1000000</ele>
        <time>2010-08-14T14:13:14Z</time>
      </trkpt>
      <trkpt lat="51.3377630" lon="7.7338160">
        <ele>349.5800000</ele>
        <time>2010-08-14T14:13:15Z</time>
      </trkpt>
      <trkpt lat="51.3375790" lon="7.7337630">
        <ele>349.5800000</ele>
        <time>2010-08-14T14:13:16Z</time>
      </trkpt>
      <trkpt lat="51.3373940" lon="7.7337260">
        <ele>350.5400000</ele>
        <time>2010-08-14T14:13:17Z</time>
      </trkpt>
      <trkpt lat="51.3354680" lon="7.7331470">
        <ele>355.3400000</ele>
        <time>2010-08-14T14:13:28Z</time>
      </trkpt>
      <trkpt lat="51.3353110" lon="7.7331130">
        <ele>355.8300000</ele>
        <time>2010-08-14T14:13:29Z</time>
      </trkpt>
      <trkpt lat="51.3351550" lon="7.7331110">
        <ele>356.3100000</ele>
        <time>2010-08-14T14:13:30Z</time>
      </trkpt>
      <trkpt lat="51.3350030" lon="7.7331390">
        <ele>356.3100000</ele>
        <time>2010-08-14T14:13:31Z</time>
      </trkpt>
      <trkpt lat="51.3348540" lon="7.7331880">
        <ele>356.7900000</ele>
        <time>2010-08-14T14:13:32Z</time>
      </trkpt>
      <trkpt lat="51.3347090" lon="7.7332530">
        <ele>357.2700000</ele>
        <time>2010-08-14T14:13:33Z</time>
      </trkpt>
      <trkpt lat="51.3329540" lon="7.7342650">
        <ele>360.6300000</ele>
        <time>2010-08-14T14:13:46Z</time>
      </trkpt>
      <trkpt lat="51.3318000" lon="7.7349670">
        <ele>362.5500000</ele>
        <time>2010-08-14T14:13:54Z</time>
      </trkpt>
      <trkpt lat="51.3309880" lon="7.7355990">
        <ele>362.5500000</ele>
        <time>2010-08-14T14:14:01Z</time>
      </trkpt>
      <trkpt lat="51.3304930" lon="7.7359100">
        <ele>364.0000000</ele>
        <time>2010-08-14T14:14:09Z</time>
      </trkpt>
      <trkpt lat="51.3304800" lon="7.7359350">
        <ele>367.3600000</ele>
        <time>2010-08-14T14:14:18Z</time>
      </trkpt>
      <trkpt lat="51.3302120" lon="7.7360870">
        <ele>365.9200000</ele>
        <time>2010-08-14T14:14:31Z</time>
      </trkpt>
      <trkpt lat="51.3293850" lon="7.7367230">
        <ele>367.8400000</ele>
        <time>2010-08-14T14:14:39Z</time>
      </trkpt>
      <trkpt lat="51.3292800" lon="7.7368740">
        <ele>367.8400000</ele>
        <time>2010-08-14T14:14:40Z</time>
      </trkpt>
      <trkpt lat="51.3291810" lon="7.7370310">
        <ele>367.8400000</ele>
        <time>2010-08-14T14:14:41Z</time>
      </trkpt>
      <trkpt lat="51.3290880" lon="7.7371970">
        <ele>368.3200000</ele>
        <time>2010-08-14T14:14:42Z</time>
      </trkpt>
      <trkpt lat="51.3290060" lon="7.7373710">
        <ele>368.3200000</ele>
        <time>2010-08-14T14:14:43Z</time>
      </trkpt>
      <trkpt lat="51.3289330" lon="7.7375390">
        <ele>368.3200000</ele>
        <time>2010-08-14T14:14:44Z</time>
      </trkpt>
      <trkpt lat="51.3288550" lon="7.7376850">
        <ele>368.8000000</ele>
        <time>2010-08-14T14:14:45Z</time>
      </trkpt>
      <trkpt lat="51.3287640" lon="7.7377780">
        <ele>368.8000000</ele>
        <time>2010-08-14T14:14:46Z</time>
      </trkpt>
      <trkpt lat="51.3286530" lon="7.7378120">
        <ele>369.2800000</ele>
        <time>2010-08-14T14:14:47Z</time>
      </trkpt>
      <trkpt lat="51.3285310" lon="7.7378030">
        <ele>370.2400000</ele>
        <time>2010-08-14T14:14:48Z</time>
      </trkpt>
      <trkpt lat="51.3283890" lon="7.7377760">
        <ele>371.6900000</ele>
        <time>2010-08-14T14:14:49Z</time>
      </trkpt>
      <trkpt lat="51.3282110" lon="7.7377070">
        <ele>371.6900000</ele>
        <time>2010-08-14T14:14:50Z</time>
      </trkpt>
      <trkpt lat="51.3280480" lon="7.7376400">
        <ele>373.1300000</ele>
        <time>2010-08-14T14:14:51Z</time>
      </trkpt>
      <trkpt lat="51.3278920" lon="7.7375620">
        <ele>374.0900000</ele>
        <time>2010-08-14T14:14:52Z</time>
      </trkpt>
      <trkpt lat="51.3263060" lon="7.7367600">
        <ele>382.2600000</ele>
        <time>2010-08-14T14:15:02Z</time>
      </trkpt>
      <trkpt lat="51.3244730" lon="7.7358470">
        <ele>388.5100000</ele>
        <time>2010-08-14T14:15:13Z</time>
      </trkpt>
      <trkpt lat="51.3233810" lon="7.7359270">
        <ele>392.8400000</ele>
        <time>2010-08-14T14:15:19Z</time>
      </trkpt>
      <trkpt lat="51.3222900" lon="7.7367950">
        <ele>396.2000000</ele>
        <time>2010-08-14T14:15:25Z</time>
      </trkpt>
      <trkpt lat="51.3213490" lon="7.7384830">
        <ele>401.0100000</ele>
        <time>2010-08-14T14:15:31Z</time>
      </trkpt>
      <trkpt lat="51.3201480" lon="7.7408110">
        <ele>408.2200000</ele>
        <time>2010-08-14T14:15:40Z</time>
      </trkpt>
      <trkpt lat="51.3193230" lon="7.7423250">
        <ele>411.5800000</ele>
        <time>2010-08-14T14:15:47Z</time>
      </trkpt>
      <trkpt lat="51.3191760" lon="7.7424490">
        <ele>412.0600000</ele>
        <time>2010-08-14T14:15:48Z</time>
      </trkpt>
      <trkpt lat="51.3190090" lon="7.7425260">
        <ele>412.5400000</ele>
        <time>2010-08-14T14:15:49Z</time>
      </trkpt>
      <trkpt lat="51.3188100" lon="7.7425500">
        <ele>413.5000000</ele>
        <time>2010-08-14T14:15:50Z</time>
      </trkpt>
      <trkpt lat="51.3186120" lon="7.7425260">
        <ele>414.4700000</ele>
        <time>2010-08-14T14:15:51Z</time>
      </trkpt>
      <trkpt lat="51.3184020" lon="7.7424560">
        <ele>415.4300000</ele>
        <time>2010-08-14T14:15:52Z</time>
      </trkpt>
      <trkpt lat="51.3182120" lon="7.7423010">
        <ele>415.9100000</ele>
        <time>2010-08-14T14:15:53Z</time>
      </trkpt>
      <trkpt lat="51.3180350" lon="7.7421000">
        <ele>416.8700000</ele>
        <time>2010-08-14T14:15:54Z</time>
      </trkpt>
      <trkpt lat="51.3178780" lon="7.7418880">
        <ele>417.3500000</ele>
        <time>2010-08-14T14:15:55Z</time>
      </trkpt>
      <trkpt lat="51.3177340" lon="7.7416780">
        <ele>417.8300000</ele>
        <time>2010-08-14T14:15:56Z</time>
      </trkpt>
      <trkpt lat="51.3171850" lon="7.7411670">
        <ele>418.7900000</ele>
        <time>2010-08-14T14:16:00Z</time>
      </trkpt>
      <trkpt lat="51.3170430" lon="7.7411430">
        <ele>418.7900000</ele>
        <time>2010-08-14T14:16:01Z</time>
      </trkpt>
      <trkpt lat="51.3169230" lon="7.7411220">
        <ele>418.7900000</ele>
        <time>2010-08-14T14:16:02Z</time>
      </trkpt>
      <trkpt lat="51.3168010" lon="7.7411300">
        <ele>418.7900000</ele>
        <time>2010-08-14T14:16:03Z</time>
      </trkpt>
      <trkpt lat="51.3166770" lon="7.7411570">
        <ele>418.7900000</ele>
        <time>2010-08-14T14:16:04Z</time>
      </trkpt>
      <trkpt lat="51.3165630" lon="7.7411960">
        <ele>418.7900000</ele>
        <time>2010-08-14T14:16:05Z</time>
      </trkpt>
      <trkpt lat="51.3158770" lon="7.7413090">
        <ele>417.8300000</ele>
        <time>2010-08-14T14:16:10Z</time>
      </trkpt>
      <trkpt lat="51.3156700" lon="7.7412330">
        <ele>416.3900000</ele>
        <time>2010-08-14T14:16:11Z</time>
      </trkpt>
      <trkpt lat="51.3154640" lon="7.7411130">
        <ele>414.9500000</ele>
        <time>2010-08-14T14:16:12Z</time>
      </trkpt>
      <trkpt lat="51.3152500" lon="7.7409500">
        <ele>414.4700000</ele>
        <time>2010-08-14T14:16:13Z</time>
      </trkpt>
      <trkpt lat="51.3150320" lon="7.7407680">
        <ele>413.5000000</ele>
        <time>2010-08-14T14:16:14Z</time>
      </trkpt>
      <trkpt lat="51.3148280" lon="7.7405920">
        <ele>411.5800000</ele>
        <time>2010-08-14T14:16:15Z</time>
      </trkpt>
      <trkpt lat="51.3137820" lon="7.7392120">
        <ele>399.0800000</ele>
        <time>2010-08-14T14:16:21Z</time>
      </trkpt>
      <trkpt lat="51.3126100" lon="7.7369240">
        <ele>387.0700000</ele>
        <time>2010-08-14T14:16:29Z</time>
      </trkpt>
      <trkpt lat="51.3115370" lon="7.7352240">
        <ele>379.3800000</ele>
        <time>2010-08-14T14:16:36Z</time>
      </trkpt>
      <trkpt lat="51.3110960" lon="7.7342360">
        <ele>376.4900000</ele>
        <time>2010-08-14T14:16:40Z</time>
      </trkpt>
      <trkpt lat="51.3110250" lon="7.7338720">
        <ele>376.4900000</ele>
        <time>2010-08-14T14:16:41Z</time>
      </trkpt>
      <trkpt lat="51.3109860" lon="7.7334690">
        <ele>376.0100000</ele>
        <time>2010-08-14T14:16:42Z</time>
      </trkpt>
      <trkpt lat="51.3102760" lon="7.7308860">
        <ele>365.9200000</ele>
        <time>2010-08-14T14:16:50Z</time>
      </trkpt>
      <trkpt lat="51.3095980" lon="7.7298190">
        <ele>359.1900000</ele>
        <time>2010-08-14T14:16:56Z</time>
      </trkpt>
      <trkpt lat="51.3094390" lon="7.7297400">
        <ele>358.2300000</ele>
        <time>2010-08-14T14:16:57Z</time>
      </trkpt>
      <trkpt lat="51.3092400" lon="7.7297100">
        <ele>356.7900000</ele>
        <time>2010-08-14T14:16:58Z</time>
      </trkpt>
      <trkpt lat="51.3090050" lon="7.7297170">
        <ele>355.8300000</ele>
        <time>2010-08-14T14:16:59Z</time>
      </trkpt>
      <trkpt lat="51.3087730" lon="7.7297220">
        <ele>354.3800000</ele>
        <time>2010-08-14T14:17:00Z</time>
      </trkpt>
      <trkpt lat="51.3085600" lon="7.7297110">
        <ele>352.9400000</ele>
        <time>2010-08-14T14:17:01Z</time>
      </trkpt>
      <trkpt lat="51.3073340" lon="7.7296890">
        <ele>346.6900000</ele>
        <time>2010-08-14T14:17:08Z</time>
      </trkpt>
      <trkpt lat="51.3065330" lon="7.7294840">
        <ele>342.3700000</ele>
        <time>2010-08-14T14:17:15Z</time>
      </trkpt>
      <trkpt lat="51.3064740" lon="7.7293860">
        <ele>341.8900000</ele>
        <time>2010-08-14T14:17:16Z</time>
      </trkpt>
      <trkpt lat="51.3064410" lon="7.7292610">
        <ele>341.4100000</ele>
        <time>2010-08-14T14:17:17Z</time>
      </trkpt>
      <trkpt lat="51.3064360" lon="7.7291230">
        <ele>340.4400000</ele>
        <time>2010-08-14T14:17:18Z</time>
      </trkpt>
      <trkpt lat="51.3064560" lon="7.7289940">
        <ele>340.4400000</ele>
        <time>2010-08-14T14:17:19Z</time>
      </trkpt>
      <trkpt lat="51.3065490" lon="7.7289330">
        <ele>339.9600000</ele>
        <time>2010-08-14T14:17:20Z</time>
      </trkpt>
      <trkpt lat="51.3066720" lon="7.7289100">
        <ele>339.9600000</ele>
        <time>2010-08-14T14:17:21Z</time>
      </trkpt>
      <trkpt lat="51.3068160" lon="7.7289470">
        <ele>339.4800000</ele>
        <time>2010-08-14T14:17:22Z</time>
      </trkpt>
      <trkpt lat="51.3069830" lon="7.7289970">
        <ele>339.4800000</ele>
        <time>2010-08-14T14:17:23Z</time>
      </trkpt>
      <trkpt lat="51.3071270" lon="7.7290320">
        <ele>338.0400000</ele>
        <time>2010-08-14T14:17:24Z</time>
      </trkpt>
      <trkpt lat="51.3072770" lon="7.7290440">
        <ele>337.5600000</ele>
        <time>2010-08-14T14:17:25Z</time>
      </trkpt>
      <trkpt lat="51.3074270" lon="7.7290370">
        <ele>337.0800000</ele>
        <time>2010-08-14T14:17:26Z</time>
      </trkpt>
      <trkpt lat="51.3075770" lon="7.7290060">
        <ele>336.6000000</ele>
        <time>2010-08-14T14:17:27Z</time>
      </trkpt>
      <trkpt lat="51.3077250" lon="7.7289700">
        <ele>336.1200000</ele>
        <time>2010-08-14T14:17:28Z</time>
      </trkpt>
      <trkpt lat="51.3078800" lon="7.7289510">
        <ele>336.1200000</ele>
        <time>2010-08-14T14:17:29Z</time>
      </trkpt>
      <trkpt lat="51.3080380" lon="7.7290220">
        <ele>335.1600000</ele>
        <time>2010-08-14T14:17:30Z</time>
      </trkpt>
      <trkpt lat="51.3081910" lon="7.7290720">
        <ele>333.7100000</ele>
        <time>2010-08-14T14:17:31Z</time>
      </trkpt>
      <trkpt lat="51.3083290" lon="7.7291320">
        <ele>333.2300000</ele>
        <time>2010-08-14T14:17:32Z</time>
      </trkpt>
      <trkpt lat="51.3084810" lon="7.7291550">
        <ele>332.7500000</ele>
        <time>2010-08-14T14:17:33Z</time>
      </trkpt>
      <trkpt lat="51.3086260" lon="7.7291710">
        <ele>332.7500000</ele>
        <time>2010-08-14T14:17:34Z</time>
      </trkpt>
      <trkpt lat="51.3094170" lon="7.7290140">
        <ele>329.8700000</ele>
        <time>2010-08-14T14:17:41Z</time>
      </trkpt>
      <trkpt lat="51.3099100" lon="7.7288850">
        <ele>329.8700000</ele>
        <time>2010-08-14T14:17:46Z</time>
      </trkpt>
      <trkpt lat="51.3101020" lon="7.7288780">
        <ele>330.3500000</ele>
        <time>2010-08-14T14:17:48Z</time>
      </trkpt>
      <trkpt lat="51.3102150" lon="7.7288500">
        <ele>329.8700000</ele>
        <time>2010-08-14T14:17:49Z</time>
      </trkpt>
      <trkpt lat="51.3102850" lon="7.7287650">
        <ele>328.9100000</ele>
        <time>2010-08-14T14:17:50Z</time>
      </trkpt>
      <trkpt lat="51.3103220" lon="7.7286670">
        <ele>327.9500000</ele>
        <time>2010-08-14T14:17:51Z</time>
      </trkpt>
      <trkpt lat="51.3103360" lon="7.7284870">
        <ele>327.4700000</ele>
        <time>2010-08-14T14:17:52Z</time>
      </trkpt>
      <trkpt lat="51.3103080" lon="7.7283650">
        <ele>326.9900000</ele>
        <time>2010-08-14T14:17:53Z</time>
      </trkpt>
      <trkpt lat="51.3102500" lon="7.7282600">
        <ele>326.0200000</ele>
        <time>2010-08-14T14:17:54Z</time>
      </trkpt>
      <trkpt lat="51.3101900" lon="7.7281610">
        <ele>325.5400000</ele>
        <time>2010-08-14T14:17:55Z</time>
      </trkpt>
      <trkpt lat="51.3100940" lon="7.7281040">
        <ele>326.0200000</ele>
        <time>2010-08-14T14:17:56Z</time>
      </trkpt>
      <trkpt lat="51.3099510" lon="7.7280730">
        <ele>325.5400000</ele>
        <time>2010-08-14T14:17:57Z</time>
      </trkpt>
      <trkpt lat="51.3098140" lon="7.7280340">
        <ele>325.0600000</ele>
        <time>2010-08-14T14:17:58Z</time>
      </trkpt>
      <trkpt lat="51.3096660" lon="7.7280080">
        <ele>324.5800000</ele>
        <time>2010-08-14T14:17:59Z</time>
      </trkpt>
      <trkpt lat="51.3095190" lon="7.7279850">
        <ele>323.6200000</ele>
        <time>2010-08-14T14:18:00Z</time>
      </trkpt>
      <trkpt lat="51.3083670" lon="7.7275890">
        <ele>317.3700000</ele>
        <time>2010-08-14T14:18:09Z</time>
      </trkpt>
      <trkpt lat="51.3074210" lon="7.7268730">
        <ele>310.1600000</ele>
        <time>2010-08-14T14:18:16Z</time>
      </trkpt>
      <trkpt lat="51.3056920" lon="7.7255840">
        <ele>302.4700000</ele>
        <time>2010-08-14T14:18:28Z</time>
      </trkpt>
      <trkpt lat="51.3047610" lon="7.7250520">
        <ele>298.1500000</ele>
        <time>2010-08-14T14:18:35Z</time>
      </trkpt>
      <trkpt lat="51.3046350" lon="7.7250510">
        <ele>297.6700000</ele>
        <time>2010-08-14T14:18:36Z</time>
      </trkpt>
      <trkpt lat="51.3045070" lon="7.7251040">
        <ele>296.7000000</ele>
        <time>2010-08-14T14:18:37Z</time>
      </trkpt>
      <trkpt lat="51.3043760" lon="7.7251850">
        <ele>295.7400000</ele>
        <time>2010-08-14T14:18:38Z</time>
      </trkpt>
      <trkpt lat="51.3042450" lon="7.7252910">
        <ele>295.2600000</ele>
        <time>2010-08-14T14:18:39Z</time>
      </trkpt>
      <trkpt lat="51.3041130" lon="7.7254090">
        <ele>294.7800000</ele>
        <time>2010-08-14T14:18:40Z</time>
      </trkpt>
      <trkpt lat="51.3034510" lon="7.7257820">
        <ele>290.4600000</ele>
        <time>2010-08-14T14:18:45Z</time>
      </trkpt>
      <trkpt lat="51.3033150" lon="7.7257960">
        <ele>289.9700000</ele>
        <time>2010-08-14T14:18:46Z</time>
      </trkpt>
      <trkpt lat="51.3031770" lon="7.7257890">
        <ele>289.0100000</ele>
        <time>2010-08-14T14:18:47Z</time>
      </trkpt>
      <trkpt lat="51.3027960" lon="7.7257610">
        <ele>287.0900000</ele>
        <time>2010-08-14T14:18:50Z</time>
      </trkpt>
      <trkpt lat="51.3026790" lon="7.7257860">
        <ele>286.6100000</ele>
        <time>2010-08-14T14:18:51Z</time>
      </trkpt>
      <trkpt lat="51.3023130" lon="7.7258640">
        <ele>284.6900000</ele>
        <time>2010-08-14T14:18:55Z</time>
      </trkpt>
      <trkpt lat="51.3022650" lon="7.7258590">
        <ele>283.7300000</ele>
        <time>2010-08-14T14:18:56Z</time>
      </trkpt>
      <trkpt lat="51.3022240" lon="7.7258520">
        <ele>283.7300000</ele>
        <time>2010-08-14T14:18:57Z</time>
      </trkpt>
      <trkpt lat="51.3021700" lon="7.7258980">
        <ele>283.7300000</ele>
        <time>2010-08-14T14:18:58Z</time>
      </trkpt>
      <trkpt lat="51.3021230" lon="7.7259230">
        <ele>284.2100000</ele>
        <time>2010-08-14T14:18:59Z</time>
      </trkpt>
      <trkpt lat="51.3021200" lon="7.7258760">
        <ele>284.2100000</ele>
        <time>2010-08-14T14:19:00Z</time>
      </trkpt>
      <trkpt lat="51.3021130" lon="7.7259040">
        <ele>283.2500000</ele>
        <time>2010-08-14T14:19:01Z</time>
      </trkpt>
      <trkpt lat="51.3021150" lon="7.7259500">
        <ele>282.7700000</ele>
        <time>2010-08-14T14:19:02Z</time>
      </trkpt>
      <trkpt lat="51.3021410" lon="7.7260240">
        <ele>282.2800000</ele>
        <time>2010-08-14T14:19:03Z</time>
      </trkpt>
      <trkpt lat="51.3021910" lon="7.7261210">
        <ele>281.3200000</ele>
        <time>2010-08-14T14:19:04Z</time>
      </trkpt>
      <trkpt lat="51.3022470" lon="7.7262290">
        <ele>280.8400000</ele>
        <time>2010-08-14T14:19:05Z</time>
      </trkpt>
      <trkpt lat="51.3023580" lon="7.7264890">
        <ele>280.8400000</ele>
        <time>2010-08-14T14:19:07Z</time>
      </trkpt>
      <trkpt lat="51.3023920" lon="7.7266390">
        <ele>280.8400000</ele>
        <time>2010-08-14T14:19:08Z</time>
      </trkpt>
      <trkpt lat="51.3024050" lon="7.7267990">
        <ele>279.8800000</ele>
        <time>2010-08-14T14:19:09Z</time>
      </trkpt>
      <trkpt lat="51.3024110" lon="7.7269540">
        <ele>279.8800000</ele>
        <time>2010-08-14T14:19:10Z</time>
      </trkpt>
      <trkpt lat="51.3023970" lon="7.7270770">
        <ele>279.8800000</ele>
        <time>2010-08-14T14:19:11Z</time>
      </trkpt>
      <trkpt lat="51.3023840" lon="7.7271420">
        <ele>279.8800000</ele>
        <time>2010-08-14T14:19:12Z</time>
      </trkpt>
      <trkpt lat="51.3023620" lon="7.7271790">
        <ele>279.4000000</ele>
        <time>2010-08-14T14:19:13Z</time>
      </trkpt>
      <trkpt lat="51.3023460" lon="7.7272300">
        <ele>279.8800000</ele>
        <time>2010-08-14T14:19:14Z</time>
      </trkpt>
      <trkpt lat="51.3023140" lon="7.7272970">
        <ele>280.8400000</ele>
        <time>2010-08-14T14:19:15Z</time>
      </trkpt>
      <trkpt lat="51.3023000" lon="7.7274020">
        <ele>280.8400000</ele>
        <time>2010-08-14T14:19:16Z</time>
      </trkpt>
      <trkpt lat="51.3022990" lon="7.7275170">
        <ele>281.3200000</ele>
        <time>2010-08-14T14:19:17Z</time>
      </trkpt>
      <trkpt lat="51.3023050" lon="7.7276430">
        <ele>281.3200000</ele>
        <time>2010-08-14T14:19:18Z</time>
      </trkpt>
      <trkpt lat="51.3023190" lon="7.7277930">
        <ele>281.8000000</ele>
        <time>2010-08-14T14:19:19Z</time>
      </trkpt>
      <trkpt lat="51.3024070" lon="7.7292870">
        <ele>287.5700000</ele>
        <time>2010-08-14T14:19:27Z</time>
      </trkpt>
      <trkpt lat="51.3024050" lon="7.7294910">
        <ele>288.5300000</ele>
        <time>2010-08-14T14:19:28Z</time>
      </trkpt>
      <trkpt lat="51.3023790" lon="7.7296770">
        <ele>289.0100000</ele>
        <time>2010-08-14T14:19:29Z</time>
      </trkpt>
      <trkpt lat="51.3021670" lon="7.7309760">
        <ele>294.3000000</ele>
        <time>2010-08-14T14:19:36Z</time>
      </trkpt>
      <trkpt lat="51.3021590" lon="7.7311620">
        <ele>294.7800000</ele>
        <time>2010-08-14T14:19:37Z</time>
      </trkpt>
      <trkpt lat="51.3020780" lon="7.7330060">
        <ele>301.0300000</ele>
        <time>2010-08-14T14:19:47Z</time>
      </trkpt>
      <trkpt lat="51.3020350" lon="7.7331720">
        <ele>301.9900000</ele>
        <time>2010-08-14T14:19:48Z</time>
      </trkpt>
      <trkpt lat="51.3018320" lon="7.7338020">
        <ele>306.8000000</ele>
        <time>2010-08-14T14:19:52Z</time>
      </trkpt>
      <trkpt lat="51.3017940" lon="7.7339620">
        <ele>307.2800000</ele>
        <time>2010-08-14T14:19:53Z</time>
      </trkpt>
      <trkpt lat="51.3017800" lon="7.7341200">
        <ele>307.7600000</ele>
        <time>2010-08-14T14:19:54Z</time>
      </trkpt>
      <trkpt lat="51.3017920" lon="7.7342720">
        <ele>308.7200000</ele>
        <time>2010-08-14T14:19:55Z</time>
      </trkpt>
      <trkpt lat="51.3018070" lon="7.7344230">
        <ele>309.2000000</ele>
        <time>2010-08-14T14:19:56Z</time>
      </trkpt>
      <trkpt lat="51.3018070" lon="7.7345780">
        <ele>310.1600000</ele>
        <time>2010-08-14T14:19:57Z</time>
      </trkpt>
      <trkpt lat="51.3018060" lon="7.7347460">
        <ele>311.1200000</ele>
        <time>2010-08-14T14:19:58Z</time>
      </trkpt>
      <trkpt lat="51.3017080" lon="7.7356000">
        <ele>314.9700000</ele>
        <time>2010-08-14T14:20:03Z</time>
      </trkpt>
      <trkpt lat="51.3017090" lon="7.7357610">
        <ele>315.4500000</ele>
        <time>2010-08-14T14:20:04Z</time>
      </trkpt>
      <trkpt lat="51.3017080" lon="7.7359050">
        <ele>315.9300000</ele>
        <time>2010-08-14T14:20:05Z</time>
      </trkpt>
      <trkpt lat="51.3016980" lon="7.7360280">
        <ele>316.8900000</ele>
        <time>2010-08-14T14:20:06Z</time>
      </trkpt>
      <trkpt lat="51.3016740" lon="7.7361310">
        <ele>317.8500000</ele>
        <time>2010-08-14T14:20:07Z</time>
      </trkpt>
      <trkpt lat="51.3016450" lon="7.7362140">
        <ele>318.3300000</ele>
        <time>2010-08-14T14:20:08Z</time>
      </trkpt>
      <trkpt lat="51.3015970" lon="7.7362830">
        <ele>318.8100000</ele>
        <time>2010-08-14T14:20:09Z</time>
      </trkpt>
      <trkpt lat="51.3015470" lon="7.7363350">
        <ele>319.3000000</ele>
        <time>2010-08-14T14:20:10Z</time>
      </trkpt>
      <trkpt lat="51.3015120" lon="7.7363790">
        <ele>319.3000000</ele>
        <time>2010-08-14T14:20:11Z</time>
      </trkpt>
      <trkpt lat="51.3014980" lon="7.7364550">
        <ele>323.6200000</ele>
        <time>2010-08-14T14:20:19Z</time>
      </trkpt>
      <trkpt lat="51.3015000" lon="7.7364570">
        <ele>324.1000000</ele>
        <time>2010-08-14T14:20:35Z</time>
      </trkpt>
      <trkpt lat="51.3014960" lon="7.7365000">
        <ele>324.5800000</ele>
        <time>2010-08-14T14:20:36Z</time>
      </trkpt>
      <trkpt lat="51.3014990" lon="7.7365740">
        <ele>325.5400000</ele>
        <time>2010-08-14T14:20:37Z</time>
      </trkpt>
      <trkpt lat="51.3015210" lon="7.7366670">
        <ele>325.0600000</ele>
        <time>2010-08-14T14:20:38Z</time>
      </trkpt>
      <trkpt lat="51.3015500" lon="7.7367710">
        <ele>325.0600000</ele>
        <time>2010-08-14T14:20:39Z</time>
      </trkpt>
      <trkpt lat="51.3015880" lon="7.7368720">
        <ele>325.0600000</ele>
        <time>2010-08-14T14:20:40Z</time>
      </trkpt>
      <trkpt lat="51.3016260" lon="7.7369730">
        <ele>325.0600000</ele>
        <time>2010-08-14T14:20:41Z</time>
      </trkpt>
      <trkpt lat="51.3017310" lon="7.7372640">
        <ele>325.5400000</ele>
        <time>2010-08-14T14:20:44Z</time>
      </trkpt>
      <trkpt lat="51.3017900" lon="7.7373890">
        <ele>325.5400000</ele>
        <time>2010-08-14T14:20:50Z</time>
      </trkpt>
      <trkpt lat="51.3017890" lon="7.7374030">
        <ele>325.5400000</ele>
        <time>2010-08-14T14:20:51Z</time>
      </trkpt>
      <trkpt lat="51.3017840" lon="7.7374290">
        <ele>325.5400000</ele>
        <time>2010-08-14T14:20:52Z</time>
      </trkpt>
      <trkpt lat="51.3017750" lon="7.7374580">
        <ele>325.5400000</ele>
        <time>2010-08-14T14:20:53Z</time>
      </trkpt>
      <trkpt lat="51.3017660" lon="7.7374830">
        <ele>325.5400000</ele>
        <time>2010-08-14T14:20:54Z</time>
      </trkpt>
      <trkpt lat="51.3017640" lon="7.7375070">
        <ele>325.5400000</ele>
        <time>2010-08-14T14:20:55Z</time>
      </trkpt>
      <trkpt lat="51.3017710" lon="7.7375400">
        <ele>326.0200000</ele>
        <time>2010-08-14T14:20:56Z</time>
      </trkpt>
      <trkpt lat="51.3017850" lon="7.7375830">
        <ele>326.0200000</ele>
        <time>2010-08-14T14:20:57Z</time>
      </trkpt>
      <trkpt lat="51.3018060" lon="7.7376390">
        <ele>326.0200000</ele>
        <time>2010-08-14T14:20:58Z</time>
      </trkpt>
      <trkpt lat="51.3019180" lon="7.7379510">
        <ele>326.5000000</ele>
        <time>2010-08-14T14:21:02Z</time>
      </trkpt>
      <trkpt lat="51.3019370" lon="7.7380470">
        <ele>326.5000000</ele>
        <time>2010-08-14T14:21:03Z</time>
      </trkpt>
      <trkpt lat="51.3019470" lon="7.7381560">
        <ele>326.9900000</ele>
        <time>2010-08-14T14:21:04Z</time>
      </trkpt>
      <trkpt lat="51.3019560" lon="7.7382710">
        <ele>326.9900000</ele>
        <time>2010-08-14T14:21:05Z</time>
      </trkpt>
      <trkpt lat="51.3019720" lon="7.7383900">
        <ele>327.4700000</ele>
        <time>2010-08-14T14:21:06Z</time>
      </trkpt>
      <trkpt lat="51.3020290" lon="7.7390590">
        <ele>330.3500000</ele>
        <time>2010-08-14T14:21:11Z</time>
      </trkpt>
      <trkpt lat="51.3020120" lon="7.7400530">
        <ele>338.5200000</ele>
        <time>2010-08-14T14:21:18Z</time>
      </trkpt>
      <trkpt lat="51.3019330" lon="7.7409140">
        <ele>346.2100000</ele>
        <time>2010-08-14T14:21:25Z</time>
      </trkpt>
      <trkpt lat="51.3020140" lon="7.7411940">
        <ele>352.9400000</ele>
        <time>2010-08-14T14:21:33Z</time>
      </trkpt>
      <trkpt lat="51.3020220" lon="7.7411910">
        <ele>352.9400000</ele>
        <time>2010-08-14T14:21:34Z</time>
      </trkpt>
      <trkpt lat="51.3020340" lon="7.7411770">
        <ele>352.4600000</ele>
        <time>2010-08-14T14:21:35Z</time>
      </trkpt>
      <trkpt lat="51.3020450" lon="7.7411580">
        <ele>352.4600000</ele>
        <time>2010-08-14T14:21:36Z</time>
      </trkpt>
      <trkpt lat="51.3020450" lon="7.7411310">
        <ele>352.4600000</ele>
        <time>2010-08-14T14:21:37Z</time>
      </trkpt>
      <trkpt lat="51.3020390" lon="7.7411070">
        <ele>351.5000000</ele>
        <time>2010-08-14T14:21:38Z</time>
      </trkpt>
      <trkpt lat="51.3019930" lon="7.7410820">
        <ele>349.5800000</ele>
        <time>2010-08-14T14:21:51Z</time>
      </trkpt>
      <trkpt lat="51.3019400" lon="7.7408360">
        <ele>348.1300000</ele>
        <time>2010-08-14T14:23:03Z</time>
      </trkpt>
      <trkpt lat="51.3019540" lon="7.7407500">
        <ele>347.6500000</ele>
        <time>2010-08-14T14:23:04Z</time>
      </trkpt>
      <trkpt lat="51.3020330" lon="7.7401820">
        <ele>344.7700000</ele>
        <time>2010-08-14T14:23:10Z</time>
      </trkpt>
      <trkpt lat="51.3020640" lon="7.7398020">
        <ele>342.3700000</ele>
        <time>2010-08-14T14:23:13Z</time>
      </trkpt>
      <trkpt lat="51.3020940" lon="7.7396840">
        <ele>341.4100000</ele>
        <time>2010-08-14T14:23:14Z</time>
      </trkpt>
      <trkpt lat="51.3021460" lon="7.7395800">
        <ele>340.9200000</ele>
        <time>2010-08-14T14:23:15Z</time>
      </trkpt>
      <trkpt lat="51.3022070" lon="7.7394820">
        <ele>340.4400000</ele>
        <time>2010-08-14T14:23:16Z</time>
      </trkpt>
      <trkpt lat="51.3022690" lon="7.7393930">
        <ele>340.4400000</ele>
        <time>2010-08-14T14:23:17Z</time>
      </trkpt>
      <trkpt lat="51.3025680" lon="7.7391030">
        <ele>345.2500000</ele>
        <time>2010-08-14T14:23:24Z</time>
      </trkpt>
      <trkpt lat="51.3025940" lon="7.7391250">
        <ele>345.7300000</ele>
        <time>2010-08-14T14:23:25Z</time>
      </trkpt>
      <trkpt lat="51.3026150" lon="7.7391690">
        <ele>345.2500000</ele>
        <time>2010-08-14T14:23:26Z</time>
      </trkpt>
      <trkpt lat="51.3026320" lon="7.7392440">
        <ele>345.7300000</ele>
        <time>2010-08-14T14:23:27Z</time>
      </trkpt>
      <trkpt lat="51.3026490" lon="7.7393460">
        <ele>345.7300000</ele>
        <time>2010-08-14T14:23:28Z</time>
      </trkpt>
      <trkpt lat="51.3026830" lon="7.7396310">
        <ele>347.6500000</ele>
        <time>2010-08-14T14:23:30Z</time>
      </trkpt>
      <trkpt lat="51.3026850" lon="7.7398030">
        <ele>348.6200000</ele>
        <time>2010-08-14T14:23:31Z</time>
      </trkpt>
      <trkpt lat="51.3026830" lon="7.7400000">
        <ele>349.5800000</ele>
        <time>2010-08-14T14:23:32Z</time>
      </trkpt>
      <trkpt lat="51.3027460" lon="7.7420240">
        <ele>364.9600000</ele>
        <time>2010-08-14T14:23:42Z</time>
      </trkpt>
      <trkpt lat="51.3027330" lon="7.7422060">
        <ele>365.4400000</ele>
        <time>2010-08-14T14:23:43Z</time>
      </trkpt>
      <trkpt lat="51.3025990" lon="7.7433970">
        <ele>370.7300000</ele>
        <time>2010-08-14T14:23:51Z</time>
      </trkpt>
      <trkpt lat="51.3025030" lon="7.7438830">
        <ele>376.4900000</ele>
        <time>2010-08-14T14:23:59Z</time>
      </trkpt>
      <trkpt lat="51.3025130" lon="7.7438540">
        <ele>376.4900000</ele>
        <time>2010-08-14T14:24:10Z</time>
      </trkpt>
      <trkpt lat="51.3025100" lon="7.7438540">
        <ele>376.4900000</ele>
        <time>2010-08-14T14:24:18Z</time>
      </trkpt>
      <trkpt lat="51.3024920" lon="7.7438600">
        <ele>376.4900000</ele>
        <time>2010-08-14T14:24:19Z</time>
      </trkpt>
      <trkpt lat="51.3024620" lon="7.7438540">
        <ele>376.9700000</ele>
        <time>2010-08-14T14:24:20Z</time>
      </trkpt>
      <trkpt lat="51.3024160" lon="7.7438280">
        <ele>376.9700000</ele>
        <time>2010-08-14T14:24:21Z</time>
      </trkpt>
      <trkpt lat="51.3023560" lon="7.7437820">
        <ele>377.4500000</ele>
        <time>2010-08-14T14:24:22Z</time>
      </trkpt>
      <trkpt lat="51.3022890" lon="7.7437140">
        <ele>377.4500000</ele>
        <time>2010-08-14T14:24:23Z</time>
      </trkpt>
      <trkpt lat="51.3022240" lon="7.7436230">
        <ele>377.9400000</ele>
        <time>2010-08-14T14:24:24Z</time>
      </trkpt>
      <trkpt lat="51.3021620" lon="7.7435080">
        <ele>377.9400000</ele>
        <time>2010-08-14T14:24:25Z</time>
      </trkpt>
      <trkpt lat="51.3020960" lon="7.7433780">
        <ele>378.4200000</ele>
        <time>2010-08-14T14:24:26Z</time>
      </trkpt>
      <trkpt lat="51.3017100" lon="7.7426230">
        <ele>379.8600000</ele>
        <time>2010-08-14T14:24:32Z</time>
      </trkpt>
      <trkpt lat="51.3016760" lon="7.7425100">
        <ele>379.3800000</ele>
        <time>2010-08-14T14:24:33Z</time>
      </trkpt>
      <trkpt lat="51.3015140" lon="7.7418180">
        <ele>379.3800000</ele>
        <time>2010-08-14T14:24:40Z</time>
      </trkpt>
      <trkpt lat="51.3014880" lon="7.7417500">
        <ele>378.9000000</ele>
        <time>2010-08-14T14:24:41Z</time>
      </trkpt>
      <trkpt lat="51.3014640" lon="7.7416910">
        <ele>378.9000000</ele>
        <time>2010-08-14T14:24:42Z</time>
      </trkpt>
      <trkpt lat="51.3014290" lon="7.7416020">
        <ele>378.9000000</ele>
        <time>2010-08-14T14:24:44Z</time>
      </trkpt>
      <trkpt lat="51.3013110" lon="7.7415680">
        <ele>378.4200000</ele>
        <time>2010-08-14T14:24:48Z</time>
      </trkpt>
      <trkpt lat="51.3011950" lon="7.7415780">
        <ele>378.4200000</ele>
        <time>2010-08-14T14:24:51Z</time>
      </trkpt>
      <trkpt lat="51.3005500" lon="7.7418960">
        <ele>379.3800000</ele>
        <time>2010-08-14T14:24:59Z</time>
      </trkpt>
      <trkpt lat="51.3004610" lon="7.7419510">
        <ele>379.3800000</ele>
        <time>2010-08-14T14:25:00Z</time>
      </trkpt>
      <trkpt lat="51.3000630" lon="7.7427210">
        <ele>380.8200000</ele>
        <time>2010-08-14T14:25:08Z</time>
      </trkpt>
      <trkpt lat="51.3001790" lon="7.7431440">
        <ele>381.7800000</ele>
        <time>2010-08-14T14:25:12Z</time>
      </trkpt>
      <trkpt lat="51.3003320" lon="7.7435020">
        <ele>390.4300000</ele>
        <time>2010-08-14T14:25:21Z</time>
      </trkpt>
      <trkpt lat="51.3003700" lon="7.7434390">
        <ele>388.0300000</ele>
        <time>2010-08-14T14:25:27Z</time>
      </trkpt>
      <trkpt lat="51.3003050" lon="7.7432740">
        <ele>383.7000000</ele>
        <time>2010-08-14T14:25:39Z</time>
      </trkpt>
      <trkpt lat="51.3003120" lon="7.7432720">
        <ele>371.6900000</ele>
        <time>2010-08-14T14:27:17Z</time>
      </trkpt>
      <trkpt lat="51.3003370" lon="7.7433320">
        <ele>385.6300000</ele>
        <time>2010-08-14T14:44:25Z</time>
      </trkpt>
      <trkpt lat="51.3003200" lon="7.7432860">
        <ele>378.9000000</ele>
        <time>2010-08-14T14:46:38Z</time>
      </trkpt>
    </trkseg>
  </trk>

  <trk>
    <name>ACTIVE LOG: 14 AUG 2010 16:47</name>
    <extensions>
      <gpxx:TrackExtension xmlns:gpxx="http://www.garmin.com/xmlschemas/GpxExtensions/v3">
        <gpxx:DisplayColor>White</gpxx:DisplayColor>
      </gpxx:TrackExtension>
    </extensions>
    <trkseg>
      <trkpt lat="51.3003030" lon="7.7432690">
        <ele>376.0100000</ele>
        <time>2010-08-14T14:47:27Z</time>
      </trkpt>
      <trkpt lat="51.3004040" lon="7.7432260">
        <ele>387.5500000</ele>
        <time>2010-08-14T14:48:13Z</time>
      </trkpt>
      <trkpt lat="51.3003740" lon="7.7432730">
        <ele>382.2600000</ele>
        <time>2010-08-14T14:49:01Z</time>
      </trkpt>
      <trkpt lat="51.3003230" lon="7.7432660">
        <ele>386.1100000</ele>
        <time>2010-08-14T14:51:08Z</time>
      </trkpt>
      <trkpt lat="51.3004050" lon="7.7432860">
        <ele>388.0300000</ele>
        <time>2010-08-14T14:51:35Z</time>
      </trkpt>
      <trkpt lat="51.3003980" lon="7.7432850">
        <ele>388.5100000</ele>
        <time>2010-08-14T14:52:05Z</time>
      </trkpt>
      <trkpt lat="51.3003630" lon="7.7432700">
        <ele>387.5500000</ele>
        <time>2010-08-14T14:52:38Z</time>
      </trkpt>
      <trkpt lat="51.3003130" lon="7.7432600">
        <ele>382.7400000</ele>
        <time>2010-08-14T14:53:53Z</time>
      </trkpt>
      <trkpt lat="51.3002910" lon="7.7432640">
        <ele>380.8200000</ele>
        <time>2010-08-14T14:56:49Z</time>
      </trkpt>
      <trkpt lat="51.3003320" lon="7.7432620">
        <ele>385.1500000</ele>
        <time>2010-08-14T14:57:44Z</time>
      </trkpt>
      <trkpt lat="51.3002600" lon="7.7432080">
        <ele>386.1100000</ele>
        <time>2010-08-14T14:58:03Z</time>
      </trkpt>
      <trkpt lat="51.3002920" lon="7.7432380">
        <ele>385.6300000</ele>
        <time>2010-08-14T14:58:25Z</time>
      </trkpt>
      <trkpt lat="51.3001730" lon="7.7430040">
        <ele>384.6600000</ele>
        <time>2010-08-14T14:58:37Z</time>
      </trkpt>
      <trkpt lat="51.3000500" lon="7.7424160">
        <ele>385.6300000</ele>
        <time>2010-08-14T14:58:43Z</time>
      </trkpt>
      <trkpt lat="51.3002590" lon="7.7420820">
        <ele>385.1500000</ele>
        <time>2010-08-14T14:58:47Z</time>
      </trkpt>
      <trkpt lat="51.3003270" lon="7.7420080">
        <ele>384.6600000</ele>
        <time>2010-08-14T14:58:48Z</time>
      </trkpt>
      <trkpt lat="51.3004130" lon="7.7419410">
        <ele>384.1800000</ele>
        <time>2010-08-14T14:58:49Z</time>
      </trkpt>
      <trkpt lat="51.3005210" lon="7.7418710">
        <ele>383.7000000</ele>
        <time>2010-08-14T14:58:50Z</time>
      </trkpt>
      <trkpt lat="51.3006510" lon="7.7418100">
        <ele>383.7000000</ele>
        <time>2010-08-14T14:58:51Z</time>
      </trkpt>
      <trkpt lat="51.3010620" lon="7.7416110">
        <ele>383.2200000</ele>
        <time>2010-08-14T14:58:55Z</time>
      </trkpt>
      <trkpt lat="51.3014400" lon="7.7416800">
        <ele>381.7800000</ele>
        <time>2010-08-14T14:59:00Z</time>
      </trkpt>
      <trkpt lat="51.3014930" lon="7.7417570">
        <ele>381.3000000</ele>
        <time>2010-08-14T14:59:01Z</time>
      </trkpt>
      <trkpt lat="51.3015320" lon="7.7418410">
        <ele>381.3000000</ele>
        <time>2010-08-14T14:59:02Z</time>
      </trkpt>
      <trkpt lat="51.3015640" lon="7.7419350">
        <ele>381.3000000</ele>
        <time>2010-08-14T14:59:03Z</time>
      </trkpt>
      <trkpt lat="51.3015950" lon="7.7420510">
        <ele>381.3000000</ele>
        <time>2010-08-14T14:59:04Z</time>
      </trkpt>
      <trkpt lat="51.3016700" lon="7.7424520">
        <ele>381.3000000</ele>
        <time>2010-08-14T14:59:07Z</time>
      </trkpt>
      <trkpt lat="51.3017160" lon="7.7425750">
        <ele>381.3000000</ele>
        <time>2010-08-14T14:59:08Z</time>
      </trkpt>
      <trkpt lat="51.3017850" lon="7.7427150">
        <ele>381.3000000</ele>
        <time>2010-08-14T14:59:09Z</time>
      </trkpt>
      <trkpt lat="51.3019920" lon="7.7432280">
        <ele>379.8600000</ele>
        <time>2010-08-14T14:59:13Z</time>
      </trkpt>
      <trkpt lat="51.3020280" lon="7.7433490">
        <ele>378.4200000</ele>
        <time>2010-08-14T14:59:14Z</time>
      </trkpt>
      <trkpt lat="51.3020730" lon="7.7434680">
        <ele>377.4500000</ele>
        <time>2010-08-14T14:59:15Z</time>
      </trkpt>
      <trkpt lat="51.3021250" lon="7.7435850">
        <ele>376.4900000</ele>
        <time>2010-08-14T14:59:16Z</time>
      </trkpt>
      <trkpt lat="51.3021950" lon="7.7436800">
        <ele>376.0100000</ele>
        <time>2010-08-14T14:59:17Z</time>
      </trkpt>
      <trkpt lat="51.3022650" lon="7.7437590">
        <ele>375.5300000</ele>
        <time>2010-08-14T14:59:18Z</time>
      </trkpt>
      <trkpt lat="51.3023310" lon="7.7438150">
        <ele>375.5300000</ele>
        <time>2010-08-14T14:59:19Z</time>
      </trkpt>
      <trkpt lat="51.3023970" lon="7.7438400">
        <ele>375.5300000</ele>
        <time>2010-08-14T14:59:20Z</time>
      </trkpt>
      <trkpt lat="51.3024690" lon="7.7438450">
        <ele>376.9700000</ele>
        <time>2010-08-14T14:59:21Z</time>
      </trkpt>
      <trkpt lat="51.3025110" lon="7.7438500">
        <ele>376.9700000</ele>
        <time>2010-08-14T14:59:22Z</time>
      </trkpt>
      <trkpt lat="51.3025270" lon="7.7438480">
        <ele>376.4900000</ele>
        <time>2010-08-14T14:59:23Z</time>
      </trkpt>
      <trkpt lat="51.3025250" lon="7.7438170">
        <ele>375.5300000</ele>
        <time>2010-08-14T14:59:25Z</time>
      </trkpt>
      <trkpt lat="51.3025230" lon="7.7437620">
        <ele>374.5700000</ele>
        <time>2010-08-14T14:59:26Z</time>
      </trkpt>
      <trkpt lat="51.3025210" lon="7.7436670">
        <ele>373.6100000</ele>
        <time>2010-08-14T14:59:27Z</time>
      </trkpt>
      <trkpt lat="51.3025050" lon="7.7435340">
        <ele>372.6500000</ele>
        <time>2010-08-14T14:59:28Z</time>
      </trkpt>
      <trkpt lat="51.3024730" lon="7.7433850">
        <ele>371.2100000</ele>
        <time>2010-08-14T14:59:29Z</time>
      </trkpt>
      <trkpt lat="51.3024790" lon="7.7432430">
        <ele>370.7300000</ele>
        <time>2010-08-14T14:59:30Z</time>
      </trkpt>
      <trkpt lat="51.3025020" lon="7.7431060">
        <ele>370.2400000</ele>
        <time>2010-08-14T14:59:31Z</time>
      </trkpt>
      <trkpt lat="51.3025670" lon="7.7429780">
        <ele>369.7600000</ele>
        <time>2010-08-14T14:59:32Z</time>
      </trkpt>
      <trkpt lat="51.3026030" lon="7.7428390">
        <ele>369.2800000</ele>
        <time>2010-08-14T14:59:33Z</time>
      </trkpt>
      <trkpt lat="51.3027740" lon="7.7415780">
        <ele>361.5900000</ele>
        <time>2010-08-14T14:59:42Z</time>
      </trkpt>
      <trkpt lat="51.3027430" lon="7.7410950">
        <ele>358.7100000</ele>
        <time>2010-08-14T14:59:45Z</time>
      </trkpt>
      <trkpt lat="51.3027280" lon="7.7409420">
        <ele>357.7500000</ele>
        <time>2010-08-14T14:59:46Z</time>
      </trkpt>
      <trkpt lat="51.3026280" lon="7.7393110">
        <ele>341.8900000</ele>
        <time>2010-08-14T14:59:56Z</time>
      </trkpt>
      <trkpt lat="51.3023580" lon="7.7380600">
        <ele>329.8700000</ele>
        <time>2010-08-14T15:00:04Z</time>
      </trkpt>
      <trkpt lat="51.3021920" lon="7.7374360">
        <ele>322.6600000</ele>
        <time>2010-08-14T15:00:09Z</time>
      </trkpt>
      <trkpt lat="51.3020830" lon="7.7371930">
        <ele>318.8100000</ele>
        <time>2010-08-14T15:00:12Z</time>
      </trkpt>
      <trkpt lat="51.3018990" lon="7.7367430">
        <ele>317.3700000</ele>
        <time>2010-08-14T15:00:16Z</time>
      </trkpt>
      <trkpt lat="51.3018880" lon="7.7366360">
        <ele>315.4500000</ele>
        <time>2010-08-14T15:00:17Z</time>
      </trkpt>
      <trkpt lat="51.3017850" lon="7.7358930">
        <ele>313.0500000</ele>
        <time>2010-08-14T15:00:26Z</time>
      </trkpt>
      <trkpt lat="51.3017850" lon="7.7358070">
        <ele>313.5300000</ele>
        <time>2010-08-14T15:00:27Z</time>
      </trkpt>
      <trkpt lat="51.3018080" lon="7.7355520">
        <ele>312.0900000</ele>
        <time>2010-08-14T15:00:29Z</time>
      </trkpt>
      <trkpt lat="51.3018020" lon="7.7354010">
        <ele>311.6000000</ele>
        <time>2010-08-14T15:00:30Z</time>
      </trkpt>
      <trkpt lat="51.3018190" lon="7.7349350">
        <ele>308.7200000</ele>
        <time>2010-08-14T15:00:33Z</time>
      </trkpt>
      <trkpt lat="51.3018690" lon="7.7347990">
        <ele>307.7600000</ele>
        <time>2010-08-14T15:00:34Z</time>
      </trkpt>
      <trkpt lat="51.3019030" lon="7.7344910">
        <ele>305.8400000</ele>
        <time>2010-08-14T15:00:36Z</time>
      </trkpt>
      <trkpt lat="51.3019100" lon="7.7343370">
        <ele>304.8800000</ele>
        <time>2010-08-14T15:00:37Z</time>
      </trkpt>
      <trkpt lat="51.3018520" lon="7.7341600">
        <ele>304.3900000</ele>
        <time>2010-08-14T15:00:38Z</time>
      </trkpt>
      <trkpt lat="51.3018350" lon="7.7335740">
        <ele>301.0300000</ele>
        <time>2010-08-14T15:00:42Z</time>
      </trkpt>
      <trkpt lat="51.3018460" lon="7.7334290">
        <ele>299.5900000</ele>
        <time>2010-08-14T15:00:43Z</time>
      </trkpt>
      <trkpt lat="51.3023190" lon="7.7318050">
        <ele>296.2200000</ele>
        <time>2010-08-14T15:00:53Z</time>
      </trkpt>
      <trkpt lat="51.3022820" lon="7.7316140">
        <ele>295.7400000</ele>
        <time>2010-08-14T15:00:54Z</time>
      </trkpt>
      <trkpt lat="51.3023490" lon="7.7298310">
        <ele>290.9400000</ele>
        <time>2010-08-14T15:01:05Z</time>
      </trkpt>
      <trkpt lat="51.3025300" lon="7.7282590">
        <ele>284.2100000</ele>
        <time>2010-08-14T15:01:14Z</time>
      </trkpt>
      <trkpt lat="51.3024500" lon="7.7272550">
        <ele>278.9200000</ele>
        <time>2010-08-14T15:01:21Z</time>
      </trkpt>
      <trkpt lat="51.3024550" lon="7.7271690">
        <ele>278.4400000</ele>
        <time>2010-08-14T15:01:22Z</time>
      </trkpt>
      <trkpt lat="51.3024700" lon="7.7270890">
        <ele>277.9600000</ele>
        <time>2010-08-14T15:01:23Z</time>
      </trkpt>
      <trkpt lat="51.3025300" lon="7.7267710">
        <ele>275.5600000</ele>
        <time>2010-08-14T15:01:27Z</time>
      </trkpt>
      <trkpt lat="51.3025270" lon="7.7266760">
        <ele>275.5600000</ele>
        <time>2010-08-14T15:01:28Z</time>
      </trkpt>
      <trkpt lat="51.3025060" lon="7.7263130">
        <ele>275.0700000</ele>
        <time>2010-08-14T15:01:31Z</time>
      </trkpt>
      <trkpt lat="51.3024500" lon="7.7261740">
        <ele>275.5600000</ele>
        <time>2010-08-14T15:01:32Z</time>
      </trkpt>
      <trkpt lat="51.3023360" lon="7.7260230">
        <ele>278.4400000</ele>
        <time>2010-08-14T15:01:33Z</time>
      </trkpt>
      <trkpt lat="51.3022990" lon="7.7259340">
        <ele>280.3600000</ele>
        <time>2010-08-14T15:01:34Z</time>
      </trkpt>
      <trkpt lat="51.3023050" lon="7.7258330">
        <ele>282.7700000</ele>
        <time>2010-08-14T15:01:35Z</time>
      </trkpt>
      <trkpt lat="51.3022780" lon="7.7257960">
        <ele>286.6100000</ele>
        <time>2010-08-14T15:01:36Z</time>
      </trkpt>
      <trkpt lat="51.3022790" lon="7.7257940">
        <ele>288.0500000</ele>
        <time>2010-08-14T15:01:37Z</time>
      </trkpt>
      <trkpt lat="51.3022300" lon="7.7257260">
        <ele>289.4900000</ele>
        <time>2010-08-14T15:01:38Z</time>
      </trkpt>
      <trkpt lat="51.3021350" lon="7.7256550">
        <ele>290.9400000</ele>
        <time>2010-08-14T15:01:39Z</time>
      </trkpt>
      <trkpt lat="51.3019360" lon="7.7254680">
        <ele>292.8600000</ele>
        <time>2010-08-14T15:01:41Z</time>
      </trkpt>
      <trkpt lat="51.3018390" lon="7.7253440">
        <ele>290.9400000</ele>
        <time>2010-08-14T15:01:42Z</time>
      </trkpt>
      <trkpt lat="51.3017370" lon="7.7252150">
        <ele>289.9700000</ele>
        <time>2010-08-14T15:01:43Z</time>
      </trkpt>
      <trkpt lat="51.3009090" lon="7.7238670">
        <ele>280.3600000</ele>
        <time>2010-08-14T15:01:52Z</time>
      </trkpt>
      <trkpt lat="51.2997650" lon="7.7228960">
        <ele>271.2300000</ele>
        <time>2010-08-14T15:02:02Z</time>
      </trkpt>
      <trkpt lat="51.2995440" lon="7.7226900">
        <ele>270.2700000</ele>
        <time>2010-08-14T15:02:04Z</time>
      </trkpt>
      <trkpt lat="51.2994370" lon="7.7225460">
        <ele>269.7900000</ele>
        <time>2010-08-14T15:02:05Z</time>
      </trkpt>
      <trkpt lat="51.2993400" lon="7.7223600">
        <ele>269.3100000</ele>
        <time>2010-08-14T15:02:06Z</time>
      </trkpt>
      <trkpt lat="51.2992470" lon="7.7221280">
        <ele>269.3100000</ele>
        <time>2010-08-14T15:02:07Z</time>
      </trkpt>
      <trkpt lat="51.2991990" lon="7.7219050">
        <ele>268.8300000</ele>
        <time>2010-08-14T15:02:08Z</time>
      </trkpt>
      <trkpt lat="51.2991510" lon="7.7216880">
        <ele>268.3500000</ele>
        <time>2010-08-14T15:02:09Z</time>
      </trkpt>
      <trkpt lat="51.2988960" lon="7.7197600">
        <ele>265.4600000</ele>
        <time>2010-08-14T15:02:18Z</time>
      </trkpt>
      <trkpt lat="51.2990570" lon="7.7179910">
        <ele>261.6200000</ele>
        <time>2010-08-14T15:02:26Z</time>
      </trkpt>
      <trkpt lat="51.2991380" lon="7.7177970">
        <ele>260.1700000</ele>
        <time>2010-08-14T15:02:27Z</time>
      </trkpt>
      <trkpt lat="51.2992140" lon="7.7176010">
        <ele>258.7300000</ele>
        <time>2010-08-14T15:02:28Z</time>
      </trkpt>
      <trkpt lat="51.2992650" lon="7.7173930">
        <ele>257.2900000</ele>
        <time>2010-08-14T15:02:29Z</time>
      </trkpt>
      <trkpt lat="51.2992840" lon="7.7171710">
        <ele>256.3300000</ele>
        <time>2010-08-14T15:02:30Z</time>
      </trkpt>
      <trkpt lat="51.2992880" lon="7.7169430">
        <ele>255.3700000</ele>
        <time>2010-08-14T15:02:31Z</time>
      </trkpt>
      <trkpt lat="51.2993120" lon="7.7167260">
        <ele>254.4100000</ele>
        <time>2010-08-14T15:02:32Z</time>
      </trkpt>
      <trkpt lat="51.2993660" lon="7.7148690">
        <ele>252.0000000</ele>
        <time>2010-08-14T15:02:41Z</time>
      </trkpt>
      <trkpt lat="51.2991570" lon="7.7125130">
        <ele>255.3700000</ele>
        <time>2010-08-14T15:02:51Z</time>
      </trkpt>
      <trkpt lat="51.2989340" lon="7.7112320">
        <ele>253.4400000</ele>
        <time>2010-08-14T15:02:57Z</time>
      </trkpt>
      <trkpt lat="51.2989340" lon="7.7110140">
        <ele>252.0000000</ele>
        <time>2010-08-14T15:02:58Z</time>
      </trkpt>
      <trkpt lat="51.2990430" lon="7.7104210">
        <ele>249.1200000</ele>
        <time>2010-08-14T15:03:01Z</time>
      </trkpt>
      <trkpt lat="51.2991340" lon="7.7102500">
        <ele>248.1600000</ele>
        <time>2010-08-14T15:03:02Z</time>
      </trkpt>
      <trkpt lat="51.2992480" lon="7.7100960">
        <ele>247.2000000</ele>
        <time>2010-08-14T15:03:03Z</time>
      </trkpt>
      <trkpt lat="51.2993540" lon="7.7099430">
        <ele>246.7200000</ele>
        <time>2010-08-14T15:03:04Z</time>
      </trkpt>
      <trkpt lat="51.2994890" lon="7.7098030">
        <ele>246.2300000</ele>
        <time>2010-08-14T15:03:05Z</time>
      </trkpt>
      <trkpt lat="51.2996150" lon="7.7096570">
        <ele>246.2300000</ele>
        <time>2010-08-14T15:03:06Z</time>
      </trkpt>
      <trkpt lat="51.3003740" lon="7.7080420">
        <ele>241.4300000</ele>
        <time>2010-08-14T15:03:15Z</time>
      </trkpt>
      <trkpt lat="51.3004110" lon="7.7078260">
        <ele>240.4700000</ele>
        <time>2010-08-14T15:03:16Z</time>
      </trkpt>
      <trkpt lat="51.3004340" lon="7.7075980">
        <ele>239.9900000</ele>
        <time>2010-08-14T15:03:17Z</time>
      </trkpt>
      <trkpt lat="51.3004510" lon="7.7073640">
        <ele>239.0200000</ele>
        <time>2010-08-14T15:03:18Z</time>
      </trkpt>
      <trkpt lat="51.3004600" lon="7.7071130">
        <ele>238.5400000</ele>
        <time>2010-08-14T15:03:19Z</time>
      </trkpt>
      <trkpt lat="51.3007510" lon="7.7051940">
        <ele>231.8100000</ele>
        <time>2010-08-14T15:03:28Z</time>
      </trkpt>
      <trkpt lat="51.3007620" lon="7.7049840">
        <ele>230.8500000</ele>
        <time>2010-08-14T15:03:29Z</time>
      </trkpt>
      <trkpt lat="51.3007570" lon="7.7047700">
        <ele>230.8500000</ele>
        <time>2010-08-14T15:03:30Z</time>
      </trkpt>
      <trkpt lat="51.3007430" lon="7.7045480">
        <ele>229.8900000</ele>
        <time>2010-08-14T15:03:31Z</time>
      </trkpt>
      <trkpt lat="51.3007130" lon="7.7043150">
        <ele>229.8900000</ele>
        <time>2010-08-14T15:03:32Z</time>
      </trkpt>
      <trkpt lat="51.3006810" lon="7.7040800">
        <ele>229.4100000</ele>
        <time>2010-08-14T15:03:33Z</time>
      </trkpt>
      <trkpt lat="51.3005020" lon="7.7017680">
        <ele>225.5700000</ele>
        <time>2010-08-14T15:03:43Z</time>
      </trkpt>
      <trkpt lat="51.3004540" lon="7.7015520">
        <ele>225.0900000</ele>
        <time>2010-08-14T15:03:44Z</time>
      </trkpt>
      <trkpt lat="51.3002220" lon="7.6994640">
        <ele>220.2800000</ele>
        <time>2010-08-14T15:03:54Z</time>
      </trkpt>
      <trkpt lat="51.3001830" lon="7.6990500">
        <ele>220.2800000</ele>
        <time>2010-08-14T15:03:56Z</time>
      </trkpt>
      <trkpt lat="51.3002120" lon="7.6988490">
        <ele>219.8000000</ele>
        <time>2010-08-14T15:03:57Z</time>
      </trkpt>
      <trkpt lat="51.3002390" lon="7.6986440">
        <ele>219.8000000</ele>
        <time>2010-08-14T15:03:58Z</time>
      </trkpt>
      <trkpt lat="51.3005880" lon="7.6962220">
        <ele>215.4700000</ele>
        <time>2010-08-14T15:04:10Z</time>
      </trkpt>
      <trkpt lat="51.3007340" lon="7.6933840">
        <ele>210.6700000</ele>
        <time>2010-08-14T15:04:24Z</time>
      </trkpt>
      <trkpt lat="51.3005830" lon="7.6910990">
        <ele>205.3800000</ele>
        <time>2010-08-14T15:04:35Z</time>
      </trkpt>
      <trkpt lat="51.3002670" lon="7.6890410">
        <ele>201.5300000</ele>
        <time>2010-08-14T15:04:46Z</time>
      </trkpt>
      <trkpt lat="51.2998040" lon="7.6882620">
        <ele>207.7800000</ele>
        <time>2010-08-14T15:04:51Z</time>
      </trkpt>
      <trkpt lat="51.2996890" lon="7.6881480">
        <ele>208.7400000</ele>
        <time>2010-08-14T15:04:52Z</time>
      </trkpt>
      <trkpt lat="51.2995560" lon="7.6880420">
        <ele>209.2200000</ele>
        <time>2010-08-14T15:04:53Z</time>
      </trkpt>
      <trkpt lat="51.2994160" lon="7.6879470">
        <ele>209.7000000</ele>
        <time>2010-08-14T15:04:54Z</time>
      </trkpt>
      <trkpt lat="51.2992670" lon="7.6878790">
        <ele>209.2200000</ele>
        <time>2010-08-14T15:04:55Z</time>
      </trkpt>
      <trkpt lat="51.2981630" lon="7.6867780">
        <ele>203.4600000</ele>
        <time>2010-08-14T15:05:05Z</time>
      </trkpt>
      <trkpt lat="51.2971670" lon="7.6859100">
        <ele>199.6100000</ele>
        <time>2010-08-14T15:05:14Z</time>
      </trkpt>
      <trkpt lat="51.2966460" lon="7.6854370">
        <ele>199.6100000</ele>
        <time>2010-08-14T15:05:19Z</time>
      </trkpt>
      <trkpt lat="51.2965670" lon="7.6852990">
        <ele>199.6100000</ele>
        <time>2010-08-14T15:05:20Z</time>
      </trkpt>
      <trkpt lat="51.2964930" lon="7.6851380">
        <ele>199.1300000</ele>
        <time>2010-08-14T15:05:21Z</time>
      </trkpt>
      <trkpt lat="51.2960330" lon="7.6836370">
        <ele>203.4600000</ele>
        <time>2010-08-14T15:05:29Z</time>
      </trkpt>
      <trkpt lat="51.2960020" lon="7.6834540">
        <ele>202.9800000</ele>
        <time>2010-08-14T15:05:30Z</time>
      </trkpt>
      <trkpt lat="51.2959660" lon="7.6832590">
        <ele>203.4600000</ele>
        <time>2010-08-14T15:05:31Z</time>
      </trkpt>
      <trkpt lat="51.2958750" lon="7.6816660">
        <ele>201.5300000</ele>
        <time>2010-08-14T15:05:39Z</time>
      </trkpt>
      <trkpt lat="51.2959370" lon="7.6809600">
        <ele>197.6900000</ele>
        <time>2010-08-14T15:05:43Z</time>
      </trkpt>
      <trkpt lat="51.2959680" lon="7.6807840">
        <ele>196.7300000</ele>
        <time>2010-08-14T15:05:44Z</time>
      </trkpt>
      <trkpt lat="51.2960070" lon="7.6806050">
        <ele>195.7700000</ele>
        <time>2010-08-14T15:05:45Z</time>
      </trkpt>
      <trkpt lat="51.2965280" lon="7.6784570">
        <ele>188.0800000</ele>
        <time>2010-08-14T15:05:57Z</time>
      </trkpt>
      <trkpt lat="51.2965840" lon="7.6783120">
        <ele>187.5900000</ele>
        <time>2010-08-14T15:05:58Z</time>
      </trkpt>
      <trkpt lat="51.2966500" lon="7.6781920">
        <ele>187.1100000</ele>
        <time>2010-08-14T15:05:59Z</time>
      </trkpt>
      <trkpt lat="51.2967170" lon="7.6780990">
        <ele>186.6300000</ele>
        <time>2010-08-14T15:06:00Z</time>
      </trkpt>
      <trkpt lat="51.2968070" lon="7.6780460">
        <ele>185.6700000</ele>
        <time>2010-08-14T15:06:01Z</time>
      </trkpt>
      <trkpt lat="51.2969110" lon="7.6780190">
        <ele>184.7100000</ele>
        <time>2010-08-14T15:06:02Z</time>
      </trkpt>
      <trkpt lat="51.2970460" lon="7.6780640">
        <ele>183.7500000</ele>
        <time>2010-08-14T15:06:03Z</time>
      </trkpt>
      <trkpt lat="51.2972250" lon="7.6781350">
        <ele>182.3100000</ele>
        <time>2010-08-14T15:06:04Z</time>
      </trkpt>
      <trkpt lat="51.2973910" lon="7.6782020">
        <ele>180.8700000</ele>
        <time>2010-08-14T15:06:05Z</time>
      </trkpt>
      <trkpt lat="51.2974330" lon="7.6781430">
        <ele>180.3800000</ele>
        <time>2010-08-14T15:06:07Z</time>
      </trkpt>
      <trkpt lat="51.2974910" lon="7.6780440">
        <ele>181.3500000</ele>
        <time>2010-08-14T15:06:08Z</time>
      </trkpt>
      <trkpt lat="51.2974760" lon="7.6779020">
        <ele>182.7900000</ele>
        <time>2010-08-14T15:06:09Z</time>
      </trkpt>
      <trkpt lat="51.2975190" lon="7.6777720">
        <ele>184.2300000</ele>
        <time>2010-08-14T15:06:10Z</time>
      </trkpt>
      <trkpt lat="51.2975770" lon="7.6776270">
        <ele>184.7100000</ele>
        <time>2010-08-14T15:06:11Z</time>
      </trkpt>
      <trkpt lat="51.2976600" lon="7.6774950">
        <ele>184.7100000</ele>
        <time>2010-08-14T15:06:12Z</time>
      </trkpt>
      <trkpt lat="51.2978490" lon="7.6772730">
        <ele>184.2300000</ele>
        <time>2010-08-14T15:06:14Z</time>
      </trkpt>
      <trkpt lat="51.2978880" lon="7.6771730">
        <ele>183.7500000</ele>
        <time>2010-08-14T15:06:15Z</time>
      </trkpt>
      <trkpt lat="51.2979350" lon="7.6771040">
        <ele>184.7100000</ele>
        <time>2010-08-14T15:06:16Z</time>
      </trkpt>
      <trkpt lat="51.2980030" lon="7.6770440">
        <ele>184.7100000</ele>
        <time>2010-08-14T15:06:17Z</time>
      </trkpt>
      <trkpt lat="51.2980850" lon="7.6769930">
        <ele>184.7100000</ele>
        <time>2010-08-14T15:06:18Z</time>
      </trkpt>
      <trkpt lat="51.2981910" lon="7.6769620">
        <ele>185.1900000</ele>
        <time>2010-08-14T15:06:19Z</time>
      </trkpt>
      <trkpt lat="51.2983080" lon="7.6769470">
        <ele>185.1900000</ele>
        <time>2010-08-14T15:06:20Z</time>
      </trkpt>
      <trkpt lat="51.2984160" lon="7.6769400">
        <ele>185.1900000</ele>
        <time>2010-08-14T15:06:21Z</time>
      </trkpt>
      <trkpt lat="51.2985290" lon="7.6769300">
        <ele>185.1900000</ele>
        <time>2010-08-14T15:06:22Z</time>
      </trkpt>
      <trkpt lat="51.3000530" lon="7.6767890">
        <ele>184.7100000</ele>
        <time>2010-08-14T15:06:35Z</time>
      </trkpt>
      <trkpt lat="51.3007370" lon="7.6769760">
        <ele>182.7900000</ele>
        <time>2010-08-14T15:06:41Z</time>
      </trkpt>
      <trkpt lat="51.3008430" lon="7.6769400">
        <ele>183.7500000</ele>
        <time>2010-08-14T15:06:42Z</time>
      </trkpt>
      <trkpt lat="51.3009090" lon="7.6768810">
        <ele>190.4800000</ele>
        <time>2010-08-14T15:06:43Z</time>
      </trkpt>
      <trkpt lat="51.3010180" lon="7.6768220">
        <ele>190.0000000</ele>
        <time>2010-08-14T15:06:44Z</time>
      </trkpt>
      <trkpt lat="51.3011320" lon="7.6767670">
        <ele>188.0800000</ele>
        <time>2010-08-14T15:06:45Z</time>
      </trkpt>
      <trkpt lat="51.3014540" lon="7.6765880">
        <ele>182.3100000</ele>
        <time>2010-08-14T15:06:48Z</time>
      </trkpt>
      <trkpt lat="51.3015490" lon="7.6764970">
        <ele>181.3500000</ele>
        <time>2010-08-14T15:06:49Z</time>
      </trkpt>
      <trkpt lat="51.3016280" lon="7.6763890">
        <ele>179.9000000</ele>
        <time>2010-08-14T15:06:50Z</time>
      </trkpt>
      <trkpt lat="51.3017010" lon="7.6762680">
        <ele>178.9400000</ele>
        <time>2010-08-14T15:06:51Z</time>
      </trkpt>
      <trkpt lat="51.3017760" lon="7.6761360">
        <ele>177.9800000</ele>
        <time>2010-08-14T15:06:52Z</time>
      </trkpt>
      <trkpt lat="51.3018450" lon="7.6759950">
        <ele>177.0200000</ele>
        <time>2010-08-14T15:06:53Z</time>
      </trkpt>
      <trkpt lat="51.3018970" lon="7.6758420">
        <ele>176.5400000</ele>
        <time>2010-08-14T15:06:54Z</time>
      </trkpt>
      <trkpt lat="51.3019280" lon="7.6756870">
        <ele>176.5400000</ele>
        <time>2010-08-14T15:06:55Z</time>
      </trkpt>
      <trkpt lat="51.3019440" lon="7.6755280">
        <ele>176.0600000</ele>
        <time>2010-08-14T15:06:56Z</time>
      </trkpt>
      <trkpt lat="51.3019380" lon="7.6753590">
        <ele>176.0600000</ele>
        <time>2010-08-14T15:06:57Z</time>
      </trkpt>
      <trkpt lat="51.3019230" lon="7.6751800">
        <ele>175.5800000</ele>
        <time>2010-08-14T15:06:58Z</time>
      </trkpt>
      <trkpt lat="51.3019010" lon="7.6749990">
        <ele>175.1000000</ele>
        <time>2010-08-14T15:06:59Z</time>
      </trkpt>
      <trkpt lat="51.3018820" lon="7.6748220">
        <ele>175.1000000</ele>
        <time>2010-08-14T15:07:00Z</time>
      </trkpt>
      <trkpt lat="51.3018570" lon="7.6736510">
        <ele>170.2900000</ele>
        <time>2010-08-14T15:07:07Z</time>
      </trkpt>
      <trkpt lat="51.3018860" lon="7.6734910">
        <ele>169.8100000</ele>
        <time>2010-08-14T15:07:08Z</time>
      </trkpt>
      <trkpt lat="51.3019280" lon="7.6733370">
        <ele>168.8500000</ele>
        <time>2010-08-14T15:07:09Z</time>
      </trkpt>
      <trkpt lat="51.3019820" lon="7.6731850">
        <ele>168.3700000</ele>
        <time>2010-08-14T15:07:10Z</time>
      </trkpt>
      <trkpt lat="51.3020380" lon="7.6730270">
        <ele>168.8500000</ele>
        <time>2010-08-14T15:07:11Z</time>
      </trkpt>
      <trkpt lat="51.3020820" lon="7.6728590">
        <ele>168.8500000</ele>
        <time>2010-08-14T15:07:12Z</time>
      </trkpt>
      <trkpt lat="51.3021340" lon="7.6719340">
        <ele>170.2900000</ele>
        <time>2010-08-14T15:07:16Z</time>
      </trkpt>
      <trkpt lat="51.3020940" lon="7.6716890">
        <ele>171.2500000</ele>
        <time>2010-08-14T15:07:17Z</time>
      </trkpt>
      <trkpt lat="51.3020390" lon="7.6714640">
        <ele>172.2100000</ele>
        <time>2010-08-14T15:07:18Z</time>
      </trkpt>
      <trkpt lat="51.3019690" lon="7.6712600">
        <ele>172.2100000</ele>
        <time>2010-08-14T15:07:19Z</time>
      </trkpt>
      <trkpt lat="51.3018820" lon="7.6710780">
        <ele>172.6900000</ele>
        <time>2010-08-14T15:07:20Z</time>
      </trkpt>
      <trkpt lat="51.3017870" lon="7.6709230">
        <ele>173.1700000</ele>
        <time>2010-08-14T15:07:21Z</time>
      </trkpt>
      <trkpt lat="51.3016890" lon="7.6707810">
        <ele>172.6900000</ele>
        <time>2010-08-14T15:07:22Z</time>
      </trkpt>
      <trkpt lat="51.3011510" lon="7.6700070">
        <ele>170.7700000</ele>
        <time>2010-08-14T15:07:28Z</time>
      </trkpt>
      <trkpt lat="51.3010490" lon="7.6699120">
        <ele>170.2900000</ele>
        <time>2010-08-14T15:07:29Z</time>
      </trkpt>
      <trkpt lat="51.3009410" lon="7.6698470">
        <ele>169.3300000</ele>
        <time>2010-08-14T15:07:30Z</time>
      </trkpt>
      <trkpt lat="51.3008300" lon="7.6698230">
        <ele>168.3700000</ele>
        <time>2010-08-14T15:07:31Z</time>
      </trkpt>
      <trkpt lat="51.3007210" lon="7.6698430">
        <ele>167.4100000</ele>
        <time>2010-08-14T15:07:32Z</time>
      </trkpt>
      <trkpt lat="51.3006190" lon="7.6699040">
        <ele>166.4500000</ele>
        <time>2010-08-14T15:07:33Z</time>
      </trkpt>
      <trkpt lat="51.3005270" lon="7.6700000">
        <ele>165.4800000</ele>
        <time>2010-08-14T15:07:34Z</time>
      </trkpt>
      <trkpt lat="51.3004540" lon="7.6701300">
        <ele>165.0000000</ele>
        <time>2010-08-14T15:07:35Z</time>
      </trkpt>
      <trkpt lat="51.3004090" lon="7.6702850">
        <ele>164.0400000</ele>
        <time>2010-08-14T15:07:36Z</time>
      </trkpt>
      <trkpt lat="51.3003820" lon="7.6704470">
        <ele>163.5600000</ele>
        <time>2010-08-14T15:07:37Z</time>
      </trkpt>
      <trkpt lat="51.3003690" lon="7.6706000">
        <ele>162.6000000</ele>
        <time>2010-08-14T15:07:38Z</time>
      </trkpt>
      <trkpt lat="51.3003670" lon="7.6707290">
        <ele>161.6400000</ele>
        <time>2010-08-14T15:07:39Z</time>
      </trkpt>
      <trkpt lat="51.3003730" lon="7.6708280">
        <ele>161.1600000</ele>
        <time>2010-08-14T15:07:40Z</time>
      </trkpt>
      <trkpt lat="51.3003820" lon="7.6708960">
        <ele>160.6800000</ele>
        <time>2010-08-14T15:07:41Z</time>
      </trkpt>
      <trkpt lat="51.3004010" lon="7.6709720">
        <ele>161.6400000</ele>
        <time>2010-08-14T15:07:49Z</time>
      </trkpt>
      <trkpt lat="51.3004030" lon="7.6710700">
        <ele>163.0800000</ele>
        <time>2010-08-14T15:07:56Z</time>
      </trkpt>
      <trkpt lat="51.3003890" lon="7.6711570">
        <ele>162.6000000</ele>
        <time>2010-08-14T15:07:57Z</time>
      </trkpt>
      <trkpt lat="51.3003560" lon="7.6712640">
        <ele>162.6000000</ele>
        <time>2010-08-14T15:07:58Z</time>
      </trkpt>
      <trkpt lat="51.3002960" lon="7.6713780">
        <ele>163.0800000</ele>
        <time>2010-08-14T15:07:59Z</time>
      </trkpt>
      <trkpt lat="51.3002220" lon="7.6714920">
        <ele>164.0400000</ele>
        <time>2010-08-14T15:08:00Z</time>
      </trkpt>
      <trkpt lat="51.3000910" lon="7.6715640">
        <ele>164.0400000</ele>
        <time>2010-08-14T15:08:01Z</time>
      </trkpt>
      <trkpt lat="51.2999640" lon="7.6716370">
        <ele>164.0400000</ele>
        <time>2010-08-14T15:08:02Z</time>
      </trkpt>
      <trkpt lat="51.2994340" lon="7.6718650">
        <ele>164.0400000</ele>
        <time>2010-08-14T15:08:06Z</time>
      </trkpt>
      <trkpt lat="51.2992910" lon="7.6718810">
        <ele>164.0400000</ele>
        <time>2010-08-14T15:08:07Z</time>
      </trkpt>
      <trkpt lat="51.2980330" lon="7.6720330">
        <ele>171.2500000</ele>
        <time>2010-08-14T15:08:15Z</time>
      </trkpt>
      <trkpt lat="51.2969400" lon="7.6718920">
        <ele>174.1400000</ele>
        <time>2010-08-14T15:08:24Z</time>
      </trkpt>
      <trkpt lat="51.2959640" lon="7.6714430">
        <ele>175.5800000</ele>
        <time>2010-08-14T15:08:29Z</time>
      </trkpt>
      <trkpt lat="51.2946790" lon="7.6708420">
        <ele>177.9800000</ele>
        <time>2010-08-14T15:08:36Z</time>
      </trkpt>
      <trkpt lat="51.2940690" lon="7.6706170">
        <ele>179.4200000</ele>
        <time>2010-08-14T15:08:40Z</time>
      </trkpt>
      <trkpt lat="51.2939130" lon="7.6706060">
        <ele>179.4200000</ele>
        <time>2010-08-14T15:08:41Z</time>
      </trkpt>
      <trkpt lat="51.2928680" lon="7.6705360">
        <ele>180.8700000</ele>
        <time>2010-08-14T15:08:48Z</time>
      </trkpt>
      <trkpt lat="51.2918010" lon="7.6708510">
        <ele>181.8300000</ele>
        <time>2010-08-14T15:08:56Z</time>
      </trkpt>
      <trkpt lat="51.2908640" lon="7.6714670">
        <ele>185.1900000</ele>
        <time>2010-08-14T15:09:03Z</time>
      </trkpt>
      <trkpt lat="51.2907610" lon="7.6716430">
        <ele>185.6700000</ele>
        <time>2010-08-14T15:09:04Z</time>
      </trkpt>
      <trkpt lat="51.2898710" lon="7.6730570">
        <ele>182.7900000</ele>
        <time>2010-08-14T15:09:13Z</time>
      </trkpt>
      <trkpt lat="51.2892650" lon="7.6740940">
        <ele>179.9000000</ele>
        <time>2010-08-14T15:09:19Z</time>
      </trkpt>
      <trkpt lat="51.2891860" lon="7.6743190">
        <ele>179.4200000</ele>
        <time>2010-08-14T15:09:20Z</time>
      </trkpt>
      <trkpt lat="51.2884170" lon="7.6764710">
        <ele>173.1700000</ele>
        <time>2010-08-14T15:09:30Z</time>
      </trkpt>
      <trkpt lat="51.2877570" lon="7.6779860">
        <ele>172.2100000</ele>
        <time>2010-08-14T15:09:39Z</time>
      </trkpt>
      <trkpt lat="51.2876500" lon="7.6780090">
        <ele>171.2500000</ele>
        <time>2010-08-14T15:09:40Z</time>
      </trkpt>
      <trkpt lat="51.2875580" lon="7.6779430">
        <ele>170.2900000</ele>
        <time>2010-08-14T15:09:41Z</time>
      </trkpt>
      <trkpt lat="51.2874670" lon="7.6778700">
        <ele>169.8100000</ele>
        <time>2010-08-14T15:09:42Z</time>
      </trkpt>
      <trkpt lat="51.2873800" lon="7.6777530">
        <ele>169.3300000</ele>
        <time>2010-08-14T15:09:43Z</time>
      </trkpt>
      <trkpt lat="51.2872950" lon="7.6776130">
        <ele>168.8500000</ele>
        <time>2010-08-14T15:09:44Z</time>
      </trkpt>
      <trkpt lat="51.2872140" lon="7.6774540">
        <ele>168.3700000</ele>
        <time>2010-08-14T15:09:45Z</time>
      </trkpt>
      <trkpt lat="51.2871400" lon="7.6773010">
        <ele>168.3700000</ele>
        <time>2010-08-14T15:09:46Z</time>
      </trkpt>
      <trkpt lat="51.2870630" lon="7.6771280">
        <ele>168.3700000</ele>
        <time>2010-08-14T15:09:47Z</time>
      </trkpt>
      <trkpt lat="51.2865540" lon="7.6753250">
        <ele>166.4500000</ele>
        <time>2010-08-14T15:09:57Z</time>
      </trkpt>
      <trkpt lat="51.2860260" lon="7.6730200">
        <ele>174.6200000</ele>
        <time>2010-08-14T15:10:09Z</time>
      </trkpt>
      <trkpt lat="51.2859620" lon="7.6728470">
        <ele>175.1000000</ele>
        <time>2010-08-14T15:10:10Z</time>
      </trkpt>
      <trkpt lat="51.2858900" lon="7.6726930">
        <ele>176.5400000</ele>
        <time>2010-08-14T15:10:11Z</time>
      </trkpt>
      <trkpt lat="51.2858100" lon="7.6725590">
        <ele>177.5000000</ele>
        <time>2010-08-14T15:10:12Z</time>
      </trkpt>
      <trkpt lat="51.2857170" lon="7.6724460">
        <ele>177.9800000</ele>
        <time>2010-08-14T15:10:13Z</time>
      </trkpt>
      <trkpt lat="51.2856080" lon="7.6723570">
        <ele>177.9800000</ele>
        <time>2010-08-14T15:10:14Z</time>
      </trkpt>
      <trkpt lat="51.2854920" lon="7.6723250">
        <ele>177.5000000</ele>
        <time>2010-08-14T15:10:15Z</time>
      </trkpt>
      <trkpt lat="51.2853790" lon="7.6722680">
        <ele>177.0200000</ele>
        <time>2010-08-14T15:10:16Z</time>
      </trkpt>
      <trkpt lat="51.2848020" lon="7.6719470">
        <ele>176.5400000</ele>
        <time>2010-08-14T15:10:21Z</time>
      </trkpt>
      <trkpt lat="51.2846820" lon="7.6719270">
        <ele>176.5400000</ele>
        <time>2010-08-14T15:10:22Z</time>
      </trkpt>
      <trkpt lat="51.2845650" lon="7.6719270">
        <ele>176.5400000</ele>
        <time>2010-08-14T15:10:23Z</time>
      </trkpt>
      <trkpt lat="51.2844500" lon="7.6719720">
        <ele>176.5400000</ele>
        <time>2010-08-14T15:10:24Z</time>
      </trkpt>
      <trkpt lat="51.2843410" lon="7.6720270">
        <ele>176.5400000</ele>
        <time>2010-08-14T15:10:25Z</time>
      </trkpt>
      <trkpt lat="51.2842450" lon="7.6721080">
        <ele>176.5400000</ele>
        <time>2010-08-14T15:10:26Z</time>
      </trkpt>
      <trkpt lat="51.2841650" lon="7.6722230">
        <ele>177.5000000</ele>
        <time>2010-08-14T15:10:27Z</time>
      </trkpt>
      <trkpt lat="51.2840900" lon="7.6723450">
        <ele>177.9800000</ele>
        <time>2010-08-14T15:10:28Z</time>
      </trkpt>
      <trkpt lat="51.2840100" lon="7.6724700">
        <ele>178.9400000</ele>
        <time>2010-08-14T15:10:29Z</time>
      </trkpt>
      <trkpt lat="51.2834830" lon="7.6733060">
        <ele>183.7500000</ele>
        <time>2010-08-14T15:10:35Z</time>
      </trkpt>
      <trkpt lat="51.2833730" lon="7.6734040">
        <ele>184.2300000</ele>
        <time>2010-08-14T15:10:36Z</time>
      </trkpt>
      <trkpt lat="51.2832640" lon="7.6734780">
        <ele>184.7100000</ele>
        <time>2010-08-14T15:10:37Z</time>
      </trkpt>
      <trkpt lat="51.2831420" lon="7.6735170">
        <ele>185.6700000</ele>
        <time>2010-08-14T15:10:38Z</time>
      </trkpt>
      <trkpt lat="51.2830170" lon="7.6735400">
        <ele>186.6300000</ele>
        <time>2010-08-14T15:10:39Z</time>
      </trkpt>
      <trkpt lat="51.2828930" lon="7.6735450">
        <ele>187.5900000</ele>
        <time>2010-08-14T15:10:40Z</time>
      </trkpt>
      <trkpt lat="51.2827660" lon="7.6735040">
        <ele>188.5600000</ele>
        <time>2010-08-14T15:10:41Z</time>
      </trkpt>
      <trkpt lat="51.2815920" lon="7.6730610">
        <ele>194.8000000</ele>
        <time>2010-08-14T15:10:51Z</time>
      </trkpt>
      <trkpt lat="51.2803220" lon="7.6724990">
        <ele>192.4000000</ele>
        <time>2010-08-14T15:11:01Z</time>
      </trkpt>
      <trkpt lat="51.2796550" lon="7.6722960">
        <ele>192.4000000</ele>
        <time>2010-08-14T15:11:07Z</time>
      </trkpt>
      <trkpt lat="51.2795470" lon="7.6723100">
        <ele>192.8800000</ele>
        <time>2010-08-14T15:11:08Z</time>
      </trkpt>
      <trkpt lat="51.2794270" lon="7.6723530">
        <ele>192.8800000</ele>
        <time>2010-08-14T15:11:09Z</time>
      </trkpt>
      <trkpt lat="51.2793000" lon="7.6724340">
        <ele>192.8800000</ele>
        <time>2010-08-14T15:11:10Z</time>
      </trkpt>
      <trkpt lat="51.2791580" lon="7.6725360">
        <ele>192.8800000</ele>
        <time>2010-08-14T15:11:11Z</time>
      </trkpt>
      <trkpt lat="51.2780820" lon="7.6738030">
        <ele>198.1700000</ele>
        <time>2010-08-14T15:11:18Z</time>
      </trkpt>
      <trkpt lat="51.2778240" lon="7.6744480">
        <ele>204.9000000</ele>
        <time>2010-08-14T15:11:21Z</time>
      </trkpt>
      <trkpt lat="51.2778200" lon="7.6747540">
        <ele>206.8200000</ele>
        <time>2010-08-14T15:11:22Z</time>
      </trkpt>
      <trkpt lat="51.2778080" lon="7.6750180">
        <ele>208.7400000</ele>
        <time>2010-08-14T15:11:23Z</time>
      </trkpt>
      <trkpt lat="51.2778110" lon="7.6760310">
        <ele>211.6300000</ele>
        <time>2010-08-14T15:11:28Z</time>
      </trkpt>
      <trkpt lat="51.2776970" lon="7.6760690">
        <ele>211.1500000</ele>
        <time>2010-08-14T15:11:29Z</time>
      </trkpt>
      <trkpt lat="51.2775700" lon="7.6760450">
        <ele>210.6700000</ele>
        <time>2010-08-14T15:11:30Z</time>
      </trkpt>
      <trkpt lat="51.2774250" lon="7.6759660">
        <ele>210.1900000</ele>
        <time>2010-08-14T15:11:31Z</time>
      </trkpt>
      <trkpt lat="51.2772820" lon="7.6758530">
        <ele>210.1900000</ele>
        <time>2010-08-14T15:11:32Z</time>
      </trkpt>
      <trkpt lat="51.2771210" lon="7.6756930">
        <ele>210.6700000</ele>
        <time>2010-08-14T15:11:33Z</time>
      </trkpt>
      <trkpt lat="51.2769700" lon="7.6754730">
        <ele>210.6700000</ele>
        <time>2010-08-14T15:11:34Z</time>
      </trkpt>
      <trkpt lat="51.2768420" lon="7.6752580">
        <ele>210.6700000</ele>
        <time>2010-08-14T15:11:35Z</time>
      </trkpt>
      <trkpt lat="51.2767260" lon="7.6750310">
        <ele>210.6700000</ele>
        <time>2010-08-14T15:11:36Z</time>
      </trkpt>
      <trkpt lat="51.2766140" lon="7.6748070">
        <ele>211.1500000</ele>
        <time>2010-08-14T15:11:37Z</time>
      </trkpt>
      <trkpt lat="51.2765060" lon="7.6745950">
        <ele>211.1500000</ele>
        <time>2010-08-14T15:11:38Z</time>
      </trkpt>
      <trkpt lat="51.2754560" lon="7.6727550">
        <ele>201.5300000</ele>
        <time>2010-08-14T15:11:48Z</time>
      </trkpt>
      <trkpt lat="51.2753180" lon="7.6726200">
        <ele>201.5300000</ele>
        <time>2010-08-14T15:11:49Z</time>
      </trkpt>
      <trkpt lat="51.2751700" lon="7.6725080">
        <ele>201.5300000</ele>
        <time>2010-08-14T15:11:50Z</time>
      </trkpt>
      <trkpt lat="51.2750130" lon="7.6724250">
        <ele>201.5300000</ele>
        <time>2010-08-14T15:11:51Z</time>
      </trkpt>
      <trkpt lat="51.2748460" lon="7.6723790">
        <ele>201.5300000</ele>
        <time>2010-08-14T15:11:52Z</time>
      </trkpt>
      <trkpt lat="51.2746740" lon="7.6723730">
        <ele>202.0100000</ele>
        <time>2010-08-14T15:11:53Z</time>
      </trkpt>
      <trkpt lat="51.2745020" lon="7.6724010">
        <ele>201.5300000</ele>
        <time>2010-08-14T15:11:54Z</time>
      </trkpt>
      <trkpt lat="51.2743240" lon="7.6724590">
        <ele>202.0100000</ele>
        <time>2010-08-14T15:11:55Z</time>
      </trkpt>
      <trkpt lat="51.2741470" lon="7.6725510">
        <ele>202.9800000</ele>
        <time>2010-08-14T15:11:56Z</time>
      </trkpt>
      <trkpt lat="51.2739750" lon="7.6727080">
        <ele>204.4200000</ele>
        <time>2010-08-14T15:11:57Z</time>
      </trkpt>
      <trkpt lat="51.2737930" lon="7.6729080">
        <ele>205.3800000</ele>
        <time>2010-08-14T15:11:58Z</time>
      </trkpt>
      <trkpt lat="51.2736150" lon="7.6731440">
        <ele>206.3400000</ele>
        <time>2010-08-14T15:11:59Z</time>
      </trkpt>
      <trkpt lat="51.2729190" lon="7.6737820">
        <ele>206.8200000</ele>
        <time>2010-08-14T15:12:03Z</time>
      </trkpt>
      <trkpt lat="51.2727430" lon="7.6738490">
        <ele>207.3000000</ele>
        <time>2010-08-14T15:12:04Z</time>
      </trkpt>
      <trkpt lat="51.2725710" lon="7.6738670">
        <ele>207.3000000</ele>
        <time>2010-08-14T15:12:05Z</time>
      </trkpt>
      <trkpt lat="51.2723920" lon="7.6738430">
        <ele>207.3000000</ele>
        <time>2010-08-14T15:12:06Z</time>
      </trkpt>
      <trkpt lat="51.2721980" lon="7.6737750">
        <ele>207.3000000</ele>
        <time>2010-08-14T15:12:07Z</time>
      </trkpt>
      <trkpt lat="51.2720010" lon="7.6736910">
        <ele>207.3000000</ele>
        <time>2010-08-14T15:12:08Z</time>
      </trkpt>
      <trkpt lat="51.2699240" lon="7.6726260">
        <ele>210.1900000</ele>
        <time>2010-08-14T15:12:19Z</time>
      </trkpt>
      <trkpt lat="51.2684150" lon="7.6723110">
        <ele>213.5500000</ele>
        <time>2010-08-14T15:12:27Z</time>
      </trkpt>
      <trkpt lat="51.2666340" lon="7.6725860">
        <ele>225.5700000</ele>
        <time>2010-08-14T15:12:36Z</time>
      </trkpt>
      <trkpt lat="51.2664460" lon="7.6725580">
        <ele>226.5300000</ele>
        <time>2010-08-14T15:12:37Z</time>
      </trkpt>
      <trkpt lat="51.2643360" lon="7.6719080">
        <ele>225.0900000</ele>
        <time>2010-08-14T15:12:49Z</time>
      </trkpt>
      <trkpt lat="51.2625040" lon="7.6707860">
        <ele>223.1600000</ele>
        <time>2010-08-14T15:13:00Z</time>
      </trkpt>
      <trkpt lat="51.2609520" lon="7.6698790">
        <ele>227.4900000</ele>
        <time>2010-08-14T15:13:09Z</time>
      </trkpt>
      <trkpt lat="51.2605200" lon="7.6692340">
        <ele>227.0100000</ele>
        <time>2010-08-14T15:13:14Z</time>
      </trkpt>
      <trkpt lat="51.2604840" lon="7.6691010">
        <ele>227.4900000</ele>
        <time>2010-08-14T15:13:15Z</time>
      </trkpt>
      <trkpt lat="51.2604270" lon="7.6689760">
        <ele>227.0100000</ele>
        <time>2010-08-14T15:13:16Z</time>
      </trkpt>
      <trkpt lat="51.2596670" lon="7.6672460">
        <ele>227.4900000</ele>
        <time>2010-08-14T15:13:27Z</time>
      </trkpt>
      <trkpt lat="51.2588970" lon="7.6653690">
        <ele>232.3000000</ele>
        <time>2010-08-14T15:13:39Z</time>
      </trkpt>
      <trkpt lat="51.2580510" lon="7.6641860">
        <ele>236.1400000</ele>
        <time>2010-08-14T15:13:48Z</time>
      </trkpt>
      <trkpt lat="51.2579290" lon="7.6640870">
        <ele>236.1400000</ele>
        <time>2010-08-14T15:13:49Z</time>
      </trkpt>
      <trkpt lat="51.2578050" lon="7.6640100">
        <ele>236.1400000</ele>
        <time>2010-08-14T15:13:50Z</time>
      </trkpt>
      <trkpt lat="51.2576700" lon="7.6639640">
        <ele>236.1400000</ele>
        <time>2010-08-14T15:13:51Z</time>
      </trkpt>
      <trkpt lat="51.2575330" lon="7.6639410">
        <ele>236.1400000</ele>
        <time>2010-08-14T15:13:52Z</time>
      </trkpt>
      <trkpt lat="51.2573930" lon="7.6639240">
        <ele>235.6600000</ele>
        <time>2010-08-14T15:13:53Z</time>
      </trkpt>
      <trkpt lat="51.2560260" lon="7.6633830">
        <ele>236.6200000</ele>
        <time>2010-08-14T15:14:03Z</time>
      </trkpt>
      <trkpt lat="51.2555470" lon="7.6629860">
        <ele>236.6200000</ele>
        <time>2010-08-14T15:14:09Z</time>
      </trkpt>
      <trkpt lat="51.2555040" lon="7.6629870">
        <ele>236.6200000</ele>
        <time>2010-08-14T15:14:10Z</time>
      </trkpt>
      <trkpt lat="51.2554540" lon="7.6630120">
        <ele>236.6200000</ele>
        <time>2010-08-14T15:14:11Z</time>
      </trkpt>
      <trkpt lat="51.2553950" lon="7.6630690">
        <ele>236.6200000</ele>
        <time>2010-08-14T15:14:12Z</time>
      </trkpt>
      <trkpt lat="51.2553290" lon="7.6631330">
        <ele>236.6200000</ele>
        <time>2010-08-14T15:14:13Z</time>
      </trkpt>
      <trkpt lat="51.2552570" lon="7.6632170">
        <ele>237.1000000</ele>
        <time>2010-08-14T15:14:14Z</time>
      </trkpt>
      <trkpt lat="51.2551800" lon="7.6632580">
        <ele>237.1000000</ele>
        <time>2010-08-14T15:14:15Z</time>
      </trkpt>
      <trkpt lat="51.2551020" lon="7.6632960">
        <ele>237.5800000</ele>
        <time>2010-08-14T15:14:16Z</time>
      </trkpt>
      <trkpt lat="51.2542620" lon="7.6635260">
        <ele>241.4300000</ele>
        <time>2010-08-14T15:14:23Z</time>
      </trkpt>
      <trkpt lat="51.2539880" lon="7.6635090">
        <ele>243.3500000</ele>
        <time>2010-08-14T15:14:25Z</time>
      </trkpt>
      <trkpt lat="51.2538500" lon="7.6634510">
        <ele>244.7900000</ele>
        <time>2010-08-14T15:14:26Z</time>
      </trkpt>
      <trkpt lat="51.2537100" lon="7.6633790">
        <ele>245.7500000</ele>
        <time>2010-08-14T15:14:27Z</time>
      </trkpt>
      <trkpt lat="51.2531790" lon="7.6630490">
        <ele>247.2000000</ele>
        <time>2010-08-14T15:14:32Z</time>
      </trkpt>
      <trkpt lat="51.2523790" lon="7.6622650">
        <ele>250.0800000</ele>
        <time>2010-08-14T15:14:39Z</time>
      </trkpt>
      <trkpt lat="51.2513260" lon="7.6613350">
        <ele>254.8900000</ele>
        <time>2010-08-14T15:14:48Z</time>
      </trkpt>
      <trkpt lat="51.2512180" lon="7.6612670">
        <ele>255.8500000</ele>
        <time>2010-08-14T15:14:49Z</time>
      </trkpt>
      <trkpt lat="51.2509720" lon="7.6611460">
        <ele>256.8100000</ele>
        <time>2010-08-14T15:14:52Z</time>
      </trkpt>
      <trkpt lat="51.2509090" lon="7.6611340">
        <ele>257.2900000</ele>
        <time>2010-08-14T15:14:53Z</time>
      </trkpt>
      <trkpt lat="51.2503280" lon="7.6610330">
        <ele>260.6500000</ele>
        <time>2010-08-14T15:14:59Z</time>
      </trkpt>
      <trkpt lat="51.2502110" lon="7.6610600">
        <ele>261.6200000</ele>
        <time>2010-08-14T15:15:00Z</time>
      </trkpt>
      <trkpt lat="51.2500980" lon="7.6611050">
        <ele>263.5400000</ele>
        <time>2010-08-14T15:15:01Z</time>
      </trkpt>
      <trkpt lat="51.2496670" lon="7.6615650">
        <ele>277.9600000</ele>
        <time>2010-08-14T15:15:05Z</time>
      </trkpt>
      <trkpt lat="51.2488380" lon="7.6621910">
        <ele>301.9900000</ele>
        <time>2010-08-14T15:15:13Z</time>
      </trkpt>
      <trkpt lat="51.2487990" lon="7.6622170">
        <ele>304.8800000</ele>
        <time>2010-08-14T15:15:14Z</time>
      </trkpt>
      <trkpt lat="51.2487780" lon="7.6622080">
        <ele>306.8000000</ele>
        <time>2010-08-14T15:15:15Z</time>
      </trkpt>
      <trkpt lat="51.2487570" lon="7.6621820">
        <ele>311.1200000</ele>
        <time>2010-08-14T15:15:16Z</time>
      </trkpt>
      <trkpt lat="51.2487590" lon="7.6621400">
        <ele>312.0900000</ele>
        <time>2010-08-14T15:15:17Z</time>
      </trkpt>
      <trkpt lat="51.2487770" lon="7.6620820">
        <ele>312.0900000</ele>
        <time>2010-08-14T15:15:18Z</time>
      </trkpt>
      <trkpt lat="51.2488150" lon="7.6620110">
        <ele>310.6400000</ele>
        <time>2010-08-14T15:15:19Z</time>
      </trkpt>
      <trkpt lat="51.2489180" lon="7.6619030">
        <ele>308.2400000</ele>
        <time>2010-08-14T15:15:20Z</time>
      </trkpt>
      <trkpt lat="51.2490290" lon="7.6617960">
        <ele>306.3200000</ele>
        <time>2010-08-14T15:15:21Z</time>
      </trkpt>
      <trkpt lat="51.2491650" lon="7.6616420">
        <ele>304.3900000</ele>
        <time>2010-08-14T15:15:22Z</time>
      </trkpt>
      <trkpt lat="51.2493480" lon="7.6614540">
        <ele>301.9900000</ele>
        <time>2010-08-14T15:15:23Z</time>
      </trkpt>
      <trkpt lat="51.2495150" lon="7.6612270">
        <ele>298.1500000</ele>
        <time>2010-08-14T15:15:24Z</time>
      </trkpt>
      <trkpt lat="51.2497410" lon="7.6608330">
        <ele>293.3400000</ele>
        <time>2010-08-14T15:15:26Z</time>
      </trkpt>
      <trkpt lat="51.2502410" lon="7.6597740">
        <ele>292.3800000</ele>
        <time>2010-08-14T15:15:33Z</time>
      </trkpt>
      <trkpt lat="51.2502590" lon="7.6596950">
        <ele>292.8600000</ele>
        <time>2010-08-14T15:15:34Z</time>
      </trkpt>
      <trkpt lat="51.2504100" lon="7.6587330">
        <ele>301.5100000</ele>
        <time>2010-08-14T15:15:41Z</time>
      </trkpt>
      <trkpt lat="51.2503430" lon="7.6583470">
        <ele>304.8800000</ele>
        <time>2010-08-14T15:15:44Z</time>
      </trkpt>
      <trkpt lat="51.2502990" lon="7.6582330">
        <ele>305.3600000</ele>
        <time>2010-08-14T15:15:45Z</time>
      </trkpt>
      <trkpt lat="51.2502480" lon="7.6581340">
        <ele>305.8400000</ele>
        <time>2010-08-14T15:15:46Z</time>
      </trkpt>
      <trkpt lat="51.2501830" lon="7.6580280">
        <ele>306.3200000</ele>
        <time>2010-08-14T15:15:47Z</time>
      </trkpt>
      <trkpt lat="51.2500990" lon="7.6578850">
        <ele>308.2400000</ele>
        <time>2010-08-14T15:15:48Z</time>
      </trkpt>
      <trkpt lat="51.2494790" lon="7.6569110">
        <ele>312.5700000</ele>
        <time>2010-08-14T15:15:55Z</time>
      </trkpt>
      <trkpt lat="51.2494170" lon="7.6567290">
        <ele>313.0500000</ele>
        <time>2010-08-14T15:15:56Z</time>
      </trkpt>
      <trkpt lat="51.2492550" lon="7.6562630">
        <ele>314.4900000</ele>
        <time>2010-08-14T15:15:59Z</time>
      </trkpt>
      <trkpt lat="51.2491930" lon="7.6561720">
        <ele>316.4100000</ele>
        <time>2010-08-14T15:16:00Z</time>
      </trkpt>
      <trkpt lat="51.2491570" lon="7.6560880">
        <ele>320.2600000</ele>
        <time>2010-08-14T15:16:01Z</time>
      </trkpt>
      <trkpt lat="51.2482860" lon="7.6554790">
        <ele>328.9100000</ele>
        <time>2010-08-14T15:16:09Z</time>
      </trkpt>
      <trkpt lat="51.2467070" lon="7.6543300">
        <ele>337.0800000</ele>
        <time>2010-08-14T15:16:21Z</time>
      </trkpt>
      <trkpt lat="51.2462190" lon="7.6538240">
        <ele>343.8100000</ele>
        <time>2010-08-14T15:16:27Z</time>
      </trkpt>
      <trkpt lat="51.2461870" lon="7.6537580">
        <ele>345.2500000</ele>
        <time>2010-08-14T15:16:28Z</time>
      </trkpt>
      <trkpt lat="51.2460650" lon="7.6534870">
        <ele>346.6900000</ele>
        <time>2010-08-14T15:16:31Z</time>
      </trkpt>
      <trkpt lat="51.2460250" lon="7.6533430">
        <ele>346.2100000</ele>
        <time>2010-08-14T15:16:32Z</time>
      </trkpt>
      <trkpt lat="51.2459750" lon="7.6531650">
        <ele>346.2100000</ele>
        <time>2010-08-14T15:16:33Z</time>
      </trkpt>
      <trkpt lat="51.2459080" lon="7.6529730">
        <ele>345.7300000</ele>
        <time>2010-08-14T15:16:34Z</time>
      </trkpt>
      <trkpt lat="51.2458250" lon="7.6527660">
        <ele>346.2100000</ele>
        <time>2010-08-14T15:16:35Z</time>
      </trkpt>
      <trkpt lat="51.2457460" lon="7.6525770">
        <ele>346.6900000</ele>
        <time>2010-08-14T15:16:36Z</time>
      </trkpt>
      <trkpt lat="51.2455290" lon="7.6521390">
        <ele>347.6500000</ele>
        <time>2010-08-14T15:16:39Z</time>
      </trkpt>
      <trkpt lat="51.2454390" lon="7.6520380">
        <ele>348.6200000</ele>
        <time>2010-08-14T15:16:40Z</time>
      </trkpt>
      <trkpt lat="51.2453580" lon="7.6519320">
        <ele>348.1300000</ele>
        <time>2010-08-14T15:16:41Z</time>
      </trkpt>
      <trkpt lat="51.2451900" lon="7.6517540">
        <ele>349.1000000</ele>
        <time>2010-08-14T15:16:43Z</time>
      </trkpt>
      <trkpt lat="51.2451210" lon="7.6516500">
        <ele>349.5800000</ele>
        <time>2010-08-14T15:16:44Z</time>
      </trkpt>
      <trkpt lat="51.2450630" lon="7.6515300">
        <ele>350.0600000</ele>
        <time>2010-08-14T15:16:45Z</time>
      </trkpt>
      <trkpt lat="51.2450160" lon="7.6513910">
        <ele>351.0200000</ele>
        <time>2010-08-14T15:16:46Z</time>
      </trkpt>
      <trkpt lat="51.2449790" lon="7.6512340">
        <ele>351.5000000</ele>
        <time>2010-08-14T15:16:47Z</time>
      </trkpt>
      <trkpt lat="51.2449440" lon="7.6510130">
        <ele>351.9800000</ele>
        <time>2010-08-14T15:16:48Z</time>
      </trkpt>
      <trkpt lat="51.2449050" lon="7.6507760">
        <ele>353.4200000</ele>
        <time>2010-08-14T15:16:49Z</time>
      </trkpt>
      <trkpt lat="51.2445440" lon="7.6492620">
        <ele>357.7500000</ele>
        <time>2010-08-14T15:16:57Z</time>
      </trkpt>
      <trkpt lat="51.2439680" lon="7.6480300">
        <ele>358.2300000</ele>
        <time>2010-08-14T15:17:05Z</time>
      </trkpt>
      <trkpt lat="51.2438760" lon="7.6476980">
        <ele>357.2700000</ele>
        <time>2010-08-14T15:17:07Z</time>
      </trkpt>
      <trkpt lat="51.2437590" lon="7.6472500">
        <ele>356.3100000</ele>
        <time>2010-08-14T15:17:10Z</time>
      </trkpt>
      <trkpt lat="51.2436650" lon="7.6471300">
        <ele>355.3400000</ele>
        <time>2010-08-14T15:17:11Z</time>
      </trkpt>
      <trkpt lat="51.2435600" lon="7.6470530">
        <ele>354.3800000</ele>
        <time>2010-08-14T15:17:12Z</time>
      </trkpt>
      <trkpt lat="51.2434440" lon="7.6470020">
        <ele>353.9000000</ele>
        <time>2010-08-14T15:17:13Z</time>
      </trkpt>
      <trkpt lat="51.2433240" lon="7.6469810">
        <ele>353.4200000</ele>
        <time>2010-08-14T15:17:14Z</time>
      </trkpt>
      <trkpt lat="51.2432010" lon="7.6469880">
        <ele>353.4200000</ele>
        <time>2010-08-14T15:17:15Z</time>
      </trkpt>
      <trkpt lat="51.2430700" lon="7.6470360">
        <ele>353.4200000</ele>
        <time>2010-08-14T15:17:16Z</time>
      </trkpt>
      <trkpt lat="51.2429480" lon="7.6470840">
        <ele>352.9400000</ele>
        <time>2010-08-14T15:17:17Z</time>
      </trkpt>
      <trkpt lat="51.2428280" lon="7.6471280">
        <ele>353.4200000</ele>
        <time>2010-08-14T15:17:18Z</time>
      </trkpt>
      <trkpt lat="51.2426030" lon="7.6471570">
        <ele>353.4200000</ele>
        <time>2010-08-14T15:17:20Z</time>
      </trkpt>
      <trkpt lat="51.2424940" lon="7.6471360">
        <ele>354.3800000</ele>
        <time>2010-08-14T15:17:21Z</time>
      </trkpt>
      <trkpt lat="51.2423790" lon="7.6470930">
        <ele>355.3400000</ele>
        <time>2010-08-14T15:17:22Z</time>
      </trkpt>
      <trkpt lat="51.2420620" lon="7.6470440">
        <ele>357.7500000</ele>
        <time>2010-08-14T15:17:25Z</time>
      </trkpt>
      <trkpt lat="51.2419710" lon="7.6470820">
        <ele>358.7100000</ele>
        <time>2010-08-14T15:17:26Z</time>
      </trkpt>
      <trkpt lat="51.2418950" lon="7.6472390">
        <ele>359.6700000</ele>
        <time>2010-08-14T15:17:27Z</time>
      </trkpt>
      <trkpt lat="51.2418460" lon="7.6474170">
        <ele>360.6300000</ele>
        <time>2010-08-14T15:17:28Z</time>
      </trkpt>
      <trkpt lat="51.2418230" lon="7.6475850">
        <ele>362.0700000</ele>
        <time>2010-08-14T15:17:29Z</time>
      </trkpt>
      <trkpt lat="51.2417770" lon="7.6477510">
        <ele>363.5200000</ele>
        <time>2010-08-14T15:17:30Z</time>
      </trkpt>
      <trkpt lat="51.2417180" lon="7.6478990">
        <ele>364.9600000</ele>
        <time>2010-08-14T15:17:31Z</time>
      </trkpt>
      <trkpt lat="51.2416490" lon="7.6480250">
        <ele>366.4000000</ele>
        <time>2010-08-14T15:17:32Z</time>
      </trkpt>
      <trkpt lat="51.2415760" lon="7.6481430">
        <ele>367.8400000</ele>
        <time>2010-08-14T15:17:33Z</time>
      </trkpt>
      <trkpt lat="51.2415020" lon="7.6482410">
        <ele>369.2800000</ele>
        <time>2010-08-14T15:17:34Z</time>
      </trkpt>
      <trkpt lat="51.2414280" lon="7.6483070">
        <ele>370.7300000</ele>
        <time>2010-08-14T15:17:35Z</time>
      </trkpt>
      <trkpt lat="51.2413550" lon="7.6483480">
        <ele>372.1700000</ele>
        <time>2010-08-14T15:17:36Z</time>
      </trkpt>
      <trkpt lat="51.2412630" lon="7.6483610">
        <ele>373.6100000</ele>
        <time>2010-08-14T15:17:37Z</time>
      </trkpt>
      <trkpt lat="51.2411790" lon="7.6483180">
        <ele>374.5700000</ele>
        <time>2010-08-14T15:17:38Z</time>
      </trkpt>
      <trkpt lat="51.2411100" lon="7.6482050">
        <ele>375.5300000</ele>
        <time>2010-08-14T15:17:39Z</time>
      </trkpt>
      <trkpt lat="51.2410330" lon="7.6481120">
        <ele>376.4900000</ele>
        <time>2010-08-14T15:17:40Z</time>
      </trkpt>
      <trkpt lat="51.2409930" lon="7.6479740">
        <ele>377.9400000</ele>
        <time>2010-08-14T15:17:41Z</time>
      </trkpt>
      <trkpt lat="51.2409450" lon="7.6478270">
        <ele>379.3800000</ele>
        <time>2010-08-14T15:17:42Z</time>
      </trkpt>
      <trkpt lat="51.2409130" lon="7.6476420">
        <ele>379.3800000</ele>
        <time>2010-08-14T15:17:43Z</time>
      </trkpt>
      <trkpt lat="51.2408990" lon="7.6474520">
        <ele>379.3800000</ele>
        <time>2010-08-14T15:17:44Z</time>
      </trkpt>
      <trkpt lat="51.2408900" lon="7.6472850">
        <ele>380.3400000</ele>
        <time>2010-08-14T15:17:45Z</time>
      </trkpt>
      <trkpt lat="51.2408830" lon="7.6471370">
        <ele>381.3000000</ele>
        <time>2010-08-14T15:17:46Z</time>
      </trkpt>
      <trkpt lat="51.2408830" lon="7.6469920">
        <ele>382.2600000</ele>
        <time>2010-08-14T15:17:47Z</time>
      </trkpt>
      <trkpt lat="51.2408920" lon="7.6468520">
        <ele>383.2200000</ele>
        <time>2010-08-14T15:17:48Z</time>
      </trkpt>
      <trkpt lat="51.2409070" lon="7.6466990">
        <ele>384.1800000</ele>
        <time>2010-08-14T15:17:49Z</time>
      </trkpt>
      <trkpt lat="51.2409110" lon="7.6462670">
        <ele>387.5500000</ele>
        <time>2010-08-14T15:17:52Z</time>
      </trkpt>
      <trkpt lat="51.2408880" lon="7.6461360">
        <ele>388.9900000</ele>
        <time>2010-08-14T15:17:53Z</time>
      </trkpt>
      <trkpt lat="51.2408540" lon="7.6460120">
        <ele>390.4300000</ele>
        <time>2010-08-14T15:17:54Z</time>
      </trkpt>
      <trkpt lat="51.2408070" lon="7.6458910">
        <ele>391.8700000</ele>
        <time>2010-08-14T15:17:55Z</time>
      </trkpt>
      <trkpt lat="51.2407510" lon="7.6457740">
        <ele>393.3200000</ele>
        <time>2010-08-14T15:17:56Z</time>
      </trkpt>
      <trkpt lat="51.2406870" lon="7.6456600">
        <ele>395.2400000</ele>
        <time>2010-08-14T15:17:57Z</time>
      </trkpt>
      <trkpt lat="51.2406110" lon="7.6455510">
        <ele>395.7200000</ele>
        <time>2010-08-14T15:17:58Z</time>
      </trkpt>
      <trkpt lat="51.2405210" lon="7.6454390">
        <ele>396.2000000</ele>
        <time>2010-08-14T15:17:59Z</time>
      </trkpt>
      <trkpt lat="51.2396580" lon="7.6442220">
        <ele>394.7600000</ele>
        <time>2010-08-14T15:18:09Z</time>
      </trkpt>
      <trkpt lat="51.2386990" lon="7.6432400">
        <ele>394.7600000</ele>
        <time>2010-08-14T15:18:19Z</time>
      </trkpt>
      <trkpt lat="51.2383800" lon="7.6430080">
        <ele>395.2400000</ele>
        <time>2010-08-14T15:18:22Z</time>
      </trkpt>
      <trkpt lat="51.2382680" lon="7.6429570">
        <ele>395.2400000</ele>
        <time>2010-08-14T15:18:23Z</time>
      </trkpt>
      <trkpt lat="51.2377160" lon="7.6426500">
        <ele>399.5700000</ele>
        <time>2010-08-14T15:18:28Z</time>
      </trkpt>
      <trkpt lat="51.2376170" lon="7.6425550">
        <ele>400.5300000</ele>
        <time>2010-08-14T15:18:29Z</time>
      </trkpt>
      <trkpt lat="51.2370300" lon="7.6418850">
        <ele>407.7400000</ele>
        <time>2010-08-14T15:18:35Z</time>
      </trkpt>
      <trkpt lat="51.2369280" lon="7.6418130">
        <ele>409.1800000</ele>
        <time>2010-08-14T15:18:36Z</time>
      </trkpt>
      <trkpt lat="51.2368220" lon="7.6417620">
        <ele>409.6600000</ele>
        <time>2010-08-14T15:18:37Z</time>
      </trkpt>
      <trkpt lat="51.2357920" lon="7.6414440">
        <ele>413.0200000</ele>
        <time>2010-08-14T15:18:46Z</time>
      </trkpt>
      <trkpt lat="51.2354760" lon="7.6414280">
        <ele>414.9500000</ele>
        <time>2010-08-14T15:18:49Z</time>
      </trkpt>
      <trkpt lat="51.2345980" lon="7.6411030">
        <ele>421.6800000</ele>
        <time>2010-08-14T15:18:57Z</time>
      </trkpt>
      <trkpt lat="51.2344210" lon="7.6410720">
        <ele>422.6400000</ele>
        <time>2010-08-14T15:18:59Z</time>
      </trkpt>
      <trkpt lat="51.2343460" lon="7.6410330">
        <ele>422.6400000</ele>
        <time>2010-08-14T15:19:00Z</time>
      </trkpt>
      <trkpt lat="51.2342930" lon="7.6409540">
        <ele>423.1200000</ele>
        <time>2010-08-14T15:19:01Z</time>
      </trkpt>
      <trkpt lat="51.2342610" lon="7.6408560">
        <ele>423.6000000</ele>
        <time>2010-08-14T15:19:02Z</time>
      </trkpt>
      <trkpt lat="51.2342380" lon="7.6407550">
        <ele>423.1200000</ele>
        <time>2010-08-14T15:19:03Z</time>
      </trkpt>
      <trkpt lat="51.2342040" lon="7.6406660">
        <ele>423.1200000</ele>
        <time>2010-08-14T15:19:04Z</time>
      </trkpt>
      <trkpt lat="51.2341530" lon="7.6405940">
        <ele>423.6000000</ele>
        <time>2010-08-14T15:19:05Z</time>
      </trkpt>
      <trkpt lat="51.2340900" lon="7.6405390">
        <ele>423.6000000</ele>
        <time>2010-08-14T15:19:06Z</time>
      </trkpt>
      <trkpt lat="51.2340250" lon="7.6405070">
        <ele>423.1200000</ele>
        <time>2010-08-14T15:19:07Z</time>
      </trkpt>
      <trkpt lat="51.2339570" lon="7.6404900">
        <ele>423.1200000</ele>
        <time>2010-08-14T15:19:08Z</time>
      </trkpt>
      <trkpt lat="51.2338840" lon="7.6404900">
        <ele>423.6000000</ele>
        <time>2010-08-14T15:19:09Z</time>
      </trkpt>
      <trkpt lat="51.2338090" lon="7.6405070">
        <ele>423.6000000</ele>
        <time>2010-08-14T15:19:10Z</time>
      </trkpt>
      <trkpt lat="51.2337370" lon="7.6405330">
        <ele>423.6000000</ele>
        <time>2010-08-14T15:19:11Z</time>
      </trkpt>
      <trkpt lat="51.2336690" lon="7.6405490">
        <ele>423.6000000</ele>
        <time>2010-08-14T15:19:12Z</time>
      </trkpt>
      <trkpt lat="51.2336040" lon="7.6405450">
        <ele>423.6000000</ele>
        <time>2010-08-14T15:19:13Z</time>
      </trkpt>
      <trkpt lat="51.2335420" lon="7.6405200">
        <ele>423.6000000</ele>
        <time>2010-08-14T15:19:14Z</time>
      </trkpt>
      <trkpt lat="51.2334820" lon="7.6404710">
        <ele>423.6000000</ele>
        <time>2010-08-14T15:19:15Z</time>
      </trkpt>
      <trkpt lat="51.2334250" lon="7.6404060">
        <ele>423.1200000</ele>
        <time>2010-08-14T15:19:16Z</time>
      </trkpt>
      <trkpt lat="51.2333630" lon="7.6403590">
        <ele>422.6400000</ele>
        <time>2010-08-14T15:19:17Z</time>
      </trkpt>
      <trkpt lat="51.2332950" lon="7.6403520">
        <ele>422.1600000</ele>
        <time>2010-08-14T15:19:18Z</time>
      </trkpt>
      <trkpt lat="51.2332210" lon="7.6403560">
        <ele>422.1600000</ele>
        <time>2010-08-14T15:19:19Z</time>
      </trkpt>
      <trkpt lat="51.2331400" lon="7.6403430">
        <ele>421.6800000</ele>
        <time>2010-08-14T15:19:20Z</time>
      </trkpt>
      <trkpt lat="51.2330530" lon="7.6403120">
        <ele>421.1900000</ele>
        <time>2010-08-14T15:19:21Z</time>
      </trkpt>
      <trkpt lat="51.2326870" lon="7.6401970">
        <ele>419.2700000</ele>
        <time>2010-08-14T15:19:25Z</time>
      </trkpt>
      <trkpt lat="51.2324250" lon="7.6401510">
        <ele>417.8300000</ele>
        <time>2010-08-14T15:19:28Z</time>
      </trkpt>
      <trkpt lat="51.2323370" lon="7.6401640">
        <ele>417.3500000</ele>
        <time>2010-08-14T15:19:29Z</time>
      </trkpt>
      <trkpt lat="51.2322460" lon="7.6402020">
        <ele>415.9100000</ele>
        <time>2010-08-14T15:19:30Z</time>
      </trkpt>
      <trkpt lat="51.2320350" lon="7.6402840">
        <ele>414.4700000</ele>
        <time>2010-08-14T15:19:32Z</time>
      </trkpt>
      <trkpt lat="51.2319190" lon="7.6403010">
        <ele>413.5000000</ele>
        <time>2010-08-14T15:19:33Z</time>
      </trkpt>
      <trkpt lat="51.2318000" lon="7.6402920">
        <ele>412.0600000</ele>
        <time>2010-08-14T15:19:34Z</time>
      </trkpt>
      <trkpt lat="51.2316800" lon="7.6402560">
        <ele>411.1000000</ele>
        <time>2010-08-14T15:19:35Z</time>
      </trkpt>
      <trkpt lat="51.2315630" lon="7.6401940">
        <ele>409.6600000</ele>
        <time>2010-08-14T15:19:36Z</time>
      </trkpt>
      <trkpt lat="51.2314480" lon="7.6401120">
        <ele>408.7000000</ele>
        <time>2010-08-14T15:19:37Z</time>
      </trkpt>
      <trkpt lat="51.2313340" lon="7.6400310">
        <ele>407.2600000</ele>
        <time>2010-08-14T15:19:38Z</time>
      </trkpt>
      <trkpt lat="51.2312160" lon="7.6399680">
        <ele>406.2900000</ele>
        <time>2010-08-14T15:19:39Z</time>
      </trkpt>
      <trkpt lat="51.2310990" lon="7.6399270">
        <ele>404.8500000</ele>
        <time>2010-08-14T15:19:40Z</time>
      </trkpt>
      <trkpt lat="51.2309860" lon="7.6399060">
        <ele>403.8900000</ele>
        <time>2010-08-14T15:19:41Z</time>
      </trkpt>
      <trkpt lat="51.2308760" lon="7.6399170">
        <ele>402.4500000</ele>
        <time>2010-08-14T15:19:42Z</time>
      </trkpt>
      <trkpt lat="51.2307720" lon="7.6399920">
        <ele>401.0100000</ele>
        <time>2010-08-14T15:19:43Z</time>
      </trkpt>
      <trkpt lat="51.2306690" lon="7.6400620">
        <ele>400.5300000</ele>
        <time>2010-08-14T15:19:44Z</time>
      </trkpt>
      <trkpt lat="51.2305590" lon="7.6401160">
        <ele>400.0500000</ele>
        <time>2010-08-14T15:19:45Z</time>
      </trkpt>
      <trkpt lat="51.2304370" lon="7.6401350">
        <ele>399.0800000</ele>
        <time>2010-08-14T15:19:46Z</time>
      </trkpt>
      <trkpt lat="51.2303190" lon="7.6401440">
        <ele>398.1200000</ele>
        <time>2010-08-14T15:19:47Z</time>
      </trkpt>
      <trkpt lat="51.2302010" lon="7.6401440">
        <ele>397.1600000</ele>
        <time>2010-08-14T15:19:48Z</time>
      </trkpt>
      <trkpt lat="51.2285550" lon="7.6400090">
        <ele>383.2200000</ele>
        <time>2010-08-14T15:20:03Z</time>
      </trkpt>
      <trkpt lat="51.2283380" lon="7.6399830">
        <ele>382.2600000</ele>
        <time>2010-08-14T15:20:05Z</time>
      </trkpt>
      <trkpt lat="51.2282200" lon="7.6399930">
        <ele>381.3000000</ele>
        <time>2010-08-14T15:20:06Z</time>
      </trkpt>
      <trkpt lat="51.2275720" lon="7.6400750">
        <ele>381.7800000</ele>
        <time>2010-08-14T15:20:12Z</time>
      </trkpt>
      <trkpt lat="51.2275070" lon="7.6400550">
        <ele>381.7800000</ele>
        <time>2010-08-14T15:20:13Z</time>
      </trkpt>
      <trkpt lat="51.2274520" lon="7.6400050">
        <ele>381.3000000</ele>
        <time>2010-08-14T15:20:14Z</time>
      </trkpt>
      <trkpt lat="51.2274130" lon="7.6399020">
        <ele>381.3000000</ele>
        <time>2010-08-14T15:20:15Z</time>
      </trkpt>
      <trkpt lat="51.2273860" lon="7.6397420">
        <ele>381.7800000</ele>
        <time>2010-08-14T15:20:16Z</time>
      </trkpt>
      <trkpt lat="51.2273820" lon="7.6395430">
        <ele>381.7800000</ele>
        <time>2010-08-14T15:20:17Z</time>
      </trkpt>
      <trkpt lat="51.2273820" lon="7.6393030">
        <ele>381.7800000</ele>
        <time>2010-08-14T15:20:18Z</time>
      </trkpt>
      <trkpt lat="51.2274020" lon="7.6390280">
        <ele>381.7800000</ele>
        <time>2010-08-14T15:20:19Z</time>
      </trkpt>
      <trkpt lat="51.2274210" lon="7.6369420">
        <ele>377.9400000</ele>
        <time>2010-08-14T15:20:26Z</time>
      </trkpt>
      <trkpt lat="51.2273400" lon="7.6354530">
        <ele>374.5700000</ele>
        <time>2010-08-14T15:20:34Z</time>
      </trkpt>
      <trkpt lat="51.2273380" lon="7.6352280">
        <ele>376.9700000</ele>
        <time>2010-08-14T15:20:40Z</time>
      </trkpt>
      <trkpt lat="51.2274090" lon="7.6351360">
        <ele>374.5700000</ele>
        <time>2010-08-14T15:21:16Z</time>
      </trkpt>
      <trkpt lat="51.2274040" lon="7.6350600">
        <ele>374.5700000</ele>
        <time>2010-08-14T15:21:17Z</time>
      </trkpt>
      <trkpt lat="51.2273870" lon="7.6349780">
        <ele>374.5700000</ele>
        <time>2010-08-14T15:21:18Z</time>
      </trkpt>
      <trkpt lat="51.2273580" lon="7.6349070">
        <ele>374.5700000</ele>
        <time>2010-08-14T15:21:19Z</time>
      </trkpt>
      <trkpt lat="51.2273210" lon="7.6348510">
        <ele>374.5700000</ele>
        <time>2010-08-14T15:21:20Z</time>
      </trkpt>
      <trkpt lat="51.2272590" lon="7.6348300">
        <ele>375.0500000</ele>
        <time>2010-08-14T15:21:21Z</time>
      </trkpt>
      <trkpt lat="51.2272060" lon="7.6347870">
        <ele>375.0500000</ele>
        <time>2010-08-14T15:21:22Z</time>
      </trkpt>
      <trkpt lat="51.2271330" lon="7.6347330">
        <ele>374.5700000</ele>
        <time>2010-08-14T15:21:23Z</time>
      </trkpt>
      <trkpt lat="51.2266080" lon="7.6343040">
        <ele>377.9400000</ele>
        <time>2010-08-14T15:21:30Z</time>
      </trkpt>
      <trkpt lat="51.2258200" lon="7.6332180">
        <ele>380.3400000</ele>
        <time>2010-08-14T15:21:39Z</time>
      </trkpt>
      <trkpt lat="51.2248690" lon="7.6320750">
        <ele>382.2600000</ele>
        <time>2010-08-14T15:21:48Z</time>
      </trkpt>
      <trkpt lat="51.2247120" lon="7.6319830">
        <ele>382.2600000</ele>
        <time>2010-08-14T15:21:49Z</time>
      </trkpt>
      <trkpt lat="51.2245450" lon="7.6319110">
        <ele>382.7400000</ele>
        <time>2010-08-14T15:21:50Z</time>
      </trkpt>
      <trkpt lat="51.2242140" lon="7.6318220">
        <ele>384.1800000</ele>
        <time>2010-08-14T15:21:52Z</time>
      </trkpt>
      <trkpt lat="51.2240530" lon="7.6318160">
        <ele>384.6600000</ele>
        <time>2010-08-14T15:21:53Z</time>
      </trkpt>
      <trkpt lat="51.2238990" lon="7.6318380">
        <ele>385.1500000</ele>
        <time>2010-08-14T15:21:54Z</time>
      </trkpt>
      <trkpt lat="51.2237540" lon="7.6318760">
        <ele>385.1500000</ele>
        <time>2010-08-14T15:21:55Z</time>
      </trkpt>
      <trkpt lat="51.2236080" lon="7.6319190">
        <ele>385.1500000</ele>
        <time>2010-08-14T15:21:56Z</time>
      </trkpt>
      <trkpt lat="51.2225260" lon="7.6321840">
        <ele>393.8000000</ele>
        <time>2010-08-14T15:22:05Z</time>
      </trkpt>
      <trkpt lat="51.2220130" lon="7.6321870">
        <ele>397.6400000</ele>
        <time>2010-08-14T15:22:11Z</time>
      </trkpt>
      <trkpt lat="51.2209440" lon="7.6319490">
        <ele>396.6800000</ele>
        <time>2010-08-14T15:22:18Z</time>
      </trkpt>
      <trkpt lat="51.2193610" lon="7.6315480">
        <ele>396.2000000</ele>
        <time>2010-08-14T15:22:29Z</time>
      </trkpt>
      <trkpt lat="51.2192650" lon="7.6314680">
        <ele>396.2000000</ele>
        <time>2010-08-14T15:22:30Z</time>
      </trkpt>
      <trkpt lat="51.2191900" lon="7.6313910">
        <ele>396.2000000</ele>
        <time>2010-08-14T15:22:31Z</time>
      </trkpt>
      <trkpt lat="51.2191370" lon="7.6313200">
        <ele>396.2000000</ele>
        <time>2010-08-14T15:22:32Z</time>
      </trkpt>
      <trkpt lat="51.2191000" lon="7.6312680">
        <ele>397.1600000</ele>
        <time>2010-08-14T15:22:33Z</time>
      </trkpt>
      <trkpt lat="51.2190800" lon="7.6312390">
        <ele>397.6400000</ele>
        <time>2010-08-14T15:22:34Z</time>
      </trkpt>
      <trkpt lat="51.2190850" lon="7.6312500">
        <ele>396.6800000</ele>
        <time>2010-08-14T15:22:43Z</time>
      </trkpt>
      <trkpt lat="51.2189750" lon="7.6310020">
        <ele>396.2000000</ele>
        <time>2010-08-14T15:22:49Z</time>
      </trkpt>
      <trkpt lat="51.2188530" lon="7.6306560">
        <ele>396.2000000</ele>
        <time>2010-08-14T15:22:51Z</time>
      </trkpt>
      <trkpt lat="51.2187930" lon="7.6304580">
        <ele>397.6400000</ele>
        <time>2010-08-14T15:22:52Z</time>
      </trkpt>
      <trkpt lat="51.2162940" lon="7.6254240">
        <ele>403.8900000</ele>
        <time>2010-08-14T15:23:24Z</time>
      </trkpt>
      <trkpt lat="51.2162860" lon="7.6253430">
        <ele>403.4100000</ele>
        <time>2010-08-14T15:23:25Z</time>
      </trkpt>
      <trkpt lat="51.2162920" lon="7.6253110">
        <ele>403.8900000</ele>
        <time>2010-08-14T15:23:26Z</time>
      </trkpt>
      <trkpt lat="51.2162880" lon="7.6253350">
        <ele>403.8900000</ele>
        <time>2010-08-14T15:23:36Z</time>
      </trkpt>
      <trkpt lat="51.2163210" lon="7.6248950">
        <ele>404.3700000</ele>
        <time>2010-08-14T15:23:54Z</time>
      </trkpt>
      <trkpt lat="51.2164000" lon="7.6241140">
        <ele>401.4900000</ele>
        <time>2010-08-14T15:23:58Z</time>
      </trkpt>
      <trkpt lat="51.2164450" lon="7.6239220">
        <ele>401.0100000</ele>
        <time>2010-08-14T15:23:59Z</time>
      </trkpt>
      <trkpt lat="51.2165210" lon="7.6237450">
        <ele>400.5300000</ele>
        <time>2010-08-14T15:24:00Z</time>
      </trkpt>
      <trkpt lat="51.2165830" lon="7.6235920">
        <ele>400.0500000</ele>
        <time>2010-08-14T15:24:01Z</time>
      </trkpt>
      <trkpt lat="51.2166440" lon="7.6234610">
        <ele>399.5700000</ele>
        <time>2010-08-14T15:24:02Z</time>
      </trkpt>
      <trkpt lat="51.2167220" lon="7.6233690">
        <ele>398.6000000</ele>
        <time>2010-08-14T15:24:03Z</time>
      </trkpt>
      <trkpt lat="51.2168290" lon="7.6233190">
        <ele>397.6400000</ele>
        <time>2010-08-14T15:24:04Z</time>
      </trkpt>
      <trkpt lat="51.2169450" lon="7.6232940">
        <ele>396.6800000</ele>
        <time>2010-08-14T15:24:05Z</time>
      </trkpt>
      <trkpt lat="51.2170570" lon="7.6232240">
        <ele>396.2000000</ele>
        <time>2010-08-14T15:24:06Z</time>
      </trkpt>
      <trkpt lat="51.2171500" lon="7.6230910">
        <ele>395.7200000</ele>
        <time>2010-08-14T15:24:07Z</time>
      </trkpt>
      <trkpt lat="51.2172230" lon="7.6229060">
        <ele>394.7600000</ele>
        <time>2010-08-14T15:24:08Z</time>
      </trkpt>
      <trkpt lat="51.2172940" lon="7.6227080">
        <ele>394.7600000</ele>
        <time>2010-08-14T15:24:09Z</time>
      </trkpt>
      <trkpt lat="51.2173450" lon="7.6225090">
        <ele>394.7600000</ele>
        <time>2010-08-14T15:24:10Z</time>
      </trkpt>
      <trkpt lat="51.2175300" lon="7.6219790">
        <ele>391.8700000</ele>
        <time>2010-08-14T15:24:13Z</time>
      </trkpt>
      <trkpt lat="51.2175930" lon="7.6218480">
        <ele>391.3900000</ele>
        <time>2010-08-14T15:24:14Z</time>
      </trkpt>
      <trkpt lat="51.2177410" lon="7.6216150">
        <ele>388.9900000</ele>
        <time>2010-08-14T15:24:19Z</time>
      </trkpt>
      <trkpt lat="51.2178260" lon="7.6214500">
        <ele>393.8000000</ele>
        <time>2010-08-14T15:24:33Z</time>
      </trkpt>
      <trkpt lat="51.2178550" lon="7.6213830">
        <ele>393.3200000</ele>
        <time>2010-08-14T15:24:34Z</time>
      </trkpt>
      <trkpt lat="51.2178820" lon="7.6213090">
        <ele>392.8400000</ele>
        <time>2010-08-14T15:24:35Z</time>
      </trkpt>
      <trkpt lat="51.2179020" lon="7.6212310">
        <ele>392.3600000</ele>
        <time>2010-08-14T15:24:36Z</time>
      </trkpt>
      <trkpt lat="51.2179180" lon="7.6211480">
        <ele>392.3600000</ele>
        <time>2010-08-14T15:24:37Z</time>
      </trkpt>
      <trkpt lat="51.2179240" lon="7.6210590">
        <ele>391.8700000</ele>
        <time>2010-08-14T15:24:38Z</time>
      </trkpt>
      <trkpt lat="51.2179210" lon="7.6209610">
        <ele>391.3900000</ele>
        <time>2010-08-14T15:24:39Z</time>
      </trkpt>
      <trkpt lat="51.2178560" lon="7.6196990">
        <ele>395.2400000</ele>
        <time>2010-08-14T15:24:47Z</time>
      </trkpt>
      <trkpt lat="51.2178550" lon="7.6194780">
        <ele>395.7200000</ele>
        <time>2010-08-14T15:24:48Z</time>
      </trkpt>
      <trkpt lat="51.2178440" lon="7.6170320">
        <ele>405.3300000</ele>
        <time>2010-08-14T15:24:59Z</time>
      </trkpt>
      <trkpt lat="51.2178480" lon="7.6159990">
        <ele>408.2200000</ele>
        <time>2010-08-14T15:25:05Z</time>
      </trkpt>
      <trkpt lat="51.2178760" lon="7.6152010">
        <ele>409.6600000</ele>
        <time>2010-08-14T15:25:10Z</time>
      </trkpt>
      <trkpt lat="51.2179000" lon="7.6151210">
        <ele>410.1400000</ele>
        <time>2010-08-14T15:25:11Z</time>
      </trkpt>
      <trkpt lat="51.2179330" lon="7.6150540">
        <ele>410.6200000</ele>
        <time>2010-08-14T15:25:12Z</time>
      </trkpt>
      <trkpt lat="51.2179710" lon="7.6149980">
        <ele>410.6200000</ele>
        <time>2010-08-14T15:25:13Z</time>
      </trkpt>
      <trkpt lat="51.2180160" lon="7.6149470">
        <ele>411.1000000</ele>
        <time>2010-08-14T15:25:14Z</time>
      </trkpt>
      <trkpt lat="51.2180650" lon="7.6148920">
        <ele>411.5800000</ele>
        <time>2010-08-14T15:25:15Z</time>
      </trkpt>
      <trkpt lat="51.2187550" lon="7.6139450">
        <ele>423.1200000</ele>
        <time>2010-08-14T15:25:29Z</time>
      </trkpt>
      <trkpt lat="51.2188210" lon="7.6138580">
        <ele>422.1600000</ele>
        <time>2010-08-14T15:25:36Z</time>
      </trkpt>
      <trkpt lat="51.2188270" lon="7.6137680">
        <ele>422.1600000</ele>
        <time>2010-08-14T15:25:38Z</time>
      </trkpt>
      <trkpt lat="51.2187800" lon="7.6137010">
        <ele>422.6400000</ele>
        <time>2010-08-14T15:25:39Z</time>
      </trkpt>
      <trkpt lat="51.2187280" lon="7.6135850">
        <ele>423.6000000</ele>
        <time>2010-08-14T15:25:40Z</time>
      </trkpt>
      <trkpt lat="51.2186580" lon="7.6134640">
        <ele>424.0800000</ele>
        <time>2010-08-14T15:25:41Z</time>
      </trkpt>
      <trkpt lat="51.2185500" lon="7.6133360">
        <ele>423.6000000</ele>
        <time>2010-08-14T15:25:42Z</time>
      </trkpt>
      <trkpt lat="51.2184170" lon="7.6131940">
        <ele>423.1200000</ele>
        <time>2010-08-14T15:25:43Z</time>
      </trkpt>
      <trkpt lat="51.2182790" lon="7.6130630">
        <ele>423.1200000</ele>
        <time>2010-08-14T15:25:44Z</time>
      </trkpt>
      <trkpt lat="51.2171380" lon="7.6118620">
        <ele>417.8300000</ele>
        <time>2010-08-14T15:25:54Z</time>
      </trkpt>
      <trkpt lat="51.2160740" lon="7.6105040">
        <ele>425.0400000</ele>
        <time>2010-08-14T15:26:04Z</time>
      </trkpt>
      <trkpt lat="51.2159060" lon="7.6101970">
        <ele>423.1200000</ele>
        <time>2010-08-14T15:26:06Z</time>
      </trkpt>
      <trkpt lat="51.2158500" lon="7.6100250">
        <ele>422.6400000</ele>
        <time>2010-08-14T15:26:07Z</time>
      </trkpt>
      <trkpt lat="51.2158130" lon="7.6098400">
        <ele>421.6800000</ele>
        <time>2010-08-14T15:26:08Z</time>
      </trkpt>
      <trkpt lat="51.2157950" lon="7.6096230">
        <ele>421.6800000</ele>
        <time>2010-08-14T15:26:09Z</time>
      </trkpt>
      <trkpt lat="51.2157730" lon="7.6093870">
        <ele>420.7100000</ele>
        <time>2010-08-14T15:26:10Z</time>
      </trkpt>
      <trkpt lat="51.2153570" lon="7.6067100">
        <ele>415.4300000</ele>
        <time>2010-08-14T15:26:23Z</time>
      </trkpt>
      <trkpt lat="51.2147330" lon="7.6032770">
        <ele>414.4700000</ele>
        <time>2010-08-14T15:26:39Z</time>
      </trkpt>
      <trkpt lat="51.2143190" lon="7.6015160">
        <ele>412.5400000</ele>
        <time>2010-08-14T15:26:50Z</time>
      </trkpt>
      <trkpt lat="51.2139090" lon="7.6000280">
        <ele>409.1800000</ele>
        <time>2010-08-14T15:26:57Z</time>
      </trkpt>
      <trkpt lat="51.2132260" lon="7.5973490">
        <ele>399.5700000</ele>
        <time>2010-08-14T15:27:10Z</time>
      </trkpt>
      <trkpt lat="51.2126250" lon="7.5951670">
        <ele>390.9100000</ele>
        <time>2010-08-14T15:27:20Z</time>
      </trkpt>
      <trkpt lat="51.2121000" lon="7.5936180">
        <ele>387.0700000</ele>
        <time>2010-08-14T15:27:28Z</time>
      </trkpt>
      <trkpt lat="51.2120170" lon="7.5935160">
        <ele>386.5900000</ele>
        <time>2010-08-14T15:27:29Z</time>
      </trkpt>
      <trkpt lat="51.2119460" lon="7.5934410">
        <ele>386.5900000</ele>
        <time>2010-08-14T15:27:30Z</time>
      </trkpt>
      <trkpt lat="51.2119030" lon="7.5933690">
        <ele>386.5900000</ele>
        <time>2010-08-14T15:27:31Z</time>
      </trkpt>
      <trkpt lat="51.2118830" lon="7.5932880">
        <ele>386.1100000</ele>
        <time>2010-08-14T15:27:32Z</time>
      </trkpt>
      <trkpt lat="51.2118730" lon="7.5931840">
        <ele>386.1100000</ele>
        <time>2010-08-14T15:27:33Z</time>
      </trkpt>
      <trkpt lat="51.2118780" lon="7.5930570">
        <ele>385.6300000</ele>
        <time>2010-08-14T15:27:34Z</time>
      </trkpt>
      <trkpt lat="51.2118790" lon="7.5929010">
        <ele>385.1500000</ele>
        <time>2010-08-14T15:27:35Z</time>
      </trkpt>
      <trkpt lat="51.2118650" lon="7.5927210">
        <ele>385.1500000</ele>
        <time>2010-08-14T15:27:36Z</time>
      </trkpt>
      <trkpt lat="51.2118390" lon="7.5925230">
        <ele>384.6600000</ele>
        <time>2010-08-14T15:27:37Z</time>
      </trkpt>
      <trkpt lat="51.2118110" lon="7.5923180">
        <ele>384.6600000</ele>
        <time>2010-08-14T15:27:38Z</time>
      </trkpt>
      <trkpt lat="51.2114410" lon="7.5900840">
        <ele>372.1700000</ele>
        <time>2010-08-14T15:27:49Z</time>
      </trkpt>
      <trkpt lat="51.2108720" lon="7.5876870">
        <ele>356.7900000</ele>
        <time>2010-08-14T15:28:01Z</time>
      </trkpt>
      <trkpt lat="51.2108250" lon="7.5873340">
        <ele>354.8600000</ele>
        <time>2010-08-14T15:28:03Z</time>
      </trkpt>
      <trkpt lat="51.2108160" lon="7.5852090">
        <ele>347.6500000</ele>
        <time>2010-08-14T15:28:13Z</time>
      </trkpt>
      <trkpt lat="51.2110300" lon="7.5832460">
        <ele>341.8900000</ele>
        <time>2010-08-14T15:28:22Z</time>
      </trkpt>
      <trkpt lat="51.2116940" lon="7.5814040">
        <ele>334.2000000</ele>
        <time>2010-08-14T15:28:31Z</time>
      </trkpt>
      <trkpt lat="51.2119420" lon="7.5795690">
        <ele>326.0200000</ele>
        <time>2010-08-14T15:28:40Z</time>
      </trkpt>
      <trkpt lat="51.2118480" lon="7.5780010">
        <ele>319.7800000</ele>
        <time>2010-08-14T15:28:49Z</time>
      </trkpt>
      <trkpt lat="51.2118540" lon="7.5776620">
        <ele>318.3300000</ele>
        <time>2010-08-14T15:28:51Z</time>
      </trkpt>
      <trkpt lat="51.2118720" lon="7.5774970">
        <ele>317.8500000</ele>
        <time>2010-08-14T15:28:52Z</time>
      </trkpt>
      <trkpt lat="51.2122640" lon="7.5755760">
        <ele>312.5700000</ele>
        <time>2010-08-14T15:29:05Z</time>
      </trkpt>
      <trkpt lat="51.2127140" lon="7.5732980">
        <ele>304.8800000</ele>
        <time>2010-08-14T15:29:20Z</time>
      </trkpt>
      <trkpt lat="51.2129620" lon="7.5714350">
        <ele>296.2200000</ele>
        <time>2010-08-14T15:29:33Z</time>
      </trkpt>
      <trkpt lat="51.2130370" lon="7.5706400">
        <ele>294.7800000</ele>
        <time>2010-08-14T15:29:38Z</time>
      </trkpt>
      <trkpt lat="51.2130250" lon="7.5704800">
        <ele>294.3000000</ele>
        <time>2010-08-14T15:29:39Z</time>
      </trkpt>
      <trkpt lat="51.2130010" lon="7.5703170">
        <ele>293.8200000</ele>
        <time>2010-08-14T15:29:40Z</time>
      </trkpt>
      <trkpt lat="51.2129690" lon="7.5701540">
        <ele>292.8600000</ele>
        <time>2010-08-14T15:29:41Z</time>
      </trkpt>
      <trkpt lat="51.2129310" lon="7.5699930">
        <ele>292.8600000</ele>
        <time>2010-08-14T15:29:42Z</time>
      </trkpt>
      <trkpt lat="51.2126040" lon="7.5684920">
        <ele>288.0500000</ele>
        <time>2010-08-14T15:29:52Z</time>
      </trkpt>
      <trkpt lat="51.2122910" lon="7.5667200">
        <ele>285.6500000</ele>
        <time>2010-08-14T15:30:03Z</time>
      </trkpt>
      <trkpt lat="51.2122350" lon="7.5665730">
        <ele>285.6500000</ele>
        <time>2010-08-14T15:30:04Z</time>
      </trkpt>
      <trkpt lat="51.2121670" lon="7.5664590">
        <ele>285.6500000</ele>
        <time>2010-08-14T15:30:05Z</time>
      </trkpt>
      <trkpt lat="51.2120940" lon="7.5663630">
        <ele>284.2100000</ele>
        <time>2010-08-14T15:30:06Z</time>
      </trkpt>
      <trkpt lat="51.2120120" lon="7.5662860">
        <ele>282.2800000</ele>
        <time>2010-08-14T15:30:07Z</time>
      </trkpt>
      <trkpt lat="51.2119170" lon="7.5662290">
        <ele>280.3600000</ele>
        <time>2010-08-14T15:30:08Z</time>
      </trkpt>
      <trkpt lat="51.2118260" lon="7.5661790">
        <ele>277.4800000</ele>
        <time>2010-08-14T15:30:09Z</time>
      </trkpt>
      <trkpt lat="51.2114970" lon="7.5659820">
        <ele>273.1500000</ele>
        <time>2010-08-14T15:30:13Z</time>
      </trkpt>
      <trkpt lat="51.2114580" lon="7.5658950">
        <ele>272.6700000</ele>
        <time>2010-08-14T15:30:14Z</time>
      </trkpt>
      <trkpt lat="51.2114220" lon="7.5658020">
        <ele>272.6700000</ele>
        <time>2010-08-14T15:30:20Z</time>
      </trkpt>
      <trkpt lat="51.2113880" lon="7.5657720">
        <ele>272.6700000</ele>
        <time>2010-08-14T15:30:21Z</time>
      </trkpt>
      <trkpt lat="51.2113300" lon="7.5657710">
        <ele>271.7100000</ele>
        <time>2010-08-14T15:30:22Z</time>
      </trkpt>
      <trkpt lat="51.2112440" lon="7.5658050">
        <ele>270.7500000</ele>
        <time>2010-08-14T15:30:23Z</time>
      </trkpt>
      <trkpt lat="51.2111430" lon="7.5658620">
        <ele>270.2700000</ele>
        <time>2010-08-14T15:30:24Z</time>
      </trkpt>
      <trkpt lat="51.2110210" lon="7.5659580">
        <ele>270.7500000</ele>
        <time>2010-08-14T15:30:25Z</time>
      </trkpt>
      <trkpt lat="51.2109120" lon="7.5660500">
        <ele>270.2700000</ele>
        <time>2010-08-14T15:30:26Z</time>
      </trkpt>
      <trkpt lat="51.2099360" lon="7.5670760">
        <ele>265.4600000</ele>
        <time>2010-08-14T15:30:36Z</time>
      </trkpt>
      <trkpt lat="51.2094450" lon="7.5678440">
        <ele>264.9800000</ele>
        <time>2010-08-14T15:30:42Z</time>
      </trkpt>
      <trkpt lat="51.2094030" lon="7.5680280">
        <ele>265.4600000</ele>
        <time>2010-08-14T15:30:43Z</time>
      </trkpt>
      <trkpt lat="51.2090630" lon="7.5694390">
        <ele>265.4600000</ele>
        <time>2010-08-14T15:30:52Z</time>
      </trkpt>
      <trkpt lat="51.2090260" lon="7.5694980">
        <ele>264.9800000</ele>
        <time>2010-08-14T15:30:53Z</time>
      </trkpt>
      <trkpt lat="51.2089630" lon="7.5695010">
        <ele>265.9400000</ele>
        <time>2010-08-14T15:30:54Z</time>
      </trkpt>
      <trkpt lat="51.2088880" lon="7.5694960">
        <ele>267.8600000</ele>
        <time>2010-08-14T15:30:55Z</time>
      </trkpt>
      <trkpt lat="51.2088270" lon="7.5694430">
        <ele>268.3500000</ele>
        <time>2010-08-14T15:30:56Z</time>
      </trkpt>
      <trkpt lat="51.2087580" lon="7.5693910">
        <ele>269.7900000</ele>
        <time>2010-08-14T15:30:57Z</time>
      </trkpt>
      <trkpt lat="51.2085690" lon="7.5691920">
        <ele>271.7100000</ele>
        <time>2010-08-14T15:31:00Z</time>
      </trkpt>
      <trkpt lat="51.2085170" lon="7.5691120">
        <ele>272.1900000</ele>
        <time>2010-08-14T15:31:01Z</time>
      </trkpt>
      <trkpt lat="51.2084760" lon="7.5690200">
        <ele>272.6700000</ele>
        <time>2010-08-14T15:31:02Z</time>
      </trkpt>
      <trkpt lat="51.2084580" lon="7.5688780">
        <ele>273.1500000</ele>
        <time>2010-08-14T15:31:03Z</time>
      </trkpt>
      <trkpt lat="51.2084530" lon="7.5687420">
        <ele>273.6300000</ele>
        <time>2010-08-14T15:31:04Z</time>
      </trkpt>
      <trkpt lat="51.2084660" lon="7.5685970">
        <ele>274.1100000</ele>
        <time>2010-08-14T15:31:05Z</time>
      </trkpt>
      <trkpt lat="51.2084870" lon="7.5684560">
        <ele>275.0700000</ele>
        <time>2010-08-14T15:31:06Z</time>
      </trkpt>
      <trkpt lat="51.2085000" lon="7.5683180">
        <ele>275.5600000</ele>
        <time>2010-08-14T15:31:07Z</time>
      </trkpt>
      <trkpt lat="51.2084980" lon="7.5681820">
        <ele>276.0400000</ele>
        <time>2010-08-14T15:31:08Z</time>
      </trkpt>
      <trkpt lat="51.2084810" lon="7.5680510">
        <ele>276.5200000</ele>
        <time>2010-08-14T15:31:09Z</time>
      </trkpt>
      <trkpt lat="51.2084480" lon="7.5679290">
        <ele>276.5200000</ele>
        <time>2010-08-14T15:31:10Z</time>
      </trkpt>
      <trkpt lat="51.2084070" lon="7.5678100">
        <ele>277.0000000</ele>
        <time>2010-08-14T15:31:11Z</time>
      </trkpt>
      <trkpt lat="51.2082320" lon="7.5672300">
        <ele>277.4800000</ele>
        <time>2010-08-14T15:31:15Z</time>
      </trkpt>
      <trkpt lat="51.2082120" lon="7.5670590">
        <ele>277.4800000</ele>
        <time>2010-08-14T15:31:16Z</time>
      </trkpt>
      <trkpt lat="51.2082150" lon="7.5668810">
        <ele>277.4800000</ele>
        <time>2010-08-14T15:31:17Z</time>
      </trkpt>
      <trkpt lat="51.2082400" lon="7.5666980">
        <ele>277.4800000</ele>
        <time>2010-08-14T15:31:18Z</time>
      </trkpt>
      <trkpt lat="51.2082740" lon="7.5665240">
        <ele>277.4800000</ele>
        <time>2010-08-14T15:31:19Z</time>
      </trkpt>
      <trkpt lat="51.2083230" lon="7.5663520">
        <ele>277.9600000</ele>
        <time>2010-08-14T15:31:20Z</time>
      </trkpt>
      <trkpt lat="51.2083770" lon="7.5661850">
        <ele>277.9600000</ele>
        <time>2010-08-14T15:31:21Z</time>
      </trkpt>
      <trkpt lat="51.2084440" lon="7.5660220">
        <ele>277.9600000</ele>
        <time>2010-08-14T15:31:22Z</time>
      </trkpt>
      <trkpt lat="51.2085120" lon="7.5658630">
        <ele>277.4800000</ele>
        <time>2010-08-14T15:31:23Z</time>
      </trkpt>
      <trkpt lat="51.2086090" lon="7.5655170">
        <ele>277.4800000</ele>
        <time>2010-08-14T15:31:25Z</time>
      </trkpt>
      <trkpt lat="51.2086350" lon="7.5653490">
        <ele>277.9600000</ele>
        <time>2010-08-14T15:31:26Z</time>
      </trkpt>
      <trkpt lat="51.2086120" lon="7.5651720">
        <ele>277.9600000</ele>
        <time>2010-08-14T15:31:27Z</time>
      </trkpt>
      <trkpt lat="51.2085710" lon="7.5650010">
        <ele>277.9600000</ele>
        <time>2010-08-14T15:31:28Z</time>
      </trkpt>
      <trkpt lat="51.2085190" lon="7.5648230">
        <ele>278.9200000</ele>
        <time>2010-08-14T15:31:29Z</time>
      </trkpt>
      <trkpt lat="51.2084800" lon="7.5646420">
        <ele>278.9200000</ele>
        <time>2010-08-14T15:31:30Z</time>
      </trkpt>
      <trkpt lat="51.2084470" lon="7.5644520">
        <ele>279.4000000</ele>
        <time>2010-08-14T15:31:31Z</time>
      </trkpt>
      <trkpt lat="51.2084180" lon="7.5642560">
        <ele>280.3600000</ele>
        <time>2010-08-14T15:31:32Z</time>
      </trkpt>
      <trkpt lat="51.2084540" lon="7.5624010">
        <ele>286.6100000</ele>
        <time>2010-08-14T15:31:41Z</time>
      </trkpt>
      <trkpt lat="51.2085360" lon="7.5602170">
        <ele>296.2200000</ele>
        <time>2010-08-14T15:31:52Z</time>
      </trkpt>
      <trkpt lat="51.2085120" lon="7.5600110">
        <ele>297.6700000</ele>
        <time>2010-08-14T15:31:53Z</time>
      </trkpt>
      <trkpt lat="51.2084790" lon="7.5598050">
        <ele>298.1500000</ele>
        <time>2010-08-14T15:31:54Z</time>
      </trkpt>
      <trkpt lat="51.2084350" lon="7.5596030">
        <ele>299.5900000</ele>
        <time>2010-08-14T15:31:55Z</time>
      </trkpt>
      <trkpt lat="51.2083810" lon="7.5594090">
        <ele>300.5500000</ele>
        <time>2010-08-14T15:31:56Z</time>
      </trkpt>
      <trkpt lat="51.2082890" lon="7.5592500">
        <ele>301.9900000</ele>
        <time>2010-08-14T15:31:57Z</time>
      </trkpt>
      <trkpt lat="51.2082120" lon="7.5590860">
        <ele>302.9500000</ele>
        <time>2010-08-14T15:31:58Z</time>
      </trkpt>
      <trkpt lat="51.2081250" lon="7.5589530">
        <ele>302.9500000</ele>
        <time>2010-08-14T15:31:59Z</time>
      </trkpt>
      <trkpt lat="51.2080320" lon="7.5588390">
        <ele>303.4300000</ele>
        <time>2010-08-14T15:32:00Z</time>
      </trkpt>
      <trkpt lat="51.2079470" lon="7.5587360">
        <ele>304.3900000</ele>
        <time>2010-08-14T15:32:01Z</time>
      </trkpt>
      <trkpt lat="51.2077510" lon="7.5585140">
        <ele>305.3600000</ele>
        <time>2010-08-14T15:32:04Z</time>
      </trkpt>
      <trkpt lat="51.2077090" lon="7.5584350">
        <ele>306.3200000</ele>
        <time>2010-08-14T15:32:05Z</time>
      </trkpt>
      <trkpt lat="51.2077240" lon="7.5583500">
        <ele>306.3200000</ele>
        <time>2010-08-14T15:32:06Z</time>
      </trkpt>
      <trkpt lat="51.2077670" lon="7.5582790">
        <ele>307.2800000</ele>
        <time>2010-08-14T15:32:07Z</time>
      </trkpt>
      <trkpt lat="51.2078380" lon="7.5582570">
        <ele>308.2400000</ele>
        <time>2010-08-14T15:32:08Z</time>
      </trkpt>
      <trkpt lat="51.2079200" lon="7.5582410">
        <ele>308.7200000</ele>
        <time>2010-08-14T15:32:09Z</time>
      </trkpt>
      <trkpt lat="51.2080100" lon="7.5582400">
        <ele>309.2000000</ele>
        <time>2010-08-14T15:32:10Z</time>
      </trkpt>
      <trkpt lat="51.2081040" lon="7.5582400">
        <ele>309.6800000</ele>
        <time>2010-08-14T15:32:11Z</time>
      </trkpt>
      <trkpt lat="51.2086540" lon="7.5583820">
        <ele>316.4100000</ele>
        <time>2010-08-14T15:32:17Z</time>
      </trkpt>
      <trkpt lat="51.2087200" lon="7.5584280">
        <ele>316.8900000</ele>
        <time>2010-08-14T15:32:18Z</time>
      </trkpt>
      <trkpt lat="51.2088720" lon="7.5585140">
        <ele>317.8500000</ele>
        <time>2010-08-14T15:32:20Z</time>
      </trkpt>
      <trkpt lat="51.2089500" lon="7.5585230">
        <ele>318.3300000</ele>
        <time>2010-08-14T15:32:21Z</time>
      </trkpt>
      <trkpt lat="51.2090430" lon="7.5584920">
        <ele>318.3300000</ele>
        <time>2010-08-14T15:32:22Z</time>
      </trkpt>
      <trkpt lat="51.2091360" lon="7.5584360">
        <ele>318.8100000</ele>
        <time>2010-08-14T15:32:23Z</time>
      </trkpt>
      <trkpt lat="51.2092310" lon="7.5583630">
        <ele>319.3000000</ele>
        <time>2010-08-14T15:32:24Z</time>
      </trkpt>
      <trkpt lat="51.2093280" lon="7.5582760">
        <ele>319.7800000</ele>
        <time>2010-08-14T15:32:25Z</time>
      </trkpt>
      <trkpt lat="51.2096880" lon="7.5578250">
        <ele>321.7000000</ele>
        <time>2010-08-14T15:32:29Z</time>
      </trkpt>
      <trkpt lat="51.2097680" lon="7.5576720">
        <ele>322.1800000</ele>
        <time>2010-08-14T15:32:30Z</time>
      </trkpt>
      <trkpt lat="51.2098410" lon="7.5575020">
        <ele>322.6600000</ele>
        <time>2010-08-14T15:32:31Z</time>
      </trkpt>
      <trkpt lat="51.2099060" lon="7.5573200">
        <ele>323.1400000</ele>
        <time>2010-08-14T15:32:32Z</time>
      </trkpt>
      <trkpt lat="51.2099680" lon="7.5571300">
        <ele>323.6200000</ele>
        <time>2010-08-14T15:32:33Z</time>
      </trkpt>
      <trkpt lat="51.2104330" lon="7.5551550">
        <ele>329.3900000</ele>
        <time>2010-08-14T15:32:42Z</time>
      </trkpt>
      <trkpt lat="51.2108730" lon="7.5526200">
        <ele>335.6400000</ele>
        <time>2010-08-14T15:32:53Z</time>
      </trkpt>
      <trkpt lat="51.2109070" lon="7.5507360">
        <ele>335.1600000</ele>
        <time>2010-08-14T15:33:00Z</time>
      </trkpt>
      <trkpt lat="51.2106820" lon="7.5486490">
        <ele>329.3900000</ele>
        <time>2010-08-14T15:33:05Z</time>
      </trkpt>
      <trkpt lat="51.2103500" lon="7.5460940">
        <ele>319.7800000</ele>
        <time>2010-08-14T15:33:12Z</time>
      </trkpt>
      <trkpt lat="51.2097370" lon="7.5427660">
        <ele>306.8000000</ele>
        <time>2010-08-14T15:33:20Z</time>
      </trkpt>
      <trkpt lat="51.2093400" lon="7.5405880">
        <ele>297.6700000</ele>
        <time>2010-08-14T15:33:27Z</time>
      </trkpt>
      <trkpt lat="51.2090230" lon="7.5393450">
        <ele>293.8200000</ele>
        <time>2010-08-14T15:33:32Z</time>
      </trkpt>
      <trkpt lat="51.2089270" lon="7.5391300">
        <ele>293.8200000</ele>
        <time>2010-08-14T15:33:33Z</time>
      </trkpt>
      <trkpt lat="51.2080230" lon="7.5371690">
        <ele>293.8200000</ele>
        <time>2010-08-14T15:33:41Z</time>
      </trkpt>
      <trkpt lat="51.2079420" lon="7.5368030">
        <ele>294.3000000</ele>
        <time>2010-08-14T15:33:42Z</time>
      </trkpt>
      <trkpt lat="51.2073200" lon="7.5340660">
        <ele>302.4700000</ele>
        <time>2010-08-14T15:33:49Z</time>
      </trkpt>
      <trkpt lat="51.2068700" lon="7.5320870">
        <ele>307.2800000</ele>
        <time>2010-08-14T15:33:56Z</time>
      </trkpt>
      <trkpt lat="51.2063530" lon="7.5299370">
        <ele>308.7200000</ele>
        <time>2010-08-14T15:34:03Z</time>
      </trkpt>
      <trkpt lat="51.2056790" lon="7.5270020">
        <ele>308.2400000</ele>
        <time>2010-08-14T15:34:13Z</time>
      </trkpt>
      <trkpt lat="51.2048690" lon="7.5234720">
        <ele>314.0100000</ele>
        <time>2010-08-14T15:34:25Z</time>
      </trkpt>
      <trkpt lat="51.2037450" lon="7.5187320">
        <ele>331.7900000</ele>
        <time>2010-08-14T15:34:41Z</time>
      </trkpt>
      <trkpt lat="51.2033410" lon="7.5177950">
        <ele>336.1200000</ele>
        <time>2010-08-14T15:34:45Z</time>
      </trkpt>
      <trkpt lat="51.2032090" lon="7.5176020">
        <ele>337.0800000</ele>
        <time>2010-08-14T15:34:46Z</time>
      </trkpt>
      <trkpt lat="51.2030380" lon="7.5174880">
        <ele>339.0000000</ele>
        <time>2010-08-14T15:34:47Z</time>
      </trkpt>
      <trkpt lat="51.2028970" lon="7.5173470">
        <ele>339.9600000</ele>
        <time>2010-08-14T15:34:48Z</time>
      </trkpt>
      <trkpt lat="51.2027330" lon="7.5172450">
        <ele>341.4100000</ele>
        <time>2010-08-14T15:34:49Z</time>
      </trkpt>
      <trkpt lat="51.2025660" lon="7.5171610">
        <ele>341.8900000</ele>
        <time>2010-08-14T15:34:50Z</time>
      </trkpt>
      <trkpt lat="51.2023790" lon="7.5171250">
        <ele>342.8500000</ele>
        <time>2010-08-14T15:34:51Z</time>
      </trkpt>
      <trkpt lat="51.2021920" lon="7.5171170">
        <ele>343.8100000</ele>
        <time>2010-08-14T15:34:52Z</time>
      </trkpt>
      <trkpt lat="51.2020060" lon="7.5171090">
        <ele>345.2500000</ele>
        <time>2010-08-14T15:34:53Z</time>
      </trkpt>
      <trkpt lat="51.2011220" lon="7.5173160">
        <ele>351.9800000</ele>
        <time>2010-08-14T15:34:58Z</time>
      </trkpt>
      <trkpt lat="51.1995900" lon="7.5176560">
        <ele>361.1100000</ele>
        <time>2010-08-14T15:35:07Z</time>
      </trkpt>
      <trkpt lat="51.1983190" lon="7.5171390">
        <ele>376.4900000</ele>
        <time>2010-08-14T15:35:15Z</time>
      </trkpt>
      <trkpt lat="51.1981940" lon="7.5170230">
        <ele>378.4200000</ele>
        <time>2010-08-14T15:35:16Z</time>
      </trkpt>
      <trkpt lat="51.1978650" lon="7.5165380">
        <ele>378.9000000</ele>
        <time>2010-08-14T15:35:19Z</time>
      </trkpt>
      <trkpt lat="51.1977680" lon="7.5163300">
        <ele>378.9000000</ele>
        <time>2010-08-14T15:35:20Z</time>
      </trkpt>
      <trkpt lat="51.1976760" lon="7.5161040">
        <ele>378.9000000</ele>
        <time>2010-08-14T15:35:21Z</time>
      </trkpt>
      <trkpt lat="51.1968570" lon="7.5141380">
        <ele>385.1500000</ele>
        <time>2010-08-14T15:35:30Z</time>
      </trkpt>
      <trkpt lat="51.1958960" lon="7.5121290">
        <ele>391.8700000</ele>
        <time>2010-08-14T15:35:39Z</time>
      </trkpt>
      <trkpt lat="51.1953730" lon="7.5108880">
        <ele>396.2000000</ele>
        <time>2010-08-14T15:35:45Z</time>
      </trkpt>
      <trkpt lat="51.1952600" lon="7.5107230">
        <ele>397.1600000</ele>
        <time>2010-08-14T15:35:46Z</time>
      </trkpt>
      <trkpt lat="51.1951400" lon="7.5105630">
        <ele>398.1200000</ele>
        <time>2010-08-14T15:35:47Z</time>
      </trkpt>
      <trkpt lat="51.1941310" lon="7.5092880">
        <ele>404.8500000</ele>
        <time>2010-08-14T15:35:55Z</time>
      </trkpt>
      <trkpt lat="51.1934980" lon="7.5079970">
        <ele>409.1800000</ele>
        <time>2010-08-14T15:36:03Z</time>
      </trkpt>
      <trkpt lat="51.1927280" lon="7.5057020">
        <ele>413.9800000</ele>
        <time>2010-08-14T15:36:15Z</time>
      </trkpt>
      <trkpt lat="51.1923910" lon="7.5048150">
        <ele>415.4300000</ele>
        <time>2010-08-14T15:36:20Z</time>
      </trkpt>
      <trkpt lat="51.1922780" lon="7.5046740">
        <ele>415.4300000</ele>
        <time>2010-08-14T15:36:21Z</time>
      </trkpt>
      <trkpt lat="51.1921280" lon="7.5045580">
        <ele>415.9100000</ele>
        <time>2010-08-14T15:36:22Z</time>
      </trkpt>
      <trkpt lat="51.1919640" lon="7.5044560">
        <ele>416.3900000</ele>
        <time>2010-08-14T15:36:23Z</time>
      </trkpt>
      <trkpt lat="51.1917890" lon="7.5043840">
        <ele>417.3500000</ele>
        <time>2010-08-14T15:36:24Z</time>
      </trkpt>
      <trkpt lat="51.1916060" lon="7.5043390">
        <ele>417.8300000</ele>
        <time>2010-08-14T15:36:25Z</time>
      </trkpt>
      <trkpt lat="51.1914280" lon="7.5043140">
        <ele>418.3100000</ele>
        <time>2010-08-14T15:36:26Z</time>
      </trkpt>
      <trkpt lat="51.1912630" lon="7.5042950">
        <ele>419.2700000</ele>
        <time>2010-08-14T15:36:27Z</time>
      </trkpt>
      <trkpt lat="51.1907500" lon="7.5041260">
        <ele>420.2300000</ele>
        <time>2010-08-14T15:36:32Z</time>
      </trkpt>
      <trkpt lat="51.1907250" lon="7.5040840">
        <ele>420.2300000</ele>
        <time>2010-08-14T15:36:33Z</time>
      </trkpt>
      <trkpt lat="51.1907120" lon="7.5040620">
        <ele>420.2300000</ele>
        <time>2010-08-14T15:36:34Z</time>
      </trkpt>
      <trkpt lat="51.1906910" lon="7.5039800">
        <ele>419.2700000</ele>
        <time>2010-08-14T15:36:43Z</time>
      </trkpt>
      <trkpt lat="51.1906770" lon="7.5039110">
        <ele>419.2700000</ele>
        <time>2010-08-14T15:36:44Z</time>
      </trkpt>
      <trkpt lat="51.1906760" lon="7.5038210">
        <ele>419.2700000</ele>
        <time>2010-08-14T15:36:45Z</time>
      </trkpt>
      <trkpt lat="51.1907080" lon="7.5036640">
        <ele>418.7900000</ele>
        <time>2010-08-14T15:36:46Z</time>
      </trkpt>
      <trkpt lat="51.1907640" lon="7.5034610">
        <ele>418.7900000</ele>
        <time>2010-08-14T15:36:47Z</time>
      </trkpt>
      <trkpt lat="51.1908240" lon="7.5032400">
        <ele>418.7900000</ele>
        <time>2010-08-14T15:36:48Z</time>
      </trkpt>
      <trkpt lat="51.1910100" lon="7.5017650">
        <ele>418.3100000</ele>
        <time>2010-08-14T15:36:53Z</time>
      </trkpt>
      <trkpt lat="51.1908880" lon="7.4992890">
        <ele>419.7500000</ele>
        <time>2010-08-14T15:37:01Z</time>
      </trkpt>
      <trkpt lat="51.1910480" lon="7.4972530">
        <ele>421.6800000</ele>
        <time>2010-08-14T15:37:07Z</time>
      </trkpt>
      <trkpt lat="51.1910640" lon="7.4951620">
        <ele>423.6000000</ele>
        <time>2010-08-14T15:37:13Z</time>
      </trkpt>
      <trkpt lat="51.1910780" lon="7.4926560">
        <ele>426.4800000</ele>
        <time>2010-08-14T15:37:20Z</time>
      </trkpt>
      <trkpt lat="51.1909700" lon="7.4904900">
        <ele>428.8900000</ele>
        <time>2010-08-14T15:37:26Z</time>
      </trkpt>
      <trkpt lat="51.1906190" lon="7.4881650">
        <ele>430.8100000</ele>
        <time>2010-08-14T15:37:34Z</time>
      </trkpt>
      <trkpt lat="51.1907240" lon="7.4861970">
        <ele>428.4000000</ele>
        <time>2010-08-14T15:37:42Z</time>
      </trkpt>
      <trkpt lat="51.1910950" lon="7.4834700">
        <ele>421.1900000</ele>
        <time>2010-08-14T15:37:53Z</time>
      </trkpt>
      <trkpt lat="51.1910800" lon="7.4832100">
        <ele>420.2300000</ele>
        <time>2010-08-14T15:37:54Z</time>
      </trkpt>
      <trkpt lat="51.1910520" lon="7.4829520">
        <ele>419.7500000</ele>
        <time>2010-08-14T15:37:55Z</time>
      </trkpt>
      <trkpt lat="51.1910090" lon="7.4826980">
        <ele>418.7900000</ele>
        <time>2010-08-14T15:37:56Z</time>
      </trkpt>
      <trkpt lat="51.1909520" lon="7.4824510">
        <ele>418.3100000</ele>
        <time>2010-08-14T15:37:57Z</time>
      </trkpt>
      <trkpt lat="51.1908840" lon="7.4822130">
        <ele>417.3500000</ele>
        <time>2010-08-14T15:37:58Z</time>
      </trkpt>
      <trkpt lat="51.1906220" lon="7.4812990">
        <ele>414.4700000</ele>
        <time>2010-08-14T15:38:02Z</time>
      </trkpt>
      <trkpt lat="51.1905950" lon="7.4810420">
        <ele>413.5000000</ele>
        <time>2010-08-14T15:38:03Z</time>
      </trkpt>
      <trkpt lat="51.1906050" lon="7.4807690">
        <ele>412.5400000</ele>
        <time>2010-08-14T15:38:04Z</time>
      </trkpt>
      <trkpt lat="51.1906480" lon="7.4804920">
        <ele>411.1000000</ele>
        <time>2010-08-14T15:38:05Z</time>
      </trkpt>
      <trkpt lat="51.1907240" lon="7.4802220">
        <ele>410.1400000</ele>
        <time>2010-08-14T15:38:06Z</time>
      </trkpt>
      <trkpt lat="51.1908260" lon="7.4799790">
        <ele>409.6600000</ele>
        <time>2010-08-14T15:38:07Z</time>
      </trkpt>
      <trkpt lat="51.1909390" lon="7.4797450">
        <ele>408.7000000</ele>
        <time>2010-08-14T15:38:08Z</time>
      </trkpt>
      <trkpt lat="51.1910520" lon="7.4795090">
        <ele>407.7400000</ele>
        <time>2010-08-14T15:38:09Z</time>
      </trkpt>
      <trkpt lat="51.1912460" lon="7.4790140">
        <ele>406.2900000</ele>
        <time>2010-08-14T15:38:11Z</time>
      </trkpt>
      <trkpt lat="51.1913140" lon="7.4787550">
        <ele>405.8100000</ele>
        <time>2010-08-14T15:38:12Z</time>
      </trkpt>
      <trkpt lat="51.1913580" lon="7.4784910">
        <ele>404.8500000</ele>
        <time>2010-08-14T15:38:13Z</time>
      </trkpt>
      <trkpt lat="51.1913680" lon="7.4782290">
        <ele>404.3700000</ele>
        <time>2010-08-14T15:38:14Z</time>
      </trkpt>
      <trkpt lat="51.1913340" lon="7.4779580">
        <ele>403.4100000</ele>
        <time>2010-08-14T15:38:15Z</time>
      </trkpt>
      <trkpt lat="51.1912990" lon="7.4776940">
        <ele>402.4500000</ele>
        <time>2010-08-14T15:38:16Z</time>
      </trkpt>
      <trkpt lat="51.1912510" lon="7.4774260">
        <ele>401.4900000</ele>
        <time>2010-08-14T15:38:17Z</time>
      </trkpt>
      <trkpt lat="51.1911980" lon="7.4771660">
        <ele>400.5300000</ele>
        <time>2010-08-14T15:38:18Z</time>
      </trkpt>
      <trkpt lat="51.1909990" lon="7.4758060">
        <ele>395.7200000</ele>
        <time>2010-08-14T15:38:23Z</time>
      </trkpt>
      <trkpt lat="51.1910120" lon="7.4755030">
        <ele>395.2400000</ele>
        <time>2010-08-14T15:38:24Z</time>
      </trkpt>
      <trkpt lat="51.1910450" lon="7.4751990">
        <ele>394.2800000</ele>
        <time>2010-08-14T15:38:25Z</time>
      </trkpt>
      <trkpt lat="51.1911010" lon="7.4749010">
        <ele>393.3200000</ele>
        <time>2010-08-14T15:38:26Z</time>
      </trkpt>
      <trkpt lat="51.1911840" lon="7.4746140">
        <ele>391.8700000</ele>
        <time>2010-08-14T15:38:27Z</time>
      </trkpt>
      <trkpt lat="51.1912890" lon="7.4743430">
        <ele>390.4300000</ele>
        <time>2010-08-14T15:38:28Z</time>
      </trkpt>
      <trkpt lat="51.1914150" lon="7.4740920">
        <ele>389.9500000</ele>
        <time>2010-08-14T15:38:29Z</time>
      </trkpt>
      <trkpt lat="51.1915440" lon="7.4738600">
        <ele>389.4700000</ele>
        <time>2010-08-14T15:38:30Z</time>
      </trkpt>
      <trkpt lat="51.1916710" lon="7.4736350">
        <ele>388.5100000</ele>
        <time>2010-08-14T15:38:31Z</time>
      </trkpt>
      <trkpt lat="51.1924410" lon="7.4717310">
        <ele>379.8600000</ele>
        <time>2010-08-14T15:38:39Z</time>
      </trkpt>
      <trkpt lat="51.1928370" lon="7.4691840">
        <ele>372.6500000</ele>
        <time>2010-08-14T15:38:48Z</time>
      </trkpt>
      <trkpt lat="51.1928050" lon="7.4665300">
        <ele>365.9200000</ele>
        <time>2010-08-14T15:38:56Z</time>
      </trkpt>
      <trkpt lat="51.1925630" lon="7.4627970">
        <ele>355.8300000</ele>
        <time>2010-08-14T15:39:07Z</time>
      </trkpt>
      <trkpt lat="51.1925620" lon="7.4588820">
        <ele>344.7700000</ele>
        <time>2010-08-14T15:39:18Z</time>
      </trkpt>
      <trkpt lat="51.1928430" lon="7.4556920">
        <ele>341.4100000</ele>
        <time>2010-08-14T15:39:28Z</time>
      </trkpt>
      <trkpt lat="51.1930600" lon="7.4535360">
        <ele>344.2900000</ele>
        <time>2010-08-14T15:39:33Z</time>
      </trkpt>
      <trkpt lat="51.1930690" lon="7.4501350">
        <ele>352.9400000</ele>
        <time>2010-08-14T15:39:40Z</time>
      </trkpt>
      <trkpt lat="51.1927020" lon="7.4470360">
        <ele>362.0700000</ele>
        <time>2010-08-14T15:39:46Z</time>
      </trkpt>
      <trkpt lat="51.1923670" lon="7.4443920">
        <ele>371.2100000</ele>
        <time>2010-08-14T15:39:52Z</time>
      </trkpt>
      <trkpt lat="51.1919130" lon="7.4415650">
        <ele>380.8200000</ele>
        <time>2010-08-14T15:40:00Z</time>
      </trkpt>
      <trkpt lat="51.1914620" lon="7.4389660">
        <ele>388.9900000</ele>
        <time>2010-08-14T15:40:09Z</time>
      </trkpt>
      <trkpt lat="51.1914390" lon="7.4373570">
        <ele>394.2800000</ele>
        <time>2010-08-14T15:40:15Z</time>
      </trkpt>
      <trkpt lat="51.1916110" lon="7.4349560">
        <ele>400.0500000</ele>
        <time>2010-08-14T15:40:21Z</time>
      </trkpt>
      <trkpt lat="51.1920190" lon="7.4313110">
        <ele>411.5800000</ele>
        <time>2010-08-14T15:40:31Z</time>
      </trkpt>
      <trkpt lat="51.1926560" lon="7.4294570">
        <ele>412.5400000</ele>
        <time>2010-08-14T15:40:37Z</time>
      </trkpt>
      <trkpt lat="51.1937350" lon="7.4272990">
        <ele>411.5800000</ele>
        <time>2010-08-14T15:40:43Z</time>
      </trkpt>
      <trkpt lat="51.1952800" lon="7.4242650">
        <ele>408.2200000</ele>
        <time>2010-08-14T15:40:50Z</time>
      </trkpt>
      <trkpt lat="51.1966620" lon="7.4210720">
        <ele>413.5000000</ele>
        <time>2010-08-14T15:40:58Z</time>
      </trkpt>
      <trkpt lat="51.1968630" lon="7.4201530">
        <ele>416.3900000</ele>
        <time>2010-08-14T15:41:00Z</time>
      </trkpt>
      <trkpt lat="51.1971840" lon="7.4177420">
        <ele>419.7500000</ele>
        <time>2010-08-14T15:41:06Z</time>
      </trkpt>
      <trkpt lat="51.1976610" lon="7.4145460">
        <ele>418.3100000</ele>
        <time>2010-08-14T15:41:16Z</time>
      </trkpt>
      <trkpt lat="51.1977550" lon="7.4143610">
        <ele>418.3100000</ele>
        <time>2010-08-14T15:41:17Z</time>
      </trkpt>
      <trkpt lat="51.1978860" lon="7.4142060">
        <ele>417.8300000</ele>
        <time>2010-08-14T15:41:18Z</time>
      </trkpt>
      <trkpt lat="51.1980410" lon="7.4140610">
        <ele>417.8300000</ele>
        <time>2010-08-14T15:41:19Z</time>
      </trkpt>
      <trkpt lat="51.1982250" lon="7.4139350">
        <ele>418.3100000</ele>
        <time>2010-08-14T15:41:20Z</time>
      </trkpt>
      <trkpt lat="51.1984350" lon="7.4139100">
        <ele>417.8300000</ele>
        <time>2010-08-14T15:41:21Z</time>
      </trkpt>
      <trkpt lat="51.1986520" lon="7.4139050">
        <ele>417.3500000</ele>
        <time>2010-08-14T15:41:22Z</time>
      </trkpt>
      <trkpt lat="51.1988660" lon="7.4138860">
        <ele>418.3100000</ele>
        <time>2010-08-14T15:41:23Z</time>
      </trkpt>
      <trkpt lat="51.1992630" lon="7.4137670">
        <ele>419.2700000</ele>
        <time>2010-08-14T15:41:25Z</time>
      </trkpt>
      <trkpt lat="51.1994370" lon="7.4136680">
        <ele>419.7500000</ele>
        <time>2010-08-14T15:41:26Z</time>
      </trkpt>
      <trkpt lat="51.1995940" lon="7.4135480">
        <ele>420.2300000</ele>
        <time>2010-08-14T15:41:27Z</time>
      </trkpt>
      <trkpt lat="51.1997290" lon="7.4134020">
        <ele>420.7100000</ele>
        <time>2010-08-14T15:41:28Z</time>
      </trkpt>
      <trkpt lat="51.1998360" lon="7.4132290">
        <ele>421.6800000</ele>
        <time>2010-08-14T15:41:29Z</time>
      </trkpt>
      <trkpt lat="51.1999210" lon="7.4130230">
        <ele>422.1600000</ele>
        <time>2010-08-14T15:41:30Z</time>
      </trkpt>
      <trkpt lat="51.1999810" lon="7.4127870">
        <ele>422.1600000</ele>
        <time>2010-08-14T15:41:31Z</time>
      </trkpt>
      <trkpt lat="51.2000480" lon="7.4125660">
        <ele>422.1600000</ele>
        <time>2010-08-14T15:41:32Z</time>
      </trkpt>
      <trkpt lat="51.2001290" lon="7.4123730">
        <ele>422.1600000</ele>
        <time>2010-08-14T15:41:33Z</time>
      </trkpt>
      <trkpt lat="51.2002220" lon="7.4122050">
        <ele>421.6800000</ele>
        <time>2010-08-14T15:41:34Z</time>
      </trkpt>
      <trkpt lat="51.2003410" lon="7.4120660">
        <ele>421.6800000</ele>
        <time>2010-08-14T15:41:35Z</time>
      </trkpt>
      <trkpt lat="51.2004610" lon="7.4119520">
        <ele>421.6800000</ele>
        <time>2010-08-14T15:41:36Z</time>
      </trkpt>
      <trkpt lat="51.2005860" lon="7.4119040">
        <ele>421.1900000</ele>
        <time>2010-08-14T15:41:37Z</time>
      </trkpt>
      <trkpt lat="51.2007350" lon="7.4119370">
        <ele>420.2300000</ele>
        <time>2010-08-14T15:41:38Z</time>
      </trkpt>
      <trkpt lat="51.2008840" lon="7.4119820">
        <ele>419.2700000</ele>
        <time>2010-08-14T15:41:39Z</time>
      </trkpt>
      <trkpt lat="51.2010290" lon="7.4120270">
        <ele>418.3100000</ele>
        <time>2010-08-14T15:41:40Z</time>
      </trkpt>
      <trkpt lat="51.2011700" lon="7.4120780">
        <ele>417.3500000</ele>
        <time>2010-08-14T15:41:41Z</time>
      </trkpt>
      <trkpt lat="51.2014540" lon="7.4121260">
        <ele>415.4300000</ele>
        <time>2010-08-14T15:41:43Z</time>
      </trkpt>
      <trkpt lat="51.2015910" lon="7.4121100">
        <ele>414.9500000</ele>
        <time>2010-08-14T15:41:44Z</time>
      </trkpt>
      <trkpt lat="51.2017200" lon="7.4120600">
        <ele>414.4700000</ele>
        <time>2010-08-14T15:41:45Z</time>
      </trkpt>
      <trkpt lat="51.2018370" lon="7.4119780">
        <ele>413.9800000</ele>
        <time>2010-08-14T15:41:46Z</time>
      </trkpt>
      <trkpt lat="51.2019310" lon="7.4118260">
        <ele>413.0200000</ele>
        <time>2010-08-14T15:41:47Z</time>
      </trkpt>
      <trkpt lat="51.2020270" lon="7.4116500">
        <ele>413.0200000</ele>
        <time>2010-08-14T15:41:48Z</time>
      </trkpt>
      <trkpt lat="51.2021140" lon="7.4114290">
        <ele>412.5400000</ele>
        <time>2010-08-14T15:41:49Z</time>
      </trkpt>
      <trkpt lat="51.2021880" lon="7.4111840">
        <ele>411.5800000</ele>
        <time>2010-08-14T15:41:50Z</time>
      </trkpt>
      <trkpt lat="51.2022500" lon="7.4109310">
        <ele>411.5800000</ele>
        <time>2010-08-14T15:41:51Z</time>
      </trkpt>
      <trkpt lat="51.2022930" lon="7.4106740">
        <ele>411.5800000</ele>
        <time>2010-08-14T15:41:52Z</time>
      </trkpt>
      <trkpt lat="51.2023110" lon="7.4104030">
        <ele>409.1800000</ele>
        <time>2010-08-14T15:41:53Z</time>
      </trkpt>
      <trkpt lat="51.2023230" lon="7.4101410">
        <ele>407.2600000</ele>
        <time>2010-08-14T15:41:54Z</time>
      </trkpt>
      <trkpt lat="51.2023330" lon="7.4098840">
        <ele>405.8100000</ele>
        <time>2010-08-14T15:41:55Z</time>
      </trkpt>
      <trkpt lat="51.2024210" lon="7.4081920">
        <ele>398.1200000</ele>
        <time>2010-08-14T15:42:03Z</time>
      </trkpt>
      <trkpt lat="51.2024980" lon="7.4057890">
        <ele>396.6800000</ele>
        <time>2010-08-14T15:42:12Z</time>
      </trkpt>
      <trkpt lat="51.2022130" lon="7.4041800">
        <ele>399.0800000</ele>
        <time>2010-08-14T15:42:18Z</time>
      </trkpt>
      <trkpt lat="51.2017900" lon="7.4023170">
        <ele>400.0500000</ele>
        <time>2010-08-14T15:42:28Z</time>
      </trkpt>
      <trkpt lat="51.2014160" lon="7.4006010">
        <ele>398.1200000</ele>
        <time>2010-08-14T15:42:38Z</time>
      </trkpt>
      <trkpt lat="51.2010620" lon="7.3984490">
        <ele>393.3200000</ele>
        <time>2010-08-14T15:42:49Z</time>
      </trkpt>
      <trkpt lat="51.2011220" lon="7.3965440">
        <ele>389.4700000</ele>
        <time>2010-08-14T15:42:57Z</time>
      </trkpt>
      <trkpt lat="51.2013810" lon="7.3939420">
        <ele>386.1100000</ele>
        <time>2010-08-14T15:43:08Z</time>
      </trkpt>
      <trkpt lat="51.2015680" lon="7.3911220">
        <ele>379.8600000</ele>
        <time>2010-08-14T15:43:20Z</time>
      </trkpt>
      <trkpt lat="51.2012790" lon="7.3893070">
        <ele>376.4900000</ele>
        <time>2010-08-14T15:43:27Z</time>
      </trkpt>
      <trkpt lat="51.2011810" lon="7.3890090">
        <ele>376.0100000</ele>
        <time>2010-08-14T15:43:28Z</time>
      </trkpt>
      <trkpt lat="51.2010740" lon="7.3887320">
        <ele>376.0100000</ele>
        <time>2010-08-14T15:43:29Z</time>
      </trkpt>
      <trkpt lat="51.2009560" lon="7.3884690">
        <ele>375.5300000</ele>
        <time>2010-08-14T15:43:30Z</time>
      </trkpt>
      <trkpt lat="51.2008240" lon="7.3882180">
        <ele>375.0500000</ele>
        <time>2010-08-14T15:43:31Z</time>
      </trkpt>
      <trkpt lat="51.2006800" lon="7.3879810">
        <ele>375.0500000</ele>
        <time>2010-08-14T15:43:32Z</time>
      </trkpt>
      <trkpt lat="51.1996340" lon="7.3864060">
        <ele>376.4900000</ele>
        <time>2010-08-14T15:43:38Z</time>
      </trkpt>
      <trkpt lat="51.1989080" lon="7.3852820">
        <ele>378.4200000</ele>
        <time>2010-08-14T15:43:43Z</time>
      </trkpt>
      <trkpt lat="51.1986630" lon="7.3848080">
        <ele>379.8600000</ele>
        <time>2010-08-14T15:43:48Z</time>
      </trkpt>
      <trkpt lat="51.1986480" lon="7.3847440">
        <ele>380.3400000</ele>
        <time>2010-08-14T15:43:49Z</time>
      </trkpt>
      <trkpt lat="51.1985950" lon="7.3845680">
        <ele>380.8200000</ele>
        <time>2010-08-14T15:43:51Z</time>
      </trkpt>
      <trkpt lat="51.1985530" lon="7.3845230">
        <ele>380.8200000</ele>
        <time>2010-08-14T15:43:52Z</time>
      </trkpt>
      <trkpt lat="51.1985020" lon="7.3845400">
        <ele>380.3400000</ele>
        <time>2010-08-14T15:43:53Z</time>
      </trkpt>
      <trkpt lat="51.1984590" lon="7.3846100">
        <ele>379.8600000</ele>
        <time>2010-08-14T15:43:54Z</time>
      </trkpt>
      <trkpt lat="51.1984230" lon="7.3847540">
        <ele>379.8600000</ele>
        <time>2010-08-14T15:43:55Z</time>
      </trkpt>
      <trkpt lat="51.1983990" lon="7.3848810">
        <ele>379.3800000</ele>
        <time>2010-08-14T15:43:56Z</time>
      </trkpt>
      <trkpt lat="51.1983570" lon="7.3850080">
        <ele>379.3800000</ele>
        <time>2010-08-14T15:43:57Z</time>
      </trkpt>
      <trkpt lat="51.1983070" lon="7.3851040">
        <ele>379.3800000</ele>
        <time>2010-08-14T15:43:58Z</time>
      </trkpt>
      <trkpt lat="51.1982600" lon="7.3851820">
        <ele>378.9000000</ele>
        <time>2010-08-14T15:43:59Z</time>
      </trkpt>
      <trkpt lat="51.1982150" lon="7.3852550">
        <ele>378.4200000</ele>
        <time>2010-08-14T15:44:00Z</time>
      </trkpt>
      <trkpt lat="51.1981120" lon="7.3854010">
        <ele>376.9700000</ele>
        <time>2010-08-14T15:44:02Z</time>
      </trkpt>
      <trkpt lat="51.1980520" lon="7.3854580">
        <ele>376.4900000</ele>
        <time>2010-08-14T15:44:03Z</time>
      </trkpt>
      <trkpt lat="51.1979890" lon="7.3854960">
        <ele>375.5300000</ele>
        <time>2010-08-14T15:44:04Z</time>
      </trkpt>
      <trkpt lat="51.1979220" lon="7.3855160">
        <ele>375.0500000</ele>
        <time>2010-08-14T15:44:05Z</time>
      </trkpt>
      <trkpt lat="51.1978500" lon="7.3855160">
        <ele>374.0900000</ele>
        <time>2010-08-14T15:44:06Z</time>
      </trkpt>
      <trkpt lat="51.1977720" lon="7.3854950">
        <ele>373.6100000</ele>
        <time>2010-08-14T15:44:07Z</time>
      </trkpt>
      <trkpt lat="51.1976870" lon="7.3854490">
        <ele>372.6500000</ele>
        <time>2010-08-14T15:44:08Z</time>
      </trkpt>
      <trkpt lat="51.1975990" lon="7.3853760">
        <ele>372.6500000</ele>
        <time>2010-08-14T15:44:09Z</time>
      </trkpt>
      <trkpt lat="51.1975080" lon="7.3852800">
        <ele>372.1700000</ele>
        <time>2010-08-14T15:44:10Z</time>
      </trkpt>
      <trkpt lat="51.1974130" lon="7.3851700">
        <ele>371.6900000</ele>
        <time>2010-08-14T15:44:11Z</time>
      </trkpt>
      <trkpt lat="51.1962320" lon="7.3842090">
        <ele>372.1700000</ele>
        <time>2010-08-14T15:44:21Z</time>
      </trkpt>
      <trkpt lat="51.1955250" lon="7.3840810">
        <ele>367.8400000</ele>
        <time>2010-08-14T15:44:26Z</time>
      </trkpt>
      <trkpt lat="51.1954000" lon="7.3841320">
        <ele>366.4000000</ele>
        <time>2010-08-14T15:44:27Z</time>
      </trkpt>
      <trkpt lat="51.1952890" lon="7.3842040">
        <ele>365.4400000</ele>
        <time>2010-08-14T15:44:28Z</time>
      </trkpt>
      <trkpt lat="51.1952020" lon="7.3843190">
        <ele>364.0000000</ele>
        <time>2010-08-14T15:44:29Z</time>
      </trkpt>
      <trkpt lat="51.1951340" lon="7.3844570">
        <ele>363.0400000</ele>
        <time>2010-08-14T15:44:30Z</time>
      </trkpt>
      <trkpt lat="51.1950850" lon="7.3846250">
        <ele>362.0700000</ele>
        <time>2010-08-14T15:44:31Z</time>
      </trkpt>
      <trkpt lat="51.1950410" lon="7.3848000">
        <ele>361.5900000</ele>
        <time>2010-08-14T15:44:32Z</time>
      </trkpt>
      <trkpt lat="51.1949890" lon="7.3849710">
        <ele>361.1100000</ele>
        <time>2010-08-14T15:44:33Z</time>
      </trkpt>
      <trkpt lat="51.1949210" lon="7.3851270">
        <ele>360.6300000</ele>
        <time>2010-08-14T15:44:34Z</time>
      </trkpt>
      <trkpt lat="51.1948330" lon="7.3852460">
        <ele>360.1500000</ele>
        <time>2010-08-14T15:44:35Z</time>
      </trkpt>
      <trkpt lat="51.1947190" lon="7.3853180">
        <ele>360.1500000</ele>
        <time>2010-08-14T15:44:36Z</time>
      </trkpt>
      <trkpt lat="51.1945900" lon="7.3853600">
        <ele>360.6300000</ele>
        <time>2010-08-14T15:44:37Z</time>
      </trkpt>
      <trkpt lat="51.1944460" lon="7.3853920">
        <ele>360.6300000</ele>
        <time>2010-08-14T15:44:38Z</time>
      </trkpt>
      <trkpt lat="51.1932700" lon="7.3855610">
        <ele>359.1900000</ele>
        <time>2010-08-14T15:44:44Z</time>
      </trkpt>
      <trkpt lat="51.1925350" lon="7.3857620">
        <ele>356.3100000</ele>
        <time>2010-08-14T15:44:49Z</time>
      </trkpt>
      <trkpt lat="51.1924400" lon="7.3858440">
        <ele>355.8300000</ele>
        <time>2010-08-14T15:44:50Z</time>
      </trkpt>
      <trkpt lat="51.1923570" lon="7.3859520">
        <ele>355.8300000</ele>
        <time>2010-08-14T15:44:51Z</time>
      </trkpt>
      <trkpt lat="51.1922040" lon="7.3861760">
        <ele>356.3100000</ele>
        <time>2010-08-14T15:44:53Z</time>
      </trkpt>
      <trkpt lat="51.1921130" lon="7.3862640">
        <ele>356.3100000</ele>
        <time>2010-08-14T15:44:54Z</time>
      </trkpt>
      <trkpt lat="51.1920090" lon="7.3863170">
        <ele>356.3100000</ele>
        <time>2010-08-14T15:44:55Z</time>
      </trkpt>
      <trkpt lat="51.1918930" lon="7.3863460">
        <ele>356.3100000</ele>
        <time>2010-08-14T15:44:56Z</time>
      </trkpt>
      <trkpt lat="51.1917700" lon="7.3863580">
        <ele>355.8300000</ele>
        <time>2010-08-14T15:44:57Z</time>
      </trkpt>
      <trkpt lat="51.1916420" lon="7.3863670">
        <ele>355.3400000</ele>
        <time>2010-08-14T15:44:58Z</time>
      </trkpt>
      <trkpt lat="51.1909960" lon="7.3866010">
        <ele>352.9400000</ele>
        <time>2010-08-14T15:45:03Z</time>
      </trkpt>
      <trkpt lat="51.1908620" lon="7.3867280">
        <ele>352.9400000</ele>
        <time>2010-08-14T15:45:04Z</time>
      </trkpt>
      <trkpt lat="51.1893380" lon="7.3881140">
        <ele>342.8500000</ele>
        <time>2010-08-14T15:45:16Z</time>
      </trkpt>
      <trkpt lat="51.1884050" lon="7.3890410">
        <ele>337.0800000</ele>
        <time>2010-08-14T15:45:25Z</time>
      </trkpt>
      <trkpt lat="51.1883440" lon="7.3892020">
        <ele>336.1200000</ele>
        <time>2010-08-14T15:45:26Z</time>
      </trkpt>
      <trkpt lat="51.1880010" lon="7.3897180">
        <ele>334.2000000</ele>
        <time>2010-08-14T15:45:30Z</time>
      </trkpt>
      <trkpt lat="51.1878800" lon="7.3897540">
        <ele>333.7100000</ele>
        <time>2010-08-14T15:45:31Z</time>
      </trkpt>
      <trkpt lat="51.1877560" lon="7.3897360">
        <ele>332.7500000</ele>
        <time>2010-08-14T15:45:32Z</time>
      </trkpt>
      <trkpt lat="51.1866250" lon="7.3895900">
        <ele>340.4400000</ele>
        <time>2010-08-14T15:45:41Z</time>
      </trkpt>
      <trkpt lat="51.1864930" lon="7.3896130">
        <ele>341.4100000</ele>
        <time>2010-08-14T15:45:42Z</time>
      </trkpt>
      <trkpt lat="51.1862110" lon="7.3897600">
        <ele>344.7700000</ele>
        <time>2010-08-14T15:45:44Z</time>
      </trkpt>
      <trkpt lat="51.1861120" lon="7.3898530">
        <ele>347.1700000</ele>
        <time>2010-08-14T15:45:45Z</time>
      </trkpt>
      <trkpt lat="51.1860000" lon="7.3899730">
        <ele>350.0600000</ele>
        <time>2010-08-14T15:45:46Z</time>
      </trkpt>
      <trkpt lat="51.1852000" lon="7.3905070">
        <ele>363.0400000</ele>
        <time>2010-08-14T15:45:53Z</time>
      </trkpt>
      <trkpt lat="51.1850730" lon="7.3905180">
        <ele>365.4400000</ele>
        <time>2010-08-14T15:45:54Z</time>
      </trkpt>
      <trkpt lat="51.1849520" lon="7.3905160">
        <ele>368.3200000</ele>
        <time>2010-08-14T15:45:55Z</time>
      </trkpt>
      <trkpt lat="51.1847340" lon="7.3905870">
        <ele>372.1700000</ele>
        <time>2010-08-14T15:45:57Z</time>
      </trkpt>
      <trkpt lat="51.1846300" lon="7.3906480">
        <ele>372.1700000</ele>
        <time>2010-08-14T15:45:58Z</time>
      </trkpt>
      <trkpt lat="51.1845400" lon="7.3907680">
        <ele>371.2100000</ele>
        <time>2010-08-14T15:45:59Z</time>
      </trkpt>
      <trkpt lat="51.1844720" lon="7.3909410">
        <ele>371.6900000</ele>
        <time>2010-08-14T15:46:00Z</time>
      </trkpt>
      <trkpt lat="51.1844470" lon="7.3911500">
        <ele>370.7300000</ele>
        <time>2010-08-14T15:46:01Z</time>
      </trkpt>
      <trkpt lat="51.1844080" lon="7.3913370">
        <ele>371.2100000</ele>
        <time>2010-08-14T15:46:02Z</time>
      </trkpt>
      <trkpt lat="51.1840640" lon="7.3927490">
        <ele>369.2800000</ele>
        <time>2010-08-14T15:46:09Z</time>
      </trkpt>
      <trkpt lat="51.1839700" lon="7.3929260">
        <ele>368.8000000</ele>
        <time>2010-08-14T15:46:10Z</time>
      </trkpt>
      <trkpt lat="51.1838550" lon="7.3930840">
        <ele>368.3200000</ele>
        <time>2010-08-14T15:46:11Z</time>
      </trkpt>
      <trkpt lat="51.1826360" lon="7.3944090">
        <ele>358.2300000</ele>
        <time>2010-08-14T15:46:20Z</time>
      </trkpt>
      <trkpt lat="51.1821190" lon="7.3949060">
        <ele>354.8600000</ele>
        <time>2010-08-14T15:46:24Z</time>
      </trkpt>
      <trkpt lat="51.1819700" lon="7.3949870">
        <ele>353.9000000</ele>
        <time>2010-08-14T15:46:25Z</time>
      </trkpt>
      <trkpt lat="51.1818140" lon="7.3950480">
        <ele>352.9400000</ele>
        <time>2010-08-14T15:46:26Z</time>
      </trkpt>
      <trkpt lat="51.1816560" lon="7.3950900">
        <ele>352.4600000</ele>
        <time>2010-08-14T15:46:27Z</time>
      </trkpt>
      <trkpt lat="51.1815010" lon="7.3951130">
        <ele>351.5000000</ele>
        <time>2010-08-14T15:46:28Z</time>
      </trkpt>
      <trkpt lat="51.1813480" lon="7.3951230">
        <ele>351.0200000</ele>
        <time>2010-08-14T15:46:29Z</time>
      </trkpt>
      <trkpt lat="51.1802570" lon="7.3952150">
        <ele>340.4400000</ele>
        <time>2010-08-14T15:46:36Z</time>
      </trkpt>
      <trkpt lat="51.1801040" lon="7.3952830">
        <ele>338.5200000</ele>
        <time>2010-08-14T15:46:37Z</time>
      </trkpt>
      <trkpt lat="51.1799580" lon="7.3953810">
        <ele>336.6000000</ele>
        <time>2010-08-14T15:46:38Z</time>
      </trkpt>
      <trkpt lat="51.1798170" lon="7.3955030">
        <ele>334.6800000</ele>
        <time>2010-08-14T15:46:39Z</time>
      </trkpt>
      <trkpt lat="51.1796820" lon="7.3956380">
        <ele>332.7500000</ele>
        <time>2010-08-14T15:46:40Z</time>
      </trkpt>
      <trkpt lat="51.1790440" lon="7.3963270">
        <ele>323.1400000</ele>
        <time>2010-08-14T15:46:46Z</time>
      </trkpt>
      <trkpt lat="51.1789450" lon="7.3963790">
        <ele>321.7000000</ele>
        <time>2010-08-14T15:46:47Z</time>
      </trkpt>
      <trkpt lat="51.1788410" lon="7.3963880">
        <ele>319.7800000</ele>
        <time>2010-08-14T15:46:48Z</time>
      </trkpt>
      <trkpt lat="51.1787410" lon="7.3963090">
        <ele>318.8100000</ele>
        <time>2010-08-14T15:46:49Z</time>
      </trkpt>
      <trkpt lat="51.1786430" lon="7.3961860">
        <ele>317.3700000</ele>
        <time>2010-08-14T15:46:50Z</time>
      </trkpt>
      <trkpt lat="51.1785450" lon="7.3960620">
        <ele>315.9300000</ele>
        <time>2010-08-14T15:46:51Z</time>
      </trkpt>
      <trkpt lat="51.1784390" lon="7.3959340">
        <ele>314.4900000</ele>
        <time>2010-08-14T15:46:52Z</time>
      </trkpt>
      <trkpt lat="51.1783210" lon="7.3958200">
        <ele>313.5300000</ele>
        <time>2010-08-14T15:46:53Z</time>
      </trkpt>
      <trkpt lat="51.1781900" lon="7.3957400">
        <ele>312.5700000</ele>
        <time>2010-08-14T15:46:54Z</time>
      </trkpt>
      <trkpt lat="51.1780450" lon="7.3956900">
        <ele>312.0900000</ele>
        <time>2010-08-14T15:46:55Z</time>
      </trkpt>
      <trkpt lat="51.1778960" lon="7.3956750">
        <ele>310.6400000</ele>
        <time>2010-08-14T15:46:56Z</time>
      </trkpt>
      <trkpt lat="51.1777340" lon="7.3957300">
        <ele>309.6800000</ele>
        <time>2010-08-14T15:46:57Z</time>
      </trkpt>
      <trkpt lat="51.1775690" lon="7.3958200">
        <ele>309.2000000</ele>
        <time>2010-08-14T15:46:58Z</time>
      </trkpt>
      <trkpt lat="51.1774060" lon="7.3959120">
        <ele>308.7200000</ele>
        <time>2010-08-14T15:46:59Z</time>
      </trkpt>
      <trkpt lat="51.1759730" lon="7.3964680">
        <ele>305.3600000</ele>
        <time>2010-08-14T15:47:06Z</time>
      </trkpt>
      <trkpt lat="51.1744150" lon="7.3967470">
        <ele>301.5100000</ele>
        <time>2010-08-14T15:47:13Z</time>
      </trkpt>
      <trkpt lat="51.1737740" lon="7.3968120">
        <ele>300.5500000</ele>
        <time>2010-08-14T15:47:17Z</time>
      </trkpt>
      <trkpt lat="51.1736570" lon="7.3967550">
        <ele>300.5500000</ele>
        <time>2010-08-14T15:47:18Z</time>
      </trkpt>
      <trkpt lat="51.1735580" lon="7.3966540">
        <ele>300.0700000</ele>
        <time>2010-08-14T15:47:19Z</time>
      </trkpt>
      <trkpt lat="51.1734820" lon="7.3964800">
        <ele>300.0700000</ele>
        <time>2010-08-14T15:47:20Z</time>
      </trkpt>
      <trkpt lat="51.1734310" lon="7.3962800">
        <ele>300.0700000</ele>
        <time>2010-08-14T15:47:21Z</time>
      </trkpt>
      <trkpt lat="51.1733770" lon="7.3960940">
        <ele>300.0700000</ele>
        <time>2010-08-14T15:47:22Z</time>
      </trkpt>
      <trkpt lat="51.1733360" lon="7.3959060">
        <ele>300.0700000</ele>
        <time>2010-08-14T15:47:23Z</time>
      </trkpt>
      <trkpt lat="51.1733120" lon="7.3957290">
        <ele>300.0700000</ele>
        <time>2010-08-14T15:47:24Z</time>
      </trkpt>
      <trkpt lat="51.1732910" lon="7.3955610">
        <ele>300.5500000</ele>
        <time>2010-08-14T15:47:25Z</time>
      </trkpt>
      <trkpt lat="51.1731830" lon="7.3950330">
        <ele>301.5100000</ele>
        <time>2010-08-14T15:47:30Z</time>
      </trkpt>
      <trkpt lat="51.1731260" lon="7.3950170">
        <ele>301.5100000</ele>
        <time>2010-08-14T15:47:31Z</time>
      </trkpt>
      <trkpt lat="51.1730680" lon="7.3949930">
        <ele>301.5100000</ele>
        <time>2010-08-14T15:47:32Z</time>
      </trkpt>
      <trkpt lat="51.1729860" lon="7.3950090">
        <ele>301.0300000</ele>
        <time>2010-08-14T15:47:33Z</time>
      </trkpt>
      <trkpt lat="51.1728880" lon="7.3950420">
        <ele>299.5900000</ele>
        <time>2010-08-14T15:47:34Z</time>
      </trkpt>
      <trkpt lat="51.1727540" lon="7.3950980">
        <ele>299.5900000</ele>
        <time>2010-08-14T15:47:35Z</time>
      </trkpt>
      <trkpt lat="51.1725770" lon="7.3951890">
        <ele>301.5100000</ele>
        <time>2010-08-14T15:47:36Z</time>
      </trkpt>
      <trkpt lat="51.1709940" lon="7.3957800">
        <ele>312.0900000</ele>
        <time>2010-08-14T15:47:47Z</time>
      </trkpt>
      <trkpt lat="51.1707010" lon="7.3958890">
        <ele>314.0100000</ele>
        <time>2010-08-14T15:47:50Z</time>
      </trkpt>
      <trkpt lat="51.1706040" lon="7.3958970">
        <ele>314.4900000</ele>
        <time>2010-08-14T15:47:51Z</time>
      </trkpt>
      <trkpt lat="51.1705020" lon="7.3958780">
        <ele>314.9700000</ele>
        <time>2010-08-14T15:47:52Z</time>
      </trkpt>
      <trkpt lat="51.1703740" lon="7.3957980">
        <ele>314.9700000</ele>
        <time>2010-08-14T15:47:53Z</time>
      </trkpt>
      <trkpt lat="51.1702190" lon="7.3956870">
        <ele>314.9700000</ele>
        <time>2010-08-14T15:47:54Z</time>
      </trkpt>
      <trkpt lat="51.1700510" lon="7.3955750">
        <ele>314.9700000</ele>
        <time>2010-08-14T15:47:55Z</time>
      </trkpt>
      <trkpt lat="51.1690550" lon="7.3948240">
        <ele>314.0100000</ele>
        <time>2010-08-14T15:48:00Z</time>
      </trkpt>
      <trkpt lat="51.1689020" lon="7.3946400">
        <ele>314.0100000</ele>
        <time>2010-08-14T15:48:01Z</time>
      </trkpt>
      <trkpt lat="51.1687660" lon="7.3943920">
        <ele>314.9700000</ele>
        <time>2010-08-14T15:48:02Z</time>
      </trkpt>
      <trkpt lat="51.1686260" lon="7.3940680">
        <ele>315.9300000</ele>
        <time>2010-08-14T15:48:03Z</time>
      </trkpt>
      <trkpt lat="51.1678730" lon="7.3922750">
        <ele>321.7000000</ele>
        <time>2010-08-14T15:48:08Z</time>
      </trkpt>
      <trkpt lat="51.1671560" lon="7.3906810">
        <ele>327.9500000</ele>
        <time>2010-08-14T15:48:14Z</time>
      </trkpt>
      <trkpt lat="51.1670270" lon="7.3904970">
        <ele>329.3900000</ele>
        <time>2010-08-14T15:48:16Z</time>
      </trkpt>
      <trkpt lat="51.1669680" lon="7.3904880">
        <ele>330.3500000</ele>
        <time>2010-08-14T15:48:17Z</time>
      </trkpt>
      <trkpt lat="51.1668940" lon="7.3905580">
        <ele>331.3100000</ele>
        <time>2010-08-14T15:48:18Z</time>
      </trkpt>
      <trkpt lat="51.1668280" lon="7.3906750">
        <ele>332.2700000</ele>
        <time>2010-08-14T15:48:19Z</time>
      </trkpt>
      <trkpt lat="51.1667610" lon="7.3908200">
        <ele>333.2300000</ele>
        <time>2010-08-14T15:48:20Z</time>
      </trkpt>
      <trkpt lat="51.1666850" lon="7.3909850">
        <ele>333.7100000</ele>
        <time>2010-08-14T15:48:21Z</time>
      </trkpt>
      <trkpt lat="51.1663070" lon="7.3917990">
        <ele>336.1200000</ele>
        <time>2010-08-14T15:48:27Z</time>
      </trkpt>
      <trkpt lat="51.1662880" lon="7.3918280">
        <ele>336.1200000</ele>
        <time>2010-08-14T15:48:28Z</time>
      </trkpt>
      <trkpt lat="51.1662400" lon="7.3918580">
        <ele>336.6000000</ele>
        <time>2010-08-14T15:48:29Z</time>
      </trkpt>
      <trkpt lat="51.1661810" lon="7.3918800">
        <ele>337.0800000</ele>
        <time>2010-08-14T15:48:30Z</time>
      </trkpt>
      <trkpt lat="51.1661310" lon="7.3918280">
        <ele>336.6000000</ele>
        <time>2010-08-14T15:48:31Z</time>
      </trkpt>
      <trkpt lat="51.1660680" lon="7.3917080">
        <ele>336.6000000</ele>
        <time>2010-08-14T15:48:32Z</time>
      </trkpt>
      <trkpt lat="51.1659550" lon="7.3915270">
        <ele>337.5600000</ele>
        <time>2010-08-14T15:48:33Z</time>
      </trkpt>
      <trkpt lat="51.1658210" lon="7.3913870">
        <ele>338.0400000</ele>
        <time>2010-08-14T15:48:34Z</time>
      </trkpt>
      <trkpt lat="51.1654960" lon="7.3911300">
        <ele>339.4800000</ele>
        <time>2010-08-14T15:48:36Z</time>
      </trkpt>
      <trkpt lat="51.1644270" lon="7.3902950">
        <ele>338.5200000</ele>
        <time>2010-08-14T15:48:43Z</time>
      </trkpt>
      <trkpt lat="51.1637690" lon="7.3897790">
        <ele>329.8700000</ele>
        <time>2010-08-14T15:48:48Z</time>
      </trkpt>
      <trkpt lat="51.1636260" lon="7.3898080">
        <ele>327.9500000</ele>
        <time>2010-08-14T15:48:49Z</time>
      </trkpt>
      <trkpt lat="51.1634660" lon="7.3898360">
        <ele>326.5000000</ele>
        <time>2010-08-14T15:48:50Z</time>
      </trkpt>
      <trkpt lat="51.1633160" lon="7.3898490">
        <ele>324.5800000</ele>
        <time>2010-08-14T15:48:51Z</time>
      </trkpt>
      <trkpt lat="51.1631620" lon="7.3898130">
        <ele>323.1400000</ele>
        <time>2010-08-14T15:48:52Z</time>
      </trkpt>
      <trkpt lat="51.1630100" lon="7.3897740">
        <ele>321.7000000</ele>
        <time>2010-08-14T15:48:53Z</time>
      </trkpt>
      <trkpt lat="51.1627020" lon="7.3897440">
        <ele>319.7800000</ele>
        <time>2010-08-14T15:48:55Z</time>
      </trkpt>
      <trkpt lat="51.1625410" lon="7.3897640">
        <ele>318.3300000</ele>
        <time>2010-08-14T15:48:56Z</time>
      </trkpt>
      <trkpt lat="51.1612620" lon="7.3902780">
        <ele>311.6000000</ele>
        <time>2010-08-14T15:49:04Z</time>
      </trkpt>
      <trkpt lat="51.1598960" lon="7.3906270">
        <ele>306.8000000</ele>
        <time>2010-08-14T15:49:12Z</time>
      </trkpt>
      <trkpt lat="51.1586950" lon="7.3908090">
        <ele>302.9500000</ele>
        <time>2010-08-14T15:49:20Z</time>
      </trkpt>
      <trkpt lat="51.1585590" lon="7.3907790">
        <ele>302.9500000</ele>
        <time>2010-08-14T15:49:21Z</time>
      </trkpt>
      <trkpt lat="51.1583340" lon="7.3905240">
        <ele>302.9500000</ele>
        <time>2010-08-14T15:49:23Z</time>
      </trkpt>
      <trkpt lat="51.1582270" lon="7.3903950">
        <ele>303.4300000</ele>
        <time>2010-08-14T15:49:24Z</time>
      </trkpt>
      <trkpt lat="51.1581200" lon="7.3902140">
        <ele>303.9100000</ele>
        <time>2010-08-14T15:49:25Z</time>
      </trkpt>
      <trkpt lat="51.1580150" lon="7.3900160">
        <ele>304.8800000</ele>
        <time>2010-08-14T15:49:26Z</time>
      </trkpt>
      <trkpt lat="51.1578950" lon="7.3898640">
        <ele>305.3600000</ele>
        <time>2010-08-14T15:49:27Z</time>
      </trkpt>
      <trkpt lat="51.1576410" lon="7.3896150">
        <ele>305.8400000</ele>
        <time>2010-08-14T15:49:29Z</time>
      </trkpt>
      <trkpt lat="51.1574460" lon="7.3896310">
        <ele>306.8000000</ele>
        <time>2010-08-14T15:49:30Z</time>
      </trkpt>
      <trkpt lat="51.1572660" lon="7.3896830">
        <ele>306.3200000</ele>
        <time>2010-08-14T15:49:31Z</time>
      </trkpt>
      <trkpt lat="51.1571000" lon="7.3897240">
        <ele>306.3200000</ele>
        <time>2010-08-14T15:49:32Z</time>
      </trkpt>
      <trkpt lat="51.1569410" lon="7.3897710">
        <ele>306.3200000</ele>
        <time>2010-08-14T15:49:33Z</time>
      </trkpt>
      <trkpt lat="51.1567890" lon="7.3898150">
        <ele>307.7600000</ele>
        <time>2010-08-14T15:49:34Z</time>
      </trkpt>
      <trkpt lat="51.1553830" lon="7.3901340">
        <ele>324.1000000</ele>
        <time>2010-08-14T15:49:44Z</time>
      </trkpt>
      <trkpt lat="51.1552450" lon="7.3902190">
        <ele>326.0200000</ele>
        <time>2010-08-14T15:49:45Z</time>
      </trkpt>
      <trkpt lat="51.1551120" lon="7.3903210">
        <ele>326.9900000</ele>
        <time>2010-08-14T15:49:46Z</time>
      </trkpt>
      <trkpt lat="51.1542100" lon="7.3917420">
        <ele>336.6000000</ele>
        <time>2010-08-14T15:49:54Z</time>
      </trkpt>
      <trkpt lat="51.1538950" lon="7.3921290">
        <ele>339.0000000</ele>
        <time>2010-08-14T15:49:57Z</time>
      </trkpt>
      <trkpt lat="51.1537620" lon="7.3921930">
        <ele>339.9600000</ele>
        <time>2010-08-14T15:49:58Z</time>
      </trkpt>
      <trkpt lat="51.1536290" lon="7.3922320">
        <ele>340.9200000</ele>
        <time>2010-08-14T15:49:59Z</time>
      </trkpt>
      <trkpt lat="51.1534960" lon="7.3922450">
        <ele>341.4100000</ele>
        <time>2010-08-14T15:50:00Z</time>
      </trkpt>
      <trkpt lat="51.1533700" lon="7.3922290">
        <ele>341.8900000</ele>
        <time>2010-08-14T15:50:01Z</time>
      </trkpt>
      <trkpt lat="51.1532410" lon="7.3921940">
        <ele>343.3300000</ele>
        <time>2010-08-14T15:50:02Z</time>
      </trkpt>
      <trkpt lat="51.1531140" lon="7.3920570">
        <ele>343.3300000</ele>
        <time>2010-08-14T15:50:03Z</time>
      </trkpt>
      <trkpt lat="51.1530000" lon="7.3919110">
        <ele>343.8100000</ele>
        <time>2010-08-14T15:50:04Z</time>
      </trkpt>
      <trkpt lat="51.1528840" lon="7.3917430">
        <ele>344.2900000</ele>
        <time>2010-08-14T15:50:05Z</time>
      </trkpt>
      <trkpt lat="51.1527730" lon="7.3915540">
        <ele>344.7700000</ele>
        <time>2010-08-14T15:50:06Z</time>
      </trkpt>
      <trkpt lat="51.1526630" lon="7.3913670">
        <ele>345.2500000</ele>
        <time>2010-08-14T15:50:07Z</time>
      </trkpt>
      <trkpt lat="51.1521340" lon="7.3905460">
        <ele>349.1000000</ele>
        <time>2010-08-14T15:50:12Z</time>
      </trkpt>
      <trkpt lat="51.1520150" lon="7.3904250">
        <ele>348.6200000</ele>
        <time>2010-08-14T15:50:13Z</time>
      </trkpt>
      <trkpt lat="51.1518830" lon="7.3903240">
        <ele>349.1000000</ele>
        <time>2010-08-14T15:50:14Z</time>
      </trkpt>
      <trkpt lat="51.1517360" lon="7.3902440">
        <ele>349.5800000</ele>
        <time>2010-08-14T15:50:15Z</time>
      </trkpt>
      <trkpt lat="51.1515660" lon="7.3902040">
        <ele>349.5800000</ele>
        <time>2010-08-14T15:50:16Z</time>
      </trkpt>
      <trkpt lat="51.1513980" lon="7.3901710">
        <ele>349.5800000</ele>
        <time>2010-08-14T15:50:17Z</time>
      </trkpt>
      <trkpt lat="51.1512360" lon="7.3901430">
        <ele>349.1000000</ele>
        <time>2010-08-14T15:50:18Z</time>
      </trkpt>
      <trkpt lat="51.1507880" lon="7.3900090">
        <ele>348.1300000</ele>
        <time>2010-08-14T15:50:21Z</time>
      </trkpt>
      <trkpt lat="51.1506490" lon="7.3899220">
        <ele>347.6500000</ele>
        <time>2010-08-14T15:50:22Z</time>
      </trkpt>
      <trkpt lat="51.1505150" lon="7.3898200">
        <ele>346.6900000</ele>
        <time>2010-08-14T15:50:23Z</time>
      </trkpt>
      <trkpt lat="51.1503860" lon="7.3897010">
        <ele>346.2100000</ele>
        <time>2010-08-14T15:50:24Z</time>
      </trkpt>
      <trkpt lat="51.1502630" lon="7.3895660">
        <ele>345.7300000</ele>
        <time>2010-08-14T15:50:25Z</time>
      </trkpt>
      <trkpt lat="51.1501470" lon="7.3894150">
        <ele>344.7700000</ele>
        <time>2010-08-14T15:50:26Z</time>
      </trkpt>
      <trkpt lat="51.1500380" lon="7.3892490">
        <ele>343.8100000</ele>
        <time>2010-08-14T15:50:27Z</time>
      </trkpt>
      <trkpt lat="51.1499350" lon="7.3890720">
        <ele>342.8500000</ele>
        <time>2010-08-14T15:50:28Z</time>
      </trkpt>
      <trkpt lat="51.1490070" lon="7.3873080">
        <ele>334.2000000</ele>
        <time>2010-08-14T15:50:36Z</time>
      </trkpt>
      <trkpt lat="51.1480280" lon="7.3853150">
        <ele>323.6200000</ele>
        <time>2010-08-14T15:50:45Z</time>
      </trkpt>
      <trkpt lat="51.1474770" lon="7.3840780">
        <ele>317.8500000</ele>
        <time>2010-08-14T15:50:51Z</time>
      </trkpt>
      <trkpt lat="51.1467060" lon="7.3825030">
        <ele>306.8000000</ele>
        <time>2010-08-14T15:51:00Z</time>
      </trkpt>
      <trkpt lat="51.1457450" lon="7.3807720">
        <ele>299.5900000</ele>
        <time>2010-08-14T15:51:10Z</time>
      </trkpt>
      <trkpt lat="51.1449600" lon="7.3797450">
        <ele>297.1800000</ele>
        <time>2010-08-14T15:51:17Z</time>
      </trkpt>
      <trkpt lat="51.1440880" lon="7.3780080">
        <ele>300.0700000</ele>
        <time>2010-08-14T15:51:27Z</time>
      </trkpt>
      <trkpt lat="51.1431670" lon="7.3759320">
        <ele>297.1800000</ele>
        <time>2010-08-14T15:51:37Z</time>
      </trkpt>
      <trkpt lat="51.1421470" lon="7.3742760">
        <ele>300.5500000</ele>
        <time>2010-08-14T15:51:47Z</time>
      </trkpt>
      <trkpt lat="51.1419330" lon="7.3741020">
        <ele>300.5500000</ele>
        <time>2010-08-14T15:51:49Z</time>
      </trkpt>
      <trkpt lat="51.1418220" lon="7.3740380">
        <ele>300.5500000</ele>
        <time>2010-08-14T15:51:50Z</time>
      </trkpt>
      <trkpt lat="51.1414100" lon="7.3737660">
        <ele>301.9900000</ele>
        <time>2010-08-14T15:51:54Z</time>
      </trkpt>
      <trkpt lat="51.1404100" lon="7.3727430">
        <ele>302.4700000</ele>
        <time>2010-08-14T15:52:04Z</time>
      </trkpt>
      <trkpt lat="51.1394930" lon="7.3714470">
        <ele>298.1500000</ele>
        <time>2010-08-14T15:52:12Z</time>
      </trkpt>
      <trkpt lat="51.1386650" lon="7.3698890">
        <ele>292.3800000</ele>
        <time>2010-08-14T15:52:20Z</time>
      </trkpt>
      <trkpt lat="51.1376920" lon="7.3676100">
        <ele>279.8800000</ele>
        <time>2010-08-14T15:52:30Z</time>
      </trkpt>
      <trkpt lat="51.1376480" lon="7.3673710">
        <ele>279.4000000</ele>
        <time>2010-08-14T15:52:31Z</time>
      </trkpt>
      <trkpt lat="51.1376220" lon="7.3671370">
        <ele>278.4400000</ele>
        <time>2010-08-14T15:52:32Z</time>
      </trkpt>
      <trkpt lat="51.1376150" lon="7.3669080">
        <ele>277.4800000</ele>
        <time>2010-08-14T15:52:33Z</time>
      </trkpt>
      <trkpt lat="51.1376230" lon="7.3666760">
        <ele>277.0000000</ele>
        <time>2010-08-14T15:52:34Z</time>
      </trkpt>
      <trkpt lat="51.1376630" lon="7.3664630">
        <ele>276.0400000</ele>
        <time>2010-08-14T15:52:35Z</time>
      </trkpt>
      <trkpt lat="51.1377320" lon="7.3662540">
        <ele>275.0700000</ele>
        <time>2010-08-14T15:52:36Z</time>
      </trkpt>
      <trkpt lat="51.1377920" lon="7.3660470">
        <ele>274.1100000</ele>
        <time>2010-08-14T15:52:37Z</time>
      </trkpt>
      <trkpt lat="51.1378390" lon="7.3658520">
        <ele>273.6300000</ele>
        <time>2010-08-14T15:52:38Z</time>
      </trkpt>
      <trkpt lat="51.1378510" lon="7.3656570">
        <ele>273.1500000</ele>
        <time>2010-08-14T15:52:39Z</time>
      </trkpt>
      <trkpt lat="51.1378370" lon="7.3654480">
        <ele>272.1900000</ele>
        <time>2010-08-14T15:52:40Z</time>
      </trkpt>
      <trkpt lat="51.1378020" lon="7.3652260">
        <ele>271.2300000</ele>
        <time>2010-08-14T15:52:41Z</time>
      </trkpt>
      <trkpt lat="51.1377430" lon="7.3649850">
        <ele>269.7900000</ele>
        <time>2010-08-14T15:52:42Z</time>
      </trkpt>
      <trkpt lat="51.1376640" lon="7.3647270">
        <ele>269.3100000</ele>
        <time>2010-08-14T15:52:43Z</time>
      </trkpt>
      <trkpt lat="51.1373000" lon="7.3634240">
        <ele>265.9400000</ele>
        <time>2010-08-14T15:52:48Z</time>
      </trkpt>
      <trkpt lat="51.1372650" lon="7.3631530">
        <ele>265.4600000</ele>
        <time>2010-08-14T15:52:49Z</time>
      </trkpt>
      <trkpt lat="51.1372520" lon="7.3628780">
        <ele>265.4600000</ele>
        <time>2010-08-14T15:52:50Z</time>
      </trkpt>
      <trkpt lat="51.1372540" lon="7.3626020">
        <ele>265.4600000</ele>
        <time>2010-08-14T15:52:51Z</time>
      </trkpt>
      <trkpt lat="51.1372640" lon="7.3623240">
        <ele>265.4600000</ele>
        <time>2010-08-14T15:52:52Z</time>
      </trkpt>
      <trkpt lat="51.1374220" lon="7.3588230">
        <ele>264.0200000</ele>
        <time>2010-08-14T15:53:04Z</time>
      </trkpt>
      <trkpt lat="51.1375900" lon="7.3563180">
        <ele>264.5000000</ele>
        <time>2010-08-14T15:53:14Z</time>
      </trkpt>
      <trkpt lat="51.1376500" lon="7.3560910">
        <ele>264.5000000</ele>
        <time>2010-08-14T15:53:15Z</time>
      </trkpt>
      <trkpt lat="51.1377290" lon="7.3558670">
        <ele>264.0200000</ele>
        <time>2010-08-14T15:53:16Z</time>
      </trkpt>
      <trkpt lat="51.1378250" lon="7.3556480">
        <ele>264.5000000</ele>
        <time>2010-08-14T15:53:17Z</time>
      </trkpt>
      <trkpt lat="51.1379260" lon="7.3554330">
        <ele>264.5000000</ele>
        <time>2010-08-14T15:53:18Z</time>
      </trkpt>
      <trkpt lat="51.1388180" lon="7.3533430">
        <ele>262.5800000</ele>
        <time>2010-08-14T15:53:28Z</time>
      </trkpt>
      <trkpt lat="51.1398640" lon="7.3521370">
        <ele>264.5000000</ele>
        <time>2010-08-14T15:53:36Z</time>
      </trkpt>
      <trkpt lat="51.1402100" lon="7.3516290">
        <ele>265.4600000</ele>
        <time>2010-08-14T15:53:39Z</time>
      </trkpt>
      <trkpt lat="51.1402850" lon="7.3514160">
        <ele>265.9400000</ele>
        <time>2010-08-14T15:53:40Z</time>
      </trkpt>
      <trkpt lat="51.1403560" lon="7.3512020">
        <ele>265.4600000</ele>
        <time>2010-08-14T15:53:41Z</time>
      </trkpt>
      <trkpt lat="51.1407760" lon="7.3498740">
        <ele>267.3800000</ele>
        <time>2010-08-14T15:53:49Z</time>
      </trkpt>
      <trkpt lat="51.1408240" lon="7.3496970">
        <ele>268.3500000</ele>
        <time>2010-08-14T15:53:51Z</time>
      </trkpt>
      <trkpt lat="51.1408320" lon="7.3496450">
        <ele>268.3500000</ele>
        <time>2010-08-14T15:53:52Z</time>
      </trkpt>
      <trkpt lat="51.1408430" lon="7.3495910">
        <ele>268.3500000</ele>
        <time>2010-08-14T15:53:53Z</time>
      </trkpt>
      <trkpt lat="51.1408330" lon="7.3495170">
        <ele>268.8300000</ele>
        <time>2010-08-14T15:53:54Z</time>
      </trkpt>
      <trkpt lat="51.1407790" lon="7.3494350">
        <ele>268.8300000</ele>
        <time>2010-08-14T15:53:55Z</time>
      </trkpt>
      <trkpt lat="51.1406890" lon="7.3493530">
        <ele>268.8300000</ele>
        <time>2010-08-14T15:53:56Z</time>
      </trkpt>
      <trkpt lat="51.1405610" lon="7.3492550">
        <ele>268.3500000</ele>
        <time>2010-08-14T15:53:57Z</time>
      </trkpt>
      <trkpt lat="51.1399860" lon="7.3484470">
        <ele>268.8300000</ele>
        <time>2010-08-14T15:54:01Z</time>
      </trkpt>
      <trkpt lat="51.1398630" lon="7.3481510">
        <ele>267.3800000</ele>
        <time>2010-08-14T15:54:02Z</time>
      </trkpt>
      <trkpt lat="51.1397330" lon="7.3478130">
        <ele>267.8600000</ele>
        <time>2010-08-14T15:54:03Z</time>
      </trkpt>
      <trkpt lat="51.1395990" lon="7.3474830">
        <ele>267.8600000</ele>
        <time>2010-08-14T15:54:04Z</time>
      </trkpt>
      <trkpt lat="51.1387310" lon="7.3456440">
        <ele>264.0200000</ele>
        <time>2010-08-14T15:54:11Z</time>
      </trkpt>
      <trkpt lat="51.1385820" lon="7.3454790">
        <ele>262.5800000</ele>
        <time>2010-08-14T15:54:12Z</time>
      </trkpt>
      <trkpt lat="51.1383960" lon="7.3454150">
        <ele>260.6500000</ele>
        <time>2010-08-14T15:54:13Z</time>
      </trkpt>
      <trkpt lat="51.1381350" lon="7.3454720">
        <ele>262.5800000</ele>
        <time>2010-08-14T15:54:14Z</time>
      </trkpt>
      <trkpt lat="51.1379650" lon="7.3454340">
        <ele>261.6200000</ele>
        <time>2010-08-14T15:54:15Z</time>
      </trkpt>
      <trkpt lat="51.1378010" lon="7.3454360">
        <ele>260.1700000</ele>
        <time>2010-08-14T15:54:16Z</time>
      </trkpt>
      <trkpt lat="51.1376530" lon="7.3454850">
        <ele>259.6900000</ele>
        <time>2010-08-14T15:54:17Z</time>
      </trkpt>
      <trkpt lat="51.1375200" lon="7.3455300">
        <ele>259.6900000</ele>
        <time>2010-08-14T15:54:18Z</time>
      </trkpt>
      <trkpt lat="51.1371100" lon="7.3456450">
        <ele>261.6200000</ele>
        <time>2010-08-14T15:54:22Z</time>
      </trkpt>
      <trkpt lat="51.1370660" lon="7.3456040">
        <ele>261.6200000</ele>
        <time>2010-08-14T15:54:23Z</time>
      </trkpt>
      <trkpt lat="51.1370440" lon="7.3455320">
        <ele>261.6200000</ele>
        <time>2010-08-14T15:54:24Z</time>
      </trkpt>
      <trkpt lat="51.1370190" lon="7.3454310">
        <ele>261.6200000</ele>
        <time>2010-08-14T15:54:25Z</time>
      </trkpt>
      <trkpt lat="51.1369940" lon="7.3452880">
        <ele>261.6200000</ele>
        <time>2010-08-14T15:54:26Z</time>
      </trkpt>
      <trkpt lat="51.1369620" lon="7.3450990">
        <ele>262.1000000</ele>
        <time>2010-08-14T15:54:27Z</time>
      </trkpt>
      <trkpt lat="51.1366070" lon="7.3435550">
        <ele>266.4200000</ele>
        <time>2010-08-14T15:54:33Z</time>
      </trkpt>
      <trkpt lat="51.1355590" lon="7.3412590">
        <ele>268.3500000</ele>
        <time>2010-08-14T15:54:41Z</time>
      </trkpt>
      <trkpt lat="51.1344840" lon="7.3396000">
        <ele>276.5200000</ele>
        <time>2010-08-14T15:54:47Z</time>
      </trkpt>
      <trkpt lat="51.1337080" lon="7.3384030">
        <ele>286.6100000</ele>
        <time>2010-08-14T15:54:53Z</time>
      </trkpt>
      <trkpt lat="51.1335030" lon="7.3382880">
        <ele>289.9700000</ele>
        <time>2010-08-14T15:54:54Z</time>
      </trkpt>
      <trkpt lat="51.1324190" lon="7.3372110">
        <ele>300.0700000</ele>
        <time>2010-08-14T15:55:00Z</time>
      </trkpt>
      <trkpt lat="51.1321790" lon="7.3367610">
        <ele>303.4300000</ele>
        <time>2010-08-14T15:55:02Z</time>
      </trkpt>
      <trkpt lat="51.1320930" lon="7.3364650">
        <ele>305.3600000</ele>
        <time>2010-08-14T15:55:03Z</time>
      </trkpt>
      <trkpt lat="51.1314830" lon="7.3348680">
        <ele>312.5700000</ele>
        <time>2010-08-14T15:55:09Z</time>
      </trkpt>
      <trkpt lat="51.1314030" lon="7.3345590">
        <ele>312.0900000</ele>
        <time>2010-08-14T15:55:10Z</time>
      </trkpt>
      <trkpt lat="51.1305540" lon="7.3311520">
        <ele>321.2200000</ele>
        <time>2010-08-14T15:55:20Z</time>
      </trkpt>
      <trkpt lat="51.1298030" lon="7.3297820">
        <ele>325.5400000</ele>
        <time>2010-08-14T15:55:26Z</time>
      </trkpt>
      <trkpt lat="51.1297470" lon="7.3296150">
        <ele>326.5000000</ele>
        <time>2010-08-14T15:55:27Z</time>
      </trkpt>
      <trkpt lat="51.1297380" lon="7.3294130">
        <ele>326.9900000</ele>
        <time>2010-08-14T15:55:28Z</time>
      </trkpt>
      <trkpt lat="51.1297640" lon="7.3292070">
        <ele>326.9900000</ele>
        <time>2010-08-14T15:55:29Z</time>
      </trkpt>
      <trkpt lat="51.1298240" lon="7.3290030">
        <ele>326.9900000</ele>
        <time>2010-08-14T15:55:30Z</time>
      </trkpt>
      <trkpt lat="51.1299070" lon="7.3287910">
        <ele>326.9900000</ele>
        <time>2010-08-14T15:55:31Z</time>
      </trkpt>
      <trkpt lat="51.1300070" lon="7.3285730">
        <ele>327.4700000</ele>
        <time>2010-08-14T15:55:32Z</time>
      </trkpt>
      <trkpt lat="51.1301210" lon="7.3283320">
        <ele>327.4700000</ele>
        <time>2010-08-14T15:55:33Z</time>
      </trkpt>
      <trkpt lat="51.1310250" lon="7.3266540">
        <ele>314.9700000</ele>
        <time>2010-08-14T15:55:39Z</time>
      </trkpt>
      <trkpt lat="51.1315990" lon="7.3254090">
        <ele>311.6000000</ele>
        <time>2010-08-14T15:55:44Z</time>
      </trkpt>
      <trkpt lat="51.1316310" lon="7.3251130">
        <ele>311.1200000</ele>
        <time>2010-08-14T15:55:45Z</time>
      </trkpt>
      <trkpt lat="51.1316170" lon="7.3247910">
        <ele>312.0900000</ele>
        <time>2010-08-14T15:55:46Z</time>
      </trkpt>
      <trkpt lat="51.1316060" lon="7.3244710">
        <ele>312.5700000</ele>
        <time>2010-08-14T15:55:47Z</time>
      </trkpt>
      <trkpt lat="51.1316020" lon="7.3241820">
        <ele>314.0100000</ele>
        <time>2010-08-14T15:55:48Z</time>
      </trkpt>
      <trkpt lat="51.1316300" lon="7.3236990">
        <ele>316.4100000</ele>
        <time>2010-08-14T15:55:50Z</time>
      </trkpt>
      <trkpt lat="51.1316800" lon="7.3234910">
        <ele>317.8500000</ele>
        <time>2010-08-14T15:55:51Z</time>
      </trkpt>
      <trkpt lat="51.1317660" lon="7.3233030">
        <ele>319.7800000</ele>
        <time>2010-08-14T15:55:52Z</time>
      </trkpt>
      <trkpt lat="51.1318840" lon="7.3231520">
        <ele>321.7000000</ele>
        <time>2010-08-14T15:55:53Z</time>
      </trkpt>
      <trkpt lat="51.1320280" lon="7.3230530">
        <ele>323.6200000</ele>
        <time>2010-08-14T15:55:54Z</time>
      </trkpt>
      <trkpt lat="51.1321790" lon="7.3230030">
        <ele>325.5400000</ele>
        <time>2010-08-14T15:55:55Z</time>
      </trkpt>
      <trkpt lat="51.1323340" lon="7.3230180">
        <ele>327.4700000</ele>
        <time>2010-08-14T15:55:56Z</time>
      </trkpt>
      <trkpt lat="51.1324810" lon="7.3230650">
        <ele>329.3900000</ele>
        <time>2010-08-14T15:55:57Z</time>
      </trkpt>
      <trkpt lat="51.1326440" lon="7.3231040">
        <ele>331.3100000</ele>
        <time>2010-08-14T15:55:58Z</time>
      </trkpt>
      <trkpt lat="51.1327900" lon="7.3231810">
        <ele>333.7100000</ele>
        <time>2010-08-14T15:55:59Z</time>
      </trkpt>
      <trkpt lat="51.1332120" lon="7.3230680">
        <ele>338.0400000</ele>
        <time>2010-08-14T15:56:02Z</time>
      </trkpt>
      <trkpt lat="51.1333340" lon="7.3229230">
        <ele>339.9600000</ele>
        <time>2010-08-14T15:56:03Z</time>
      </trkpt>
      <trkpt lat="51.1334310" lon="7.3227400">
        <ele>341.8900000</ele>
        <time>2010-08-14T15:56:04Z</time>
      </trkpt>
      <trkpt lat="51.1335270" lon="7.3224750">
        <ele>340.4400000</ele>
        <time>2010-08-14T15:56:05Z</time>
      </trkpt>
      <trkpt lat="51.1336270" lon="7.3222380">
        <ele>340.4400000</ele>
        <time>2010-08-14T15:56:06Z</time>
      </trkpt>
      <trkpt lat="51.1337330" lon="7.3219960">
        <ele>339.9600000</ele>
        <time>2010-08-14T15:56:07Z</time>
      </trkpt>
      <trkpt lat="51.1346930" lon="7.3198520">
        <ele>336.1200000</ele>
        <time>2010-08-14T15:56:15Z</time>
      </trkpt>
      <trkpt lat="51.1353650" lon="7.3180080">
        <ele>333.2300000</ele>
        <time>2010-08-14T15:56:22Z</time>
      </trkpt>
      <trkpt lat="51.1364580" lon="7.3162480">
        <ele>335.1600000</ele>
        <time>2010-08-14T15:56:30Z</time>
      </trkpt>
      <trkpt lat="51.1374000" lon="7.3147330">
        <ele>342.8500000</ele>
        <time>2010-08-14T15:56:38Z</time>
      </trkpt>
      <trkpt lat="51.1383200" lon="7.3128720">
        <ele>353.4200000</ele>
        <time>2010-08-14T15:56:47Z</time>
      </trkpt>
      <trkpt lat="51.1385180" lon="7.3125290">
        <ele>355.8300000</ele>
        <time>2010-08-14T15:56:49Z</time>
      </trkpt>
      <trkpt lat="51.1386310" lon="7.3123810">
        <ele>356.7900000</ele>
        <time>2010-08-14T15:56:50Z</time>
      </trkpt>
      <trkpt lat="51.1387500" lon="7.3122550">
        <ele>357.7500000</ele>
        <time>2010-08-14T15:56:51Z</time>
      </trkpt>
      <trkpt lat="51.1388730" lon="7.3121450">
        <ele>359.1900000</ele>
        <time>2010-08-14T15:56:52Z</time>
      </trkpt>
      <trkpt lat="51.1390000" lon="7.3120440">
        <ele>360.1500000</ele>
        <time>2010-08-14T15:56:53Z</time>
      </trkpt>
      <trkpt lat="51.1396700" lon="7.3116330">
        <ele>365.4400000</ele>
        <time>2010-08-14T15:57:00Z</time>
      </trkpt>
      <trkpt lat="51.1396670" lon="7.3115810">
        <ele>364.9600000</ele>
        <time>2010-08-14T15:57:07Z</time>
      </trkpt>
      <trkpt lat="51.1396790" lon="7.3116430">
        <ele>364.9600000</ele>
        <time>2010-08-14T15:58:07Z</time>
      </trkpt>
      <trkpt lat="51.1397570" lon="7.3117050">
        <ele>385.1500000</ele>
        <time>2010-08-14T15:58:47Z</time>
      </trkpt>
      <trkpt lat="51.1399560" lon="7.3114710">
        <ele>372.6500000</ele>
        <time>2010-08-14T15:58:56Z</time>
      </trkpt>
      <trkpt lat="51.1407410" lon="7.3110570">
        <ele>363.5200000</ele>
        <time>2010-08-14T15:59:02Z</time>
      </trkpt>
      <trkpt lat="51.1415330" lon="7.3108720">
        <ele>353.9000000</ele>
        <time>2010-08-14T15:59:09Z</time>
      </trkpt>
      <trkpt lat="51.1416720" lon="7.3107900">
        <ele>351.5000000</ele>
        <time>2010-08-14T15:59:13Z</time>
      </trkpt>
      <trkpt lat="51.1416770" lon="7.3107600">
        <ele>351.5000000</ele>
        <time>2010-08-14T15:59:14Z</time>
      </trkpt>
      <trkpt lat="51.1416730" lon="7.3107180">
        <ele>350.5400000</ele>
        <time>2010-08-14T15:59:15Z</time>
      </trkpt>
      <trkpt lat="51.1416520" lon="7.3106640">
        <ele>349.1000000</ele>
        <time>2010-08-14T15:59:16Z</time>
      </trkpt>
      <trkpt lat="51.1415770" lon="7.3106080">
        <ele>349.1000000</ele>
        <time>2010-08-14T15:59:17Z</time>
      </trkpt>
      <trkpt lat="51.1414680" lon="7.3105090">
        <ele>348.6200000</ele>
        <time>2010-08-14T15:59:18Z</time>
      </trkpt>
      <trkpt lat="51.1413380" lon="7.3103890">
        <ele>348.1300000</ele>
        <time>2010-08-14T15:59:19Z</time>
      </trkpt>
      <trkpt lat="51.1405650" lon="7.3096410">
        <ele>347.6500000</ele>
        <time>2010-08-14T15:59:24Z</time>
      </trkpt>
      <trkpt lat="51.1401940" lon="7.3090820">
        <ele>345.7300000</ele>
        <time>2010-08-14T15:59:27Z</time>
      </trkpt>
      <trkpt lat="51.1400830" lon="7.3088110">
        <ele>344.7700000</ele>
        <time>2010-08-14T15:59:28Z</time>
      </trkpt>
      <trkpt lat="51.1399820" lon="7.3084610">
        <ele>345.2500000</ele>
        <time>2010-08-14T15:59:29Z</time>
      </trkpt>
      <trkpt lat="51.1396250" lon="7.3071960">
        <ele>346.6900000</ele>
        <time>2010-08-14T15:59:33Z</time>
      </trkpt>
      <trkpt lat="51.1390190" lon="7.3042310">
        <ele>346.2100000</ele>
        <time>2010-08-14T15:59:42Z</time>
      </trkpt>
      <trkpt lat="51.1384540" lon="7.3017600">
        <ele>343.8100000</ele>
        <time>2010-08-14T15:59:50Z</time>
      </trkpt>
      <trkpt lat="51.1383520" lon="7.3015240">
        <ele>343.8100000</ele>
        <time>2010-08-14T15:59:51Z</time>
      </trkpt>
      <trkpt lat="51.1377670" lon="7.3000970">
        <ele>341.8900000</ele>
        <time>2010-08-14T15:59:57Z</time>
      </trkpt>
      <trkpt lat="51.1377200" lon="7.2998460">
        <ele>341.4100000</ele>
        <time>2010-08-14T15:59:58Z</time>
      </trkpt>
      <trkpt lat="51.1376880" lon="7.2995930">
        <ele>340.9200000</ele>
        <time>2010-08-14T15:59:59Z</time>
      </trkpt>
      <trkpt lat="51.1376810" lon="7.2986550">
        <ele>339.4800000</ele>
        <time>2010-08-14T16:00:03Z</time>
      </trkpt>
      <trkpt lat="51.1377310" lon="7.2984910">
        <ele>339.0000000</ele>
        <time>2010-08-14T16:00:04Z</time>
      </trkpt>
      <trkpt lat="51.1377790" lon="7.2983720">
        <ele>338.0400000</ele>
        <time>2010-08-14T16:00:05Z</time>
      </trkpt>
      <trkpt lat="51.1379140" lon="7.2980320">
        <ele>335.6400000</ele>
        <time>2010-08-14T16:00:10Z</time>
      </trkpt>
      <trkpt lat="51.1379020" lon="7.2979350">
        <ele>335.1600000</ele>
        <time>2010-08-14T16:00:11Z</time>
      </trkpt>
      <trkpt lat="51.1376710" lon="7.2969000">
        <ele>333.7100000</ele>
        <time>2010-08-14T16:00:17Z</time>
      </trkpt>
      <trkpt lat="51.1372520" lon="7.2951280">
        <ele>334.2000000</ele>
        <time>2010-08-14T16:00:26Z</time>
      </trkpt>
      <trkpt lat="51.1365160" lon="7.2934390">
        <ele>338.0400000</ele>
        <time>2010-08-14T16:00:35Z</time>
      </trkpt>
      <trkpt lat="51.1357900" lon="7.2917740">
        <ele>339.4800000</ele>
        <time>2010-08-14T16:00:45Z</time>
      </trkpt>
      <trkpt lat="51.1354490" lon="7.2903040">
        <ele>339.0000000</ele>
        <time>2010-08-14T16:00:52Z</time>
      </trkpt>
      <trkpt lat="51.1353260" lon="7.2897300">
        <ele>338.5200000</ele>
        <time>2010-08-14T16:00:59Z</time>
      </trkpt>
      <trkpt lat="51.1352950" lon="7.2895620">
        <ele>338.0400000</ele>
        <time>2010-08-14T16:01:06Z</time>
      </trkpt>
      <trkpt lat="51.1352220" lon="7.2893700">
        <ele>337.5600000</ele>
        <time>2010-08-14T16:03:37Z</time>
      </trkpt>
      <trkpt lat="51.1350550" lon="7.2885340">
        <ele>335.6400000</ele>
        <time>2010-08-14T16:03:45Z</time>
      </trkpt>
      <trkpt lat="51.1350530" lon="7.2885310">
        <ele>332.7500000</ele>
        <time>2010-08-14T16:04:20Z</time>
      </trkpt>
      <trkpt lat="51.1349230" lon="7.2879960">
        <ele>332.2700000</ele>
        <time>2010-08-14T16:04:25Z</time>
      </trkpt>
      <trkpt lat="51.1346400" lon="7.2862640">
        <ele>329.8700000</ele>
        <time>2010-08-14T16:04:30Z</time>
      </trkpt>
      <trkpt lat="51.1346000" lon="7.2857470">
        <ele>330.8300000</ele>
        <time>2010-08-14T16:04:31Z</time>
      </trkpt>
      <trkpt lat="51.1344750" lon="7.2836080">
        <ele>328.4300000</ele>
        <time>2010-08-14T16:04:35Z</time>
      </trkpt>
      <trkpt lat="51.1343570" lon="7.2818100">
        <ele>326.0200000</ele>
        <time>2010-08-14T16:04:39Z</time>
      </trkpt>
      <trkpt lat="51.1342540" lon="7.2813420">
        <ele>326.0200000</ele>
        <time>2010-08-14T16:04:40Z</time>
      </trkpt>
      <trkpt lat="51.1341190" lon="7.2808680">
        <ele>326.0200000</ele>
        <time>2010-08-14T16:04:41Z</time>
      </trkpt>
      <trkpt lat="51.1336920" lon="7.2792620">
        <ele>326.5000000</ele>
        <time>2010-08-14T16:04:45Z</time>
      </trkpt>
      <trkpt lat="51.1336610" lon="7.2789050">
        <ele>326.5000000</ele>
        <time>2010-08-14T16:04:46Z</time>
      </trkpt>
      <trkpt lat="51.1336440" lon="7.2785130">
        <ele>326.9900000</ele>
        <time>2010-08-14T16:04:47Z</time>
      </trkpt>
      <trkpt lat="51.1335580" lon="7.2759090">
        <ele>329.3900000</ele>
        <time>2010-08-14T16:04:54Z</time>
      </trkpt>
      <trkpt lat="51.1334940" lon="7.2735650">
        <ele>328.4300000</ele>
        <time>2010-08-14T16:05:01Z</time>
      </trkpt>
      <trkpt lat="51.1334480" lon="7.2722790">
        <ele>327.9500000</ele>
        <time>2010-08-14T16:05:07Z</time>
      </trkpt>
      <trkpt lat="51.1334530" lon="7.2719350">
        <ele>327.9500000</ele>
        <time>2010-08-14T16:05:10Z</time>
      </trkpt>
      <trkpt lat="51.1334990" lon="7.2719030">
        <ele>327.9500000</ele>
        <time>2010-08-14T16:05:11Z</time>
      </trkpt>
      <trkpt lat="51.1335650" lon="7.2719000">
        <ele>328.4300000</ele>
        <time>2010-08-14T16:05:12Z</time>
      </trkpt>
      <trkpt lat="51.1336640" lon="7.2718840">
        <ele>328.4300000</ele>
        <time>2010-08-14T16:05:13Z</time>
      </trkpt>
      <trkpt lat="51.1338060" lon="7.2718280">
        <ele>328.4300000</ele>
        <time>2010-08-14T16:05:14Z</time>
      </trkpt>
      <trkpt lat="51.1345310" lon="7.2716010">
        <ele>328.9100000</ele>
        <time>2010-08-14T16:05:18Z</time>
      </trkpt>
      <trkpt lat="51.1347780" lon="7.2716680">
        <ele>328.9100000</ele>
        <time>2010-08-14T16:05:19Z</time>
      </trkpt>
      <trkpt lat="51.1350220" lon="7.2717290">
        <ele>329.3900000</ele>
        <time>2010-08-14T16:05:20Z</time>
      </trkpt>
      <trkpt lat="51.1354650" lon="7.2717740">
        <ele>332.7500000</ele>
        <time>2010-08-14T16:05:22Z</time>
      </trkpt>
      <trkpt lat="51.1356620" lon="7.2717140">
        <ele>333.7100000</ele>
        <time>2010-08-14T16:05:23Z</time>
      </trkpt>
      <trkpt lat="51.1358650" lon="7.2716030">
        <ele>334.2000000</ele>
        <time>2010-08-14T16:05:24Z</time>
      </trkpt>
      <trkpt lat="51.1370970" lon="7.2711370">
        <ele>334.6800000</ele>
        <time>2010-08-14T16:05:30Z</time>
      </trkpt>
      <trkpt lat="51.1374400" lon="7.2710740">
        <ele>335.6400000</ele>
        <time>2010-08-14T16:05:33Z</time>
      </trkpt>
      <trkpt lat="51.1375040" lon="7.2710210">
        <ele>336.1200000</ele>
        <time>2010-08-14T16:05:34Z</time>
      </trkpt>
      <trkpt lat="51.1375380" lon="7.2709080">
        <ele>335.6400000</ele>
        <time>2010-08-14T16:05:35Z</time>
      </trkpt>
      <trkpt lat="51.1375380" lon="7.2707420">
        <ele>335.6400000</ele>
        <time>2010-08-14T16:05:36Z</time>
      </trkpt>
      <trkpt lat="51.1375170" lon="7.2705140">
        <ele>335.6400000</ele>
        <time>2010-08-14T16:05:37Z</time>
      </trkpt>
      <trkpt lat="51.1374810" lon="7.2702410">
        <ele>336.1200000</ele>
        <time>2010-08-14T16:05:38Z</time>
      </trkpt>
      <trkpt lat="51.1374340" lon="7.2699550">
        <ele>335.6400000</ele>
        <time>2010-08-14T16:05:39Z</time>
      </trkpt>
      <trkpt lat="51.1373730" lon="7.2696790">
        <ele>334.6800000</ele>
        <time>2010-08-14T16:05:40Z</time>
      </trkpt>
      <trkpt lat="51.1372940" lon="7.2694070">
        <ele>333.7100000</ele>
        <time>2010-08-14T16:05:41Z</time>
      </trkpt>
      <trkpt lat="51.1372040" lon="7.2691490">
        <ele>332.7500000</ele>
        <time>2010-08-14T16:05:42Z</time>
      </trkpt>
      <trkpt lat="51.1371060" lon="7.2689140">
        <ele>331.3100000</ele>
        <time>2010-08-14T16:05:43Z</time>
      </trkpt>
      <trkpt lat="51.1369740" lon="7.2687420">
        <ele>330.3500000</ele>
        <time>2010-08-14T16:05:44Z</time>
      </trkpt>
      <trkpt lat="51.1368600" lon="7.2685810">
        <ele>329.8700000</ele>
        <time>2010-08-14T16:05:45Z</time>
      </trkpt>
      <trkpt lat="51.1367720" lon="7.2684240">
        <ele>328.4300000</ele>
        <time>2010-08-14T16:05:46Z</time>
      </trkpt>
      <trkpt lat="51.1367350" lon="7.2682570">
        <ele>327.4700000</ele>
        <time>2010-08-14T16:05:47Z</time>
      </trkpt>
      <trkpt lat="51.1367470" lon="7.2680830">
        <ele>326.5000000</ele>
        <time>2010-08-14T16:05:48Z</time>
      </trkpt>
      <trkpt lat="51.1367990" lon="7.2679110">
        <ele>326.0200000</ele>
        <time>2010-08-14T16:05:49Z</time>
      </trkpt>
      <trkpt lat="51.1368730" lon="7.2677470">
        <ele>325.0600000</ele>
        <time>2010-08-14T16:05:50Z</time>
      </trkpt>
      <trkpt lat="51.1369780" lon="7.2675810">
        <ele>324.1000000</ele>
        <time>2010-08-14T16:05:51Z</time>
      </trkpt>
      <trkpt lat="51.1370750" lon="7.2674280">
        <ele>324.1000000</ele>
        <time>2010-08-14T16:05:52Z</time>
      </trkpt>
      <trkpt lat="51.1371560" lon="7.2672610">
        <ele>323.6200000</ele>
        <time>2010-08-14T16:05:53Z</time>
      </trkpt>
      <trkpt lat="51.1371940" lon="7.2670530">
        <ele>323.1400000</ele>
        <time>2010-08-14T16:05:54Z</time>
      </trkpt>
      <trkpt lat="51.1372020" lon="7.2667870">
        <ele>322.1800000</ele>
        <time>2010-08-14T16:05:55Z</time>
      </trkpt>
      <trkpt lat="51.1372090" lon="7.2664990">
        <ele>322.6600000</ele>
        <time>2010-08-14T16:05:56Z</time>
      </trkpt>
      <trkpt lat="51.1372050" lon="7.2662140">
        <ele>323.1400000</ele>
        <time>2010-08-14T16:05:57Z</time>
      </trkpt>
      <trkpt lat="51.1371640" lon="7.2659300">
        <ele>323.1400000</ele>
        <time>2010-08-14T16:05:58Z</time>
      </trkpt>
      <trkpt lat="51.1370870" lon="7.2656320">
        <ele>323.1400000</ele>
        <time>2010-08-14T16:05:59Z</time>
      </trkpt>
      <trkpt lat="51.1370140" lon="7.2653510">
        <ele>323.6200000</ele>
        <time>2010-08-14T16:06:00Z</time>
      </trkpt>
      <trkpt lat="51.1368770" lon="7.2649060">
        <ele>323.1400000</ele>
        <time>2010-08-14T16:06:02Z</time>
      </trkpt>
      <trkpt lat="51.1367730" lon="7.2647840">
        <ele>323.1400000</ele>
        <time>2010-08-14T16:06:03Z</time>
      </trkpt>
      <trkpt lat="51.1366720" lon="7.2646900">
        <ele>322.6600000</ele>
        <time>2010-08-14T16:06:04Z</time>
      </trkpt>
      <trkpt lat="51.1365120" lon="7.2647010">
        <ele>322.6600000</ele>
        <time>2010-08-14T16:06:05Z</time>
      </trkpt>
      <trkpt lat="51.1363470" lon="7.2646670">
        <ele>323.1400000</ele>
        <time>2010-08-14T16:06:06Z</time>
      </trkpt>
      <trkpt lat="51.1361530" lon="7.2646360">
        <ele>322.6600000</ele>
        <time>2010-08-14T16:06:07Z</time>
      </trkpt>
      <trkpt lat="51.1359460" lon="7.2645880">
        <ele>321.7000000</ele>
        <time>2010-08-14T16:06:08Z</time>
      </trkpt>
      <trkpt lat="51.1353520" lon="7.2642610">
        <ele>317.8500000</ele>
        <time>2010-08-14T16:06:11Z</time>
      </trkpt>
      <trkpt lat="51.1351610" lon="7.2641040">
        <ele>315.9300000</ele>
        <time>2010-08-14T16:06:12Z</time>
      </trkpt>
      <trkpt lat="51.1346720" lon="7.2636380">
        <ele>312.0900000</ele>
        <time>2010-08-14T16:06:15Z</time>
      </trkpt>
      <trkpt lat="51.1345840" lon="7.2634530">
        <ele>309.6800000</ele>
        <time>2010-08-14T16:06:16Z</time>
      </trkpt>
      <trkpt lat="51.1345120" lon="7.2632110">
        <ele>308.2400000</ele>
        <time>2010-08-14T16:06:17Z</time>
      </trkpt>
      <trkpt lat="51.1344410" lon="7.2629340">
        <ele>306.3200000</ele>
        <time>2010-08-14T16:06:18Z</time>
      </trkpt>
      <trkpt lat="51.1343670" lon="7.2626820">
        <ele>303.4300000</ele>
        <time>2010-08-14T16:06:19Z</time>
      </trkpt>
      <trkpt lat="51.1340380" lon="7.2621020">
        <ele>295.2600000</ele>
        <time>2010-08-14T16:06:23Z</time>
      </trkpt>
      <trkpt lat="51.1339740" lon="7.2620540">
        <ele>295.7400000</ele>
        <time>2010-08-14T16:06:24Z</time>
      </trkpt>
      <trkpt lat="51.1339070" lon="7.2618500">
        <ele>293.8200000</ele>
        <time>2010-08-14T16:06:26Z</time>
      </trkpt>
      <trkpt lat="51.1339190" lon="7.2616640">
        <ele>292.3800000</ele>
        <time>2010-08-14T16:06:27Z</time>
      </trkpt>
      <trkpt lat="51.1339680" lon="7.2614330">
        <ele>291.4200000</ele>
        <time>2010-08-14T16:06:28Z</time>
      </trkpt>
      <trkpt lat="51.1340340" lon="7.2611990">
        <ele>290.4600000</ele>
        <time>2010-08-14T16:06:29Z</time>
      </trkpt>
      <trkpt lat="51.1341020" lon="7.2609420">
        <ele>291.9000000</ele>
        <time>2010-08-14T16:06:30Z</time>
      </trkpt>
      <trkpt lat="51.1342380" lon="7.2605150">
        <ele>292.3800000</ele>
        <time>2010-08-14T16:06:32Z</time>
      </trkpt>
      <trkpt lat="51.1343300" lon="7.2604160">
        <ele>291.9000000</ele>
        <time>2010-08-14T16:06:33Z</time>
      </trkpt>
      <trkpt lat="51.1344350" lon="7.2603470">
        <ele>291.9000000</ele>
        <time>2010-08-14T16:06:34Z</time>
      </trkpt>
      <trkpt lat="51.1345330" lon="7.2602370">
        <ele>291.9000000</ele>
        <time>2010-08-14T16:06:35Z</time>
      </trkpt>
      <trkpt lat="51.1346210" lon="7.2601030">
        <ele>292.3800000</ele>
        <time>2010-08-14T16:06:36Z</time>
      </trkpt>
      <trkpt lat="51.1346810" lon="7.2598890">
        <ele>292.3800000</ele>
        <time>2010-08-14T16:06:37Z</time>
      </trkpt>
      <trkpt lat="51.1347240" lon="7.2596090">
        <ele>294.3000000</ele>
        <time>2010-08-14T16:06:38Z</time>
      </trkpt>
      <trkpt lat="51.1347680" lon="7.2593120">
        <ele>296.7000000</ele>
        <time>2010-08-14T16:06:39Z</time>
      </trkpt>
      <trkpt lat="51.1348060" lon="7.2590120">
        <ele>298.6300000</ele>
        <time>2010-08-14T16:06:40Z</time>
      </trkpt>
      <trkpt lat="51.1349460" lon="7.2576680">
        <ele>308.2400000</ele>
        <time>2010-08-14T16:06:45Z</time>
      </trkpt>
      <trkpt lat="51.1350120" lon="7.2575000">
        <ele>309.6800000</ele>
        <time>2010-08-14T16:06:46Z</time>
      </trkpt>
      <trkpt lat="51.1350990" lon="7.2573590">
        <ele>312.0900000</ele>
        <time>2010-08-14T16:06:47Z</time>
      </trkpt>
      <trkpt lat="51.1352030" lon="7.2572240">
        <ele>314.4900000</ele>
        <time>2010-08-14T16:06:48Z</time>
      </trkpt>
      <trkpt lat="51.1353110" lon="7.2571050">
        <ele>315.9300000</ele>
        <time>2010-08-14T16:06:49Z</time>
      </trkpt>
      <trkpt lat="51.1354020" lon="7.2569840">
        <ele>316.8900000</ele>
        <time>2010-08-14T16:06:50Z</time>
      </trkpt>
      <trkpt lat="51.1354750" lon="7.2568820">
        <ele>318.3300000</ele>
        <time>2010-08-14T16:06:51Z</time>
      </trkpt>
      <trkpt lat="51.1355460" lon="7.2568330">
        <ele>318.8100000</ele>
        <time>2010-08-14T16:06:52Z</time>
      </trkpt>
      <trkpt lat="51.1356220" lon="7.2568490">
        <ele>318.8100000</ele>
        <time>2010-08-14T16:06:53Z</time>
      </trkpt>
      <trkpt lat="51.1357230" lon="7.2568990">
        <ele>319.3000000</ele>
        <time>2010-08-14T16:06:54Z</time>
      </trkpt>
      <trkpt lat="51.1358400" lon="7.2569470">
        <ele>320.7400000</ele>
        <time>2010-08-14T16:06:55Z</time>
      </trkpt>
      <trkpt lat="51.1359690" lon="7.2570030">
        <ele>321.2200000</ele>
        <time>2010-08-14T16:06:56Z</time>
      </trkpt>
      <trkpt lat="51.1367520" lon="7.2571450">
        <ele>320.7400000</ele>
        <time>2010-08-14T16:07:03Z</time>
      </trkpt>
      <trkpt lat="51.1368380" lon="7.2571070">
        <ele>320.7400000</ele>
        <time>2010-08-14T16:07:04Z</time>
      </trkpt>
      <trkpt lat="51.1368790" lon="7.2569990">
        <ele>320.2600000</ele>
        <time>2010-08-14T16:07:05Z</time>
      </trkpt>
      <trkpt lat="51.1368810" lon="7.2568580">
        <ele>319.7800000</ele>
        <time>2010-08-14T16:07:06Z</time>
      </trkpt>
      <trkpt lat="51.1368760" lon="7.2567110">
        <ele>319.7800000</ele>
        <time>2010-08-14T16:07:07Z</time>
      </trkpt>
      <trkpt lat="51.1368680" lon="7.2565430">
        <ele>319.3000000</ele>
        <time>2010-08-14T16:07:08Z</time>
      </trkpt>
      <trkpt lat="51.1368660" lon="7.2563670">
        <ele>318.8100000</ele>
        <time>2010-08-14T16:07:09Z</time>
      </trkpt>
      <trkpt lat="51.1368820" lon="7.2560230">
        <ele>317.3700000</ele>
        <time>2010-08-14T16:07:11Z</time>
      </trkpt>
      <trkpt lat="51.1369160" lon="7.2558640">
        <ele>316.4100000</ele>
        <time>2010-08-14T16:07:12Z</time>
      </trkpt>
      <trkpt lat="51.1371010" lon="7.2551190">
        <ele>312.0900000</ele>
        <time>2010-08-14T16:07:17Z</time>
      </trkpt>
      <trkpt lat="51.1370930" lon="7.2549990">
        <ele>311.1200000</ele>
        <time>2010-08-14T16:07:18Z</time>
      </trkpt>
      <trkpt lat="51.1370350" lon="7.2549490">
        <ele>311.6000000</ele>
        <time>2010-08-14T16:07:19Z</time>
      </trkpt>
      <trkpt lat="51.1368720" lon="7.2549630">
        <ele>308.7200000</ele>
        <time>2010-08-14T16:07:21Z</time>
      </trkpt>
      <trkpt lat="51.1367710" lon="7.2549810">
        <ele>307.2800000</ele>
        <time>2010-08-14T16:07:22Z</time>
      </trkpt>
      <trkpt lat="51.1366430" lon="7.2550160">
        <ele>305.8400000</ele>
        <time>2010-08-14T16:07:23Z</time>
      </trkpt>
      <trkpt lat="51.1365470" lon="7.2549700">
        <ele>304.8800000</ele>
        <time>2010-08-14T16:07:24Z</time>
      </trkpt>
      <trkpt lat="51.1364820" lon="7.2548580">
        <ele>303.9100000</ele>
        <time>2010-08-14T16:07:25Z</time>
      </trkpt>
      <trkpt lat="51.1364360" lon="7.2546810">
        <ele>303.4300000</ele>
        <time>2010-08-14T16:07:26Z</time>
      </trkpt>
      <trkpt lat="51.1363850" lon="7.2544590">
        <ele>301.5100000</ele>
        <time>2010-08-14T16:07:27Z</time>
      </trkpt>
      <trkpt lat="51.1363120" lon="7.2541840">
        <ele>299.5900000</ele>
        <time>2010-08-14T16:07:28Z</time>
      </trkpt>
      <trkpt lat="51.1358800" lon="7.2527320">
        <ele>296.7000000</ele>
        <time>2010-08-14T16:07:32Z</time>
      </trkpt>
      <trkpt lat="51.1352260" lon="7.2508450">
        <ele>296.7000000</ele>
        <time>2010-08-14T16:07:38Z</time>
      </trkpt>
      <trkpt lat="51.1351440" lon="7.2505900">
        <ele>295.7400000</ele>
        <time>2010-08-14T16:07:39Z</time>
      </trkpt>
      <trkpt lat="51.1350880" lon="7.2503180">
        <ele>294.7800000</ele>
        <time>2010-08-14T16:07:40Z</time>
      </trkpt>
      <trkpt lat="51.1350540" lon="7.2500250">
        <ele>293.8200000</ele>
        <time>2010-08-14T16:07:41Z</time>
      </trkpt>
      <trkpt lat="51.1350440" lon="7.2497130">
        <ele>292.8600000</ele>
        <time>2010-08-14T16:07:42Z</time>
      </trkpt>
      <trkpt lat="51.1350530" lon="7.2493890">
        <ele>291.4200000</ele>
        <time>2010-08-14T16:07:43Z</time>
      </trkpt>
      <trkpt lat="51.1350790" lon="7.2490650">
        <ele>289.4900000</ele>
        <time>2010-08-14T16:07:44Z</time>
      </trkpt>
      <trkpt lat="51.1351350" lon="7.2481810">
        <ele>285.6500000</ele>
        <time>2010-08-14T16:07:47Z</time>
      </trkpt>
      <trkpt lat="51.1351210" lon="7.2479120">
        <ele>284.2100000</ele>
        <time>2010-08-14T16:07:48Z</time>
      </trkpt>
      <trkpt lat="51.1350860" lon="7.2476580">
        <ele>282.2800000</ele>
        <time>2010-08-14T16:07:49Z</time>
      </trkpt>
      <trkpt lat="51.1350380" lon="7.2474230">
        <ele>280.8400000</ele>
        <time>2010-08-14T16:07:50Z</time>
      </trkpt>
      <trkpt lat="51.1349890" lon="7.2472090">
        <ele>279.4000000</ele>
        <time>2010-08-14T16:07:51Z</time>
      </trkpt>
      <trkpt lat="51.1344960" lon="7.2457600">
        <ele>269.3100000</ele>
        <time>2010-08-14T16:08:00Z</time>
      </trkpt>
      <trkpt lat="51.1343210" lon="7.2453430">
        <ele>267.8600000</ele>
        <time>2010-08-14T16:08:03Z</time>
      </trkpt>
      <trkpt lat="51.1342980" lon="7.2451760">
        <ele>267.3800000</ele>
        <time>2010-08-14T16:08:04Z</time>
      </trkpt>
      <trkpt lat="51.1342830" lon="7.2450010">
        <ele>267.3800000</ele>
        <time>2010-08-14T16:08:05Z</time>
      </trkpt>
      <trkpt lat="51.1343060" lon="7.2434420">
        <ele>264.0200000</ele>
        <time>2010-08-14T16:08:11Z</time>
      </trkpt>
      <trkpt lat="51.1342430" lon="7.2413500">
        <ele>259.2100000</ele>
        <time>2010-08-14T16:08:17Z</time>
      </trkpt>
      <trkpt lat="51.1342910" lon="7.2401000">
        <ele>254.4100000</ele>
        <time>2010-08-14T16:08:21Z</time>
      </trkpt>
      <trkpt lat="51.1343830" lon="7.2398500">
        <ele>253.9300000</ele>
        <time>2010-08-14T16:08:22Z</time>
      </trkpt>
      <trkpt lat="51.1345900" lon="7.2390860">
        <ele>250.5600000</ele>
        <time>2010-08-14T16:08:25Z</time>
      </trkpt>
      <trkpt lat="51.1346940" lon="7.2388400">
        <ele>251.5200000</ele>
        <time>2010-08-14T16:08:26Z</time>
      </trkpt>
      <trkpt lat="51.1350520" lon="7.2379510">
        <ele>252.9600000</ele>
        <time>2010-08-14T16:08:32Z</time>
      </trkpt>
      <trkpt lat="51.1350620" lon="7.2377980">
        <ele>254.4100000</ele>
        <time>2010-08-14T16:08:35Z</time>
      </trkpt>
      <trkpt lat="51.1351130" lon="7.2376490">
        <ele>253.4400000</ele>
        <time>2010-08-14T16:08:36Z</time>
      </trkpt>
      <trkpt lat="51.1352160" lon="7.2374680">
        <ele>252.9600000</ele>
        <time>2010-08-14T16:08:37Z</time>
      </trkpt>
      <trkpt lat="51.1353510" lon="7.2372080">
        <ele>254.8900000</ele>
        <time>2010-08-14T16:08:38Z</time>
      </trkpt>
      <trkpt lat="51.1355140" lon="7.2369520">
        <ele>253.9300000</ele>
        <time>2010-08-14T16:08:39Z</time>
      </trkpt>
      <trkpt lat="51.1362240" lon="7.2355360">
        <ele>251.0400000</ele>
        <time>2010-08-14T16:08:44Z</time>
      </trkpt>
      <trkpt lat="51.1362740" lon="7.2351770">
        <ele>249.6000000</ele>
        <time>2010-08-14T16:08:45Z</time>
      </trkpt>
      <trkpt lat="51.1362800" lon="7.2348070">
        <ele>248.6400000</ele>
        <time>2010-08-14T16:08:46Z</time>
      </trkpt>
      <trkpt lat="51.1362710" lon="7.2343790">
        <ele>248.6400000</ele>
        <time>2010-08-14T16:08:47Z</time>
      </trkpt>
      <trkpt lat="51.1362750" lon="7.2339740">
        <ele>248.1600000</ele>
        <time>2010-08-14T16:08:48Z</time>
      </trkpt>
      <trkpt lat="51.1362650" lon="7.2335720">
        <ele>247.6800000</ele>
        <time>2010-08-14T16:08:49Z</time>
      </trkpt>
      <trkpt lat="51.1362460" lon="7.2331720">
        <ele>246.2300000</ele>
        <time>2010-08-14T16:08:50Z</time>
      </trkpt>
      <trkpt lat="51.1362360" lon="7.2327920">
        <ele>244.7900000</ele>
        <time>2010-08-14T16:08:51Z</time>
      </trkpt>
      <trkpt lat="51.1361540" lon="7.2309390">
        <ele>239.9900000</ele>
        <time>2010-08-14T16:08:57Z</time>
      </trkpt>
      <trkpt lat="51.1356350" lon="7.2291460">
        <ele>238.5400000</ele>
        <time>2010-08-14T16:09:02Z</time>
      </trkpt>
      <trkpt lat="51.1351450" lon="7.2267780">
        <ele>252.4800000</ele>
        <time>2010-08-14T16:09:09Z</time>
      </trkpt>
      <trkpt lat="51.1351380" lon="7.2264910">
        <ele>254.8900000</ele>
        <time>2010-08-14T16:09:10Z</time>
      </trkpt>
      <trkpt lat="51.1351510" lon="7.2262150">
        <ele>255.8500000</ele>
        <time>2010-08-14T16:09:11Z</time>
      </trkpt>
      <trkpt lat="51.1351810" lon="7.2259240">
        <ele>256.3300000</ele>
        <time>2010-08-14T16:09:12Z</time>
      </trkpt>
      <trkpt lat="51.1352360" lon="7.2256170">
        <ele>256.3300000</ele>
        <time>2010-08-14T16:09:13Z</time>
      </trkpt>
      <trkpt lat="51.1353440" lon="7.2253070">
        <ele>255.8500000</ele>
        <time>2010-08-14T16:09:14Z</time>
      </trkpt>
      <trkpt lat="51.1354750" lon="7.2250480">
        <ele>256.8100000</ele>
        <time>2010-08-14T16:09:15Z</time>
      </trkpt>
      <trkpt lat="51.1356610" lon="7.2248210">
        <ele>258.7300000</ele>
        <time>2010-08-14T16:09:16Z</time>
      </trkpt>
      <trkpt lat="51.1358710" lon="7.2246020">
        <ele>260.1700000</ele>
        <time>2010-08-14T16:09:17Z</time>
      </trkpt>
      <trkpt lat="51.1360800" lon="7.2244270">
        <ele>262.5800000</ele>
        <time>2010-08-14T16:09:18Z</time>
      </trkpt>
      <trkpt lat="51.1362980" lon="7.2242690">
        <ele>264.5000000</ele>
        <time>2010-08-14T16:09:19Z</time>
      </trkpt>
      <trkpt lat="51.1364740" lon="7.2240770">
        <ele>266.4200000</ele>
        <time>2010-08-14T16:09:20Z</time>
      </trkpt>
      <trkpt lat="51.1369040" lon="7.2233560">
        <ele>267.3800000</ele>
        <time>2010-08-14T16:09:23Z</time>
      </trkpt>
      <trkpt lat="51.1370450" lon="7.2230560">
        <ele>266.9000000</ele>
        <time>2010-08-14T16:09:24Z</time>
      </trkpt>
      <trkpt lat="51.1371690" lon="7.2227360">
        <ele>266.9000000</ele>
        <time>2010-08-14T16:09:25Z</time>
      </trkpt>
      <trkpt lat="51.1378290" lon="7.2217320">
        <ele>278.9200000</ele>
        <time>2010-08-14T16:09:30Z</time>
      </trkpt>
      <trkpt lat="51.1380240" lon="7.2216500">
        <ele>280.8400000</ele>
        <time>2010-08-14T16:09:31Z</time>
      </trkpt>
      <trkpt lat="51.1382670" lon="7.2216250">
        <ele>281.8000000</ele>
        <time>2010-08-14T16:09:32Z</time>
      </trkpt>
      <trkpt lat="51.1384940" lon="7.2215920">
        <ele>283.2500000</ele>
        <time>2010-08-14T16:09:33Z</time>
      </trkpt>
      <trkpt lat="51.1386870" lon="7.2215490">
        <ele>284.6900000</ele>
        <time>2010-08-14T16:09:34Z</time>
      </trkpt>
      <trkpt lat="51.1388380" lon="7.2215210">
        <ele>286.6100000</ele>
        <time>2010-08-14T16:09:35Z</time>
      </trkpt>
      <trkpt lat="51.1389860" lon="7.2214930">
        <ele>288.5300000</ele>
        <time>2010-08-14T16:09:36Z</time>
      </trkpt>
      <trkpt lat="51.1391050" lon="7.2213930">
        <ele>290.9400000</ele>
        <time>2010-08-14T16:09:37Z</time>
      </trkpt>
      <trkpt lat="51.1392280" lon="7.2212140">
        <ele>289.4900000</ele>
        <time>2010-08-14T16:09:38Z</time>
      </trkpt>
      <trkpt lat="51.1393490" lon="7.2210270">
        <ele>289.4900000</ele>
        <time>2010-08-14T16:09:39Z</time>
      </trkpt>
      <trkpt lat="51.1394640" lon="7.2208250">
        <ele>289.0100000</ele>
        <time>2010-08-14T16:09:40Z</time>
      </trkpt>
      <trkpt lat="51.1395770" lon="7.2206460">
        <ele>288.5300000</ele>
        <time>2010-08-14T16:09:41Z</time>
      </trkpt>
      <trkpt lat="51.1406710" lon="7.2189450">
        <ele>292.8600000</ele>
        <time>2010-08-14T16:09:50Z</time>
      </trkpt>
      <trkpt lat="51.1414040" lon="7.2177660">
        <ele>297.1800000</ele>
        <time>2010-08-14T16:09:56Z</time>
      </trkpt>
      <trkpt lat="51.1414190" lon="7.2176180">
        <ele>297.6700000</ele>
        <time>2010-08-14T16:09:57Z</time>
      </trkpt>
      <trkpt lat="51.1413850" lon="7.2174730">
        <ele>297.6700000</ele>
        <time>2010-08-14T16:09:58Z</time>
      </trkpt>
      <trkpt lat="51.1412960" lon="7.2173760">
        <ele>298.6300000</ele>
        <time>2010-08-14T16:09:59Z</time>
      </trkpt>
      <trkpt lat="51.1412290" lon="7.2172660">
        <ele>299.1100000</ele>
        <time>2010-08-14T16:10:00Z</time>
      </trkpt>
      <trkpt lat="51.1411740" lon="7.2171630">
        <ele>299.1100000</ele>
        <time>2010-08-14T16:10:01Z</time>
      </trkpt>
      <trkpt lat="51.1411440" lon="7.2170550">
        <ele>300.5500000</ele>
        <time>2010-08-14T16:10:02Z</time>
      </trkpt>
      <trkpt lat="51.1411330" lon="7.2169400">
        <ele>300.5500000</ele>
        <time>2010-08-14T16:10:03Z</time>
      </trkpt>
      <trkpt lat="51.1411090" lon="7.2166450">
        <ele>301.0300000</ele>
        <time>2010-08-14T16:10:05Z</time>
      </trkpt>
      <trkpt lat="51.1410690" lon="7.2165150">
        <ele>301.0300000</ele>
        <time>2010-08-14T16:10:06Z</time>
      </trkpt>
      <trkpt lat="51.1410360" lon="7.2163980">
        <ele>301.5100000</ele>
        <time>2010-08-14T16:10:07Z</time>
      </trkpt>
      <trkpt lat="51.1410320" lon="7.2162860">
        <ele>301.5100000</ele>
        <time>2010-08-14T16:10:08Z</time>
      </trkpt>
      <trkpt lat="51.1410790" lon="7.2161930">
        <ele>301.0300000</ele>
        <time>2010-08-14T16:10:09Z</time>
      </trkpt>
      <trkpt lat="51.1411620" lon="7.2160650">
        <ele>302.9500000</ele>
        <time>2010-08-14T16:10:10Z</time>
      </trkpt>
      <trkpt lat="51.1412710" lon="7.2159550">
        <ele>303.4300000</ele>
        <time>2010-08-14T16:10:11Z</time>
      </trkpt>
      <trkpt lat="51.1413990" lon="7.2158320">
        <ele>304.3900000</ele>
        <time>2010-08-14T16:10:12Z</time>
      </trkpt>
      <trkpt lat="51.1415150" lon="7.2157240">
        <ele>305.3600000</ele>
        <time>2010-08-14T16:10:13Z</time>
      </trkpt>
      <trkpt lat="51.1417890" lon="7.2153690">
        <ele>305.8400000</ele>
        <time>2010-08-14T16:10:17Z</time>
      </trkpt>
      <trkpt lat="51.1418580" lon="7.2153140">
        <ele>306.8000000</ele>
        <time>2010-08-14T16:10:18Z</time>
      </trkpt>
      <trkpt lat="51.1419180" lon="7.2153630">
        <ele>310.1600000</ele>
        <time>2010-08-14T16:10:19Z</time>
      </trkpt>
      <trkpt lat="51.1420090" lon="7.2154730">
        <ele>311.6000000</ele>
        <time>2010-08-14T16:10:20Z</time>
      </trkpt>
      <trkpt lat="51.1421120" lon="7.2155830">
        <ele>312.5700000</ele>
        <time>2010-08-14T16:10:21Z</time>
      </trkpt>
      <trkpt lat="51.1422180" lon="7.2156950">
        <ele>315.9300000</ele>
        <time>2010-08-14T16:10:22Z</time>
      </trkpt>
      <trkpt lat="51.1423160" lon="7.2158280">
        <ele>315.9300000</ele>
        <time>2010-08-14T16:10:23Z</time>
      </trkpt>
      <trkpt lat="51.1423980" lon="7.2159500">
        <ele>315.9300000</ele>
        <time>2010-08-14T16:10:24Z</time>
      </trkpt>
      <trkpt lat="51.1424540" lon="7.2160680">
        <ele>315.9300000</ele>
        <time>2010-08-14T16:10:25Z</time>
      </trkpt>
      <trkpt lat="51.1424870" lon="7.2161610">
        <ele>316.4100000</ele>
        <time>2010-08-14T16:10:26Z</time>
      </trkpt>
      <trkpt lat="51.1429270" lon="7.2164800">
        <ele>328.9100000</ele>
        <time>2010-08-14T16:10:31Z</time>
      </trkpt>
      <trkpt lat="51.1437800" lon="7.2174230">
        <ele>324.1000000</ele>
        <time>2010-08-14T16:10:38Z</time>
      </trkpt>
      <trkpt lat="51.1438880" lon="7.2174470">
        <ele>323.6200000</ele>
        <time>2010-08-14T16:10:39Z</time>
      </trkpt>
      <trkpt lat="51.1440660" lon="7.2173740">
        <ele>323.6200000</ele>
        <time>2010-08-14T16:10:41Z</time>
      </trkpt>
      <trkpt lat="51.1441280" lon="7.2171690">
        <ele>320.2600000</ele>
        <time>2010-08-14T16:10:42Z</time>
      </trkpt>
      <trkpt lat="51.1442000" lon="7.2169870">
        <ele>318.8100000</ele>
        <time>2010-08-14T16:10:43Z</time>
      </trkpt>
      <trkpt lat="51.1442850" lon="7.2168070">
        <ele>318.8100000</ele>
        <time>2010-08-14T16:10:44Z</time>
      </trkpt>
      <trkpt lat="51.1443670" lon="7.2165790">
        <ele>318.3300000</ele>
        <time>2010-08-14T16:10:45Z</time>
      </trkpt>
      <trkpt lat="51.1444380" lon="7.2163310">
        <ele>317.3700000</ele>
        <time>2010-08-14T16:10:46Z</time>
      </trkpt>
      <trkpt lat="51.1445000" lon="7.2161030">
        <ele>315.9300000</ele>
        <time>2010-08-14T16:10:47Z</time>
      </trkpt>
      <trkpt lat="51.1446110" lon="7.2154640">
        <ele>309.6800000</ele>
        <time>2010-08-14T16:10:50Z</time>
      </trkpt>
      <trkpt lat="51.1445900" lon="7.2152140">
        <ele>307.7600000</ele>
        <time>2010-08-14T16:10:51Z</time>
      </trkpt>
      <trkpt lat="51.1445480" lon="7.2149680">
        <ele>304.3900000</ele>
        <time>2010-08-14T16:10:52Z</time>
      </trkpt>
      <trkpt lat="51.1444280" lon="7.2138230">
        <ele>295.7400000</ele>
        <time>2010-08-14T16:10:57Z</time>
      </trkpt>
      <trkpt lat="51.1444470" lon="7.2136460">
        <ele>295.2600000</ele>
        <time>2010-08-14T16:10:58Z</time>
      </trkpt>
      <trkpt lat="51.1444840" lon="7.2135160">
        <ele>294.7800000</ele>
        <time>2010-08-14T16:10:59Z</time>
      </trkpt>
      <trkpt lat="51.1445330" lon="7.2134410">
        <ele>293.8200000</ele>
        <time>2010-08-14T16:11:00Z</time>
      </trkpt>
      <trkpt lat="51.1446040" lon="7.2134200">
        <ele>292.8600000</ele>
        <time>2010-08-14T16:11:01Z</time>
      </trkpt>
      <trkpt lat="51.1447170" lon="7.2134500">
        <ele>293.8200000</ele>
        <time>2010-08-14T16:11:02Z</time>
      </trkpt>
      <trkpt lat="51.1448480" lon="7.2135290">
        <ele>293.3400000</ele>
        <time>2010-08-14T16:11:03Z</time>
      </trkpt>
      <trkpt lat="51.1450040" lon="7.2136490">
        <ele>292.3800000</ele>
        <time>2010-08-14T16:11:04Z</time>
      </trkpt>
      <trkpt lat="51.1451580" lon="7.2137870">
        <ele>291.4200000</ele>
        <time>2010-08-14T16:11:05Z</time>
      </trkpt>
      <trkpt lat="51.1453080" lon="7.2139500">
        <ele>290.9400000</ele>
        <time>2010-08-14T16:11:06Z</time>
      </trkpt>
      <trkpt lat="51.1454350" lon="7.2141780">
        <ele>289.4900000</ele>
        <time>2010-08-14T16:11:07Z</time>
      </trkpt>
      <trkpt lat="51.1460270" lon="7.2147640">
        <ele>287.0900000</ele>
        <time>2010-08-14T16:11:11Z</time>
      </trkpt>
      <trkpt lat="51.1463830" lon="7.2149110">
        <ele>284.6900000</ele>
        <time>2010-08-14T16:11:13Z</time>
      </trkpt>
      <trkpt lat="51.1465550" lon="7.2149810">
        <ele>283.7300000</ele>
        <time>2010-08-14T16:11:14Z</time>
      </trkpt>
      <trkpt lat="51.1472520" lon="7.2151230">
        <ele>277.9600000</ele>
        <time>2010-08-14T16:11:18Z</time>
      </trkpt>
      <trkpt lat="51.1474280" lon="7.2150970">
        <ele>277.0000000</ele>
        <time>2010-08-14T16:11:19Z</time>
      </trkpt>
      <trkpt lat="51.1475960" lon="7.2149970">
        <ele>276.5200000</ele>
        <time>2010-08-14T16:11:20Z</time>
      </trkpt>
      <trkpt lat="51.1477450" lon="7.2148410">
        <ele>274.1100000</ele>
        <time>2010-08-14T16:11:21Z</time>
      </trkpt>
      <trkpt lat="51.1479000" lon="7.2147070">
        <ele>272.6700000</ele>
        <time>2010-08-14T16:11:22Z</time>
      </trkpt>
      <trkpt lat="51.1480560" lon="7.2145570">
        <ele>271.7100000</ele>
        <time>2010-08-14T16:11:23Z</time>
      </trkpt>
      <trkpt lat="51.1482050" lon="7.2143850">
        <ele>270.2700000</ele>
        <time>2010-08-14T16:11:24Z</time>
      </trkpt>
      <trkpt lat="51.1483410" lon="7.2141900">
        <ele>268.3500000</ele>
        <time>2010-08-14T16:11:25Z</time>
      </trkpt>
      <trkpt lat="51.1484660" lon="7.2139870">
        <ele>266.9000000</ele>
        <time>2010-08-14T16:11:26Z</time>
      </trkpt>
      <trkpt lat="51.1485760" lon="7.2137940">
        <ele>265.9400000</ele>
        <time>2010-08-14T16:11:27Z</time>
      </trkpt>
      <trkpt lat="51.1487000" lon="7.2134250">
        <ele>263.5400000</ele>
        <time>2010-08-14T16:11:29Z</time>
      </trkpt>
      <trkpt lat="51.1487080" lon="7.2131950">
        <ele>263.0600000</ele>
        <time>2010-08-14T16:11:30Z</time>
      </trkpt>
      <trkpt lat="51.1486700" lon="7.2129920">
        <ele>261.6200000</ele>
        <time>2010-08-14T16:11:31Z</time>
      </trkpt>
      <trkpt lat="51.1486390" lon="7.2127810">
        <ele>261.1400000</ele>
        <time>2010-08-14T16:11:32Z</time>
      </trkpt>
      <trkpt lat="51.1486200" lon="7.2125840">
        <ele>260.6500000</ele>
        <time>2010-08-14T16:11:33Z</time>
      </trkpt>
      <trkpt lat="51.1486410" lon="7.2124210">
        <ele>258.7300000</ele>
        <time>2010-08-14T16:11:34Z</time>
      </trkpt>
      <trkpt lat="51.1487160" lon="7.2122370">
        <ele>258.7300000</ele>
        <time>2010-08-14T16:11:35Z</time>
      </trkpt>
      <trkpt lat="51.1488100" lon="7.2120840">
        <ele>257.7700000</ele>
        <time>2010-08-14T16:11:36Z</time>
      </trkpt>
      <trkpt lat="51.1489410" lon="7.2119910">
        <ele>256.3300000</ele>
        <time>2010-08-14T16:11:37Z</time>
      </trkpt>
      <trkpt lat="51.1490970" lon="7.2119940">
        <ele>255.8500000</ele>
        <time>2010-08-14T16:11:38Z</time>
      </trkpt>
      <trkpt lat="51.1492590" lon="7.2120770">
        <ele>254.8900000</ele>
        <time>2010-08-14T16:11:39Z</time>
      </trkpt>
      <trkpt lat="51.1494090" lon="7.2122680">
        <ele>252.4800000</ele>
        <time>2010-08-14T16:11:40Z</time>
      </trkpt>
      <trkpt lat="51.1495560" lon="7.2124840">
        <ele>251.0400000</ele>
        <time>2010-08-14T16:11:41Z</time>
      </trkpt>
      <trkpt lat="51.1496790" lon="7.2126740">
        <ele>249.6000000</ele>
        <time>2010-08-14T16:11:42Z</time>
      </trkpt>
      <trkpt lat="51.1498090" lon="7.2128320">
        <ele>247.2000000</ele>
        <time>2010-08-14T16:11:43Z</time>
      </trkpt>
      <trkpt lat="51.1500370" lon="7.2129710">
        <ele>244.3100000</ele>
        <time>2010-08-14T16:11:45Z</time>
      </trkpt>
      <trkpt lat="51.1501460" lon="7.2129180">
        <ele>244.3100000</ele>
        <time>2010-08-14T16:11:46Z</time>
      </trkpt>
      <trkpt lat="51.1502670" lon="7.2127980">
        <ele>243.3500000</ele>
        <time>2010-08-14T16:11:47Z</time>
      </trkpt>
      <trkpt lat="51.1504070" lon="7.2125970">
        <ele>239.9900000</ele>
        <time>2010-08-14T16:11:48Z</time>
      </trkpt>
      <trkpt lat="51.1505360" lon="7.2123910">
        <ele>239.5100000</ele>
        <time>2010-08-14T16:11:49Z</time>
      </trkpt>
      <trkpt lat="51.1506640" lon="7.2121120">
        <ele>239.9900000</ele>
        <time>2010-08-14T16:11:50Z</time>
      </trkpt>
      <trkpt lat="51.1507730" lon="7.2118630">
        <ele>239.0200000</ele>
        <time>2010-08-14T16:11:51Z</time>
      </trkpt>
      <trkpt lat="51.1508780" lon="7.2115960">
        <ele>237.5800000</ele>
        <time>2010-08-14T16:11:52Z</time>
      </trkpt>
      <trkpt lat="51.1509490" lon="7.2113090">
        <ele>234.2200000</ele>
        <time>2010-08-14T16:11:53Z</time>
      </trkpt>
      <trkpt lat="51.1510330" lon="7.2110580">
        <ele>233.2600000</ele>
        <time>2010-08-14T16:11:54Z</time>
      </trkpt>
      <trkpt lat="51.1514270" lon="7.2105490">
        <ele>228.4500000</ele>
        <time>2010-08-14T16:11:58Z</time>
      </trkpt>
      <trkpt lat="51.1515840" lon="7.2105820">
        <ele>227.0100000</ele>
        <time>2010-08-14T16:11:59Z</time>
      </trkpt>
      <trkpt lat="51.1517270" lon="7.2106380">
        <ele>226.0500000</ele>
        <time>2010-08-14T16:12:00Z</time>
      </trkpt>
      <trkpt lat="51.1518690" lon="7.2107220">
        <ele>225.5700000</ele>
        <time>2010-08-14T16:12:01Z</time>
      </trkpt>
      <trkpt lat="51.1520000" lon="7.2107990">
        <ele>225.5700000</ele>
        <time>2010-08-14T16:12:02Z</time>
      </trkpt>
      <trkpt lat="51.1521300" lon="7.2108580">
        <ele>224.1200000</ele>
        <time>2010-08-14T16:12:03Z</time>
      </trkpt>
      <trkpt lat="51.1524840" lon="7.2108010">
        <ele>221.7200000</ele>
        <time>2010-08-14T16:12:06Z</time>
      </trkpt>
      <trkpt lat="51.1526240" lon="7.2107570">
        <ele>219.8000000</ele>
        <time>2010-08-14T16:12:07Z</time>
      </trkpt>
      <trkpt lat="51.1527150" lon="7.2105460">
        <ele>216.9100000</ele>
        <time>2010-08-14T16:12:08Z</time>
      </trkpt>
      <trkpt lat="51.1540520" lon="7.2093530">
        <ele>215.9500000</ele>
        <time>2010-08-14T16:12:15Z</time>
      </trkpt>
      <trkpt lat="51.1550710" lon="7.2084330">
        <ele>207.3000000</ele>
        <time>2010-08-14T16:12:22Z</time>
      </trkpt>
      <trkpt lat="51.1552430" lon="7.2080690">
        <ele>204.4200000</ele>
        <time>2010-08-14T16:12:24Z</time>
      </trkpt>
      <trkpt lat="51.1553080" lon="7.2078700">
        <ele>203.9400000</ele>
        <time>2010-08-14T16:12:25Z</time>
      </trkpt>
      <trkpt lat="51.1556880" lon="7.2061150">
        <ele>197.2100000</ele>
        <time>2010-08-14T16:12:33Z</time>
      </trkpt>
      <trkpt lat="51.1557900" lon="7.2047820">
        <ele>192.8800000</ele>
        <time>2010-08-14T16:12:39Z</time>
      </trkpt>
      <trkpt lat="51.1557630" lon="7.2045770">
        <ele>193.3600000</ele>
        <time>2010-08-14T16:12:40Z</time>
      </trkpt>
      <trkpt lat="51.1557050" lon="7.2043850">
        <ele>193.8400000</ele>
        <time>2010-08-14T16:12:41Z</time>
      </trkpt>
      <trkpt lat="51.1556450" lon="7.2041950">
        <ele>193.8400000</ele>
        <time>2010-08-14T16:12:42Z</time>
      </trkpt>
      <trkpt lat="51.1555760" lon="7.2040200">
        <ele>193.3600000</ele>
        <time>2010-08-14T16:12:43Z</time>
      </trkpt>
      <trkpt lat="51.1554950" lon="7.2038740">
        <ele>192.8800000</ele>
        <time>2010-08-14T16:12:44Z</time>
      </trkpt>
      <trkpt lat="51.1553980" lon="7.2037630">
        <ele>192.8800000</ele>
        <time>2010-08-14T16:12:45Z</time>
      </trkpt>
      <trkpt lat="51.1552820" lon="7.2036710">
        <ele>192.8800000</ele>
        <time>2010-08-14T16:12:46Z</time>
      </trkpt>
      <trkpt lat="51.1551610" lon="7.2035650">
        <ele>192.4000000</ele>
        <time>2010-08-14T16:12:47Z</time>
      </trkpt>
      <trkpt lat="51.1539340" lon="7.2026590">
        <ele>189.0400000</ele>
        <time>2010-08-14T16:12:55Z</time>
      </trkpt>
      <trkpt lat="51.1525530" lon="7.2015760">
        <ele>186.1500000</ele>
        <time>2010-08-14T16:13:04Z</time>
      </trkpt>
      <trkpt lat="51.1524180" lon="7.2014150">
        <ele>186.1500000</ele>
        <time>2010-08-14T16:13:05Z</time>
      </trkpt>
      <trkpt lat="51.1523070" lon="7.2012590">
        <ele>185.1900000</ele>
        <time>2010-08-14T16:13:06Z</time>
      </trkpt>
      <trkpt lat="51.1522270" lon="7.2010530">
        <ele>189.0400000</ele>
        <time>2010-08-14T16:13:11Z</time>
      </trkpt>
      <trkpt lat="51.1522420" lon="7.2009680">
        <ele>233.2600000</ele>
        <time>2010-08-14T16:13:48Z</time>
      </trkpt>
      <trkpt lat="51.1522380" lon="7.2009600">
        <ele>235.1800000</ele>
        <time>2010-08-14T16:13:55Z</time>
      </trkpt>
      <trkpt lat="51.1520560" lon="7.2007880">
        <ele>230.8500000</ele>
        <time>2010-08-14T16:13:59Z</time>
      </trkpt>
      <trkpt lat="51.1519720" lon="7.2006500">
        <ele>228.9300000</ele>
        <time>2010-08-14T16:14:00Z</time>
      </trkpt>
      <trkpt lat="51.1518740" lon="7.2005100">
        <ele>227.4900000</ele>
        <time>2010-08-14T16:14:01Z</time>
      </trkpt>
      <trkpt lat="51.1511790" lon="7.1995620">
        <ele>216.9100000</ele>
        <time>2010-08-14T16:14:06Z</time>
      </trkpt>
      <trkpt lat="51.1510550" lon="7.1993470">
        <ele>215.9500000</ele>
        <time>2010-08-14T16:14:07Z</time>
      </trkpt>
      <trkpt lat="51.1509380" lon="7.1991200">
        <ele>211.1500000</ele>
        <time>2010-08-14T16:14:08Z</time>
      </trkpt>
      <trkpt lat="51.1508350" lon="7.1988710">
        <ele>207.7800000</ele>
        <time>2010-08-14T16:14:09Z</time>
      </trkpt>
      <trkpt lat="51.1505480" lon="7.1976220">
        <ele>196.7300000</ele>
        <time>2010-08-14T16:14:14Z</time>
      </trkpt>
      <trkpt lat="51.1505370" lon="7.1973570">
        <ele>195.2800000</ele>
        <time>2010-08-14T16:14:15Z</time>
      </trkpt>
      <trkpt lat="51.1505350" lon="7.1970970">
        <ele>194.8000000</ele>
        <time>2010-08-14T16:14:16Z</time>
      </trkpt>
      <trkpt lat="51.1505510" lon="7.1968630">
        <ele>190.9600000</ele>
        <time>2010-08-14T16:14:17Z</time>
      </trkpt>
      <trkpt lat="51.1506000" lon="7.1966460">
        <ele>188.5600000</ele>
        <time>2010-08-14T16:14:18Z</time>
      </trkpt>
      <trkpt lat="51.1508280" lon="7.1960300">
        <ele>181.3500000</ele>
        <time>2010-08-14T16:14:21Z</time>
      </trkpt>
      <trkpt lat="51.1509510" lon="7.1958390">
        <ele>179.4200000</ele>
        <time>2010-08-14T16:14:22Z</time>
      </trkpt>
      <trkpt lat="51.1510980" lon="7.1956290">
        <ele>178.4600000</ele>
        <time>2010-08-14T16:14:23Z</time>
      </trkpt>
      <trkpt lat="51.1512660" lon="7.1954350">
        <ele>179.4200000</ele>
        <time>2010-08-14T16:14:24Z</time>
      </trkpt>
      <trkpt lat="51.1514530" lon="7.1952590">
        <ele>177.5000000</ele>
        <time>2010-08-14T16:14:25Z</time>
      </trkpt>
      <trkpt lat="51.1516570" lon="7.1950740">
        <ele>178.9400000</ele>
        <time>2010-08-14T16:14:26Z</time>
      </trkpt>
      <trkpt lat="51.1518720" lon="7.1948750">
        <ele>180.8700000</ele>
        <time>2010-08-14T16:14:27Z</time>
      </trkpt>
      <trkpt lat="51.1535540" lon="7.1929890">
        <ele>170.2900000</ele>
        <time>2010-08-14T16:14:36Z</time>
      </trkpt>
      <trkpt lat="51.1540570" lon="7.1921050">
        <ele>170.2900000</ele>
        <time>2010-08-14T16:14:40Z</time>
      </trkpt>
      <trkpt lat="51.1541220" lon="7.1919070">
        <ele>169.8100000</ele>
        <time>2010-08-14T16:14:41Z</time>
      </trkpt>
      <trkpt lat="51.1541450" lon="7.1917030">
        <ele>169.8100000</ele>
        <time>2010-08-14T16:14:42Z</time>
      </trkpt>
      <trkpt lat="51.1541350" lon="7.1914970">
        <ele>168.3700000</ele>
        <time>2010-08-14T16:14:43Z</time>
      </trkpt>
      <trkpt lat="51.1540790" lon="7.1912910">
        <ele>168.3700000</ele>
        <time>2010-08-14T16:14:44Z</time>
      </trkpt>
      <trkpt lat="51.1539770" lon="7.1911170">
        <ele>167.8900000</ele>
        <time>2010-08-14T16:14:45Z</time>
      </trkpt>
      <trkpt lat="51.1538430" lon="7.1909650">
        <ele>167.4100000</ele>
        <time>2010-08-14T16:14:46Z</time>
      </trkpt>
      <trkpt lat="51.1537030" lon="7.1908280">
        <ele>166.9300000</ele>
        <time>2010-08-14T16:14:47Z</time>
      </trkpt>
      <trkpt lat="51.1535670" lon="7.1907040">
        <ele>167.4100000</ele>
        <time>2010-08-14T16:14:48Z</time>
      </trkpt>
      <trkpt lat="51.1534520" lon="7.1905780">
        <ele>166.9300000</ele>
        <time>2010-08-14T16:14:49Z</time>
      </trkpt>
      <trkpt lat="51.1533620" lon="7.1904570">
        <ele>166.4500000</ele>
        <time>2010-08-14T16:14:50Z</time>
      </trkpt>
      <trkpt lat="51.1533040" lon="7.1903180">
        <ele>166.4500000</ele>
        <time>2010-08-14T16:14:51Z</time>
      </trkpt>
      <trkpt lat="51.1532520" lon="7.1901660">
        <ele>165.9600000</ele>
        <time>2010-08-14T16:14:52Z</time>
      </trkpt>
      <trkpt lat="51.1532740" lon="7.1899380">
        <ele>165.0000000</ele>
        <time>2010-08-14T16:14:53Z</time>
      </trkpt>
      <trkpt lat="51.1533370" lon="7.1896770">
        <ele>164.5200000</ele>
        <time>2010-08-14T16:14:54Z</time>
      </trkpt>
      <trkpt lat="51.1534130" lon="7.1893130">
        <ele>165.4800000</ele>
        <time>2010-08-14T16:14:55Z</time>
      </trkpt>
      <trkpt lat="51.1535100" lon="7.1889260">
        <ele>165.9600000</ele>
        <time>2010-08-14T16:14:56Z</time>
      </trkpt>
      <trkpt lat="51.1535880" lon="7.1885570">
        <ele>165.9600000</ele>
        <time>2010-08-14T16:14:57Z</time>
      </trkpt>
      <trkpt lat="51.1536680" lon="7.1881890">
        <ele>165.9600000</ele>
        <time>2010-08-14T16:14:58Z</time>
      </trkpt>
      <trkpt lat="51.1537450" lon="7.1878410">
        <ele>165.4800000</ele>
        <time>2010-08-14T16:14:59Z</time>
      </trkpt>
      <trkpt lat="51.1543840" lon="7.1864790">
        <ele>165.0000000</ele>
        <time>2010-08-14T16:15:04Z</time>
      </trkpt>
      <trkpt lat="51.1548930" lon="7.1854710">
        <ele>167.8900000</ele>
        <time>2010-08-14T16:15:08Z</time>
      </trkpt>
      <trkpt lat="51.1549200" lon="7.1852270">
        <ele>168.3700000</ele>
        <time>2010-08-14T16:15:09Z</time>
      </trkpt>
      <trkpt lat="51.1549120" lon="7.1849760">
        <ele>168.3700000</ele>
        <time>2010-08-14T16:15:10Z</time>
      </trkpt>
      <trkpt lat="51.1548560" lon="7.1847380">
        <ele>167.8900000</ele>
        <time>2010-08-14T16:15:11Z</time>
      </trkpt>
      <trkpt lat="51.1547760" lon="7.1845140">
        <ele>166.9300000</ele>
        <time>2010-08-14T16:15:12Z</time>
      </trkpt>
      <trkpt lat="51.1546620" lon="7.1842860">
        <ele>166.9300000</ele>
        <time>2010-08-14T16:15:13Z</time>
      </trkpt>
      <trkpt lat="51.1544940" lon="7.1840480">
        <ele>167.4100000</ele>
        <time>2010-08-14T16:15:14Z</time>
      </trkpt>
      <trkpt lat="51.1543200" lon="7.1837920">
        <ele>166.4500000</ele>
        <time>2010-08-14T16:15:15Z</time>
      </trkpt>
      <trkpt lat="51.1531310" lon="7.1817550">
        <ele>160.6800000</ele>
        <time>2010-08-14T16:15:23Z</time>
      </trkpt>
      <trkpt lat="51.1530660" lon="7.1814270">
        <ele>160.6800000</ele>
        <time>2010-08-14T16:15:24Z</time>
      </trkpt>
      <trkpt lat="51.1529970" lon="7.1810400">
        <ele>160.2000000</ele>
        <time>2010-08-14T16:15:25Z</time>
      </trkpt>
      <trkpt lat="51.1527760" lon="7.1796120">
        <ele>161.1600000</ele>
        <time>2010-08-14T16:15:29Z</time>
      </trkpt>
      <trkpt lat="51.1527720" lon="7.1793580">
        <ele>160.6800000</ele>
        <time>2010-08-14T16:15:30Z</time>
      </trkpt>
      <trkpt lat="51.1527990" lon="7.1790810">
        <ele>160.2000000</ele>
        <time>2010-08-14T16:15:31Z</time>
      </trkpt>
      <trkpt lat="51.1528830" lon="7.1788150">
        <ele>159.2400000</ele>
        <time>2010-08-14T16:15:32Z</time>
      </trkpt>
      <trkpt lat="51.1529950" lon="7.1785470">
        <ele>158.7500000</ele>
        <time>2010-08-14T16:15:33Z</time>
      </trkpt>
      <trkpt lat="51.1531760" lon="7.1783190">
        <ele>158.7500000</ele>
        <time>2010-08-14T16:15:34Z</time>
      </trkpt>
      <trkpt lat="51.1533460" lon="7.1780810">
        <ele>156.3500000</ele>
        <time>2010-08-14T16:15:35Z</time>
      </trkpt>
      <trkpt lat="51.1535450" lon="7.1778960">
        <ele>155.8700000</ele>
        <time>2010-08-14T16:15:36Z</time>
      </trkpt>
      <trkpt lat="51.1537140" lon="7.1777500">
        <ele>154.9100000</ele>
        <time>2010-08-14T16:15:37Z</time>
      </trkpt>
      <trkpt lat="51.1538480" lon="7.1775880">
        <ele>152.5100000</ele>
        <time>2010-08-14T16:15:38Z</time>
      </trkpt>
      <trkpt lat="51.1539220" lon="7.1774060">
        <ele>152.0300000</ele>
        <time>2010-08-14T16:15:39Z</time>
      </trkpt>
      <trkpt lat="51.1539460" lon="7.1772070">
        <ele>152.0300000</ele>
        <time>2010-08-14T16:15:40Z</time>
      </trkpt>
      <trkpt lat="51.1538800" lon="7.1769780">
        <ele>150.1000000</ele>
        <time>2010-08-14T16:15:41Z</time>
      </trkpt>
      <trkpt lat="51.1538420" lon="7.1767660">
        <ele>150.1000000</ele>
        <time>2010-08-14T16:15:42Z</time>
      </trkpt>
      <trkpt lat="51.1537370" lon="7.1764660">
        <ele>152.5100000</ele>
        <time>2010-08-14T16:15:43Z</time>
      </trkpt>
      <trkpt lat="51.1536400" lon="7.1761460">
        <ele>151.0600000</ele>
        <time>2010-08-14T16:15:44Z</time>
      </trkpt>
      <trkpt lat="51.1535420" lon="7.1758100">
        <ele>151.0600000</ele>
        <time>2010-08-14T16:15:45Z</time>
      </trkpt>
      <trkpt lat="51.1534320" lon="7.1754510">
        <ele>151.0600000</ele>
        <time>2010-08-14T16:15:46Z</time>
      </trkpt>
      <trkpt lat="51.1525620" lon="7.1730110">
        <ele>149.6200000</ele>
        <time>2010-08-14T16:15:53Z</time>
      </trkpt>
      <trkpt lat="51.1520880" lon="7.1715570">
        <ele>150.5800000</ele>
        <time>2010-08-14T16:15:58Z</time>
      </trkpt>
      <trkpt lat="51.1520910" lon="7.1711750">
        <ele>147.7000000</ele>
        <time>2010-08-14T16:15:59Z</time>
      </trkpt>
      <trkpt lat="51.1520780" lon="7.1708290">
        <ele>147.2200000</ele>
        <time>2010-08-14T16:16:00Z</time>
      </trkpt>
      <trkpt lat="51.1520880" lon="7.1704720">
        <ele>147.2200000</ele>
        <time>2010-08-14T16:16:01Z</time>
      </trkpt>
      <trkpt lat="51.1521300" lon="7.1701170">
        <ele>147.2200000</ele>
        <time>2010-08-14T16:16:02Z</time>
      </trkpt>
      <trkpt lat="51.1522250" lon="7.1697280">
        <ele>146.7400000</ele>
        <time>2010-08-14T16:16:03Z</time>
      </trkpt>
      <trkpt lat="51.1523560" lon="7.1693830">
        <ele>146.2600000</ele>
        <time>2010-08-14T16:16:04Z</time>
      </trkpt>
      <trkpt lat="51.1525430" lon="7.1690960">
        <ele>148.1800000</ele>
        <time>2010-08-14T16:16:05Z</time>
      </trkpt>
      <trkpt lat="51.1527240" lon="7.1687450">
        <ele>150.5800000</ele>
        <time>2010-08-14T16:16:06Z</time>
      </trkpt>
      <trkpt lat="51.1528720" lon="7.1684590">
        <ele>149.1400000</ele>
        <time>2010-08-14T16:16:07Z</time>
      </trkpt>
      <trkpt lat="51.1530220" lon="7.1682000">
        <ele>150.1000000</ele>
        <time>2010-08-14T16:16:08Z</time>
      </trkpt>
      <trkpt lat="51.1532020" lon="7.1677560">
        <ele>150.1000000</ele>
        <time>2010-08-14T16:16:10Z</time>
      </trkpt>
      <trkpt lat="51.1532260" lon="7.1675380">
        <ele>148.6600000</ele>
        <time>2010-08-14T16:16:11Z</time>
      </trkpt>
      <trkpt lat="51.1532280" lon="7.1672620">
        <ele>147.7000000</ele>
        <time>2010-08-14T16:16:12Z</time>
      </trkpt>
      <trkpt lat="51.1532230" lon="7.1669310">
        <ele>146.7400000</ele>
        <time>2010-08-14T16:16:13Z</time>
      </trkpt>
      <trkpt lat="51.1532240" lon="7.1665910">
        <ele>145.7800000</ele>
        <time>2010-08-14T16:16:14Z</time>
      </trkpt>
      <trkpt lat="51.1532520" lon="7.1662640">
        <ele>146.7400000</ele>
        <time>2010-08-14T16:16:15Z</time>
      </trkpt>
      <trkpt lat="51.1534870" lon="7.1653070">
        <ele>143.3700000</ele>
        <time>2010-08-14T16:16:18Z</time>
      </trkpt>
      <trkpt lat="51.1538520" lon="7.1646570">
        <ele>145.7800000</ele>
        <time>2010-08-14T16:16:21Z</time>
      </trkpt>
      <trkpt lat="51.1540270" lon="7.1644630">
        <ele>146.2600000</ele>
        <time>2010-08-14T16:16:22Z</time>
      </trkpt>
      <trkpt lat="51.1542210" lon="7.1642970">
        <ele>147.2200000</ele>
        <time>2010-08-14T16:16:23Z</time>
      </trkpt>
      <trkpt lat="51.1544200" lon="7.1641290">
        <ele>147.2200000</ele>
        <time>2010-08-14T16:16:24Z</time>
      </trkpt>
      <trkpt lat="51.1546250" lon="7.1639640">
        <ele>147.2200000</ele>
        <time>2010-08-14T16:16:25Z</time>
      </trkpt>
      <trkpt lat="51.1548150" lon="7.1637960">
        <ele>145.7800000</ele>
        <time>2010-08-14T16:16:26Z</time>
      </trkpt>
      <trkpt lat="51.1552180" lon="7.1632510">
        <ele>142.4100000</ele>
        <time>2010-08-14T16:16:29Z</time>
      </trkpt>
      <trkpt lat="51.1552170" lon="7.1630960">
        <ele>141.4500000</ele>
        <time>2010-08-14T16:16:30Z</time>
      </trkpt>
      <trkpt lat="51.1551850" lon="7.1629050">
        <ele>140.9700000</ele>
        <time>2010-08-14T16:16:31Z</time>
      </trkpt>
      <trkpt lat="51.1551580" lon="7.1627010">
        <ele>140.9700000</ele>
        <time>2010-08-14T16:16:32Z</time>
      </trkpt>
      <trkpt lat="51.1551040" lon="7.1625190">
        <ele>140.0100000</ele>
        <time>2010-08-14T16:16:33Z</time>
      </trkpt>
      <trkpt lat="51.1550480" lon="7.1623210">
        <ele>137.1300000</ele>
        <time>2010-08-14T16:16:34Z</time>
      </trkpt>
      <trkpt lat="51.1549800" lon="7.1621050">
        <ele>133.7600000</ele>
        <time>2010-08-14T16:16:35Z</time>
      </trkpt>
      <trkpt lat="51.1548910" lon="7.1618740">
        <ele>131.8400000</ele>
        <time>2010-08-14T16:16:36Z</time>
      </trkpt>
      <trkpt lat="51.1547690" lon="7.1616370">
        <ele>127.9900000</ele>
        <time>2010-08-14T16:16:37Z</time>
      </trkpt>
      <trkpt lat="51.1546800" lon="7.1613880">
        <ele>128.9500000</ele>
        <time>2010-08-14T16:16:38Z</time>
      </trkpt>
      <trkpt lat="51.1545300" lon="7.1606500">
        <ele>129.4300000</ele>
        <time>2010-08-14T16:16:41Z</time>
      </trkpt>
      <trkpt lat="51.1545860" lon="7.1604530">
        <ele>129.4300000</ele>
        <time>2010-08-14T16:16:42Z</time>
      </trkpt>
      <trkpt lat="51.1546230" lon="7.1602630">
        <ele>129.4300000</ele>
        <time>2010-08-14T16:16:43Z</time>
      </trkpt>
      <trkpt lat="51.1546420" lon="7.1601030">
        <ele>129.9200000</ele>
        <time>2010-08-14T16:16:44Z</time>
      </trkpt>
      <trkpt lat="51.1546610" lon="7.1600270">
        <ele>128.9500000</ele>
        <time>2010-08-14T16:16:45Z</time>
      </trkpt>
      <trkpt lat="51.1546790" lon="7.1599660">
        <ele>128.9500000</ele>
        <time>2010-08-14T16:16:46Z</time>
      </trkpt>
      <trkpt lat="51.1546800" lon="7.1599330">
        <ele>129.4300000</ele>
        <time>2010-08-14T16:16:47Z</time>
      </trkpt>
      <trkpt lat="51.1546230" lon="7.1599130">
        <ele>128.9500000</ele>
        <time>2010-08-14T16:16:48Z</time>
      </trkpt>
      <trkpt lat="51.1545710" lon="7.1598790">
        <ele>128.9500000</ele>
        <time>2010-08-14T16:16:49Z</time>
      </trkpt>
      <trkpt lat="51.1545060" lon="7.1598910">
        <ele>128.4700000</ele>
        <time>2010-08-14T16:16:50Z</time>
      </trkpt>
      <trkpt lat="51.1544230" lon="7.1599250">
        <ele>127.5100000</ele>
        <time>2010-08-14T16:16:51Z</time>
      </trkpt>
      <trkpt lat="51.1539040" lon="7.1602560">
        <ele>128.4700000</ele>
        <time>2010-08-14T16:16:55Z</time>
      </trkpt>
      <trkpt lat="51.1537590" lon="7.1602700">
        <ele>127.9900000</ele>
        <time>2010-08-14T16:16:56Z</time>
      </trkpt>
      <trkpt lat="51.1536190" lon="7.1602330">
        <ele>127.9900000</ele>
        <time>2010-08-14T16:16:57Z</time>
      </trkpt>
      <trkpt lat="51.1533340" lon="7.1600770">
        <ele>126.5500000</ele>
        <time>2010-08-14T16:16:59Z</time>
      </trkpt>
      <trkpt lat="51.1531920" lon="7.1599020">
        <ele>126.0700000</ele>
        <time>2010-08-14T16:17:00Z</time>
      </trkpt>
      <trkpt lat="51.1522300" lon="7.1588430">
        <ele>133.2800000</ele>
        <time>2010-08-14T16:17:07Z</time>
      </trkpt>
      <trkpt lat="51.1507910" lon="7.1577180">
        <ele>129.9200000</ele>
        <time>2010-08-14T16:17:16Z</time>
      </trkpt>
      <trkpt lat="51.1495860" lon="7.1563470">
        <ele>123.6700000</ele>
        <time>2010-08-14T16:17:25Z</time>
      </trkpt>
      <trkpt lat="51.1494390" lon="7.1563150">
        <ele>123.6700000</ele>
        <time>2010-08-14T16:17:26Z</time>
      </trkpt>
      <trkpt lat="51.1492590" lon="7.1563620">
        <ele>124.6300000</ele>
        <time>2010-08-14T16:17:27Z</time>
      </trkpt>
      <trkpt lat="51.1490700" lon="7.1563570">
        <ele>124.6300000</ele>
        <time>2010-08-14T16:17:28Z</time>
      </trkpt>
      <trkpt lat="51.1474790" lon="7.1559170">
        <ele>124.1500000</ele>
        <time>2010-08-14T16:17:36Z</time>
      </trkpt>
      <trkpt lat="51.1468000" lon="7.1554620">
        <ele>118.8600000</ele>
        <time>2010-08-14T16:17:40Z</time>
      </trkpt>
      <trkpt lat="51.1466920" lon="7.1552800">
        <ele>117.9000000</ele>
        <time>2010-08-14T16:17:41Z</time>
      </trkpt>
      <trkpt lat="51.1465870" lon="7.1550730">
        <ele>116.4600000</ele>
        <time>2010-08-14T16:17:42Z</time>
      </trkpt>
      <trkpt lat="51.1464880" lon="7.1548370">
        <ele>115.5000000</ele>
        <time>2010-08-14T16:17:43Z</time>
      </trkpt>
      <trkpt lat="51.1463910" lon="7.1545860">
        <ele>115.0100000</ele>
        <time>2010-08-14T16:17:44Z</time>
      </trkpt>
      <trkpt lat="51.1462980" lon="7.1543290">
        <ele>114.5300000</ele>
        <time>2010-08-14T16:17:45Z</time>
      </trkpt>
      <trkpt lat="51.1455360" lon="7.1523200">
        <ele>109.7300000</ele>
        <time>2010-08-14T16:17:54Z</time>
      </trkpt>
      <trkpt lat="51.1444030" lon="7.1505230">
        <ele>109.2500000</ele>
        <time>2010-08-14T16:18:03Z</time>
      </trkpt>
      <trkpt lat="51.1441930" lon="7.1501060">
        <ele>107.8100000</ele>
        <time>2010-08-14T16:18:05Z</time>
      </trkpt>
      <trkpt lat="51.1441110" lon="7.1498850">
        <ele>106.3600000</ele>
        <time>2010-08-14T16:18:06Z</time>
      </trkpt>
      <trkpt lat="51.1439620" lon="7.1494130">
        <ele>108.7700000</ele>
        <time>2010-08-14T16:18:08Z</time>
      </trkpt>
      <trkpt lat="51.1438660" lon="7.1492140">
        <ele>106.8400000</ele>
        <time>2010-08-14T16:18:09Z</time>
      </trkpt>
      <trkpt lat="51.1437610" lon="7.1490360">
        <ele>106.3600000</ele>
        <time>2010-08-14T16:18:10Z</time>
      </trkpt>
      <trkpt lat="51.1436190" lon="7.1489460">
        <ele>104.9200000</ele>
        <time>2010-08-14T16:18:11Z</time>
      </trkpt>
      <trkpt lat="51.1434850" lon="7.1488980">
        <ele>103.4800000</ele>
        <time>2010-08-14T16:18:12Z</time>
      </trkpt>
      <trkpt lat="51.1433420" lon="7.1488540">
        <ele>102.5200000</ele>
        <time>2010-08-14T16:18:13Z</time>
      </trkpt>
      <trkpt lat="51.1431990" lon="7.1488620">
        <ele>102.0400000</ele>
        <time>2010-08-14T16:18:14Z</time>
      </trkpt>
      <trkpt lat="51.1430600" lon="7.1489070">
        <ele>101.5600000</ele>
        <time>2010-08-14T16:18:15Z</time>
      </trkpt>
      <trkpt lat="51.1429330" lon="7.1489700">
        <ele>102.0400000</ele>
        <time>2010-08-14T16:18:16Z</time>
      </trkpt>
      <trkpt lat="51.1428140" lon="7.1490830">
        <ele>101.5600000</ele>
        <time>2010-08-14T16:18:17Z</time>
      </trkpt>
      <trkpt lat="51.1426940" lon="7.1491530">
        <ele>101.0800000</ele>
        <time>2010-08-14T16:18:18Z</time>
      </trkpt>
      <trkpt lat="51.1420680" lon="7.1494930">
        <ele>98.6700000</ele>
        <time>2010-08-14T16:18:23Z</time>
      </trkpt>
      <trkpt lat="51.1410110" lon="7.1494990">
        <ele>98.6700000</ele>
        <time>2010-08-14T16:18:31Z</time>
      </trkpt>
      <trkpt lat="51.1408850" lon="7.1494250">
        <ele>99.1500000</ele>
        <time>2010-08-14T16:18:32Z</time>
      </trkpt>
      <trkpt lat="51.1402600" lon="7.1492340">
        <ele>98.1900000</ele>
        <time>2010-08-14T16:18:38Z</time>
      </trkpt>
      <trkpt lat="51.1401730" lon="7.1492920">
        <ele>98.6700000</ele>
        <time>2010-08-14T16:18:39Z</time>
      </trkpt>
      <trkpt lat="51.1396520" lon="7.1495790">
        <ele>104.4400000</ele>
        <time>2010-08-14T16:18:46Z</time>
      </trkpt>
      <trkpt lat="51.1395960" lon="7.1495640">
        <ele>105.4000000</ele>
        <time>2010-08-14T16:18:47Z</time>
      </trkpt>
      <trkpt lat="51.1395460" lon="7.1495350">
        <ele>104.9200000</ele>
        <time>2010-08-14T16:18:48Z</time>
      </trkpt>
      <trkpt lat="51.1394950" lon="7.1494970">
        <ele>104.4400000</ele>
        <time>2010-08-14T16:18:49Z</time>
      </trkpt>
      <trkpt lat="51.1394490" lon="7.1494320">
        <ele>103.9600000</ele>
        <time>2010-08-14T16:18:50Z</time>
      </trkpt>
      <trkpt lat="51.1394020" lon="7.1493560">
        <ele>103.9600000</ele>
        <time>2010-08-14T16:18:51Z</time>
      </trkpt>
      <trkpt lat="51.1393490" lon="7.1492790">
        <ele>104.9200000</ele>
        <time>2010-08-14T16:18:52Z</time>
      </trkpt>
      <trkpt lat="51.1390230" lon="7.1488430">
        <ele>102.0400000</ele>
        <time>2010-08-14T16:18:58Z</time>
      </trkpt>
      <trkpt lat="51.1389550" lon="7.1488100">
        <ele>101.5600000</ele>
        <time>2010-08-14T16:18:59Z</time>
      </trkpt>
      <trkpt lat="51.1388870" lon="7.1487860">
        <ele>102.0400000</ele>
        <time>2010-08-14T16:19:00Z</time>
      </trkpt>
      <trkpt lat="51.1388140" lon="7.1487760">
        <ele>101.5600000</ele>
        <time>2010-08-14T16:19:01Z</time>
      </trkpt>
      <trkpt lat="51.1387350" lon="7.1487650">
        <ele>100.6000000</ele>
        <time>2010-08-14T16:19:02Z</time>
      </trkpt>
      <trkpt lat="51.1386620" lon="7.1487460">
        <ele>98.6700000</ele>
        <time>2010-08-14T16:19:03Z</time>
      </trkpt>
      <trkpt lat="51.1386030" lon="7.1487090">
        <ele>97.7100000</ele>
        <time>2010-08-14T16:19:04Z</time>
      </trkpt>
      <trkpt lat="51.1385430" lon="7.1486810">
        <ele>95.3100000</ele>
        <time>2010-08-14T16:19:05Z</time>
      </trkpt>
      <trkpt lat="51.1381860" lon="7.1483290">
        <ele>90.5000000</ele>
        <time>2010-08-14T16:19:14Z</time>
      </trkpt>
      <trkpt lat="51.1381370" lon="7.1482980">
        <ele>89.5400000</ele>
        <time>2010-08-14T16:19:15Z</time>
      </trkpt>
      <trkpt lat="51.1380380" lon="7.1481230">
        <ele>93.8700000</ele>
        <time>2010-08-14T16:19:23Z</time>
      </trkpt>
      <trkpt lat="51.1379850" lon="7.1480570">
        <ele>94.8300000</ele>
        <time>2010-08-14T16:19:26Z</time>
      </trkpt>
      <trkpt lat="51.1379210" lon="7.1479870">
        <ele>94.8300000</ele>
        <time>2010-08-14T16:19:27Z</time>
      </trkpt>
      <trkpt lat="51.1378140" lon="7.1479000">
        <ele>94.8300000</ele>
        <time>2010-08-14T16:19:28Z</time>
      </trkpt>
      <trkpt lat="51.1376890" lon="7.1478090">
        <ele>95.3100000</ele>
        <time>2010-08-14T16:19:29Z</time>
      </trkpt>
      <trkpt lat="51.1375640" lon="7.1477460">
        <ele>95.7900000</ele>
        <time>2010-08-14T16:19:30Z</time>
      </trkpt>
      <trkpt lat="51.1374440" lon="7.1477080">
        <ele>96.2700000</ele>
        <time>2010-08-14T16:19:31Z</time>
      </trkpt>
      <trkpt lat="51.1373140" lon="7.1477490">
        <ele>96.2700000</ele>
        <time>2010-08-14T16:19:32Z</time>
      </trkpt>
      <trkpt lat="51.1371880" lon="7.1478500">
        <ele>96.2700000</ele>
        <time>2010-08-14T16:19:33Z</time>
      </trkpt>
      <trkpt lat="51.1370680" lon="7.1479630">
        <ele>96.7500000</ele>
        <time>2010-08-14T16:19:34Z</time>
      </trkpt>
      <trkpt lat="51.1369870" lon="7.1481250">
        <ele>98.1900000</ele>
        <time>2010-08-14T16:19:35Z</time>
      </trkpt>
      <trkpt lat="51.1369030" lon="7.1482440">
        <ele>98.1900000</ele>
        <time>2010-08-14T16:19:36Z</time>
      </trkpt>
      <trkpt lat="51.1368190" lon="7.1483080">
        <ele>98.6700000</ele>
        <time>2010-08-14T16:19:37Z</time>
      </trkpt>
      <trkpt lat="51.1367380" lon="7.1483000">
        <ele>99.1500000</ele>
        <time>2010-08-14T16:19:38Z</time>
      </trkpt>
      <trkpt lat="51.1366640" lon="7.1482260">
        <ele>99.6300000</ele>
        <time>2010-08-14T16:19:39Z</time>
      </trkpt>
      <trkpt lat="51.1365960" lon="7.1480570">
        <ele>100.1100000</ele>
        <time>2010-08-14T16:19:40Z</time>
      </trkpt>
      <trkpt lat="51.1365470" lon="7.1478160">
        <ele>101.5600000</ele>
        <time>2010-08-14T16:19:41Z</time>
      </trkpt>
      <trkpt lat="51.1364760" lon="7.1475500">
        <ele>101.5600000</ele>
        <time>2010-08-14T16:19:42Z</time>
      </trkpt>
      <trkpt lat="51.1362020" lon="7.1461710">
        <ele>109.7300000</ele>
        <time>2010-08-14T16:19:46Z</time>
      </trkpt>
      <trkpt lat="51.1360270" lon="7.1439840">
        <ele>118.3800000</ele>
        <time>2010-08-14T16:19:53Z</time>
      </trkpt>
      <trkpt lat="51.1359540" lon="7.1418310">
        <ele>127.5100000</ele>
        <time>2010-08-14T16:20:01Z</time>
      </trkpt>
      <trkpt lat="51.1358920" lon="7.1415650">
        <ele>128.4700000</ele>
        <time>2010-08-14T16:20:02Z</time>
      </trkpt>
      <trkpt lat="51.1358020" lon="7.1413020">
        <ele>129.4300000</ele>
        <time>2010-08-14T16:20:03Z</time>
      </trkpt>
      <trkpt lat="51.1353170" lon="7.1399900">
        <ele>135.6800000</ele>
        <time>2010-08-14T16:20:09Z</time>
      </trkpt>
      <trkpt lat="51.1352740" lon="7.1397760">
        <ele>137.1300000</ele>
        <time>2010-08-14T16:20:10Z</time>
      </trkpt>
      <trkpt lat="51.1352520" lon="7.1395600">
        <ele>138.0900000</ele>
        <time>2010-08-14T16:20:11Z</time>
      </trkpt>
      <trkpt lat="51.1352440" lon="7.1393390">
        <ele>139.5300000</ele>
        <time>2010-08-14T16:20:12Z</time>
      </trkpt>
      <trkpt lat="51.1352540" lon="7.1391150">
        <ele>140.4900000</ele>
        <time>2010-08-14T16:20:13Z</time>
      </trkpt>
      <trkpt lat="51.1352920" lon="7.1389010">
        <ele>141.4500000</ele>
        <time>2010-08-14T16:20:14Z</time>
      </trkpt>
      <trkpt lat="51.1353640" lon="7.1386800">
        <ele>142.4100000</ele>
        <time>2010-08-14T16:20:15Z</time>
      </trkpt>
      <trkpt lat="51.1354930" lon="7.1384550">
        <ele>143.3700000</ele>
        <time>2010-08-14T16:20:16Z</time>
      </trkpt>
      <trkpt lat="51.1356520" lon="7.1383090">
        <ele>144.8200000</ele>
        <time>2010-08-14T16:20:17Z</time>
      </trkpt>
      <trkpt lat="51.1358250" lon="7.1381600">
        <ele>145.7800000</ele>
        <time>2010-08-14T16:20:18Z</time>
      </trkpt>
      <trkpt lat="51.1360340" lon="7.1379490">
        <ele>146.7400000</ele>
        <time>2010-08-14T16:20:19Z</time>
      </trkpt>
      <trkpt lat="51.1362680" lon="7.1376960">
        <ele>148.6600000</ele>
        <time>2010-08-14T16:20:20Z</time>
      </trkpt>
      <trkpt lat="51.1375660" lon="7.1364090">
        <ele>156.3500000</ele>
        <time>2010-08-14T16:20:25Z</time>
      </trkpt>
      <trkpt lat="51.1385950" lon="7.1352600">
        <ele>164.0400000</ele>
        <time>2010-08-14T16:20:31Z</time>
      </trkpt>
      <trkpt lat="51.1387350" lon="7.1351980">
        <ele>165.0000000</ele>
        <time>2010-08-14T16:20:32Z</time>
      </trkpt>
      <trkpt lat="51.1388830" lon="7.1351530">
        <ele>166.4500000</ele>
        <time>2010-08-14T16:20:33Z</time>
      </trkpt>
      <trkpt lat="51.1392310" lon="7.1347660">
        <ele>171.2500000</ele>
        <time>2010-08-14T16:20:37Z</time>
      </trkpt>
      <trkpt lat="51.1392150" lon="7.1345950">
        <ele>170.2900000</ele>
        <time>2010-08-14T16:20:38Z</time>
      </trkpt>
      <trkpt lat="51.1392230" lon="7.1343950">
        <ele>169.3300000</ele>
        <time>2010-08-14T16:20:39Z</time>
      </trkpt>
      <trkpt lat="51.1392060" lon="7.1341780">
        <ele>172.2100000</ele>
        <time>2010-08-14T16:20:40Z</time>
      </trkpt>
      <trkpt lat="51.1391860" lon="7.1339610">
        <ele>172.6900000</ele>
        <time>2010-08-14T16:20:41Z</time>
      </trkpt>
      <trkpt lat="51.1391770" lon="7.1337320">
        <ele>174.1400000</ele>
        <time>2010-08-14T16:20:42Z</time>
      </trkpt>
      <trkpt lat="51.1392240" lon="7.1335610">
        <ele>175.1000000</ele>
        <time>2010-08-14T16:20:43Z</time>
      </trkpt>
      <trkpt lat="51.1393450" lon="7.1334500">
        <ele>173.6600000</ele>
        <time>2010-08-14T16:20:44Z</time>
      </trkpt>
      <trkpt lat="51.1395200" lon="7.1333260">
        <ele>174.1400000</ele>
        <time>2010-08-14T16:20:45Z</time>
      </trkpt>
      <trkpt lat="51.1397110" lon="7.1332160">
        <ele>175.1000000</ele>
        <time>2010-08-14T16:20:46Z</time>
      </trkpt>
      <trkpt lat="51.1399390" lon="7.1331880">
        <ele>176.0600000</ele>
        <time>2010-08-14T16:20:47Z</time>
      </trkpt>
      <trkpt lat="51.1401760" lon="7.1331700">
        <ele>176.5400000</ele>
        <time>2010-08-14T16:20:48Z</time>
      </trkpt>
      <trkpt lat="51.1404050" lon="7.1331940">
        <ele>177.0200000</ele>
        <time>2010-08-14T16:20:49Z</time>
      </trkpt>
      <trkpt lat="51.1406490" lon="7.1332320">
        <ele>176.5400000</ele>
        <time>2010-08-14T16:20:50Z</time>
      </trkpt>
      <trkpt lat="51.1408710" lon="7.1332500">
        <ele>177.9800000</ele>
        <time>2010-08-14T16:20:51Z</time>
      </trkpt>
      <trkpt lat="51.1410940" lon="7.1332460">
        <ele>179.4200000</ele>
        <time>2010-08-14T16:20:52Z</time>
      </trkpt>
      <trkpt lat="51.1424380" lon="7.1322520">
        <ele>182.7900000</ele>
        <time>2010-08-14T16:20:59Z</time>
      </trkpt>
      <trkpt lat="51.1425780" lon="7.1319710">
        <ele>183.2700000</ele>
        <time>2010-08-14T16:21:00Z</time>
      </trkpt>
      <trkpt lat="51.1426260" lon="7.1314730">
        <ele>188.5600000</ele>
        <time>2010-08-14T16:21:01Z</time>
      </trkpt>
      <trkpt lat="51.1427210" lon="7.1310980">
        <ele>190.9600000</ele>
        <time>2010-08-14T16:21:02Z</time>
      </trkpt>
      <trkpt lat="51.1428070" lon="7.1307300">
        <ele>191.4400000</ele>
        <time>2010-08-14T16:21:03Z</time>
      </trkpt>
      <trkpt lat="51.1428750" lon="7.1302930">
        <ele>197.2100000</ele>
        <time>2010-08-14T16:21:04Z</time>
      </trkpt>
      <trkpt lat="51.1433330" lon="7.1280340">
        <ele>200.5700000</ele>
        <time>2010-08-14T16:21:11Z</time>
      </trkpt>
      <trkpt lat="51.1434480" lon="7.1279090">
        <ele>200.5700000</ele>
        <time>2010-08-14T16:21:12Z</time>
      </trkpt>
      <trkpt lat="51.1435990" lon="7.1277820">
        <ele>202.4900000</ele>
        <time>2010-08-14T16:21:13Z</time>
      </trkpt>
      <trkpt lat="51.1437400" lon="7.1276500">
        <ele>203.4600000</ele>
        <time>2010-08-14T16:21:14Z</time>
      </trkpt>
      <trkpt lat="51.1440270" lon="7.1273950">
        <ele>205.8600000</ele>
        <time>2010-08-14T16:21:16Z</time>
      </trkpt>
      <trkpt lat="51.1449650" lon="7.1266640">
        <ele>209.2200000</ele>
        <time>2010-08-14T16:21:20Z</time>
      </trkpt>
      <trkpt lat="51.1461460" lon="7.1256140">
        <ele>211.1500000</ele>
        <time>2010-08-14T16:21:26Z</time>
      </trkpt>
      <trkpt lat="51.1476240" lon="7.1244220">
        <ele>214.0300000</ele>
        <time>2010-08-14T16:21:34Z</time>
      </trkpt>
      <trkpt lat="51.1487560" lon="7.1238920">
        <ele>219.3200000</ele>
        <time>2010-08-14T16:21:40Z</time>
      </trkpt>
      <trkpt lat="51.1502370" lon="7.1231930">
        <ele>227.4900000</ele>
        <time>2010-08-14T16:21:45Z</time>
      </trkpt>
      <trkpt lat="51.1519920" lon="7.1223780">
        <ele>233.2600000</ele>
        <time>2010-08-14T16:21:52Z</time>
      </trkpt>
      <trkpt lat="51.1538880" lon="7.1211040">
        <ele>234.2200000</ele>
        <time>2010-08-14T16:22:02Z</time>
      </trkpt>
      <trkpt lat="51.1556300" lon="7.1198080">
        <ele>229.8900000</ele>
        <time>2010-08-14T16:22:12Z</time>
      </trkpt>
      <trkpt lat="51.1577240" lon="7.1182490">
        <ele>230.8500000</ele>
        <time>2010-08-14T16:22:24Z</time>
      </trkpt>
      <trkpt lat="51.1588510" lon="7.1168500">
        <ele>235.6600000</ele>
        <time>2010-08-14T16:22:31Z</time>
      </trkpt>
      <trkpt lat="51.1604200" lon="7.1146520">
        <ele>242.3900000</ele>
        <time>2010-08-14T16:22:40Z</time>
      </trkpt>
      <trkpt lat="51.1616230" lon="7.1129680">
        <ele>248.6400000</ele>
        <time>2010-08-14T16:22:48Z</time>
      </trkpt>
      <trkpt lat="51.1620280" lon="7.1122360">
        <ele>253.4400000</ele>
        <time>2010-08-14T16:22:52Z</time>
      </trkpt>
      <trkpt lat="51.1621520" lon="7.1118820">
        <ele>256.8100000</ele>
        <time>2010-08-14T16:22:54Z</time>
      </trkpt>
      <trkpt lat="51.1622040" lon="7.1117280">
        <ele>257.2900000</ele>
        <time>2010-08-14T16:22:55Z</time>
      </trkpt>
      <trkpt lat="51.1622400" lon="7.1115710">
        <ele>258.2500000</ele>
        <time>2010-08-14T16:22:56Z</time>
      </trkpt>
      <trkpt lat="51.1622590" lon="7.1114160">
        <ele>258.7300000</ele>
        <time>2010-08-14T16:22:57Z</time>
      </trkpt>
      <trkpt lat="51.1622630" lon="7.1112660">
        <ele>259.2100000</ele>
        <time>2010-08-14T16:22:58Z</time>
      </trkpt>
      <trkpt lat="51.1622600" lon="7.1111240">
        <ele>259.6900000</ele>
        <time>2010-08-14T16:22:59Z</time>
      </trkpt>
      <trkpt lat="51.1622400" lon="7.1107430">
        <ele>261.1400000</ele>
        <time>2010-08-14T16:23:02Z</time>
      </trkpt>
      <trkpt lat="51.1622090" lon="7.1106080">
        <ele>261.6200000</ele>
        <time>2010-08-14T16:23:03Z</time>
      </trkpt>
      <trkpt lat="51.1619490" lon="7.1094460">
        <ele>262.5800000</ele>
        <time>2010-08-14T16:23:08Z</time>
      </trkpt>
      <trkpt lat="51.1616610" lon="7.1081100">
        <ele>262.5800000</ele>
        <time>2010-08-14T16:23:16Z</time>
      </trkpt>
      <trkpt lat="51.1612290" lon="7.1060090">
        <ele>259.6900000</ele>
        <time>2010-08-14T16:23:28Z</time>
      </trkpt>
      <trkpt lat="51.1610470" lon="7.1040300">
        <ele>254.8900000</ele>
        <time>2010-08-14T16:23:39Z</time>
      </trkpt>
      <trkpt lat="51.1611670" lon="7.1024800">
        <ele>252.0000000</ele>
        <time>2010-08-14T16:23:45Z</time>
      </trkpt>
      <trkpt lat="51.1614620" lon="7.1007780">
        <ele>246.7200000</ele>
        <time>2010-08-14T16:23:53Z</time>
      </trkpt>
      <trkpt lat="51.1621010" lon="7.0989920">
        <ele>240.9500000</ele>
        <time>2010-08-14T16:24:03Z</time>
      </trkpt>
      <trkpt lat="51.1628370" lon="7.0972510">
        <ele>235.1800000</ele>
        <time>2010-08-14T16:24:14Z</time>
      </trkpt>
      <trkpt lat="51.1634010" lon="7.0959060">
        <ele>227.4900000</ele>
        <time>2010-08-14T16:24:24Z</time>
      </trkpt>
      <trkpt lat="51.1640370" lon="7.0943590">
        <ele>222.2000000</ele>
        <time>2010-08-14T16:24:36Z</time>
      </trkpt>
      <trkpt lat="51.1647590" lon="7.0927280">
        <ele>221.2400000</ele>
        <time>2010-08-14T16:24:48Z</time>
      </trkpt>
      <trkpt lat="51.1649170" lon="7.0923160">
        <ele>220.2800000</ele>
        <time>2010-08-14T16:24:51Z</time>
      </trkpt>
      <trkpt lat="51.1652030" lon="7.0915340">
        <ele>218.8400000</ele>
        <time>2010-08-14T16:24:59Z</time>
      </trkpt>
      <trkpt lat="51.1653100" lon="7.0912640">
        <ele>216.9100000</ele>
        <time>2010-08-14T16:25:07Z</time>
      </trkpt>
      <trkpt lat="51.1655140" lon="7.0907650">
        <ele>217.4000000</ele>
        <time>2010-08-14T16:25:13Z</time>
      </trkpt>
      <trkpt lat="51.1661160" lon="7.0894360">
        <ele>214.9900000</ele>
        <time>2010-08-14T16:25:22Z</time>
      </trkpt>
      <trkpt lat="51.1668600" lon="7.0882980">
        <ele>214.9900000</ele>
        <time>2010-08-14T16:25:28Z</time>
      </trkpt>
      <trkpt lat="51.1677600" lon="7.0872490">
        <ele>216.4300000</ele>
        <time>2010-08-14T16:25:36Z</time>
      </trkpt>
      <trkpt lat="51.1685400" lon="7.0862870">
        <ele>219.3200000</ele>
        <time>2010-08-14T16:25:44Z</time>
      </trkpt>
      <trkpt lat="51.1687240" lon="7.0861810">
        <ele>221.2400000</ele>
        <time>2010-08-14T16:25:49Z</time>
      </trkpt>
      <trkpt lat="51.1687860" lon="7.0858700">
        <ele>219.3200000</ele>
        <time>2010-08-14T16:26:39Z</time>
      </trkpt>
      <trkpt lat="51.1688390" lon="7.0858140">
        <ele>219.8000000</ele>
        <time>2010-08-14T16:26:40Z</time>
      </trkpt>
      <trkpt lat="51.1688870" lon="7.0857370">
        <ele>219.8000000</ele>
        <time>2010-08-14T16:26:41Z</time>
      </trkpt>
      <trkpt lat="51.1694130" lon="7.0848180">
        <ele>223.1600000</ele>
        <time>2010-08-14T16:26:49Z</time>
      </trkpt>
      <trkpt lat="51.1700970" lon="7.0835560">
        <ele>240.4700000</ele>
        <time>2010-08-14T16:27:01Z</time>
      </trkpt>
      <trkpt lat="51.1701850" lon="7.0833350">
        <ele>241.9100000</ele>
        <time>2010-08-14T16:27:03Z</time>
      </trkpt>
      <trkpt lat="51.1702970" lon="7.0832320">
        <ele>244.3100000</ele>
        <time>2010-08-14T16:27:05Z</time>
      </trkpt>
      <trkpt lat="51.1703240" lon="7.0831290">
        <ele>244.7900000</ele>
        <time>2010-08-14T16:27:06Z</time>
      </trkpt>
      <trkpt lat="51.1703100" lon="7.0830420">
        <ele>243.8300000</ele>
        <time>2010-08-14T16:27:07Z</time>
      </trkpt>
      <trkpt lat="51.1702140" lon="7.0830380">
        <ele>244.3100000</ele>
        <time>2010-08-14T16:27:08Z</time>
      </trkpt>
      <trkpt lat="51.1701290" lon="7.0829720">
        <ele>248.1600000</ele>
        <time>2010-08-14T16:27:09Z</time>
      </trkpt>
      <trkpt lat="51.1700390" lon="7.0829330">
        <ele>252.4800000</ele>
        <time>2010-08-14T16:27:10Z</time>
      </trkpt>
      <trkpt lat="51.1699470" lon="7.0828600">
        <ele>252.4800000</ele>
        <time>2010-08-14T16:27:11Z</time>
      </trkpt>
      <trkpt lat="51.1698490" lon="7.0827880">
        <ele>252.0000000</ele>
        <time>2010-08-14T16:27:12Z</time>
      </trkpt>
      <trkpt lat="51.1697540" lon="7.0826910">
        <ele>252.9600000</ele>
        <time>2010-08-14T16:27:13Z</time>
      </trkpt>
      <trkpt lat="51.1695750" lon="7.0823580">
        <ele>248.6400000</ele>
        <time>2010-08-14T16:27:16Z</time>
      </trkpt>
      <trkpt lat="51.1695880" lon="7.0822490">
        <ele>248.1600000</ele>
        <time>2010-08-14T16:27:17Z</time>
      </trkpt>
      <trkpt lat="51.1696070" lon="7.0821490">
        <ele>247.2000000</ele>
        <time>2010-08-14T16:27:18Z</time>
      </trkpt>
      <trkpt lat="51.1696380" lon="7.0820500">
        <ele>246.7200000</ele>
        <time>2010-08-14T16:27:19Z</time>
      </trkpt>
      <trkpt lat="51.1696840" lon="7.0819460">
        <ele>245.7500000</ele>
        <time>2010-08-14T16:27:20Z</time>
      </trkpt>
      <trkpt lat="51.1697460" lon="7.0818280">
        <ele>245.7500000</ele>
        <time>2010-08-14T16:27:21Z</time>
      </trkpt>
      <trkpt lat="51.1698440" lon="7.0817040">
        <ele>244.7900000</ele>
        <time>2010-08-14T16:27:22Z</time>
      </trkpt>
      <trkpt lat="51.1699370" lon="7.0816090">
        <ele>244.7900000</ele>
        <time>2010-08-14T16:27:23Z</time>
      </trkpt>
      <trkpt lat="51.1700200" lon="7.0815510">
        <ele>243.3500000</ele>
        <time>2010-08-14T16:27:24Z</time>
      </trkpt>
      <trkpt lat="51.1700920" lon="7.0814840">
        <ele>243.3500000</ele>
        <time>2010-08-14T16:27:25Z</time>
      </trkpt>
      <trkpt lat="51.1702160" lon="7.0814080">
        <ele>242.3900000</ele>
        <time>2010-08-14T16:27:27Z</time>
      </trkpt>
      <trkpt lat="51.1702240" lon="7.0813460">
        <ele>242.3900000</ele>
        <time>2010-08-14T16:27:28Z</time>
      </trkpt>
      <trkpt lat="51.1701850" lon="7.0812710">
        <ele>241.4300000</ele>
        <time>2010-08-14T16:27:29Z</time>
      </trkpt>
      <trkpt lat="51.1701470" lon="7.0811850">
        <ele>242.3900000</ele>
        <time>2010-08-14T16:27:30Z</time>
      </trkpt>
      <trkpt lat="51.1701250" lon="7.0811290">
        <ele>241.4300000</ele>
        <time>2010-08-14T16:27:31Z</time>
      </trkpt>
      <trkpt lat="51.1701080" lon="7.0810650">
        <ele>240.9500000</ele>
        <time>2010-08-14T16:27:32Z</time>
      </trkpt>
      <trkpt lat="51.1701190" lon="7.0810170">
        <ele>239.5100000</ele>
        <time>2010-08-14T16:27:33Z</time>
      </trkpt>
      <trkpt lat="51.1701370" lon="7.0809800">
        <ele>238.5400000</ele>
        <time>2010-08-14T16:27:34Z</time>
      </trkpt>
      <trkpt lat="51.1701750" lon="7.0809330">
        <ele>238.5400000</ele>
        <time>2010-08-14T16:27:35Z</time>
      </trkpt>
      <trkpt lat="51.1702230" lon="7.0808940">
        <ele>238.5400000</ele>
        <time>2010-08-14T16:27:36Z</time>
      </trkpt>
      <trkpt lat="51.1702870" lon="7.0808560">
        <ele>239.0200000</ele>
        <time>2010-08-14T16:27:37Z</time>
      </trkpt>
      <trkpt lat="51.1703570" lon="7.0808130">
        <ele>241.4300000</ele>
        <time>2010-08-14T16:27:38Z</time>
      </trkpt>
      <trkpt lat="51.1704250" lon="7.0806850">
        <ele>241.9100000</ele>
        <time>2010-08-14T16:27:41Z</time>
      </trkpt>
      <trkpt lat="51.1703670" lon="7.0805550">
        <ele>242.3900000</ele>
        <time>2010-08-14T16:27:42Z</time>
      </trkpt>
      <trkpt lat="51.1699940" lon="7.0796070">
        <ele>237.1000000</ele>
        <time>2010-08-14T16:27:48Z</time>
      </trkpt>
      <trkpt lat="51.1698650" lon="7.0791370">
        <ele>234.7000000</ele>
        <time>2010-08-14T16:27:52Z</time>
      </trkpt>
      <trkpt lat="51.1698420" lon="7.0790940">
        <ele>233.7400000</ele>
        <time>2010-08-14T16:27:53Z</time>
      </trkpt>
      <trkpt lat="51.1698160" lon="7.0790700">
        <ele>232.7800000</ele>
        <time>2010-08-14T16:27:54Z</time>
      </trkpt>
      <trkpt lat="51.1697790" lon="7.0791100">
        <ele>232.7800000</ele>
        <time>2010-08-14T16:27:55Z</time>
      </trkpt>
      <trkpt lat="51.1697430" lon="7.0791740">
        <ele>232.7800000</ele>
        <time>2010-08-14T16:27:56Z</time>
      </trkpt>
      <trkpt lat="51.1696990" lon="7.0792580">
        <ele>232.3000000</ele>
        <time>2010-08-14T16:27:57Z</time>
      </trkpt>
      <trkpt lat="51.1694720" lon="7.0796430">
        <ele>231.8100000</ele>
        <time>2010-08-14T16:28:04Z</time>
      </trkpt>
      <trkpt lat="51.1694560" lon="7.0797130">
        <ele>232.3000000</ele>
        <time>2010-08-14T16:28:18Z</time>
      </trkpt>
      <trkpt lat="51.1693960" lon="7.0798320">
        <ele>220.2800000</ele>
        <time>2010-08-14T16:28:54Z</time>
      </trkpt>
      <trkpt lat="51.1693750" lon="7.0799570">
        <ele>232.3000000</ele>
        <time>2010-08-14T16:29:12Z</time>
      </trkpt>
      <trkpt lat="51.1694340" lon="7.0799250">
        <ele>247.2000000</ele>
        <time>2010-08-14T16:29:35Z</time>
      </trkpt>
      <trkpt lat="51.1694560" lon="7.0798700">
        <ele>247.2000000</ele>
        <time>2010-08-14T16:29:41Z</time>
      </trkpt>
      <trkpt lat="51.1694840" lon="7.0797950">
        <ele>236.6200000</ele>
        <time>2010-08-14T16:29:54Z</time>
      </trkpt>
    </trkseg>
  </trk>

  <trk>
    <name>ACTIVE LOG: 16 AUG 2010 08:59</name>
    <extensions>
      <gpxx:TrackExtension xmlns:gpxx="http://www.garmin.com/xmlschemas/GpxExtensions/v3">
        <gpxx:DisplayColor>White</gpxx:DisplayColor>
      </gpxx:TrackExtension>
    </extensions>
    <trkseg>
      <trkpt lat="51.1679900" lon="6.9609490">
        <ele>61.1800000</ele>
        <time>2010-08-16T06:59:03Z</time>
      </trkpt>
      <trkpt lat="51.1680200" lon="6.9593290">
        <ele>60.2200000</ele>
        <time>2010-08-16T06:59:15Z</time>
      </trkpt>
      <trkpt lat="51.1680310" lon="6.9572390">
        <ele>57.8200000</ele>
        <time>2010-08-16T06:59:29Z</time>
      </trkpt>
      <trkpt lat="51.1680720" lon="6.9551700">
        <ele>57.3400000</ele>
        <time>2010-08-16T06:59:40Z</time>
      </trkpt>
      <trkpt lat="51.1680660" lon="6.9534460">
        <ele>62.6200000</ele>
        <time>2010-08-16T06:59:48Z</time>
      </trkpt>
      <trkpt lat="51.1681570" lon="6.9507880">
        <ele>64.5500000</ele>
        <time>2010-08-16T07:00:03Z</time>
      </trkpt>
      <trkpt lat="51.1681990" lon="6.9505300">
        <ele>65.0300000</ele>
        <time>2010-08-16T07:00:09Z</time>
      </trkpt>
      <trkpt lat="51.1682260" lon="6.9503610">
        <ele>61.6600000</ele>
        <time>2010-08-16T07:00:28Z</time>
      </trkpt>
      <trkpt lat="51.1683460" lon="6.9493100">
        <ele>57.8200000</ele>
        <time>2010-08-16T07:00:37Z</time>
      </trkpt>
      <trkpt lat="51.1686350" lon="6.9465920">
        <ele>53.9700000</ele>
        <time>2010-08-16T07:00:54Z</time>
      </trkpt>
      <trkpt lat="51.1689690" lon="6.9449990">
        <ele>54.9300000</ele>
        <time>2010-08-16T07:01:02Z</time>
      </trkpt>
      <trkpt lat="51.1690600" lon="6.9447910">
        <ele>56.8600000</ele>
        <time>2010-08-16T07:01:03Z</time>
      </trkpt>
      <trkpt lat="51.1691600" lon="6.9445980">
        <ele>57.8200000</ele>
        <time>2010-08-16T07:01:04Z</time>
      </trkpt>
      <trkpt lat="51.1692720" lon="6.9444250">
        <ele>58.7800000</ele>
        <time>2010-08-16T07:01:05Z</time>
      </trkpt>
      <trkpt lat="51.1693900" lon="6.9442720">
        <ele>59.2600000</ele>
        <time>2010-08-16T07:01:06Z</time>
      </trkpt>
      <trkpt lat="51.1695180" lon="6.9441440">
        <ele>59.7400000</ele>
        <time>2010-08-16T07:01:07Z</time>
      </trkpt>
      <trkpt lat="51.1696440" lon="6.9440270">
        <ele>60.7000000</ele>
        <time>2010-08-16T07:01:08Z</time>
      </trkpt>
      <trkpt lat="51.1706190" lon="6.9426960">
        <ele>52.0500000</ele>
        <time>2010-08-16T07:01:17Z</time>
      </trkpt>
      <trkpt lat="51.1706660" lon="6.9424680">
        <ele>52.0500000</ele>
        <time>2010-08-16T07:01:18Z</time>
      </trkpt>
      <trkpt lat="51.1706790" lon="6.9422220">
        <ele>52.5300000</ele>
        <time>2010-08-16T07:01:19Z</time>
      </trkpt>
      <trkpt lat="51.1706910" lon="6.9419950">
        <ele>53.0100000</ele>
        <time>2010-08-16T07:01:20Z</time>
      </trkpt>
      <trkpt lat="51.1706860" lon="6.9417610">
        <ele>53.4900000</ele>
        <time>2010-08-16T07:01:21Z</time>
      </trkpt>
      <trkpt lat="51.1706800" lon="6.9415370">
        <ele>53.4900000</ele>
        <time>2010-08-16T07:01:22Z</time>
      </trkpt>
      <trkpt lat="51.1707150" lon="6.9398580">
        <ele>53.4900000</ele>
        <time>2010-08-16T07:01:31Z</time>
      </trkpt>
      <trkpt lat="51.1709430" lon="6.9371460">
        <ele>50.6100000</ele>
        <time>2010-08-16T07:01:44Z</time>
      </trkpt>
      <trkpt lat="51.1708790" lon="6.9353940">
        <ele>50.6100000</ele>
        <time>2010-08-16T07:01:54Z</time>
      </trkpt>
      <trkpt lat="51.1704960" lon="6.9332360">
        <ele>50.6100000</ele>
        <time>2010-08-16T07:02:07Z</time>
      </trkpt>
      <trkpt lat="51.1698980" lon="6.9314630">
        <ele>52.5300000</ele>
        <time>2010-08-16T07:02:18Z</time>
      </trkpt>
      <trkpt lat="51.1693280" lon="6.9302770">
        <ele>54.4500000</ele>
        <time>2010-08-16T07:02:27Z</time>
      </trkpt>
      <trkpt lat="51.1684820" lon="6.9288760">
        <ele>53.0100000</ele>
        <time>2010-08-16T07:02:37Z</time>
      </trkpt>
      <trkpt lat="51.1684430" lon="6.9287650">
        <ele>52.5300000</ele>
        <time>2010-08-16T07:02:38Z</time>
      </trkpt>
      <trkpt lat="51.1684270" lon="6.9286480">
        <ele>51.0900000</ele>
        <time>2010-08-16T07:02:39Z</time>
      </trkpt>
      <trkpt lat="51.1684490" lon="6.9285320">
        <ele>50.1300000</ele>
        <time>2010-08-16T07:02:40Z</time>
      </trkpt>
      <trkpt lat="51.1685010" lon="6.9284000">
        <ele>50.1300000</ele>
        <time>2010-08-16T07:02:41Z</time>
      </trkpt>
      <trkpt lat="51.1685860" lon="6.9282680">
        <ele>50.1300000</ele>
        <time>2010-08-16T07:02:42Z</time>
      </trkpt>
      <trkpt lat="51.1686790" lon="6.9281360">
        <ele>50.1300000</ele>
        <time>2010-08-16T07:02:43Z</time>
      </trkpt>
      <trkpt lat="51.1687650" lon="6.9279980">
        <ele>49.6500000</ele>
        <time>2010-08-16T07:02:44Z</time>
      </trkpt>
      <trkpt lat="51.1694910" lon="6.9268030">
        <ele>50.6100000</ele>
        <time>2010-08-16T07:02:54Z</time>
      </trkpt>
      <trkpt lat="51.1696840" lon="6.9265680">
        <ele>48.2000000</ele>
        <time>2010-08-16T07:03:02Z</time>
      </trkpt>
      <trkpt lat="51.1698290" lon="6.9262370">
        <ele>45.3200000</ele>
        <time>2010-08-16T07:03:19Z</time>
      </trkpt>
      <trkpt lat="51.1698660" lon="6.9261150">
        <ele>44.8400000</ele>
        <time>2010-08-16T07:03:20Z</time>
      </trkpt>
      <trkpt lat="51.1699030" lon="6.9259850">
        <ele>43.8800000</ele>
        <time>2010-08-16T07:03:21Z</time>
      </trkpt>
      <trkpt lat="51.1701930" lon="6.9245480">
        <ele>43.4000000</ele>
        <time>2010-08-16T07:03:29Z</time>
      </trkpt>
      <trkpt lat="51.1703550" lon="6.9238640">
        <ele>42.4400000</ele>
        <time>2010-08-16T07:03:35Z</time>
      </trkpt>
      <trkpt lat="51.1703610" lon="6.9238600">
        <ele>42.4400000</ele>
        <time>2010-08-16T07:03:43Z</time>
      </trkpt>
      <trkpt lat="51.1704590" lon="6.9233980">
        <ele>40.9900000</ele>
        <time>2010-08-16T07:04:00Z</time>
      </trkpt>
      <trkpt lat="51.1707620" lon="6.9219290">
        <ele>39.0700000</ele>
        <time>2010-08-16T07:04:08Z</time>
      </trkpt>
      <trkpt lat="51.1715080" lon="6.9191590">
        <ele>42.9200000</ele>
        <time>2010-08-16T07:04:22Z</time>
      </trkpt>
      <trkpt lat="51.1723280" lon="6.9163840">
        <ele>43.8800000</ele>
        <time>2010-08-16T07:04:36Z</time>
      </trkpt>
      <trkpt lat="51.1726920" lon="6.9151390">
        <ele>45.8000000</ele>
        <time>2010-08-16T07:04:45Z</time>
      </trkpt>
      <trkpt lat="51.1727290" lon="6.9150610">
        <ele>52.0500000</ele>
        <time>2010-08-16T07:04:52Z</time>
      </trkpt>
      <trkpt lat="51.1729140" lon="6.9148550">
        <ele>49.6500000</ele>
        <time>2010-08-16T07:05:17Z</time>
      </trkpt>
      <trkpt lat="51.1729370" lon="6.9147800">
        <ele>49.6500000</ele>
        <time>2010-08-16T07:05:18Z</time>
      </trkpt>
      <trkpt lat="51.1729530" lon="6.9146940">
        <ele>48.6800000</ele>
        <time>2010-08-16T07:05:19Z</time>
      </trkpt>
      <trkpt lat="51.1729500" lon="6.9145930">
        <ele>48.2000000</ele>
        <time>2010-08-16T07:05:20Z</time>
      </trkpt>
      <trkpt lat="51.1729280" lon="6.9144760">
        <ele>47.7200000</ele>
        <time>2010-08-16T07:05:21Z</time>
      </trkpt>
      <trkpt lat="51.1729210" lon="6.9143410">
        <ele>48.6800000</ele>
        <time>2010-08-16T07:05:22Z</time>
      </trkpt>
      <trkpt lat="51.1729450" lon="6.9130730">
        <ele>46.2800000</ele>
        <time>2010-08-16T07:05:29Z</time>
      </trkpt>
      <trkpt lat="51.1727000" lon="6.9094630">
        <ele>40.5100000</ele>
        <time>2010-08-16T07:05:45Z</time>
      </trkpt>
      <trkpt lat="51.1725600" lon="6.9084880">
        <ele>41.4700000</ele>
        <time>2010-08-16T07:05:52Z</time>
      </trkpt>
      <trkpt lat="51.1725380" lon="6.9082750">
        <ele>42.9200000</ele>
        <time>2010-08-16T07:05:59Z</time>
      </trkpt>
      <trkpt lat="51.1724480" lon="6.9079340">
        <ele>50.1300000</ele>
        <time>2010-08-16T07:06:42Z</time>
      </trkpt>
      <trkpt lat="51.1722240" lon="6.9065740">
        <ele>46.2800000</ele>
        <time>2010-08-16T07:06:51Z</time>
      </trkpt>
      <trkpt lat="51.1718960" lon="6.9045900">
        <ele>38.5900000</ele>
        <time>2010-08-16T07:07:04Z</time>
      </trkpt>
      <trkpt lat="51.1716670" lon="6.9021220">
        <ele>36.6700000</ele>
        <time>2010-08-16T07:07:18Z</time>
      </trkpt>
      <trkpt lat="51.1717030" lon="6.9019140">
        <ele>36.1900000</ele>
        <time>2010-08-16T07:07:19Z</time>
      </trkpt>
      <trkpt lat="51.1717420" lon="6.9017140">
        <ele>36.6700000</ele>
        <time>2010-08-16T07:07:20Z</time>
      </trkpt>
      <trkpt lat="51.1717880" lon="6.9015160">
        <ele>36.6700000</ele>
        <time>2010-08-16T07:07:21Z</time>
      </trkpt>
      <trkpt lat="51.1718390" lon="6.9013250">
        <ele>37.6300000</ele>
        <time>2010-08-16T07:07:22Z</time>
      </trkpt>
      <trkpt lat="51.1727290" lon="6.8982610">
        <ele>42.9200000</ele>
        <time>2010-08-16T07:07:37Z</time>
      </trkpt>
      <trkpt lat="51.1738720" lon="6.8944930">
        <ele>45.8000000</ele>
        <time>2010-08-16T07:07:53Z</time>
      </trkpt>
      <trkpt lat="51.1748300" lon="6.8913500">
        <ele>50.1300000</ele>
        <time>2010-08-16T07:08:06Z</time>
      </trkpt>
      <trkpt lat="51.1756280" lon="6.8886230">
        <ele>48.6800000</ele>
        <time>2010-08-16T07:08:19Z</time>
      </trkpt>
      <trkpt lat="51.1761450" lon="6.8868230">
        <ele>46.7600000</ele>
        <time>2010-08-16T07:08:31Z</time>
      </trkpt>
      <trkpt lat="51.1762040" lon="6.8866180">
        <ele>45.3200000</ele>
        <time>2010-08-16T07:08:38Z</time>
      </trkpt>
      <trkpt lat="51.1763390" lon="6.8861750">
        <ele>47.2400000</ele>
        <time>2010-08-16T07:09:02Z</time>
      </trkpt>
      <trkpt lat="51.1771810" lon="6.8832490">
        <ele>46.7600000</ele>
        <time>2010-08-16T07:09:16Z</time>
      </trkpt>
      <trkpt lat="51.1779150" lon="6.8808370">
        <ele>45.8000000</ele>
        <time>2010-08-16T07:09:29Z</time>
      </trkpt>
      <trkpt lat="51.1788620" lon="6.8776490">
        <ele>40.0300000</ele>
        <time>2010-08-16T07:09:45Z</time>
      </trkpt>
      <trkpt lat="51.1794730" lon="6.8755850">
        <ele>37.1500000</ele>
        <time>2010-08-16T07:09:57Z</time>
      </trkpt>
      <trkpt lat="51.1796480" lon="6.8750440">
        <ele>34.2600000</ele>
        <time>2010-08-16T07:10:02Z</time>
      </trkpt>
      <trkpt lat="51.1796580" lon="6.8749710">
        <ele>35.2300000</ele>
        <time>2010-08-16T07:10:03Z</time>
      </trkpt>
      <trkpt lat="51.1796480" lon="6.8749030">
        <ele>35.2300000</ele>
        <time>2010-08-16T07:10:04Z</time>
      </trkpt>
      <trkpt lat="51.1796040" lon="6.8748550">
        <ele>34.7400000</ele>
        <time>2010-08-16T07:10:05Z</time>
      </trkpt>
      <trkpt lat="51.1795400" lon="6.8748300">
        <ele>34.7400000</ele>
        <time>2010-08-16T07:10:06Z</time>
      </trkpt>
      <trkpt lat="51.1794580" lon="6.8748570">
        <ele>34.2600000</ele>
        <time>2010-08-16T07:10:07Z</time>
      </trkpt>
      <trkpt lat="51.1793630" lon="6.8749130">
        <ele>34.7400000</ele>
        <time>2010-08-16T07:10:08Z</time>
      </trkpt>
      <trkpt lat="51.1792700" lon="6.8749510">
        <ele>33.7800000</ele>
        <time>2010-08-16T07:10:09Z</time>
      </trkpt>
      <trkpt lat="51.1791800" lon="6.8749640">
        <ele>33.7800000</ele>
        <time>2010-08-16T07:10:10Z</time>
      </trkpt>
      <trkpt lat="51.1790910" lon="6.8749740">
        <ele>34.2600000</ele>
        <time>2010-08-16T07:10:11Z</time>
      </trkpt>
      <trkpt lat="51.1789960" lon="6.8749660">
        <ele>35.7100000</ele>
        <time>2010-08-16T07:10:12Z</time>
      </trkpt>
      <trkpt lat="51.1789100" lon="6.8749200">
        <ele>36.1900000</ele>
        <time>2010-08-16T07:10:13Z</time>
      </trkpt>
      <trkpt lat="51.1788510" lon="6.8748080">
        <ele>37.1500000</ele>
        <time>2010-08-16T07:10:14Z</time>
      </trkpt>
      <trkpt lat="51.1787910" lon="6.8746830">
        <ele>38.1100000</ele>
        <time>2010-08-16T07:10:15Z</time>
      </trkpt>
      <trkpt lat="51.1787230" lon="6.8745640">
        <ele>39.0700000</ele>
        <time>2010-08-16T07:10:16Z</time>
      </trkpt>
      <trkpt lat="51.1786510" lon="6.8744600">
        <ele>39.0700000</ele>
        <time>2010-08-16T07:10:17Z</time>
      </trkpt>
      <trkpt lat="51.1776800" lon="6.8732190">
        <ele>58.3000000</ele>
        <time>2010-08-16T07:10:29Z</time>
      </trkpt>
      <trkpt lat="51.1768850" lon="6.8722830">
        <ele>80.8900000</ele>
        <time>2010-08-16T07:10:40Z</time>
      </trkpt>
      <trkpt lat="51.1763890" lon="6.8716060">
        <ele>74.1600000</ele>
        <time>2010-08-16T07:10:50Z</time>
      </trkpt>
      <trkpt lat="51.1763570" lon="6.8715550">
        <ele>74.6400000</ele>
        <time>2010-08-16T07:10:51Z</time>
      </trkpt>
      <trkpt lat="51.1759650" lon="6.8706230">
        <ele>62.1400000</ele>
        <time>2010-08-16T07:11:01Z</time>
      </trkpt>
      <trkpt lat="51.1759150" lon="6.8705610">
        <ele>59.7400000</ele>
        <time>2010-08-16T07:11:02Z</time>
      </trkpt>
      <trkpt lat="51.1758610" lon="6.8705200">
        <ele>57.3400000</ele>
        <time>2010-08-16T07:11:03Z</time>
      </trkpt>
      <trkpt lat="51.1757900" lon="6.8705240">
        <ele>56.3700000</ele>
        <time>2010-08-16T07:11:04Z</time>
      </trkpt>
      <trkpt lat="51.1757020" lon="6.8705750">
        <ele>55.8900000</ele>
        <time>2010-08-16T07:11:05Z</time>
      </trkpt>
      <trkpt lat="51.1756110" lon="6.8706650">
        <ele>55.8900000</ele>
        <time>2010-08-16T07:11:06Z</time>
      </trkpt>
      <trkpt lat="51.1755280" lon="6.8707610">
        <ele>55.4100000</ele>
        <time>2010-08-16T07:11:07Z</time>
      </trkpt>
      <trkpt lat="51.1754540" lon="6.8708580">
        <ele>53.9700000</ele>
        <time>2010-08-16T07:11:08Z</time>
      </trkpt>
      <trkpt lat="51.1753840" lon="6.8709540">
        <ele>53.4900000</ele>
        <time>2010-08-16T07:11:09Z</time>
      </trkpt>
      <trkpt lat="51.1744970" lon="6.8721980">
        <ele>44.8400000</ele>
        <time>2010-08-16T07:11:21Z</time>
      </trkpt>
      <trkpt lat="51.1739140" lon="6.8728020">
        <ele>41.9500000</ele>
        <time>2010-08-16T07:11:28Z</time>
      </trkpt>
      <trkpt lat="51.1738260" lon="6.8728490">
        <ele>40.9900000</ele>
        <time>2010-08-16T07:11:29Z</time>
      </trkpt>
      <trkpt lat="51.1726710" lon="6.8733560">
        <ele>42.4400000</ele>
        <time>2010-08-16T07:11:40Z</time>
      </trkpt>
      <trkpt lat="51.1711520" lon="6.8740020">
        <ele>37.1500000</ele>
        <time>2010-08-16T07:11:55Z</time>
      </trkpt>
      <trkpt lat="51.1708740" lon="6.8740830">
        <ele>36.6700000</ele>
        <time>2010-08-16T07:11:58Z</time>
      </trkpt>
      <trkpt lat="51.1707810" lon="6.8740890">
        <ele>37.1500000</ele>
        <time>2010-08-16T07:11:59Z</time>
      </trkpt>
      <trkpt lat="51.1706830" lon="6.8740790">
        <ele>38.1100000</ele>
        <time>2010-08-16T07:12:00Z</time>
      </trkpt>
      <trkpt lat="51.1705870" lon="6.8740500">
        <ele>38.1100000</ele>
        <time>2010-08-16T07:12:01Z</time>
      </trkpt>
      <trkpt lat="51.1704850" lon="6.8740140">
        <ele>37.1500000</ele>
        <time>2010-08-16T07:12:02Z</time>
      </trkpt>
      <trkpt lat="51.1699990" lon="6.8737040">
        <ele>52.5300000</ele>
        <time>2010-08-16T07:12:07Z</time>
      </trkpt>
      <trkpt lat="51.1699400" lon="6.8735870">
        <ele>53.0100000</ele>
        <time>2010-08-16T07:12:08Z</time>
      </trkpt>
      <trkpt lat="51.1698750" lon="6.8734870">
        <ele>53.4900000</ele>
        <time>2010-08-16T07:12:09Z</time>
      </trkpt>
      <trkpt lat="51.1698070" lon="6.8734430">
        <ele>53.4900000</ele>
        <time>2010-08-16T07:12:10Z</time>
      </trkpt>
      <trkpt lat="51.1697310" lon="6.8734430">
        <ele>53.9700000</ele>
        <time>2010-08-16T07:12:11Z</time>
      </trkpt>
      <trkpt lat="51.1696440" lon="6.8734880">
        <ele>56.3700000</ele>
        <time>2010-08-16T07:12:12Z</time>
      </trkpt>
      <trkpt lat="51.1695730" lon="6.8735240">
        <ele>56.3700000</ele>
        <time>2010-08-16T07:12:13Z</time>
      </trkpt>
      <trkpt lat="51.1695050" lon="6.8735610">
        <ele>55.8900000</ele>
        <time>2010-08-16T07:12:14Z</time>
      </trkpt>
      <trkpt lat="51.1691280" lon="6.8737980">
        <ele>55.4100000</ele>
        <time>2010-08-16T07:12:20Z</time>
      </trkpt>
      <trkpt lat="51.1691360" lon="6.8738520">
        <ele>53.9700000</ele>
        <time>2010-08-16T07:12:21Z</time>
      </trkpt>
      <trkpt lat="51.1691760" lon="6.8739170">
        <ele>50.6100000</ele>
        <time>2010-08-16T07:12:22Z</time>
      </trkpt>
    </trkseg>
  </trk>

  <trk>
    <name>ACTIVE LOG: 20 AUG 2010 11:22</name>
    <extensions>
      <gpxx:TrackExtension xmlns:gpxx="http://www.garmin.com/xmlschemas/GpxExtensions/v3">
        <gpxx:DisplayColor>White</gpxx:DisplayColor>
      </gpxx:TrackExtension>
    </extensions>
    <trkseg>
      <trkpt lat="51.1694750" lon="7.0796600">
        <ele>214.5100000</ele>
        <time>2010-08-20T09:22:58Z</time>
      </trkpt>
      <trkpt lat="51.1695220" lon="7.0797660">
        <ele>233.2600000</ele>
        <time>2010-08-20T09:24:43Z</time>
      </trkpt>
      <trkpt lat="51.1695660" lon="7.0798480">
        <ele>232.7800000</ele>
        <time>2010-08-20T09:24:44Z</time>
      </trkpt>
      <trkpt lat="51.1696110" lon="7.0799460">
        <ele>232.7800000</ele>
        <time>2010-08-20T09:24:45Z</time>
      </trkpt>
      <trkpt lat="51.1696500" lon="7.0800500">
        <ele>232.3000000</ele>
        <time>2010-08-20T09:24:46Z</time>
      </trkpt>
      <trkpt lat="51.1696930" lon="7.0801850">
        <ele>232.3000000</ele>
        <time>2010-08-20T09:24:47Z</time>
      </trkpt>
      <trkpt lat="51.1697420" lon="7.0802790">
        <ele>231.8100000</ele>
        <time>2010-08-20T09:24:48Z</time>
      </trkpt>
      <trkpt lat="51.1697810" lon="7.0803680">
        <ele>231.8100000</ele>
        <time>2010-08-20T09:24:49Z</time>
      </trkpt>
      <trkpt lat="51.1699290" lon="7.0807460">
        <ele>232.7800000</ele>
        <time>2010-08-20T09:24:54Z</time>
      </trkpt>
      <trkpt lat="51.1699780" lon="7.0808660">
        <ele>233.2600000</ele>
        <time>2010-08-20T09:24:56Z</time>
      </trkpt>
      <trkpt lat="51.1699970" lon="7.0809330">
        <ele>232.7800000</ele>
        <time>2010-08-20T09:24:57Z</time>
      </trkpt>
      <trkpt lat="51.1700200" lon="7.0809940">
        <ele>232.7800000</ele>
        <time>2010-08-20T09:24:58Z</time>
      </trkpt>
      <trkpt lat="51.1700470" lon="7.0810550">
        <ele>232.3000000</ele>
        <time>2010-08-20T09:24:59Z</time>
      </trkpt>
      <trkpt lat="51.1700740" lon="7.0811170">
        <ele>232.3000000</ele>
        <time>2010-08-20T09:25:00Z</time>
      </trkpt>
      <trkpt lat="51.1701830" lon="7.0814360">
        <ele>231.3300000</ele>
        <time>2010-08-20T09:25:08Z</time>
      </trkpt>
      <trkpt lat="51.1701500" lon="7.0815140">
        <ele>231.3300000</ele>
        <time>2010-08-20T09:25:09Z</time>
      </trkpt>
      <trkpt lat="51.1701220" lon="7.0816210">
        <ele>231.3300000</ele>
        <time>2010-08-20T09:25:10Z</time>
      </trkpt>
      <trkpt lat="51.1700650" lon="7.0817160">
        <ele>231.3300000</ele>
        <time>2010-08-20T09:25:11Z</time>
      </trkpt>
      <trkpt lat="51.1699900" lon="7.0817890">
        <ele>231.3300000</ele>
        <time>2010-08-20T09:25:12Z</time>
      </trkpt>
      <trkpt lat="51.1699090" lon="7.0817970">
        <ele>231.3300000</ele>
        <time>2010-08-20T09:25:13Z</time>
      </trkpt>
      <trkpt lat="51.1698590" lon="7.0818480">
        <ele>231.3300000</ele>
        <time>2010-08-20T09:25:14Z</time>
      </trkpt>
      <trkpt lat="51.1698210" lon="7.0819060">
        <ele>231.3300000</ele>
        <time>2010-08-20T09:25:15Z</time>
      </trkpt>
      <trkpt lat="51.1697910" lon="7.0819670">
        <ele>231.3300000</ele>
        <time>2010-08-20T09:25:16Z</time>
      </trkpt>
      <trkpt lat="51.1697580" lon="7.0820230">
        <ele>231.3300000</ele>
        <time>2010-08-20T09:25:17Z</time>
      </trkpt>
      <trkpt lat="51.1696640" lon="7.0821900">
        <ele>237.5800000</ele>
        <time>2010-08-20T09:25:25Z</time>
      </trkpt>
      <trkpt lat="51.1696080" lon="7.0823100">
        <ele>241.4300000</ele>
        <time>2010-08-20T09:25:37Z</time>
      </trkpt>
      <trkpt lat="51.1696300" lon="7.0823590">
        <ele>240.4700000</ele>
        <time>2010-08-20T09:25:38Z</time>
      </trkpt>
      <trkpt lat="51.1696630" lon="7.0824350">
        <ele>239.5100000</ele>
        <time>2010-08-20T09:25:39Z</time>
      </trkpt>
      <trkpt lat="51.1697090" lon="7.0825110">
        <ele>239.0200000</ele>
        <time>2010-08-20T09:25:40Z</time>
      </trkpt>
      <trkpt lat="51.1697630" lon="7.0825740">
        <ele>239.0200000</ele>
        <time>2010-08-20T09:25:41Z</time>
      </trkpt>
      <trkpt lat="51.1698050" lon="7.0826240">
        <ele>239.0200000</ele>
        <time>2010-08-20T09:25:42Z</time>
      </trkpt>
      <trkpt lat="51.1699440" lon="7.0828540">
        <ele>237.1000000</ele>
        <time>2010-08-20T09:25:51Z</time>
      </trkpt>
      <trkpt lat="51.1700520" lon="7.0830220">
        <ele>238.0600000</ele>
        <time>2010-08-20T09:25:57Z</time>
      </trkpt>
      <trkpt lat="51.1700770" lon="7.0830980">
        <ele>238.5400000</ele>
        <time>2010-08-20T09:25:58Z</time>
      </trkpt>
      <trkpt lat="51.1700990" lon="7.0831840">
        <ele>238.5400000</ele>
        <time>2010-08-20T09:25:59Z</time>
      </trkpt>
      <trkpt lat="51.1701090" lon="7.0832700">
        <ele>237.5800000</ele>
        <time>2010-08-20T09:26:00Z</time>
      </trkpt>
      <trkpt lat="51.1701050" lon="7.0833560">
        <ele>236.6200000</ele>
        <time>2010-08-20T09:26:01Z</time>
      </trkpt>
      <trkpt lat="51.1701040" lon="7.0834750">
        <ele>237.1000000</ele>
        <time>2010-08-20T09:26:02Z</time>
      </trkpt>
      <trkpt lat="51.1700890" lon="7.0835450">
        <ele>236.6200000</ele>
        <time>2010-08-20T09:26:03Z</time>
      </trkpt>
      <trkpt lat="51.1700590" lon="7.0836070">
        <ele>236.6200000</ele>
        <time>2010-08-20T09:26:04Z</time>
      </trkpt>
      <trkpt lat="51.1700340" lon="7.0836590">
        <ele>235.6600000</ele>
        <time>2010-08-20T09:26:05Z</time>
      </trkpt>
      <trkpt lat="51.1700020" lon="7.0837200">
        <ele>235.1800000</ele>
        <time>2010-08-20T09:26:06Z</time>
      </trkpt>
      <trkpt lat="51.1699630" lon="7.0837890">
        <ele>234.2200000</ele>
        <time>2010-08-20T09:26:07Z</time>
      </trkpt>
      <trkpt lat="51.1696200" lon="7.0843870">
        <ele>228.9300000</ele>
        <time>2010-08-20T09:26:16Z</time>
      </trkpt>
      <trkpt lat="51.1694430" lon="7.0846820">
        <ele>226.5300000</ele>
        <time>2010-08-20T09:26:21Z</time>
      </trkpt>
      <trkpt lat="51.1693290" lon="7.0849130">
        <ele>226.5300000</ele>
        <time>2010-08-20T09:26:25Z</time>
      </trkpt>
      <trkpt lat="51.1691730" lon="7.0852230">
        <ele>229.8900000</ele>
        <time>2010-08-20T09:26:36Z</time>
      </trkpt>
      <trkpt lat="51.1690060" lon="7.0855180">
        <ele>228.9300000</ele>
        <time>2010-08-20T09:26:53Z</time>
      </trkpt>
      <trkpt lat="51.1685130" lon="7.0862870">
        <ele>226.0500000</ele>
        <time>2010-08-20T09:27:00Z</time>
      </trkpt>
      <trkpt lat="51.1678580" lon="7.0871290">
        <ele>224.6100000</ele>
        <time>2010-08-20T09:27:08Z</time>
      </trkpt>
      <trkpt lat="51.1670860" lon="7.0879560">
        <ele>223.1600000</ele>
        <time>2010-08-20T09:27:17Z</time>
      </trkpt>
      <trkpt lat="51.1670500" lon="7.0880220">
        <ele>226.0500000</ele>
        <time>2010-08-20T09:27:23Z</time>
      </trkpt>
      <trkpt lat="51.1668390" lon="7.0883510">
        <ele>224.1200000</ele>
        <time>2010-08-20T09:28:30Z</time>
      </trkpt>
      <trkpt lat="51.1661700" lon="7.0891960">
        <ele>222.6800000</ele>
        <time>2010-08-20T09:28:39Z</time>
      </trkpt>
      <trkpt lat="51.1661130" lon="7.0893000">
        <ele>222.2000000</ele>
        <time>2010-08-20T09:28:40Z</time>
      </trkpt>
      <trkpt lat="51.1656720" lon="7.0902730">
        <ele>221.7200000</ele>
        <time>2010-08-20T09:28:49Z</time>
      </trkpt>
      <trkpt lat="51.1648850" lon="7.0921980">
        <ele>223.1600000</ele>
        <time>2010-08-20T09:29:01Z</time>
      </trkpt>
      <trkpt lat="51.1640470" lon="7.0942620">
        <ele>223.6400000</ele>
        <time>2010-08-20T09:29:13Z</time>
      </trkpt>
      <trkpt lat="51.1632970" lon="7.0961040">
        <ele>228.9300000</ele>
        <time>2010-08-20T09:29:23Z</time>
      </trkpt>
      <trkpt lat="51.1620580" lon="7.0989640">
        <ele>246.7200000</ele>
        <time>2010-08-20T09:29:39Z</time>
      </trkpt>
      <trkpt lat="51.1613280" lon="7.1011590">
        <ele>251.5200000</ele>
        <time>2010-08-20T09:29:50Z</time>
      </trkpt>
      <trkpt lat="51.1610310" lon="7.1031540">
        <ele>255.3700000</ele>
        <time>2010-08-20T09:29:59Z</time>
      </trkpt>
      <trkpt lat="51.1610220" lon="7.1052220">
        <ele>258.2500000</ele>
        <time>2010-08-20T09:30:08Z</time>
      </trkpt>
      <trkpt lat="51.1614030" lon="7.1071660">
        <ele>260.6500000</ele>
        <time>2010-08-20T09:30:17Z</time>
      </trkpt>
      <trkpt lat="51.1619190" lon="7.1096450">
        <ele>262.5800000</ele>
        <time>2010-08-20T09:30:29Z</time>
      </trkpt>
      <trkpt lat="51.1622180" lon="7.1110270">
        <ele>260.6500000</ele>
        <time>2010-08-20T09:30:39Z</time>
      </trkpt>
      <trkpt lat="51.1622350" lon="7.1111490">
        <ele>261.1400000</ele>
        <time>2010-08-20T09:30:47Z</time>
      </trkpt>
      <trkpt lat="51.1622140" lon="7.1115960">
        <ele>259.6900000</ele>
        <time>2010-08-20T09:30:55Z</time>
      </trkpt>
      <trkpt lat="51.1621880" lon="7.1119580">
        <ele>258.7300000</ele>
        <time>2010-08-20T09:31:00Z</time>
      </trkpt>
      <trkpt lat="51.1622180" lon="7.1120120">
        <ele>258.2500000</ele>
        <time>2010-08-20T09:31:01Z</time>
      </trkpt>
      <trkpt lat="51.1622640" lon="7.1120600">
        <ele>258.2500000</ele>
        <time>2010-08-20T09:31:02Z</time>
      </trkpt>
      <trkpt lat="51.1628100" lon="7.1124690">
        <ele>254.8900000</ele>
        <time>2010-08-20T09:31:08Z</time>
      </trkpt>
      <trkpt lat="51.1639430" lon="7.1134110">
        <ele>249.6000000</ele>
        <time>2010-08-20T09:31:19Z</time>
      </trkpt>
      <trkpt lat="51.1640540" lon="7.1134550">
        <ele>249.6000000</ele>
        <time>2010-08-20T09:31:20Z</time>
      </trkpt>
      <trkpt lat="51.1641700" lon="7.1134720">
        <ele>249.1200000</ele>
        <time>2010-08-20T09:31:21Z</time>
      </trkpt>
      <trkpt lat="51.1651550" lon="7.1134690">
        <ele>246.2300000</ele>
        <time>2010-08-20T09:31:29Z</time>
      </trkpt>
      <trkpt lat="51.1652830" lon="7.1135220">
        <ele>245.7500000</ele>
        <time>2010-08-20T09:31:30Z</time>
      </trkpt>
      <trkpt lat="51.1654080" lon="7.1136100">
        <ele>245.2700000</ele>
        <time>2010-08-20T09:31:31Z</time>
      </trkpt>
      <trkpt lat="51.1655280" lon="7.1137300">
        <ele>244.7900000</ele>
        <time>2010-08-20T09:31:32Z</time>
      </trkpt>
      <trkpt lat="51.1656390" lon="7.1138740">
        <ele>244.3100000</ele>
        <time>2010-08-20T09:31:33Z</time>
      </trkpt>
      <trkpt lat="51.1657470" lon="7.1140240">
        <ele>243.3500000</ele>
        <time>2010-08-20T09:31:34Z</time>
      </trkpt>
      <trkpt lat="51.1666640" lon="7.1153770">
        <ele>236.6200000</ele>
        <time>2010-08-20T09:31:44Z</time>
      </trkpt>
      <trkpt lat="51.1682530" lon="7.1177150">
        <ele>225.0900000</ele>
        <time>2010-08-20T09:32:00Z</time>
      </trkpt>
      <trkpt lat="51.1685700" lon="7.1182370">
        <ele>222.6800000</ele>
        <time>2010-08-20T09:32:03Z</time>
      </trkpt>
      <trkpt lat="51.1686570" lon="7.1184310">
        <ele>221.7200000</ele>
        <time>2010-08-20T09:32:04Z</time>
      </trkpt>
      <trkpt lat="51.1687300" lon="7.1186410">
        <ele>220.7600000</ele>
        <time>2010-08-20T09:32:05Z</time>
      </trkpt>
      <trkpt lat="51.1691990" lon="7.1204620">
        <ele>212.1100000</ele>
        <time>2010-08-20T09:32:14Z</time>
      </trkpt>
      <trkpt lat="51.1692270" lon="7.1206750">
        <ele>211.6300000</ele>
        <time>2010-08-20T09:32:15Z</time>
      </trkpt>
      <trkpt lat="51.1692410" lon="7.1209110">
        <ele>210.6700000</ele>
        <time>2010-08-20T09:32:16Z</time>
      </trkpt>
      <trkpt lat="51.1692220" lon="7.1227770">
        <ele>204.9000000</ele>
        <time>2010-08-20T09:32:21Z</time>
      </trkpt>
      <trkpt lat="51.1691700" lon="7.1245070">
        <ele>198.1700000</ele>
        <time>2010-08-20T09:32:27Z</time>
      </trkpt>
      <trkpt lat="51.1690160" lon="7.1263550">
        <ele>190.4800000</ele>
        <time>2010-08-20T09:32:34Z</time>
      </trkpt>
      <trkpt lat="51.1690020" lon="7.1270090">
        <ele>187.1100000</ele>
        <time>2010-08-20T09:32:38Z</time>
      </trkpt>
      <trkpt lat="51.1690590" lon="7.1270600">
        <ele>185.6700000</ele>
        <time>2010-08-20T09:32:39Z</time>
      </trkpt>
      <trkpt lat="51.1691240" lon="7.1271240">
        <ele>186.6300000</ele>
        <time>2010-08-20T09:32:40Z</time>
      </trkpt>
      <trkpt lat="51.1692250" lon="7.1271530">
        <ele>187.1100000</ele>
        <time>2010-08-20T09:32:41Z</time>
      </trkpt>
      <trkpt lat="51.1693340" lon="7.1271210">
        <ele>187.5900000</ele>
        <time>2010-08-20T09:32:42Z</time>
      </trkpt>
      <trkpt lat="51.1694600" lon="7.1270860">
        <ele>188.0800000</ele>
        <time>2010-08-20T09:32:43Z</time>
      </trkpt>
      <trkpt lat="51.1695660" lon="7.1270480">
        <ele>188.5600000</ele>
        <time>2010-08-20T09:32:44Z</time>
      </trkpt>
      <trkpt lat="51.1696750" lon="7.1269930">
        <ele>188.5600000</ele>
        <time>2010-08-20T09:32:45Z</time>
      </trkpt>
      <trkpt lat="51.1697870" lon="7.1269490">
        <ele>189.0400000</ele>
        <time>2010-08-20T09:32:46Z</time>
      </trkpt>
      <trkpt lat="51.1708210" lon="7.1264250">
        <ele>183.7500000</ele>
        <time>2010-08-20T09:32:55Z</time>
      </trkpt>
      <trkpt lat="51.1709150" lon="7.1263010">
        <ele>182.7900000</ele>
        <time>2010-08-20T09:32:56Z</time>
      </trkpt>
      <trkpt lat="51.1709850" lon="7.1261550">
        <ele>182.7900000</ele>
        <time>2010-08-20T09:32:57Z</time>
      </trkpt>
      <trkpt lat="51.1710440" lon="7.1260160">
        <ele>182.3100000</ele>
        <time>2010-08-20T09:32:58Z</time>
      </trkpt>
      <trkpt lat="51.1710950" lon="7.1258990">
        <ele>181.3500000</ele>
        <time>2010-08-20T09:32:59Z</time>
      </trkpt>
      <trkpt lat="51.1711990" lon="7.1257270">
        <ele>178.9400000</ele>
        <time>2010-08-20T09:33:01Z</time>
      </trkpt>
      <trkpt lat="51.1712650" lon="7.1257290">
        <ele>177.5000000</ele>
        <time>2010-08-20T09:33:02Z</time>
      </trkpt>
      <trkpt lat="51.1713240" lon="7.1258120">
        <ele>177.0200000</ele>
        <time>2010-08-20T09:33:03Z</time>
      </trkpt>
      <trkpt lat="51.1713520" lon="7.1258950">
        <ele>177.5000000</ele>
        <time>2010-08-20T09:33:04Z</time>
      </trkpt>
      <trkpt lat="51.1713340" lon="7.1259930">
        <ele>176.5400000</ele>
        <time>2010-08-20T09:33:05Z</time>
      </trkpt>
      <trkpt lat="51.1712980" lon="7.1260890">
        <ele>175.5800000</ele>
        <time>2010-08-20T09:33:06Z</time>
      </trkpt>
      <trkpt lat="51.1712450" lon="7.1262100">
        <ele>174.1400000</ele>
        <time>2010-08-20T09:33:07Z</time>
      </trkpt>
      <trkpt lat="51.1703520" lon="7.1274100">
        <ele>169.8100000</ele>
        <time>2010-08-20T09:33:12Z</time>
      </trkpt>
      <trkpt lat="51.1690630" lon="7.1286270">
        <ele>162.1200000</ele>
        <time>2010-08-20T09:33:19Z</time>
      </trkpt>
      <trkpt lat="51.1685620" lon="7.1287070">
        <ele>157.7900000</ele>
        <time>2010-08-20T09:33:23Z</time>
      </trkpt>
      <trkpt lat="51.1684920" lon="7.1285490">
        <ele>157.3100000</ele>
        <time>2010-08-20T09:33:24Z</time>
      </trkpt>
      <trkpt lat="51.1684720" lon="7.1283500">
        <ele>156.8300000</ele>
        <time>2010-08-20T09:33:25Z</time>
      </trkpt>
      <trkpt lat="51.1684470" lon="7.1281200">
        <ele>155.3900000</ele>
        <time>2010-08-20T09:33:26Z</time>
      </trkpt>
      <trkpt lat="51.1684330" lon="7.1278600">
        <ele>153.9500000</ele>
        <time>2010-08-20T09:33:27Z</time>
      </trkpt>
      <trkpt lat="51.1684130" lon="7.1275900">
        <ele>152.9900000</ele>
        <time>2010-08-20T09:33:28Z</time>
      </trkpt>
      <trkpt lat="51.1683610" lon="7.1265200">
        <ele>149.6200000</ele>
        <time>2010-08-20T09:33:33Z</time>
      </trkpt>
      <trkpt lat="51.1683110" lon="7.1264410">
        <ele>149.6200000</ele>
        <time>2010-08-20T09:33:34Z</time>
      </trkpt>
      <trkpt lat="51.1682220" lon="7.1263930">
        <ele>149.1400000</ele>
        <time>2010-08-20T09:33:35Z</time>
      </trkpt>
      <trkpt lat="51.1681460" lon="7.1264340">
        <ele>148.1800000</ele>
        <time>2010-08-20T09:33:36Z</time>
      </trkpt>
      <trkpt lat="51.1680550" lon="7.1267010">
        <ele>147.2200000</ele>
        <time>2010-08-20T09:33:38Z</time>
      </trkpt>
      <trkpt lat="51.1679960" lon="7.1269780">
        <ele>148.1800000</ele>
        <time>2010-08-20T09:33:39Z</time>
      </trkpt>
      <trkpt lat="51.1679520" lon="7.1272410">
        <ele>149.6200000</ele>
        <time>2010-08-20T09:33:40Z</time>
      </trkpt>
      <trkpt lat="51.1678910" lon="7.1275150">
        <ele>149.1400000</ele>
        <time>2010-08-20T09:33:41Z</time>
      </trkpt>
      <trkpt lat="51.1675170" lon="7.1290940">
        <ele>143.8500000</ele>
        <time>2010-08-20T09:33:47Z</time>
      </trkpt>
      <trkpt lat="51.1673810" lon="7.1293060">
        <ele>142.4100000</ele>
        <time>2010-08-20T09:33:48Z</time>
      </trkpt>
      <trkpt lat="51.1672430" lon="7.1295040">
        <ele>141.9300000</ele>
        <time>2010-08-20T09:33:49Z</time>
      </trkpt>
      <trkpt lat="51.1668510" lon="7.1303930">
        <ele>136.6400000</ele>
        <time>2010-08-20T09:33:53Z</time>
      </trkpt>
      <trkpt lat="51.1668320" lon="7.1306650">
        <ele>133.7600000</ele>
        <time>2010-08-20T09:33:54Z</time>
      </trkpt>
      <trkpt lat="51.1668330" lon="7.1309450">
        <ele>131.3600000</ele>
        <time>2010-08-20T09:33:55Z</time>
      </trkpt>
      <trkpt lat="51.1668240" lon="7.1312680">
        <ele>130.4000000</ele>
        <time>2010-08-20T09:33:56Z</time>
      </trkpt>
      <trkpt lat="51.1667760" lon="7.1315480">
        <ele>129.4300000</ele>
        <time>2010-08-20T09:33:57Z</time>
      </trkpt>
      <trkpt lat="51.1666990" lon="7.1318030">
        <ele>127.9900000</ele>
        <time>2010-08-20T09:33:58Z</time>
      </trkpt>
      <trkpt lat="51.1665890" lon="7.1320370">
        <ele>127.5100000</ele>
        <time>2010-08-20T09:33:59Z</time>
      </trkpt>
      <trkpt lat="51.1664470" lon="7.1322650">
        <ele>126.5500000</ele>
        <time>2010-08-20T09:34:00Z</time>
      </trkpt>
      <trkpt lat="51.1662870" lon="7.1324990">
        <ele>124.6300000</ele>
        <time>2010-08-20T09:34:01Z</time>
      </trkpt>
      <trkpt lat="51.1661610" lon="7.1327380">
        <ele>123.1900000</ele>
        <time>2010-08-20T09:34:02Z</time>
      </trkpt>
      <trkpt lat="51.1660400" lon="7.1329950">
        <ele>121.7400000</ele>
        <time>2010-08-20T09:34:03Z</time>
      </trkpt>
      <trkpt lat="51.1659360" lon="7.1332670">
        <ele>119.8200000</ele>
        <time>2010-08-20T09:34:04Z</time>
      </trkpt>
      <trkpt lat="51.1658530" lon="7.1335440">
        <ele>118.3800000</ele>
        <time>2010-08-20T09:34:05Z</time>
      </trkpt>
      <trkpt lat="51.1657930" lon="7.1338170">
        <ele>116.4600000</ele>
        <time>2010-08-20T09:34:06Z</time>
      </trkpt>
      <trkpt lat="51.1657440" lon="7.1340690">
        <ele>115.0100000</ele>
        <time>2010-08-20T09:34:07Z</time>
      </trkpt>
      <trkpt lat="51.1656740" lon="7.1349170">
        <ele>110.2100000</ele>
        <time>2010-08-20T09:34:11Z</time>
      </trkpt>
      <trkpt lat="51.1656890" lon="7.1351170">
        <ele>108.7700000</ele>
        <time>2010-08-20T09:34:12Z</time>
      </trkpt>
      <trkpt lat="51.1657210" lon="7.1353290">
        <ele>108.2900000</ele>
        <time>2010-08-20T09:34:13Z</time>
      </trkpt>
      <trkpt lat="51.1662040" lon="7.1367980">
        <ele>107.8100000</ele>
        <time>2010-08-20T09:34:20Z</time>
      </trkpt>
      <trkpt lat="51.1665010" lon="7.1372920">
        <ele>107.3200000</ele>
        <time>2010-08-20T09:34:23Z</time>
      </trkpt>
      <trkpt lat="51.1666160" lon="7.1374310">
        <ele>107.3200000</ele>
        <time>2010-08-20T09:34:24Z</time>
      </trkpt>
      <trkpt lat="51.1667360" lon="7.1375510">
        <ele>106.8400000</ele>
        <time>2010-08-20T09:34:25Z</time>
      </trkpt>
      <trkpt lat="51.1668570" lon="7.1376450">
        <ele>106.8400000</ele>
        <time>2010-08-20T09:34:26Z</time>
      </trkpt>
      <trkpt lat="51.1669850" lon="7.1377150">
        <ele>105.8800000</ele>
        <time>2010-08-20T09:34:27Z</time>
      </trkpt>
      <trkpt lat="51.1671390" lon="7.1377740">
        <ele>105.4000000</ele>
        <time>2010-08-20T09:34:28Z</time>
      </trkpt>
      <trkpt lat="51.1673410" lon="7.1378050">
        <ele>105.4000000</ele>
        <time>2010-08-20T09:34:29Z</time>
      </trkpt>
      <trkpt lat="51.1684760" lon="7.1382370">
        <ele>106.8400000</ele>
        <time>2010-08-20T09:34:34Z</time>
      </trkpt>
      <trkpt lat="51.1697530" lon="7.1397100">
        <ele>111.1700000</ele>
        <time>2010-08-20T09:34:40Z</time>
      </trkpt>
      <trkpt lat="51.1699590" lon="7.1401170">
        <ele>111.6500000</ele>
        <time>2010-08-20T09:34:41Z</time>
      </trkpt>
      <trkpt lat="51.1708150" lon="7.1419750">
        <ele>122.2200000</ele>
        <time>2010-08-20T09:34:47Z</time>
      </trkpt>
      <trkpt lat="51.1714020" lon="7.1431870">
        <ele>130.4000000</ele>
        <time>2010-08-20T09:34:53Z</time>
      </trkpt>
      <trkpt lat="51.1715330" lon="7.1435640">
        <ele>131.8400000</ele>
        <time>2010-08-20T09:34:55Z</time>
      </trkpt>
      <trkpt lat="51.1715790" lon="7.1437870">
        <ele>132.8000000</ele>
        <time>2010-08-20T09:34:56Z</time>
      </trkpt>
      <trkpt lat="51.1715860" lon="7.1440600">
        <ele>133.7600000</ele>
        <time>2010-08-20T09:34:57Z</time>
      </trkpt>
      <trkpt lat="51.1715860" lon="7.1443570">
        <ele>134.7200000</ele>
        <time>2010-08-20T09:34:58Z</time>
      </trkpt>
      <trkpt lat="51.1715950" lon="7.1446620">
        <ele>135.2000000</ele>
        <time>2010-08-20T09:34:59Z</time>
      </trkpt>
      <trkpt lat="51.1714810" lon="7.1456900">
        <ele>139.5300000</ele>
        <time>2010-08-20T09:35:03Z</time>
      </trkpt>
      <trkpt lat="51.1712920" lon="7.1463180">
        <ele>145.3000000</ele>
        <time>2010-08-20T09:35:06Z</time>
      </trkpt>
      <trkpt lat="51.1712170" lon="7.1464910">
        <ele>147.7000000</ele>
        <time>2010-08-20T09:35:07Z</time>
      </trkpt>
      <trkpt lat="51.1711110" lon="7.1466520">
        <ele>149.6200000</ele>
        <time>2010-08-20T09:35:08Z</time>
      </trkpt>
      <trkpt lat="51.1707160" lon="7.1479420">
        <ele>156.3500000</ele>
        <time>2010-08-20T09:35:14Z</time>
      </trkpt>
      <trkpt lat="51.1707900" lon="7.1482240">
        <ele>157.3100000</ele>
        <time>2010-08-20T09:35:15Z</time>
      </trkpt>
      <trkpt lat="51.1708100" lon="7.1485360">
        <ele>157.7900000</ele>
        <time>2010-08-20T09:35:16Z</time>
      </trkpt>
      <trkpt lat="51.1708350" lon="7.1488950">
        <ele>158.7500000</ele>
        <time>2010-08-20T09:35:17Z</time>
      </trkpt>
      <trkpt lat="51.1709220" lon="7.1492710">
        <ele>159.7200000</ele>
        <time>2010-08-20T09:35:18Z</time>
      </trkpt>
      <trkpt lat="51.1709860" lon="7.1496370">
        <ele>161.1600000</ele>
        <time>2010-08-20T09:35:19Z</time>
      </trkpt>
      <trkpt lat="51.1710380" lon="7.1499540">
        <ele>160.6800000</ele>
        <time>2010-08-20T09:35:20Z</time>
      </trkpt>
      <trkpt lat="51.1712950" lon="7.1514210">
        <ele>166.4500000</ele>
        <time>2010-08-20T09:35:26Z</time>
      </trkpt>
      <trkpt lat="51.1714700" lon="7.1518270">
        <ele>168.8500000</ele>
        <time>2010-08-20T09:35:28Z</time>
      </trkpt>
      <trkpt lat="51.1715700" lon="7.1519830">
        <ele>169.8100000</ele>
        <time>2010-08-20T09:35:29Z</time>
      </trkpt>
      <trkpt lat="51.1716550" lon="7.1521540">
        <ele>170.7700000</ele>
        <time>2010-08-20T09:35:30Z</time>
      </trkpt>
      <trkpt lat="51.1717210" lon="7.1523330">
        <ele>171.2500000</ele>
        <time>2010-08-20T09:35:31Z</time>
      </trkpt>
      <trkpt lat="51.1717720" lon="7.1525230">
        <ele>171.7300000</ele>
        <time>2010-08-20T09:35:32Z</time>
      </trkpt>
      <trkpt lat="51.1717940" lon="7.1527220">
        <ele>172.6900000</ele>
        <time>2010-08-20T09:35:33Z</time>
      </trkpt>
      <trkpt lat="51.1718030" lon="7.1529190">
        <ele>173.6600000</ele>
        <time>2010-08-20T09:35:34Z</time>
      </trkpt>
      <trkpt lat="51.1717810" lon="7.1531080">
        <ele>175.1000000</ele>
        <time>2010-08-20T09:35:35Z</time>
      </trkpt>
      <trkpt lat="51.1717600" lon="7.1532930">
        <ele>175.5800000</ele>
        <time>2010-08-20T09:35:36Z</time>
      </trkpt>
      <trkpt lat="51.1717330" lon="7.1534790">
        <ele>177.0200000</ele>
        <time>2010-08-20T09:35:37Z</time>
      </trkpt>
      <trkpt lat="51.1716520" lon="7.1539690">
        <ele>180.8700000</ele>
        <time>2010-08-20T09:35:40Z</time>
      </trkpt>
      <trkpt lat="51.1716160" lon="7.1541170">
        <ele>182.3100000</ele>
        <time>2010-08-20T09:35:41Z</time>
      </trkpt>
      <trkpt lat="51.1714490" lon="7.1545650">
        <ele>186.1500000</ele>
        <time>2010-08-20T09:35:44Z</time>
      </trkpt>
      <trkpt lat="51.1713590" lon="7.1546760">
        <ele>187.1100000</ele>
        <time>2010-08-20T09:35:45Z</time>
      </trkpt>
      <trkpt lat="51.1712230" lon="7.1547420">
        <ele>188.0800000</ele>
        <time>2010-08-20T09:35:46Z</time>
      </trkpt>
      <trkpt lat="51.1710670" lon="7.1547600">
        <ele>190.9600000</ele>
        <time>2010-08-20T09:35:47Z</time>
      </trkpt>
      <trkpt lat="51.1709430" lon="7.1547520">
        <ele>193.3600000</ele>
        <time>2010-08-20T09:35:48Z</time>
      </trkpt>
      <trkpt lat="51.1708190" lon="7.1547210">
        <ele>194.3200000</ele>
        <time>2010-08-20T09:35:49Z</time>
      </trkpt>
      <trkpt lat="51.1707140" lon="7.1547260">
        <ele>196.2500000</ele>
        <time>2010-08-20T09:35:50Z</time>
      </trkpt>
      <trkpt lat="51.1703620" lon="7.1547330">
        <ele>200.0900000</ele>
        <time>2010-08-20T09:35:53Z</time>
      </trkpt>
      <trkpt lat="51.1702530" lon="7.1547660">
        <ele>201.0500000</ele>
        <time>2010-08-20T09:35:54Z</time>
      </trkpt>
      <trkpt lat="51.1696430" lon="7.1550280">
        <ele>213.5500000</ele>
        <time>2010-08-20T09:36:01Z</time>
      </trkpt>
      <trkpt lat="51.1695900" lon="7.1551160">
        <ele>216.9100000</ele>
        <time>2010-08-20T09:36:02Z</time>
      </trkpt>
      <trkpt lat="51.1695800" lon="7.1552010">
        <ele>218.8400000</ele>
        <time>2010-08-20T09:36:03Z</time>
      </trkpt>
      <trkpt lat="51.1696120" lon="7.1552450">
        <ele>216.4300000</ele>
        <time>2010-08-20T09:36:04Z</time>
      </trkpt>
      <trkpt lat="51.1696580" lon="7.1553090">
        <ele>214.0300000</ele>
        <time>2010-08-20T09:36:05Z</time>
      </trkpt>
      <trkpt lat="51.1696980" lon="7.1553620">
        <ele>214.9900000</ele>
        <time>2010-08-20T09:36:06Z</time>
      </trkpt>
      <trkpt lat="51.1697500" lon="7.1553670">
        <ele>214.0300000</ele>
        <time>2010-08-20T09:36:07Z</time>
      </trkpt>
      <trkpt lat="51.1698180" lon="7.1553720">
        <ele>213.0700000</ele>
        <time>2010-08-20T09:36:08Z</time>
      </trkpt>
      <trkpt lat="51.1699010" lon="7.1553970">
        <ele>212.5900000</ele>
        <time>2010-08-20T09:36:09Z</time>
      </trkpt>
      <trkpt lat="51.1706610" lon="7.1555470">
        <ele>207.7800000</ele>
        <time>2010-08-20T09:36:17Z</time>
      </trkpt>
      <trkpt lat="51.1712490" lon="7.1558700">
        <ele>209.2200000</ele>
        <time>2010-08-20T09:36:22Z</time>
      </trkpt>
      <trkpt lat="51.1713680" lon="7.1559750">
        <ele>209.2200000</ele>
        <time>2010-08-20T09:36:23Z</time>
      </trkpt>
      <trkpt lat="51.1714780" lon="7.1560950">
        <ele>210.1900000</ele>
        <time>2010-08-20T09:36:24Z</time>
      </trkpt>
      <trkpt lat="51.1717370" lon="7.1563580">
        <ele>211.6300000</ele>
        <time>2010-08-20T09:36:27Z</time>
      </trkpt>
      <trkpt lat="51.1718090" lon="7.1563630">
        <ele>212.5900000</ele>
        <time>2010-08-20T09:36:28Z</time>
      </trkpt>
      <trkpt lat="51.1718840" lon="7.1563230">
        <ele>213.0700000</ele>
        <time>2010-08-20T09:36:29Z</time>
      </trkpt>
      <trkpt lat="51.1719650" lon="7.1562490">
        <ele>214.0300000</ele>
        <time>2010-08-20T09:36:30Z</time>
      </trkpt>
      <trkpt lat="51.1720440" lon="7.1561610">
        <ele>214.9900000</ele>
        <time>2010-08-20T09:36:31Z</time>
      </trkpt>
      <trkpt lat="51.1721130" lon="7.1560460">
        <ele>215.9500000</ele>
        <time>2010-08-20T09:36:32Z</time>
      </trkpt>
      <trkpt lat="51.1721860" lon="7.1559270">
        <ele>216.4300000</ele>
        <time>2010-08-20T09:36:33Z</time>
      </trkpt>
      <trkpt lat="51.1722540" lon="7.1558030">
        <ele>216.9100000</ele>
        <time>2010-08-20T09:36:34Z</time>
      </trkpt>
      <trkpt lat="51.1726550" lon="7.1551590">
        <ele>221.2400000</ele>
        <time>2010-08-20T09:36:39Z</time>
      </trkpt>
      <trkpt lat="51.1727500" lon="7.1551150">
        <ele>222.2000000</ele>
        <time>2010-08-20T09:36:40Z</time>
      </trkpt>
      <trkpt lat="51.1728400" lon="7.1551490">
        <ele>223.1600000</ele>
        <time>2010-08-20T09:36:41Z</time>
      </trkpt>
      <trkpt lat="51.1729200" lon="7.1551820">
        <ele>224.1200000</ele>
        <time>2010-08-20T09:36:42Z</time>
      </trkpt>
      <trkpt lat="51.1729890" lon="7.1552470">
        <ele>224.1200000</ele>
        <time>2010-08-20T09:36:43Z</time>
      </trkpt>
      <trkpt lat="51.1730680" lon="7.1553570">
        <ele>224.1200000</ele>
        <time>2010-08-20T09:36:44Z</time>
      </trkpt>
      <trkpt lat="51.1731250" lon="7.1554940">
        <ele>224.6100000</ele>
        <time>2010-08-20T09:36:45Z</time>
      </trkpt>
      <trkpt lat="51.1731750" lon="7.1556260">
        <ele>225.0900000</ele>
        <time>2010-08-20T09:36:46Z</time>
      </trkpt>
      <trkpt lat="51.1732200" lon="7.1557530">
        <ele>225.5700000</ele>
        <time>2010-08-20T09:36:47Z</time>
      </trkpt>
      <trkpt lat="51.1733090" lon="7.1559910">
        <ele>226.5300000</ele>
        <time>2010-08-20T09:36:49Z</time>
      </trkpt>
      <trkpt lat="51.1735020" lon="7.1564700">
        <ele>228.9300000</ele>
        <time>2010-08-20T09:36:53Z</time>
      </trkpt>
      <trkpt lat="51.1735360" lon="7.1566050">
        <ele>229.4100000</ele>
        <time>2010-08-20T09:36:54Z</time>
      </trkpt>
      <trkpt lat="51.1736140" lon="7.1568690">
        <ele>230.3700000</ele>
        <time>2010-08-20T09:36:56Z</time>
      </trkpt>
      <trkpt lat="51.1736670" lon="7.1569890">
        <ele>230.8500000</ele>
        <time>2010-08-20T09:36:57Z</time>
      </trkpt>
      <trkpt lat="51.1737260" lon="7.1570940">
        <ele>231.3300000</ele>
        <time>2010-08-20T09:36:58Z</time>
      </trkpt>
      <trkpt lat="51.1743470" lon="7.1580500">
        <ele>238.0600000</ele>
        <time>2010-08-20T09:37:08Z</time>
      </trkpt>
      <trkpt lat="51.1743900" lon="7.1581710">
        <ele>238.5400000</ele>
        <time>2010-08-20T09:37:09Z</time>
      </trkpt>
      <trkpt lat="51.1744230" lon="7.1583050">
        <ele>239.0200000</ele>
        <time>2010-08-20T09:37:10Z</time>
      </trkpt>
      <trkpt lat="51.1744450" lon="7.1584480">
        <ele>239.9900000</ele>
        <time>2010-08-20T09:37:11Z</time>
      </trkpt>
      <trkpt lat="51.1744580" lon="7.1585970">
        <ele>240.4700000</ele>
        <time>2010-08-20T09:37:12Z</time>
      </trkpt>
      <trkpt lat="51.1744680" lon="7.1587500">
        <ele>241.4300000</ele>
        <time>2010-08-20T09:37:13Z</time>
      </trkpt>
      <trkpt lat="51.1746000" lon="7.1608340">
        <ele>252.0000000</ele>
        <time>2010-08-20T09:37:26Z</time>
      </trkpt>
      <trkpt lat="51.1746950" lon="7.1621840">
        <ele>258.7300000</ele>
        <time>2010-08-20T09:37:33Z</time>
      </trkpt>
      <trkpt lat="51.1747350" lon="7.1623680">
        <ele>259.2100000</ele>
        <time>2010-08-20T09:37:34Z</time>
      </trkpt>
      <trkpt lat="51.1747890" lon="7.1625460">
        <ele>260.1700000</ele>
        <time>2010-08-20T09:37:35Z</time>
      </trkpt>
      <trkpt lat="51.1748500" lon="7.1627180">
        <ele>261.1400000</ele>
        <time>2010-08-20T09:37:36Z</time>
      </trkpt>
      <trkpt lat="51.1749170" lon="7.1628880">
        <ele>261.6200000</ele>
        <time>2010-08-20T09:37:37Z</time>
      </trkpt>
      <trkpt lat="51.1752940" lon="7.1636040">
        <ele>264.9800000</ele>
        <time>2010-08-20T09:37:42Z</time>
      </trkpt>
      <trkpt lat="51.1753880" lon="7.1636980">
        <ele>265.4600000</ele>
        <time>2010-08-20T09:37:43Z</time>
      </trkpt>
      <trkpt lat="51.1754850" lon="7.1637700">
        <ele>265.4600000</ele>
        <time>2010-08-20T09:37:44Z</time>
      </trkpt>
      <trkpt lat="51.1755850" lon="7.1638250">
        <ele>265.4600000</ele>
        <time>2010-08-20T09:37:45Z</time>
      </trkpt>
      <trkpt lat="51.1756880" lon="7.1638680">
        <ele>265.9400000</ele>
        <time>2010-08-20T09:37:46Z</time>
      </trkpt>
      <trkpt lat="51.1757990" lon="7.1638890">
        <ele>266.4200000</ele>
        <time>2010-08-20T09:37:47Z</time>
      </trkpt>
      <trkpt lat="51.1761650" lon="7.1641060">
        <ele>269.3100000</ele>
        <time>2010-08-20T09:37:51Z</time>
      </trkpt>
      <trkpt lat="51.1762550" lon="7.1642040">
        <ele>270.2700000</ele>
        <time>2010-08-20T09:37:52Z</time>
      </trkpt>
      <trkpt lat="51.1763510" lon="7.1643130">
        <ele>270.2700000</ele>
        <time>2010-08-20T09:37:53Z</time>
      </trkpt>
      <trkpt lat="51.1773940" lon="7.1656310">
        <ele>277.9600000</ele>
        <time>2010-08-20T09:38:04Z</time>
      </trkpt>
      <trkpt lat="51.1781460" lon="7.1667050">
        <ele>283.2500000</ele>
        <time>2010-08-20T09:38:13Z</time>
      </trkpt>
      <trkpt lat="51.1789400" lon="7.1682250">
        <ele>288.5300000</ele>
        <time>2010-08-20T09:38:26Z</time>
      </trkpt>
      <trkpt lat="51.1794930" lon="7.1692020">
        <ele>291.4200000</ele>
        <time>2010-08-20T09:38:36Z</time>
      </trkpt>
      <trkpt lat="51.1795150" lon="7.1692540">
        <ele>291.9000000</ele>
        <time>2010-08-20T09:38:37Z</time>
      </trkpt>
      <trkpt lat="51.1795350" lon="7.1692990">
        <ele>291.9000000</ele>
        <time>2010-08-20T09:38:38Z</time>
      </trkpt>
      <trkpt lat="51.1795540" lon="7.1693330">
        <ele>291.9000000</ele>
        <time>2010-08-20T09:38:39Z</time>
      </trkpt>
      <trkpt lat="51.1795700" lon="7.1693560">
        <ele>292.3800000</ele>
        <time>2010-08-20T09:38:40Z</time>
      </trkpt>
      <trkpt lat="51.1795940" lon="7.1694210">
        <ele>291.4200000</ele>
        <time>2010-08-20T09:38:53Z</time>
      </trkpt>
      <trkpt lat="51.1796440" lon="7.1695470">
        <ele>291.9000000</ele>
        <time>2010-08-20T09:38:55Z</time>
      </trkpt>
      <trkpt lat="51.1798250" lon="7.1699980">
        <ele>293.8200000</ele>
        <time>2010-08-20T09:39:01Z</time>
      </trkpt>
      <trkpt lat="51.1798570" lon="7.1700740">
        <ele>293.8200000</ele>
        <time>2010-08-20T09:39:02Z</time>
      </trkpt>
      <trkpt lat="51.1802970" lon="7.1708450">
        <ele>297.1800000</ele>
        <time>2010-08-20T09:39:10Z</time>
      </trkpt>
      <trkpt lat="51.1805130" lon="7.1711980">
        <ele>300.0700000</ele>
        <time>2010-08-20T09:39:14Z</time>
      </trkpt>
      <trkpt lat="51.1805510" lon="7.1712970">
        <ele>300.5500000</ele>
        <time>2010-08-20T09:39:15Z</time>
      </trkpt>
      <trkpt lat="51.1806070" lon="7.1714650">
        <ele>301.5100000</ele>
        <time>2010-08-20T09:39:17Z</time>
      </trkpt>
      <trkpt lat="51.1806280" lon="7.1715490">
        <ele>301.9900000</ele>
        <time>2010-08-20T09:39:18Z</time>
      </trkpt>
      <trkpt lat="51.1806440" lon="7.1716310">
        <ele>301.9900000</ele>
        <time>2010-08-20T09:39:19Z</time>
      </trkpt>
      <trkpt lat="51.1806770" lon="7.1718790">
        <ele>303.4300000</ele>
        <time>2010-08-20T09:39:27Z</time>
      </trkpt>
      <trkpt lat="51.1807110" lon="7.1722430">
        <ele>306.3200000</ele>
        <time>2010-08-20T09:39:55Z</time>
      </trkpt>
      <trkpt lat="51.1808830" lon="7.1733450">
        <ele>310.1600000</ele>
        <time>2010-08-20T09:40:02Z</time>
      </trkpt>
      <trkpt lat="51.1812570" lon="7.1745540">
        <ele>312.5700000</ele>
        <time>2010-08-20T09:40:08Z</time>
      </trkpt>
      <trkpt lat="51.1816140" lon="7.1757720">
        <ele>315.9300000</ele>
        <time>2010-08-20T09:40:14Z</time>
      </trkpt>
      <trkpt lat="51.1816070" lon="7.1760170">
        <ele>316.4100000</ele>
        <time>2010-08-20T09:40:15Z</time>
      </trkpt>
      <trkpt lat="51.1816370" lon="7.1762750">
        <ele>317.8500000</ele>
        <time>2010-08-20T09:40:16Z</time>
      </trkpt>
      <trkpt lat="51.1816330" lon="7.1765700">
        <ele>318.8100000</ele>
        <time>2010-08-20T09:40:17Z</time>
      </trkpt>
      <trkpt lat="51.1815960" lon="7.1768360">
        <ele>319.7800000</ele>
        <time>2010-08-20T09:40:18Z</time>
      </trkpt>
      <trkpt lat="51.1815650" lon="7.1770810">
        <ele>320.7400000</ele>
        <time>2010-08-20T09:40:19Z</time>
      </trkpt>
      <trkpt lat="51.1814380" lon="7.1778570">
        <ele>323.1400000</ele>
        <time>2010-08-20T09:40:23Z</time>
      </trkpt>
      <trkpt lat="51.1813620" lon="7.1779810">
        <ele>324.1000000</ele>
        <time>2010-08-20T09:40:24Z</time>
      </trkpt>
      <trkpt lat="51.1812560" lon="7.1780920">
        <ele>324.5800000</ele>
        <time>2010-08-20T09:40:25Z</time>
      </trkpt>
      <trkpt lat="51.1811220" lon="7.1781760">
        <ele>326.0200000</ele>
        <time>2010-08-20T09:40:26Z</time>
      </trkpt>
      <trkpt lat="51.1809980" lon="7.1783220">
        <ele>327.4700000</ele>
        <time>2010-08-20T09:40:27Z</time>
      </trkpt>
      <trkpt lat="51.1795890" lon="7.1795580">
        <ele>333.7100000</ele>
        <time>2010-08-20T09:40:40Z</time>
      </trkpt>
      <trkpt lat="51.1788000" lon="7.1806180">
        <ele>331.3100000</ele>
        <time>2010-08-20T09:40:49Z</time>
      </trkpt>
      <trkpt lat="51.1776000" lon="7.1823880">
        <ele>336.6000000</ele>
        <time>2010-08-20T09:41:01Z</time>
      </trkpt>
      <trkpt lat="51.1774460" lon="7.1826610">
        <ele>335.6400000</ele>
        <time>2010-08-20T09:41:03Z</time>
      </trkpt>
      <trkpt lat="51.1773870" lon="7.1828200">
        <ele>334.6800000</ele>
        <time>2010-08-20T09:41:04Z</time>
      </trkpt>
      <trkpt lat="51.1773370" lon="7.1830020">
        <ele>333.7100000</ele>
        <time>2010-08-20T09:41:05Z</time>
      </trkpt>
      <trkpt lat="51.1772950" lon="7.1833550">
        <ele>330.3500000</ele>
        <time>2010-08-20T09:41:07Z</time>
      </trkpt>
      <trkpt lat="51.1772980" lon="7.1835550">
        <ele>328.9100000</ele>
        <time>2010-08-20T09:41:08Z</time>
      </trkpt>
      <trkpt lat="51.1773010" lon="7.1842700">
        <ele>324.5800000</ele>
        <time>2010-08-20T09:41:12Z</time>
      </trkpt>
      <trkpt lat="51.1773500" lon="7.1846630">
        <ele>321.7000000</ele>
        <time>2010-08-20T09:41:16Z</time>
      </trkpt>
      <trkpt lat="51.1774130" lon="7.1848600">
        <ele>321.7000000</ele>
        <time>2010-08-20T09:41:24Z</time>
      </trkpt>
      <trkpt lat="51.1774630" lon="7.1853230">
        <ele>322.1800000</ele>
        <time>2010-08-20T09:41:30Z</time>
      </trkpt>
      <trkpt lat="51.1774480" lon="7.1865240">
        <ele>320.2600000</ele>
        <time>2010-08-20T09:41:40Z</time>
      </trkpt>
      <trkpt lat="51.1772820" lon="7.1875070">
        <ele>317.3700000</ele>
        <time>2010-08-20T09:41:46Z</time>
      </trkpt>
      <trkpt lat="51.1772740" lon="7.1879490">
        <ele>317.3700000</ele>
        <time>2010-08-20T09:41:48Z</time>
      </trkpt>
      <trkpt lat="51.1772820" lon="7.1881350">
        <ele>317.3700000</ele>
        <time>2010-08-20T09:41:49Z</time>
      </trkpt>
      <trkpt lat="51.1773010" lon="7.1882980">
        <ele>317.3700000</ele>
        <time>2010-08-20T09:41:50Z</time>
      </trkpt>
      <trkpt lat="51.1774650" lon="7.1896390">
        <ele>318.3300000</ele>
        <time>2010-08-20T09:42:00Z</time>
      </trkpt>
      <trkpt lat="51.1775810" lon="7.1908700">
        <ele>318.3300000</ele>
        <time>2010-08-20T09:42:10Z</time>
      </trkpt>
      <trkpt lat="51.1775530" lon="7.1914650">
        <ele>316.8900000</ele>
        <time>2010-08-20T09:42:22Z</time>
      </trkpt>
      <trkpt lat="51.1773320" lon="7.1925530">
        <ele>315.4500000</ele>
        <time>2010-08-20T09:42:30Z</time>
      </trkpt>
      <trkpt lat="51.1771030" lon="7.1946170">
        <ele>316.4100000</ele>
        <time>2010-08-20T09:42:42Z</time>
      </trkpt>
      <trkpt lat="51.1773530" lon="7.1962750">
        <ele>313.5300000</ele>
        <time>2010-08-20T09:42:51Z</time>
      </trkpt>
      <trkpt lat="51.1777710" lon="7.1978700">
        <ele>311.6000000</ele>
        <time>2010-08-20T09:43:01Z</time>
      </trkpt>
      <trkpt lat="51.1778650" lon="7.1986620">
        <ele>311.1200000</ele>
        <time>2010-08-20T09:43:09Z</time>
      </trkpt>
      <trkpt lat="51.1779050" lon="7.1986930">
        <ele>314.9700000</ele>
        <time>2010-08-20T09:43:20Z</time>
      </trkpt>
      <trkpt lat="51.1778970" lon="7.1987300">
        <ele>318.8100000</ele>
        <time>2010-08-20T09:43:44Z</time>
      </trkpt>
      <trkpt lat="51.1779140" lon="7.1987450">
        <ele>319.3000000</ele>
        <time>2010-08-20T09:43:45Z</time>
      </trkpt>
      <trkpt lat="51.1779280" lon="7.1987750">
        <ele>318.8100000</ele>
        <time>2010-08-20T09:43:46Z</time>
      </trkpt>
      <trkpt lat="51.1779400" lon="7.1988120">
        <ele>318.3300000</ele>
        <time>2010-08-20T09:43:47Z</time>
      </trkpt>
      <trkpt lat="51.1779500" lon="7.1988430">
        <ele>317.8500000</ele>
        <time>2010-08-20T09:43:48Z</time>
      </trkpt>
      <trkpt lat="51.1779560" lon="7.1988650">
        <ele>317.3700000</ele>
        <time>2010-08-20T09:43:49Z</time>
      </trkpt>
      <trkpt lat="51.1780090" lon="7.1990590">
        <ele>314.9700000</ele>
        <time>2010-08-20T09:43:58Z</time>
      </trkpt>
      <trkpt lat="51.1780820" lon="7.1993890">
        <ele>314.9700000</ele>
        <time>2010-08-20T09:44:01Z</time>
      </trkpt>
      <trkpt lat="51.1780870" lon="7.1995380">
        <ele>314.4900000</ele>
        <time>2010-08-20T09:44:02Z</time>
      </trkpt>
      <trkpt lat="51.1780750" lon="7.1997110">
        <ele>314.0100000</ele>
        <time>2010-08-20T09:44:03Z</time>
      </trkpt>
      <trkpt lat="51.1778420" lon="7.2013650">
        <ele>309.6800000</ele>
        <time>2010-08-20T09:44:10Z</time>
      </trkpt>
      <trkpt lat="51.1778200" lon="7.2016830">
        <ele>308.7200000</ele>
        <time>2010-08-20T09:44:11Z</time>
      </trkpt>
      <trkpt lat="51.1778140" lon="7.2019890">
        <ele>308.2400000</ele>
        <time>2010-08-20T09:44:12Z</time>
      </trkpt>
      <trkpt lat="51.1778250" lon="7.2022850">
        <ele>307.2800000</ele>
        <time>2010-08-20T09:44:13Z</time>
      </trkpt>
      <trkpt lat="51.1778500" lon="7.2025840">
        <ele>306.8000000</ele>
        <time>2010-08-20T09:44:14Z</time>
      </trkpt>
      <trkpt lat="51.1778830" lon="7.2028870">
        <ele>306.8000000</ele>
        <time>2010-08-20T09:44:15Z</time>
      </trkpt>
      <trkpt lat="51.1779990" lon="7.2054010">
        <ele>306.3200000</ele>
        <time>2010-08-20T09:44:24Z</time>
      </trkpt>
      <trkpt lat="51.1777370" lon="7.2081550">
        <ele>306.8000000</ele>
        <time>2010-08-20T09:44:35Z</time>
      </trkpt>
      <trkpt lat="51.1774090" lon="7.2100420">
        <ele>309.2000000</ele>
        <time>2010-08-20T09:44:43Z</time>
      </trkpt>
      <trkpt lat="51.1773430" lon="7.2125650">
        <ele>314.4900000</ele>
        <time>2010-08-20T09:44:53Z</time>
      </trkpt>
      <trkpt lat="51.1772530" lon="7.2148350">
        <ele>321.2200000</ele>
        <time>2010-08-20T09:45:02Z</time>
      </trkpt>
      <trkpt lat="51.1771920" lon="7.2169430">
        <ele>325.5400000</ele>
        <time>2010-08-20T09:45:10Z</time>
      </trkpt>
      <trkpt lat="51.1772170" lon="7.2187010">
        <ele>323.6200000</ele>
        <time>2010-08-20T09:45:19Z</time>
      </trkpt>
      <trkpt lat="51.1773900" lon="7.2196730">
        <ele>324.5800000</ele>
        <time>2010-08-20T09:45:24Z</time>
      </trkpt>
      <trkpt lat="51.1779910" lon="7.2213220">
        <ele>331.3100000</ele>
        <time>2010-08-20T09:45:33Z</time>
      </trkpt>
      <trkpt lat="51.1786800" lon="7.2230130">
        <ele>338.0400000</ele>
        <time>2010-08-20T09:45:43Z</time>
      </trkpt>
      <trkpt lat="51.1796130" lon="7.2244150">
        <ele>340.9200000</ele>
        <time>2010-08-20T09:45:54Z</time>
      </trkpt>
      <trkpt lat="51.1801130" lon="7.2253090">
        <ele>345.2500000</ele>
        <time>2010-08-20T09:46:01Z</time>
      </trkpt>
      <trkpt lat="51.1801420" lon="7.2254120">
        <ele>345.2500000</ele>
        <time>2010-08-20T09:46:02Z</time>
      </trkpt>
      <trkpt lat="51.1802360" lon="7.2261630">
        <ele>346.2100000</ele>
        <time>2010-08-20T09:46:09Z</time>
      </trkpt>
      <trkpt lat="51.1802690" lon="7.2275980">
        <ele>342.3700000</ele>
        <time>2010-08-20T09:46:20Z</time>
      </trkpt>
      <trkpt lat="51.1802650" lon="7.2289710">
        <ele>337.0800000</ele>
        <time>2010-08-20T09:46:27Z</time>
      </trkpt>
      <trkpt lat="51.1803050" lon="7.2311410">
        <ele>328.9100000</ele>
        <time>2010-08-20T09:46:37Z</time>
      </trkpt>
      <trkpt lat="51.1803800" lon="7.2333430">
        <ele>328.9100000</ele>
        <time>2010-08-20T09:46:46Z</time>
      </trkpt>
      <trkpt lat="51.1804520" lon="7.2353810">
        <ele>328.9100000</ele>
        <time>2010-08-20T09:46:56Z</time>
      </trkpt>
      <trkpt lat="51.1804940" lon="7.2373060">
        <ele>328.4300000</ele>
        <time>2010-08-20T09:47:05Z</time>
      </trkpt>
      <trkpt lat="51.1804980" lon="7.2391610">
        <ele>327.9500000</ele>
        <time>2010-08-20T09:47:12Z</time>
      </trkpt>
      <trkpt lat="51.1805220" lon="7.2412690">
        <ele>329.3900000</ele>
        <time>2010-08-20T09:47:21Z</time>
      </trkpt>
      <trkpt lat="51.1805490" lon="7.2431530">
        <ele>330.8300000</ele>
        <time>2010-08-20T09:47:30Z</time>
      </trkpt>
      <trkpt lat="51.1806010" lon="7.2449300">
        <ele>332.7500000</ele>
        <time>2010-08-20T09:47:40Z</time>
      </trkpt>
      <trkpt lat="51.1806700" lon="7.2473390">
        <ele>339.0000000</ele>
        <time>2010-08-20T09:47:49Z</time>
      </trkpt>
      <trkpt lat="51.1809840" lon="7.2492000">
        <ele>344.7700000</ele>
        <time>2010-08-20T09:47:55Z</time>
      </trkpt>
      <trkpt lat="51.1816430" lon="7.2511970">
        <ele>347.6500000</ele>
        <time>2010-08-20T09:48:04Z</time>
      </trkpt>
      <trkpt lat="51.1823880" lon="7.2529880">
        <ele>344.7700000</ele>
        <time>2010-08-20T09:48:14Z</time>
      </trkpt>
      <trkpt lat="51.1825840" lon="7.2534770">
        <ele>342.8500000</ele>
        <time>2010-08-20T09:48:19Z</time>
      </trkpt>
      <trkpt lat="51.1826060" lon="7.2535910">
        <ele>342.3700000</ele>
        <time>2010-08-20T09:48:20Z</time>
      </trkpt>
      <trkpt lat="51.1825860" lon="7.2536830">
        <ele>342.3700000</ele>
        <time>2010-08-20T09:48:21Z</time>
      </trkpt>
      <trkpt lat="51.1825450" lon="7.2537860">
        <ele>341.8900000</ele>
        <time>2010-08-20T09:48:22Z</time>
      </trkpt>
      <trkpt lat="51.1824550" lon="7.2538470">
        <ele>341.8900000</ele>
        <time>2010-08-20T09:48:23Z</time>
      </trkpt>
      <trkpt lat="51.1823380" lon="7.2539510">
        <ele>342.8500000</ele>
        <time>2010-08-20T09:48:24Z</time>
      </trkpt>
      <trkpt lat="51.1822150" lon="7.2539620">
        <ele>342.8500000</ele>
        <time>2010-08-20T09:48:25Z</time>
      </trkpt>
      <trkpt lat="51.1820860" lon="7.2539800">
        <ele>342.3700000</ele>
        <time>2010-08-20T09:48:26Z</time>
      </trkpt>
      <trkpt lat="51.1806750" lon="7.2541210">
        <ele>341.8900000</ele>
        <time>2010-08-20T09:48:37Z</time>
      </trkpt>
      <trkpt lat="51.1792980" lon="7.2543250">
        <ele>339.4800000</ele>
        <time>2010-08-20T09:48:50Z</time>
      </trkpt>
      <trkpt lat="51.1784300" lon="7.2545110">
        <ele>340.9200000</ele>
        <time>2010-08-20T09:49:00Z</time>
      </trkpt>
      <trkpt lat="51.1771630" lon="7.2547360">
        <ele>346.2100000</ele>
        <time>2010-08-20T09:49:11Z</time>
      </trkpt>
      <trkpt lat="51.1752970" lon="7.2551150">
        <ele>346.6900000</ele>
        <time>2010-08-20T09:49:27Z</time>
      </trkpt>
      <trkpt lat="51.1740600" lon="7.2556300">
        <ele>339.4800000</ele>
        <time>2010-08-20T09:49:36Z</time>
      </trkpt>
      <trkpt lat="51.1739220" lon="7.2557570">
        <ele>338.5200000</ele>
        <time>2010-08-20T09:49:37Z</time>
      </trkpt>
      <trkpt lat="51.1729080" lon="7.2570330">
        <ele>332.2700000</ele>
        <time>2010-08-20T09:49:45Z</time>
      </trkpt>
      <trkpt lat="51.1718230" lon="7.2590710">
        <ele>329.8700000</ele>
        <time>2010-08-20T09:49:56Z</time>
      </trkpt>
      <trkpt lat="51.1709270" lon="7.2610700">
        <ele>330.3500000</ele>
        <time>2010-08-20T09:50:04Z</time>
      </trkpt>
      <trkpt lat="51.1700790" lon="7.2626850">
        <ele>331.3100000</ele>
        <time>2010-08-20T09:50:11Z</time>
      </trkpt>
      <trkpt lat="51.1699320" lon="7.2628560">
        <ele>331.3100000</ele>
        <time>2010-08-20T09:50:12Z</time>
      </trkpt>
      <trkpt lat="51.1682080" lon="7.2647820">
        <ele>341.8900000</ele>
        <time>2010-08-20T09:50:23Z</time>
      </trkpt>
      <trkpt lat="51.1676470" lon="7.2654310">
        <ele>347.1700000</ele>
        <time>2010-08-20T09:50:29Z</time>
      </trkpt>
      <trkpt lat="51.1674680" lon="7.2656260">
        <ele>349.1000000</ele>
        <time>2010-08-20T09:50:36Z</time>
      </trkpt>
      <trkpt lat="51.1674580" lon="7.2656990">
        <ele>353.9000000</ele>
        <time>2010-08-20T09:51:25Z</time>
      </trkpt>
      <trkpt lat="51.1674500" lon="7.2658060">
        <ele>353.9000000</ele>
        <time>2010-08-20T09:51:26Z</time>
      </trkpt>
      <trkpt lat="51.1674750" lon="7.2659540">
        <ele>353.9000000</ele>
        <time>2010-08-20T09:51:27Z</time>
      </trkpt>
      <trkpt lat="51.1675200" lon="7.2661170">
        <ele>353.4200000</ele>
        <time>2010-08-20T09:51:28Z</time>
      </trkpt>
      <trkpt lat="51.1675650" lon="7.2663020">
        <ele>352.9400000</ele>
        <time>2010-08-20T09:51:29Z</time>
      </trkpt>
      <trkpt lat="51.1681940" lon="7.2686100">
        <ele>350.0600000</ele>
        <time>2010-08-20T09:51:40Z</time>
      </trkpt>
      <trkpt lat="51.1683140" lon="7.2692090">
        <ele>349.5800000</ele>
        <time>2010-08-20T09:51:43Z</time>
      </trkpt>
      <trkpt lat="51.1683170" lon="7.2694170">
        <ele>349.1000000</ele>
        <time>2010-08-20T09:51:44Z</time>
      </trkpt>
      <trkpt lat="51.1683060" lon="7.2696450">
        <ele>348.6200000</ele>
        <time>2010-08-20T09:51:45Z</time>
      </trkpt>
      <trkpt lat="51.1682760" lon="7.2698950">
        <ele>347.6500000</ele>
        <time>2010-08-20T09:51:46Z</time>
      </trkpt>
      <trkpt lat="51.1682320" lon="7.2701570">
        <ele>346.6900000</ele>
        <time>2010-08-20T09:51:47Z</time>
      </trkpt>
      <trkpt lat="51.1681830" lon="7.2704150">
        <ele>345.2500000</ele>
        <time>2010-08-20T09:51:48Z</time>
      </trkpt>
      <trkpt lat="51.1677850" lon="7.2726340">
        <ele>339.4800000</ele>
        <time>2010-08-20T09:51:58Z</time>
      </trkpt>
      <trkpt lat="51.1676830" lon="7.2735740">
        <ele>338.0400000</ele>
        <time>2010-08-20T09:52:03Z</time>
      </trkpt>
      <trkpt lat="51.1676960" lon="7.2737840">
        <ele>337.5600000</ele>
        <time>2010-08-20T09:52:04Z</time>
      </trkpt>
      <trkpt lat="51.1677310" lon="7.2739950">
        <ele>337.5600000</ele>
        <time>2010-08-20T09:52:05Z</time>
      </trkpt>
      <trkpt lat="51.1682740" lon="7.2771010">
        <ele>337.5600000</ele>
        <time>2010-08-20T09:52:20Z</time>
      </trkpt>
      <trkpt lat="51.1683950" lon="7.2777790">
        <ele>337.5600000</ele>
        <time>2010-08-20T09:52:24Z</time>
      </trkpt>
      <trkpt lat="51.1684580" lon="7.2779660">
        <ele>337.5600000</ele>
        <time>2010-08-20T09:52:25Z</time>
      </trkpt>
      <trkpt lat="51.1685620" lon="7.2781540">
        <ele>337.5600000</ele>
        <time>2010-08-20T09:52:26Z</time>
      </trkpt>
      <trkpt lat="51.1686950" lon="7.2783250">
        <ele>337.5600000</ele>
        <time>2010-08-20T09:52:27Z</time>
      </trkpt>
      <trkpt lat="51.1688300" lon="7.2785120">
        <ele>337.5600000</ele>
        <time>2010-08-20T09:52:28Z</time>
      </trkpt>
      <trkpt lat="51.1699920" lon="7.2801440">
        <ele>339.0000000</ele>
        <time>2010-08-20T09:52:37Z</time>
      </trkpt>
      <trkpt lat="51.1707700" lon="7.2812660">
        <ele>338.0400000</ele>
        <time>2010-08-20T09:52:43Z</time>
      </trkpt>
      <trkpt lat="51.1708690" lon="7.2814770">
        <ele>337.5600000</ele>
        <time>2010-08-20T09:52:44Z</time>
      </trkpt>
      <trkpt lat="51.1709500" lon="7.2817210">
        <ele>337.5600000</ele>
        <time>2010-08-20T09:52:45Z</time>
      </trkpt>
      <trkpt lat="51.1710180" lon="7.2819960">
        <ele>337.0800000</ele>
        <time>2010-08-20T09:52:46Z</time>
      </trkpt>
      <trkpt lat="51.1710770" lon="7.2822910">
        <ele>336.1200000</ele>
        <time>2010-08-20T09:52:47Z</time>
      </trkpt>
      <trkpt lat="51.1714890" lon="7.2845050">
        <ele>330.8300000</ele>
        <time>2010-08-20T09:52:54Z</time>
      </trkpt>
      <trkpt lat="51.1715580" lon="7.2847810">
        <ele>330.3500000</ele>
        <time>2010-08-20T09:52:55Z</time>
      </trkpt>
      <trkpt lat="51.1716600" lon="7.2850640">
        <ele>329.8700000</ele>
        <time>2010-08-20T09:52:56Z</time>
      </trkpt>
      <trkpt lat="51.1717900" lon="7.2853490">
        <ele>329.8700000</ele>
        <time>2010-08-20T09:52:57Z</time>
      </trkpt>
      <trkpt lat="51.1719430" lon="7.2856210">
        <ele>329.3900000</ele>
        <time>2010-08-20T09:52:58Z</time>
      </trkpt>
      <trkpt lat="51.1721040" lon="7.2858920">
        <ele>329.3900000</ele>
        <time>2010-08-20T09:52:59Z</time>
      </trkpt>
      <trkpt lat="51.1733350" lon="7.2880380">
        <ele>326.9900000</ele>
        <time>2010-08-20T09:53:08Z</time>
      </trkpt>
      <trkpt lat="51.1743780" lon="7.2899970">
        <ele>330.8300000</ele>
        <time>2010-08-20T09:53:17Z</time>
      </trkpt>
      <trkpt lat="51.1744690" lon="7.2902700">
        <ele>330.8300000</ele>
        <time>2010-08-20T09:53:18Z</time>
      </trkpt>
      <trkpt lat="51.1754810" lon="7.2934130">
        <ele>326.0200000</ele>
        <time>2010-08-20T09:53:29Z</time>
      </trkpt>
      <trkpt lat="51.1760590" lon="7.2952210">
        <ele>321.2200000</ele>
        <time>2010-08-20T09:53:37Z</time>
      </trkpt>
      <trkpt lat="51.1767690" lon="7.2974390">
        <ele>310.1600000</ele>
        <time>2010-08-20T09:53:47Z</time>
      </trkpt>
      <trkpt lat="51.1777280" lon="7.2995890">
        <ele>299.5900000</ele>
        <time>2010-08-20T09:53:56Z</time>
      </trkpt>
      <trkpt lat="51.1788690" lon="7.3014070">
        <ele>291.9000000</ele>
        <time>2010-08-20T09:54:04Z</time>
      </trkpt>
      <trkpt lat="51.1793550" lon="7.3021450">
        <ele>289.4900000</ele>
        <time>2010-08-20T09:54:08Z</time>
      </trkpt>
      <trkpt lat="51.1794920" lon="7.3022770">
        <ele>288.5300000</ele>
        <time>2010-08-20T09:54:09Z</time>
      </trkpt>
      <trkpt lat="51.1796380" lon="7.3023890">
        <ele>287.5700000</ele>
        <time>2010-08-20T09:54:10Z</time>
      </trkpt>
      <trkpt lat="51.1809620" lon="7.3034530">
        <ele>284.6900000</ele>
        <time>2010-08-20T09:54:19Z</time>
      </trkpt>
      <trkpt lat="51.1817850" lon="7.3045870">
        <ele>280.3600000</ele>
        <time>2010-08-20T09:54:26Z</time>
      </trkpt>
      <trkpt lat="51.1819090" lon="7.3047000">
        <ele>279.8800000</ele>
        <time>2010-08-20T09:54:27Z</time>
      </trkpt>
      <trkpt lat="51.1820310" lon="7.3047740">
        <ele>278.9200000</ele>
        <time>2010-08-20T09:54:28Z</time>
      </trkpt>
      <trkpt lat="51.1821500" lon="7.3048220">
        <ele>277.9600000</ele>
        <time>2010-08-20T09:54:29Z</time>
      </trkpt>
      <trkpt lat="51.1822730" lon="7.3048570">
        <ele>277.0000000</ele>
        <time>2010-08-20T09:54:30Z</time>
      </trkpt>
      <trkpt lat="51.1836320" lon="7.3052180">
        <ele>267.8600000</ele>
        <time>2010-08-20T09:54:39Z</time>
      </trkpt>
      <trkpt lat="51.1846670" lon="7.3060960">
        <ele>260.6500000</ele>
        <time>2010-08-20T09:54:46Z</time>
      </trkpt>
      <trkpt lat="51.1847850" lon="7.3062780">
        <ele>260.1700000</ele>
        <time>2010-08-20T09:54:47Z</time>
      </trkpt>
      <trkpt lat="51.1853710" lon="7.3078250">
        <ele>260.1700000</ele>
        <time>2010-08-20T09:54:54Z</time>
      </trkpt>
      <trkpt lat="51.1854440" lon="7.3097670">
        <ele>259.6900000</ele>
        <time>2010-08-20T09:55:01Z</time>
      </trkpt>
      <trkpt lat="51.1852700" lon="7.3113080">
        <ele>260.1700000</ele>
        <time>2010-08-20T09:55:06Z</time>
      </trkpt>
      <trkpt lat="51.1852680" lon="7.3116250">
        <ele>259.6900000</ele>
        <time>2010-08-20T09:55:07Z</time>
      </trkpt>
      <trkpt lat="51.1852880" lon="7.3119430">
        <ele>260.1700000</ele>
        <time>2010-08-20T09:55:08Z</time>
      </trkpt>
      <trkpt lat="51.1853290" lon="7.3122550">
        <ele>260.1700000</ele>
        <time>2010-08-20T09:55:09Z</time>
      </trkpt>
      <trkpt lat="51.1853850" lon="7.3125590">
        <ele>260.6500000</ele>
        <time>2010-08-20T09:55:10Z</time>
      </trkpt>
      <trkpt lat="51.1854560" lon="7.3128640">
        <ele>260.6500000</ele>
        <time>2010-08-20T09:55:11Z</time>
      </trkpt>
      <trkpt lat="51.1855590" lon="7.3131770">
        <ele>261.1400000</ele>
        <time>2010-08-20T09:55:12Z</time>
      </trkpt>
      <trkpt lat="51.1856850" lon="7.3134840">
        <ele>261.1400000</ele>
        <time>2010-08-20T09:55:13Z</time>
      </trkpt>
      <trkpt lat="51.1858240" lon="7.3137640">
        <ele>261.6200000</ele>
        <time>2010-08-20T09:55:14Z</time>
      </trkpt>
      <trkpt lat="51.1859730" lon="7.3140140">
        <ele>262.1000000</ele>
        <time>2010-08-20T09:55:15Z</time>
      </trkpt>
      <trkpt lat="51.1861330" lon="7.3142390">
        <ele>262.5800000</ele>
        <time>2010-08-20T09:55:16Z</time>
      </trkpt>
      <trkpt lat="51.1862990" lon="7.3144490">
        <ele>262.5800000</ele>
        <time>2010-08-20T09:55:17Z</time>
      </trkpt>
      <trkpt lat="51.1869210" lon="7.3152870">
        <ele>263.5400000</ele>
        <time>2010-08-20T09:55:21Z</time>
      </trkpt>
      <trkpt lat="51.1870480" lon="7.3155340">
        <ele>263.5400000</ele>
        <time>2010-08-20T09:55:22Z</time>
      </trkpt>
      <trkpt lat="51.1875270" lon="7.3164880">
        <ele>264.9800000</ele>
        <time>2010-08-20T09:55:26Z</time>
      </trkpt>
      <trkpt lat="51.1876600" lon="7.3166860">
        <ele>264.9800000</ele>
        <time>2010-08-20T09:55:27Z</time>
      </trkpt>
      <trkpt lat="51.1878030" lon="7.3168640">
        <ele>264.9800000</ele>
        <time>2010-08-20T09:55:28Z</time>
      </trkpt>
      <trkpt lat="51.1879530" lon="7.3170180">
        <ele>265.4600000</ele>
        <time>2010-08-20T09:55:29Z</time>
      </trkpt>
      <trkpt lat="51.1881080" lon="7.3171470">
        <ele>265.9400000</ele>
        <time>2010-08-20T09:55:30Z</time>
      </trkpt>
      <trkpt lat="51.1882680" lon="7.3172600">
        <ele>265.9400000</ele>
        <time>2010-08-20T09:55:31Z</time>
      </trkpt>
      <trkpt lat="51.1899260" lon="7.3183180">
        <ele>273.6300000</ele>
        <time>2010-08-20T09:55:41Z</time>
      </trkpt>
      <trkpt lat="51.1912240" lon="7.3192560">
        <ele>281.8000000</ele>
        <time>2010-08-20T09:55:50Z</time>
      </trkpt>
      <trkpt lat="51.1916360" lon="7.3198960">
        <ele>287.5700000</ele>
        <time>2010-08-20T09:55:54Z</time>
      </trkpt>
      <trkpt lat="51.1917180" lon="7.3201020">
        <ele>288.5300000</ele>
        <time>2010-08-20T09:55:55Z</time>
      </trkpt>
      <trkpt lat="51.1917660" lon="7.3203750">
        <ele>289.9700000</ele>
        <time>2010-08-20T09:55:56Z</time>
      </trkpt>
      <trkpt lat="51.1921710" lon="7.3219040">
        <ele>296.2200000</ele>
        <time>2010-08-20T09:56:03Z</time>
      </trkpt>
      <trkpt lat="51.1930510" lon="7.3239150">
        <ele>304.8800000</ele>
        <time>2010-08-20T09:56:14Z</time>
      </trkpt>
      <trkpt lat="51.1935010" lon="7.3249790">
        <ele>308.7200000</ele>
        <time>2010-08-20T09:56:22Z</time>
      </trkpt>
      <trkpt lat="51.1934920" lon="7.3250570">
        <ele>309.2000000</ele>
        <time>2010-08-20T09:56:23Z</time>
      </trkpt>
      <trkpt lat="51.1934620" lon="7.3251220">
        <ele>309.2000000</ele>
        <time>2010-08-20T09:56:24Z</time>
      </trkpt>
      <trkpt lat="51.1933910" lon="7.3251120">
        <ele>309.2000000</ele>
        <time>2010-08-20T09:56:25Z</time>
      </trkpt>
      <trkpt lat="51.1933190" lon="7.3250600">
        <ele>309.6800000</ele>
        <time>2010-08-20T09:56:26Z</time>
      </trkpt>
      <trkpt lat="51.1932610" lon="7.3249630">
        <ele>309.6800000</ele>
        <time>2010-08-20T09:56:27Z</time>
      </trkpt>
      <trkpt lat="51.1932120" lon="7.3248430">
        <ele>309.6800000</ele>
        <time>2010-08-20T09:56:28Z</time>
      </trkpt>
      <trkpt lat="51.1931640" lon="7.3247150">
        <ele>310.6400000</ele>
        <time>2010-08-20T09:56:29Z</time>
      </trkpt>
      <trkpt lat="51.1931010" lon="7.3246030">
        <ele>311.1200000</ele>
        <time>2010-08-20T09:56:30Z</time>
      </trkpt>
      <trkpt lat="51.1930310" lon="7.3245000">
        <ele>311.6000000</ele>
        <time>2010-08-20T09:56:31Z</time>
      </trkpt>
      <trkpt lat="51.1929480" lon="7.3244080">
        <ele>312.0900000</ele>
        <time>2010-08-20T09:56:32Z</time>
      </trkpt>
      <trkpt lat="51.1928540" lon="7.3243330">
        <ele>312.5700000</ele>
        <time>2010-08-20T09:56:33Z</time>
      </trkpt>
      <trkpt lat="51.1927540" lon="7.3242700">
        <ele>313.5300000</ele>
        <time>2010-08-20T09:56:34Z</time>
      </trkpt>
      <trkpt lat="51.1926500" lon="7.3242080">
        <ele>314.0100000</ele>
        <time>2010-08-20T09:56:35Z</time>
      </trkpt>
      <trkpt lat="51.1921820" lon="7.3239460">
        <ele>316.8900000</ele>
        <time>2010-08-20T09:56:40Z</time>
      </trkpt>
      <trkpt lat="51.1921030" lon="7.3240130">
        <ele>318.3300000</ele>
        <time>2010-08-20T09:56:41Z</time>
      </trkpt>
      <trkpt lat="51.1920430" lon="7.3241090">
        <ele>318.8100000</ele>
        <time>2010-08-20T09:56:42Z</time>
      </trkpt>
      <trkpt lat="51.1920100" lon="7.3241790">
        <ele>318.8100000</ele>
        <time>2010-08-20T09:56:43Z</time>
      </trkpt>
      <trkpt lat="51.1919990" lon="7.3243030">
        <ele>318.8100000</ele>
        <time>2010-08-20T09:56:44Z</time>
      </trkpt>
      <trkpt lat="51.1920160" lon="7.3244380">
        <ele>318.8100000</ele>
        <time>2010-08-20T09:56:45Z</time>
      </trkpt>
      <trkpt lat="51.1920490" lon="7.3245830">
        <ele>319.7800000</ele>
        <time>2010-08-20T09:56:46Z</time>
      </trkpt>
      <trkpt lat="51.1920810" lon="7.3247310">
        <ele>320.2600000</ele>
        <time>2010-08-20T09:56:47Z</time>
      </trkpt>
      <trkpt lat="51.1921210" lon="7.3248720">
        <ele>320.7400000</ele>
        <time>2010-08-20T09:56:48Z</time>
      </trkpt>
      <trkpt lat="51.1921760" lon="7.3249990">
        <ele>321.7000000</ele>
        <time>2010-08-20T09:56:49Z</time>
      </trkpt>
      <trkpt lat="51.1925490" lon="7.3257990">
        <ele>325.0600000</ele>
        <time>2010-08-20T09:56:55Z</time>
      </trkpt>
      <trkpt lat="51.1925990" lon="7.3259830">
        <ele>325.5400000</ele>
        <time>2010-08-20T09:56:56Z</time>
      </trkpt>
      <trkpt lat="51.1929100" lon="7.3276280">
        <ele>331.3100000</ele>
        <time>2010-08-20T09:57:02Z</time>
      </trkpt>
      <trkpt lat="51.1932040" lon="7.3288900">
        <ele>336.1200000</ele>
        <time>2010-08-20T09:57:06Z</time>
      </trkpt>
      <trkpt lat="51.1933270" lon="7.3291750">
        <ele>336.6000000</ele>
        <time>2010-08-20T09:57:07Z</time>
      </trkpt>
      <trkpt lat="51.1934680" lon="7.3294430">
        <ele>337.5600000</ele>
        <time>2010-08-20T09:57:08Z</time>
      </trkpt>
      <trkpt lat="51.1946500" lon="7.3314600">
        <ele>339.9600000</ele>
        <time>2010-08-20T09:57:17Z</time>
      </trkpt>
      <trkpt lat="51.1958120" lon="7.3334000">
        <ele>342.3700000</ele>
        <time>2010-08-20T09:57:27Z</time>
      </trkpt>
      <trkpt lat="51.1959560" lon="7.3335440">
        <ele>342.8500000</ele>
        <time>2010-08-20T09:57:28Z</time>
      </trkpt>
      <trkpt lat="51.1961140" lon="7.3336580">
        <ele>342.8500000</ele>
        <time>2010-08-20T09:57:29Z</time>
      </trkpt>
      <trkpt lat="51.1962840" lon="7.3337410">
        <ele>343.3300000</ele>
        <time>2010-08-20T09:57:30Z</time>
      </trkpt>
      <trkpt lat="51.1964610" lon="7.3338020">
        <ele>343.8100000</ele>
        <time>2010-08-20T09:57:31Z</time>
      </trkpt>
      <trkpt lat="51.1974450" lon="7.3341420">
        <ele>347.1700000</ele>
        <time>2010-08-20T09:57:37Z</time>
      </trkpt>
      <trkpt lat="51.1976020" lon="7.3342370">
        <ele>348.1300000</ele>
        <time>2010-08-20T09:57:38Z</time>
      </trkpt>
      <trkpt lat="51.1989650" lon="7.3351910">
        <ele>354.3800000</ele>
        <time>2010-08-20T09:57:46Z</time>
      </trkpt>
      <trkpt lat="51.2004180" lon="7.3361890">
        <ele>355.3400000</ele>
        <time>2010-08-20T09:57:56Z</time>
      </trkpt>
      <trkpt lat="51.2012700" lon="7.3368180">
        <ele>355.3400000</ele>
        <time>2010-08-20T09:58:05Z</time>
      </trkpt>
      <trkpt lat="51.2013020" lon="7.3368640">
        <ele>355.3400000</ele>
        <time>2010-08-20T09:58:06Z</time>
      </trkpt>
      <trkpt lat="51.2013220" lon="7.3369250">
        <ele>355.3400000</ele>
        <time>2010-08-20T09:58:07Z</time>
      </trkpt>
      <trkpt lat="51.2013290" lon="7.3370130">
        <ele>355.3400000</ele>
        <time>2010-08-20T09:58:08Z</time>
      </trkpt>
      <trkpt lat="51.2013060" lon="7.3371520">
        <ele>355.3400000</ele>
        <time>2010-08-20T09:58:09Z</time>
      </trkpt>
      <trkpt lat="51.2012590" lon="7.3373520">
        <ele>355.3400000</ele>
        <time>2010-08-20T09:58:10Z</time>
      </trkpt>
      <trkpt lat="51.2010750" lon="7.3388670">
        <ele>356.7900000</ele>
        <time>2010-08-20T09:58:17Z</time>
      </trkpt>
      <trkpt lat="51.2011230" lon="7.3411210">
        <ele>359.1900000</ele>
        <time>2010-08-20T09:58:28Z</time>
      </trkpt>
      <trkpt lat="51.2013990" lon="7.3429590">
        <ele>360.1500000</ele>
        <time>2010-08-20T09:58:37Z</time>
      </trkpt>
      <trkpt lat="51.2020000" lon="7.3455450">
        <ele>361.5900000</ele>
        <time>2010-08-20T09:58:50Z</time>
      </trkpt>
      <trkpt lat="51.2021520" lon="7.3472600">
        <ele>357.2700000</ele>
        <time>2010-08-20T09:58:58Z</time>
      </trkpt>
      <trkpt lat="51.2018770" lon="7.3492680">
        <ele>355.3400000</ele>
        <time>2010-08-20T09:59:06Z</time>
      </trkpt>
      <trkpt lat="51.2012840" lon="7.3510900">
        <ele>358.2300000</ele>
        <time>2010-08-20T09:59:13Z</time>
      </trkpt>
      <trkpt lat="51.2008880" lon="7.3530590">
        <ele>361.1100000</ele>
        <time>2010-08-20T09:59:21Z</time>
      </trkpt>
      <trkpt lat="51.2010300" lon="7.3551200">
        <ele>360.6300000</ele>
        <time>2010-08-20T09:59:28Z</time>
      </trkpt>
      <trkpt lat="51.2012790" lon="7.3566380">
        <ele>358.2300000</ele>
        <time>2010-08-20T09:59:33Z</time>
      </trkpt>
      <trkpt lat="51.2012960" lon="7.3569200">
        <ele>358.2300000</ele>
        <time>2010-08-20T09:59:34Z</time>
      </trkpt>
      <trkpt lat="51.2012990" lon="7.3571680">
        <ele>357.7500000</ele>
        <time>2010-08-20T09:59:35Z</time>
      </trkpt>
      <trkpt lat="51.2012670" lon="7.3578830">
        <ele>358.7100000</ele>
        <time>2010-08-20T09:59:40Z</time>
      </trkpt>
      <trkpt lat="51.2012280" lon="7.3584110">
        <ele>359.6700000</ele>
        <time>2010-08-20T09:59:49Z</time>
      </trkpt>
      <trkpt lat="51.2012230" lon="7.3584670">
        <ele>360.1500000</ele>
        <time>2010-08-20T10:00:03Z</time>
      </trkpt>
      <trkpt lat="51.2012030" lon="7.3586310">
        <ele>360.6300000</ele>
        <time>2010-08-20T10:00:05Z</time>
      </trkpt>
      <trkpt lat="51.2011880" lon="7.3587380">
        <ele>361.1100000</ele>
        <time>2010-08-20T10:00:06Z</time>
      </trkpt>
      <trkpt lat="51.2011780" lon="7.3588450">
        <ele>361.1100000</ele>
        <time>2010-08-20T10:00:07Z</time>
      </trkpt>
      <trkpt lat="51.2011010" lon="7.3599100">
        <ele>363.5200000</ele>
        <time>2010-08-20T10:00:16Z</time>
      </trkpt>
      <trkpt lat="51.2009010" lon="7.3624210">
        <ele>363.5200000</ele>
        <time>2010-08-20T10:00:29Z</time>
      </trkpt>
      <trkpt lat="51.2006810" lon="7.3649950">
        <ele>363.0400000</ele>
        <time>2010-08-20T10:00:40Z</time>
      </trkpt>
      <trkpt lat="51.2002210" lon="7.3672990">
        <ele>363.5200000</ele>
        <time>2010-08-20T10:00:49Z</time>
      </trkpt>
      <trkpt lat="51.1993990" lon="7.3698230">
        <ele>364.9600000</ele>
        <time>2010-08-20T10:01:00Z</time>
      </trkpt>
      <trkpt lat="51.1988520" lon="7.3715420">
        <ele>367.3600000</ele>
        <time>2010-08-20T10:01:09Z</time>
      </trkpt>
      <trkpt lat="51.1985770" lon="7.3726580">
        <ele>368.3200000</ele>
        <time>2010-08-20T10:01:18Z</time>
      </trkpt>
      <trkpt lat="51.1985080" lon="7.3729430">
        <ele>369.2800000</ele>
        <time>2010-08-20T10:01:22Z</time>
      </trkpt>
      <trkpt lat="51.1984800" lon="7.3730090">
        <ele>369.2800000</ele>
        <time>2010-08-20T10:01:23Z</time>
      </trkpt>
      <trkpt lat="51.1984140" lon="7.3731730">
        <ele>369.7600000</ele>
        <time>2010-08-20T10:01:25Z</time>
      </trkpt>
      <trkpt lat="51.1984040" lon="7.3732780">
        <ele>369.7600000</ele>
        <time>2010-08-20T10:01:26Z</time>
      </trkpt>
      <trkpt lat="51.1984120" lon="7.3734110">
        <ele>370.2400000</ele>
        <time>2010-08-20T10:01:27Z</time>
      </trkpt>
      <trkpt lat="51.1984140" lon="7.3735740">
        <ele>370.2400000</ele>
        <time>2010-08-20T10:01:28Z</time>
      </trkpt>
      <trkpt lat="51.1983970" lon="7.3737570">
        <ele>370.2400000</ele>
        <time>2010-08-20T10:01:29Z</time>
      </trkpt>
      <trkpt lat="51.1983650" lon="7.3739510">
        <ele>370.7300000</ele>
        <time>2010-08-20T10:01:30Z</time>
      </trkpt>
      <trkpt lat="51.1983320" lon="7.3741360">
        <ele>370.7300000</ele>
        <time>2010-08-20T10:01:31Z</time>
      </trkpt>
      <trkpt lat="51.1981550" lon="7.3750450">
        <ele>372.1700000</ele>
        <time>2010-08-20T10:01:38Z</time>
      </trkpt>
      <trkpt lat="51.1978120" lon="7.3761120">
        <ele>374.5700000</ele>
        <time>2010-08-20T10:01:46Z</time>
      </trkpt>
      <trkpt lat="51.1969430" lon="7.3786110">
        <ele>379.8600000</ele>
        <time>2010-08-20T10:01:57Z</time>
      </trkpt>
      <trkpt lat="51.1964920" lon="7.3800360">
        <ele>382.2600000</ele>
        <time>2010-08-20T10:02:03Z</time>
      </trkpt>
      <trkpt lat="51.1964590" lon="7.3802760">
        <ele>382.2600000</ele>
        <time>2010-08-20T10:02:04Z</time>
      </trkpt>
      <trkpt lat="51.1964520" lon="7.3805030">
        <ele>382.2600000</ele>
        <time>2010-08-20T10:02:05Z</time>
      </trkpt>
      <trkpt lat="51.1964730" lon="7.3807030">
        <ele>382.2600000</ele>
        <time>2010-08-20T10:02:06Z</time>
      </trkpt>
      <trkpt lat="51.1965030" lon="7.3808880">
        <ele>382.2600000</ele>
        <time>2010-08-20T10:02:07Z</time>
      </trkpt>
      <trkpt lat="51.1965410" lon="7.3812240">
        <ele>382.7400000</ele>
        <time>2010-08-20T10:02:09Z</time>
      </trkpt>
      <trkpt lat="51.1965400" lon="7.3813760">
        <ele>382.2600000</ele>
        <time>2010-08-20T10:02:10Z</time>
      </trkpt>
      <trkpt lat="51.1965500" lon="7.3815080">
        <ele>382.2600000</ele>
        <time>2010-08-20T10:02:11Z</time>
      </trkpt>
      <trkpt lat="51.1965880" lon="7.3816180">
        <ele>382.2600000</ele>
        <time>2010-08-20T10:02:12Z</time>
      </trkpt>
      <trkpt lat="51.1966480" lon="7.3817240">
        <ele>382.2600000</ele>
        <time>2010-08-20T10:02:13Z</time>
      </trkpt>
      <trkpt lat="51.1967160" lon="7.3818520">
        <ele>381.7800000</ele>
        <time>2010-08-20T10:02:14Z</time>
      </trkpt>
      <trkpt lat="51.1967880" lon="7.3820070">
        <ele>381.7800000</ele>
        <time>2010-08-20T10:02:15Z</time>
      </trkpt>
      <trkpt lat="51.1968720" lon="7.3821720">
        <ele>381.7800000</ele>
        <time>2010-08-20T10:02:16Z</time>
      </trkpt>
      <trkpt lat="51.1969720" lon="7.3823370">
        <ele>381.3000000</ele>
        <time>2010-08-20T10:02:17Z</time>
      </trkpt>
      <trkpt lat="51.1981810" lon="7.3842580">
        <ele>376.9700000</ele>
        <time>2010-08-20T10:02:28Z</time>
      </trkpt>
      <trkpt lat="51.1983880" lon="7.3846220">
        <ele>375.5300000</ele>
        <time>2010-08-20T10:02:31Z</time>
      </trkpt>
      <trkpt lat="51.1984180" lon="7.3847320">
        <ele>375.0500000</ele>
        <time>2010-08-20T10:02:32Z</time>
      </trkpt>
      <trkpt lat="51.1984290" lon="7.3848470">
        <ele>375.0500000</ele>
        <time>2010-08-20T10:02:33Z</time>
      </trkpt>
      <trkpt lat="51.1984160" lon="7.3849720">
        <ele>374.5700000</ele>
        <time>2010-08-20T10:02:34Z</time>
      </trkpt>
      <trkpt lat="51.1983710" lon="7.3850990">
        <ele>374.0900000</ele>
        <time>2010-08-20T10:02:35Z</time>
      </trkpt>
      <trkpt lat="51.1983040" lon="7.3852240">
        <ele>373.1300000</ele>
        <time>2010-08-20T10:02:36Z</time>
      </trkpt>
      <trkpt lat="51.1982230" lon="7.3853470">
        <ele>372.1700000</ele>
        <time>2010-08-20T10:02:37Z</time>
      </trkpt>
      <trkpt lat="51.1981270" lon="7.3854520">
        <ele>370.7300000</ele>
        <time>2010-08-20T10:02:38Z</time>
      </trkpt>
      <trkpt lat="51.1980210" lon="7.3855230">
        <ele>369.2800000</ele>
        <time>2010-08-20T10:02:39Z</time>
      </trkpt>
      <trkpt lat="51.1978820" lon="7.3855120">
        <ele>368.8000000</ele>
        <time>2010-08-20T10:02:40Z</time>
      </trkpt>
      <trkpt lat="51.1977400" lon="7.3854780">
        <ele>367.8400000</ele>
        <time>2010-08-20T10:02:41Z</time>
      </trkpt>
      <trkpt lat="51.1976270" lon="7.3854200">
        <ele>366.8800000</ele>
        <time>2010-08-20T10:02:42Z</time>
      </trkpt>
      <trkpt lat="51.1975200" lon="7.3853250">
        <ele>366.4000000</ele>
        <time>2010-08-20T10:02:43Z</time>
      </trkpt>
      <trkpt lat="51.1974150" lon="7.3852060">
        <ele>365.9200000</ele>
        <time>2010-08-20T10:02:44Z</time>
      </trkpt>
      <trkpt lat="51.1973070" lon="7.3850800">
        <ele>365.4400000</ele>
        <time>2010-08-20T10:02:45Z</time>
      </trkpt>
      <trkpt lat="51.1961510" lon="7.3841730">
        <ele>365.9200000</ele>
        <time>2010-08-20T10:02:55Z</time>
      </trkpt>
      <trkpt lat="51.1954950" lon="7.3840620">
        <ele>361.5900000</ele>
        <time>2010-08-20T10:03:00Z</time>
      </trkpt>
      <trkpt lat="51.1953820" lon="7.3840970">
        <ele>360.1500000</ele>
        <time>2010-08-20T10:03:01Z</time>
      </trkpt>
      <trkpt lat="51.1952760" lon="7.3841760">
        <ele>358.7100000</ele>
        <time>2010-08-20T10:03:02Z</time>
      </trkpt>
      <trkpt lat="51.1951920" lon="7.3843420">
        <ele>358.2300000</ele>
        <time>2010-08-20T10:03:03Z</time>
      </trkpt>
      <trkpt lat="51.1951250" lon="7.3845280">
        <ele>357.2700000</ele>
        <time>2010-08-20T10:03:04Z</time>
      </trkpt>
      <trkpt lat="51.1950700" lon="7.3847260">
        <ele>356.3100000</ele>
        <time>2010-08-20T10:03:05Z</time>
      </trkpt>
      <trkpt lat="51.1950160" lon="7.3849180">
        <ele>355.8300000</ele>
        <time>2010-08-20T10:03:06Z</time>
      </trkpt>
      <trkpt lat="51.1949420" lon="7.3850930">
        <ele>354.8600000</ele>
        <time>2010-08-20T10:03:07Z</time>
      </trkpt>
      <trkpt lat="51.1948340" lon="7.3852240">
        <ele>354.3800000</ele>
        <time>2010-08-20T10:03:08Z</time>
      </trkpt>
      <trkpt lat="51.1947030" lon="7.3853080">
        <ele>353.9000000</ele>
        <time>2010-08-20T10:03:09Z</time>
      </trkpt>
      <trkpt lat="51.1945450" lon="7.3853570">
        <ele>353.4200000</ele>
        <time>2010-08-20T10:03:10Z</time>
      </trkpt>
      <trkpt lat="51.1943930" lon="7.3853900">
        <ele>352.9400000</ele>
        <time>2010-08-20T10:03:11Z</time>
      </trkpt>
      <trkpt lat="51.1942210" lon="7.3853980">
        <ele>352.9400000</ele>
        <time>2010-08-20T10:03:12Z</time>
      </trkpt>
      <trkpt lat="51.1940530" lon="7.3854280">
        <ele>352.9400000</ele>
        <time>2010-08-20T10:03:13Z</time>
      </trkpt>
      <trkpt lat="51.1927430" lon="7.3856760">
        <ele>349.5800000</ele>
        <time>2010-08-20T10:03:21Z</time>
      </trkpt>
      <trkpt lat="51.1925970" lon="7.3857360">
        <ele>349.5800000</ele>
        <time>2010-08-20T10:03:22Z</time>
      </trkpt>
      <trkpt lat="51.1924790" lon="7.3858490">
        <ele>350.0600000</ele>
        <time>2010-08-20T10:03:23Z</time>
      </trkpt>
      <trkpt lat="51.1923710" lon="7.3859850">
        <ele>351.0200000</ele>
        <time>2010-08-20T10:03:24Z</time>
      </trkpt>
      <trkpt lat="51.1921820" lon="7.3862530">
        <ele>351.0200000</ele>
        <time>2010-08-20T10:03:26Z</time>
      </trkpt>
      <trkpt lat="51.1920760" lon="7.3863330">
        <ele>351.0200000</ele>
        <time>2010-08-20T10:03:27Z</time>
      </trkpt>
      <trkpt lat="51.1919590" lon="7.3863740">
        <ele>351.0200000</ele>
        <time>2010-08-20T10:03:28Z</time>
      </trkpt>
      <trkpt lat="51.1918270" lon="7.3863750">
        <ele>351.0200000</ele>
        <time>2010-08-20T10:03:29Z</time>
      </trkpt>
      <trkpt lat="51.1916820" lon="7.3863780">
        <ele>350.5400000</ele>
        <time>2010-08-20T10:03:30Z</time>
      </trkpt>
      <trkpt lat="51.1909540" lon="7.3866120">
        <ele>347.6500000</ele>
        <time>2010-08-20T10:03:35Z</time>
      </trkpt>
      <trkpt lat="51.1908040" lon="7.3867570">
        <ele>348.1300000</ele>
        <time>2010-08-20T10:03:36Z</time>
      </trkpt>
      <trkpt lat="51.1892240" lon="7.3881850">
        <ele>338.0400000</ele>
        <time>2010-08-20T10:03:47Z</time>
      </trkpt>
      <trkpt lat="51.1885170" lon="7.3887420">
        <ele>333.2300000</ele>
        <time>2010-08-20T10:03:53Z</time>
      </trkpt>
      <trkpt lat="51.1884410" lon="7.3888890">
        <ele>332.2700000</ele>
        <time>2010-08-20T10:03:54Z</time>
      </trkpt>
      <trkpt lat="51.1883870" lon="7.3890610">
        <ele>330.8300000</ele>
        <time>2010-08-20T10:03:55Z</time>
      </trkpt>
      <trkpt lat="51.1880590" lon="7.3896920">
        <ele>326.0200000</ele>
        <time>2010-08-20T10:03:59Z</time>
      </trkpt>
      <trkpt lat="51.1879420" lon="7.3897310">
        <ele>325.0600000</ele>
        <time>2010-08-20T10:04:00Z</time>
      </trkpt>
      <trkpt lat="51.1878030" lon="7.3897330">
        <ele>325.0600000</ele>
        <time>2010-08-20T10:04:01Z</time>
      </trkpt>
      <trkpt lat="51.1876590" lon="7.3896940">
        <ele>325.0600000</ele>
        <time>2010-08-20T10:04:02Z</time>
      </trkpt>
      <trkpt lat="51.1875170" lon="7.3897000">
        <ele>324.5800000</ele>
        <time>2010-08-20T10:04:03Z</time>
      </trkpt>
      <trkpt lat="51.1873560" lon="7.3896990">
        <ele>325.0600000</ele>
        <time>2010-08-20T10:04:04Z</time>
      </trkpt>
      <trkpt lat="51.1864550" lon="7.3897280">
        <ele>333.2300000</ele>
        <time>2010-08-20T10:04:10Z</time>
      </trkpt>
      <trkpt lat="51.1860350" lon="7.3899320">
        <ele>337.0800000</ele>
        <time>2010-08-20T10:04:13Z</time>
      </trkpt>
      <trkpt lat="51.1858900" lon="7.3900420">
        <ele>338.5200000</ele>
        <time>2010-08-20T10:04:14Z</time>
      </trkpt>
      <trkpt lat="51.1853470" lon="7.3904240">
        <ele>350.0600000</ele>
        <time>2010-08-20T10:04:18Z</time>
      </trkpt>
      <trkpt lat="51.1852060" lon="7.3904710">
        <ele>352.4600000</ele>
        <time>2010-08-20T10:04:19Z</time>
      </trkpt>
      <trkpt lat="51.1850630" lon="7.3904820">
        <ele>355.3400000</ele>
        <time>2010-08-20T10:04:20Z</time>
      </trkpt>
      <trkpt lat="51.1845750" lon="7.3907150">
        <ele>363.0400000</ele>
        <time>2010-08-20T10:04:24Z</time>
      </trkpt>
      <trkpt lat="51.1845030" lon="7.3908620">
        <ele>364.0000000</ele>
        <time>2010-08-20T10:04:25Z</time>
      </trkpt>
      <trkpt lat="51.1844380" lon="7.3910580">
        <ele>365.4400000</ele>
        <time>2010-08-20T10:04:26Z</time>
      </trkpt>
      <trkpt lat="51.1843880" lon="7.3912950">
        <ele>366.4000000</ele>
        <time>2010-08-20T10:04:27Z</time>
      </trkpt>
      <trkpt lat="51.1843440" lon="7.3915380">
        <ele>365.4400000</ele>
        <time>2010-08-20T10:04:28Z</time>
      </trkpt>
      <trkpt lat="51.1842960" lon="7.3917710">
        <ele>365.4400000</ele>
        <time>2010-08-20T10:04:29Z</time>
      </trkpt>
      <trkpt lat="51.1840860" lon="7.3926500">
        <ele>364.4800000</ele>
        <time>2010-08-20T10:04:33Z</time>
      </trkpt>
      <trkpt lat="51.1840030" lon="7.3928480">
        <ele>364.0000000</ele>
        <time>2010-08-20T10:04:34Z</time>
      </trkpt>
      <trkpt lat="51.1838950" lon="7.3930270">
        <ele>363.5200000</ele>
        <time>2010-08-20T10:04:35Z</time>
      </trkpt>
      <trkpt lat="51.1837630" lon="7.3931900">
        <ele>363.0400000</ele>
        <time>2010-08-20T10:04:36Z</time>
      </trkpt>
      <trkpt lat="51.1836150" lon="7.3933520">
        <ele>362.0700000</ele>
        <time>2010-08-20T10:04:37Z</time>
      </trkpt>
      <trkpt lat="51.1821010" lon="7.3949160">
        <ele>349.5800000</ele>
        <time>2010-08-20T10:04:47Z</time>
      </trkpt>
      <trkpt lat="51.1819370" lon="7.3950090">
        <ele>348.6200000</ele>
        <time>2010-08-20T10:04:48Z</time>
      </trkpt>
      <trkpt lat="51.1817610" lon="7.3950760">
        <ele>347.6500000</ele>
        <time>2010-08-20T10:04:49Z</time>
      </trkpt>
      <trkpt lat="51.1815810" lon="7.3951200">
        <ele>347.1700000</ele>
        <time>2010-08-20T10:04:50Z</time>
      </trkpt>
      <trkpt lat="51.1814000" lon="7.3951400">
        <ele>346.2100000</ele>
        <time>2010-08-20T10:04:51Z</time>
      </trkpt>
      <trkpt lat="51.1812150" lon="7.3951430">
        <ele>345.2500000</ele>
        <time>2010-08-20T10:04:52Z</time>
      </trkpt>
      <trkpt lat="51.1801330" lon="7.3952840">
        <ele>334.2000000</ele>
        <time>2010-08-20T10:04:58Z</time>
      </trkpt>
      <trkpt lat="51.1799740" lon="7.3953750">
        <ele>332.2700000</ele>
        <time>2010-08-20T10:04:59Z</time>
      </trkpt>
      <trkpt lat="51.1798250" lon="7.3954970">
        <ele>330.3500000</ele>
        <time>2010-08-20T10:05:00Z</time>
      </trkpt>
      <trkpt lat="51.1796830" lon="7.3956410">
        <ele>328.4300000</ele>
        <time>2010-08-20T10:05:01Z</time>
      </trkpt>
      <trkpt lat="51.1795420" lon="7.3957900">
        <ele>326.0200000</ele>
        <time>2010-08-20T10:05:02Z</time>
      </trkpt>
      <trkpt lat="51.1790400" lon="7.3963200">
        <ele>318.3300000</ele>
        <time>2010-08-20T10:05:06Z</time>
      </trkpt>
      <trkpt lat="51.1789250" lon="7.3963890">
        <ele>316.4100000</ele>
        <time>2010-08-20T10:05:07Z</time>
      </trkpt>
      <trkpt lat="51.1788030" lon="7.3963740">
        <ele>314.4900000</ele>
        <time>2010-08-20T10:05:08Z</time>
      </trkpt>
      <trkpt lat="51.1786860" lon="7.3963130">
        <ele>312.5700000</ele>
        <time>2010-08-20T10:05:09Z</time>
      </trkpt>
      <trkpt lat="51.1785750" lon="7.3961690">
        <ele>311.1200000</ele>
        <time>2010-08-20T10:05:10Z</time>
      </trkpt>
      <trkpt lat="51.1784710" lon="7.3960150">
        <ele>310.1600000</ele>
        <time>2010-08-20T10:05:11Z</time>
      </trkpt>
      <trkpt lat="51.1783530" lon="7.3958760">
        <ele>309.2000000</ele>
        <time>2010-08-20T10:05:12Z</time>
      </trkpt>
      <trkpt lat="51.1782160" lon="7.3957630">
        <ele>308.2400000</ele>
        <time>2010-08-20T10:05:13Z</time>
      </trkpt>
      <trkpt lat="51.1780560" lon="7.3957070">
        <ele>307.2800000</ele>
        <time>2010-08-20T10:05:14Z</time>
      </trkpt>
      <trkpt lat="51.1778960" lon="7.3957100">
        <ele>306.3200000</ele>
        <time>2010-08-20T10:05:15Z</time>
      </trkpt>
      <trkpt lat="51.1777270" lon="7.3957480">
        <ele>304.8800000</ele>
        <time>2010-08-20T10:05:16Z</time>
      </trkpt>
      <trkpt lat="51.1775480" lon="7.3958300">
        <ele>304.3900000</ele>
        <time>2010-08-20T10:05:17Z</time>
      </trkpt>
      <trkpt lat="51.1773600" lon="7.3959420">
        <ele>303.9100000</ele>
        <time>2010-08-20T10:05:18Z</time>
      </trkpt>
      <trkpt lat="51.1757210" lon="7.3964960">
        <ele>300.0700000</ele>
        <time>2010-08-20T10:05:27Z</time>
      </trkpt>
      <trkpt lat="51.1738260" lon="7.3968250">
        <ele>296.2200000</ele>
        <time>2010-08-20T10:05:39Z</time>
      </trkpt>
      <trkpt lat="51.1736920" lon="7.3967760">
        <ele>295.7400000</ele>
        <time>2010-08-20T10:05:40Z</time>
      </trkpt>
      <trkpt lat="51.1735740" lon="7.3966390">
        <ele>295.7400000</ele>
        <time>2010-08-20T10:05:41Z</time>
      </trkpt>
      <trkpt lat="51.1734690" lon="7.3964570">
        <ele>295.2600000</ele>
        <time>2010-08-20T10:05:42Z</time>
      </trkpt>
      <trkpt lat="51.1733830" lon="7.3962470">
        <ele>295.2600000</ele>
        <time>2010-08-20T10:05:43Z</time>
      </trkpt>
      <trkpt lat="51.1733250" lon="7.3960220">
        <ele>295.2600000</ele>
        <time>2010-08-20T10:05:44Z</time>
      </trkpt>
      <trkpt lat="51.1733010" lon="7.3957890">
        <ele>295.2600000</ele>
        <time>2010-08-20T10:05:45Z</time>
      </trkpt>
      <trkpt lat="51.1732770" lon="7.3955770">
        <ele>295.2600000</ele>
        <time>2010-08-20T10:05:46Z</time>
      </trkpt>
      <trkpt lat="51.1732140" lon="7.3951040">
        <ele>295.7400000</ele>
        <time>2010-08-20T10:05:49Z</time>
      </trkpt>
      <trkpt lat="51.1731910" lon="7.3950450">
        <ele>295.7400000</ele>
        <time>2010-08-20T10:05:50Z</time>
      </trkpt>
      <trkpt lat="51.1731490" lon="7.3950220">
        <ele>296.2200000</ele>
        <time>2010-08-20T10:05:51Z</time>
      </trkpt>
      <trkpt lat="51.1730980" lon="7.3949940">
        <ele>295.7400000</ele>
        <time>2010-08-20T10:05:52Z</time>
      </trkpt>
      <trkpt lat="51.1729970" lon="7.3950100">
        <ele>295.2600000</ele>
        <time>2010-08-20T10:05:53Z</time>
      </trkpt>
      <trkpt lat="51.1728770" lon="7.3950520">
        <ele>295.2600000</ele>
        <time>2010-08-20T10:05:54Z</time>
      </trkpt>
      <trkpt lat="51.1727240" lon="7.3951130">
        <ele>295.2600000</ele>
        <time>2010-08-20T10:05:55Z</time>
      </trkpt>
      <trkpt lat="51.1725430" lon="7.3951980">
        <ele>296.2200000</ele>
        <time>2010-08-20T10:05:56Z</time>
      </trkpt>
      <trkpt lat="51.1723730" lon="7.3952520">
        <ele>296.7000000</ele>
        <time>2010-08-20T10:05:57Z</time>
      </trkpt>
      <trkpt lat="51.1708320" lon="7.3958450">
        <ele>307.2800000</ele>
        <time>2010-08-20T10:06:07Z</time>
      </trkpt>
      <trkpt lat="51.1707220" lon="7.3958820">
        <ele>308.2400000</ele>
        <time>2010-08-20T10:06:08Z</time>
      </trkpt>
      <trkpt lat="51.1706110" lon="7.3958950">
        <ele>309.2000000</ele>
        <time>2010-08-20T10:06:09Z</time>
      </trkpt>
      <trkpt lat="51.1704930" lon="7.3958780">
        <ele>309.6800000</ele>
        <time>2010-08-20T10:06:10Z</time>
      </trkpt>
      <trkpt lat="51.1703690" lon="7.3958290">
        <ele>309.6800000</ele>
        <time>2010-08-20T10:06:11Z</time>
      </trkpt>
      <trkpt lat="51.1702360" lon="7.3957510">
        <ele>309.2000000</ele>
        <time>2010-08-20T10:06:12Z</time>
      </trkpt>
      <trkpt lat="51.1700940" lon="7.3956540">
        <ele>308.7200000</ele>
        <time>2010-08-20T10:06:13Z</time>
      </trkpt>
      <trkpt lat="51.1689980" lon="7.3948290">
        <ele>305.8400000</ele>
        <time>2010-08-20T10:06:20Z</time>
      </trkpt>
      <trkpt lat="51.1688640" lon="7.3946610">
        <ele>306.3200000</ele>
        <time>2010-08-20T10:06:21Z</time>
      </trkpt>
      <trkpt lat="51.1687460" lon="7.3944570">
        <ele>306.8000000</ele>
        <time>2010-08-20T10:06:22Z</time>
      </trkpt>
      <trkpt lat="51.1686420" lon="7.3942270">
        <ele>307.7600000</ele>
        <time>2010-08-20T10:06:23Z</time>
      </trkpt>
      <trkpt lat="51.1685430" lon="7.3939840">
        <ele>308.7200000</ele>
        <time>2010-08-20T10:06:24Z</time>
      </trkpt>
      <trkpt lat="51.1674030" lon="7.3913050">
        <ele>318.8100000</ele>
        <time>2010-08-20T10:06:35Z</time>
      </trkpt>
      <trkpt lat="51.1670270" lon="7.3905310">
        <ele>322.1800000</ele>
        <time>2010-08-20T10:06:40Z</time>
      </trkpt>
      <trkpt lat="51.1669590" lon="7.3905150">
        <ele>323.1400000</ele>
        <time>2010-08-20T10:06:41Z</time>
      </trkpt>
      <trkpt lat="51.1668940" lon="7.3905600">
        <ele>324.1000000</ele>
        <time>2010-08-20T10:06:42Z</time>
      </trkpt>
      <trkpt lat="51.1668320" lon="7.3906750">
        <ele>325.0600000</ele>
        <time>2010-08-20T10:06:43Z</time>
      </trkpt>
      <trkpt lat="51.1667670" lon="7.3908130">
        <ele>326.0200000</ele>
        <time>2010-08-20T10:06:44Z</time>
      </trkpt>
      <trkpt lat="51.1667000" lon="7.3909500">
        <ele>326.9900000</ele>
        <time>2010-08-20T10:06:45Z</time>
      </trkpt>
      <trkpt lat="51.1662680" lon="7.3918370">
        <ele>329.8700000</ele>
        <time>2010-08-20T10:06:53Z</time>
      </trkpt>
      <trkpt lat="51.1662280" lon="7.3918690">
        <ele>330.3500000</ele>
        <time>2010-08-20T10:06:54Z</time>
      </trkpt>
      <trkpt lat="51.1661620" lon="7.3918560">
        <ele>330.3500000</ele>
        <time>2010-08-20T10:06:55Z</time>
      </trkpt>
      <trkpt lat="51.1661070" lon="7.3917930">
        <ele>330.3500000</ele>
        <time>2010-08-20T10:06:56Z</time>
      </trkpt>
      <trkpt lat="51.1660320" lon="7.3916830">
        <ele>329.8700000</ele>
        <time>2010-08-20T10:06:57Z</time>
      </trkpt>
      <trkpt lat="51.1659470" lon="7.3915530">
        <ele>329.8700000</ele>
        <time>2010-08-20T10:06:58Z</time>
      </trkpt>
      <trkpt lat="51.1656270" lon="7.3911740">
        <ele>328.9100000</ele>
        <time>2010-08-20T10:07:01Z</time>
      </trkpt>
      <trkpt lat="51.1654970" lon="7.3910780">
        <ele>328.4300000</ele>
        <time>2010-08-20T10:07:02Z</time>
      </trkpt>
      <trkpt lat="51.1653650" lon="7.3909970">
        <ele>327.9500000</ele>
        <time>2010-08-20T10:07:03Z</time>
      </trkpt>
      <trkpt lat="51.1641660" lon="7.3899730">
        <ele>316.4100000</ele>
        <time>2010-08-20T10:07:12Z</time>
      </trkpt>
      <trkpt lat="51.1639390" lon="7.3898060">
        <ele>314.9700000</ele>
        <time>2010-08-20T10:07:14Z</time>
      </trkpt>
      <trkpt lat="51.1638300" lon="7.3898250">
        <ele>313.5300000</ele>
        <time>2010-08-20T10:07:15Z</time>
      </trkpt>
      <trkpt lat="51.1636980" lon="7.3898300">
        <ele>311.6000000</ele>
        <time>2010-08-20T10:07:16Z</time>
      </trkpt>
      <trkpt lat="51.1632320" lon="7.3898370">
        <ele>308.7200000</ele>
        <time>2010-08-20T10:07:19Z</time>
      </trkpt>
      <trkpt lat="51.1621090" lon="7.3898810">
        <ele>306.3200000</ele>
        <time>2010-08-20T10:07:26Z</time>
      </trkpt>
      <trkpt lat="51.1608540" lon="7.3904270">
        <ele>301.0300000</ele>
        <time>2010-08-20T10:07:34Z</time>
      </trkpt>
      <trkpt lat="51.1593770" lon="7.3907320">
        <ele>297.1800000</ele>
        <time>2010-08-20T10:07:43Z</time>
      </trkpt>
      <trkpt lat="51.1588080" lon="7.3908330">
        <ele>297.1800000</ele>
        <time>2010-08-20T10:07:47Z</time>
      </trkpt>
      <trkpt lat="51.1586700" lon="7.3908200">
        <ele>297.1800000</ele>
        <time>2010-08-20T10:07:48Z</time>
      </trkpt>
      <trkpt lat="51.1585410" lon="7.3907780">
        <ele>297.1800000</ele>
        <time>2010-08-20T10:07:49Z</time>
      </trkpt>
      <trkpt lat="51.1584080" lon="7.3906930">
        <ele>297.1800000</ele>
        <time>2010-08-20T10:07:50Z</time>
      </trkpt>
      <trkpt lat="51.1582890" lon="7.3905810">
        <ele>297.6700000</ele>
        <time>2010-08-20T10:07:51Z</time>
      </trkpt>
      <trkpt lat="51.1581840" lon="7.3904400">
        <ele>298.1500000</ele>
        <time>2010-08-20T10:07:52Z</time>
      </trkpt>
      <trkpt lat="51.1580880" lon="7.3902780">
        <ele>298.6300000</ele>
        <time>2010-08-20T10:07:53Z</time>
      </trkpt>
      <trkpt lat="51.1579880" lon="7.3901120">
        <ele>299.1100000</ele>
        <time>2010-08-20T10:07:54Z</time>
      </trkpt>
      <trkpt lat="51.1578770" lon="7.3899700">
        <ele>300.0700000</ele>
        <time>2010-08-20T10:07:55Z</time>
      </trkpt>
      <trkpt lat="51.1577660" lon="7.3898460">
        <ele>301.0300000</ele>
        <time>2010-08-20T10:07:56Z</time>
      </trkpt>
      <trkpt lat="51.1576440" lon="7.3897600">
        <ele>301.9900000</ele>
        <time>2010-08-20T10:07:57Z</time>
      </trkpt>
      <trkpt lat="51.1575190" lon="7.3896950">
        <ele>303.4300000</ele>
        <time>2010-08-20T10:07:58Z</time>
      </trkpt>
      <trkpt lat="51.1574010" lon="7.3896810">
        <ele>303.4300000</ele>
        <time>2010-08-20T10:07:59Z</time>
      </trkpt>
      <trkpt lat="51.1572630" lon="7.3896940">
        <ele>304.8800000</ele>
        <time>2010-08-20T10:08:00Z</time>
      </trkpt>
      <trkpt lat="51.1571350" lon="7.3897210">
        <ele>305.8400000</ele>
        <time>2010-08-20T10:08:01Z</time>
      </trkpt>
      <trkpt lat="51.1569990" lon="7.3897510">
        <ele>306.8000000</ele>
        <time>2010-08-20T10:08:02Z</time>
      </trkpt>
      <trkpt lat="51.1555470" lon="7.3900380">
        <ele>315.9300000</ele>
        <time>2010-08-20T10:08:12Z</time>
      </trkpt>
      <trkpt lat="51.1549850" lon="7.3904800">
        <ele>320.7400000</ele>
        <time>2010-08-20T10:08:16Z</time>
      </trkpt>
      <trkpt lat="51.1548570" lon="7.3906380">
        <ele>322.6600000</ele>
        <time>2010-08-20T10:08:17Z</time>
      </trkpt>
      <trkpt lat="51.1544900" lon="7.3911470">
        <ele>328.4300000</ele>
        <time>2010-08-20T10:08:20Z</time>
      </trkpt>
      <trkpt lat="51.1544030" lon="7.3913810">
        <ele>329.8700000</ele>
        <time>2010-08-20T10:08:21Z</time>
      </trkpt>
      <trkpt lat="51.1538590" lon="7.3922050">
        <ele>334.6800000</ele>
        <time>2010-08-20T10:08:26Z</time>
      </trkpt>
      <trkpt lat="51.1537110" lon="7.3922290">
        <ele>334.6800000</ele>
        <time>2010-08-20T10:08:27Z</time>
      </trkpt>
      <trkpt lat="51.1535770" lon="7.3922490">
        <ele>334.6800000</ele>
        <time>2010-08-20T10:08:28Z</time>
      </trkpt>
      <trkpt lat="51.1534580" lon="7.3922560">
        <ele>335.6400000</ele>
        <time>2010-08-20T10:08:29Z</time>
      </trkpt>
      <trkpt lat="51.1533420" lon="7.3922460">
        <ele>336.1200000</ele>
        <time>2010-08-20T10:08:30Z</time>
      </trkpt>
      <trkpt lat="51.1532430" lon="7.3922000">
        <ele>337.0800000</ele>
        <time>2010-08-20T10:08:31Z</time>
      </trkpt>
      <trkpt lat="51.1531390" lon="7.3921290">
        <ele>336.6000000</ele>
        <time>2010-08-20T10:08:32Z</time>
      </trkpt>
      <trkpt lat="51.1530230" lon="7.3920090">
        <ele>337.0800000</ele>
        <time>2010-08-20T10:08:33Z</time>
      </trkpt>
      <trkpt lat="51.1529070" lon="7.3918610">
        <ele>338.5200000</ele>
        <time>2010-08-20T10:08:34Z</time>
      </trkpt>
      <trkpt lat="51.1527940" lon="7.3916900">
        <ele>339.4800000</ele>
        <time>2010-08-20T10:08:35Z</time>
      </trkpt>
      <trkpt lat="51.1526890" lon="7.3914990">
        <ele>339.9600000</ele>
        <time>2010-08-20T10:08:36Z</time>
      </trkpt>
      <trkpt lat="51.1519930" lon="7.3904650">
        <ele>342.8500000</ele>
        <time>2010-08-20T10:08:42Z</time>
      </trkpt>
      <trkpt lat="51.1518580" lon="7.3903510">
        <ele>343.3300000</ele>
        <time>2010-08-20T10:08:43Z</time>
      </trkpt>
      <trkpt lat="51.1517100" lon="7.3902640">
        <ele>343.3300000</ele>
        <time>2010-08-20T10:08:44Z</time>
      </trkpt>
      <trkpt lat="51.1515550" lon="7.3902080">
        <ele>343.3300000</ele>
        <time>2010-08-20T10:08:45Z</time>
      </trkpt>
      <trkpt lat="51.1514020" lon="7.3901740">
        <ele>342.8500000</ele>
        <time>2010-08-20T10:08:46Z</time>
      </trkpt>
      <trkpt lat="51.1512530" lon="7.3901510">
        <ele>342.8500000</ele>
        <time>2010-08-20T10:08:47Z</time>
      </trkpt>
      <trkpt lat="51.1506550" lon="7.3899290">
        <ele>341.4100000</ele>
        <time>2010-08-20T10:08:51Z</time>
      </trkpt>
      <trkpt lat="51.1505120" lon="7.3898240">
        <ele>340.4400000</ele>
        <time>2010-08-20T10:08:52Z</time>
      </trkpt>
      <trkpt lat="51.1503730" lon="7.3897000">
        <ele>339.4800000</ele>
        <time>2010-08-20T10:08:53Z</time>
      </trkpt>
      <trkpt lat="51.1502370" lon="7.3895520">
        <ele>338.5200000</ele>
        <time>2010-08-20T10:08:54Z</time>
      </trkpt>
      <trkpt lat="51.1501060" lon="7.3893780">
        <ele>337.5600000</ele>
        <time>2010-08-20T10:08:55Z</time>
      </trkpt>
      <trkpt lat="51.1499790" lon="7.3891860">
        <ele>336.6000000</ele>
        <time>2010-08-20T10:08:56Z</time>
      </trkpt>
      <trkpt lat="51.1489140" lon="7.3872850">
        <ele>326.9900000</ele>
        <time>2010-08-20T10:09:05Z</time>
      </trkpt>
      <trkpt lat="51.1479990" lon="7.3852270">
        <ele>316.4100000</ele>
        <time>2010-08-20T10:09:14Z</time>
      </trkpt>
      <trkpt lat="51.1471770" lon="7.3835490">
        <ele>305.3600000</ele>
        <time>2010-08-20T10:09:22Z</time>
      </trkpt>
      <trkpt lat="51.1469180" lon="7.3830770">
        <ele>301.9900000</ele>
        <time>2010-08-20T10:09:25Z</time>
      </trkpt>
      <trkpt lat="51.1468530" lon="7.3829250">
        <ele>301.0300000</ele>
        <time>2010-08-20T10:09:26Z</time>
      </trkpt>
      <trkpt lat="51.1464960" lon="7.3820090">
        <ele>296.7000000</ele>
        <time>2010-08-20T10:09:33Z</time>
      </trkpt>
      <trkpt lat="51.1457350" lon="7.3808230">
        <ele>296.2200000</ele>
        <time>2010-08-20T10:09:42Z</time>
      </trkpt>
      <trkpt lat="51.1448170" lon="7.3795050">
        <ele>296.7000000</ele>
        <time>2010-08-20T10:09:50Z</time>
      </trkpt>
      <trkpt lat="51.1436910" lon="7.3771560">
        <ele>296.2200000</ele>
        <time>2010-08-20T10:10:02Z</time>
      </trkpt>
      <trkpt lat="51.1429360" lon="7.3754300">
        <ele>296.7000000</ele>
        <time>2010-08-20T10:10:11Z</time>
      </trkpt>
      <trkpt lat="51.1425710" lon="7.3746770">
        <ele>296.2200000</ele>
        <time>2010-08-20T10:10:15Z</time>
      </trkpt>
      <trkpt lat="51.1424690" lon="7.3745300">
        <ele>296.2200000</ele>
        <time>2010-08-20T10:10:16Z</time>
      </trkpt>
      <trkpt lat="51.1423580" lon="7.3744100">
        <ele>295.7400000</ele>
        <time>2010-08-20T10:10:17Z</time>
      </trkpt>
      <trkpt lat="51.1422350" lon="7.3743080">
        <ele>295.2600000</ele>
        <time>2010-08-20T10:10:18Z</time>
      </trkpt>
      <trkpt lat="51.1421050" lon="7.3742170">
        <ele>295.2600000</ele>
        <time>2010-08-20T10:10:19Z</time>
      </trkpt>
      <trkpt lat="51.1411000" lon="7.3734570">
        <ele>295.2600000</ele>
        <time>2010-08-20T10:10:28Z</time>
      </trkpt>
      <trkpt lat="51.1409300" lon="7.3732750">
        <ele>295.7400000</ele>
        <time>2010-08-20T10:10:31Z</time>
      </trkpt>
      <trkpt lat="51.1409070" lon="7.3732310">
        <ele>296.2200000</ele>
        <time>2010-08-20T10:10:32Z</time>
      </trkpt>
      <trkpt lat="51.1408710" lon="7.3731770">
        <ele>295.7400000</ele>
        <time>2010-08-20T10:10:34Z</time>
      </trkpt>
      <trkpt lat="51.1408490" lon="7.3731820">
        <ele>296.2200000</ele>
        <time>2010-08-20T10:10:35Z</time>
      </trkpt>
      <trkpt lat="51.1408350" lon="7.3732010">
        <ele>296.2200000</ele>
        <time>2010-08-20T10:10:36Z</time>
      </trkpt>
      <trkpt lat="51.1408270" lon="7.3732200">
        <ele>297.1800000</ele>
        <time>2010-08-20T10:10:37Z</time>
      </trkpt>
      <trkpt lat="51.1408250" lon="7.3732470">
        <ele>296.7000000</ele>
        <time>2010-08-20T10:10:38Z</time>
      </trkpt>
      <trkpt lat="51.1408260" lon="7.3732810">
        <ele>296.2200000</ele>
        <time>2010-08-20T10:10:39Z</time>
      </trkpt>
      <trkpt lat="51.1408360" lon="7.3733300">
        <ele>295.2600000</ele>
        <time>2010-08-20T10:10:40Z</time>
      </trkpt>
      <trkpt lat="51.1408640" lon="7.3733940">
        <ele>294.7800000</ele>
        <time>2010-08-20T10:10:41Z</time>
      </trkpt>
      <trkpt lat="51.1408970" lon="7.3734510">
        <ele>293.8200000</ele>
        <time>2010-08-20T10:10:42Z</time>
      </trkpt>
      <trkpt lat="51.1409280" lon="7.3734940">
        <ele>293.8200000</ele>
        <time>2010-08-20T10:10:43Z</time>
      </trkpt>
      <trkpt lat="51.1409590" lon="7.3735250">
        <ele>293.8200000</ele>
        <time>2010-08-20T10:10:44Z</time>
      </trkpt>
      <trkpt lat="51.1409820" lon="7.3735360">
        <ele>293.8200000</ele>
        <time>2010-08-20T10:10:45Z</time>
      </trkpt>
      <trkpt lat="51.1410010" lon="7.3735360">
        <ele>293.8200000</ele>
        <time>2010-08-20T10:10:46Z</time>
      </trkpt>
      <trkpt lat="51.1410060" lon="7.3735050">
        <ele>298.6300000</ele>
        <time>2010-08-20T10:10:57Z</time>
      </trkpt>
      <trkpt lat="51.1410110" lon="7.3735120">
        <ele>289.9700000</ele>
        <time>2010-08-20T10:12:00Z</time>
      </trkpt>
      <trkpt lat="51.1409910" lon="7.3734960">
        <ele>289.4900000</ele>
        <time>2010-08-20T10:12:54Z</time>
      </trkpt>
      <trkpt lat="51.1412620" lon="7.3737900">
        <ele>285.6500000</ele>
        <time>2010-08-20T10:19:55Z</time>
      </trkpt>
      <trkpt lat="51.1423150" lon="7.3746160">
        <ele>285.6500000</ele>
        <time>2010-08-20T10:20:05Z</time>
      </trkpt>
      <trkpt lat="51.1424290" lon="7.3747270">
        <ele>284.6900000</ele>
        <time>2010-08-20T10:20:06Z</time>
      </trkpt>
      <trkpt lat="51.1425520" lon="7.3749210">
        <ele>284.6900000</ele>
        <time>2010-08-20T10:20:07Z</time>
      </trkpt>
      <trkpt lat="51.1427180" lon="7.3750910">
        <ele>285.6500000</ele>
        <time>2010-08-20T10:20:08Z</time>
      </trkpt>
      <trkpt lat="51.1428520" lon="7.3752740">
        <ele>286.6100000</ele>
        <time>2010-08-20T10:20:09Z</time>
      </trkpt>
      <trkpt lat="51.1429550" lon="7.3754620">
        <ele>287.0900000</ele>
        <time>2010-08-20T10:20:10Z</time>
      </trkpt>
      <trkpt lat="51.1430400" lon="7.3756410">
        <ele>287.5700000</ele>
        <time>2010-08-20T10:20:11Z</time>
      </trkpt>
      <trkpt lat="51.1438590" lon="7.3775840">
        <ele>292.3800000</ele>
        <time>2010-08-20T10:20:23Z</time>
      </trkpt>
      <trkpt lat="51.1441670" lon="7.3783170">
        <ele>293.3400000</ele>
        <time>2010-08-20T10:20:32Z</time>
      </trkpt>
      <trkpt lat="51.1441940" lon="7.3783810">
        <ele>292.8600000</ele>
        <time>2010-08-20T10:20:33Z</time>
      </trkpt>
      <trkpt lat="51.1445250" lon="7.3790760">
        <ele>293.3400000</ele>
        <time>2010-08-20T10:20:39Z</time>
      </trkpt>
      <trkpt lat="51.1452660" lon="7.3803480">
        <ele>293.3400000</ele>
        <time>2010-08-20T10:20:46Z</time>
      </trkpt>
      <trkpt lat="51.1461870" lon="7.3815690">
        <ele>297.6700000</ele>
        <time>2010-08-20T10:20:53Z</time>
      </trkpt>
      <trkpt lat="51.1469780" lon="7.3832350">
        <ele>302.4700000</ele>
        <time>2010-08-20T10:21:02Z</time>
      </trkpt>
      <trkpt lat="51.1471610" lon="7.3836010">
        <ele>305.3600000</ele>
        <time>2010-08-20T10:21:04Z</time>
      </trkpt>
      <trkpt lat="51.1480100" lon="7.3851940">
        <ele>313.5300000</ele>
        <time>2010-08-20T10:21:14Z</time>
      </trkpt>
      <trkpt lat="51.1486270" lon="7.3866490">
        <ele>321.2200000</ele>
        <time>2010-08-20T10:21:21Z</time>
      </trkpt>
      <trkpt lat="51.1498790" lon="7.3889150">
        <ele>334.6800000</ele>
        <time>2010-08-20T10:21:33Z</time>
      </trkpt>
      <trkpt lat="51.1502750" lon="7.3895710">
        <ele>338.0400000</ele>
        <time>2010-08-20T10:21:36Z</time>
      </trkpt>
      <trkpt lat="51.1504230" lon="7.3897510">
        <ele>339.4800000</ele>
        <time>2010-08-20T10:21:37Z</time>
      </trkpt>
      <trkpt lat="51.1505730" lon="7.3898990">
        <ele>340.4400000</ele>
        <time>2010-08-20T10:21:38Z</time>
      </trkpt>
      <trkpt lat="51.1507200" lon="7.3900150">
        <ele>340.9200000</ele>
        <time>2010-08-20T10:21:39Z</time>
      </trkpt>
      <trkpt lat="51.1508570" lon="7.3901050">
        <ele>341.8900000</ele>
        <time>2010-08-20T10:21:40Z</time>
      </trkpt>
      <trkpt lat="51.1509870" lon="7.3901700">
        <ele>341.8900000</ele>
        <time>2010-08-20T10:21:41Z</time>
      </trkpt>
      <trkpt lat="51.1511100" lon="7.3902110">
        <ele>342.3700000</ele>
        <time>2010-08-20T10:21:42Z</time>
      </trkpt>
      <trkpt lat="51.1512250" lon="7.3902370">
        <ele>342.3700000</ele>
        <time>2010-08-20T10:21:43Z</time>
      </trkpt>
      <trkpt lat="51.1515020" lon="7.3902900">
        <ele>342.8500000</ele>
        <time>2010-08-20T10:21:46Z</time>
      </trkpt>
      <trkpt lat="51.1515510" lon="7.3903170">
        <ele>342.8500000</ele>
        <time>2010-08-20T10:21:47Z</time>
      </trkpt>
      <trkpt lat="51.1515690" lon="7.3903720">
        <ele>342.8500000</ele>
        <time>2010-08-20T10:21:48Z</time>
      </trkpt>
      <trkpt lat="51.1515250" lon="7.3905310">
        <ele>343.3300000</ele>
        <time>2010-08-20T10:21:50Z</time>
      </trkpt>
      <trkpt lat="51.1514290" lon="7.3905590">
        <ele>343.8100000</ele>
        <time>2010-08-20T10:21:51Z</time>
      </trkpt>
      <trkpt lat="51.1512940" lon="7.3905870">
        <ele>344.2900000</ele>
        <time>2010-08-20T10:21:52Z</time>
      </trkpt>
      <trkpt lat="51.1511480" lon="7.3906380">
        <ele>344.7700000</ele>
        <time>2010-08-20T10:21:53Z</time>
      </trkpt>
      <trkpt lat="51.1509810" lon="7.3906910">
        <ele>345.7300000</ele>
        <time>2010-08-20T10:21:54Z</time>
      </trkpt>
      <trkpt lat="51.1498250" lon="7.3911010">
        <ele>350.0600000</ele>
        <time>2010-08-20T10:22:01Z</time>
      </trkpt>
      <trkpt lat="51.1497080" lon="7.3911940">
        <ele>350.0600000</ele>
        <time>2010-08-20T10:22:02Z</time>
      </trkpt>
      <trkpt lat="51.1496050" lon="7.3912960">
        <ele>350.0600000</ele>
        <time>2010-08-20T10:22:03Z</time>
      </trkpt>
      <trkpt lat="51.1495150" lon="7.3914030">
        <ele>349.5800000</ele>
        <time>2010-08-20T10:22:04Z</time>
      </trkpt>
      <trkpt lat="51.1494390" lon="7.3915020">
        <ele>349.5800000</ele>
        <time>2010-08-20T10:22:05Z</time>
      </trkpt>
      <trkpt lat="51.1493210" lon="7.3917230">
        <ele>349.1000000</ele>
        <time>2010-08-20T10:22:08Z</time>
      </trkpt>
      <trkpt lat="51.1493110" lon="7.3917930">
        <ele>348.6200000</ele>
        <time>2010-08-20T10:22:09Z</time>
      </trkpt>
      <trkpt lat="51.1493200" lon="7.3919080">
        <ele>347.6500000</ele>
        <time>2010-08-20T10:22:10Z</time>
      </trkpt>
      <trkpt lat="51.1493900" lon="7.3920090">
        <ele>347.6500000</ele>
        <time>2010-08-20T10:22:11Z</time>
      </trkpt>
      <trkpt lat="51.1494250" lon="7.3921680">
        <ele>346.6900000</ele>
        <time>2010-08-20T10:22:12Z</time>
      </trkpt>
      <trkpt lat="51.1495110" lon="7.3922930">
        <ele>346.6900000</ele>
        <time>2010-08-20T10:22:13Z</time>
      </trkpt>
      <trkpt lat="51.1495910" lon="7.3924230">
        <ele>346.6900000</ele>
        <time>2010-08-20T10:22:14Z</time>
      </trkpt>
      <trkpt lat="51.1496550" lon="7.3925480">
        <ele>346.6900000</ele>
        <time>2010-08-20T10:22:15Z</time>
      </trkpt>
      <trkpt lat="51.1497180" lon="7.3926560">
        <ele>346.6900000</ele>
        <time>2010-08-20T10:22:16Z</time>
      </trkpt>
      <trkpt lat="51.1497800" lon="7.3927420">
        <ele>346.2100000</ele>
        <time>2010-08-20T10:22:17Z</time>
      </trkpt>
      <trkpt lat="51.1498420" lon="7.3928040">
        <ele>346.2100000</ele>
        <time>2010-08-20T10:22:18Z</time>
      </trkpt>
      <trkpt lat="51.1498970" lon="7.3928440">
        <ele>346.2100000</ele>
        <time>2010-08-20T10:22:19Z</time>
      </trkpt>
      <trkpt lat="51.1499470" lon="7.3928880">
        <ele>345.7300000</ele>
        <time>2010-08-20T10:22:20Z</time>
      </trkpt>
      <trkpt lat="51.1500100" lon="7.3929330">
        <ele>346.2100000</ele>
        <time>2010-08-20T10:22:21Z</time>
      </trkpt>
      <trkpt lat="51.1500650" lon="7.3930030">
        <ele>345.7300000</ele>
        <time>2010-08-20T10:22:22Z</time>
      </trkpt>
      <trkpt lat="51.1501200" lon="7.3930910">
        <ele>345.7300000</ele>
        <time>2010-08-20T10:22:23Z</time>
      </trkpt>
      <trkpt lat="51.1501450" lon="7.3932090">
        <ele>345.7300000</ele>
        <time>2010-08-20T10:22:24Z</time>
      </trkpt>
      <trkpt lat="51.1501450" lon="7.3933520">
        <ele>345.7300000</ele>
        <time>2010-08-20T10:22:25Z</time>
      </trkpt>
      <trkpt lat="51.1501120" lon="7.3934880">
        <ele>345.7300000</ele>
        <time>2010-08-20T10:22:26Z</time>
      </trkpt>
      <trkpt lat="51.1500580" lon="7.3935890">
        <ele>345.2500000</ele>
        <time>2010-08-20T10:22:27Z</time>
      </trkpt>
      <trkpt lat="51.1500050" lon="7.3936630">
        <ele>345.7300000</ele>
        <time>2010-08-20T10:22:28Z</time>
      </trkpt>
      <trkpt lat="51.1497900" lon="7.3947750">
        <ele>346.6900000</ele>
        <time>2010-08-20T10:22:34Z</time>
      </trkpt>
      <trkpt lat="51.1497800" lon="7.3952660">
        <ele>345.2500000</ele>
        <time>2010-08-20T10:22:36Z</time>
      </trkpt>
      <trkpt lat="51.1498250" lon="7.3955080">
        <ele>344.2900000</ele>
        <time>2010-08-20T10:22:37Z</time>
      </trkpt>
      <trkpt lat="51.1498800" lon="7.3957500">
        <ele>342.8500000</ele>
        <time>2010-08-20T10:22:38Z</time>
      </trkpt>
      <trkpt lat="51.1499480" lon="7.3959820">
        <ele>342.3700000</ele>
        <time>2010-08-20T10:22:39Z</time>
      </trkpt>
      <trkpt lat="51.1500100" lon="7.3961870">
        <ele>341.4100000</ele>
        <time>2010-08-20T10:22:40Z</time>
      </trkpt>
      <trkpt lat="51.1500260" lon="7.3965600">
        <ele>341.8900000</ele>
        <time>2010-08-20T10:22:42Z</time>
      </trkpt>
      <trkpt lat="51.1499850" lon="7.3968000">
        <ele>341.4100000</ele>
        <time>2010-08-20T10:22:43Z</time>
      </trkpt>
      <trkpt lat="51.1499020" lon="7.3970270">
        <ele>340.9200000</ele>
        <time>2010-08-20T10:22:44Z</time>
      </trkpt>
      <trkpt lat="51.1498230" lon="7.3972620">
        <ele>340.9200000</ele>
        <time>2010-08-20T10:22:45Z</time>
      </trkpt>
      <trkpt lat="51.1497590" lon="7.3974950">
        <ele>340.9200000</ele>
        <time>2010-08-20T10:22:46Z</time>
      </trkpt>
      <trkpt lat="51.1498250" lon="7.3991960">
        <ele>343.3300000</ele>
        <time>2010-08-20T10:22:53Z</time>
      </trkpt>
      <trkpt lat="51.1499400" lon="7.3998100">
        <ele>342.8500000</ele>
        <time>2010-08-20T10:22:55Z</time>
      </trkpt>
      <trkpt lat="51.1500170" lon="7.4000580">
        <ele>341.4100000</ele>
        <time>2010-08-20T10:22:56Z</time>
      </trkpt>
      <trkpt lat="51.1502170" lon="7.4010850">
        <ele>339.9600000</ele>
        <time>2010-08-20T10:23:00Z</time>
      </trkpt>
      <trkpt lat="51.1502280" lon="7.4013600">
        <ele>338.5200000</ele>
        <time>2010-08-20T10:23:01Z</time>
      </trkpt>
      <trkpt lat="51.1502200" lon="7.4016570">
        <ele>338.0400000</ele>
        <time>2010-08-20T10:23:02Z</time>
      </trkpt>
      <trkpt lat="51.1501210" lon="7.4040250">
        <ele>342.8500000</ele>
        <time>2010-08-20T10:23:11Z</time>
      </trkpt>
      <trkpt lat="51.1501110" lon="7.4061250">
        <ele>346.6900000</ele>
        <time>2010-08-20T10:23:20Z</time>
      </trkpt>
      <trkpt lat="51.1501700" lon="7.4067110">
        <ele>347.6500000</ele>
        <time>2010-08-20T10:23:26Z</time>
      </trkpt>
      <trkpt lat="51.1501690" lon="7.4067460">
        <ele>348.1300000</ele>
        <time>2010-08-20T10:23:27Z</time>
      </trkpt>
      <trkpt lat="51.1500990" lon="7.4067840">
        <ele>349.1000000</ele>
        <time>2010-08-20T10:23:35Z</time>
      </trkpt>
      <trkpt lat="51.1501130" lon="7.4067960">
        <ele>350.0600000</ele>
        <time>2010-08-20T10:24:57Z</time>
      </trkpt>
      <trkpt lat="51.1501450" lon="7.4067360">
        <ele>352.9400000</ele>
        <time>2010-08-20T10:25:32Z</time>
      </trkpt>
      <trkpt lat="51.1501420" lon="7.4066580">
        <ele>364.9600000</ele>
        <time>2010-08-20T10:26:37Z</time>
      </trkpt>
      <trkpt lat="51.1501710" lon="7.4066450">
        <ele>360.1500000</ele>
        <time>2010-08-20T10:31:53Z</time>
      </trkpt>
      <trkpt lat="51.1501480" lon="7.4067050">
        <ele>355.3400000</ele>
        <time>2010-08-20T10:33:52Z</time>
      </trkpt>
      <trkpt lat="51.1501870" lon="7.4068400">
        <ele>344.2900000</ele>
        <time>2010-08-20T10:37:42Z</time>
      </trkpt>
      <trkpt lat="51.1501880" lon="7.4066050">
        <ele>369.2800000</ele>
        <time>2010-08-20T10:40:30Z</time>
      </trkpt>
      <trkpt lat="51.1502140" lon="7.4066920">
        <ele>360.6300000</ele>
        <time>2010-08-20T10:40:44Z</time>
      </trkpt>
      <trkpt lat="51.1501820" lon="7.4067320">
        <ele>353.4200000</ele>
        <time>2010-08-20T10:41:18Z</time>
      </trkpt>
      <trkpt lat="51.1502410" lon="7.4068330">
        <ele>353.9000000</ele>
        <time>2010-08-20T10:41:21Z</time>
      </trkpt>
      <trkpt lat="51.1502670" lon="7.4069090">
        <ele>354.3800000</ele>
        <time>2010-08-20T10:41:22Z</time>
      </trkpt>
      <trkpt lat="51.1502950" lon="7.4070070">
        <ele>354.8600000</ele>
        <time>2010-08-20T10:41:23Z</time>
      </trkpt>
      <trkpt lat="51.1506580" lon="7.4081610">
        <ele>357.2700000</ele>
        <time>2010-08-20T10:41:31Z</time>
      </trkpt>
      <trkpt lat="51.1508990" lon="7.4087460">
        <ele>356.3100000</ele>
        <time>2010-08-20T10:41:34Z</time>
      </trkpt>
      <trkpt lat="51.1510300" lon="7.4089700">
        <ele>355.3400000</ele>
        <time>2010-08-20T10:41:35Z</time>
      </trkpt>
      <trkpt lat="51.1520930" lon="7.4104180">
        <ele>349.5800000</ele>
        <time>2010-08-20T10:41:43Z</time>
      </trkpt>
      <trkpt lat="51.1523290" lon="7.4107800">
        <ele>348.1300000</ele>
        <time>2010-08-20T10:41:45Z</time>
      </trkpt>
      <trkpt lat="51.1524320" lon="7.4109890">
        <ele>347.1700000</ele>
        <time>2010-08-20T10:41:46Z</time>
      </trkpt>
      <trkpt lat="51.1525280" lon="7.4112230">
        <ele>345.7300000</ele>
        <time>2010-08-20T10:41:47Z</time>
      </trkpt>
      <trkpt lat="51.1526150" lon="7.4114780">
        <ele>344.7700000</ele>
        <time>2010-08-20T10:41:48Z</time>
      </trkpt>
      <trkpt lat="51.1527040" lon="7.4117360">
        <ele>343.3300000</ele>
        <time>2010-08-20T10:41:49Z</time>
      </trkpt>
      <trkpt lat="51.1528080" lon="7.4119860">
        <ele>342.3700000</ele>
        <time>2010-08-20T10:41:50Z</time>
      </trkpt>
      <trkpt lat="51.1529320" lon="7.4122330">
        <ele>341.4100000</ele>
        <time>2010-08-20T10:41:51Z</time>
      </trkpt>
      <trkpt lat="51.1540050" lon="7.4139600">
        <ele>342.8500000</ele>
        <time>2010-08-20T10:41:59Z</time>
      </trkpt>
      <trkpt lat="51.1548820" lon="7.4155460">
        <ele>350.5400000</ele>
        <time>2010-08-20T10:42:07Z</time>
      </trkpt>
      <trkpt lat="51.1557810" lon="7.4167590">
        <ele>355.8300000</ele>
        <time>2010-08-20T10:42:13Z</time>
      </trkpt>
      <trkpt lat="51.1566820" lon="7.4174140">
        <ele>360.6300000</ele>
        <time>2010-08-20T10:42:19Z</time>
      </trkpt>
      <trkpt lat="51.1571320" lon="7.4177050">
        <ele>365.9200000</ele>
        <time>2010-08-20T10:42:25Z</time>
      </trkpt>
      <trkpt lat="51.1572310" lon="7.4177940">
        <ele>366.8800000</ele>
        <time>2010-08-20T10:42:26Z</time>
      </trkpt>
      <trkpt lat="51.1573380" lon="7.4179100">
        <ele>367.3600000</ele>
        <time>2010-08-20T10:42:27Z</time>
      </trkpt>
      <trkpt lat="51.1574550" lon="7.4180620">
        <ele>368.8000000</ele>
        <time>2010-08-20T10:42:28Z</time>
      </trkpt>
      <trkpt lat="51.1578970" lon="7.4186920">
        <ele>369.7600000</ele>
        <time>2010-08-20T10:42:31Z</time>
      </trkpt>
      <trkpt lat="51.1588830" lon="7.4197350">
        <ele>366.8800000</ele>
        <time>2010-08-20T10:42:35Z</time>
      </trkpt>
      <trkpt lat="51.1602360" lon="7.4212440">
        <ele>364.0000000</ele>
        <time>2010-08-20T10:42:41Z</time>
      </trkpt>
      <trkpt lat="51.1608500" lon="7.4218000">
        <ele>362.5500000</ele>
        <time>2010-08-20T10:42:44Z</time>
      </trkpt>
      <trkpt lat="51.1610610" lon="7.4219200">
        <ele>362.0700000</ele>
        <time>2010-08-20T10:42:45Z</time>
      </trkpt>
      <trkpt lat="51.1622790" lon="7.4223950">
        <ele>363.0400000</ele>
        <time>2010-08-20T10:42:51Z</time>
      </trkpt>
      <trkpt lat="51.1633870" lon="7.4228280">
        <ele>359.6700000</ele>
        <time>2010-08-20T10:42:56Z</time>
      </trkpt>
      <trkpt lat="51.1636010" lon="7.4230050">
        <ele>359.6700000</ele>
        <time>2010-08-20T10:42:57Z</time>
      </trkpt>
      <trkpt lat="51.1650360" lon="7.4237230">
        <ele>357.7500000</ele>
        <time>2010-08-20T10:43:03Z</time>
      </trkpt>
      <trkpt lat="51.1663690" lon="7.4238560">
        <ele>360.6300000</ele>
        <time>2010-08-20T10:43:09Z</time>
      </trkpt>
      <trkpt lat="51.1676330" lon="7.4245670">
        <ele>363.5200000</ele>
        <time>2010-08-20T10:43:14Z</time>
      </trkpt>
      <trkpt lat="51.1690120" lon="7.4259690">
        <ele>368.3200000</ele>
        <time>2010-08-20T10:43:20Z</time>
      </trkpt>
      <trkpt lat="51.1700250" lon="7.4266210">
        <ele>374.5700000</ele>
        <time>2010-08-20T10:43:25Z</time>
      </trkpt>
      <trkpt lat="51.1716190" lon="7.4278300">
        <ele>377.9400000</ele>
        <time>2010-08-20T10:43:33Z</time>
      </trkpt>
      <trkpt lat="51.1717730" lon="7.4278960">
        <ele>378.9000000</ele>
        <time>2010-08-20T10:43:34Z</time>
      </trkpt>
      <trkpt lat="51.1719180" lon="7.4279270">
        <ele>379.8600000</ele>
        <time>2010-08-20T10:43:35Z</time>
      </trkpt>
      <trkpt lat="51.1720500" lon="7.4279330">
        <ele>381.3000000</ele>
        <time>2010-08-20T10:43:36Z</time>
      </trkpt>
      <trkpt lat="51.1730220" lon="7.4279330">
        <ele>388.5100000</ele>
        <time>2010-08-20T10:43:44Z</time>
      </trkpt>
      <trkpt lat="51.1731780" lon="7.4278740">
        <ele>389.4700000</ele>
        <time>2010-08-20T10:43:45Z</time>
      </trkpt>
      <trkpt lat="51.1733340" lon="7.4277300">
        <ele>389.9500000</ele>
        <time>2010-08-20T10:43:46Z</time>
      </trkpt>
      <trkpt lat="51.1735010" lon="7.4275280">
        <ele>389.9500000</ele>
        <time>2010-08-20T10:43:47Z</time>
      </trkpt>
      <trkpt lat="51.1736810" lon="7.4272720">
        <ele>390.4300000</ele>
        <time>2010-08-20T10:43:48Z</time>
      </trkpt>
      <trkpt lat="51.1738730" lon="7.4270330">
        <ele>390.9100000</ele>
        <time>2010-08-20T10:43:49Z</time>
      </trkpt>
      <trkpt lat="51.1740920" lon="7.4268250">
        <ele>391.3900000</ele>
        <time>2010-08-20T10:43:50Z</time>
      </trkpt>
      <trkpt lat="51.1743320" lon="7.4266470">
        <ele>392.3600000</ele>
        <time>2010-08-20T10:43:51Z</time>
      </trkpt>
      <trkpt lat="51.1745780" lon="7.4265010">
        <ele>393.3200000</ele>
        <time>2010-08-20T10:43:52Z</time>
      </trkpt>
      <trkpt lat="51.1748160" lon="7.4263860">
        <ele>393.8000000</ele>
        <time>2010-08-20T10:43:53Z</time>
      </trkpt>
      <trkpt lat="51.1750480" lon="7.4262860">
        <ele>393.8000000</ele>
        <time>2010-08-20T10:43:54Z</time>
      </trkpt>
      <trkpt lat="51.1758090" lon="7.4259890">
        <ele>394.2800000</ele>
        <time>2010-08-20T10:43:58Z</time>
      </trkpt>
      <trkpt lat="51.1759540" lon="7.4260280">
        <ele>394.7600000</ele>
        <time>2010-08-20T10:43:59Z</time>
      </trkpt>
      <trkpt lat="51.1760970" lon="7.4261310">
        <ele>394.2800000</ele>
        <time>2010-08-20T10:44:00Z</time>
      </trkpt>
      <trkpt lat="51.1762540" lon="7.4262950">
        <ele>394.2800000</ele>
        <time>2010-08-20T10:44:01Z</time>
      </trkpt>
      <trkpt lat="51.1764250" lon="7.4265080">
        <ele>395.2400000</ele>
        <time>2010-08-20T10:44:02Z</time>
      </trkpt>
      <trkpt lat="51.1765980" lon="7.4267280">
        <ele>395.7200000</ele>
        <time>2010-08-20T10:44:03Z</time>
      </trkpt>
      <trkpt lat="51.1775790" lon="7.4284100">
        <ele>396.6800000</ele>
        <time>2010-08-20T10:44:10Z</time>
      </trkpt>
      <trkpt lat="51.1782170" lon="7.4306730">
        <ele>398.6000000</ele>
        <time>2010-08-20T10:44:18Z</time>
      </trkpt>
      <trkpt lat="51.1783430" lon="7.4315090">
        <ele>398.1200000</ele>
        <time>2010-08-20T10:44:21Z</time>
      </trkpt>
      <trkpt lat="51.1783980" lon="7.4317680">
        <ele>398.1200000</ele>
        <time>2010-08-20T10:44:22Z</time>
      </trkpt>
      <trkpt lat="51.1784810" lon="7.4320340">
        <ele>397.6400000</ele>
        <time>2010-08-20T10:44:23Z</time>
      </trkpt>
      <trkpt lat="51.1786210" lon="7.4322920">
        <ele>396.6800000</ele>
        <time>2010-08-20T10:44:24Z</time>
      </trkpt>
      <trkpt lat="51.1788070" lon="7.4325590">
        <ele>395.7200000</ele>
        <time>2010-08-20T10:44:25Z</time>
      </trkpt>
      <trkpt lat="51.1790080" lon="7.4328320">
        <ele>394.2800000</ele>
        <time>2010-08-20T10:44:26Z</time>
      </trkpt>
      <trkpt lat="51.1801940" lon="7.4343420">
        <ele>386.1100000</ele>
        <time>2010-08-20T10:44:32Z</time>
      </trkpt>
      <trkpt lat="51.1812430" lon="7.4355040">
        <ele>380.3400000</ele>
        <time>2010-08-20T10:44:38Z</time>
      </trkpt>
      <trkpt lat="51.1814060" lon="7.4356340">
        <ele>379.8600000</ele>
        <time>2010-08-20T10:44:39Z</time>
      </trkpt>
      <trkpt lat="51.1815790" lon="7.4357300">
        <ele>379.3800000</ele>
        <time>2010-08-20T10:44:40Z</time>
      </trkpt>
      <trkpt lat="51.1817430" lon="7.4357940">
        <ele>378.4200000</ele>
        <time>2010-08-20T10:44:41Z</time>
      </trkpt>
      <trkpt lat="51.1818920" lon="7.4358500">
        <ele>378.4200000</ele>
        <time>2010-08-20T10:44:42Z</time>
      </trkpt>
      <trkpt lat="51.1820180" lon="7.4359240">
        <ele>377.9400000</ele>
        <time>2010-08-20T10:44:43Z</time>
      </trkpt>
      <trkpt lat="51.1821240" lon="7.4360600">
        <ele>377.4500000</ele>
        <time>2010-08-20T10:44:44Z</time>
      </trkpt>
      <trkpt lat="51.1822170" lon="7.4362410">
        <ele>377.9400000</ele>
        <time>2010-08-20T10:44:45Z</time>
      </trkpt>
      <trkpt lat="51.1822900" lon="7.4364480">
        <ele>377.4500000</ele>
        <time>2010-08-20T10:44:46Z</time>
      </trkpt>
      <trkpt lat="51.1823420" lon="7.4366540">
        <ele>377.4500000</ele>
        <time>2010-08-20T10:44:47Z</time>
      </trkpt>
      <trkpt lat="51.1823730" lon="7.4368480">
        <ele>377.4500000</ele>
        <time>2010-08-20T10:44:48Z</time>
      </trkpt>
      <trkpt lat="51.1823620" lon="7.4370360">
        <ele>377.9400000</ele>
        <time>2010-08-20T10:44:49Z</time>
      </trkpt>
      <trkpt lat="51.1823190" lon="7.4372030">
        <ele>377.9400000</ele>
        <time>2010-08-20T10:44:50Z</time>
      </trkpt>
      <trkpt lat="51.1822290" lon="7.4373660">
        <ele>377.9400000</ele>
        <time>2010-08-20T10:44:51Z</time>
      </trkpt>
      <trkpt lat="51.1821000" lon="7.4375140">
        <ele>377.9400000</ele>
        <time>2010-08-20T10:44:52Z</time>
      </trkpt>
      <trkpt lat="51.1819470" lon="7.4376860">
        <ele>378.4200000</ele>
        <time>2010-08-20T10:44:53Z</time>
      </trkpt>
      <trkpt lat="51.1817760" lon="7.4378830">
        <ele>378.9000000</ele>
        <time>2010-08-20T10:44:54Z</time>
      </trkpt>
      <trkpt lat="51.1814700" lon="7.4383620">
        <ele>380.8200000</ele>
        <time>2010-08-20T10:44:56Z</time>
      </trkpt>
      <trkpt lat="51.1813380" lon="7.4386280">
        <ele>382.2600000</ele>
        <time>2010-08-20T10:44:57Z</time>
      </trkpt>
      <trkpt lat="51.1810190" lon="7.4394500">
        <ele>387.0700000</ele>
        <time>2010-08-20T10:45:01Z</time>
      </trkpt>
      <trkpt lat="51.1810110" lon="7.4395860">
        <ele>387.5500000</ele>
        <time>2010-08-20T10:45:02Z</time>
      </trkpt>
      <trkpt lat="51.1810510" lon="7.4396970">
        <ele>388.0300000</ele>
        <time>2010-08-20T10:45:03Z</time>
      </trkpt>
      <trkpt lat="51.1811690" lon="7.4397820">
        <ele>389.9500000</ele>
        <time>2010-08-20T10:45:04Z</time>
      </trkpt>
      <trkpt lat="51.1812870" lon="7.4398850">
        <ele>390.9100000</ele>
        <time>2010-08-20T10:45:05Z</time>
      </trkpt>
      <trkpt lat="51.1814340" lon="7.4400210">
        <ele>390.9100000</ele>
        <time>2010-08-20T10:45:06Z</time>
      </trkpt>
      <trkpt lat="51.1823560" lon="7.4410870">
        <ele>388.9900000</ele>
        <time>2010-08-20T10:45:12Z</time>
      </trkpt>
      <trkpt lat="51.1825910" lon="7.4414260">
        <ele>388.5100000</ele>
        <time>2010-08-20T10:45:14Z</time>
      </trkpt>
      <trkpt lat="51.1826850" lon="7.4416040">
        <ele>387.5500000</ele>
        <time>2010-08-20T10:45:15Z</time>
      </trkpt>
      <trkpt lat="51.1828470" lon="7.4420060">
        <ele>385.6300000</ele>
        <time>2010-08-20T10:45:20Z</time>
      </trkpt>
      <trkpt lat="51.1828140" lon="7.4420760">
        <ele>385.6300000</ele>
        <time>2010-08-20T10:45:23Z</time>
      </trkpt>
      <trkpt lat="51.1827690" lon="7.4421150">
        <ele>385.6300000</ele>
        <time>2010-08-20T10:45:24Z</time>
      </trkpt>
      <trkpt lat="51.1826610" lon="7.4421400">
        <ele>385.6300000</ele>
        <time>2010-08-20T10:45:25Z</time>
      </trkpt>
      <trkpt lat="51.1819180" lon="7.4424010">
        <ele>387.5500000</ele>
        <time>2010-08-20T10:45:29Z</time>
      </trkpt>
      <trkpt lat="51.1800170" lon="7.4429540">
        <ele>393.8000000</ele>
        <time>2010-08-20T10:45:37Z</time>
      </trkpt>
      <trkpt lat="51.1798380" lon="7.4429990">
        <ele>394.2800000</ele>
        <time>2010-08-20T10:45:38Z</time>
      </trkpt>
      <trkpt lat="51.1796870" lon="7.4430950">
        <ele>395.2400000</ele>
        <time>2010-08-20T10:45:39Z</time>
      </trkpt>
      <trkpt lat="51.1795670" lon="7.4432630">
        <ele>395.2400000</ele>
        <time>2010-08-20T10:45:40Z</time>
      </trkpt>
      <trkpt lat="51.1794540" lon="7.4434720">
        <ele>395.7200000</ele>
        <time>2010-08-20T10:45:41Z</time>
      </trkpt>
      <trkpt lat="51.1793230" lon="7.4437260">
        <ele>396.6800000</ele>
        <time>2010-08-20T10:45:42Z</time>
      </trkpt>
      <trkpt lat="51.1791930" lon="7.4439990">
        <ele>397.1600000</ele>
        <time>2010-08-20T10:45:43Z</time>
      </trkpt>
      <trkpt lat="51.1790600" lon="7.4443000">
        <ele>398.1200000</ele>
        <time>2010-08-20T10:45:44Z</time>
      </trkpt>
      <trkpt lat="51.1783370" lon="7.4464810">
        <ele>403.4100000</ele>
        <time>2010-08-20T10:45:51Z</time>
      </trkpt>
      <trkpt lat="51.1779540" lon="7.4486360">
        <ele>406.2900000</ele>
        <time>2010-08-20T10:45:58Z</time>
      </trkpt>
      <trkpt lat="51.1778750" lon="7.4501140">
        <ele>408.2200000</ele>
        <time>2010-08-20T10:46:04Z</time>
      </trkpt>
      <trkpt lat="51.1778420" lon="7.4503160">
        <ele>408.2200000</ele>
        <time>2010-08-20T10:46:05Z</time>
      </trkpt>
      <trkpt lat="51.1776260" lon="7.4515060">
        <ele>405.8100000</ele>
        <time>2010-08-20T10:46:13Z</time>
      </trkpt>
      <trkpt lat="51.1774630" lon="7.4524550">
        <ele>403.4100000</ele>
        <time>2010-08-20T10:46:20Z</time>
      </trkpt>
      <trkpt lat="51.1773840" lon="7.4534070">
        <ele>401.9700000</ele>
        <time>2010-08-20T10:46:25Z</time>
      </trkpt>
      <trkpt lat="51.1773390" lon="7.4536100">
        <ele>401.4900000</ele>
        <time>2010-08-20T10:46:26Z</time>
      </trkpt>
      <trkpt lat="51.1772820" lon="7.4538010">
        <ele>401.0100000</ele>
        <time>2010-08-20T10:46:27Z</time>
      </trkpt>
      <trkpt lat="51.1769350" lon="7.4545460">
        <ele>399.0800000</ele>
        <time>2010-08-20T10:46:31Z</time>
      </trkpt>
      <trkpt lat="51.1768110" lon="7.4547040">
        <ele>399.0800000</ele>
        <time>2010-08-20T10:46:32Z</time>
      </trkpt>
      <trkpt lat="51.1766490" lon="7.4548390">
        <ele>397.6400000</ele>
        <time>2010-08-20T10:46:33Z</time>
      </trkpt>
      <trkpt lat="51.1754050" lon="7.4562380">
        <ele>388.5100000</ele>
        <time>2010-08-20T10:46:41Z</time>
      </trkpt>
      <trkpt lat="51.1751000" lon="7.4568040">
        <ele>387.0700000</ele>
        <time>2010-08-20T10:46:44Z</time>
      </trkpt>
      <trkpt lat="51.1750440" lon="7.4570310">
        <ele>386.1100000</ele>
        <time>2010-08-20T10:46:45Z</time>
      </trkpt>
      <trkpt lat="51.1749820" lon="7.4572570">
        <ele>385.1500000</ele>
        <time>2010-08-20T10:46:46Z</time>
      </trkpt>
      <trkpt lat="51.1743750" lon="7.4589740">
        <ele>381.7800000</ele>
        <time>2010-08-20T10:46:52Z</time>
      </trkpt>
      <trkpt lat="51.1737180" lon="7.4607180">
        <ele>385.6300000</ele>
        <time>2010-08-20T10:46:59Z</time>
      </trkpt>
      <trkpt lat="51.1726990" lon="7.4620050">
        <ele>399.5700000</ele>
        <time>2010-08-20T10:47:06Z</time>
      </trkpt>
      <trkpt lat="51.1714920" lon="7.4627610">
        <ele>407.2600000</ele>
        <time>2010-08-20T10:47:13Z</time>
      </trkpt>
      <trkpt lat="51.1703680" lon="7.4637460">
        <ele>406.2900000</ele>
        <time>2010-08-20T10:47:21Z</time>
      </trkpt>
      <trkpt lat="51.1703030" lon="7.4638640">
        <ele>406.2900000</ele>
        <time>2010-08-20T10:47:22Z</time>
      </trkpt>
      <trkpt lat="51.1702490" lon="7.4640010">
        <ele>406.2900000</ele>
        <time>2010-08-20T10:47:23Z</time>
      </trkpt>
      <trkpt lat="51.1702040" lon="7.4642210">
        <ele>406.2900000</ele>
        <time>2010-08-20T10:47:24Z</time>
      </trkpt>
      <trkpt lat="51.1701420" lon="7.4644570">
        <ele>406.2900000</ele>
        <time>2010-08-20T10:47:25Z</time>
      </trkpt>
      <trkpt lat="51.1700850" lon="7.4647270">
        <ele>406.2900000</ele>
        <time>2010-08-20T10:47:26Z</time>
      </trkpt>
      <trkpt lat="51.1697380" lon="7.4663700">
        <ele>408.2200000</ele>
        <time>2010-08-20T10:47:32Z</time>
      </trkpt>
      <trkpt lat="51.1697160" lon="7.4666120">
        <ele>408.2200000</ele>
        <time>2010-08-20T10:47:33Z</time>
      </trkpt>
      <trkpt lat="51.1697120" lon="7.4668660">
        <ele>408.7000000</ele>
        <time>2010-08-20T10:47:34Z</time>
      </trkpt>
      <trkpt lat="51.1697250" lon="7.4671320">
        <ele>408.7000000</ele>
        <time>2010-08-20T10:47:35Z</time>
      </trkpt>
      <trkpt lat="51.1697570" lon="7.4674000">
        <ele>408.7000000</ele>
        <time>2010-08-20T10:47:36Z</time>
      </trkpt>
      <trkpt lat="51.1697940" lon="7.4676610">
        <ele>408.2200000</ele>
        <time>2010-08-20T10:47:37Z</time>
      </trkpt>
      <trkpt lat="51.1698300" lon="7.4679080">
        <ele>408.2200000</ele>
        <time>2010-08-20T10:47:38Z</time>
      </trkpt>
      <trkpt lat="51.1698730" lon="7.4690970">
        <ele>405.8100000</ele>
        <time>2010-08-20T10:47:42Z</time>
      </trkpt>
      <trkpt lat="51.1697660" lon="7.4699940">
        <ele>402.9300000</ele>
        <time>2010-08-20T10:47:45Z</time>
      </trkpt>
      <trkpt lat="51.1696920" lon="7.4702370">
        <ele>401.4900000</ele>
        <time>2010-08-20T10:47:46Z</time>
      </trkpt>
      <trkpt lat="51.1694890" lon="7.4706110">
        <ele>401.0100000</ele>
        <time>2010-08-20T10:47:48Z</time>
      </trkpt>
      <trkpt lat="51.1693820" lon="7.4708000">
        <ele>400.0500000</ele>
        <time>2010-08-20T10:47:49Z</time>
      </trkpt>
      <trkpt lat="51.1692500" lon="7.4709830">
        <ele>399.0800000</ele>
        <time>2010-08-20T10:47:50Z</time>
      </trkpt>
      <trkpt lat="51.1690560" lon="7.4711160">
        <ele>400.5300000</ele>
        <time>2010-08-20T10:47:51Z</time>
      </trkpt>
      <trkpt lat="51.1688680" lon="7.4712510">
        <ele>400.5300000</ele>
        <time>2010-08-20T10:47:52Z</time>
      </trkpt>
      <trkpt lat="51.1686820" lon="7.4713950">
        <ele>400.0500000</ele>
        <time>2010-08-20T10:47:53Z</time>
      </trkpt>
      <trkpt lat="51.1673720" lon="7.4726720">
        <ele>397.6400000</ele>
        <time>2010-08-20T10:48:00Z</time>
      </trkpt>
      <trkpt lat="51.1665250" lon="7.4733920">
        <ele>396.6800000</ele>
        <time>2010-08-20T10:48:05Z</time>
      </trkpt>
      <trkpt lat="51.1664240" lon="7.4735980">
        <ele>396.6800000</ele>
        <time>2010-08-20T10:48:06Z</time>
      </trkpt>
      <trkpt lat="51.1663420" lon="7.4738660">
        <ele>396.2000000</ele>
        <time>2010-08-20T10:48:07Z</time>
      </trkpt>
      <trkpt lat="51.1662640" lon="7.4741540">
        <ele>396.2000000</ele>
        <time>2010-08-20T10:48:08Z</time>
      </trkpt>
      <trkpt lat="51.1661930" lon="7.4744440">
        <ele>396.6800000</ele>
        <time>2010-08-20T10:48:09Z</time>
      </trkpt>
      <trkpt lat="51.1658170" lon="7.4759790">
        <ele>399.0800000</ele>
        <time>2010-08-20T10:48:16Z</time>
      </trkpt>
      <trkpt lat="51.1653340" lon="7.4786790">
        <ele>402.9300000</ele>
        <time>2010-08-20T10:48:30Z</time>
      </trkpt>
      <trkpt lat="51.1650180" lon="7.4799260">
        <ele>403.4100000</ele>
        <time>2010-08-20T10:48:38Z</time>
      </trkpt>
      <trkpt lat="51.1646240" lon="7.4816830">
        <ele>402.4500000</ele>
        <time>2010-08-20T10:48:47Z</time>
      </trkpt>
      <trkpt lat="51.1645550" lon="7.4817540">
        <ele>402.9300000</ele>
        <time>2010-08-20T10:48:48Z</time>
      </trkpt>
      <trkpt lat="51.1644770" lon="7.4817690">
        <ele>403.4100000</ele>
        <time>2010-08-20T10:48:49Z</time>
      </trkpt>
      <trkpt lat="51.1644230" lon="7.4817700">
        <ele>403.4100000</ele>
        <time>2010-08-20T10:48:50Z</time>
      </trkpt>
      <trkpt lat="51.1643880" lon="7.4817570">
        <ele>403.4100000</ele>
        <time>2010-08-20T10:48:51Z</time>
      </trkpt>
      <trkpt lat="51.1643670" lon="7.4817470">
        <ele>403.8900000</ele>
        <time>2010-08-20T10:48:52Z</time>
      </trkpt>
      <trkpt lat="51.1643420" lon="7.4817520">
        <ele>403.4100000</ele>
        <time>2010-08-20T10:48:53Z</time>
      </trkpt>
      <trkpt lat="51.1643140" lon="7.4817820">
        <ele>402.9300000</ele>
        <time>2010-08-20T10:48:54Z</time>
      </trkpt>
      <trkpt lat="51.1643120" lon="7.4818480">
        <ele>402.9300000</ele>
        <time>2010-08-20T10:48:55Z</time>
      </trkpt>
      <trkpt lat="51.1642790" lon="7.4820310">
        <ele>403.4100000</ele>
        <time>2010-08-20T10:48:56Z</time>
      </trkpt>
      <trkpt lat="51.1642600" lon="7.4822480">
        <ele>403.4100000</ele>
        <time>2010-08-20T10:48:57Z</time>
      </trkpt>
      <trkpt lat="51.1642310" lon="7.4824600">
        <ele>404.8500000</ele>
        <time>2010-08-20T10:48:58Z</time>
      </trkpt>
      <trkpt lat="51.1641140" lon="7.4838750">
        <ele>407.7400000</ele>
        <time>2010-08-20T10:49:02Z</time>
      </trkpt>
      <trkpt lat="51.1639660" lon="7.4868460">
        <ele>410.6200000</ele>
        <time>2010-08-20T10:49:10Z</time>
      </trkpt>
      <trkpt lat="51.1639950" lon="7.4886020">
        <ele>409.1800000</ele>
        <time>2010-08-20T10:49:17Z</time>
      </trkpt>
      <trkpt lat="51.1640010" lon="7.4897930">
        <ele>407.7400000</ele>
        <time>2010-08-20T10:49:25Z</time>
      </trkpt>
      <trkpt lat="51.1640240" lon="7.4898480">
        <ele>406.7700000</ele>
        <time>2010-08-20T10:49:27Z</time>
      </trkpt>
      <trkpt lat="51.1640430" lon="7.4898400">
        <ele>406.7700000</ele>
        <time>2010-08-20T10:49:28Z</time>
      </trkpt>
      <trkpt lat="51.1640570" lon="7.4898090">
        <ele>406.2900000</ele>
        <time>2010-08-20T10:49:29Z</time>
      </trkpt>
      <trkpt lat="51.1640610" lon="7.4897640">
        <ele>406.7700000</ele>
        <time>2010-08-20T10:49:30Z</time>
      </trkpt>
      <trkpt lat="51.1640530" lon="7.4897090">
        <ele>406.7700000</ele>
        <time>2010-08-20T10:49:31Z</time>
      </trkpt>
      <trkpt lat="51.1640410" lon="7.4896360">
        <ele>406.7700000</ele>
        <time>2010-08-20T10:49:32Z</time>
      </trkpt>
      <trkpt lat="51.1640350" lon="7.4895290">
        <ele>407.2600000</ele>
        <time>2010-08-20T10:49:33Z</time>
      </trkpt>
      <trkpt lat="51.1640330" lon="7.4893910">
        <ele>407.2600000</ele>
        <time>2010-08-20T10:49:34Z</time>
      </trkpt>
      <trkpt lat="51.1640370" lon="7.4892160">
        <ele>407.7400000</ele>
        <time>2010-08-20T10:49:35Z</time>
      </trkpt>
      <trkpt lat="51.1639930" lon="7.4876530">
        <ele>410.1400000</ele>
        <time>2010-08-20T10:49:40Z</time>
      </trkpt>
      <trkpt lat="51.1639680" lon="7.4863930">
        <ele>412.0600000</ele>
        <time>2010-08-20T10:49:45Z</time>
      </trkpt>
      <trkpt lat="51.1639300" lon="7.4862070">
        <ele>413.0200000</ele>
        <time>2010-08-20T10:49:47Z</time>
      </trkpt>
      <trkpt lat="51.1638860" lon="7.4861730">
        <ele>413.5000000</ele>
        <time>2010-08-20T10:49:48Z</time>
      </trkpt>
      <trkpt lat="51.1638210" lon="7.4861880">
        <ele>413.5000000</ele>
        <time>2010-08-20T10:49:49Z</time>
      </trkpt>
      <trkpt lat="51.1637390" lon="7.4862890">
        <ele>413.9800000</ele>
        <time>2010-08-20T10:49:50Z</time>
      </trkpt>
      <trkpt lat="51.1636560" lon="7.4864250">
        <ele>413.5000000</ele>
        <time>2010-08-20T10:49:51Z</time>
      </trkpt>
      <trkpt lat="51.1635630" lon="7.4866490">
        <ele>413.5000000</ele>
        <time>2010-08-20T10:49:52Z</time>
      </trkpt>
      <trkpt lat="51.1634950" lon="7.4868770">
        <ele>412.5400000</ele>
        <time>2010-08-20T10:49:53Z</time>
      </trkpt>
      <trkpt lat="51.1634150" lon="7.4870820">
        <ele>410.6200000</ele>
        <time>2010-08-20T10:49:54Z</time>
      </trkpt>
      <trkpt lat="51.1631440" lon="7.4876690">
        <ele>405.8100000</ele>
        <time>2010-08-20T10:49:57Z</time>
      </trkpt>
      <trkpt lat="51.1630210" lon="7.4878640">
        <ele>404.8500000</ele>
        <time>2010-08-20T10:49:58Z</time>
      </trkpt>
      <trkpt lat="51.1622300" lon="7.4890970">
        <ele>405.3300000</ele>
        <time>2010-08-20T10:50:04Z</time>
      </trkpt>
      <trkpt lat="51.1621450" lon="7.4893400">
        <ele>405.3300000</ele>
        <time>2010-08-20T10:50:05Z</time>
      </trkpt>
      <trkpt lat="51.1620810" lon="7.4896460">
        <ele>406.2900000</ele>
        <time>2010-08-20T10:50:06Z</time>
      </trkpt>
      <trkpt lat="51.1617190" lon="7.4916360">
        <ele>403.8900000</ele>
        <time>2010-08-20T10:50:11Z</time>
      </trkpt>
      <trkpt lat="51.1609800" lon="7.4944820">
        <ele>404.8500000</ele>
        <time>2010-08-20T10:50:19Z</time>
      </trkpt>
      <trkpt lat="51.1604490" lon="7.4958360">
        <ele>411.5800000</ele>
        <time>2010-08-20T10:50:24Z</time>
      </trkpt>
      <trkpt lat="51.1603950" lon="7.4960840">
        <ele>412.5400000</ele>
        <time>2010-08-20T10:50:25Z</time>
      </trkpt>
      <trkpt lat="51.1603550" lon="7.4963500">
        <ele>413.0200000</ele>
        <time>2010-08-20T10:50:26Z</time>
      </trkpt>
      <trkpt lat="51.1601720" lon="7.4974060">
        <ele>412.5400000</ele>
        <time>2010-08-20T10:50:31Z</time>
      </trkpt>
      <trkpt lat="51.1601150" lon="7.4975400">
        <ele>412.0600000</ele>
        <time>2010-08-20T10:50:32Z</time>
      </trkpt>
      <trkpt lat="51.1600360" lon="7.4976360">
        <ele>411.1000000</ele>
        <time>2010-08-20T10:50:33Z</time>
      </trkpt>
      <trkpt lat="51.1599500" lon="7.4977050">
        <ele>411.1000000</ele>
        <time>2010-08-20T10:50:34Z</time>
      </trkpt>
      <trkpt lat="51.1598420" lon="7.4977730">
        <ele>410.6200000</ele>
        <time>2010-08-20T10:50:35Z</time>
      </trkpt>
      <trkpt lat="51.1597230" lon="7.4978170">
        <ele>410.1400000</ele>
        <time>2010-08-20T10:50:36Z</time>
      </trkpt>
      <trkpt lat="51.1595970" lon="7.4978360">
        <ele>410.1400000</ele>
        <time>2010-08-20T10:50:37Z</time>
      </trkpt>
      <trkpt lat="51.1594610" lon="7.4978020">
        <ele>409.1800000</ele>
        <time>2010-08-20T10:50:38Z</time>
      </trkpt>
      <trkpt lat="51.1593000" lon="7.4977160">
        <ele>409.1800000</ele>
        <time>2010-08-20T10:50:39Z</time>
      </trkpt>
      <trkpt lat="51.1591400" lon="7.4976110">
        <ele>408.2200000</ele>
        <time>2010-08-20T10:50:40Z</time>
      </trkpt>
      <trkpt lat="51.1589800" lon="7.4975080">
        <ele>408.2200000</ele>
        <time>2010-08-20T10:50:41Z</time>
      </trkpt>
      <trkpt lat="51.1588110" lon="7.4973900">
        <ele>408.7000000</ele>
        <time>2010-08-20T10:50:42Z</time>
      </trkpt>
      <trkpt lat="51.1586520" lon="7.4972800">
        <ele>409.6600000</ele>
        <time>2010-08-20T10:50:43Z</time>
      </trkpt>
      <trkpt lat="51.1578990" lon="7.4968050">
        <ele>409.6600000</ele>
        <time>2010-08-20T10:50:48Z</time>
      </trkpt>
      <trkpt lat="51.1577350" lon="7.4968130">
        <ele>409.1800000</ele>
        <time>2010-08-20T10:50:49Z</time>
      </trkpt>
      <trkpt lat="51.1571120" lon="7.4969230">
        <ele>406.7700000</ele>
        <time>2010-08-20T10:50:53Z</time>
      </trkpt>
      <trkpt lat="51.1570110" lon="7.4970570">
        <ele>405.8100000</ele>
        <time>2010-08-20T10:50:54Z</time>
      </trkpt>
      <trkpt lat="51.1568890" lon="7.4971610">
        <ele>405.8100000</ele>
        <time>2010-08-20T10:50:55Z</time>
      </trkpt>
      <trkpt lat="51.1567690" lon="7.4972890">
        <ele>405.3300000</ele>
        <time>2010-08-20T10:50:56Z</time>
      </trkpt>
      <trkpt lat="51.1566520" lon="7.4974660">
        <ele>406.2900000</ele>
        <time>2010-08-20T10:50:57Z</time>
      </trkpt>
      <trkpt lat="51.1565390" lon="7.4976840">
        <ele>405.8100000</ele>
        <time>2010-08-20T10:50:58Z</time>
      </trkpt>
      <trkpt lat="51.1564310" lon="7.4979040">
        <ele>404.3700000</ele>
        <time>2010-08-20T10:50:59Z</time>
      </trkpt>
      <trkpt lat="51.1563400" lon="7.4981120">
        <ele>403.4100000</ele>
        <time>2010-08-20T10:51:00Z</time>
      </trkpt>
      <trkpt lat="51.1556740" lon="7.4989800">
        <ele>394.2800000</ele>
        <time>2010-08-20T10:51:06Z</time>
      </trkpt>
      <trkpt lat="51.1554870" lon="7.4989360">
        <ele>392.3600000</ele>
        <time>2010-08-20T10:51:07Z</time>
      </trkpt>
      <trkpt lat="51.1553020" lon="7.4989110">
        <ele>390.9100000</ele>
        <time>2010-08-20T10:51:08Z</time>
      </trkpt>
      <trkpt lat="51.1551140" lon="7.4988660">
        <ele>390.4300000</ele>
        <time>2010-08-20T10:51:09Z</time>
      </trkpt>
      <trkpt lat="51.1549310" lon="7.4988300">
        <ele>390.4300000</ele>
        <time>2010-08-20T10:51:10Z</time>
      </trkpt>
      <trkpt lat="51.1545090" lon="7.4988100">
        <ele>388.9900000</ele>
        <time>2010-08-20T10:51:13Z</time>
      </trkpt>
      <trkpt lat="51.1544210" lon="7.4988400">
        <ele>388.0300000</ele>
        <time>2010-08-20T10:51:14Z</time>
      </trkpt>
      <trkpt lat="51.1543630" lon="7.4989200">
        <ele>387.5500000</ele>
        <time>2010-08-20T10:51:15Z</time>
      </trkpt>
      <trkpt lat="51.1543500" lon="7.4990100">
        <ele>386.5900000</ele>
        <time>2010-08-20T10:51:16Z</time>
      </trkpt>
      <trkpt lat="51.1543210" lon="7.4991170">
        <ele>386.1100000</ele>
        <time>2010-08-20T10:51:17Z</time>
      </trkpt>
      <trkpt lat="51.1543160" lon="7.4993020">
        <ele>385.6300000</ele>
        <time>2010-08-20T10:51:18Z</time>
      </trkpt>
      <trkpt lat="51.1543050" lon="7.4995200">
        <ele>384.1800000</ele>
        <time>2010-08-20T10:51:19Z</time>
      </trkpt>
      <trkpt lat="51.1543000" lon="7.4997920">
        <ele>384.1800000</ele>
        <time>2010-08-20T10:51:20Z</time>
      </trkpt>
      <trkpt lat="51.1543250" lon="7.5003550">
        <ele>383.7000000</ele>
        <time>2010-08-20T10:51:22Z</time>
      </trkpt>
      <trkpt lat="51.1543530" lon="7.5006790">
        <ele>383.2200000</ele>
        <time>2010-08-20T10:51:23Z</time>
      </trkpt>
      <trkpt lat="51.1543950" lon="7.5009990">
        <ele>382.7400000</ele>
        <time>2010-08-20T10:51:24Z</time>
      </trkpt>
      <trkpt lat="51.1546960" lon="7.5030210">
        <ele>376.0100000</ele>
        <time>2010-08-20T10:51:31Z</time>
      </trkpt>
      <trkpt lat="51.1546920" lon="7.5032630">
        <ele>374.5700000</ele>
        <time>2010-08-20T10:51:32Z</time>
      </trkpt>
      <trkpt lat="51.1546620" lon="7.5035190">
        <ele>373.1300000</ele>
        <time>2010-08-20T10:51:33Z</time>
      </trkpt>
      <trkpt lat="51.1546070" lon="7.5037780">
        <ele>371.6900000</ele>
        <time>2010-08-20T10:51:34Z</time>
      </trkpt>
      <trkpt lat="51.1545270" lon="7.5040150">
        <ele>370.2400000</ele>
        <time>2010-08-20T10:51:35Z</time>
      </trkpt>
      <trkpt lat="51.1544260" lon="7.5042230">
        <ele>368.8000000</ele>
        <time>2010-08-20T10:51:36Z</time>
      </trkpt>
      <trkpt lat="51.1543180" lon="7.5044000">
        <ele>367.3600000</ele>
        <time>2010-08-20T10:51:37Z</time>
      </trkpt>
      <trkpt lat="51.1542070" lon="7.5045370">
        <ele>365.4400000</ele>
        <time>2010-08-20T10:51:38Z</time>
      </trkpt>
      <trkpt lat="51.1540800" lon="7.5045920">
        <ele>364.4800000</ele>
        <time>2010-08-20T10:51:39Z</time>
      </trkpt>
      <trkpt lat="51.1539370" lon="7.5046000">
        <ele>364.0000000</ele>
        <time>2010-08-20T10:51:40Z</time>
      </trkpt>
      <trkpt lat="51.1538050" lon="7.5046200">
        <ele>363.0400000</ele>
        <time>2010-08-20T10:51:41Z</time>
      </trkpt>
      <trkpt lat="51.1536760" lon="7.5045920">
        <ele>362.5500000</ele>
        <time>2010-08-20T10:51:42Z</time>
      </trkpt>
      <trkpt lat="51.1535360" lon="7.5046370">
        <ele>361.1100000</ele>
        <time>2010-08-20T10:51:43Z</time>
      </trkpt>
      <trkpt lat="51.1534150" lon="7.5047240">
        <ele>360.1500000</ele>
        <time>2010-08-20T10:51:44Z</time>
      </trkpt>
      <trkpt lat="51.1532970" lon="7.5048550">
        <ele>359.1900000</ele>
        <time>2010-08-20T10:51:45Z</time>
      </trkpt>
      <trkpt lat="51.1531750" lon="7.5049820">
        <ele>357.2700000</ele>
        <time>2010-08-20T10:51:46Z</time>
      </trkpt>
      <trkpt lat="51.1530440" lon="7.5051800">
        <ele>354.8600000</ele>
        <time>2010-08-20T10:51:47Z</time>
      </trkpt>
      <trkpt lat="51.1529130" lon="7.5054110">
        <ele>353.4200000</ele>
        <time>2010-08-20T10:51:48Z</time>
      </trkpt>
      <trkpt lat="51.1527890" lon="7.5056810">
        <ele>353.4200000</ele>
        <time>2010-08-20T10:51:49Z</time>
      </trkpt>
      <trkpt lat="51.1526780" lon="7.5059470">
        <ele>352.4600000</ele>
        <time>2010-08-20T10:51:50Z</time>
      </trkpt>
      <trkpt lat="51.1525750" lon="7.5062170">
        <ele>351.5000000</ele>
        <time>2010-08-20T10:51:51Z</time>
      </trkpt>
      <trkpt lat="51.1524970" lon="7.5064980">
        <ele>350.5400000</ele>
        <time>2010-08-20T10:51:52Z</time>
      </trkpt>
      <trkpt lat="51.1524340" lon="7.5068070">
        <ele>350.5400000</ele>
        <time>2010-08-20T10:51:53Z</time>
      </trkpt>
      <trkpt lat="51.1523810" lon="7.5071220">
        <ele>350.0600000</ele>
        <time>2010-08-20T10:51:54Z</time>
      </trkpt>
      <trkpt lat="51.1520450" lon="7.5095160">
        <ele>345.7300000</ele>
        <time>2010-08-20T10:52:02Z</time>
      </trkpt>
      <trkpt lat="51.1518610" lon="7.5103520">
        <ele>346.2100000</ele>
        <time>2010-08-20T10:52:05Z</time>
      </trkpt>
      <trkpt lat="51.1513610" lon="7.5123840">
        <ele>345.7300000</ele>
        <time>2010-08-20T10:52:13Z</time>
      </trkpt>
      <trkpt lat="51.1513120" lon="7.5129640">
        <ele>345.2500000</ele>
        <time>2010-08-20T10:52:16Z</time>
      </trkpt>
      <trkpt lat="51.1513280" lon="7.5132030">
        <ele>345.7300000</ele>
        <time>2010-08-20T10:52:17Z</time>
      </trkpt>
      <trkpt lat="51.1513660" lon="7.5135090">
        <ele>346.6900000</ele>
        <time>2010-08-20T10:52:18Z</time>
      </trkpt>
      <trkpt lat="51.1515460" lon="7.5152700">
        <ele>351.5000000</ele>
        <time>2010-08-20T10:52:22Z</time>
      </trkpt>
      <trkpt lat="51.1516760" lon="7.5170890">
        <ele>361.1100000</ele>
        <time>2010-08-20T10:52:27Z</time>
      </trkpt>
      <trkpt lat="51.1517200" lon="7.5179380">
        <ele>364.4800000</ele>
        <time>2010-08-20T10:52:31Z</time>
      </trkpt>
      <trkpt lat="51.1516970" lon="7.5180890">
        <ele>364.4800000</ele>
        <time>2010-08-20T10:52:32Z</time>
      </trkpt>
      <trkpt lat="51.1516580" lon="7.5182280">
        <ele>364.4800000</ele>
        <time>2010-08-20T10:52:33Z</time>
      </trkpt>
      <trkpt lat="51.1516050" lon="7.5183650">
        <ele>364.0000000</ele>
        <time>2010-08-20T10:52:34Z</time>
      </trkpt>
      <trkpt lat="51.1515280" lon="7.5185100">
        <ele>363.5200000</ele>
        <time>2010-08-20T10:52:35Z</time>
      </trkpt>
      <trkpt lat="51.1514290" lon="7.5186850">
        <ele>362.5500000</ele>
        <time>2010-08-20T10:52:36Z</time>
      </trkpt>
      <trkpt lat="51.1506430" lon="7.5200640">
        <ele>356.3100000</ele>
        <time>2010-08-20T10:52:42Z</time>
      </trkpt>
      <trkpt lat="51.1504650" lon="7.5204970">
        <ele>355.3400000</ele>
        <time>2010-08-20T10:52:44Z</time>
      </trkpt>
      <trkpt lat="51.1504110" lon="7.5207200">
        <ele>354.3800000</ele>
        <time>2010-08-20T10:52:45Z</time>
      </trkpt>
      <trkpt lat="51.1503730" lon="7.5209540">
        <ele>353.4200000</ele>
        <time>2010-08-20T10:52:46Z</time>
      </trkpt>
      <trkpt lat="51.1503540" lon="7.5212130">
        <ele>352.4600000</ele>
        <time>2010-08-20T10:52:47Z</time>
      </trkpt>
      <trkpt lat="51.1503430" lon="7.5214920">
        <ele>351.5000000</ele>
        <time>2010-08-20T10:52:48Z</time>
      </trkpt>
      <trkpt lat="51.1502160" lon="7.5232990">
        <ele>343.8100000</ele>
        <time>2010-08-20T10:52:55Z</time>
      </trkpt>
      <trkpt lat="51.1501220" lon="7.5236590">
        <ele>342.8500000</ele>
        <time>2010-08-20T10:52:56Z</time>
      </trkpt>
      <trkpt lat="51.1496340" lon="7.5255360">
        <ele>337.5600000</ele>
        <time>2010-08-20T10:53:01Z</time>
      </trkpt>
      <trkpt lat="51.1490690" lon="7.5274650">
        <ele>330.3500000</ele>
        <time>2010-08-20T10:53:08Z</time>
      </trkpt>
      <trkpt lat="51.1489460" lon="7.5276820">
        <ele>329.3900000</ele>
        <time>2010-08-20T10:53:09Z</time>
      </trkpt>
      <trkpt lat="51.1487730" lon="7.5278790">
        <ele>329.3900000</ele>
        <time>2010-08-20T10:53:10Z</time>
      </trkpt>
      <trkpt lat="51.1480520" lon="7.5288640">
        <ele>336.1200000</ele>
        <time>2010-08-20T10:53:17Z</time>
      </trkpt>
      <trkpt lat="51.1480740" lon="7.5291870">
        <ele>337.0800000</ele>
        <time>2010-08-20T10:53:19Z</time>
      </trkpt>
      <trkpt lat="51.1480810" lon="7.5294420">
        <ele>335.6400000</ele>
        <time>2010-08-20T10:53:20Z</time>
      </trkpt>
      <trkpt lat="51.1481280" lon="7.5296770">
        <ele>334.6800000</ele>
        <time>2010-08-20T10:53:21Z</time>
      </trkpt>
      <trkpt lat="51.1482280" lon="7.5298960">
        <ele>334.2000000</ele>
        <time>2010-08-20T10:53:22Z</time>
      </trkpt>
      <trkpt lat="51.1483820" lon="7.5300650">
        <ele>334.2000000</ele>
        <time>2010-08-20T10:53:23Z</time>
      </trkpt>
      <trkpt lat="51.1484850" lon="7.5302340">
        <ele>334.2000000</ele>
        <time>2010-08-20T10:53:24Z</time>
      </trkpt>
      <trkpt lat="51.1486960" lon="7.5308740">
        <ele>332.2700000</ele>
        <time>2010-08-20T10:53:27Z</time>
      </trkpt>
      <trkpt lat="51.1487140" lon="7.5311450">
        <ele>332.2700000</ele>
        <time>2010-08-20T10:53:28Z</time>
      </trkpt>
      <trkpt lat="51.1488280" lon="7.5325550">
        <ele>332.7500000</ele>
        <time>2010-08-20T10:53:35Z</time>
      </trkpt>
      <trkpt lat="51.1488140" lon="7.5327020">
        <ele>332.2700000</ele>
        <time>2010-08-20T10:53:36Z</time>
      </trkpt>
      <trkpt lat="51.1487780" lon="7.5328250">
        <ele>331.3100000</ele>
        <time>2010-08-20T10:53:37Z</time>
      </trkpt>
      <trkpt lat="51.1486870" lon="7.5329480">
        <ele>330.8300000</ele>
        <time>2010-08-20T10:53:38Z</time>
      </trkpt>
      <trkpt lat="51.1485920" lon="7.5330110">
        <ele>329.8700000</ele>
        <time>2010-08-20T10:53:39Z</time>
      </trkpt>
      <trkpt lat="51.1484950" lon="7.5331040">
        <ele>330.3500000</ele>
        <time>2010-08-20T10:53:40Z</time>
      </trkpt>
      <trkpt lat="51.1483970" lon="7.5331830">
        <ele>329.8700000</ele>
        <time>2010-08-20T10:53:41Z</time>
      </trkpt>
      <trkpt lat="51.1481740" lon="7.5335090">
        <ele>328.9100000</ele>
        <time>2010-08-20T10:53:44Z</time>
      </trkpt>
      <trkpt lat="51.1481340" lon="7.5336780">
        <ele>329.3900000</ele>
        <time>2010-08-20T10:53:45Z</time>
      </trkpt>
      <trkpt lat="51.1481360" lon="7.5338410">
        <ele>329.8700000</ele>
        <time>2010-08-20T10:53:46Z</time>
      </trkpt>
      <trkpt lat="51.1481470" lon="7.5339990">
        <ele>329.8700000</ele>
        <time>2010-08-20T10:53:47Z</time>
      </trkpt>
      <trkpt lat="51.1481300" lon="7.5341280">
        <ele>329.8700000</ele>
        <time>2010-08-20T10:53:48Z</time>
      </trkpt>
      <trkpt lat="51.1480900" lon="7.5342360">
        <ele>329.3900000</ele>
        <time>2010-08-20T10:53:49Z</time>
      </trkpt>
      <trkpt lat="51.1480230" lon="7.5343220">
        <ele>330.3500000</ele>
        <time>2010-08-20T10:53:50Z</time>
      </trkpt>
      <trkpt lat="51.1479530" lon="7.5344270">
        <ele>331.3100000</ele>
        <time>2010-08-20T10:53:51Z</time>
      </trkpt>
      <trkpt lat="51.1478850" lon="7.5345560">
        <ele>332.2700000</ele>
        <time>2010-08-20T10:53:52Z</time>
      </trkpt>
      <trkpt lat="51.1478240" lon="7.5347080">
        <ele>333.2300000</ele>
        <time>2010-08-20T10:53:53Z</time>
      </trkpt>
      <trkpt lat="51.1477720" lon="7.5348730">
        <ele>333.2300000</ele>
        <time>2010-08-20T10:53:54Z</time>
      </trkpt>
      <trkpt lat="51.1473630" lon="7.5366170">
        <ele>334.2000000</ele>
        <time>2010-08-20T10:54:03Z</time>
      </trkpt>
      <trkpt lat="51.1473790" lon="7.5368170">
        <ele>333.7100000</ele>
        <time>2010-08-20T10:54:04Z</time>
      </trkpt>
      <trkpt lat="51.1471540" lon="7.5378130">
        <ele>334.2000000</ele>
        <time>2010-08-20T10:54:08Z</time>
      </trkpt>
      <trkpt lat="51.1470130" lon="7.5380260">
        <ele>334.6800000</ele>
        <time>2010-08-20T10:54:09Z</time>
      </trkpt>
      <trkpt lat="51.1469070" lon="7.5382370">
        <ele>335.1600000</ele>
        <time>2010-08-20T10:54:10Z</time>
      </trkpt>
      <trkpt lat="51.1468160" lon="7.5384840">
        <ele>335.1600000</ele>
        <time>2010-08-20T10:54:11Z</time>
      </trkpt>
      <trkpt lat="51.1467310" lon="7.5387420">
        <ele>336.1200000</ele>
        <time>2010-08-20T10:54:12Z</time>
      </trkpt>
      <trkpt lat="51.1465400" lon="7.5393690">
        <ele>337.0800000</ele>
        <time>2010-08-20T10:54:15Z</time>
      </trkpt>
      <trkpt lat="51.1465170" lon="7.5395730">
        <ele>336.6000000</ele>
        <time>2010-08-20T10:54:16Z</time>
      </trkpt>
      <trkpt lat="51.1465030" lon="7.5398090">
        <ele>336.6000000</ele>
        <time>2010-08-20T10:54:17Z</time>
      </trkpt>
      <trkpt lat="51.1465030" lon="7.5400680">
        <ele>336.6000000</ele>
        <time>2010-08-20T10:54:18Z</time>
      </trkpt>
      <trkpt lat="51.1465080" lon="7.5403580">
        <ele>335.6400000</ele>
        <time>2010-08-20T10:54:19Z</time>
      </trkpt>
      <trkpt lat="51.1467700" lon="7.5426410">
        <ele>335.6400000</ele>
        <time>2010-08-20T10:54:26Z</time>
      </trkpt>
      <trkpt lat="51.1469810" lon="7.5451630">
        <ele>341.8900000</ele>
        <time>2010-08-20T10:54:34Z</time>
      </trkpt>
      <trkpt lat="51.1470300" lon="7.5483330">
        <ele>355.3400000</ele>
        <time>2010-08-20T10:54:44Z</time>
      </trkpt>
      <trkpt lat="51.1467490" lon="7.5506610">
        <ele>360.1500000</ele>
        <time>2010-08-20T10:54:51Z</time>
      </trkpt>
      <trkpt lat="51.1463980" lon="7.5527580">
        <ele>364.4800000</ele>
        <time>2010-08-20T10:54:58Z</time>
      </trkpt>
      <trkpt lat="51.1461320" lon="7.5552340">
        <ele>362.5500000</ele>
        <time>2010-08-20T10:55:06Z</time>
      </trkpt>
      <trkpt lat="51.1460110" lon="7.5577310">
        <ele>357.2700000</ele>
        <time>2010-08-20T10:55:14Z</time>
      </trkpt>
      <trkpt lat="51.1459670" lon="7.5579190">
        <ele>354.3800000</ele>
        <time>2010-08-20T10:55:15Z</time>
      </trkpt>
      <trkpt lat="51.1459160" lon="7.5581100">
        <ele>352.9400000</ele>
        <time>2010-08-20T10:55:16Z</time>
      </trkpt>
      <trkpt lat="51.1454430" lon="7.5594070">
        <ele>349.5800000</ele>
        <time>2010-08-20T10:55:21Z</time>
      </trkpt>
      <trkpt lat="51.1452180" lon="7.5604080">
        <ele>349.5800000</ele>
        <time>2010-08-20T10:55:24Z</time>
      </trkpt>
      <trkpt lat="51.1451890" lon="7.5607560">
        <ele>350.0600000</ele>
        <time>2010-08-20T10:55:25Z</time>
      </trkpt>
      <trkpt lat="51.1451740" lon="7.5611010">
        <ele>350.5400000</ele>
        <time>2010-08-20T10:55:26Z</time>
      </trkpt>
      <trkpt lat="51.1450690" lon="7.5627530">
        <ele>351.9800000</ele>
        <time>2010-08-20T10:55:32Z</time>
      </trkpt>
      <trkpt lat="51.1450250" lon="7.5629980">
        <ele>351.5000000</ele>
        <time>2010-08-20T10:55:33Z</time>
      </trkpt>
      <trkpt lat="51.1446070" lon="7.5647600">
        <ele>351.5000000</ele>
        <time>2010-08-20T10:55:39Z</time>
      </trkpt>
      <trkpt lat="51.1440560" lon="7.5662750">
        <ele>351.0200000</ele>
        <time>2010-08-20T10:55:45Z</time>
      </trkpt>
      <trkpt lat="51.1439180" lon="7.5664980">
        <ele>351.0200000</ele>
        <time>2010-08-20T10:55:46Z</time>
      </trkpt>
      <trkpt lat="51.1434920" lon="7.5671480">
        <ele>351.9800000</ele>
        <time>2010-08-20T10:55:49Z</time>
      </trkpt>
      <trkpt lat="51.1433730" lon="7.5674040">
        <ele>352.4600000</ele>
        <time>2010-08-20T10:55:50Z</time>
      </trkpt>
      <trkpt lat="51.1425890" lon="7.5690820">
        <ele>355.3400000</ele>
        <time>2010-08-20T10:55:57Z</time>
      </trkpt>
      <trkpt lat="51.1424850" lon="7.5692170">
        <ele>355.3400000</ele>
        <time>2010-08-20T10:55:58Z</time>
      </trkpt>
      <trkpt lat="51.1423560" lon="7.5693250">
        <ele>355.8300000</ele>
        <time>2010-08-20T10:55:59Z</time>
      </trkpt>
      <trkpt lat="51.1415240" lon="7.5701350">
        <ele>355.8300000</ele>
        <time>2010-08-20T10:56:04Z</time>
      </trkpt>
      <trkpt lat="51.1405230" lon="7.5708270">
        <ele>354.3800000</ele>
        <time>2010-08-20T10:56:10Z</time>
      </trkpt>
      <trkpt lat="51.1403480" lon="7.5708610">
        <ele>353.9000000</ele>
        <time>2010-08-20T10:56:11Z</time>
      </trkpt>
      <trkpt lat="51.1401670" lon="7.5708660">
        <ele>353.9000000</ele>
        <time>2010-08-20T10:56:12Z</time>
      </trkpt>
      <trkpt lat="51.1396470" lon="7.5709050">
        <ele>354.3800000</ele>
        <time>2010-08-20T10:56:15Z</time>
      </trkpt>
      <trkpt lat="51.1394980" lon="7.5709610">
        <ele>354.8600000</ele>
        <time>2010-08-20T10:56:16Z</time>
      </trkpt>
      <trkpt lat="51.1388850" lon="7.5713960">
        <ele>355.3400000</ele>
        <time>2010-08-20T10:56:20Z</time>
      </trkpt>
      <trkpt lat="51.1387440" lon="7.5716070">
        <ele>355.3400000</ele>
        <time>2010-08-20T10:56:21Z</time>
      </trkpt>
      <trkpt lat="51.1385750" lon="7.5718360">
        <ele>355.3400000</ele>
        <time>2010-08-20T10:56:22Z</time>
      </trkpt>
      <trkpt lat="51.1384230" lon="7.5720850">
        <ele>356.7900000</ele>
        <time>2010-08-20T10:56:23Z</time>
      </trkpt>
      <trkpt lat="51.1382680" lon="7.5723380">
        <ele>357.7500000</ele>
        <time>2010-08-20T10:56:24Z</time>
      </trkpt>
      <trkpt lat="51.1372690" lon="7.5736280">
        <ele>363.5200000</ele>
        <time>2010-08-20T10:56:30Z</time>
      </trkpt>
      <trkpt lat="51.1366370" lon="7.5741880">
        <ele>363.5200000</ele>
        <time>2010-08-20T10:56:34Z</time>
      </trkpt>
      <trkpt lat="51.1365290" lon="7.5743590">
        <ele>363.5200000</ele>
        <time>2010-08-20T10:56:35Z</time>
      </trkpt>
      <trkpt lat="51.1362300" lon="7.5747840">
        <ele>363.0400000</ele>
        <time>2010-08-20T10:56:38Z</time>
      </trkpt>
      <trkpt lat="51.1355380" lon="7.5754180">
        <ele>360.6300000</ele>
        <time>2010-08-20T10:56:44Z</time>
      </trkpt>
      <trkpt lat="51.1354780" lon="7.5755530">
        <ele>360.6300000</ele>
        <time>2010-08-20T10:56:45Z</time>
      </trkpt>
      <trkpt lat="51.1354240" lon="7.5757190">
        <ele>360.6300000</ele>
        <time>2010-08-20T10:56:46Z</time>
      </trkpt>
      <trkpt lat="51.1350300" lon="7.5769000">
        <ele>359.6700000</ele>
        <time>2010-08-20T10:56:54Z</time>
      </trkpt>
      <trkpt lat="51.1350090" lon="7.5769240">
        <ele>359.6700000</ele>
        <time>2010-08-20T10:56:55Z</time>
      </trkpt>
      <trkpt lat="51.1349980" lon="7.5769310">
        <ele>359.6700000</ele>
        <time>2010-08-20T10:56:56Z</time>
      </trkpt>
      <trkpt lat="51.1347860" lon="7.5771860">
        <ele>360.1500000</ele>
        <time>2010-08-20T10:57:02Z</time>
      </trkpt>
      <trkpt lat="51.1345630" lon="7.5774550">
        <ele>360.6300000</ele>
        <time>2010-08-20T10:57:06Z</time>
      </trkpt>
      <trkpt lat="51.1344800" lon="7.5775120">
        <ele>361.1100000</ele>
        <time>2010-08-20T10:57:07Z</time>
      </trkpt>
      <trkpt lat="51.1343780" lon="7.5775640">
        <ele>361.1100000</ele>
        <time>2010-08-20T10:57:08Z</time>
      </trkpt>
      <trkpt lat="51.1333870" lon="7.5779660">
        <ele>364.0000000</ele>
        <time>2010-08-20T10:57:15Z</time>
      </trkpt>
      <trkpt lat="51.1323950" lon="7.5784650">
        <ele>365.4400000</ele>
        <time>2010-08-20T10:57:22Z</time>
      </trkpt>
      <trkpt lat="51.1323030" lon="7.5785000">
        <ele>365.9200000</ele>
        <time>2010-08-20T10:57:23Z</time>
      </trkpt>
      <trkpt lat="51.1322180" lon="7.5785060">
        <ele>365.9200000</ele>
        <time>2010-08-20T10:57:24Z</time>
      </trkpt>
      <trkpt lat="51.1321350" lon="7.5784820">
        <ele>365.9200000</ele>
        <time>2010-08-20T10:57:25Z</time>
      </trkpt>
      <trkpt lat="51.1316680" lon="7.5782890">
        <ele>367.8400000</ele>
        <time>2010-08-20T10:57:30Z</time>
      </trkpt>
      <trkpt lat="51.1315950" lon="7.5783080">
        <ele>367.8400000</ele>
        <time>2010-08-20T10:57:31Z</time>
      </trkpt>
      <trkpt lat="51.1315220" lon="7.5783920">
        <ele>368.3200000</ele>
        <time>2010-08-20T10:57:32Z</time>
      </trkpt>
      <trkpt lat="51.1314430" lon="7.5785130">
        <ele>369.2800000</ele>
        <time>2010-08-20T10:57:33Z</time>
      </trkpt>
      <trkpt lat="51.1313330" lon="7.5786330">
        <ele>369.2800000</ele>
        <time>2010-08-20T10:57:34Z</time>
      </trkpt>
      <trkpt lat="51.1311900" lon="7.5787230">
        <ele>369.7600000</ele>
        <time>2010-08-20T10:57:35Z</time>
      </trkpt>
      <trkpt lat="51.1310300" lon="7.5787930">
        <ele>370.2400000</ele>
        <time>2010-08-20T10:57:36Z</time>
      </trkpt>
      <trkpt lat="51.1308560" lon="7.5788720">
        <ele>371.2100000</ele>
        <time>2010-08-20T10:57:37Z</time>
      </trkpt>
      <trkpt lat="51.1297300" lon="7.5795500">
        <ele>374.5700000</ele>
        <time>2010-08-20T10:57:44Z</time>
      </trkpt>
      <trkpt lat="51.1292110" lon="7.5798050">
        <ele>375.5300000</ele>
        <time>2010-08-20T10:57:51Z</time>
      </trkpt>
      <trkpt lat="51.1290800" lon="7.5798640">
        <ele>374.5700000</ele>
        <time>2010-08-20T10:57:53Z</time>
      </trkpt>
      <trkpt lat="51.1289350" lon="7.5799670">
        <ele>374.0900000</ele>
        <time>2010-08-20T10:57:55Z</time>
      </trkpt>
      <trkpt lat="51.1285300" lon="7.5804350">
        <ele>371.2100000</ele>
        <time>2010-08-20T10:58:03Z</time>
      </trkpt>
      <trkpt lat="51.1285030" lon="7.5804850">
        <ele>371.2100000</ele>
        <time>2010-08-20T10:58:04Z</time>
      </trkpt>
      <trkpt lat="51.1284790" lon="7.5805540">
        <ele>371.2100000</ele>
        <time>2010-08-20T10:58:05Z</time>
      </trkpt>
      <trkpt lat="51.1281620" lon="7.5814030">
        <ele>373.6100000</ele>
        <time>2010-08-20T10:58:14Z</time>
      </trkpt>
      <trkpt lat="51.1277640" lon="7.5819970">
        <ele>374.5700000</ele>
        <time>2010-08-20T10:58:22Z</time>
      </trkpt>
      <trkpt lat="51.1274990" lon="7.5825350">
        <ele>375.5300000</ele>
        <time>2010-08-20T10:58:28Z</time>
      </trkpt>
      <trkpt lat="51.1274690" lon="7.5826620">
        <ele>375.5300000</ele>
        <time>2010-08-20T10:58:29Z</time>
      </trkpt>
      <trkpt lat="51.1274470" lon="7.5827810">
        <ele>375.5300000</ele>
        <time>2010-08-20T10:58:30Z</time>
      </trkpt>
      <trkpt lat="51.1274330" lon="7.5828940">
        <ele>375.5300000</ele>
        <time>2010-08-20T10:58:31Z</time>
      </trkpt>
      <trkpt lat="51.1274210" lon="7.5830090">
        <ele>376.0100000</ele>
        <time>2010-08-20T10:58:32Z</time>
      </trkpt>
      <trkpt lat="51.1274150" lon="7.5832620">
        <ele>376.4900000</ele>
        <time>2010-08-20T10:58:34Z</time>
      </trkpt>
      <trkpt lat="51.1274060" lon="7.5845130">
        <ele>372.6500000</ele>
        <time>2010-08-20T10:58:42Z</time>
      </trkpt>
      <trkpt lat="51.1273630" lon="7.5846870">
        <ele>372.6500000</ele>
        <time>2010-08-20T10:58:43Z</time>
      </trkpt>
      <trkpt lat="51.1272960" lon="7.5848650">
        <ele>372.6500000</ele>
        <time>2010-08-20T10:58:44Z</time>
      </trkpt>
      <trkpt lat="51.1268980" lon="7.5858100">
        <ele>372.6500000</ele>
        <time>2010-08-20T10:58:49Z</time>
      </trkpt>
      <trkpt lat="51.1268630" lon="7.5859920">
        <ele>372.6500000</ele>
        <time>2010-08-20T10:58:50Z</time>
      </trkpt>
      <trkpt lat="51.1268490" lon="7.5861690">
        <ele>372.1700000</ele>
        <time>2010-08-20T10:58:51Z</time>
      </trkpt>
      <trkpt lat="51.1268470" lon="7.5863330">
        <ele>372.6500000</ele>
        <time>2010-08-20T10:58:52Z</time>
      </trkpt>
      <trkpt lat="51.1268600" lon="7.5864860">
        <ele>372.6500000</ele>
        <time>2010-08-20T10:58:53Z</time>
      </trkpt>
      <trkpt lat="51.1268650" lon="7.5866320">
        <ele>372.6500000</ele>
        <time>2010-08-20T10:58:54Z</time>
      </trkpt>
      <trkpt lat="51.1268480" lon="7.5867750">
        <ele>372.6500000</ele>
        <time>2010-08-20T10:58:55Z</time>
      </trkpt>
      <trkpt lat="51.1267970" lon="7.5869140">
        <ele>373.1300000</ele>
        <time>2010-08-20T10:58:56Z</time>
      </trkpt>
      <trkpt lat="51.1267220" lon="7.5870540">
        <ele>373.1300000</ele>
        <time>2010-08-20T10:58:57Z</time>
      </trkpt>
      <trkpt lat="51.1266420" lon="7.5872000">
        <ele>373.1300000</ele>
        <time>2010-08-20T10:58:58Z</time>
      </trkpt>
      <trkpt lat="51.1260340" lon="7.5883690">
        <ele>375.0500000</ele>
        <time>2010-08-20T10:59:06Z</time>
      </trkpt>
      <trkpt lat="51.1252700" lon="7.5901400">
        <ele>378.9000000</ele>
        <time>2010-08-20T10:59:20Z</time>
      </trkpt>
      <trkpt lat="51.1251750" lon="7.5903730">
        <ele>378.4200000</ele>
        <time>2010-08-20T10:59:22Z</time>
      </trkpt>
      <trkpt lat="51.1251140" lon="7.5904730">
        <ele>378.4200000</ele>
        <time>2010-08-20T10:59:23Z</time>
      </trkpt>
      <trkpt lat="51.1250390" lon="7.5905690">
        <ele>377.9400000</ele>
        <time>2010-08-20T10:59:24Z</time>
      </trkpt>
      <trkpt lat="51.1244170" lon="7.5913190">
        <ele>377.9400000</ele>
        <time>2010-08-20T10:59:31Z</time>
      </trkpt>
      <trkpt lat="51.1243140" lon="7.5913830">
        <ele>377.9400000</ele>
        <time>2010-08-20T10:59:32Z</time>
      </trkpt>
      <trkpt lat="51.1242020" lon="7.5914220">
        <ele>377.9400000</ele>
        <time>2010-08-20T10:59:33Z</time>
      </trkpt>
      <trkpt lat="51.1240830" lon="7.5914370">
        <ele>377.9400000</ele>
        <time>2010-08-20T10:59:34Z</time>
      </trkpt>
      <trkpt lat="51.1239570" lon="7.5914330">
        <ele>377.9400000</ele>
        <time>2010-08-20T10:59:35Z</time>
      </trkpt>
      <trkpt lat="51.1238250" lon="7.5914140">
        <ele>377.9400000</ele>
        <time>2010-08-20T10:59:36Z</time>
      </trkpt>
      <trkpt lat="51.1236880" lon="7.5913910">
        <ele>377.9400000</ele>
        <time>2010-08-20T10:59:37Z</time>
      </trkpt>
      <trkpt lat="51.1224580" lon="7.5914360">
        <ele>384.1800000</ele>
        <time>2010-08-20T10:59:47Z</time>
      </trkpt>
      <trkpt lat="51.1215570" lon="7.5919660">
        <ele>393.8000000</ele>
        <time>2010-08-20T10:59:56Z</time>
      </trkpt>
      <trkpt lat="51.1206680" lon="7.5927220">
        <ele>401.9700000</ele>
        <time>2010-08-20T11:00:04Z</time>
      </trkpt>
      <trkpt lat="51.1205230" lon="7.5929390">
        <ele>405.3300000</ele>
        <time>2010-08-20T11:00:10Z</time>
      </trkpt>
      <trkpt lat="51.1205250" lon="7.5931630">
        <ele>407.2600000</ele>
        <time>2010-08-20T11:00:28Z</time>
      </trkpt>
      <trkpt lat="51.1205790" lon="7.5933010">
        <ele>405.8100000</ele>
        <time>2010-08-20T11:00:29Z</time>
      </trkpt>
      <trkpt lat="51.1206500" lon="7.5934350">
        <ele>405.3300000</ele>
        <time>2010-08-20T11:00:30Z</time>
      </trkpt>
      <trkpt lat="51.1215520" lon="7.5948620">
        <ele>401.0100000</ele>
        <time>2010-08-20T11:00:40Z</time>
      </trkpt>
      <trkpt lat="51.1223510" lon="7.5961700">
        <ele>399.0800000</ele>
        <time>2010-08-20T11:00:48Z</time>
      </trkpt>
      <trkpt lat="51.1224220" lon="7.5963600">
        <ele>399.0800000</ele>
        <time>2010-08-20T11:00:49Z</time>
      </trkpt>
      <trkpt lat="51.1224800" lon="7.5965600">
        <ele>398.6000000</ele>
        <time>2010-08-20T11:00:50Z</time>
      </trkpt>
      <trkpt lat="51.1225230" lon="7.5967870">
        <ele>398.1200000</ele>
        <time>2010-08-20T11:00:51Z</time>
      </trkpt>
      <trkpt lat="51.1225610" lon="7.5970180">
        <ele>397.6400000</ele>
        <time>2010-08-20T11:00:52Z</time>
      </trkpt>
      <trkpt lat="51.1232300" lon="7.5995510">
        <ele>393.3200000</ele>
        <time>2010-08-20T11:01:04Z</time>
      </trkpt>
      <trkpt lat="51.1236170" lon="7.6011130">
        <ele>391.8700000</ele>
        <time>2010-08-20T11:01:13Z</time>
      </trkpt>
      <trkpt lat="51.1237190" lon="7.6015720">
        <ele>391.8700000</ele>
        <time>2010-08-20T11:01:21Z</time>
      </trkpt>
      <trkpt lat="51.1238410" lon="7.6018460">
        <ele>397.1600000</ele>
        <time>2010-08-20T11:01:48Z</time>
      </trkpt>
      <trkpt lat="51.1239770" lon="7.6021930">
        <ele>396.6800000</ele>
        <time>2010-08-20T11:01:51Z</time>
      </trkpt>
      <trkpt lat="51.1240030" lon="7.6023100">
        <ele>396.2000000</ele>
        <time>2010-08-20T11:01:52Z</time>
      </trkpt>
      <trkpt lat="51.1239970" lon="7.6024030">
        <ele>395.7200000</ele>
        <time>2010-08-20T11:01:53Z</time>
      </trkpt>
      <trkpt lat="51.1239330" lon="7.6024800">
        <ele>394.7600000</ele>
        <time>2010-08-20T11:01:54Z</time>
      </trkpt>
      <trkpt lat="51.1238460" lon="7.6025620">
        <ele>394.2800000</ele>
        <time>2010-08-20T11:01:55Z</time>
      </trkpt>
      <trkpt lat="51.1237480" lon="7.6026540">
        <ele>394.2800000</ele>
        <time>2010-08-20T11:01:56Z</time>
      </trkpt>
      <trkpt lat="51.1236150" lon="7.6027800">
        <ele>394.7600000</ele>
        <time>2010-08-20T11:01:57Z</time>
      </trkpt>
      <trkpt lat="51.1227000" lon="7.6039320">
        <ele>398.6000000</ele>
        <time>2010-08-20T11:02:04Z</time>
      </trkpt>
      <trkpt lat="51.1220350" lon="7.6055770">
        <ele>399.0800000</ele>
        <time>2010-08-20T11:02:12Z</time>
      </trkpt>
      <trkpt lat="51.1219400" lon="7.6060170">
        <ele>398.6000000</ele>
        <time>2010-08-20T11:02:14Z</time>
      </trkpt>
      <trkpt lat="51.1219110" lon="7.6062360">
        <ele>398.6000000</ele>
        <time>2010-08-20T11:02:15Z</time>
      </trkpt>
      <trkpt lat="51.1218770" lon="7.6064420">
        <ele>398.1200000</ele>
        <time>2010-08-20T11:02:16Z</time>
      </trkpt>
      <trkpt lat="51.1218570" lon="7.6066400">
        <ele>401.0100000</ele>
        <time>2010-08-20T11:02:17Z</time>
      </trkpt>
      <trkpt lat="51.1218040" lon="7.6068170">
        <ele>401.0100000</ele>
        <time>2010-08-20T11:02:18Z</time>
      </trkpt>
      <trkpt lat="51.1217440" lon="7.6069850">
        <ele>401.0100000</ele>
        <time>2010-08-20T11:02:19Z</time>
      </trkpt>
      <trkpt lat="51.1216710" lon="7.6071500">
        <ele>401.0100000</ele>
        <time>2010-08-20T11:02:20Z</time>
      </trkpt>
      <trkpt lat="51.1215840" lon="7.6073150">
        <ele>401.4900000</ele>
        <time>2010-08-20T11:02:21Z</time>
      </trkpt>
      <trkpt lat="51.1214840" lon="7.6074790">
        <ele>401.9700000</ele>
        <time>2010-08-20T11:02:22Z</time>
      </trkpt>
      <trkpt lat="51.1213640" lon="7.6076360">
        <ele>401.4900000</ele>
        <time>2010-08-20T11:02:23Z</time>
      </trkpt>
      <trkpt lat="51.1212390" lon="7.6077920">
        <ele>400.0500000</ele>
        <time>2010-08-20T11:02:24Z</time>
      </trkpt>
      <trkpt lat="51.1210240" lon="7.6081210">
        <ele>398.6000000</ele>
        <time>2010-08-20T11:02:26Z</time>
      </trkpt>
      <trkpt lat="51.1209400" lon="7.6083290">
        <ele>397.6400000</ele>
        <time>2010-08-20T11:02:27Z</time>
      </trkpt>
      <trkpt lat="51.1208750" lon="7.6086030">
        <ele>396.2000000</ele>
        <time>2010-08-20T11:02:28Z</time>
      </trkpt>
      <trkpt lat="51.1208210" lon="7.6089110">
        <ele>395.2400000</ele>
        <time>2010-08-20T11:02:29Z</time>
      </trkpt>
      <trkpt lat="51.1207710" lon="7.6092410">
        <ele>393.8000000</ele>
        <time>2010-08-20T11:02:30Z</time>
      </trkpt>
      <trkpt lat="51.1202090" lon="7.6128160">
        <ele>373.6100000</ele>
        <time>2010-08-20T11:02:42Z</time>
      </trkpt>
      <trkpt lat="51.1198970" lon="7.6154250">
        <ele>366.4000000</ele>
        <time>2010-08-20T11:02:50Z</time>
      </trkpt>
      <trkpt lat="51.1196540" lon="7.6159580">
        <ele>367.8400000</ele>
        <time>2010-08-20T11:02:52Z</time>
      </trkpt>
      <trkpt lat="51.1195050" lon="7.6161860">
        <ele>369.2800000</ele>
        <time>2010-08-20T11:02:53Z</time>
      </trkpt>
      <trkpt lat="51.1193200" lon="7.6163780">
        <ele>370.2400000</ele>
        <time>2010-08-20T11:02:54Z</time>
      </trkpt>
      <trkpt lat="51.1191350" lon="7.6165420">
        <ele>371.6900000</ele>
        <time>2010-08-20T11:02:55Z</time>
      </trkpt>
      <trkpt lat="51.1189590" lon="7.6166800">
        <ele>373.1300000</ele>
        <time>2010-08-20T11:02:56Z</time>
      </trkpt>
      <trkpt lat="51.1187720" lon="7.6168170">
        <ele>376.4900000</ele>
        <time>2010-08-20T11:02:57Z</time>
      </trkpt>
      <trkpt lat="51.1185620" lon="7.6168600">
        <ele>380.3400000</ele>
        <time>2010-08-20T11:02:58Z</time>
      </trkpt>
      <trkpt lat="51.1183530" lon="7.6169440">
        <ele>383.7000000</ele>
        <time>2010-08-20T11:02:59Z</time>
      </trkpt>
      <trkpt lat="51.1166930" lon="7.6177310">
        <ele>398.6000000</ele>
        <time>2010-08-20T11:03:07Z</time>
      </trkpt>
      <trkpt lat="51.1151990" lon="7.6186840">
        <ele>430.3300000</ele>
        <time>2010-08-20T11:03:15Z</time>
      </trkpt>
      <trkpt lat="51.1150650" lon="7.6188970">
        <ele>431.7700000</ele>
        <time>2010-08-20T11:03:16Z</time>
      </trkpt>
      <trkpt lat="51.1149470" lon="7.6191150">
        <ele>433.6900000</ele>
        <time>2010-08-20T11:03:17Z</time>
      </trkpt>
      <trkpt lat="51.1148690" lon="7.6193600">
        <ele>437.0600000</ele>
        <time>2010-08-20T11:03:18Z</time>
      </trkpt>
      <trkpt lat="51.1148090" lon="7.6196270">
        <ele>440.4200000</ele>
        <time>2010-08-20T11:03:19Z</time>
      </trkpt>
      <trkpt lat="51.1147360" lon="7.6198540">
        <ele>442.3400000</ele>
        <time>2010-08-20T11:03:20Z</time>
      </trkpt>
      <trkpt lat="51.1139200" lon="7.6213130">
        <ele>446.6700000</ele>
        <time>2010-08-20T11:03:28Z</time>
      </trkpt>
      <trkpt lat="51.1136960" lon="7.6217170">
        <ele>446.1900000</ele>
        <time>2010-08-20T11:03:30Z</time>
      </trkpt>
      <trkpt lat="51.1136110" lon="7.6219510">
        <ele>446.6700000</ele>
        <time>2010-08-20T11:03:31Z</time>
      </trkpt>
      <trkpt lat="51.1135410" lon="7.6222000">
        <ele>446.6700000</ele>
        <time>2010-08-20T11:03:32Z</time>
      </trkpt>
      <trkpt lat="51.1127930" lon="7.6242620">
        <ele>451.4800000</ele>
        <time>2010-08-20T11:03:41Z</time>
      </trkpt>
      <trkpt lat="51.1125270" lon="7.6247830">
        <ele>451.0000000</ele>
        <time>2010-08-20T11:03:44Z</time>
      </trkpt>
      <trkpt lat="51.1124240" lon="7.6249250">
        <ele>450.5200000</ele>
        <time>2010-08-20T11:03:45Z</time>
      </trkpt>
      <trkpt lat="51.1121970" lon="7.6250300">
        <ele>448.5900000</ele>
        <time>2010-08-20T11:03:47Z</time>
      </trkpt>
      <trkpt lat="51.1120070" lon="7.6250100">
        <ele>448.1100000</ele>
        <time>2010-08-20T11:03:48Z</time>
      </trkpt>
      <trkpt lat="51.1111020" lon="7.6248640">
        <ele>442.8200000</ele>
        <time>2010-08-20T11:03:53Z</time>
      </trkpt>
      <trkpt lat="51.1108020" lon="7.6248500">
        <ele>441.3800000</ele>
        <time>2010-08-20T11:03:55Z</time>
      </trkpt>
      <trkpt lat="51.1106660" lon="7.6248900">
        <ele>440.4200000</ele>
        <time>2010-08-20T11:03:56Z</time>
      </trkpt>
      <trkpt lat="51.1105410" lon="7.6249590">
        <ele>439.4600000</ele>
        <time>2010-08-20T11:03:57Z</time>
      </trkpt>
      <trkpt lat="51.1104220" lon="7.6250580">
        <ele>438.5000000</ele>
        <time>2010-08-20T11:03:58Z</time>
      </trkpt>
      <trkpt lat="51.1103120" lon="7.6252240">
        <ele>437.5400000</ele>
        <time>2010-08-20T11:03:59Z</time>
      </trkpt>
      <trkpt lat="51.1102300" lon="7.6254060">
        <ele>437.0600000</ele>
        <time>2010-08-20T11:04:00Z</time>
      </trkpt>
      <trkpt lat="51.1101720" lon="7.6256530">
        <ele>436.1000000</ele>
        <time>2010-08-20T11:04:01Z</time>
      </trkpt>
      <trkpt lat="51.1101190" lon="7.6259440">
        <ele>434.6500000</ele>
        <time>2010-08-20T11:04:02Z</time>
      </trkpt>
      <trkpt lat="51.1100850" lon="7.6262500">
        <ele>434.1700000</ele>
        <time>2010-08-20T11:04:03Z</time>
      </trkpt>
      <trkpt lat="51.1100750" lon="7.6265760">
        <ele>433.6900000</ele>
        <time>2010-08-20T11:04:04Z</time>
      </trkpt>
      <trkpt lat="51.1100680" lon="7.6268970">
        <ele>434.1700000</ele>
        <time>2010-08-20T11:04:05Z</time>
      </trkpt>
      <trkpt lat="51.1100630" lon="7.6272120">
        <ele>434.6500000</ele>
        <time>2010-08-20T11:04:06Z</time>
      </trkpt>
      <trkpt lat="51.1099420" lon="7.6301450">
        <ele>435.6100000</ele>
        <time>2010-08-20T11:04:16Z</time>
      </trkpt>
      <trkpt lat="51.1095100" lon="7.6317950">
        <ele>425.5200000</ele>
        <time>2010-08-20T11:04:23Z</time>
      </trkpt>
      <trkpt lat="51.1086450" lon="7.6338240">
        <ele>412.0600000</ele>
        <time>2010-08-20T11:04:33Z</time>
      </trkpt>
      <trkpt lat="51.1085820" lon="7.6340310">
        <ele>410.6200000</ele>
        <time>2010-08-20T11:04:34Z</time>
      </trkpt>
      <trkpt lat="51.1085400" lon="7.6342430">
        <ele>408.7000000</ele>
        <time>2010-08-20T11:04:35Z</time>
      </trkpt>
      <trkpt lat="51.1085250" lon="7.6344600">
        <ele>406.7700000</ele>
        <time>2010-08-20T11:04:36Z</time>
      </trkpt>
      <trkpt lat="51.1085340" lon="7.6346820">
        <ele>405.8100000</ele>
        <time>2010-08-20T11:04:37Z</time>
      </trkpt>
      <trkpt lat="51.1085490" lon="7.6348990">
        <ele>404.3700000</ele>
        <time>2010-08-20T11:04:38Z</time>
      </trkpt>
      <trkpt lat="51.1085820" lon="7.6353410">
        <ele>400.5300000</ele>
        <time>2010-08-20T11:04:41Z</time>
      </trkpt>
      <trkpt lat="51.1085540" lon="7.6354270">
        <ele>399.5700000</ele>
        <time>2010-08-20T11:04:42Z</time>
      </trkpt>
      <trkpt lat="51.1085130" lon="7.6354920">
        <ele>399.0800000</ele>
        <time>2010-08-20T11:04:43Z</time>
      </trkpt>
      <trkpt lat="51.1084290" lon="7.6355160">
        <ele>398.1200000</ele>
        <time>2010-08-20T11:04:44Z</time>
      </trkpt>
      <trkpt lat="51.1083490" lon="7.6355410">
        <ele>397.1600000</ele>
        <time>2010-08-20T11:04:45Z</time>
      </trkpt>
      <trkpt lat="51.1082790" lon="7.6356160">
        <ele>396.2000000</ele>
        <time>2010-08-20T11:04:46Z</time>
      </trkpt>
      <trkpt lat="51.1082180" lon="7.6357220">
        <ele>396.6800000</ele>
        <time>2010-08-20T11:04:47Z</time>
      </trkpt>
      <trkpt lat="51.1081450" lon="7.6358770">
        <ele>395.7200000</ele>
        <time>2010-08-20T11:04:48Z</time>
      </trkpt>
      <trkpt lat="51.1081030" lon="7.6360400">
        <ele>395.2400000</ele>
        <time>2010-08-20T11:04:49Z</time>
      </trkpt>
      <trkpt lat="51.1080830" lon="7.6362080">
        <ele>395.2400000</ele>
        <time>2010-08-20T11:04:50Z</time>
      </trkpt>
      <trkpt lat="51.1080570" lon="7.6363500">
        <ele>394.2800000</ele>
        <time>2010-08-20T11:04:51Z</time>
      </trkpt>
      <trkpt lat="51.1077300" lon="7.6374850">
        <ele>390.9100000</ele>
        <time>2010-08-20T11:04:59Z</time>
      </trkpt>
      <trkpt lat="51.1074030" lon="7.6385020">
        <ele>389.9500000</ele>
        <time>2010-08-20T11:05:07Z</time>
      </trkpt>
      <trkpt lat="51.1073950" lon="7.6385780">
        <ele>389.4700000</ele>
        <time>2010-08-20T11:05:08Z</time>
      </trkpt>
      <trkpt lat="51.1074040" lon="7.6386510">
        <ele>389.4700000</ele>
        <time>2010-08-20T11:05:09Z</time>
      </trkpt>
      <trkpt lat="51.1074380" lon="7.6387190">
        <ele>389.4700000</ele>
        <time>2010-08-20T11:05:10Z</time>
      </trkpt>
      <trkpt lat="51.1074800" lon="7.6387780">
        <ele>388.9900000</ele>
        <time>2010-08-20T11:05:11Z</time>
      </trkpt>
      <trkpt lat="51.1075250" lon="7.6388300">
        <ele>388.9900000</ele>
        <time>2010-08-20T11:05:12Z</time>
      </trkpt>
      <trkpt lat="51.1075710" lon="7.6388780">
        <ele>388.9900000</ele>
        <time>2010-08-20T11:05:13Z</time>
      </trkpt>
      <trkpt lat="51.1077410" lon="7.6390730">
        <ele>391.3900000</ele>
        <time>2010-08-20T11:05:19Z</time>
      </trkpt>
      <trkpt lat="51.1079190" lon="7.6391620">
        <ele>398.1200000</ele>
        <time>2010-08-20T11:05:27Z</time>
      </trkpt>
      <trkpt lat="51.1079360" lon="7.6392700">
        <ele>397.6400000</ele>
        <time>2010-08-20T11:05:28Z</time>
      </trkpt>
      <trkpt lat="51.1079160" lon="7.6394160">
        <ele>396.6800000</ele>
        <time>2010-08-20T11:05:29Z</time>
      </trkpt>
      <trkpt lat="51.1078890" lon="7.6395400">
        <ele>396.6800000</ele>
        <time>2010-08-20T11:05:30Z</time>
      </trkpt>
      <trkpt lat="51.1078580" lon="7.6396390">
        <ele>396.2000000</ele>
        <time>2010-08-20T11:05:31Z</time>
      </trkpt>
      <trkpt lat="51.1078320" lon="7.6397120">
        <ele>396.2000000</ele>
        <time>2010-08-20T11:05:32Z</time>
      </trkpt>
      <trkpt lat="51.1077490" lon="7.6399390">
        <ele>395.7200000</ele>
        <time>2010-08-20T11:05:39Z</time>
      </trkpt>
      <trkpt lat="51.1076720" lon="7.6401670">
        <ele>395.7200000</ele>
        <time>2010-08-20T11:05:48Z</time>
      </trkpt>
      <trkpt lat="51.1076520" lon="7.6402450">
        <ele>395.7200000</ele>
        <time>2010-08-20T11:05:49Z</time>
      </trkpt>
      <trkpt lat="51.1076380" lon="7.6403280">
        <ele>395.7200000</ele>
        <time>2010-08-20T11:05:50Z</time>
      </trkpt>
      <trkpt lat="51.1076390" lon="7.6404140">
        <ele>395.7200000</ele>
        <time>2010-08-20T11:05:51Z</time>
      </trkpt>
      <trkpt lat="51.1076560" lon="7.6405050">
        <ele>395.7200000</ele>
        <time>2010-08-20T11:05:52Z</time>
      </trkpt>
      <trkpt lat="51.1076850" lon="7.6405960">
        <ele>395.2400000</ele>
        <time>2010-08-20T11:05:53Z</time>
      </trkpt>
      <trkpt lat="51.1077200" lon="7.6406770">
        <ele>395.2400000</ele>
        <time>2010-08-20T11:05:54Z</time>
      </trkpt>
      <trkpt lat="51.1077590" lon="7.6407650">
        <ele>395.2400000</ele>
        <time>2010-08-20T11:05:55Z</time>
      </trkpt>
      <trkpt lat="51.1078050" lon="7.6408870">
        <ele>395.2400000</ele>
        <time>2010-08-20T11:05:56Z</time>
      </trkpt>
      <trkpt lat="51.1078530" lon="7.6410600">
        <ele>395.7200000</ele>
        <time>2010-08-20T11:05:57Z</time>
      </trkpt>
      <trkpt lat="51.1080680" lon="7.6425330">
        <ele>401.0100000</ele>
        <time>2010-08-20T11:06:04Z</time>
      </trkpt>
      <trkpt lat="51.1082320" lon="7.6437610">
        <ele>402.9300000</ele>
        <time>2010-08-20T11:06:11Z</time>
      </trkpt>
      <trkpt lat="51.1082480" lon="7.6438490">
        <ele>403.4100000</ele>
        <time>2010-08-20T11:06:12Z</time>
      </trkpt>
      <trkpt lat="51.1082500" lon="7.6439170">
        <ele>403.4100000</ele>
        <time>2010-08-20T11:06:13Z</time>
      </trkpt>
      <trkpt lat="51.1082480" lon="7.6439700">
        <ele>403.8900000</ele>
        <time>2010-08-20T11:06:14Z</time>
      </trkpt>
      <trkpt lat="51.1082160" lon="7.6440600">
        <ele>403.8900000</ele>
        <time>2010-08-20T11:06:18Z</time>
      </trkpt>
      <trkpt lat="51.1081730" lon="7.6441240">
        <ele>403.8900000</ele>
        <time>2010-08-20T11:06:19Z</time>
      </trkpt>
      <trkpt lat="51.1081240" lon="7.6441970">
        <ele>403.4100000</ele>
        <time>2010-08-20T11:06:20Z</time>
      </trkpt>
      <trkpt lat="51.1080780" lon="7.6442830">
        <ele>403.4100000</ele>
        <time>2010-08-20T11:06:21Z</time>
      </trkpt>
      <trkpt lat="51.1080390" lon="7.6443870">
        <ele>402.9300000</ele>
        <time>2010-08-20T11:06:22Z</time>
      </trkpt>
      <trkpt lat="51.1080140" lon="7.6445070">
        <ele>402.9300000</ele>
        <time>2010-08-20T11:06:23Z</time>
      </trkpt>
      <trkpt lat="51.1079930" lon="7.6446290">
        <ele>401.9700000</ele>
        <time>2010-08-20T11:06:24Z</time>
      </trkpt>
      <trkpt lat="51.1079710" lon="7.6447500">
        <ele>401.0100000</ele>
        <time>2010-08-20T11:06:25Z</time>
      </trkpt>
      <trkpt lat="51.1078960" lon="7.6450330">
        <ele>400.0500000</ele>
        <time>2010-08-20T11:06:28Z</time>
      </trkpt>
      <trkpt lat="51.1078780" lon="7.6451440">
        <ele>398.6000000</ele>
        <time>2010-08-20T11:06:37Z</time>
      </trkpt>
      <trkpt lat="51.1078740" lon="7.6451810">
        <ele>397.6400000</ele>
        <time>2010-08-20T11:07:06Z</time>
      </trkpt>
      <trkpt lat="51.1077650" lon="7.6452750">
        <ele>397.1600000</ele>
        <time>2010-08-20T11:07:11Z</time>
      </trkpt>
      <trkpt lat="51.1077180" lon="7.6453000">
        <ele>397.1600000</ele>
        <time>2010-08-20T11:07:12Z</time>
      </trkpt>
      <trkpt lat="51.1076210" lon="7.6453610">
        <ele>396.6800000</ele>
        <time>2010-08-20T11:07:14Z</time>
      </trkpt>
      <trkpt lat="51.1075820" lon="7.6454180">
        <ele>397.1600000</ele>
        <time>2010-08-20T11:07:15Z</time>
      </trkpt>
      <trkpt lat="51.1075560" lon="7.6454960">
        <ele>397.1600000</ele>
        <time>2010-08-20T11:07:16Z</time>
      </trkpt>
      <trkpt lat="51.1075440" lon="7.6455890">
        <ele>397.1600000</ele>
        <time>2010-08-20T11:07:17Z</time>
      </trkpt>
      <trkpt lat="51.1075430" lon="7.6456940">
        <ele>397.1600000</ele>
        <time>2010-08-20T11:07:18Z</time>
      </trkpt>
      <trkpt lat="51.1075430" lon="7.6458070">
        <ele>397.1600000</ele>
        <time>2010-08-20T11:07:19Z</time>
      </trkpt>
      <trkpt lat="51.1075420" lon="7.6467770">
        <ele>398.1200000</ele>
        <time>2010-08-20T11:07:30Z</time>
      </trkpt>
      <trkpt lat="51.1075170" lon="7.6473680">
        <ele>399.5700000</ele>
        <time>2010-08-20T11:07:41Z</time>
      </trkpt>
      <trkpt lat="51.1073710" lon="7.6483420">
        <ele>401.0100000</ele>
        <time>2010-08-20T11:07:50Z</time>
      </trkpt>
      <trkpt lat="51.1069980" lon="7.6496840">
        <ele>403.8900000</ele>
        <time>2010-08-20T11:08:02Z</time>
      </trkpt>
      <trkpt lat="51.1068450" lon="7.6504220">
        <ele>408.7000000</ele>
        <time>2010-08-20T11:08:11Z</time>
      </trkpt>
      <trkpt lat="51.1067210" lon="7.6509020">
        <ele>408.2200000</ele>
        <time>2010-08-20T11:08:28Z</time>
      </trkpt>
      <trkpt lat="51.1066100" lon="7.6516870">
        <ele>409.1800000</ele>
        <time>2010-08-20T11:08:42Z</time>
      </trkpt>
      <trkpt lat="51.1064790" lon="7.6530830">
        <ele>411.1000000</ele>
        <time>2010-08-20T11:08:55Z</time>
      </trkpt>
      <trkpt lat="51.1063110" lon="7.6549600">
        <ele>415.4300000</ele>
        <time>2010-08-20T11:09:09Z</time>
      </trkpt>
      <trkpt lat="51.1062470" lon="7.6557040">
        <ele>418.7900000</ele>
        <time>2010-08-20T11:09:17Z</time>
      </trkpt>
      <trkpt lat="51.1062470" lon="7.6560500">
        <ele>422.6400000</ele>
        <time>2010-08-20T11:09:52Z</time>
      </trkpt>
      <trkpt lat="51.1061060" lon="7.6575780">
        <ele>426.0000000</ele>
        <time>2010-08-20T11:09:59Z</time>
      </trkpt>
      <trkpt lat="51.1057180" lon="7.6594780">
        <ele>430.3300000</ele>
        <time>2010-08-20T11:10:06Z</time>
      </trkpt>
      <trkpt lat="51.1048810" lon="7.6612870">
        <ele>437.0600000</ele>
        <time>2010-08-20T11:10:12Z</time>
      </trkpt>
      <trkpt lat="51.1035190" lon="7.6638200">
        <ele>450.0300000</ele>
        <time>2010-08-20T11:10:20Z</time>
      </trkpt>
      <trkpt lat="51.1032840" lon="7.6649700">
        <ele>452.9200000</ele>
        <time>2010-08-20T11:10:23Z</time>
      </trkpt>
      <trkpt lat="51.1032720" lon="7.6653380">
        <ele>452.4400000</ele>
        <time>2010-08-20T11:10:24Z</time>
      </trkpt>
      <trkpt lat="51.1032630" lon="7.6656830">
        <ele>453.4000000</ele>
        <time>2010-08-20T11:10:25Z</time>
      </trkpt>
      <trkpt lat="51.1032910" lon="7.6672310">
        <ele>457.7200000</ele>
        <time>2010-08-20T11:10:31Z</time>
      </trkpt>
      <trkpt lat="51.1033280" lon="7.6682260">
        <ele>460.6100000</ele>
        <time>2010-08-20T11:10:39Z</time>
      </trkpt>
      <trkpt lat="51.1033270" lon="7.6683100">
        <ele>461.0900000</ele>
        <time>2010-08-20T11:10:40Z</time>
      </trkpt>
      <trkpt lat="51.1033190" lon="7.6689980">
        <ele>462.5300000</ele>
        <time>2010-08-20T11:10:49Z</time>
      </trkpt>
      <trkpt lat="51.1032710" lon="7.6696780">
        <ele>463.9700000</ele>
        <time>2010-08-20T11:10:54Z</time>
      </trkpt>
      <trkpt lat="51.1032250" lon="7.6705430">
        <ele>465.4200000</ele>
        <time>2010-08-20T11:11:03Z</time>
      </trkpt>
      <trkpt lat="51.1031620" lon="7.6716440">
        <ele>468.7800000</ele>
        <time>2010-08-20T11:11:13Z</time>
      </trkpt>
      <trkpt lat="51.1029990" lon="7.6730370">
        <ele>469.7400000</ele>
        <time>2010-08-20T11:11:22Z</time>
      </trkpt>
      <trkpt lat="51.1028250" lon="7.6742340">
        <ele>467.3400000</ele>
        <time>2010-08-20T11:11:32Z</time>
      </trkpt>
      <trkpt lat="51.1027210" lon="7.6756280">
        <ele>468.3000000</ele>
        <time>2010-08-20T11:11:42Z</time>
      </trkpt>
      <trkpt lat="51.1026670" lon="7.6760990">
        <ele>468.3000000</ele>
        <time>2010-08-20T11:11:44Z</time>
      </trkpt>
      <trkpt lat="51.1023790" lon="7.6783460">
        <ele>460.6100000</ele>
        <time>2010-08-20T11:11:54Z</time>
      </trkpt>
      <trkpt lat="51.1021620" lon="7.6803560">
        <ele>453.4000000</ele>
        <time>2010-08-20T11:12:05Z</time>
      </trkpt>
      <trkpt lat="51.1020560" lon="7.6818100">
        <ele>450.5200000</ele>
        <time>2010-08-20T11:12:11Z</time>
      </trkpt>
      <trkpt lat="51.1020690" lon="7.6821440">
        <ele>450.0300000</ele>
        <time>2010-08-20T11:12:12Z</time>
      </trkpt>
      <trkpt lat="51.1020930" lon="7.6847450">
        <ele>444.7500000</ele>
        <time>2010-08-20T11:12:20Z</time>
      </trkpt>
      <trkpt lat="51.1018640" lon="7.6857200">
        <ele>442.8200000</ele>
        <time>2010-08-20T11:12:23Z</time>
      </trkpt>
      <trkpt lat="51.1012290" lon="7.6882820">
        <ele>438.5000000</ele>
        <time>2010-08-20T11:12:31Z</time>
      </trkpt>
      <trkpt lat="51.1012170" lon="7.6886390">
        <ele>437.5400000</ele>
        <time>2010-08-20T11:12:32Z</time>
      </trkpt>
      <trkpt lat="51.1012260" lon="7.6889910">
        <ele>437.0600000</ele>
        <time>2010-08-20T11:12:33Z</time>
      </trkpt>
      <trkpt lat="51.1012540" lon="7.6893390">
        <ele>436.1000000</ele>
        <time>2010-08-20T11:12:34Z</time>
      </trkpt>
      <trkpt lat="51.1013020" lon="7.6896860">
        <ele>435.6100000</ele>
        <time>2010-08-20T11:12:35Z</time>
      </trkpt>
      <trkpt lat="51.1013730" lon="7.6900320">
        <ele>435.1300000</ele>
        <time>2010-08-20T11:12:36Z</time>
      </trkpt>
      <trkpt lat="51.1014660" lon="7.6903780">
        <ele>434.6500000</ele>
        <time>2010-08-20T11:12:37Z</time>
      </trkpt>
      <trkpt lat="51.1015780" lon="7.6907240">
        <ele>433.6900000</ele>
        <time>2010-08-20T11:12:38Z</time>
      </trkpt>
      <trkpt lat="51.1017050" lon="7.6910690">
        <ele>433.2100000</ele>
        <time>2010-08-20T11:12:39Z</time>
      </trkpt>
      <trkpt lat="51.1018450" lon="7.6914100">
        <ele>432.7300000</ele>
        <time>2010-08-20T11:12:40Z</time>
      </trkpt>
      <trkpt lat="51.1033730" lon="7.6950270">
        <ele>426.4800000</ele>
        <time>2010-08-20T11:12:51Z</time>
      </trkpt>
      <trkpt lat="51.1051810" lon="7.6985940">
        <ele>422.6400000</ele>
        <time>2010-08-20T11:13:03Z</time>
      </trkpt>
      <trkpt lat="51.1052440" lon="7.6989700">
        <ele>422.6400000</ele>
        <time>2010-08-20T11:13:04Z</time>
      </trkpt>
      <trkpt lat="51.1052830" lon="7.6993470">
        <ele>422.1600000</ele>
        <time>2010-08-20T11:13:05Z</time>
      </trkpt>
      <trkpt lat="51.1052990" lon="7.6997210">
        <ele>422.1600000</ele>
        <time>2010-08-20T11:13:06Z</time>
      </trkpt>
      <trkpt lat="51.1052960" lon="7.7000940">
        <ele>421.6800000</ele>
        <time>2010-08-20T11:13:07Z</time>
      </trkpt>
      <trkpt lat="51.1052760" lon="7.7004670">
        <ele>421.6800000</ele>
        <time>2010-08-20T11:13:08Z</time>
      </trkpt>
      <trkpt lat="51.1052440" lon="7.7008390">
        <ele>421.6800000</ele>
        <time>2010-08-20T11:13:09Z</time>
      </trkpt>
      <trkpt lat="51.1051380" lon="7.7035770">
        <ele>418.3100000</ele>
        <time>2010-08-20T11:13:17Z</time>
      </trkpt>
      <trkpt lat="51.1055080" lon="7.7070590">
        <ele>412.5400000</ele>
        <time>2010-08-20T11:13:27Z</time>
      </trkpt>
      <trkpt lat="51.1060720" lon="7.7091060">
        <ele>408.7000000</ele>
        <time>2010-08-20T11:13:33Z</time>
      </trkpt>
      <trkpt lat="51.1071880" lon="7.7115410">
        <ele>404.3700000</ele>
        <time>2010-08-20T11:13:41Z</time>
      </trkpt>
      <trkpt lat="51.1076710" lon="7.7138040">
        <ele>402.4500000</ele>
        <time>2010-08-20T11:13:47Z</time>
      </trkpt>
      <trkpt lat="51.1081300" lon="7.7160160">
        <ele>400.0500000</ele>
        <time>2010-08-20T11:13:54Z</time>
      </trkpt>
      <trkpt lat="51.1087600" lon="7.7189600">
        <ele>397.6400000</ele>
        <time>2010-08-20T11:14:03Z</time>
      </trkpt>
      <trkpt lat="51.1087170" lon="7.7200440">
        <ele>397.6400000</ele>
        <time>2010-08-20T11:14:06Z</time>
      </trkpt>
      <trkpt lat="51.1086590" lon="7.7203880">
        <ele>397.6400000</ele>
        <time>2010-08-20T11:14:07Z</time>
      </trkpt>
      <trkpt lat="51.1085830" lon="7.7207110">
        <ele>397.6400000</ele>
        <time>2010-08-20T11:14:08Z</time>
      </trkpt>
      <trkpt lat="51.1084960" lon="7.7210110">
        <ele>397.6400000</ele>
        <time>2010-08-20T11:14:09Z</time>
      </trkpt>
      <trkpt lat="51.1084000" lon="7.7212910">
        <ele>397.6400000</ele>
        <time>2010-08-20T11:14:10Z</time>
      </trkpt>
      <trkpt lat="51.1082920" lon="7.7215610">
        <ele>398.1200000</ele>
        <time>2010-08-20T11:14:11Z</time>
      </trkpt>
      <trkpt lat="51.1081780" lon="7.7218300">
        <ele>398.6000000</ele>
        <time>2010-08-20T11:14:12Z</time>
      </trkpt>
      <trkpt lat="51.1078960" lon="7.7226740">
        <ele>398.6000000</ele>
        <time>2010-08-20T11:14:15Z</time>
      </trkpt>
      <trkpt lat="51.1078370" lon="7.7229610">
        <ele>398.6000000</ele>
        <time>2010-08-20T11:14:16Z</time>
      </trkpt>
      <trkpt lat="51.1077990" lon="7.7232450">
        <ele>399.0800000</ele>
        <time>2010-08-20T11:14:17Z</time>
      </trkpt>
      <trkpt lat="51.1077780" lon="7.7235260">
        <ele>399.0800000</ele>
        <time>2010-08-20T11:14:18Z</time>
      </trkpt>
      <trkpt lat="51.1077720" lon="7.7238000">
        <ele>399.5700000</ele>
        <time>2010-08-20T11:14:19Z</time>
      </trkpt>
      <trkpt lat="51.1077810" lon="7.7240710">
        <ele>399.5700000</ele>
        <time>2010-08-20T11:14:20Z</time>
      </trkpt>
      <trkpt lat="51.1078040" lon="7.7243410">
        <ele>399.0800000</ele>
        <time>2010-08-20T11:14:21Z</time>
      </trkpt>
      <trkpt lat="51.1078410" lon="7.7246060">
        <ele>399.0800000</ele>
        <time>2010-08-20T11:14:22Z</time>
      </trkpt>
      <trkpt lat="51.1078900" lon="7.7248670">
        <ele>399.0800000</ele>
        <time>2010-08-20T11:14:23Z</time>
      </trkpt>
      <trkpt lat="51.1079600" lon="7.7251180">
        <ele>399.0800000</ele>
        <time>2010-08-20T11:14:24Z</time>
      </trkpt>
      <trkpt lat="51.1080300" lon="7.7253450">
        <ele>398.6000000</ele>
        <time>2010-08-20T11:14:25Z</time>
      </trkpt>
      <trkpt lat="51.1081490" lon="7.7257690">
        <ele>398.6000000</ele>
        <time>2010-08-20T11:14:28Z</time>
      </trkpt>
      <trkpt lat="51.1081340" lon="7.7258970">
        <ele>398.6000000</ele>
        <time>2010-08-20T11:14:29Z</time>
      </trkpt>
      <trkpt lat="51.1080930" lon="7.7260140">
        <ele>398.1200000</ele>
        <time>2010-08-20T11:14:30Z</time>
      </trkpt>
      <trkpt lat="51.1080120" lon="7.7261190">
        <ele>397.1600000</ele>
        <time>2010-08-20T11:14:31Z</time>
      </trkpt>
      <trkpt lat="51.1079140" lon="7.7262130">
        <ele>396.6800000</ele>
        <time>2010-08-20T11:14:32Z</time>
      </trkpt>
      <trkpt lat="51.1077920" lon="7.7262900">
        <ele>396.2000000</ele>
        <time>2010-08-20T11:14:33Z</time>
      </trkpt>
      <trkpt lat="51.1076450" lon="7.7263460">
        <ele>395.7200000</ele>
        <time>2010-08-20T11:14:34Z</time>
      </trkpt>
      <trkpt lat="51.1074770" lon="7.7263800">
        <ele>395.2400000</ele>
        <time>2010-08-20T11:14:35Z</time>
      </trkpt>
      <trkpt lat="51.1072940" lon="7.7263920">
        <ele>394.7600000</ele>
        <time>2010-08-20T11:14:36Z</time>
      </trkpt>
      <trkpt lat="51.1071080" lon="7.7263760">
        <ele>394.2800000</ele>
        <time>2010-08-20T11:14:37Z</time>
      </trkpt>
      <trkpt lat="51.1069220" lon="7.7263050">
        <ele>393.8000000</ele>
        <time>2010-08-20T11:14:38Z</time>
      </trkpt>
      <trkpt lat="51.1067470" lon="7.7262320">
        <ele>393.3200000</ele>
        <time>2010-08-20T11:14:39Z</time>
      </trkpt>
      <trkpt lat="51.1065750" lon="7.7261400">
        <ele>392.8400000</ele>
        <time>2010-08-20T11:14:40Z</time>
      </trkpt>
      <trkpt lat="51.1064020" lon="7.7260250">
        <ele>392.3600000</ele>
        <time>2010-08-20T11:14:41Z</time>
      </trkpt>
      <trkpt lat="51.1056690" lon="7.7256000">
        <ele>389.4700000</ele>
        <time>2010-08-20T11:14:45Z</time>
      </trkpt>
      <trkpt lat="51.1054820" lon="7.7255500">
        <ele>388.9900000</ele>
        <time>2010-08-20T11:14:46Z</time>
      </trkpt>
      <trkpt lat="51.1052880" lon="7.7255730">
        <ele>388.5100000</ele>
        <time>2010-08-20T11:14:47Z</time>
      </trkpt>
      <trkpt lat="51.1050900" lon="7.7256310">
        <ele>388.0300000</ele>
        <time>2010-08-20T11:14:48Z</time>
      </trkpt>
      <trkpt lat="51.1049010" lon="7.7257260">
        <ele>387.5500000</ele>
        <time>2010-08-20T11:14:49Z</time>
      </trkpt>
      <trkpt lat="51.1047280" lon="7.7258590">
        <ele>387.5500000</ele>
        <time>2010-08-20T11:14:50Z</time>
      </trkpt>
      <trkpt lat="51.1045510" lon="7.7259900">
        <ele>387.0700000</ele>
        <time>2010-08-20T11:14:51Z</time>
      </trkpt>
      <trkpt lat="51.1043780" lon="7.7261300">
        <ele>386.5900000</ele>
        <time>2010-08-20T11:14:52Z</time>
      </trkpt>
      <trkpt lat="51.1035530" lon="7.7269040">
        <ele>385.1500000</ele>
        <time>2010-08-20T11:14:58Z</time>
      </trkpt>
      <trkpt lat="51.1034810" lon="7.7270760">
        <ele>384.6600000</ele>
        <time>2010-08-20T11:14:59Z</time>
      </trkpt>
      <trkpt lat="51.1034290" lon="7.7272930">
        <ele>384.1800000</ele>
        <time>2010-08-20T11:15:00Z</time>
      </trkpt>
      <trkpt lat="51.1030160" lon="7.7292100">
        <ele>384.6600000</ele>
        <time>2010-08-20T11:15:08Z</time>
      </trkpt>
      <trkpt lat="51.1029890" lon="7.7302660">
        <ele>385.6300000</ele>
        <time>2010-08-20T11:15:12Z</time>
      </trkpt>
      <trkpt lat="51.1030000" lon="7.7305130">
        <ele>386.1100000</ele>
        <time>2010-08-20T11:15:13Z</time>
      </trkpt>
      <trkpt lat="51.1030230" lon="7.7307720">
        <ele>386.1100000</ele>
        <time>2010-08-20T11:15:14Z</time>
      </trkpt>
      <trkpt lat="51.1032730" lon="7.7332670">
        <ele>384.1800000</ele>
        <time>2010-08-20T11:15:23Z</time>
      </trkpt>
      <trkpt lat="51.1033260" lon="7.7355450">
        <ele>381.7800000</ele>
        <time>2010-08-20T11:15:30Z</time>
      </trkpt>
      <trkpt lat="51.1033490" lon="7.7372800">
        <ele>379.3800000</ele>
        <time>2010-08-20T11:15:36Z</time>
      </trkpt>
      <trkpt lat="51.1033200" lon="7.7383070">
        <ele>377.9400000</ele>
        <time>2010-08-20T11:15:40Z</time>
      </trkpt>
      <trkpt lat="51.1033520" lon="7.7385330">
        <ele>377.9400000</ele>
        <time>2010-08-20T11:15:41Z</time>
      </trkpt>
      <trkpt lat="51.1034080" lon="7.7387640">
        <ele>377.4500000</ele>
        <time>2010-08-20T11:15:42Z</time>
      </trkpt>
      <trkpt lat="51.1036190" lon="7.7404250">
        <ele>375.5300000</ele>
        <time>2010-08-20T11:15:48Z</time>
      </trkpt>
      <trkpt lat="51.1034100" lon="7.7428120">
        <ele>373.6100000</ele>
        <time>2010-08-20T11:15:56Z</time>
      </trkpt>
      <trkpt lat="51.1033000" lon="7.7430830">
        <ele>373.1300000</ele>
        <time>2010-08-20T11:15:57Z</time>
      </trkpt>
      <trkpt lat="51.1031550" lon="7.7433460">
        <ele>373.1300000</ele>
        <time>2010-08-20T11:15:58Z</time>
      </trkpt>
      <trkpt lat="51.1030020" lon="7.7436170">
        <ele>372.6500000</ele>
        <time>2010-08-20T11:15:59Z</time>
      </trkpt>
      <trkpt lat="51.1028580" lon="7.7439000">
        <ele>373.1300000</ele>
        <time>2010-08-20T11:16:00Z</time>
      </trkpt>
      <trkpt lat="51.1016440" lon="7.7464000">
        <ele>372.1700000</ele>
        <time>2010-08-20T11:16:09Z</time>
      </trkpt>
      <trkpt lat="51.1014780" lon="7.7466150">
        <ele>371.6900000</ele>
        <time>2010-08-20T11:16:10Z</time>
      </trkpt>
      <trkpt lat="51.1010000" lon="7.7470860">
        <ele>369.2800000</ele>
        <time>2010-08-20T11:16:13Z</time>
      </trkpt>
      <trkpt lat="51.1007770" lon="7.7472590">
        <ele>368.3200000</ele>
        <time>2010-08-20T11:16:15Z</time>
      </trkpt>
      <trkpt lat="51.1006840" lon="7.7472580">
        <ele>367.8400000</ele>
        <time>2010-08-20T11:16:16Z</time>
      </trkpt>
      <trkpt lat="51.1005940" lon="7.7472460">
        <ele>367.8400000</ele>
        <time>2010-08-20T11:16:17Z</time>
      </trkpt>
      <trkpt lat="51.1005080" lon="7.7471990">
        <ele>367.8400000</ele>
        <time>2010-08-20T11:16:18Z</time>
      </trkpt>
      <trkpt lat="51.1004080" lon="7.7471390">
        <ele>367.8400000</ele>
        <time>2010-08-20T11:16:19Z</time>
      </trkpt>
      <trkpt lat="51.1003030" lon="7.7470870">
        <ele>367.8400000</ele>
        <time>2010-08-20T11:16:20Z</time>
      </trkpt>
      <trkpt lat="51.0994040" lon="7.7466910">
        <ele>367.8400000</ele>
        <time>2010-08-20T11:16:26Z</time>
      </trkpt>
      <trkpt lat="51.0992230" lon="7.7467190">
        <ele>368.3200000</ele>
        <time>2010-08-20T11:16:27Z</time>
      </trkpt>
      <trkpt lat="51.0990520" lon="7.7467970">
        <ele>368.8000000</ele>
        <time>2010-08-20T11:16:28Z</time>
      </trkpt>
      <trkpt lat="51.0988840" lon="7.7468870">
        <ele>368.3200000</ele>
        <time>2010-08-20T11:16:29Z</time>
      </trkpt>
      <trkpt lat="51.0987230" lon="7.7470230">
        <ele>368.3200000</ele>
        <time>2010-08-20T11:16:30Z</time>
      </trkpt>
      <trkpt lat="51.0972600" lon="7.7478250">
        <ele>370.2400000</ele>
        <time>2010-08-20T11:16:37Z</time>
      </trkpt>
      <trkpt lat="51.0957160" lon="7.7485650">
        <ele>370.2400000</ele>
        <time>2010-08-20T11:16:44Z</time>
      </trkpt>
      <trkpt lat="51.0934380" lon="7.7495110">
        <ele>366.4000000</ele>
        <time>2010-08-20T11:16:54Z</time>
      </trkpt>
      <trkpt lat="51.0930520" lon="7.7499940">
        <ele>364.9600000</ele>
        <time>2010-08-20T11:16:57Z</time>
      </trkpt>
      <trkpt lat="51.0929990" lon="7.7501600">
        <ele>364.4800000</ele>
        <time>2010-08-20T11:16:58Z</time>
      </trkpt>
      <trkpt lat="51.0929460" lon="7.7503570">
        <ele>364.4800000</ele>
        <time>2010-08-20T11:16:59Z</time>
      </trkpt>
      <trkpt lat="51.0929080" lon="7.7505940">
        <ele>364.0000000</ele>
        <time>2010-08-20T11:17:00Z</time>
      </trkpt>
      <trkpt lat="51.0928660" lon="7.7508460">
        <ele>363.5200000</ele>
        <time>2010-08-20T11:17:01Z</time>
      </trkpt>
      <trkpt lat="51.0928240" lon="7.7510970">
        <ele>363.5200000</ele>
        <time>2010-08-20T11:17:02Z</time>
      </trkpt>
      <trkpt lat="51.0927090" lon="7.7515490">
        <ele>362.0700000</ele>
        <time>2010-08-20T11:17:04Z</time>
      </trkpt>
      <trkpt lat="51.0926270" lon="7.7517490">
        <ele>361.5900000</ele>
        <time>2010-08-20T11:17:05Z</time>
      </trkpt>
      <trkpt lat="51.0925280" lon="7.7519350">
        <ele>361.1100000</ele>
        <time>2010-08-20T11:17:06Z</time>
      </trkpt>
      <trkpt lat="51.0924050" lon="7.7521000">
        <ele>360.6300000</ele>
        <time>2010-08-20T11:17:07Z</time>
      </trkpt>
      <trkpt lat="51.0922520" lon="7.7522350">
        <ele>360.1500000</ele>
        <time>2010-08-20T11:17:08Z</time>
      </trkpt>
      <trkpt lat="51.0920690" lon="7.7523320">
        <ele>359.1900000</ele>
        <time>2010-08-20T11:17:09Z</time>
      </trkpt>
      <trkpt lat="51.0918540" lon="7.7523960">
        <ele>358.7100000</ele>
        <time>2010-08-20T11:17:10Z</time>
      </trkpt>
      <trkpt lat="51.0916100" lon="7.7524490">
        <ele>358.7100000</ele>
        <time>2010-08-20T11:17:11Z</time>
      </trkpt>
      <trkpt lat="51.0896830" lon="7.7532140">
        <ele>360.6300000</ele>
        <time>2010-08-20T11:17:19Z</time>
      </trkpt>
      <trkpt lat="51.0883750" lon="7.7544460">
        <ele>361.1100000</ele>
        <time>2010-08-20T11:17:25Z</time>
      </trkpt>
      <trkpt lat="51.0859840" lon="7.7569850">
        <ele>361.1100000</ele>
        <time>2010-08-20T11:17:36Z</time>
      </trkpt>
      <trkpt lat="51.0843710" lon="7.7584600">
        <ele>357.2700000</ele>
        <time>2010-08-20T11:17:44Z</time>
      </trkpt>
      <trkpt lat="51.0834670" lon="7.7587580">
        <ele>355.8300000</ele>
        <time>2010-08-20T11:17:48Z</time>
      </trkpt>
      <trkpt lat="51.0832260" lon="7.7587600">
        <ele>355.3400000</ele>
        <time>2010-08-20T11:17:49Z</time>
      </trkpt>
      <trkpt lat="51.0829840" lon="7.7587320">
        <ele>355.3400000</ele>
        <time>2010-08-20T11:17:50Z</time>
      </trkpt>
      <trkpt lat="51.0827410" lon="7.7586790">
        <ele>354.8600000</ele>
        <time>2010-08-20T11:17:51Z</time>
      </trkpt>
      <trkpt lat="51.0824990" lon="7.7586090">
        <ele>354.3800000</ele>
        <time>2010-08-20T11:17:52Z</time>
      </trkpt>
      <trkpt lat="51.0806560" lon="7.7580930">
        <ele>352.9400000</ele>
        <time>2010-08-20T11:18:00Z</time>
      </trkpt>
      <trkpt lat="51.0794240" lon="7.7584960">
        <ele>351.0200000</ele>
        <time>2010-08-20T11:18:06Z</time>
      </trkpt>
      <trkpt lat="51.0787390" lon="7.7591720">
        <ele>349.5800000</ele>
        <time>2010-08-20T11:18:10Z</time>
      </trkpt>
      <trkpt lat="51.0785760" lon="7.7593910">
        <ele>349.1000000</ele>
        <time>2010-08-20T11:18:11Z</time>
      </trkpt>
      <trkpt lat="51.0784170" lon="7.7596300">
        <ele>348.6200000</ele>
        <time>2010-08-20T11:18:12Z</time>
      </trkpt>
      <trkpt lat="51.0774820" lon="7.7617260">
        <ele>346.6900000</ele>
        <time>2010-08-20T11:18:19Z</time>
      </trkpt>
      <trkpt lat="51.0771420" lon="7.7638590">
        <ele>342.3700000</ele>
        <time>2010-08-20T11:18:25Z</time>
      </trkpt>
      <trkpt lat="51.0772540" lon="7.7660060">
        <ele>340.9200000</ele>
        <time>2010-08-20T11:18:31Z</time>
      </trkpt>
      <trkpt lat="51.0779340" lon="7.7702500">
        <ele>340.9200000</ele>
        <time>2010-08-20T11:18:42Z</time>
      </trkpt>
      <trkpt lat="51.0788140" lon="7.7748380">
        <ele>338.5200000</ele>
        <time>2010-08-20T11:18:54Z</time>
      </trkpt>
      <trkpt lat="51.0790190" lon="7.7761610">
        <ele>337.5600000</ele>
        <time>2010-08-20T11:18:58Z</time>
      </trkpt>
      <trkpt lat="51.0790110" lon="7.7765010">
        <ele>337.0800000</ele>
        <time>2010-08-20T11:18:59Z</time>
      </trkpt>
      <trkpt lat="51.0789670" lon="7.7768470">
        <ele>336.6000000</ele>
        <time>2010-08-20T11:19:00Z</time>
      </trkpt>
      <trkpt lat="51.0788970" lon="7.7771820">
        <ele>336.6000000</ele>
        <time>2010-08-20T11:19:01Z</time>
      </trkpt>
      <trkpt lat="51.0788150" lon="7.7774710">
        <ele>336.6000000</ele>
        <time>2010-08-20T11:19:02Z</time>
      </trkpt>
      <trkpt lat="51.0784600" lon="7.7790730">
        <ele>336.1200000</ele>
        <time>2010-08-20T11:19:09Z</time>
      </trkpt>
      <trkpt lat="51.0781800" lon="7.7814910">
        <ele>337.5600000</ele>
        <time>2010-08-20T11:19:19Z</time>
      </trkpt>
      <trkpt lat="51.0782020" lon="7.7823750">
        <ele>336.1200000</ele>
        <time>2010-08-20T11:19:23Z</time>
      </trkpt>
      <trkpt lat="51.0782390" lon="7.7825790">
        <ele>335.6400000</ele>
        <time>2010-08-20T11:19:24Z</time>
      </trkpt>
      <trkpt lat="51.0782910" lon="7.7827830">
        <ele>335.6400000</ele>
        <time>2010-08-20T11:19:25Z</time>
      </trkpt>
      <trkpt lat="51.0783590" lon="7.7829860">
        <ele>335.1600000</ele>
        <time>2010-08-20T11:19:26Z</time>
      </trkpt>
      <trkpt lat="51.0784450" lon="7.7831820">
        <ele>335.1600000</ele>
        <time>2010-08-20T11:19:27Z</time>
      </trkpt>
      <trkpt lat="51.0785550" lon="7.7833660">
        <ele>334.6800000</ele>
        <time>2010-08-20T11:19:28Z</time>
      </trkpt>
      <trkpt lat="51.0786720" lon="7.7835400">
        <ele>334.6800000</ele>
        <time>2010-08-20T11:19:29Z</time>
      </trkpt>
      <trkpt lat="51.0787980" lon="7.7837060">
        <ele>334.2000000</ele>
        <time>2010-08-20T11:19:30Z</time>
      </trkpt>
      <trkpt lat="51.0800960" lon="7.7856160">
        <ele>333.2300000</ele>
        <time>2010-08-20T11:19:40Z</time>
      </trkpt>
      <trkpt lat="51.0805360" lon="7.7864330">
        <ele>333.2300000</ele>
        <time>2010-08-20T11:19:44Z</time>
      </trkpt>
      <trkpt lat="51.0806310" lon="7.7866690">
        <ele>333.2300000</ele>
        <time>2010-08-20T11:19:45Z</time>
      </trkpt>
      <trkpt lat="51.0807080" lon="7.7869260">
        <ele>333.7100000</ele>
        <time>2010-08-20T11:19:46Z</time>
      </trkpt>
      <trkpt lat="51.0807670" lon="7.7872000">
        <ele>333.7100000</ele>
        <time>2010-08-20T11:19:47Z</time>
      </trkpt>
      <trkpt lat="51.0808060" lon="7.7874870">
        <ele>334.2000000</ele>
        <time>2010-08-20T11:19:48Z</time>
      </trkpt>
      <trkpt lat="51.0808240" lon="7.7877840">
        <ele>334.6800000</ele>
        <time>2010-08-20T11:19:49Z</time>
      </trkpt>
      <trkpt lat="51.0808260" lon="7.7880880">
        <ele>335.1600000</ele>
        <time>2010-08-20T11:19:50Z</time>
      </trkpt>
      <trkpt lat="51.0808080" lon="7.7884010">
        <ele>335.6400000</ele>
        <time>2010-08-20T11:19:51Z</time>
      </trkpt>
      <trkpt lat="51.0805300" lon="7.7905400">
        <ele>335.6400000</ele>
        <time>2010-08-20T11:19:58Z</time>
      </trkpt>
      <trkpt lat="51.0805080" lon="7.7907850">
        <ele>335.1600000</ele>
        <time>2010-08-20T11:19:59Z</time>
      </trkpt>
      <trkpt lat="51.0805150" lon="7.7909810">
        <ele>334.6800000</ele>
        <time>2010-08-20T11:20:00Z</time>
      </trkpt>
      <trkpt lat="51.0805450" lon="7.7911350">
        <ele>334.2000000</ele>
        <time>2010-08-20T11:20:01Z</time>
      </trkpt>
      <trkpt lat="51.0806140" lon="7.7912570">
        <ele>333.2300000</ele>
        <time>2010-08-20T11:20:02Z</time>
      </trkpt>
      <trkpt lat="51.0806970" lon="7.7913790">
        <ele>332.7500000</ele>
        <time>2010-08-20T11:20:03Z</time>
      </trkpt>
      <trkpt lat="51.0808220" lon="7.7914540">
        <ele>332.7500000</ele>
        <time>2010-08-20T11:20:04Z</time>
      </trkpt>
      <trkpt lat="51.0809650" lon="7.7914840">
        <ele>332.7500000</ele>
        <time>2010-08-20T11:20:05Z</time>
      </trkpt>
      <trkpt lat="51.0810860" lon="7.7915540">
        <ele>332.2700000</ele>
        <time>2010-08-20T11:20:06Z</time>
      </trkpt>
      <trkpt lat="51.0811900" lon="7.7916530">
        <ele>332.2700000</ele>
        <time>2010-08-20T11:20:07Z</time>
      </trkpt>
      <trkpt lat="51.0812720" lon="7.7917790">
        <ele>331.7900000</ele>
        <time>2010-08-20T11:20:08Z</time>
      </trkpt>
      <trkpt lat="51.0813070" lon="7.7919420">
        <ele>331.3100000</ele>
        <time>2010-08-20T11:20:09Z</time>
      </trkpt>
      <trkpt lat="51.0813120" lon="7.7921170">
        <ele>331.7900000</ele>
        <time>2010-08-20T11:20:10Z</time>
      </trkpt>
      <trkpt lat="51.0812960" lon="7.7923150">
        <ele>331.7900000</ele>
        <time>2010-08-20T11:20:11Z</time>
      </trkpt>
      <trkpt lat="51.0812620" lon="7.7925320">
        <ele>332.2700000</ele>
        <time>2010-08-20T11:20:12Z</time>
      </trkpt>
      <trkpt lat="51.0812320" lon="7.7927660">
        <ele>332.2700000</ele>
        <time>2010-08-20T11:20:13Z</time>
      </trkpt>
      <trkpt lat="51.0808740" lon="7.7951630">
        <ele>330.3500000</ele>
        <time>2010-08-20T11:20:23Z</time>
      </trkpt>
      <trkpt lat="51.0804720" lon="7.7963040">
        <ele>325.5400000</ele>
        <time>2010-08-20T11:20:29Z</time>
      </trkpt>
      <trkpt lat="51.0803710" lon="7.7966220">
        <ele>324.1000000</ele>
        <time>2010-08-20T11:20:31Z</time>
      </trkpt>
      <trkpt lat="51.0803400" lon="7.7967950">
        <ele>323.6200000</ele>
        <time>2010-08-20T11:20:32Z</time>
      </trkpt>
      <trkpt lat="51.0802650" lon="7.7972270">
        <ele>323.1400000</ele>
        <time>2010-08-20T11:20:35Z</time>
      </trkpt>
      <trkpt lat="51.0802200" lon="7.7973310">
        <ele>322.6600000</ele>
        <time>2010-08-20T11:20:36Z</time>
      </trkpt>
      <trkpt lat="51.0801680" lon="7.7974200">
        <ele>322.1800000</ele>
        <time>2010-08-20T11:20:37Z</time>
      </trkpt>
      <trkpt lat="51.0801040" lon="7.7974940">
        <ele>321.7000000</ele>
        <time>2010-08-20T11:20:38Z</time>
      </trkpt>
      <trkpt lat="51.0800180" lon="7.7975590">
        <ele>321.7000000</ele>
        <time>2010-08-20T11:20:39Z</time>
      </trkpt>
      <trkpt lat="51.0799220" lon="7.7976430">
        <ele>322.1800000</ele>
        <time>2010-08-20T11:20:40Z</time>
      </trkpt>
      <trkpt lat="51.0798010" lon="7.7977360">
        <ele>321.2200000</ele>
        <time>2010-08-20T11:20:41Z</time>
      </trkpt>
      <trkpt lat="51.0796170" lon="7.7980190">
        <ele>322.1800000</ele>
        <time>2010-08-20T11:20:43Z</time>
      </trkpt>
      <trkpt lat="51.0795580" lon="7.7982130">
        <ele>321.7000000</ele>
        <time>2010-08-20T11:20:44Z</time>
      </trkpt>
      <trkpt lat="51.0795110" lon="7.7984210">
        <ele>322.6600000</ele>
        <time>2010-08-20T11:20:45Z</time>
      </trkpt>
      <trkpt lat="51.0789760" lon="7.8000030">
        <ele>324.5800000</ele>
        <time>2010-08-20T11:20:54Z</time>
      </trkpt>
      <trkpt lat="51.0778430" lon="7.8021850">
        <ele>325.0600000</ele>
        <time>2010-08-20T11:21:06Z</time>
      </trkpt>
      <trkpt lat="51.0774890" lon="7.8027840">
        <ele>325.5400000</ele>
        <time>2010-08-20T11:21:10Z</time>
      </trkpt>
      <trkpt lat="51.0773750" lon="7.8029120">
        <ele>326.0200000</ele>
        <time>2010-08-20T11:21:11Z</time>
      </trkpt>
      <trkpt lat="51.0766400" lon="7.8037950">
        <ele>326.5000000</ele>
        <time>2010-08-20T11:21:18Z</time>
      </trkpt>
      <trkpt lat="51.0765910" lon="7.8039690">
        <ele>326.5000000</ele>
        <time>2010-08-20T11:21:19Z</time>
      </trkpt>
      <trkpt lat="51.0764370" lon="7.8044920">
        <ele>326.5000000</ele>
        <time>2010-08-20T11:21:22Z</time>
      </trkpt>
      <trkpt lat="51.0763720" lon="7.8046410">
        <ele>326.0200000</ele>
        <time>2010-08-20T11:21:23Z</time>
      </trkpt>
      <trkpt lat="51.0763010" lon="7.8047760">
        <ele>326.0200000</ele>
        <time>2010-08-20T11:21:24Z</time>
      </trkpt>
      <trkpt lat="51.0760980" lon="7.8051580">
        <ele>326.5000000</ele>
        <time>2010-08-20T11:21:27Z</time>
      </trkpt>
      <trkpt lat="51.0760470" lon="7.8053050">
        <ele>326.0200000</ele>
        <time>2010-08-20T11:21:28Z</time>
      </trkpt>
      <trkpt lat="51.0760110" lon="7.8054640">
        <ele>326.0200000</ele>
        <time>2010-08-20T11:21:29Z</time>
      </trkpt>
      <trkpt lat="51.0759840" lon="7.8056320">
        <ele>326.0200000</ele>
        <time>2010-08-20T11:21:30Z</time>
      </trkpt>
      <trkpt lat="51.0759610" lon="7.8058020">
        <ele>326.0200000</ele>
        <time>2010-08-20T11:21:31Z</time>
      </trkpt>
      <trkpt lat="51.0758710" lon="7.8064460">
        <ele>326.0200000</ele>
        <time>2010-08-20T11:21:35Z</time>
      </trkpt>
      <trkpt lat="51.0758280" lon="7.8065840">
        <ele>326.0200000</ele>
        <time>2010-08-20T11:21:36Z</time>
      </trkpt>
      <trkpt lat="51.0757700" lon="7.8067030">
        <ele>326.0200000</ele>
        <time>2010-08-20T11:21:37Z</time>
      </trkpt>
      <trkpt lat="51.0757050" lon="7.8068030">
        <ele>326.0200000</ele>
        <time>2010-08-20T11:21:38Z</time>
      </trkpt>
      <trkpt lat="51.0756350" lon="7.8068840">
        <ele>325.5400000</ele>
        <time>2010-08-20T11:21:39Z</time>
      </trkpt>
      <trkpt lat="51.0755540" lon="7.8069400">
        <ele>325.5400000</ele>
        <time>2010-08-20T11:21:40Z</time>
      </trkpt>
      <trkpt lat="51.0754660" lon="7.8069700">
        <ele>325.5400000</ele>
        <time>2010-08-20T11:21:41Z</time>
      </trkpt>
      <trkpt lat="51.0753720" lon="7.8069680">
        <ele>325.5400000</ele>
        <time>2010-08-20T11:21:42Z</time>
      </trkpt>
      <trkpt lat="51.0752790" lon="7.8069500">
        <ele>325.5400000</ele>
        <time>2010-08-20T11:21:43Z</time>
      </trkpt>
      <trkpt lat="51.0751900" lon="7.8069270">
        <ele>326.0200000</ele>
        <time>2010-08-20T11:21:44Z</time>
      </trkpt>
      <trkpt lat="51.0749270" lon="7.8068810">
        <ele>326.0200000</ele>
        <time>2010-08-20T11:21:47Z</time>
      </trkpt>
      <trkpt lat="51.0748310" lon="7.8068970">
        <ele>326.0200000</ele>
        <time>2010-08-20T11:21:48Z</time>
      </trkpt>
      <trkpt lat="51.0747300" lon="7.8069360">
        <ele>326.0200000</ele>
        <time>2010-08-20T11:21:49Z</time>
      </trkpt>
      <trkpt lat="51.0746240" lon="7.8069970">
        <ele>326.0200000</ele>
        <time>2010-08-20T11:21:50Z</time>
      </trkpt>
      <trkpt lat="51.0745160" lon="7.8070700">
        <ele>326.0200000</ele>
        <time>2010-08-20T11:21:51Z</time>
      </trkpt>
      <trkpt lat="51.0739570" lon="7.8075070">
        <ele>326.5000000</ele>
        <time>2010-08-20T11:21:57Z</time>
      </trkpt>
      <trkpt lat="51.0737390" lon="7.8077470">
        <ele>326.9900000</ele>
        <time>2010-08-20T11:22:03Z</time>
      </trkpt>
      <trkpt lat="51.0736950" lon="7.8077350">
        <ele>326.9900000</ele>
        <time>2010-08-20T11:22:04Z</time>
      </trkpt>
      <trkpt lat="51.0736530" lon="7.8077070">
        <ele>326.9900000</ele>
        <time>2010-08-20T11:22:05Z</time>
      </trkpt>
      <trkpt lat="51.0736110" lon="7.8076660">
        <ele>327.4700000</ele>
        <time>2010-08-20T11:22:06Z</time>
      </trkpt>
      <trkpt lat="51.0735670" lon="7.8076170">
        <ele>327.4700000</ele>
        <time>2010-08-20T11:22:07Z</time>
      </trkpt>
      <trkpt lat="51.0729540" lon="7.8069830">
        <ele>327.9500000</ele>
        <time>2010-08-20T11:22:15Z</time>
      </trkpt>
      <trkpt lat="51.0723980" lon="7.8063890">
        <ele>327.4700000</ele>
        <time>2010-08-20T11:22:22Z</time>
      </trkpt>
      <trkpt lat="51.0721980" lon="7.8061760">
        <ele>327.4700000</ele>
        <time>2010-08-20T11:22:30Z</time>
      </trkpt>
      <trkpt lat="51.0721680" lon="7.8061820">
        <ele>327.4700000</ele>
        <time>2010-08-20T11:22:31Z</time>
      </trkpt>
      <trkpt lat="51.0721400" lon="7.8062190">
        <ele>327.4700000</ele>
        <time>2010-08-20T11:22:32Z</time>
      </trkpt>
      <trkpt lat="51.0721120" lon="7.8062750">
        <ele>327.4700000</ele>
        <time>2010-08-20T11:22:33Z</time>
      </trkpt>
      <trkpt lat="51.0720770" lon="7.8063460">
        <ele>327.4700000</ele>
        <time>2010-08-20T11:22:34Z</time>
      </trkpt>
      <trkpt lat="51.0719550" lon="7.8066250">
        <ele>327.4700000</ele>
        <time>2010-08-20T11:22:37Z</time>
      </trkpt>
      <trkpt lat="51.0714770" lon="7.8074630">
        <ele>328.9100000</ele>
        <time>2010-08-20T11:22:48Z</time>
      </trkpt>
      <trkpt lat="51.0713500" lon="7.8077380">
        <ele>328.9100000</ele>
        <time>2010-08-20T11:22:52Z</time>
      </trkpt>
      <trkpt lat="51.0713310" lon="7.8078150">
        <ele>328.9100000</ele>
        <time>2010-08-20T11:22:53Z</time>
      </trkpt>
      <trkpt lat="51.0711990" lon="7.8087790">
        <ele>328.9100000</ele>
        <time>2010-08-20T11:23:04Z</time>
      </trkpt>
      <trkpt lat="51.0711370" lon="7.8089690">
        <ele>327.4700000</ele>
        <time>2010-08-20T11:23:06Z</time>
      </trkpt>
      <trkpt lat="51.0710660" lon="7.8091020">
        <ele>326.0200000</ele>
        <time>2010-08-20T11:23:08Z</time>
      </trkpt>
      <trkpt lat="51.0710180" lon="7.8091440">
        <ele>326.0200000</ele>
        <time>2010-08-20T11:23:09Z</time>
      </trkpt>
      <trkpt lat="51.0709660" lon="7.8091700">
        <ele>326.0200000</ele>
        <time>2010-08-20T11:23:10Z</time>
      </trkpt>
      <trkpt lat="51.0708760" lon="7.8092130">
        <ele>326.5000000</ele>
        <time>2010-08-20T11:23:12Z</time>
      </trkpt>
      <trkpt lat="51.0707760" lon="7.8092770">
        <ele>326.0200000</ele>
        <time>2010-08-20T11:23:14Z</time>
      </trkpt>
      <trkpt lat="51.0707210" lon="7.8093080">
        <ele>326.0200000</ele>
        <time>2010-08-20T11:23:15Z</time>
      </trkpt>
      <trkpt lat="51.0706750" lon="7.8093520">
        <ele>326.0200000</ele>
        <time>2010-08-20T11:23:16Z</time>
      </trkpt>
      <trkpt lat="51.0706300" lon="7.8094130">
        <ele>325.0600000</ele>
        <time>2010-08-20T11:23:17Z</time>
      </trkpt>
      <trkpt lat="51.0705960" lon="7.8094930">
        <ele>324.1000000</ele>
        <time>2010-08-20T11:23:18Z</time>
      </trkpt>
      <trkpt lat="51.0705790" lon="7.8095820">
        <ele>324.1000000</ele>
        <time>2010-08-20T11:23:19Z</time>
      </trkpt>
      <trkpt lat="51.0705710" lon="7.8096700">
        <ele>323.6200000</ele>
        <time>2010-08-20T11:23:20Z</time>
      </trkpt>
      <trkpt lat="51.0705690" lon="7.8097530">
        <ele>323.6200000</ele>
        <time>2010-08-20T11:23:21Z</time>
      </trkpt>
      <trkpt lat="51.0705730" lon="7.8101700">
        <ele>324.1000000</ele>
        <time>2010-08-20T11:23:27Z</time>
      </trkpt>
      <trkpt lat="51.0705860" lon="7.8102390">
        <ele>324.1000000</ele>
        <time>2010-08-20T11:23:28Z</time>
      </trkpt>
      <trkpt lat="51.0706360" lon="7.8104180">
        <ele>324.1000000</ele>
        <time>2010-08-20T11:23:30Z</time>
      </trkpt>
      <trkpt lat="51.0706700" lon="7.8105110">
        <ele>324.1000000</ele>
        <time>2010-08-20T11:23:31Z</time>
      </trkpt>
      <trkpt lat="51.0710230" lon="7.8114710">
        <ele>325.5400000</ele>
        <time>2010-08-20T11:23:42Z</time>
      </trkpt>
      <trkpt lat="51.0711600" lon="7.8119300">
        <ele>325.5400000</ele>
        <time>2010-08-20T11:23:47Z</time>
      </trkpt>
      <trkpt lat="51.0711830" lon="7.8120390">
        <ele>325.5400000</ele>
        <time>2010-08-20T11:23:48Z</time>
      </trkpt>
      <trkpt lat="51.0712820" lon="7.8130620">
        <ele>326.0200000</ele>
        <time>2010-08-20T11:23:58Z</time>
      </trkpt>
      <trkpt lat="51.0712760" lon="7.8131390">
        <ele>326.0200000</ele>
        <time>2010-08-20T11:23:59Z</time>
      </trkpt>
      <trkpt lat="51.0712650" lon="7.8132110">
        <ele>326.0200000</ele>
        <time>2010-08-20T11:24:00Z</time>
      </trkpt>
      <trkpt lat="51.0712480" lon="7.8132760">
        <ele>326.0200000</ele>
        <time>2010-08-20T11:24:01Z</time>
      </trkpt>
      <trkpt lat="51.0712260" lon="7.8133360">
        <ele>326.0200000</ele>
        <time>2010-08-20T11:24:02Z</time>
      </trkpt>
      <trkpt lat="51.0711990" lon="7.8133890">
        <ele>326.0200000</ele>
        <time>2010-08-20T11:24:03Z</time>
      </trkpt>
      <trkpt lat="51.0711680" lon="7.8134340">
        <ele>326.0200000</ele>
        <time>2010-08-20T11:24:04Z</time>
      </trkpt>
      <trkpt lat="51.0711300" lon="7.8134710">
        <ele>326.5000000</ele>
        <time>2010-08-20T11:24:05Z</time>
      </trkpt>
      <trkpt lat="51.0710850" lon="7.8135050">
        <ele>326.5000000</ele>
        <time>2010-08-20T11:24:06Z</time>
      </trkpt>
      <trkpt lat="51.0710380" lon="7.8135360">
        <ele>326.9900000</ele>
        <time>2010-08-20T11:24:07Z</time>
      </trkpt>
      <trkpt lat="51.0706690" lon="7.8137500">
        <ele>327.9500000</ele>
        <time>2010-08-20T11:24:15Z</time>
      </trkpt>
      <trkpt lat="51.0706300" lon="7.8137950">
        <ele>328.4300000</ele>
        <time>2010-08-20T11:24:16Z</time>
      </trkpt>
      <trkpt lat="51.0705970" lon="7.8138460">
        <ele>329.3900000</ele>
        <time>2010-08-20T11:24:17Z</time>
      </trkpt>
      <trkpt lat="51.0705660" lon="7.8139060">
        <ele>329.8700000</ele>
        <time>2010-08-20T11:24:18Z</time>
      </trkpt>
      <trkpt lat="51.0705450" lon="7.8139720">
        <ele>329.8700000</ele>
        <time>2010-08-20T11:24:19Z</time>
      </trkpt>
      <trkpt lat="51.0705340" lon="7.8140440">
        <ele>329.8700000</ele>
        <time>2010-08-20T11:24:20Z</time>
      </trkpt>
      <trkpt lat="51.0705320" lon="7.8141210">
        <ele>329.8700000</ele>
        <time>2010-08-20T11:24:21Z</time>
      </trkpt>
      <trkpt lat="51.0705320" lon="7.8141960">
        <ele>329.8700000</ele>
        <time>2010-08-20T11:24:22Z</time>
      </trkpt>
      <trkpt lat="51.0705350" lon="7.8142720">
        <ele>328.9100000</ele>
        <time>2010-08-20T11:24:23Z</time>
      </trkpt>
      <trkpt lat="51.0705420" lon="7.8143430">
        <ele>327.9500000</ele>
        <time>2010-08-20T11:24:24Z</time>
      </trkpt>
      <trkpt lat="51.0705610" lon="7.8144180">
        <ele>327.9500000</ele>
        <time>2010-08-20T11:24:25Z</time>
      </trkpt>
      <trkpt lat="51.0705880" lon="7.8144790">
        <ele>328.4300000</ele>
        <time>2010-08-20T11:24:26Z</time>
      </trkpt>
      <trkpt lat="51.0706160" lon="7.8145160">
        <ele>327.9500000</ele>
        <time>2010-08-20T11:24:27Z</time>
      </trkpt>
      <trkpt lat="51.0706440" lon="7.8145360">
        <ele>327.9500000</ele>
        <time>2010-08-20T11:24:28Z</time>
      </trkpt>
      <trkpt lat="51.0706730" lon="7.8145460">
        <ele>327.9500000</ele>
        <time>2010-08-20T11:24:29Z</time>
      </trkpt>
      <trkpt lat="51.0707000" lon="7.8145440">
        <ele>326.9900000</ele>
        <time>2010-08-20T11:24:30Z</time>
      </trkpt>
      <trkpt lat="51.0707350" lon="7.8145420">
        <ele>326.5000000</ele>
        <time>2010-08-20T11:24:31Z</time>
      </trkpt>
      <trkpt lat="51.0707790" lon="7.8145390">
        <ele>326.5000000</ele>
        <time>2010-08-20T11:24:32Z</time>
      </trkpt>
      <trkpt lat="51.0708700" lon="7.8145470">
        <ele>326.0200000</ele>
        <time>2010-08-20T11:24:34Z</time>
      </trkpt>
      <trkpt lat="51.0709130" lon="7.8145620">
        <ele>326.0200000</ele>
        <time>2010-08-20T11:24:35Z</time>
      </trkpt>
      <trkpt lat="51.0710430" lon="7.8146330">
        <ele>325.5400000</ele>
        <time>2010-08-20T11:24:38Z</time>
      </trkpt>
      <trkpt lat="51.0710860" lon="7.8146740">
        <ele>325.5400000</ele>
        <time>2010-08-20T11:24:39Z</time>
      </trkpt>
      <trkpt lat="51.0711290" lon="7.8147230">
        <ele>325.5400000</ele>
        <time>2010-08-20T11:24:40Z</time>
      </trkpt>
      <trkpt lat="51.0711730" lon="7.8147820">
        <ele>325.5400000</ele>
        <time>2010-08-20T11:24:41Z</time>
      </trkpt>
      <trkpt lat="51.0712180" lon="7.8148510">
        <ele>325.5400000</ele>
        <time>2010-08-20T11:24:42Z</time>
      </trkpt>
      <trkpt lat="51.0712670" lon="7.8149170">
        <ele>325.5400000</ele>
        <time>2010-08-20T11:24:43Z</time>
      </trkpt>
      <trkpt lat="51.0713240" lon="7.8149670">
        <ele>325.0600000</ele>
        <time>2010-08-20T11:24:44Z</time>
      </trkpt>
      <trkpt lat="51.0713920" lon="7.8149690">
        <ele>325.0600000</ele>
        <time>2010-08-20T11:24:45Z</time>
      </trkpt>
      <trkpt lat="51.0714630" lon="7.8149650">
        <ele>325.0600000</ele>
        <time>2010-08-20T11:24:46Z</time>
      </trkpt>
      <trkpt lat="51.0715320" lon="7.8149370">
        <ele>325.0600000</ele>
        <time>2010-08-20T11:24:47Z</time>
      </trkpt>
      <trkpt lat="51.0715940" lon="7.8149010">
        <ele>324.5800000</ele>
        <time>2010-08-20T11:24:48Z</time>
      </trkpt>
      <trkpt lat="51.0717030" lon="7.8148450">
        <ele>325.0600000</ele>
        <time>2010-08-20T11:24:50Z</time>
      </trkpt>
      <trkpt lat="51.0717430" lon="7.8148320">
        <ele>325.0600000</ele>
        <time>2010-08-20T11:24:51Z</time>
      </trkpt>
      <trkpt lat="51.0717920" lon="7.8148320">
        <ele>325.5400000</ele>
        <time>2010-08-20T11:24:52Z</time>
      </trkpt>
      <trkpt lat="51.0718440" lon="7.8148380">
        <ele>325.5400000</ele>
        <time>2010-08-20T11:24:53Z</time>
      </trkpt>
      <trkpt lat="51.0718990" lon="7.8148540">
        <ele>325.5400000</ele>
        <time>2010-08-20T11:24:54Z</time>
      </trkpt>
      <trkpt lat="51.0719560" lon="7.8148830">
        <ele>325.5400000</ele>
        <time>2010-08-20T11:24:55Z</time>
      </trkpt>
      <trkpt lat="51.0720090" lon="7.8149210">
        <ele>325.5400000</ele>
        <time>2010-08-20T11:24:56Z</time>
      </trkpt>
      <trkpt lat="51.0720620" lon="7.8149680">
        <ele>326.0200000</ele>
        <time>2010-08-20T11:24:57Z</time>
      </trkpt>
      <trkpt lat="51.0721050" lon="7.8150320">
        <ele>326.0200000</ele>
        <time>2010-08-20T11:24:58Z</time>
      </trkpt>
      <trkpt lat="51.0721440" lon="7.8151060">
        <ele>326.0200000</ele>
        <time>2010-08-20T11:24:59Z</time>
      </trkpt>
      <trkpt lat="51.0723880" lon="7.8155850">
        <ele>327.4700000</ele>
        <time>2010-08-20T11:25:04Z</time>
      </trkpt>
      <trkpt lat="51.0729660" lon="7.8165740">
        <ele>329.3900000</ele>
        <time>2010-08-20T11:25:14Z</time>
      </trkpt>
      <trkpt lat="51.0729960" lon="7.8166620">
        <ele>329.3900000</ele>
        <time>2010-08-20T11:25:15Z</time>
      </trkpt>
      <trkpt lat="51.0730090" lon="7.8167510">
        <ele>328.9100000</ele>
        <time>2010-08-20T11:25:16Z</time>
      </trkpt>
      <trkpt lat="51.0730040" lon="7.8168410">
        <ele>328.9100000</ele>
        <time>2010-08-20T11:25:17Z</time>
      </trkpt>
      <trkpt lat="51.0729870" lon="7.8169310">
        <ele>328.9100000</ele>
        <time>2010-08-20T11:25:18Z</time>
      </trkpt>
      <trkpt lat="51.0729620" lon="7.8170210">
        <ele>328.9100000</ele>
        <time>2010-08-20T11:25:19Z</time>
      </trkpt>
      <trkpt lat="51.0728290" lon="7.8174800">
        <ele>328.9100000</ele>
        <time>2010-08-20T11:25:24Z</time>
      </trkpt>
      <trkpt lat="51.0728180" lon="7.8175660">
        <ele>329.3900000</ele>
        <time>2010-08-20T11:25:25Z</time>
      </trkpt>
      <trkpt lat="51.0728080" lon="7.8176350">
        <ele>328.4300000</ele>
        <time>2010-08-20T11:25:26Z</time>
      </trkpt>
      <trkpt lat="51.0728050" lon="7.8176940">
        <ele>328.4300000</ele>
        <time>2010-08-20T11:25:27Z</time>
      </trkpt>
      <trkpt lat="51.0728070" lon="7.8177410">
        <ele>328.4300000</ele>
        <time>2010-08-20T11:25:28Z</time>
      </trkpt>
      <trkpt lat="51.0728080" lon="7.8177790">
        <ele>328.4300000</ele>
        <time>2010-08-20T11:25:29Z</time>
      </trkpt>
      <trkpt lat="51.0728080" lon="7.8178100">
        <ele>328.9100000</ele>
        <time>2010-08-20T11:25:30Z</time>
      </trkpt>
      <trkpt lat="51.0728130" lon="7.8179440">
        <ele>329.8700000</ele>
        <time>2010-08-20T11:25:41Z</time>
      </trkpt>
      <trkpt lat="51.0728480" lon="7.8179970">
        <ele>330.3500000</ele>
        <time>2010-08-20T11:25:42Z</time>
      </trkpt>
      <trkpt lat="51.0728900" lon="7.8180340">
        <ele>331.3100000</ele>
        <time>2010-08-20T11:25:43Z</time>
      </trkpt>
      <trkpt lat="51.0729280" lon="7.8180540">
        <ele>331.3100000</ele>
        <time>2010-08-20T11:25:44Z</time>
      </trkpt>
      <trkpt lat="51.0729800" lon="7.8180550">
        <ele>331.7900000</ele>
        <time>2010-08-20T11:25:45Z</time>
      </trkpt>
      <trkpt lat="51.0730370" lon="7.8180500">
        <ele>332.7500000</ele>
        <time>2010-08-20T11:25:46Z</time>
      </trkpt>
      <trkpt lat="51.0730940" lon="7.8180430">
        <ele>333.2300000</ele>
        <time>2010-08-20T11:25:47Z</time>
      </trkpt>
      <trkpt lat="51.0732090" lon="7.8180280">
        <ele>333.7100000</ele>
        <time>2010-08-20T11:25:49Z</time>
      </trkpt>
      <trkpt lat="51.0732620" lon="7.8180220">
        <ele>334.6800000</ele>
        <time>2010-08-20T11:25:50Z</time>
      </trkpt>
      <trkpt lat="51.0733930" lon="7.8180120">
        <ele>337.0800000</ele>
        <time>2010-08-20T11:25:52Z</time>
      </trkpt>
      <trkpt lat="51.0734610" lon="7.8180400">
        <ele>337.5600000</ele>
        <time>2010-08-20T11:25:53Z</time>
      </trkpt>
      <trkpt lat="51.0735200" lon="7.8180860">
        <ele>338.0400000</ele>
        <time>2010-08-20T11:25:54Z</time>
      </trkpt>
      <trkpt lat="51.0735720" lon="7.8181510">
        <ele>337.5600000</ele>
        <time>2010-08-20T11:25:55Z</time>
      </trkpt>
      <trkpt lat="51.0736230" lon="7.8182360">
        <ele>338.5200000</ele>
        <time>2010-08-20T11:25:56Z</time>
      </trkpt>
      <trkpt lat="51.0736670" lon="7.8183300">
        <ele>338.5200000</ele>
        <time>2010-08-20T11:25:57Z</time>
      </trkpt>
      <trkpt lat="51.0736940" lon="7.8184310">
        <ele>339.0000000</ele>
        <time>2010-08-20T11:25:58Z</time>
      </trkpt>
      <trkpt lat="51.0737160" lon="7.8185230">
        <ele>339.4800000</ele>
        <time>2010-08-20T11:25:59Z</time>
      </trkpt>
      <trkpt lat="51.0737270" lon="7.8186100">
        <ele>339.9600000</ele>
        <time>2010-08-20T11:26:00Z</time>
      </trkpt>
      <trkpt lat="51.0737280" lon="7.8186970">
        <ele>339.9600000</ele>
        <time>2010-08-20T11:26:01Z</time>
      </trkpt>
      <trkpt lat="51.0737250" lon="7.8187840">
        <ele>340.4400000</ele>
        <time>2010-08-20T11:26:02Z</time>
      </trkpt>
      <trkpt lat="51.0737220" lon="7.8188810">
        <ele>340.9200000</ele>
        <time>2010-08-20T11:26:03Z</time>
      </trkpt>
      <trkpt lat="51.0737100" lon="7.8189750">
        <ele>339.9600000</ele>
        <time>2010-08-20T11:26:04Z</time>
      </trkpt>
      <trkpt lat="51.0737030" lon="7.8190660">
        <ele>339.4800000</ele>
        <time>2010-08-20T11:26:05Z</time>
      </trkpt>
      <trkpt lat="51.0737330" lon="7.8195030">
        <ele>340.4400000</ele>
        <time>2010-08-20T11:26:10Z</time>
      </trkpt>
      <trkpt lat="51.0737640" lon="7.8195680">
        <ele>340.4400000</ele>
        <time>2010-08-20T11:26:11Z</time>
      </trkpt>
      <trkpt lat="51.0738200" lon="7.8196380">
        <ele>341.8900000</ele>
        <time>2010-08-20T11:26:12Z</time>
      </trkpt>
      <trkpt lat="51.0738860" lon="7.8197050">
        <ele>341.8900000</ele>
        <time>2010-08-20T11:26:13Z</time>
      </trkpt>
      <trkpt lat="51.0739490" lon="7.8197720">
        <ele>342.8500000</ele>
        <time>2010-08-20T11:26:14Z</time>
      </trkpt>
      <trkpt lat="51.0739980" lon="7.8198470">
        <ele>342.8500000</ele>
        <time>2010-08-20T11:26:15Z</time>
      </trkpt>
      <trkpt lat="51.0740460" lon="7.8199280">
        <ele>343.8100000</ele>
        <time>2010-08-20T11:26:16Z</time>
      </trkpt>
      <trkpt lat="51.0740840" lon="7.8200040">
        <ele>344.2900000</ele>
        <time>2010-08-20T11:26:17Z</time>
      </trkpt>
      <trkpt lat="51.0741840" lon="7.8202420">
        <ele>344.2900000</ele>
        <time>2010-08-20T11:26:20Z</time>
      </trkpt>
      <trkpt lat="51.0742140" lon="7.8203380">
        <ele>344.2900000</ele>
        <time>2010-08-20T11:26:21Z</time>
      </trkpt>
      <trkpt lat="51.0742360" lon="7.8204390">
        <ele>344.7700000</ele>
        <time>2010-08-20T11:26:22Z</time>
      </trkpt>
      <trkpt lat="51.0742490" lon="7.8205440">
        <ele>344.7700000</ele>
        <time>2010-08-20T11:26:23Z</time>
      </trkpt>
      <trkpt lat="51.0742540" lon="7.8206540">
        <ele>345.2500000</ele>
        <time>2010-08-20T11:26:24Z</time>
      </trkpt>
      <trkpt lat="51.0742490" lon="7.8207800">
        <ele>345.2500000</ele>
        <time>2010-08-20T11:26:25Z</time>
      </trkpt>
      <trkpt lat="51.0742400" lon="7.8209320">
        <ele>345.2500000</ele>
        <time>2010-08-20T11:26:26Z</time>
      </trkpt>
      <trkpt lat="51.0742200" lon="7.8211050">
        <ele>345.2500000</ele>
        <time>2010-08-20T11:26:27Z</time>
      </trkpt>
      <trkpt lat="51.0740960" lon="7.8224900">
        <ele>348.1300000</ele>
        <time>2010-08-20T11:26:34Z</time>
      </trkpt>
      <trkpt lat="51.0740860" lon="7.8226960">
        <ele>348.6200000</ele>
        <time>2010-08-20T11:26:35Z</time>
      </trkpt>
      <trkpt lat="51.0740910" lon="7.8228890">
        <ele>349.5800000</ele>
        <time>2010-08-20T11:26:36Z</time>
      </trkpt>
      <trkpt lat="51.0741210" lon="7.8230700">
        <ele>350.0600000</ele>
        <time>2010-08-20T11:26:37Z</time>
      </trkpt>
      <trkpt lat="51.0741770" lon="7.8232350">
        <ele>350.5400000</ele>
        <time>2010-08-20T11:26:38Z</time>
      </trkpt>
      <trkpt lat="51.0742550" lon="7.8233810">
        <ele>351.0200000</ele>
        <time>2010-08-20T11:26:39Z</time>
      </trkpt>
      <trkpt lat="51.0743420" lon="7.8235120">
        <ele>351.0200000</ele>
        <time>2010-08-20T11:26:40Z</time>
      </trkpt>
      <trkpt lat="51.0744390" lon="7.8236320">
        <ele>351.5000000</ele>
        <time>2010-08-20T11:26:41Z</time>
      </trkpt>
      <trkpt lat="51.0745430" lon="7.8237470">
        <ele>351.9800000</ele>
        <time>2010-08-20T11:26:42Z</time>
      </trkpt>
      <trkpt lat="51.0751120" lon="7.8244760">
        <ele>357.2700000</ele>
        <time>2010-08-20T11:26:48Z</time>
      </trkpt>
      <trkpt lat="51.0751820" lon="7.8246100">
        <ele>358.7100000</ele>
        <time>2010-08-20T11:26:49Z</time>
      </trkpt>
      <trkpt lat="51.0759730" lon="7.8258770">
        <ele>368.3200000</ele>
        <time>2010-08-20T11:26:59Z</time>
      </trkpt>
      <trkpt lat="51.0761560" lon="7.8261180">
        <ele>368.8000000</ele>
        <time>2010-08-20T11:27:02Z</time>
      </trkpt>
      <trkpt lat="51.0762100" lon="7.8262260">
        <ele>368.3200000</ele>
        <time>2010-08-20T11:27:03Z</time>
      </trkpt>
      <trkpt lat="51.0766270" lon="7.8271340">
        <ele>361.5900000</ele>
        <time>2010-08-20T11:27:08Z</time>
      </trkpt>
      <trkpt lat="51.0767000" lon="7.8273560">
        <ele>360.1500000</ele>
        <time>2010-08-20T11:27:09Z</time>
      </trkpt>
      <trkpt lat="51.0767570" lon="7.8276020">
        <ele>358.2300000</ele>
        <time>2010-08-20T11:27:10Z</time>
      </trkpt>
      <trkpt lat="51.0767930" lon="7.8278610">
        <ele>356.3100000</ele>
        <time>2010-08-20T11:27:11Z</time>
      </trkpt>
      <trkpt lat="51.0768010" lon="7.8281200">
        <ele>354.8600000</ele>
        <time>2010-08-20T11:27:12Z</time>
      </trkpt>
      <trkpt lat="51.0767890" lon="7.8283760">
        <ele>353.4200000</ele>
        <time>2010-08-20T11:27:13Z</time>
      </trkpt>
      <trkpt lat="51.0767730" lon="7.8286270">
        <ele>351.9800000</ele>
        <time>2010-08-20T11:27:14Z</time>
      </trkpt>
      <trkpt lat="51.0767670" lon="7.8288700">
        <ele>350.0600000</ele>
        <time>2010-08-20T11:27:15Z</time>
      </trkpt>
      <trkpt lat="51.0767800" lon="7.8291090">
        <ele>348.6200000</ele>
        <time>2010-08-20T11:27:16Z</time>
      </trkpt>
      <trkpt lat="51.0768090" lon="7.8293470">
        <ele>346.6900000</ele>
        <time>2010-08-20T11:27:17Z</time>
      </trkpt>
      <trkpt lat="51.0769590" lon="7.8306940">
        <ele>337.5600000</ele>
        <time>2010-08-20T11:27:23Z</time>
      </trkpt>
      <trkpt lat="51.0767950" lon="7.8325660">
        <ele>327.9500000</ele>
        <time>2010-08-20T11:27:32Z</time>
      </trkpt>
      <trkpt lat="51.0767590" lon="7.8329080">
        <ele>326.0200000</ele>
        <time>2010-08-20T11:27:35Z</time>
      </trkpt>
      <trkpt lat="51.0767410" lon="7.8329880">
        <ele>325.0600000</ele>
        <time>2010-08-20T11:27:36Z</time>
      </trkpt>
      <trkpt lat="51.0767230" lon="7.8330590">
        <ele>324.5800000</ele>
        <time>2010-08-20T11:27:37Z</time>
      </trkpt>
      <trkpt lat="51.0767100" lon="7.8331130">
        <ele>324.1000000</ele>
        <time>2010-08-20T11:27:38Z</time>
      </trkpt>
      <trkpt lat="51.0767120" lon="7.8331570">
        <ele>325.0600000</ele>
        <time>2010-08-20T11:27:39Z</time>
      </trkpt>
      <trkpt lat="51.0767560" lon="7.8332480">
        <ele>329.8700000</ele>
        <time>2010-08-20T11:27:47Z</time>
      </trkpt>
      <trkpt lat="51.0767720" lon="7.8332540">
        <ele>328.4300000</ele>
        <time>2010-08-20T11:27:48Z</time>
      </trkpt>
      <trkpt lat="51.0768540" lon="7.8332000">
        <ele>327.4700000</ele>
        <time>2010-08-20T11:27:49Z</time>
      </trkpt>
      <trkpt lat="51.0770960" lon="7.8332220">
        <ele>326.0200000</ele>
        <time>2010-08-20T11:27:51Z</time>
      </trkpt>
      <trkpt lat="51.0781110" lon="7.8335210">
        <ele>320.7400000</ele>
        <time>2010-08-20T11:27:58Z</time>
      </trkpt>
      <trkpt lat="51.0792010" lon="7.8344630">
        <ele>313.5300000</ele>
        <time>2010-08-20T11:28:05Z</time>
      </trkpt>
      <trkpt lat="51.0803570" lon="7.8361780">
        <ele>315.4500000</ele>
        <time>2010-08-20T11:28:13Z</time>
      </trkpt>
      <trkpt lat="51.0816020" lon="7.8372710">
        <ele>317.3700000</ele>
        <time>2010-08-20T11:28:20Z</time>
      </trkpt>
      <trkpt lat="51.0819410" lon="7.8375670">
        <ele>316.4100000</ele>
        <time>2010-08-20T11:28:22Z</time>
      </trkpt>
      <trkpt lat="51.0820820" lon="7.8377590">
        <ele>316.8900000</ele>
        <time>2010-08-20T11:28:23Z</time>
      </trkpt>
      <trkpt lat="51.0822030" lon="7.8379560">
        <ele>316.8900000</ele>
        <time>2010-08-20T11:28:24Z</time>
      </trkpt>
      <trkpt lat="51.0825400" lon="7.8383610">
        <ele>316.4100000</ele>
        <time>2010-08-20T11:28:27Z</time>
      </trkpt>
      <trkpt lat="51.0826630" lon="7.8383820">
        <ele>315.9300000</ele>
        <time>2010-08-20T11:28:28Z</time>
      </trkpt>
      <trkpt lat="51.0827970" lon="7.8383970">
        <ele>315.9300000</ele>
        <time>2010-08-20T11:28:29Z</time>
      </trkpt>
      <trkpt lat="51.0829160" lon="7.8384560">
        <ele>316.4100000</ele>
        <time>2010-08-20T11:28:30Z</time>
      </trkpt>
      <trkpt lat="51.0830170" lon="7.8385610">
        <ele>316.4100000</ele>
        <time>2010-08-20T11:28:31Z</time>
      </trkpt>
      <trkpt lat="51.0830960" lon="7.8386980">
        <ele>316.4100000</ele>
        <time>2010-08-20T11:28:32Z</time>
      </trkpt>
      <trkpt lat="51.0831580" lon="7.8388590">
        <ele>316.8900000</ele>
        <time>2010-08-20T11:28:33Z</time>
      </trkpt>
      <trkpt lat="51.0831970" lon="7.8390370">
        <ele>317.3700000</ele>
        <time>2010-08-20T11:28:34Z</time>
      </trkpt>
      <trkpt lat="51.0832270" lon="7.8392340">
        <ele>318.3300000</ele>
        <time>2010-08-20T11:28:35Z</time>
      </trkpt>
      <trkpt lat="51.0832840" lon="7.8394360">
        <ele>318.8100000</ele>
        <time>2010-08-20T11:28:36Z</time>
      </trkpt>
      <trkpt lat="51.0833590" lon="7.8396320">
        <ele>318.8100000</ele>
        <time>2010-08-20T11:28:37Z</time>
      </trkpt>
      <trkpt lat="51.0834670" lon="7.8398190">
        <ele>318.8100000</ele>
        <time>2010-08-20T11:28:38Z</time>
      </trkpt>
      <trkpt lat="51.0836010" lon="7.8400030">
        <ele>318.8100000</ele>
        <time>2010-08-20T11:28:39Z</time>
      </trkpt>
      <trkpt lat="51.0847180" lon="7.8419340">
        <ele>318.8100000</ele>
        <time>2010-08-20T11:28:48Z</time>
      </trkpt>
      <trkpt lat="51.0853010" lon="7.8427990">
        <ele>317.8500000</ele>
        <time>2010-08-20T11:28:54Z</time>
      </trkpt>
      <trkpt lat="51.0853800" lon="7.8429910">
        <ele>317.3700000</ele>
        <time>2010-08-20T11:28:55Z</time>
      </trkpt>
      <trkpt lat="51.0853890" lon="7.8432290">
        <ele>317.8500000</ele>
        <time>2010-08-20T11:28:56Z</time>
      </trkpt>
      <trkpt lat="51.0854000" lon="7.8434910">
        <ele>317.8500000</ele>
        <time>2010-08-20T11:28:57Z</time>
      </trkpt>
      <trkpt lat="51.0854250" lon="7.8437580">
        <ele>318.8100000</ele>
        <time>2010-08-20T11:28:58Z</time>
      </trkpt>
      <trkpt lat="51.0854520" lon="7.8440160">
        <ele>318.8100000</ele>
        <time>2010-08-20T11:28:59Z</time>
      </trkpt>
      <trkpt lat="51.0855490" lon="7.8444780">
        <ele>319.3000000</ele>
        <time>2010-08-20T11:29:01Z</time>
      </trkpt>
      <trkpt lat="51.0856230" lon="7.8446940">
        <ele>319.7800000</ele>
        <time>2010-08-20T11:29:02Z</time>
      </trkpt>
      <trkpt lat="51.0857190" lon="7.8449000">
        <ele>319.7800000</ele>
        <time>2010-08-20T11:29:03Z</time>
      </trkpt>
      <trkpt lat="51.0858820" lon="7.8453290">
        <ele>318.8100000</ele>
        <time>2010-08-20T11:29:05Z</time>
      </trkpt>
      <trkpt lat="51.0859320" lon="7.8455720">
        <ele>318.8100000</ele>
        <time>2010-08-20T11:29:06Z</time>
      </trkpt>
      <trkpt lat="51.0859560" lon="7.8458540">
        <ele>318.3300000</ele>
        <time>2010-08-20T11:29:07Z</time>
      </trkpt>
      <trkpt lat="51.0862950" lon="7.8478970">
        <ele>317.8500000</ele>
        <time>2010-08-20T11:29:13Z</time>
      </trkpt>
      <trkpt lat="51.0865680" lon="7.8496820">
        <ele>317.8500000</ele>
        <time>2010-08-20T11:29:19Z</time>
      </trkpt>
      <trkpt lat="51.0866410" lon="7.8498890">
        <ele>318.3300000</ele>
        <time>2010-08-20T11:29:20Z</time>
      </trkpt>
      <trkpt lat="51.0867380" lon="7.8500960">
        <ele>317.8500000</ele>
        <time>2010-08-20T11:29:21Z</time>
      </trkpt>
      <trkpt lat="51.0868150" lon="7.8502900">
        <ele>318.3300000</ele>
        <time>2010-08-20T11:29:22Z</time>
      </trkpt>
      <trkpt lat="51.0868240" lon="7.8505230">
        <ele>318.8100000</ele>
        <time>2010-08-20T11:29:23Z</time>
      </trkpt>
      <trkpt lat="51.0868220" lon="7.8507840">
        <ele>319.3000000</ele>
        <time>2010-08-20T11:29:24Z</time>
      </trkpt>
      <trkpt lat="51.0868070" lon="7.8510140">
        <ele>320.2600000</ele>
        <time>2010-08-20T11:29:25Z</time>
      </trkpt>
      <trkpt lat="51.0867450" lon="7.8512220">
        <ele>321.2200000</ele>
        <time>2010-08-20T11:29:26Z</time>
      </trkpt>
      <trkpt lat="51.0866460" lon="7.8513910">
        <ele>322.6600000</ele>
        <time>2010-08-20T11:29:27Z</time>
      </trkpt>
      <trkpt lat="51.0865440" lon="7.8515460">
        <ele>324.1000000</ele>
        <time>2010-08-20T11:29:28Z</time>
      </trkpt>
      <trkpt lat="51.0864720" lon="7.8517160">
        <ele>325.0600000</ele>
        <time>2010-08-20T11:29:29Z</time>
      </trkpt>
      <trkpt lat="51.0864200" lon="7.8518850">
        <ele>326.0200000</ele>
        <time>2010-08-20T11:29:30Z</time>
      </trkpt>
      <trkpt lat="51.0863960" lon="7.8520420">
        <ele>326.0200000</ele>
        <time>2010-08-20T11:29:31Z</time>
      </trkpt>
      <trkpt lat="51.0863940" lon="7.8521820">
        <ele>326.0200000</ele>
        <time>2010-08-20T11:29:32Z</time>
      </trkpt>
      <trkpt lat="51.0863950" lon="7.8522950">
        <ele>326.5000000</ele>
        <time>2010-08-20T11:29:33Z</time>
      </trkpt>
      <trkpt lat="51.0863670" lon="7.8524610">
        <ele>326.0200000</ele>
        <time>2010-08-20T11:29:39Z</time>
      </trkpt>
      <trkpt lat="51.0863680" lon="7.8525440">
        <ele>325.5400000</ele>
        <time>2010-08-20T11:30:00Z</time>
      </trkpt>
      <trkpt lat="51.0863810" lon="7.8526290">
        <ele>325.5400000</ele>
        <time>2010-08-20T11:30:01Z</time>
      </trkpt>
      <trkpt lat="51.0864050" lon="7.8527260">
        <ele>325.5400000</ele>
        <time>2010-08-20T11:30:02Z</time>
      </trkpt>
      <trkpt lat="51.0864210" lon="7.8528200">
        <ele>325.5400000</ele>
        <time>2010-08-20T11:30:03Z</time>
      </trkpt>
      <trkpt lat="51.0864260" lon="7.8529010">
        <ele>325.5400000</ele>
        <time>2010-08-20T11:30:04Z</time>
      </trkpt>
      <trkpt lat="51.0864300" lon="7.8529590">
        <ele>325.5400000</ele>
        <time>2010-08-20T11:30:05Z</time>
      </trkpt>
      <trkpt lat="51.0864430" lon="7.8529980">
        <ele>325.5400000</ele>
        <time>2010-08-20T11:30:06Z</time>
      </trkpt>
      <trkpt lat="51.0864600" lon="7.8530110">
        <ele>325.5400000</ele>
        <time>2010-08-20T11:30:07Z</time>
      </trkpt>
      <trkpt lat="51.0864770" lon="7.8530070">
        <ele>325.5400000</ele>
        <time>2010-08-20T11:30:08Z</time>
      </trkpt>
      <trkpt lat="51.0864490" lon="7.8530120">
        <ele>326.9900000</ele>
        <time>2010-08-20T11:30:18Z</time>
      </trkpt>
      <trkpt lat="51.0864460" lon="7.8530100">
        <ele>327.4700000</ele>
        <time>2010-08-20T11:30:29Z</time>
      </trkpt>
      <trkpt lat="51.0864440" lon="7.8529800">
        <ele>325.0600000</ele>
        <time>2010-08-20T11:31:35Z</time>
      </trkpt>
      <trkpt lat="51.0864070" lon="7.8529230">
        <ele>324.5800000</ele>
        <time>2010-08-20T11:31:42Z</time>
      </trkpt>
      <trkpt lat="51.0863960" lon="7.8528910">
        <ele>325.5400000</ele>
        <time>2010-08-20T11:31:44Z</time>
      </trkpt>
      <trkpt lat="51.0863800" lon="7.8529020">
        <ele>328.9100000</ele>
        <time>2010-08-20T11:31:58Z</time>
      </trkpt>
      <trkpt lat="51.0710620" lon="7.8385210">
        <ele>322.1800000</ele>
        <time>2010-08-20T11:53:57Z</time>
      </trkpt>
      <trkpt lat="51.0710710" lon="7.8384940">
        <ele>330.3500000</ele>
        <time>2010-08-20T11:54:43Z</time>
      </trkpt>
      <trkpt lat="51.0711040" lon="7.8385440">
        <ele>341.8900000</ele>
        <time>2010-08-20T11:55:03Z</time>
      </trkpt>
      <trkpt lat="51.0711060" lon="7.8386630">
        <ele>351.0200000</ele>
        <time>2010-08-20T11:55:27Z</time>
      </trkpt>
      <trkpt lat="51.0709320" lon="7.8386740">
        <ele>341.4100000</ele>
        <time>2010-08-20T11:55:37Z</time>
      </trkpt>
      <trkpt lat="51.0708590" lon="7.8386940">
        <ele>340.9200000</ele>
        <time>2010-08-20T11:55:38Z</time>
      </trkpt>
      <trkpt lat="51.0707650" lon="7.8387140">
        <ele>340.9200000</ele>
        <time>2010-08-20T11:55:39Z</time>
      </trkpt>
      <trkpt lat="51.0698510" lon="7.8388700">
        <ele>340.4400000</ele>
        <time>2010-08-20T11:55:46Z</time>
      </trkpt>
      <trkpt lat="51.0685300" lon="7.8388250">
        <ele>341.4100000</ele>
        <time>2010-08-20T11:55:52Z</time>
      </trkpt>
      <trkpt lat="51.0669440" lon="7.8382350">
        <ele>343.8100000</ele>
        <time>2010-08-20T11:55:59Z</time>
      </trkpt>
      <trkpt lat="51.0661440" lon="7.8373370">
        <ele>342.3700000</ele>
        <time>2010-08-20T11:56:03Z</time>
      </trkpt>
      <trkpt lat="51.0659680" lon="7.8370510">
        <ele>342.3700000</ele>
        <time>2010-08-20T11:56:04Z</time>
      </trkpt>
      <trkpt lat="51.0649140" lon="7.8354240">
        <ele>338.0400000</ele>
        <time>2010-08-20T11:56:10Z</time>
      </trkpt>
      <trkpt lat="51.0646950" lon="7.8352430">
        <ele>337.0800000</ele>
        <time>2010-08-20T11:56:11Z</time>
      </trkpt>
      <trkpt lat="51.0644700" lon="7.8350830">
        <ele>336.1200000</ele>
        <time>2010-08-20T11:56:12Z</time>
      </trkpt>
      <trkpt lat="51.0642310" lon="7.8349490">
        <ele>335.6400000</ele>
        <time>2010-08-20T11:56:13Z</time>
      </trkpt>
      <trkpt lat="51.0639790" lon="7.8348490">
        <ele>334.6800000</ele>
        <time>2010-08-20T11:56:14Z</time>
      </trkpt>
      <trkpt lat="51.0637230" lon="7.8347850">
        <ele>333.7100000</ele>
        <time>2010-08-20T11:56:15Z</time>
      </trkpt>
      <trkpt lat="51.0634660" lon="7.8347520">
        <ele>332.7500000</ele>
        <time>2010-08-20T11:56:16Z</time>
      </trkpt>
      <trkpt lat="51.0632110" lon="7.8347610">
        <ele>331.7900000</ele>
        <time>2010-08-20T11:56:17Z</time>
      </trkpt>
      <trkpt lat="51.0629550" lon="7.8347870">
        <ele>330.8300000</ele>
        <time>2010-08-20T11:56:18Z</time>
      </trkpt>
      <trkpt lat="51.0613020" lon="7.8353620">
        <ele>327.9500000</ele>
        <time>2010-08-20T11:56:25Z</time>
      </trkpt>
      <trkpt lat="51.0587520" lon="7.8363390">
        <ele>325.0600000</ele>
        <time>2010-08-20T11:56:37Z</time>
      </trkpt>
      <trkpt lat="51.0563820" lon="7.8369000">
        <ele>324.1000000</ele>
        <time>2010-08-20T11:56:47Z</time>
      </trkpt>
      <trkpt lat="51.0561490" lon="7.8368130">
        <ele>324.5800000</ele>
        <time>2010-08-20T11:56:48Z</time>
      </trkpt>
      <trkpt lat="51.0553280" lon="7.8363570">
        <ele>325.0600000</ele>
        <time>2010-08-20T11:56:52Z</time>
      </trkpt>
      <trkpt lat="51.0551550" lon="7.8361960">
        <ele>325.0600000</ele>
        <time>2010-08-20T11:56:53Z</time>
      </trkpt>
      <trkpt lat="51.0549900" lon="7.8360220">
        <ele>325.0600000</ele>
        <time>2010-08-20T11:56:54Z</time>
      </trkpt>
      <trkpt lat="51.0538990" lon="7.8343950">
        <ele>325.5400000</ele>
        <time>2010-08-20T11:57:01Z</time>
      </trkpt>
      <trkpt lat="51.0524850" lon="7.8322210">
        <ele>325.5400000</ele>
        <time>2010-08-20T11:57:10Z</time>
      </trkpt>
      <trkpt lat="51.0512390" lon="7.8314690">
        <ele>326.0200000</ele>
        <time>2010-08-20T11:57:17Z</time>
      </trkpt>
      <trkpt lat="51.0497570" lon="7.8315230">
        <ele>329.3900000</ele>
        <time>2010-08-20T11:57:25Z</time>
      </trkpt>
      <trkpt lat="51.0480430" lon="7.8320850">
        <ele>330.3500000</ele>
        <time>2010-08-20T11:57:34Z</time>
      </trkpt>
      <trkpt lat="51.0463680" lon="7.8320530">
        <ele>330.3500000</ele>
        <time>2010-08-20T11:57:43Z</time>
      </trkpt>
      <trkpt lat="51.0448980" lon="7.8313470">
        <ele>331.3100000</ele>
        <time>2010-08-20T11:57:51Z</time>
      </trkpt>
      <trkpt lat="51.0430860" lon="7.8303370">
        <ele>332.7500000</ele>
        <time>2010-08-20T11:58:02Z</time>
      </trkpt>
      <trkpt lat="51.0428120" lon="7.8301210">
        <ele>332.7500000</ele>
        <time>2010-08-20T11:58:04Z</time>
      </trkpt>
      <trkpt lat="51.0426870" lon="7.8299730">
        <ele>332.7500000</ele>
        <time>2010-08-20T11:58:05Z</time>
      </trkpt>
      <trkpt lat="51.0425760" lon="7.8298130">
        <ele>333.2300000</ele>
        <time>2010-08-20T11:58:06Z</time>
      </trkpt>
      <trkpt lat="51.0424730" lon="7.8296410">
        <ele>333.7100000</ele>
        <time>2010-08-20T11:58:07Z</time>
      </trkpt>
      <trkpt lat="51.0423780" lon="7.8294480">
        <ele>333.7100000</ele>
        <time>2010-08-20T11:58:08Z</time>
      </trkpt>
      <trkpt lat="51.0422870" lon="7.8292310">
        <ele>333.7100000</ele>
        <time>2010-08-20T11:58:09Z</time>
      </trkpt>
      <trkpt lat="51.0422000" lon="7.8289920">
        <ele>333.2300000</ele>
        <time>2010-08-20T11:58:10Z</time>
      </trkpt>
      <trkpt lat="51.0421170" lon="7.8287350">
        <ele>332.7500000</ele>
        <time>2010-08-20T11:58:11Z</time>
      </trkpt>
      <trkpt lat="51.0411840" lon="7.8267420">
        <ele>328.9100000</ele>
        <time>2010-08-20T11:58:19Z</time>
      </trkpt>
      <trkpt lat="51.0400870" lon="7.8259290">
        <ele>327.4700000</ele>
        <time>2010-08-20T11:58:25Z</time>
      </trkpt>
      <trkpt lat="51.0389000" lon="7.8259150">
        <ele>327.9500000</ele>
        <time>2010-08-20T11:58:31Z</time>
      </trkpt>
      <trkpt lat="51.0372530" lon="7.8265910">
        <ele>329.3900000</ele>
        <time>2010-08-20T11:58:39Z</time>
      </trkpt>
      <trkpt lat="51.0353230" lon="7.8269660">
        <ele>334.6800000</ele>
        <time>2010-08-20T11:58:48Z</time>
      </trkpt>
      <trkpt lat="51.0338800" lon="7.8266360">
        <ele>339.4800000</ele>
        <time>2010-08-20T11:58:56Z</time>
      </trkpt>
      <trkpt lat="51.0330900" lon="7.8262470">
        <ele>342.3700000</ele>
        <time>2010-08-20T11:59:03Z</time>
      </trkpt>
      <trkpt lat="51.0326480" lon="7.8259740">
        <ele>344.2900000</ele>
        <time>2010-08-20T11:59:11Z</time>
      </trkpt>
      <trkpt lat="51.0326010" lon="7.8259490">
        <ele>347.1700000</ele>
        <time>2010-08-20T11:59:20Z</time>
      </trkpt>
      <trkpt lat="51.0324230" lon="7.8257910">
        <ele>346.2100000</ele>
        <time>2010-08-20T11:59:31Z</time>
      </trkpt>
      <trkpt lat="51.0318200" lon="7.8251950">
        <ele>346.2100000</ele>
        <time>2010-08-20T11:59:40Z</time>
      </trkpt>
      <trkpt lat="51.0309700" lon="7.8241680">
        <ele>346.6900000</ele>
        <time>2010-08-20T11:59:49Z</time>
      </trkpt>
      <trkpt lat="51.0305110" lon="7.8234440">
        <ele>346.6900000</ele>
        <time>2010-08-20T11:59:55Z</time>
      </trkpt>
      <trkpt lat="51.0298800" lon="7.8223550">
        <ele>346.2100000</ele>
        <time>2010-08-20T12:00:00Z</time>
      </trkpt>
      <trkpt lat="51.0291410" lon="7.8208840">
        <ele>343.8100000</ele>
        <time>2010-08-20T12:00:09Z</time>
      </trkpt>
      <trkpt lat="51.0281880" lon="7.8186580">
        <ele>338.0400000</ele>
        <time>2010-08-20T12:00:19Z</time>
      </trkpt>
      <trkpt lat="51.0272480" lon="7.8164330">
        <ele>330.3500000</ele>
        <time>2010-08-20T12:00:29Z</time>
      </trkpt>
      <trkpt lat="51.0263250" lon="7.8149890">
        <ele>325.0600000</ele>
        <time>2010-08-20T12:00:37Z</time>
      </trkpt>
      <trkpt lat="51.0252630" lon="7.8144280">
        <ele>320.7400000</ele>
        <time>2010-08-20T12:00:44Z</time>
      </trkpt>
      <trkpt lat="51.0241960" lon="7.8146840">
        <ele>321.2200000</ele>
        <time>2010-08-20T12:00:51Z</time>
      </trkpt>
      <trkpt lat="51.0234880" lon="7.8149000">
        <ele>321.7000000</ele>
        <time>2010-08-20T12:00:56Z</time>
      </trkpt>
      <trkpt lat="51.0233440" lon="7.8148970">
        <ele>321.7000000</ele>
        <time>2010-08-20T12:00:57Z</time>
      </trkpt>
      <trkpt lat="51.0232060" lon="7.8148790">
        <ele>321.7000000</ele>
        <time>2010-08-20T12:00:58Z</time>
      </trkpt>
      <trkpt lat="51.0230750" lon="7.8148470">
        <ele>321.7000000</ele>
        <time>2010-08-20T12:00:59Z</time>
      </trkpt>
      <trkpt lat="51.0229500" lon="7.8147980">
        <ele>322.1800000</ele>
        <time>2010-08-20T12:01:00Z</time>
      </trkpt>
      <trkpt lat="51.0228300" lon="7.8147330">
        <ele>322.1800000</ele>
        <time>2010-08-20T12:01:01Z</time>
      </trkpt>
      <trkpt lat="51.0227150" lon="7.8146550">
        <ele>322.1800000</ele>
        <time>2010-08-20T12:01:02Z</time>
      </trkpt>
      <trkpt lat="51.0226040" lon="7.8145630">
        <ele>322.1800000</ele>
        <time>2010-08-20T12:01:03Z</time>
      </trkpt>
      <trkpt lat="51.0224970" lon="7.8144570">
        <ele>322.1800000</ele>
        <time>2010-08-20T12:01:04Z</time>
      </trkpt>
      <trkpt lat="51.0223950" lon="7.8143370">
        <ele>322.1800000</ele>
        <time>2010-08-20T12:01:05Z</time>
      </trkpt>
      <trkpt lat="51.0222960" lon="7.8142070">
        <ele>322.1800000</ele>
        <time>2010-08-20T12:01:06Z</time>
      </trkpt>
      <trkpt lat="51.0221110" lon="7.8138990">
        <ele>322.1800000</ele>
        <time>2010-08-20T12:01:08Z</time>
      </trkpt>
      <trkpt lat="51.0220350" lon="7.8137150">
        <ele>322.1800000</ele>
        <time>2010-08-20T12:01:09Z</time>
      </trkpt>
      <trkpt lat="51.0218650" lon="7.8130940">
        <ele>322.1800000</ele>
        <time>2010-08-20T12:01:12Z</time>
      </trkpt>
      <trkpt lat="51.0218350" lon="7.8128620">
        <ele>321.7000000</ele>
        <time>2010-08-20T12:01:13Z</time>
      </trkpt>
      <trkpt lat="51.0218170" lon="7.8126310">
        <ele>321.7000000</ele>
        <time>2010-08-20T12:01:14Z</time>
      </trkpt>
      <trkpt lat="51.0218090" lon="7.8124090">
        <ele>321.7000000</ele>
        <time>2010-08-20T12:01:15Z</time>
      </trkpt>
      <trkpt lat="51.0218100" lon="7.8121950">
        <ele>321.7000000</ele>
        <time>2010-08-20T12:01:16Z</time>
      </trkpt>
      <trkpt lat="51.0218220" lon="7.8119880">
        <ele>321.7000000</ele>
        <time>2010-08-20T12:01:17Z</time>
      </trkpt>
      <trkpt lat="51.0218500" lon="7.8117980">
        <ele>321.2200000</ele>
        <time>2010-08-20T12:01:18Z</time>
      </trkpt>
      <trkpt lat="51.0218860" lon="7.8116280">
        <ele>321.2200000</ele>
        <time>2010-08-20T12:01:19Z</time>
      </trkpt>
      <trkpt lat="51.0219280" lon="7.8114790">
        <ele>321.2200000</ele>
        <time>2010-08-20T12:01:20Z</time>
      </trkpt>
      <trkpt lat="51.0219750" lon="7.8113330">
        <ele>321.2200000</ele>
        <time>2010-08-20T12:01:21Z</time>
      </trkpt>
      <trkpt lat="51.0220280" lon="7.8111700">
        <ele>321.2200000</ele>
        <time>2010-08-20T12:01:22Z</time>
      </trkpt>
      <trkpt lat="51.0221690" lon="7.8107980">
        <ele>321.2200000</ele>
        <time>2010-08-20T12:01:24Z</time>
      </trkpt>
      <trkpt lat="51.0222640" lon="7.8106130">
        <ele>321.2200000</ele>
        <time>2010-08-20T12:01:25Z</time>
      </trkpt>
      <trkpt lat="51.0231900" lon="7.8093010">
        <ele>322.6600000</ele>
        <time>2010-08-20T12:01:30Z</time>
      </trkpt>
      <trkpt lat="51.0244800" lon="7.8079320">
        <ele>324.1000000</ele>
        <time>2010-08-20T12:01:35Z</time>
      </trkpt>
      <trkpt lat="51.0249230" lon="7.8075310">
        <ele>324.5800000</ele>
        <time>2010-08-20T12:01:37Z</time>
      </trkpt>
      <trkpt lat="51.0251640" lon="7.8073900">
        <ele>324.5800000</ele>
        <time>2010-08-20T12:01:38Z</time>
      </trkpt>
      <trkpt lat="51.0254300" lon="7.8072810">
        <ele>325.0600000</ele>
        <time>2010-08-20T12:01:39Z</time>
      </trkpt>
      <trkpt lat="51.0264990" lon="7.8068000">
        <ele>325.0600000</ele>
        <time>2010-08-20T12:01:43Z</time>
      </trkpt>
      <trkpt lat="51.0267580" lon="7.8065620">
        <ele>325.5400000</ele>
        <time>2010-08-20T12:01:44Z</time>
      </trkpt>
      <trkpt lat="51.0270050" lon="7.8062830">
        <ele>326.5000000</ele>
        <time>2010-08-20T12:01:45Z</time>
      </trkpt>
      <trkpt lat="51.0279760" lon="7.8050880">
        <ele>326.0200000</ele>
        <time>2010-08-20T12:01:50Z</time>
      </trkpt>
      <trkpt lat="51.0283680" lon="7.8043320">
        <ele>326.0200000</ele>
        <time>2010-08-20T12:01:53Z</time>
      </trkpt>
      <trkpt lat="51.0284690" lon="7.8040550">
        <ele>326.5000000</ele>
        <time>2010-08-20T12:01:54Z</time>
      </trkpt>
      <trkpt lat="51.0287560" lon="7.8029770">
        <ele>326.9900000</ele>
        <time>2010-08-20T12:01:58Z</time>
      </trkpt>
      <trkpt lat="51.0287820" lon="7.8026870">
        <ele>326.9900000</ele>
        <time>2010-08-20T12:01:59Z</time>
      </trkpt>
      <trkpt lat="51.0287830" lon="7.8023720">
        <ele>327.4700000</ele>
        <time>2010-08-20T12:02:00Z</time>
      </trkpt>
      <trkpt lat="51.0287560" lon="7.8020470">
        <ele>327.9500000</ele>
        <time>2010-08-20T12:02:01Z</time>
      </trkpt>
      <trkpt lat="51.0287080" lon="7.8017300">
        <ele>328.4300000</ele>
        <time>2010-08-20T12:02:02Z</time>
      </trkpt>
      <trkpt lat="51.0286430" lon="7.8014220">
        <ele>328.9100000</ele>
        <time>2010-08-20T12:02:03Z</time>
      </trkpt>
      <trkpt lat="51.0285700" lon="7.8011310">
        <ele>328.9100000</ele>
        <time>2010-08-20T12:02:04Z</time>
      </trkpt>
      <trkpt lat="51.0278650" lon="7.7993880">
        <ele>329.3900000</ele>
        <time>2010-08-20T12:02:11Z</time>
      </trkpt>
      <trkpt lat="51.0270200" lon="7.7977290">
        <ele>329.8700000</ele>
        <time>2010-08-20T12:02:19Z</time>
      </trkpt>
      <trkpt lat="51.0269440" lon="7.7975300">
        <ele>329.8700000</ele>
        <time>2010-08-20T12:02:20Z</time>
      </trkpt>
      <trkpt lat="51.0268760" lon="7.7972830">
        <ele>329.8700000</ele>
        <time>2010-08-20T12:02:21Z</time>
      </trkpt>
      <trkpt lat="51.0268260" lon="7.7970060">
        <ele>329.8700000</ele>
        <time>2010-08-20T12:02:22Z</time>
      </trkpt>
      <trkpt lat="51.0268050" lon="7.7967200">
        <ele>330.3500000</ele>
        <time>2010-08-20T12:02:23Z</time>
      </trkpt>
      <trkpt lat="51.0267950" lon="7.7964350">
        <ele>330.8300000</ele>
        <time>2010-08-20T12:02:24Z</time>
      </trkpt>
      <trkpt lat="51.0265270" lon="7.7945030">
        <ele>331.3100000</ele>
        <time>2010-08-20T12:02:30Z</time>
      </trkpt>
      <trkpt lat="51.0263100" lon="7.7935850">
        <ele>331.3100000</ele>
        <time>2010-08-20T12:02:32Z</time>
      </trkpt>
      <trkpt lat="51.0261680" lon="7.7931510">
        <ele>331.7900000</ele>
        <time>2010-08-20T12:02:33Z</time>
      </trkpt>
      <trkpt lat="51.0260030" lon="7.7927580">
        <ele>332.2700000</ele>
        <time>2010-08-20T12:02:34Z</time>
      </trkpt>
      <trkpt lat="51.0258180" lon="7.7923610">
        <ele>333.2300000</ele>
        <time>2010-08-20T12:02:35Z</time>
      </trkpt>
      <trkpt lat="51.0256190" lon="7.7919540">
        <ele>333.7100000</ele>
        <time>2010-08-20T12:02:36Z</time>
      </trkpt>
      <trkpt lat="51.0246770" lon="7.7898750">
        <ele>336.1200000</ele>
        <time>2010-08-20T12:02:42Z</time>
      </trkpt>
      <trkpt lat="51.0239200" lon="7.7883140">
        <ele>337.5600000</ele>
        <time>2010-08-20T12:02:49Z</time>
      </trkpt>
      <trkpt lat="51.0236140" lon="7.7879110">
        <ele>338.0400000</ele>
        <time>2010-08-20T12:02:52Z</time>
      </trkpt>
      <trkpt lat="51.0222570" lon="7.7865740">
        <ele>339.0000000</ele>
        <time>2010-08-20T12:03:04Z</time>
      </trkpt>
      <trkpt lat="51.0210830" lon="7.7857760">
        <ele>339.0000000</ele>
        <time>2010-08-20T12:03:11Z</time>
      </trkpt>
      <trkpt lat="51.0204790" lon="7.7852990">
        <ele>339.0000000</ele>
        <time>2010-08-20T12:03:14Z</time>
      </trkpt>
      <trkpt lat="51.0203080" lon="7.7851050">
        <ele>339.4800000</ele>
        <time>2010-08-20T12:03:15Z</time>
      </trkpt>
      <trkpt lat="51.0201620" lon="7.7848910">
        <ele>339.4800000</ele>
        <time>2010-08-20T12:03:16Z</time>
      </trkpt>
      <trkpt lat="51.0200390" lon="7.7846510">
        <ele>339.4800000</ele>
        <time>2010-08-20T12:03:17Z</time>
      </trkpt>
      <trkpt lat="51.0199500" lon="7.7843250">
        <ele>339.4800000</ele>
        <time>2010-08-20T12:03:18Z</time>
      </trkpt>
      <trkpt lat="51.0198680" lon="7.7840180">
        <ele>339.4800000</ele>
        <time>2010-08-20T12:03:19Z</time>
      </trkpt>
      <trkpt lat="51.0197980" lon="7.7836890">
        <ele>339.4800000</ele>
        <time>2010-08-20T12:03:20Z</time>
      </trkpt>
      <trkpt lat="51.0197430" lon="7.7833510">
        <ele>339.9600000</ele>
        <time>2010-08-20T12:03:21Z</time>
      </trkpt>
      <trkpt lat="51.0197050" lon="7.7830220">
        <ele>339.9600000</ele>
        <time>2010-08-20T12:03:22Z</time>
      </trkpt>
      <trkpt lat="51.0196990" lon="7.7826660">
        <ele>340.4400000</ele>
        <time>2010-08-20T12:03:23Z</time>
      </trkpt>
      <trkpt lat="51.0197070" lon="7.7823250">
        <ele>340.4400000</ele>
        <time>2010-08-20T12:03:24Z</time>
      </trkpt>
      <trkpt lat="51.0197210" lon="7.7820080">
        <ele>340.9200000</ele>
        <time>2010-08-20T12:03:25Z</time>
      </trkpt>
      <trkpt lat="51.0197380" lon="7.7817160">
        <ele>341.4100000</ele>
        <time>2010-08-20T12:03:26Z</time>
      </trkpt>
      <trkpt lat="51.0200370" lon="7.7799910">
        <ele>343.8100000</ele>
        <time>2010-08-20T12:03:33Z</time>
      </trkpt>
      <trkpt lat="51.0207890" lon="7.7777840">
        <ele>347.1700000</ele>
        <time>2010-08-20T12:03:45Z</time>
      </trkpt>
      <trkpt lat="51.0208380" lon="7.7776550">
        <ele>347.1700000</ele>
        <time>2010-08-20T12:03:46Z</time>
      </trkpt>
      <trkpt lat="51.0208880" lon="7.7776000">
        <ele>347.6500000</ele>
        <time>2010-08-20T12:03:47Z</time>
      </trkpt>
      <trkpt lat="51.0209360" lon="7.7775740">
        <ele>347.6500000</ele>
        <time>2010-08-20T12:03:48Z</time>
      </trkpt>
      <trkpt lat="51.0209850" lon="7.7775480">
        <ele>347.1700000</ele>
        <time>2010-08-20T12:03:49Z</time>
      </trkpt>
      <trkpt lat="51.0210320" lon="7.7775210">
        <ele>346.6900000</ele>
        <time>2010-08-20T12:03:50Z</time>
      </trkpt>
      <trkpt lat="51.0210640" lon="7.7774790">
        <ele>346.2100000</ele>
        <time>2010-08-20T12:03:51Z</time>
      </trkpt>
      <trkpt lat="51.0210800" lon="7.7774160">
        <ele>345.7300000</ele>
        <time>2010-08-20T12:03:52Z</time>
      </trkpt>
      <trkpt lat="51.0210770" lon="7.7773550">
        <ele>345.2500000</ele>
        <time>2010-08-20T12:03:53Z</time>
      </trkpt>
      <trkpt lat="51.0210570" lon="7.7773050">
        <ele>344.7700000</ele>
        <time>2010-08-20T12:03:54Z</time>
      </trkpt>
      <trkpt lat="51.0210240" lon="7.7772600">
        <ele>344.7700000</ele>
        <time>2010-08-20T12:03:55Z</time>
      </trkpt>
      <trkpt lat="51.0209800" lon="7.7772320">
        <ele>344.2900000</ele>
        <time>2010-08-20T12:03:56Z</time>
      </trkpt>
      <trkpt lat="51.0209300" lon="7.7772340">
        <ele>343.8100000</ele>
        <time>2010-08-20T12:03:57Z</time>
      </trkpt>
      <trkpt lat="51.0208760" lon="7.7772560">
        <ele>343.3300000</ele>
        <time>2010-08-20T12:03:58Z</time>
      </trkpt>
      <trkpt lat="51.0208140" lon="7.7772620">
        <ele>343.3300000</ele>
        <time>2010-08-20T12:03:59Z</time>
      </trkpt>
      <trkpt lat="51.0207490" lon="7.7772320">
        <ele>343.3300000</ele>
        <time>2010-08-20T12:04:00Z</time>
      </trkpt>
      <trkpt lat="51.0206320" lon="7.7771640">
        <ele>342.8500000</ele>
        <time>2010-08-20T12:04:02Z</time>
      </trkpt>
      <trkpt lat="51.0205750" lon="7.7771440">
        <ele>342.8500000</ele>
        <time>2010-08-20T12:04:03Z</time>
      </trkpt>
      <trkpt lat="51.0204740" lon="7.7771110">
        <ele>341.8900000</ele>
        <time>2010-08-20T12:04:05Z</time>
      </trkpt>
      <trkpt lat="51.0204320" lon="7.7770740">
        <ele>342.3700000</ele>
        <time>2010-08-20T12:04:06Z</time>
      </trkpt>
      <trkpt lat="51.0204040" lon="7.7770100">
        <ele>342.3700000</ele>
        <time>2010-08-20T12:04:07Z</time>
      </trkpt>
      <trkpt lat="51.0203870" lon="7.7769240">
        <ele>342.3700000</ele>
        <time>2010-08-20T12:04:08Z</time>
      </trkpt>
      <trkpt lat="51.0203710" lon="7.7768280">
        <ele>342.3700000</ele>
        <time>2010-08-20T12:04:09Z</time>
      </trkpt>
      <trkpt lat="51.0202810" lon="7.7764560">
        <ele>342.8500000</ele>
        <time>2010-08-20T12:04:13Z</time>
      </trkpt>
      <trkpt lat="51.0202410" lon="7.7763810">
        <ele>343.3300000</ele>
        <time>2010-08-20T12:04:14Z</time>
      </trkpt>
      <trkpt lat="51.0201890" lon="7.7763320">
        <ele>343.8100000</ele>
        <time>2010-08-20T12:04:15Z</time>
      </trkpt>
      <trkpt lat="51.0201240" lon="7.7763540">
        <ele>344.2900000</ele>
        <time>2010-08-20T12:04:16Z</time>
      </trkpt>
      <trkpt lat="51.0200560" lon="7.7763890">
        <ele>344.7700000</ele>
        <time>2010-08-20T12:04:17Z</time>
      </trkpt>
      <trkpt lat="51.0199980" lon="7.7764500">
        <ele>345.2500000</ele>
        <time>2010-08-20T12:04:18Z</time>
      </trkpt>
      <trkpt lat="51.0199510" lon="7.7765250">
        <ele>345.7300000</ele>
        <time>2010-08-20T12:04:19Z</time>
      </trkpt>
      <trkpt lat="51.0199150" lon="7.7766020">
        <ele>346.2100000</ele>
        <time>2010-08-20T12:04:20Z</time>
      </trkpt>
      <trkpt lat="51.0198810" lon="7.7766780">
        <ele>346.6900000</ele>
        <time>2010-08-20T12:04:21Z</time>
      </trkpt>
      <trkpt lat="51.0198410" lon="7.7767400">
        <ele>347.1700000</ele>
        <time>2010-08-20T12:04:22Z</time>
      </trkpt>
      <trkpt lat="51.0197900" lon="7.7767620">
        <ele>348.1300000</ele>
        <time>2010-08-20T12:04:23Z</time>
      </trkpt>
      <trkpt lat="51.0197400" lon="7.7767290">
        <ele>348.6200000</ele>
        <time>2010-08-20T12:04:24Z</time>
      </trkpt>
      <trkpt lat="51.0197110" lon="7.7766420">
        <ele>349.5800000</ele>
        <time>2010-08-20T12:04:25Z</time>
      </trkpt>
      <trkpt lat="51.0196910" lon="7.7765350">
        <ele>350.5400000</ele>
        <time>2010-08-20T12:04:26Z</time>
      </trkpt>
      <trkpt lat="51.0196790" lon="7.7764020">
        <ele>351.0200000</ele>
        <time>2010-08-20T12:04:27Z</time>
      </trkpt>
      <trkpt lat="51.0196680" lon="7.7762680">
        <ele>351.9800000</ele>
        <time>2010-08-20T12:04:28Z</time>
      </trkpt>
      <trkpt lat="51.0196500" lon="7.7747710">
        <ele>354.3800000</ele>
        <time>2010-08-20T12:04:40Z</time>
      </trkpt>
      <trkpt lat="51.0196440" lon="7.7743400">
        <ele>354.3800000</ele>
        <time>2010-08-20T12:04:45Z</time>
      </trkpt>
      <trkpt lat="51.0196320" lon="7.7742480">
        <ele>353.9000000</ele>
        <time>2010-08-20T12:04:46Z</time>
      </trkpt>
      <trkpt lat="51.0196250" lon="7.7741470">
        <ele>353.9000000</ele>
        <time>2010-08-20T12:04:47Z</time>
      </trkpt>
      <trkpt lat="51.0196260" lon="7.7740350">
        <ele>353.4200000</ele>
        <time>2010-08-20T12:04:48Z</time>
      </trkpt>
      <trkpt lat="51.0196280" lon="7.7739120">
        <ele>353.4200000</ele>
        <time>2010-08-20T12:04:49Z</time>
      </trkpt>
      <trkpt lat="51.0196150" lon="7.7732540">
        <ele>353.4200000</ele>
        <time>2010-08-20T12:04:55Z</time>
      </trkpt>
      <trkpt lat="51.0196610" lon="7.7717120">
        <ele>351.9800000</ele>
        <time>2010-08-20T12:05:07Z</time>
      </trkpt>
      <trkpt lat="51.0196600" lon="7.7714780">
        <ele>351.5000000</ele>
        <time>2010-08-20T12:05:09Z</time>
      </trkpt>
      <trkpt lat="51.0196680" lon="7.7713830">
        <ele>351.5000000</ele>
        <time>2010-08-20T12:05:10Z</time>
      </trkpt>
      <trkpt lat="51.0196810" lon="7.7713090">
        <ele>351.0200000</ele>
        <time>2010-08-20T12:05:11Z</time>
      </trkpt>
      <trkpt lat="51.0197040" lon="7.7712500">
        <ele>351.0200000</ele>
        <time>2010-08-20T12:05:12Z</time>
      </trkpt>
      <trkpt lat="51.0197450" lon="7.7712030">
        <ele>351.0200000</ele>
        <time>2010-08-20T12:05:13Z</time>
      </trkpt>
      <trkpt lat="51.0198020" lon="7.7711640">
        <ele>350.5400000</ele>
        <time>2010-08-20T12:05:14Z</time>
      </trkpt>
      <trkpt lat="51.0198660" lon="7.7711280">
        <ele>350.5400000</ele>
        <time>2010-08-20T12:05:15Z</time>
      </trkpt>
      <trkpt lat="51.0200590" lon="7.7709980">
        <ele>349.5800000</ele>
        <time>2010-08-20T12:05:18Z</time>
      </trkpt>
      <trkpt lat="51.0201170" lon="7.7709380">
        <ele>349.1000000</ele>
        <time>2010-08-20T12:05:19Z</time>
      </trkpt>
      <trkpt lat="51.0201610" lon="7.7708670">
        <ele>348.6200000</ele>
        <time>2010-08-20T12:05:20Z</time>
      </trkpt>
      <trkpt lat="51.0201920" lon="7.7707900">
        <ele>348.6200000</ele>
        <time>2010-08-20T12:05:21Z</time>
      </trkpt>
      <trkpt lat="51.0202140" lon="7.7707110">
        <ele>348.1300000</ele>
        <time>2010-08-20T12:05:22Z</time>
      </trkpt>
      <trkpt lat="51.0202320" lon="7.7706430">
        <ele>347.6500000</ele>
        <time>2010-08-20T12:05:23Z</time>
      </trkpt>
      <trkpt lat="51.0202540" lon="7.7705670">
        <ele>347.1700000</ele>
        <time>2010-08-20T12:05:30Z</time>
      </trkpt>
      <trkpt lat="51.0202380" lon="7.7704250">
        <ele>348.1300000</ele>
        <time>2010-08-20T12:05:35Z</time>
      </trkpt>
      <trkpt lat="51.0201920" lon="7.7703990">
        <ele>347.6500000</ele>
        <time>2010-08-20T12:05:36Z</time>
      </trkpt>
      <trkpt lat="51.0201140" lon="7.7703840">
        <ele>348.1300000</ele>
        <time>2010-08-20T12:05:37Z</time>
      </trkpt>
      <trkpt lat="51.0200290" lon="7.7703670">
        <ele>348.6200000</ele>
        <time>2010-08-20T12:05:38Z</time>
      </trkpt>
      <trkpt lat="51.0199470" lon="7.7703350">
        <ele>348.6200000</ele>
        <time>2010-08-20T12:05:39Z</time>
      </trkpt>
      <trkpt lat="51.0198730" lon="7.7702910">
        <ele>349.1000000</ele>
        <time>2010-08-20T12:05:40Z</time>
      </trkpt>
      <trkpt lat="51.0198080" lon="7.7702350">
        <ele>349.5800000</ele>
        <time>2010-08-20T12:05:41Z</time>
      </trkpt>
      <trkpt lat="51.0197500" lon="7.7701730">
        <ele>350.0600000</ele>
        <time>2010-08-20T12:05:42Z</time>
      </trkpt>
      <trkpt lat="51.0196970" lon="7.7701110">
        <ele>350.5400000</ele>
        <time>2010-08-20T12:05:43Z</time>
      </trkpt>
      <trkpt lat="51.0196520" lon="7.7700460">
        <ele>351.0200000</ele>
        <time>2010-08-20T12:05:44Z</time>
      </trkpt>
      <trkpt lat="51.0196080" lon="7.7699710">
        <ele>351.0200000</ele>
        <time>2010-08-20T12:05:45Z</time>
      </trkpt>
      <trkpt lat="51.0192330" lon="7.7691450">
        <ele>357.7500000</ele>
        <time>2010-08-20T12:05:52Z</time>
      </trkpt>
      <trkpt lat="51.0191910" lon="7.7690000">
        <ele>358.7100000</ele>
        <time>2010-08-20T12:05:53Z</time>
      </trkpt>
      <trkpt lat="51.0191630" lon="7.7688490">
        <ele>359.6700000</ele>
        <time>2010-08-20T12:05:54Z</time>
      </trkpt>
      <trkpt lat="51.0191490" lon="7.7687050">
        <ele>361.1100000</ele>
        <time>2010-08-20T12:05:55Z</time>
      </trkpt>
      <trkpt lat="51.0191620" lon="7.7685490">
        <ele>362.0700000</ele>
        <time>2010-08-20T12:05:56Z</time>
      </trkpt>
      <trkpt lat="51.0191770" lon="7.7684100">
        <ele>362.5500000</ele>
        <time>2010-08-20T12:05:57Z</time>
      </trkpt>
      <trkpt lat="51.0192000" lon="7.7682730">
        <ele>363.5200000</ele>
        <time>2010-08-20T12:05:58Z</time>
      </trkpt>
      <trkpt lat="51.0192330" lon="7.7681380">
        <ele>364.0000000</ele>
        <time>2010-08-20T12:05:59Z</time>
      </trkpt>
      <trkpt lat="51.0192750" lon="7.7680040">
        <ele>364.9600000</ele>
        <time>2010-08-20T12:06:00Z</time>
      </trkpt>
      <trkpt lat="51.0193260" lon="7.7678720">
        <ele>364.9600000</ele>
        <time>2010-08-20T12:06:01Z</time>
      </trkpt>
      <trkpt lat="51.0196460" lon="7.7666080">
        <ele>366.8800000</ele>
        <time>2010-08-20T12:06:11Z</time>
      </trkpt>
      <trkpt lat="51.0197160" lon="7.7658460">
        <ele>365.4400000</ele>
        <time>2010-08-20T12:06:17Z</time>
      </trkpt>
      <trkpt lat="51.0197440" lon="7.7657340">
        <ele>364.9600000</ele>
        <time>2010-08-20T12:06:18Z</time>
      </trkpt>
      <trkpt lat="51.0197840" lon="7.7656280">
        <ele>364.4800000</ele>
        <time>2010-08-20T12:06:19Z</time>
      </trkpt>
      <trkpt lat="51.0198370" lon="7.7655330">
        <ele>363.5200000</ele>
        <time>2010-08-20T12:06:20Z</time>
      </trkpt>
      <trkpt lat="51.0199020" lon="7.7654520">
        <ele>362.5500000</ele>
        <time>2010-08-20T12:06:21Z</time>
      </trkpt>
      <trkpt lat="51.0199760" lon="7.7653820">
        <ele>361.5900000</ele>
        <time>2010-08-20T12:06:22Z</time>
      </trkpt>
      <trkpt lat="51.0200550" lon="7.7653300">
        <ele>361.1100000</ele>
        <time>2010-08-20T12:06:23Z</time>
      </trkpt>
      <trkpt lat="51.0201440" lon="7.7652940">
        <ele>359.6700000</ele>
        <time>2010-08-20T12:06:24Z</time>
      </trkpt>
      <trkpt lat="51.0202370" lon="7.7652640">
        <ele>358.2300000</ele>
        <time>2010-08-20T12:06:25Z</time>
      </trkpt>
      <trkpt lat="51.0206580" lon="7.7651230">
        <ele>352.9400000</ele>
        <time>2010-08-20T12:06:32Z</time>
      </trkpt>
      <trkpt lat="51.0206880" lon="7.7650400">
        <ele>351.0200000</ele>
        <time>2010-08-20T12:06:35Z</time>
      </trkpt>
      <trkpt lat="51.0207010" lon="7.7648860">
        <ele>350.0600000</ele>
        <time>2010-08-20T12:06:37Z</time>
      </trkpt>
      <trkpt lat="51.0206920" lon="7.7647670">
        <ele>349.5800000</ele>
        <time>2010-08-20T12:06:38Z</time>
      </trkpt>
      <trkpt lat="51.0206710" lon="7.7646290">
        <ele>349.1000000</ele>
        <time>2010-08-20T12:06:39Z</time>
      </trkpt>
      <trkpt lat="51.0204650" lon="7.7631800">
        <ele>352.9400000</ele>
        <time>2010-08-20T12:06:47Z</time>
      </trkpt>
      <trkpt lat="51.0204560" lon="7.7628260">
        <ele>352.4600000</ele>
        <time>2010-08-20T12:06:49Z</time>
      </trkpt>
      <trkpt lat="51.0204710" lon="7.7626640">
        <ele>352.4600000</ele>
        <time>2010-08-20T12:06:50Z</time>
      </trkpt>
      <trkpt lat="51.0205050" lon="7.7625090">
        <ele>352.4600000</ele>
        <time>2010-08-20T12:06:51Z</time>
      </trkpt>
      <trkpt lat="51.0205520" lon="7.7623620">
        <ele>352.9400000</ele>
        <time>2010-08-20T12:06:52Z</time>
      </trkpt>
      <trkpt lat="51.0206280" lon="7.7622440">
        <ele>352.9400000</ele>
        <time>2010-08-20T12:06:53Z</time>
      </trkpt>
      <trkpt lat="51.0206950" lon="7.7621360">
        <ele>352.9400000</ele>
        <time>2010-08-20T12:06:54Z</time>
      </trkpt>
      <trkpt lat="51.0208470" lon="7.7619290">
        <ele>353.9000000</ele>
        <time>2010-08-20T12:06:57Z</time>
      </trkpt>
      <trkpt lat="51.0208750" lon="7.7618940">
        <ele>353.9000000</ele>
        <time>2010-08-20T12:06:58Z</time>
      </trkpt>
      <trkpt lat="51.0208910" lon="7.7618570">
        <ele>354.3800000</ele>
        <time>2010-08-20T12:06:59Z</time>
      </trkpt>
      <trkpt lat="51.0208960" lon="7.7617960">
        <ele>354.3800000</ele>
        <time>2010-08-20T12:07:00Z</time>
      </trkpt>
      <trkpt lat="51.0208750" lon="7.7616970">
        <ele>354.3800000</ele>
        <time>2010-08-20T12:07:01Z</time>
      </trkpt>
      <trkpt lat="51.0208200" lon="7.7615640">
        <ele>354.8600000</ele>
        <time>2010-08-20T12:07:02Z</time>
      </trkpt>
      <trkpt lat="51.0207400" lon="7.7613800">
        <ele>354.8600000</ele>
        <time>2010-08-20T12:07:03Z</time>
      </trkpt>
      <trkpt lat="51.0202560" lon="7.7600350">
        <ele>359.1900000</ele>
        <time>2010-08-20T12:07:08Z</time>
      </trkpt>
      <trkpt lat="51.0198080" lon="7.7581220">
        <ele>366.8800000</ele>
        <time>2010-08-20T12:07:13Z</time>
      </trkpt>
      <trkpt lat="51.0190880" lon="7.7548070">
        <ele>379.3800000</ele>
        <time>2010-08-20T12:07:21Z</time>
      </trkpt>
      <trkpt lat="51.0183020" lon="7.7529650">
        <ele>384.6600000</ele>
        <time>2010-08-20T12:07:26Z</time>
      </trkpt>
      <trkpt lat="51.0177850" lon="7.7517370">
        <ele>388.5100000</ele>
        <time>2010-08-20T12:07:30Z</time>
      </trkpt>
      <trkpt lat="51.0176930" lon="7.7514010">
        <ele>388.9900000</ele>
        <time>2010-08-20T12:07:31Z</time>
      </trkpt>
      <trkpt lat="51.0176170" lon="7.7510540">
        <ele>389.9500000</ele>
        <time>2010-08-20T12:07:32Z</time>
      </trkpt>
      <trkpt lat="51.0175610" lon="7.7506980">
        <ele>390.4300000</ele>
        <time>2010-08-20T12:07:33Z</time>
      </trkpt>
      <trkpt lat="51.0175260" lon="7.7503370">
        <ele>390.9100000</ele>
        <time>2010-08-20T12:07:34Z</time>
      </trkpt>
      <trkpt lat="51.0175080" lon="7.7499740">
        <ele>391.3900000</ele>
        <time>2010-08-20T12:07:35Z</time>
      </trkpt>
      <trkpt lat="51.0175080" lon="7.7496080">
        <ele>391.3900000</ele>
        <time>2010-08-20T12:07:36Z</time>
      </trkpt>
      <trkpt lat="51.0175230" lon="7.7492340">
        <ele>391.8700000</ele>
        <time>2010-08-20T12:07:37Z</time>
      </trkpt>
      <trkpt lat="51.0175530" lon="7.7464750">
        <ele>393.8000000</ele>
        <time>2010-08-20T12:07:45Z</time>
      </trkpt>
      <trkpt lat="51.0171060" lon="7.7442880">
        <ele>399.0800000</ele>
        <time>2010-08-20T12:07:54Z</time>
      </trkpt>
      <trkpt lat="51.0168320" lon="7.7429010">
        <ele>402.4500000</ele>
        <time>2010-08-20T12:08:02Z</time>
      </trkpt>
      <trkpt lat="51.0165440" lon="7.7409110">
        <ele>408.2200000</ele>
        <time>2010-08-20T12:08:13Z</time>
      </trkpt>
      <trkpt lat="51.0164240" lon="7.7397400">
        <ele>409.6600000</ele>
        <time>2010-08-20T12:08:19Z</time>
      </trkpt>
      <trkpt lat="51.0164260" lon="7.7395480">
        <ele>410.1400000</ele>
        <time>2010-08-20T12:08:20Z</time>
      </trkpt>
      <trkpt lat="51.0164410" lon="7.7393560">
        <ele>410.1400000</ele>
        <time>2010-08-20T12:08:21Z</time>
      </trkpt>
      <trkpt lat="51.0164670" lon="7.7391630">
        <ele>410.6200000</ele>
        <time>2010-08-20T12:08:22Z</time>
      </trkpt>
      <trkpt lat="51.0165060" lon="7.7389700">
        <ele>410.6200000</ele>
        <time>2010-08-20T12:08:23Z</time>
      </trkpt>
      <trkpt lat="51.0165590" lon="7.7387790">
        <ele>411.1000000</ele>
        <time>2010-08-20T12:08:24Z</time>
      </trkpt>
      <trkpt lat="51.0166290" lon="7.7385900">
        <ele>411.5800000</ele>
        <time>2010-08-20T12:08:25Z</time>
      </trkpt>
      <trkpt lat="51.0167160" lon="7.7384060">
        <ele>412.0600000</ele>
        <time>2010-08-20T12:08:26Z</time>
      </trkpt>
      <trkpt lat="51.0168190" lon="7.7382360">
        <ele>412.5400000</ele>
        <time>2010-08-20T12:08:27Z</time>
      </trkpt>
      <trkpt lat="51.0169320" lon="7.7380880">
        <ele>413.5000000</ele>
        <time>2010-08-20T12:08:28Z</time>
      </trkpt>
      <trkpt lat="51.0170500" lon="7.7379640">
        <ele>414.4700000</ele>
        <time>2010-08-20T12:08:29Z</time>
      </trkpt>
      <trkpt lat="51.0171700" lon="7.7378630">
        <ele>415.4300000</ele>
        <time>2010-08-20T12:08:30Z</time>
      </trkpt>
      <trkpt lat="51.0172900" lon="7.7377820">
        <ele>416.3900000</ele>
        <time>2010-08-20T12:08:31Z</time>
      </trkpt>
      <trkpt lat="51.0174130" lon="7.7377200">
        <ele>417.3500000</ele>
        <time>2010-08-20T12:08:32Z</time>
      </trkpt>
      <trkpt lat="51.0175380" lon="7.7376720">
        <ele>418.7900000</ele>
        <time>2010-08-20T12:08:33Z</time>
      </trkpt>
      <trkpt lat="51.0176640" lon="7.7376300">
        <ele>420.2300000</ele>
        <time>2010-08-20T12:08:34Z</time>
      </trkpt>
      <trkpt lat="51.0177930" lon="7.7375760">
        <ele>421.6800000</ele>
        <time>2010-08-20T12:08:35Z</time>
      </trkpt>
      <trkpt lat="51.0179200" lon="7.7375030">
        <ele>422.6400000</ele>
        <time>2010-08-20T12:08:36Z</time>
      </trkpt>
      <trkpt lat="51.0191310" lon="7.7365010">
        <ele>437.5400000</ele>
        <time>2010-08-20T12:08:45Z</time>
      </trkpt>
      <trkpt lat="51.0203410" lon="7.7352070">
        <ele>454.3600000</ele>
        <time>2010-08-20T12:08:54Z</time>
      </trkpt>
      <trkpt lat="51.0204510" lon="7.7349830">
        <ele>455.8000000</ele>
        <time>2010-08-20T12:08:55Z</time>
      </trkpt>
      <trkpt lat="51.0205490" lon="7.7347320">
        <ele>457.7200000</ele>
        <time>2010-08-20T12:08:56Z</time>
      </trkpt>
      <trkpt lat="51.0206320" lon="7.7344630">
        <ele>459.6500000</ele>
        <time>2010-08-20T12:08:57Z</time>
      </trkpt>
      <trkpt lat="51.0206940" lon="7.7341940">
        <ele>461.5700000</ele>
        <time>2010-08-20T12:08:58Z</time>
      </trkpt>
      <trkpt lat="51.0207440" lon="7.7339410">
        <ele>463.0100000</ele>
        <time>2010-08-20T12:08:59Z</time>
      </trkpt>
      <trkpt lat="51.0207870" lon="7.7337020">
        <ele>463.9700000</ele>
        <time>2010-08-20T12:09:00Z</time>
      </trkpt>
      <trkpt lat="51.0210140" lon="7.7325290">
        <ele>467.8200000</ele>
        <time>2010-08-20T12:09:05Z</time>
      </trkpt>
      <trkpt lat="51.0210880" lon="7.7323210">
        <ele>468.3000000</ele>
        <time>2010-08-20T12:09:06Z</time>
      </trkpt>
      <trkpt lat="51.0211710" lon="7.7321210">
        <ele>468.3000000</ele>
        <time>2010-08-20T12:09:07Z</time>
      </trkpt>
      <trkpt lat="51.0212680" lon="7.7319360">
        <ele>468.7800000</ele>
        <time>2010-08-20T12:09:08Z</time>
      </trkpt>
      <trkpt lat="51.0213830" lon="7.7317780">
        <ele>467.8200000</ele>
        <time>2010-08-20T12:09:09Z</time>
      </trkpt>
      <trkpt lat="51.0215010" lon="7.7316420">
        <ele>467.3400000</ele>
        <time>2010-08-20T12:09:10Z</time>
      </trkpt>
      <trkpt lat="51.0216280" lon="7.7315280">
        <ele>466.8600000</ele>
        <time>2010-08-20T12:09:11Z</time>
      </trkpt>
      <trkpt lat="51.0217650" lon="7.7314360">
        <ele>465.9000000</ele>
        <time>2010-08-20T12:09:12Z</time>
      </trkpt>
      <trkpt lat="51.0219150" lon="7.7313700">
        <ele>464.4500000</ele>
        <time>2010-08-20T12:09:13Z</time>
      </trkpt>
      <trkpt lat="51.0220740" lon="7.7313300">
        <ele>462.0500000</ele>
        <time>2010-08-20T12:09:14Z</time>
      </trkpt>
      <trkpt lat="51.0222430" lon="7.7313110">
        <ele>458.6900000</ele>
        <time>2010-08-20T12:09:15Z</time>
      </trkpt>
      <trkpt lat="51.0224150" lon="7.7312960">
        <ele>455.8000000</ele>
        <time>2010-08-20T12:09:16Z</time>
      </trkpt>
      <trkpt lat="51.0236060" lon="7.7309070">
        <ele>442.3400000</ele>
        <time>2010-08-20T12:09:24Z</time>
      </trkpt>
      <trkpt lat="51.0239500" lon="7.7307260">
        <ele>438.0200000</ele>
        <time>2010-08-20T12:09:30Z</time>
      </trkpt>
      <trkpt lat="51.0239810" lon="7.7306850">
        <ele>437.5400000</ele>
        <time>2010-08-20T12:09:32Z</time>
      </trkpt>
      <trkpt lat="51.0239850" lon="7.7306380">
        <ele>437.0600000</ele>
        <time>2010-08-20T12:09:33Z</time>
      </trkpt>
      <trkpt lat="51.0239840" lon="7.7305870">
        <ele>436.5800000</ele>
        <time>2010-08-20T12:09:34Z</time>
      </trkpt>
      <trkpt lat="51.0239820" lon="7.7305430">
        <ele>436.5800000</ele>
        <time>2010-08-20T12:09:35Z</time>
      </trkpt>
      <trkpt lat="51.0239840" lon="7.7305050">
        <ele>436.5800000</ele>
        <time>2010-08-20T12:09:36Z</time>
      </trkpt>
      <trkpt lat="51.0239890" lon="7.7304710">
        <ele>436.1000000</ele>
        <time>2010-08-20T12:09:37Z</time>
      </trkpt>
      <trkpt lat="51.0239740" lon="7.7304560">
        <ele>437.5400000</ele>
        <time>2010-08-20T12:09:48Z</time>
      </trkpt>
      <trkpt lat="51.0240770" lon="7.7302170">
        <ele>437.0600000</ele>
        <time>2010-08-20T12:09:55Z</time>
      </trkpt>
      <trkpt lat="51.0241150" lon="7.7300990">
        <ele>437.5400000</ele>
        <time>2010-08-20T12:09:58Z</time>
      </trkpt>
      <trkpt lat="51.0241340" lon="7.7300360">
        <ele>437.5400000</ele>
        <time>2010-08-20T12:09:59Z</time>
      </trkpt>
      <trkpt lat="51.0241480" lon="7.7299600">
        <ele>437.5400000</ele>
        <time>2010-08-20T12:10:00Z</time>
      </trkpt>
      <trkpt lat="51.0242560" lon="7.7288910">
        <ele>441.8600000</ele>
        <time>2010-08-20T12:10:09Z</time>
      </trkpt>
      <trkpt lat="51.0244700" lon="7.7278950">
        <ele>443.3100000</ele>
        <time>2010-08-20T12:10:18Z</time>
      </trkpt>
      <trkpt lat="51.0245010" lon="7.7278170">
        <ele>443.3100000</ele>
        <time>2010-08-20T12:10:19Z</time>
      </trkpt>
      <trkpt lat="51.0245360" lon="7.7277430">
        <ele>442.8200000</ele>
        <time>2010-08-20T12:10:20Z</time>
      </trkpt>
      <trkpt lat="51.0245730" lon="7.7276710">
        <ele>442.8200000</ele>
        <time>2010-08-20T12:10:21Z</time>
      </trkpt>
      <trkpt lat="51.0246030" lon="7.7275920">
        <ele>442.3400000</ele>
        <time>2010-08-20T12:10:22Z</time>
      </trkpt>
      <trkpt lat="51.0246180" lon="7.7275000">
        <ele>442.3400000</ele>
        <time>2010-08-20T12:10:23Z</time>
      </trkpt>
      <trkpt lat="51.0246200" lon="7.7273930">
        <ele>442.3400000</ele>
        <time>2010-08-20T12:10:24Z</time>
      </trkpt>
      <trkpt lat="51.0246150" lon="7.7272710">
        <ele>441.8600000</ele>
        <time>2010-08-20T12:10:25Z</time>
      </trkpt>
      <trkpt lat="51.0246070" lon="7.7271440">
        <ele>441.3800000</ele>
        <time>2010-08-20T12:10:26Z</time>
      </trkpt>
      <trkpt lat="51.0246020" lon="7.7267810">
        <ele>440.9000000</ele>
        <time>2010-08-20T12:10:29Z</time>
      </trkpt>
      <trkpt lat="51.0246160" lon="7.7266690">
        <ele>440.4200000</ele>
        <time>2010-08-20T12:10:30Z</time>
      </trkpt>
      <trkpt lat="51.0246380" lon="7.7265610">
        <ele>440.4200000</ele>
        <time>2010-08-20T12:10:31Z</time>
      </trkpt>
      <trkpt lat="51.0246660" lon="7.7264570">
        <ele>439.9400000</ele>
        <time>2010-08-20T12:10:32Z</time>
      </trkpt>
      <trkpt lat="51.0246970" lon="7.7263570">
        <ele>439.4600000</ele>
        <time>2010-08-20T12:10:33Z</time>
      </trkpt>
      <trkpt lat="51.0247300" lon="7.7262620">
        <ele>438.9800000</ele>
        <time>2010-08-20T12:10:34Z</time>
      </trkpt>
      <trkpt lat="51.0248410" lon="7.7260140">
        <ele>438.0200000</ele>
        <time>2010-08-20T12:10:37Z</time>
      </trkpt>
      <trkpt lat="51.0248840" lon="7.7259500">
        <ele>437.0600000</ele>
        <time>2010-08-20T12:10:38Z</time>
      </trkpt>
      <trkpt lat="51.0249330" lon="7.7258980">
        <ele>436.5800000</ele>
        <time>2010-08-20T12:10:39Z</time>
      </trkpt>
      <trkpt lat="51.0249860" lon="7.7258570">
        <ele>435.6100000</ele>
        <time>2010-08-20T12:10:40Z</time>
      </trkpt>
      <trkpt lat="51.0250460" lon="7.7258310">
        <ele>434.6500000</ele>
        <time>2010-08-20T12:10:41Z</time>
      </trkpt>
      <trkpt lat="51.0251100" lon="7.7258220">
        <ele>434.1700000</ele>
        <time>2010-08-20T12:10:42Z</time>
      </trkpt>
      <trkpt lat="51.0251770" lon="7.7258250">
        <ele>433.2100000</ele>
        <time>2010-08-20T12:10:43Z</time>
      </trkpt>
      <trkpt lat="51.0252460" lon="7.7258350">
        <ele>432.2500000</ele>
        <time>2010-08-20T12:10:44Z</time>
      </trkpt>
      <trkpt lat="51.0253180" lon="7.7258320">
        <ele>431.2900000</ele>
        <time>2010-08-20T12:10:45Z</time>
      </trkpt>
      <trkpt lat="51.0253860" lon="7.7258200">
        <ele>430.3300000</ele>
        <time>2010-08-20T12:10:46Z</time>
      </trkpt>
      <trkpt lat="51.0254400" lon="7.7258030">
        <ele>429.3700000</ele>
        <time>2010-08-20T12:10:47Z</time>
      </trkpt>
      <trkpt lat="51.0254870" lon="7.7257750">
        <ele>428.8900000</ele>
        <time>2010-08-20T12:10:48Z</time>
      </trkpt>
      <trkpt lat="51.0255350" lon="7.7257220">
        <ele>427.9200000</ele>
        <time>2010-08-20T12:10:49Z</time>
      </trkpt>
      <trkpt lat="51.0255820" lon="7.7256410">
        <ele>426.9600000</ele>
        <time>2010-08-20T12:10:50Z</time>
      </trkpt>
      <trkpt lat="51.0256430" lon="7.7255510">
        <ele>426.4800000</ele>
        <time>2010-08-20T12:10:51Z</time>
      </trkpt>
      <trkpt lat="51.0261100" lon="7.7246400">
        <ele>422.6400000</ele>
        <time>2010-08-20T12:11:00Z</time>
      </trkpt>
      <trkpt lat="51.0261630" lon="7.7244590">
        <ele>422.1600000</ele>
        <time>2010-08-20T12:11:02Z</time>
      </trkpt>
      <trkpt lat="51.0261910" lon="7.7243730">
        <ele>422.1600000</ele>
        <time>2010-08-20T12:11:03Z</time>
      </trkpt>
      <trkpt lat="51.0262100" lon="7.7242790">
        <ele>422.1600000</ele>
        <time>2010-08-20T12:11:04Z</time>
      </trkpt>
      <trkpt lat="51.0262860" lon="7.7238180">
        <ele>423.6000000</ele>
        <time>2010-08-20T12:11:08Z</time>
      </trkpt>
      <trkpt lat="51.0263230" lon="7.7237000">
        <ele>424.0800000</ele>
        <time>2010-08-20T12:11:09Z</time>
      </trkpt>
      <trkpt lat="51.0265530" lon="7.7231290">
        <ele>426.4800000</ele>
        <time>2010-08-20T12:11:14Z</time>
      </trkpt>
      <trkpt lat="51.0265870" lon="7.7230230">
        <ele>426.4800000</ele>
        <time>2010-08-20T12:11:15Z</time>
      </trkpt>
      <trkpt lat="51.0266130" lon="7.7229100">
        <ele>426.9600000</ele>
        <time>2010-08-20T12:11:16Z</time>
      </trkpt>
      <trkpt lat="51.0266320" lon="7.7227910">
        <ele>427.4400000</ele>
        <time>2010-08-20T12:11:17Z</time>
      </trkpt>
      <trkpt lat="51.0266470" lon="7.7226680">
        <ele>427.9200000</ele>
        <time>2010-08-20T12:11:18Z</time>
      </trkpt>
      <trkpt lat="51.0267890" lon="7.7209690">
        <ele>434.1700000</ele>
        <time>2010-08-20T12:11:30Z</time>
      </trkpt>
      <trkpt lat="51.0270040" lon="7.7192770">
        <ele>436.1000000</ele>
        <time>2010-08-20T12:11:41Z</time>
      </trkpt>
      <trkpt lat="51.0270650" lon="7.7191530">
        <ele>436.1000000</ele>
        <time>2010-08-20T12:11:42Z</time>
      </trkpt>
      <trkpt lat="51.0271380" lon="7.7190400">
        <ele>435.6100000</ele>
        <time>2010-08-20T12:11:43Z</time>
      </trkpt>
      <trkpt lat="51.0272220" lon="7.7189350">
        <ele>435.6100000</ele>
        <time>2010-08-20T12:11:44Z</time>
      </trkpt>
      <trkpt lat="51.0273100" lon="7.7188380">
        <ele>435.6100000</ele>
        <time>2010-08-20T12:11:45Z</time>
      </trkpt>
      <trkpt lat="51.0276360" lon="7.7185500">
        <ele>436.1000000</ele>
        <time>2010-08-20T12:11:49Z</time>
      </trkpt>
      <trkpt lat="51.0277160" lon="7.7185250">
        <ele>436.1000000</ele>
        <time>2010-08-20T12:11:50Z</time>
      </trkpt>
      <trkpt lat="51.0277980" lon="7.7185320">
        <ele>436.1000000</ele>
        <time>2010-08-20T12:11:51Z</time>
      </trkpt>
      <trkpt lat="51.0278820" lon="7.7185700">
        <ele>436.1000000</ele>
        <time>2010-08-20T12:11:52Z</time>
      </trkpt>
      <trkpt lat="51.0279660" lon="7.7186300">
        <ele>436.1000000</ele>
        <time>2010-08-20T12:11:53Z</time>
      </trkpt>
      <trkpt lat="51.0280530" lon="7.7187050">
        <ele>436.1000000</ele>
        <time>2010-08-20T12:11:54Z</time>
      </trkpt>
      <trkpt lat="51.0291260" lon="7.7192940">
        <ele>435.6100000</ele>
        <time>2010-08-20T12:12:04Z</time>
      </trkpt>
      <trkpt lat="51.0303820" lon="7.7200250">
        <ele>434.6500000</ele>
        <time>2010-08-20T12:12:14Z</time>
      </trkpt>
      <trkpt lat="51.0309840" lon="7.7201420">
        <ele>435.1300000</ele>
        <time>2010-08-20T12:12:19Z</time>
      </trkpt>
      <trkpt lat="51.0310880" lon="7.7201160">
        <ele>435.6100000</ele>
        <time>2010-08-20T12:12:20Z</time>
      </trkpt>
      <trkpt lat="51.0311820" lon="7.7200540">
        <ele>435.6100000</ele>
        <time>2010-08-20T12:12:21Z</time>
      </trkpt>
      <trkpt lat="51.0312670" lon="7.7199590">
        <ele>435.6100000</ele>
        <time>2010-08-20T12:12:22Z</time>
      </trkpt>
      <trkpt lat="51.0313370" lon="7.7198420">
        <ele>435.6100000</ele>
        <time>2010-08-20T12:12:23Z</time>
      </trkpt>
      <trkpt lat="51.0313920" lon="7.7197190">
        <ele>435.1300000</ele>
        <time>2010-08-20T12:12:24Z</time>
      </trkpt>
      <trkpt lat="51.0314440" lon="7.7196040">
        <ele>435.1300000</ele>
        <time>2010-08-20T12:12:25Z</time>
      </trkpt>
      <trkpt lat="51.0314960" lon="7.7195000">
        <ele>435.1300000</ele>
        <time>2010-08-20T12:12:26Z</time>
      </trkpt>
      <trkpt lat="51.0315500" lon="7.7194050">
        <ele>435.1300000</ele>
        <time>2010-08-20T12:12:27Z</time>
      </trkpt>
      <trkpt lat="51.0321460" lon="7.7185250">
        <ele>432.7300000</ele>
        <time>2010-08-20T12:12:38Z</time>
      </trkpt>
      <trkpt lat="51.0322600" lon="7.7182980">
        <ele>432.2500000</ele>
        <time>2010-08-20T12:12:43Z</time>
      </trkpt>
      <trkpt lat="51.0322600" lon="7.7182220">
        <ele>432.2500000</ele>
        <time>2010-08-20T12:12:44Z</time>
      </trkpt>
      <trkpt lat="51.0322420" lon="7.7172370">
        <ele>430.3300000</ele>
        <time>2010-08-20T12:12:52Z</time>
      </trkpt>
      <trkpt lat="51.0324520" lon="7.7157900">
        <ele>426.0000000</ele>
        <time>2010-08-20T12:13:02Z</time>
      </trkpt>
      <trkpt lat="51.0325000" lon="7.7154790">
        <ele>424.5600000</ele>
        <time>2010-08-20T12:13:04Z</time>
      </trkpt>
      <trkpt lat="51.0325030" lon="7.7153240">
        <ele>424.0800000</ele>
        <time>2010-08-20T12:13:05Z</time>
      </trkpt>
      <trkpt lat="51.0324850" lon="7.7151680">
        <ele>423.1200000</ele>
        <time>2010-08-20T12:13:06Z</time>
      </trkpt>
      <trkpt lat="51.0324510" lon="7.7150140">
        <ele>422.1600000</ele>
        <time>2010-08-20T12:13:07Z</time>
      </trkpt>
      <trkpt lat="51.0324010" lon="7.7148660">
        <ele>421.6800000</ele>
        <time>2010-08-20T12:13:08Z</time>
      </trkpt>
      <trkpt lat="51.0323480" lon="7.7147160">
        <ele>420.7100000</ele>
        <time>2010-08-20T12:13:09Z</time>
      </trkpt>
      <trkpt lat="51.0321870" lon="7.7142790">
        <ele>419.2700000</ele>
        <time>2010-08-20T12:13:12Z</time>
      </trkpt>
      <trkpt lat="51.0321180" lon="7.7141550">
        <ele>418.7900000</ele>
        <time>2010-08-20T12:13:13Z</time>
      </trkpt>
      <trkpt lat="51.0320340" lon="7.7140510">
        <ele>418.7900000</ele>
        <time>2010-08-20T12:13:14Z</time>
      </trkpt>
      <trkpt lat="51.0319410" lon="7.7139660">
        <ele>418.3100000</ele>
        <time>2010-08-20T12:13:15Z</time>
      </trkpt>
      <trkpt lat="51.0318470" lon="7.7138910">
        <ele>417.8300000</ele>
        <time>2010-08-20T12:13:16Z</time>
      </trkpt>
      <trkpt lat="51.0313070" lon="7.7134200">
        <ele>415.4300000</ele>
        <time>2010-08-20T12:13:22Z</time>
      </trkpt>
      <trkpt lat="51.0312410" lon="7.7133160">
        <ele>414.9500000</ele>
        <time>2010-08-20T12:13:23Z</time>
      </trkpt>
      <trkpt lat="51.0311820" lon="7.7131990">
        <ele>414.9500000</ele>
        <time>2010-08-20T12:13:24Z</time>
      </trkpt>
      <trkpt lat="51.0311350" lon="7.7130730">
        <ele>413.9800000</ele>
        <time>2010-08-20T12:13:25Z</time>
      </trkpt>
      <trkpt lat="51.0311000" lon="7.7129410">
        <ele>413.5000000</ele>
        <time>2010-08-20T12:13:26Z</time>
      </trkpt>
      <trkpt lat="51.0310760" lon="7.7127990">
        <ele>413.0200000</ele>
        <time>2010-08-20T12:13:27Z</time>
      </trkpt>
      <trkpt lat="51.0310620" lon="7.7126430">
        <ele>412.5400000</ele>
        <time>2010-08-20T12:13:28Z</time>
      </trkpt>
      <trkpt lat="51.0310540" lon="7.7124740">
        <ele>412.0600000</ele>
        <time>2010-08-20T12:13:29Z</time>
      </trkpt>
      <trkpt lat="51.0310510" lon="7.7122930">
        <ele>411.5800000</ele>
        <time>2010-08-20T12:13:30Z</time>
      </trkpt>
      <trkpt lat="51.0311130" lon="7.7104910">
        <ele>403.8900000</ele>
        <time>2010-08-20T12:13:40Z</time>
      </trkpt>
      <trkpt lat="51.0310970" lon="7.7102910">
        <ele>403.4100000</ele>
        <time>2010-08-20T12:13:41Z</time>
      </trkpt>
      <trkpt lat="51.0308750" lon="7.7084250">
        <ele>395.2400000</ele>
        <time>2010-08-20T12:13:52Z</time>
      </trkpt>
      <trkpt lat="51.0308290" lon="7.7083380">
        <ele>394.7600000</ele>
        <time>2010-08-20T12:13:53Z</time>
      </trkpt>
      <trkpt lat="51.0308070" lon="7.7083070">
        <ele>394.2800000</ele>
        <time>2010-08-20T12:13:54Z</time>
      </trkpt>
      <trkpt lat="51.0307910" lon="7.7083290">
        <ele>393.8000000</ele>
        <time>2010-08-20T12:13:55Z</time>
      </trkpt>
      <trkpt lat="51.0307860" lon="7.7084030">
        <ele>393.8000000</ele>
        <time>2010-08-20T12:13:56Z</time>
      </trkpt>
      <trkpt lat="51.0307830" lon="7.7084540">
        <ele>393.3200000</ele>
        <time>2010-08-20T12:13:57Z</time>
      </trkpt>
      <trkpt lat="51.0307680" lon="7.7085200">
        <ele>392.3600000</ele>
        <time>2010-08-20T12:13:58Z</time>
      </trkpt>
      <trkpt lat="51.0307510" lon="7.7086040">
        <ele>392.3600000</ele>
        <time>2010-08-20T12:13:59Z</time>
      </trkpt>
      <trkpt lat="51.0306920" lon="7.7087360">
        <ele>392.3600000</ele>
        <time>2010-08-20T12:14:00Z</time>
      </trkpt>
      <trkpt lat="51.0303780" lon="7.7096030">
        <ele>385.6300000</ele>
        <time>2010-08-20T12:14:07Z</time>
      </trkpt>
      <trkpt lat="51.0301390" lon="7.7103240">
        <ele>383.7000000</ele>
        <time>2010-08-20T12:14:12Z</time>
      </trkpt>
      <trkpt lat="51.0297890" lon="7.7114910">
        <ele>383.7000000</ele>
        <time>2010-08-20T12:14:21Z</time>
      </trkpt>
      <trkpt lat="51.0297570" lon="7.7116370">
        <ele>382.7400000</ele>
        <time>2010-08-20T12:14:22Z</time>
      </trkpt>
      <trkpt lat="51.0294760" lon="7.7131920">
        <ele>370.2400000</ele>
        <time>2010-08-20T12:14:33Z</time>
      </trkpt>
      <trkpt lat="51.0294030" lon="7.7132780">
        <ele>364.9600000</ele>
        <time>2010-08-20T12:14:39Z</time>
      </trkpt>
      <trkpt lat="51.0293900" lon="7.7131740">
        <ele>362.0700000</ele>
        <time>2010-08-20T12:14:40Z</time>
      </trkpt>
      <trkpt lat="51.0294030" lon="7.7130630">
        <ele>358.7100000</ele>
        <time>2010-08-20T12:14:41Z</time>
      </trkpt>
      <trkpt lat="51.0294260" lon="7.7128600">
        <ele>356.7900000</ele>
        <time>2010-08-20T12:14:42Z</time>
      </trkpt>
      <trkpt lat="51.0294270" lon="7.7126870">
        <ele>354.3800000</ele>
        <time>2010-08-20T12:14:43Z</time>
      </trkpt>
      <trkpt lat="51.0294020" lon="7.7125240">
        <ele>354.8600000</ele>
        <time>2010-08-20T12:14:44Z</time>
      </trkpt>
      <trkpt lat="51.0293520" lon="7.7118950">
        <ele>351.9800000</ele>
        <time>2010-08-20T12:14:48Z</time>
      </trkpt>
      <trkpt lat="51.0292880" lon="7.7109940">
        <ele>351.5000000</ele>
        <time>2010-08-20T12:14:54Z</time>
      </trkpt>
      <trkpt lat="51.0293100" lon="7.7108320">
        <ele>351.0200000</ele>
        <time>2010-08-20T12:14:55Z</time>
      </trkpt>
      <trkpt lat="51.0295470" lon="7.7093260">
        <ele>345.2500000</ele>
        <time>2010-08-20T12:15:04Z</time>
      </trkpt>
      <trkpt lat="51.0297160" lon="7.7074390">
        <ele>341.4100000</ele>
        <time>2010-08-20T12:15:15Z</time>
      </trkpt>
      <trkpt lat="51.0296770" lon="7.7063790">
        <ele>337.0800000</ele>
        <time>2010-08-20T12:15:21Z</time>
      </trkpt>
      <trkpt lat="51.0295050" lon="7.7053310">
        <ele>335.6400000</ele>
        <time>2010-08-20T12:15:27Z</time>
      </trkpt>
      <trkpt lat="51.0293720" lon="7.7050260">
        <ele>335.1600000</ele>
        <time>2010-08-20T12:15:29Z</time>
      </trkpt>
      <trkpt lat="51.0292870" lon="7.7048890">
        <ele>335.1600000</ele>
        <time>2010-08-20T12:15:30Z</time>
      </trkpt>
      <trkpt lat="51.0291990" lon="7.7047810">
        <ele>334.6800000</ele>
        <time>2010-08-20T12:15:31Z</time>
      </trkpt>
      <trkpt lat="51.0291140" lon="7.7046710">
        <ele>333.7100000</ele>
        <time>2010-08-20T12:15:32Z</time>
      </trkpt>
      <trkpt lat="51.0290120" lon="7.7045680">
        <ele>333.7100000</ele>
        <time>2010-08-20T12:15:33Z</time>
      </trkpt>
      <trkpt lat="51.0289080" lon="7.7044850">
        <ele>333.2300000</ele>
        <time>2010-08-20T12:15:34Z</time>
      </trkpt>
      <trkpt lat="51.0287960" lon="7.7044300">
        <ele>332.7500000</ele>
        <time>2010-08-20T12:15:35Z</time>
      </trkpt>
      <trkpt lat="51.0286490" lon="7.7044170">
        <ele>332.7500000</ele>
        <time>2010-08-20T12:15:36Z</time>
      </trkpt>
      <trkpt lat="51.0285220" lon="7.7043920">
        <ele>332.2700000</ele>
        <time>2010-08-20T12:15:37Z</time>
      </trkpt>
      <trkpt lat="51.0283960" lon="7.7043740">
        <ele>332.2700000</ele>
        <time>2010-08-20T12:15:38Z</time>
      </trkpt>
      <trkpt lat="51.0282770" lon="7.7043770">
        <ele>332.7500000</ele>
        <time>2010-08-20T12:15:39Z</time>
      </trkpt>
      <trkpt lat="51.0281670" lon="7.7043820">
        <ele>332.7500000</ele>
        <time>2010-08-20T12:15:40Z</time>
      </trkpt>
      <trkpt lat="51.0270630" lon="7.7041390">
        <ele>326.5000000</ele>
        <time>2010-08-20T12:15:50Z</time>
      </trkpt>
      <trkpt lat="51.0269580" lon="7.7040760">
        <ele>326.9900000</ele>
        <time>2010-08-20T12:15:51Z</time>
      </trkpt>
      <trkpt lat="51.0268660" lon="7.7039990">
        <ele>324.5800000</ele>
        <time>2010-08-20T12:15:52Z</time>
      </trkpt>
      <trkpt lat="51.0267730" lon="7.7039040">
        <ele>323.1400000</ele>
        <time>2010-08-20T12:15:53Z</time>
      </trkpt>
      <trkpt lat="51.0266800" lon="7.7037920">
        <ele>321.7000000</ele>
        <time>2010-08-20T12:15:54Z</time>
      </trkpt>
      <trkpt lat="51.0265930" lon="7.7036710">
        <ele>319.7800000</ele>
        <time>2010-08-20T12:15:55Z</time>
      </trkpt>
      <trkpt lat="51.0265050" lon="7.7035370">
        <ele>319.7800000</ele>
        <time>2010-08-20T12:15:56Z</time>
      </trkpt>
      <trkpt lat="51.0257910" lon="7.7024090">
        <ele>308.7200000</ele>
        <time>2010-08-20T12:16:06Z</time>
      </trkpt>
      <trkpt lat="51.0257510" lon="7.7022930">
        <ele>308.7200000</ele>
        <time>2010-08-20T12:16:07Z</time>
      </trkpt>
      <trkpt lat="51.0256670" lon="7.7018790">
        <ele>310.1600000</ele>
        <time>2010-08-20T12:16:10Z</time>
      </trkpt>
      <trkpt lat="51.0256050" lon="7.7017730">
        <ele>311.6000000</ele>
        <time>2010-08-20T12:16:11Z</time>
      </trkpt>
      <trkpt lat="51.0255610" lon="7.7016880">
        <ele>312.0900000</ele>
        <time>2010-08-20T12:16:12Z</time>
      </trkpt>
      <trkpt lat="51.0254130" lon="7.7010490">
        <ele>307.2800000</ele>
        <time>2010-08-20T12:16:18Z</time>
      </trkpt>
      <trkpt lat="51.0253900" lon="7.7009220">
        <ele>306.8000000</ele>
        <time>2010-08-20T12:16:19Z</time>
      </trkpt>
      <trkpt lat="51.0251450" lon="7.6999700">
        <ele>300.5500000</ele>
        <time>2010-08-20T12:16:26Z</time>
      </trkpt>
      <trkpt lat="51.0251220" lon="7.6998190">
        <ele>299.5900000</ele>
        <time>2010-08-20T12:16:27Z</time>
      </trkpt>
      <trkpt lat="51.0251070" lon="7.6996610">
        <ele>298.1500000</ele>
        <time>2010-08-20T12:16:28Z</time>
      </trkpt>
      <trkpt lat="51.0250580" lon="7.6976750">
        <ele>293.8200000</ele>
        <time>2010-08-20T12:16:40Z</time>
      </trkpt>
      <trkpt lat="51.0251870" lon="7.6970610">
        <ele>291.9000000</ele>
        <time>2010-08-20T12:16:44Z</time>
      </trkpt>
      <trkpt lat="51.0252430" lon="7.6969170">
        <ele>291.4200000</ele>
        <time>2010-08-20T12:16:45Z</time>
      </trkpt>
      <trkpt lat="51.0260090" lon="7.6957200">
        <ele>282.7700000</ele>
        <time>2010-08-20T12:16:55Z</time>
      </trkpt>
      <trkpt lat="51.0272880" lon="7.6943500">
        <ele>275.5600000</ele>
        <time>2010-08-20T12:17:09Z</time>
      </trkpt>
      <trkpt lat="51.0276260" lon="7.6933390">
        <ele>274.1100000</ele>
        <time>2010-08-20T12:17:16Z</time>
      </trkpt>
      <trkpt lat="51.0276500" lon="7.6931870">
        <ele>273.6300000</ele>
        <time>2010-08-20T12:17:17Z</time>
      </trkpt>
      <trkpt lat="51.0276650" lon="7.6930320">
        <ele>273.1500000</ele>
        <time>2010-08-20T12:17:18Z</time>
      </trkpt>
      <trkpt lat="51.0276680" lon="7.6928760">
        <ele>272.6700000</ele>
        <time>2010-08-20T12:17:19Z</time>
      </trkpt>
      <trkpt lat="51.0276620" lon="7.6927200">
        <ele>271.7100000</ele>
        <time>2010-08-20T12:17:20Z</time>
      </trkpt>
      <trkpt lat="51.0276500" lon="7.6925630">
        <ele>271.2300000</ele>
        <time>2010-08-20T12:17:21Z</time>
      </trkpt>
      <trkpt lat="51.0276330" lon="7.6924050">
        <ele>270.2700000</ele>
        <time>2010-08-20T12:17:22Z</time>
      </trkpt>
      <trkpt lat="51.0276150" lon="7.6922520">
        <ele>269.3100000</ele>
        <time>2010-08-20T12:17:23Z</time>
      </trkpt>
      <trkpt lat="51.0273390" lon="7.6902720">
        <ele>262.5800000</ele>
        <time>2010-08-20T12:17:36Z</time>
      </trkpt>
      <trkpt lat="51.0272700" lon="7.6896530">
        <ele>260.6500000</ele>
        <time>2010-08-20T12:17:40Z</time>
      </trkpt>
      <trkpt lat="51.0272820" lon="7.6894940">
        <ele>260.1700000</ele>
        <time>2010-08-20T12:17:42Z</time>
      </trkpt>
      <trkpt lat="51.0272930" lon="7.6894630">
        <ele>261.1400000</ele>
        <time>2010-08-20T12:17:43Z</time>
      </trkpt>
      <trkpt lat="51.0272860" lon="7.6893430">
        <ele>261.1400000</ele>
        <time>2010-08-20T12:17:44Z</time>
      </trkpt>
      <trkpt lat="51.0272980" lon="7.6892470">
        <ele>260.6500000</ele>
        <time>2010-08-20T12:17:45Z</time>
      </trkpt>
      <trkpt lat="51.0273870" lon="7.6891970">
        <ele>261.1400000</ele>
        <time>2010-08-20T12:17:46Z</time>
      </trkpt>
      <trkpt lat="51.0274030" lon="7.6890920">
        <ele>261.1400000</ele>
        <time>2010-08-20T12:17:47Z</time>
      </trkpt>
      <trkpt lat="51.0274000" lon="7.6889840">
        <ele>261.1400000</ele>
        <time>2010-08-20T12:17:48Z</time>
      </trkpt>
      <trkpt lat="51.0273970" lon="7.6888760">
        <ele>260.1700000</ele>
        <time>2010-08-20T12:17:49Z</time>
      </trkpt>
      <trkpt lat="51.0273990" lon="7.6887630">
        <ele>259.6900000</ele>
        <time>2010-08-20T12:17:50Z</time>
      </trkpt>
      <trkpt lat="51.0274050" lon="7.6886550">
        <ele>259.2100000</ele>
        <time>2010-08-20T12:17:51Z</time>
      </trkpt>
      <trkpt lat="51.0274200" lon="7.6885570">
        <ele>258.7300000</ele>
        <time>2010-08-20T12:17:52Z</time>
      </trkpt>
      <trkpt lat="51.0274450" lon="7.6884680">
        <ele>258.7300000</ele>
        <time>2010-08-20T12:17:53Z</time>
      </trkpt>
      <trkpt lat="51.0274760" lon="7.6883830">
        <ele>257.7700000</ele>
        <time>2010-08-20T12:17:54Z</time>
      </trkpt>
      <trkpt lat="51.0276060" lon="7.6878190">
        <ele>255.3700000</ele>
        <time>2010-08-20T12:18:00Z</time>
      </trkpt>
      <trkpt lat="51.0276300" lon="7.6877370">
        <ele>255.3700000</ele>
        <time>2010-08-20T12:18:01Z</time>
      </trkpt>
      <trkpt lat="51.0276560" lon="7.6876630">
        <ele>254.8900000</ele>
        <time>2010-08-20T12:18:02Z</time>
      </trkpt>
      <trkpt lat="51.0276860" lon="7.6876000">
        <ele>254.8900000</ele>
        <time>2010-08-20T12:18:03Z</time>
      </trkpt>
      <trkpt lat="51.0277160" lon="7.6875470">
        <ele>254.4100000</ele>
        <time>2010-08-20T12:18:04Z</time>
      </trkpt>
      <trkpt lat="51.0277420" lon="7.6875050">
        <ele>253.9300000</ele>
        <time>2010-08-20T12:18:05Z</time>
      </trkpt>
      <trkpt lat="51.0278180" lon="7.6874310">
        <ele>252.9600000</ele>
        <time>2010-08-20T12:18:11Z</time>
      </trkpt>
      <trkpt lat="51.0278420" lon="7.6874310">
        <ele>252.9600000</ele>
        <time>2010-08-20T12:18:12Z</time>
      </trkpt>
      <trkpt lat="51.0278840" lon="7.6874440">
        <ele>252.4800000</ele>
        <time>2010-08-20T12:18:13Z</time>
      </trkpt>
      <trkpt lat="51.0279420" lon="7.6874850">
        <ele>252.4800000</ele>
        <time>2010-08-20T12:18:14Z</time>
      </trkpt>
      <trkpt lat="51.0280150" lon="7.6875570">
        <ele>252.4800000</ele>
        <time>2010-08-20T12:18:15Z</time>
      </trkpt>
      <trkpt lat="51.0280960" lon="7.6876460">
        <ele>252.4800000</ele>
        <time>2010-08-20T12:18:16Z</time>
      </trkpt>
      <trkpt lat="51.0291090" lon="7.6887410">
        <ele>252.9600000</ele>
        <time>2010-08-20T12:18:26Z</time>
      </trkpt>
      <trkpt lat="51.0303930" lon="7.6901090">
        <ele>255.3700000</ele>
        <time>2010-08-20T12:18:39Z</time>
      </trkpt>
      <trkpt lat="51.0321490" lon="7.6916910">
        <ele>261.6200000</ele>
        <time>2010-08-20T12:18:55Z</time>
      </trkpt>
      <trkpt lat="51.0342750" lon="7.6935950">
        <ele>273.1500000</ele>
        <time>2010-08-20T12:19:11Z</time>
      </trkpt>
      <trkpt lat="51.0355280" lon="7.6947250">
        <ele>280.8400000</ele>
        <time>2010-08-20T12:19:19Z</time>
      </trkpt>
      <trkpt lat="51.0377430" lon="7.6966720">
        <ele>289.4900000</ele>
        <time>2010-08-20T12:19:34Z</time>
      </trkpt>
      <trkpt lat="51.0385420" lon="7.6974940">
        <ele>291.9000000</ele>
        <time>2010-08-20T12:19:40Z</time>
      </trkpt>
      <trkpt lat="51.0386570" lon="7.6976720">
        <ele>292.3800000</ele>
        <time>2010-08-20T12:19:41Z</time>
      </trkpt>
      <trkpt lat="51.0392370" lon="7.6990270">
        <ele>294.3000000</ele>
        <time>2010-08-20T12:19:48Z</time>
      </trkpt>
      <trkpt lat="51.0394260" lon="7.6996190">
        <ele>295.2600000</ele>
        <time>2010-08-20T12:19:52Z</time>
      </trkpt>
      <trkpt lat="51.0394680" lon="7.6997130">
        <ele>295.2600000</ele>
        <time>2010-08-20T12:19:53Z</time>
      </trkpt>
      <trkpt lat="51.0395140" lon="7.6997690">
        <ele>295.2600000</ele>
        <time>2010-08-20T12:19:54Z</time>
      </trkpt>
      <trkpt lat="51.0395710" lon="7.6997390">
        <ele>295.2600000</ele>
        <time>2010-08-20T12:19:55Z</time>
      </trkpt>
      <trkpt lat="51.0396350" lon="7.6996840">
        <ele>295.2600000</ele>
        <time>2010-08-20T12:19:56Z</time>
      </trkpt>
      <trkpt lat="51.0397100" lon="7.6996160">
        <ele>295.2600000</ele>
        <time>2010-08-20T12:19:57Z</time>
      </trkpt>
      <trkpt lat="51.0397950" lon="7.6995360">
        <ele>294.7800000</ele>
        <time>2010-08-20T12:19:58Z</time>
      </trkpt>
      <trkpt lat="51.0407230" lon="7.6987830">
        <ele>293.8200000</ele>
        <time>2010-08-20T12:20:06Z</time>
      </trkpt>
      <trkpt lat="51.0413730" lon="7.6985120">
        <ele>294.7800000</ele>
        <time>2010-08-20T12:20:11Z</time>
      </trkpt>
      <trkpt lat="51.0415050" lon="7.6985200">
        <ele>295.7400000</ele>
        <time>2010-08-20T12:20:12Z</time>
      </trkpt>
      <trkpt lat="51.0426460" lon="7.6987200">
        <ele>299.5900000</ele>
        <time>2010-08-20T12:20:20Z</time>
      </trkpt>
      <trkpt lat="51.0427860" lon="7.6986950">
        <ele>300.0700000</ele>
        <time>2010-08-20T12:20:21Z</time>
      </trkpt>
      <trkpt lat="51.0429190" lon="7.6986450">
        <ele>300.0700000</ele>
        <time>2010-08-20T12:20:22Z</time>
      </trkpt>
      <trkpt lat="51.0430440" lon="7.6985740">
        <ele>300.0700000</ele>
        <time>2010-08-20T12:20:23Z</time>
      </trkpt>
      <trkpt lat="51.0431620" lon="7.6984890">
        <ele>300.0700000</ele>
        <time>2010-08-20T12:20:24Z</time>
      </trkpt>
      <trkpt lat="51.0432730" lon="7.6983900">
        <ele>300.5500000</ele>
        <time>2010-08-20T12:20:25Z</time>
      </trkpt>
      <trkpt lat="51.0433800" lon="7.6982790">
        <ele>301.0300000</ele>
        <time>2010-08-20T12:20:26Z</time>
      </trkpt>
      <trkpt lat="51.0434830" lon="7.6981610">
        <ele>301.0300000</ele>
        <time>2010-08-20T12:20:27Z</time>
      </trkpt>
      <trkpt lat="51.0435840" lon="7.6980370">
        <ele>301.0300000</ele>
        <time>2010-08-20T12:20:28Z</time>
      </trkpt>
      <trkpt lat="51.0445910" lon="7.6972100">
        <ele>304.3900000</ele>
        <time>2010-08-20T12:20:37Z</time>
      </trkpt>
      <trkpt lat="51.0459190" lon="7.6961910">
        <ele>312.0900000</ele>
        <time>2010-08-20T12:20:47Z</time>
      </trkpt>
      <trkpt lat="51.0463790" lon="7.6953060">
        <ele>314.9700000</ele>
        <time>2010-08-20T12:20:52Z</time>
      </trkpt>
      <trkpt lat="51.0464350" lon="7.6951130">
        <ele>315.4500000</ele>
        <time>2010-08-20T12:20:53Z</time>
      </trkpt>
      <trkpt lat="51.0464810" lon="7.6949200">
        <ele>315.9300000</ele>
        <time>2010-08-20T12:20:54Z</time>
      </trkpt>
      <trkpt lat="51.0465190" lon="7.6947230">
        <ele>316.4100000</ele>
        <time>2010-08-20T12:20:55Z</time>
      </trkpt>
      <trkpt lat="51.0465480" lon="7.6945170">
        <ele>317.3700000</ele>
        <time>2010-08-20T12:20:56Z</time>
      </trkpt>
      <trkpt lat="51.0465620" lon="7.6942930">
        <ele>318.3300000</ele>
        <time>2010-08-20T12:20:57Z</time>
      </trkpt>
      <trkpt lat="51.0465740" lon="7.6940560">
        <ele>319.3000000</ele>
        <time>2010-08-20T12:20:58Z</time>
      </trkpt>
      <trkpt lat="51.0465830" lon="7.6938040">
        <ele>319.7800000</ele>
        <time>2010-08-20T12:20:59Z</time>
      </trkpt>
      <trkpt lat="51.0466410" lon="7.6915480">
        <ele>328.9100000</ele>
        <time>2010-08-20T12:21:06Z</time>
      </trkpt>
      <trkpt lat="51.0469220" lon="7.6882250">
        <ele>345.7300000</ele>
        <time>2010-08-20T12:21:16Z</time>
      </trkpt>
      <trkpt lat="51.0475910" lon="7.6855880">
        <ele>356.7900000</ele>
        <time>2010-08-20T12:21:24Z</time>
      </trkpt>
      <trkpt lat="51.0478870" lon="7.6844230">
        <ele>361.5900000</ele>
        <time>2010-08-20T12:21:28Z</time>
      </trkpt>
      <trkpt lat="51.0480000" lon="7.6841750">
        <ele>362.5500000</ele>
        <time>2010-08-20T12:21:29Z</time>
      </trkpt>
      <trkpt lat="51.0481240" lon="7.6839500">
        <ele>364.0000000</ele>
        <time>2010-08-20T12:21:30Z</time>
      </trkpt>
      <trkpt lat="51.0482550" lon="7.6837510">
        <ele>364.4800000</ele>
        <time>2010-08-20T12:21:31Z</time>
      </trkpt>
      <trkpt lat="51.0483970" lon="7.6835800">
        <ele>365.4400000</ele>
        <time>2010-08-20T12:21:32Z</time>
      </trkpt>
      <trkpt lat="51.0485530" lon="7.6834240">
        <ele>366.4000000</ele>
        <time>2010-08-20T12:21:33Z</time>
      </trkpt>
      <trkpt lat="51.0487310" lon="7.6832860">
        <ele>366.8800000</ele>
        <time>2010-08-20T12:21:34Z</time>
      </trkpt>
      <trkpt lat="51.0489240" lon="7.6831620">
        <ele>367.3600000</ele>
        <time>2010-08-20T12:21:35Z</time>
      </trkpt>
      <trkpt lat="51.0491250" lon="7.6830420">
        <ele>367.3600000</ele>
        <time>2010-08-20T12:21:36Z</time>
      </trkpt>
      <trkpt lat="51.0505380" lon="7.6821690">
        <ele>361.5900000</ele>
        <time>2010-08-20T12:21:44Z</time>
      </trkpt>
      <trkpt lat="51.0506780" lon="7.6821340">
        <ele>361.1100000</ele>
        <time>2010-08-20T12:21:45Z</time>
      </trkpt>
      <trkpt lat="51.0508300" lon="7.6821370">
        <ele>360.1500000</ele>
        <time>2010-08-20T12:21:46Z</time>
      </trkpt>
      <trkpt lat="51.0509940" lon="7.6821830">
        <ele>358.2300000</ele>
        <time>2010-08-20T12:21:47Z</time>
      </trkpt>
      <trkpt lat="51.0511500" lon="7.6822890">
        <ele>356.3100000</ele>
        <time>2010-08-20T12:21:48Z</time>
      </trkpt>
      <trkpt lat="51.0513030" lon="7.6824160">
        <ele>354.8600000</ele>
        <time>2010-08-20T12:21:49Z</time>
      </trkpt>
      <trkpt lat="51.0514540" lon="7.6825720">
        <ele>351.9800000</ele>
        <time>2010-08-20T12:21:50Z</time>
      </trkpt>
      <trkpt lat="51.0516100" lon="7.6827220">
        <ele>350.0600000</ele>
        <time>2010-08-20T12:21:51Z</time>
      </trkpt>
      <trkpt lat="51.0525700" lon="7.6834350">
        <ele>343.3300000</ele>
        <time>2010-08-20T12:21:57Z</time>
      </trkpt>
      <trkpt lat="51.0527220" lon="7.6834420">
        <ele>343.8100000</ele>
        <time>2010-08-20T12:21:58Z</time>
      </trkpt>
      <trkpt lat="51.0528750" lon="7.6834260">
        <ele>344.2900000</ele>
        <time>2010-08-20T12:21:59Z</time>
      </trkpt>
      <trkpt lat="51.0530380" lon="7.6834010">
        <ele>343.3300000</ele>
        <time>2010-08-20T12:22:00Z</time>
      </trkpt>
      <trkpt lat="51.0532080" lon="7.6833400">
        <ele>342.3700000</ele>
        <time>2010-08-20T12:22:01Z</time>
      </trkpt>
      <trkpt lat="51.0533870" lon="7.6832350">
        <ele>341.4100000</ele>
        <time>2010-08-20T12:22:02Z</time>
      </trkpt>
      <trkpt lat="51.0535510" lon="7.6831180">
        <ele>340.9200000</ele>
        <time>2010-08-20T12:22:03Z</time>
      </trkpt>
      <trkpt lat="51.0537130" lon="7.6829710">
        <ele>340.4400000</ele>
        <time>2010-08-20T12:22:04Z</time>
      </trkpt>
      <trkpt lat="51.0538790" lon="7.6828190">
        <ele>339.4800000</ele>
        <time>2010-08-20T12:22:05Z</time>
      </trkpt>
      <trkpt lat="51.0545250" lon="7.6823700">
        <ele>338.0400000</ele>
        <time>2010-08-20T12:22:09Z</time>
      </trkpt>
      <trkpt lat="51.0546980" lon="7.6823190">
        <ele>338.0400000</ele>
        <time>2010-08-20T12:22:10Z</time>
      </trkpt>
      <trkpt lat="51.0548730" lon="7.6822980">
        <ele>337.5600000</ele>
        <time>2010-08-20T12:22:11Z</time>
      </trkpt>
      <trkpt lat="51.0550480" lon="7.6823070">
        <ele>337.5600000</ele>
        <time>2010-08-20T12:22:12Z</time>
      </trkpt>
      <trkpt lat="51.0552240" lon="7.6823400">
        <ele>338.0400000</ele>
        <time>2010-08-20T12:22:13Z</time>
      </trkpt>
      <trkpt lat="51.0553980" lon="7.6823980">
        <ele>339.0000000</ele>
        <time>2010-08-20T12:22:14Z</time>
      </trkpt>
      <trkpt lat="51.0555790" lon="7.6824930">
        <ele>339.9600000</ele>
        <time>2010-08-20T12:22:15Z</time>
      </trkpt>
      <trkpt lat="51.0557690" lon="7.6826290">
        <ele>339.0000000</ele>
        <time>2010-08-20T12:22:16Z</time>
      </trkpt>
      <trkpt lat="51.0559610" lon="7.6827980">
        <ele>338.5200000</ele>
        <time>2010-08-20T12:22:17Z</time>
      </trkpt>
      <trkpt lat="51.0561550" lon="7.6830030">
        <ele>338.5200000</ele>
        <time>2010-08-20T12:22:18Z</time>
      </trkpt>
      <trkpt lat="51.0563540" lon="7.6832300">
        <ele>338.5200000</ele>
        <time>2010-08-20T12:22:19Z</time>
      </trkpt>
      <trkpt lat="51.0578040" lon="7.6851820">
        <ele>344.7700000</ele>
        <time>2010-08-20T12:22:27Z</time>
      </trkpt>
      <trkpt lat="51.0581690" lon="7.6854970">
        <ele>346.6900000</ele>
        <time>2010-08-20T12:22:29Z</time>
      </trkpt>
      <trkpt lat="51.0583600" lon="7.6856050">
        <ele>347.6500000</ele>
        <time>2010-08-20T12:22:30Z</time>
      </trkpt>
      <trkpt lat="51.0585590" lon="7.6856900">
        <ele>348.1300000</ele>
        <time>2010-08-20T12:22:31Z</time>
      </trkpt>
      <trkpt lat="51.0587570" lon="7.6857450">
        <ele>349.1000000</ele>
        <time>2010-08-20T12:22:32Z</time>
      </trkpt>
      <trkpt lat="51.0589500" lon="7.6857710">
        <ele>350.0600000</ele>
        <time>2010-08-20T12:22:33Z</time>
      </trkpt>
      <trkpt lat="51.0591350" lon="7.6857720">
        <ele>350.5400000</ele>
        <time>2010-08-20T12:22:34Z</time>
      </trkpt>
      <trkpt lat="51.0593120" lon="7.6857500">
        <ele>351.5000000</ele>
        <time>2010-08-20T12:22:35Z</time>
      </trkpt>
      <trkpt lat="51.0594890" lon="7.6857030">
        <ele>351.9800000</ele>
        <time>2010-08-20T12:22:36Z</time>
      </trkpt>
      <trkpt lat="51.0596670" lon="7.6856330">
        <ele>353.4200000</ele>
        <time>2010-08-20T12:22:37Z</time>
      </trkpt>
      <trkpt lat="51.0598390" lon="7.6855330">
        <ele>354.3800000</ele>
        <time>2010-08-20T12:22:38Z</time>
      </trkpt>
      <trkpt lat="51.0600150" lon="7.6854090">
        <ele>354.8600000</ele>
        <time>2010-08-20T12:22:39Z</time>
      </trkpt>
      <trkpt lat="51.0601920" lon="7.6852650">
        <ele>355.8300000</ele>
        <time>2010-08-20T12:22:40Z</time>
      </trkpt>
      <trkpt lat="51.0613980" lon="7.6843360">
        <ele>361.1100000</ele>
        <time>2010-08-20T12:22:48Z</time>
      </trkpt>
      <trkpt lat="51.0616590" lon="7.6842480">
        <ele>363.0400000</ele>
        <time>2010-08-20T12:22:50Z</time>
      </trkpt>
      <trkpt lat="51.0617810" lon="7.6842360">
        <ele>364.0000000</ele>
        <time>2010-08-20T12:22:51Z</time>
      </trkpt>
      <trkpt lat="51.0618960" lon="7.6842430">
        <ele>364.4800000</ele>
        <time>2010-08-20T12:22:52Z</time>
      </trkpt>
      <trkpt lat="51.0620010" lon="7.6842620">
        <ele>364.9600000</ele>
        <time>2010-08-20T12:22:53Z</time>
      </trkpt>
      <trkpt lat="51.0620920" lon="7.6842890">
        <ele>365.4400000</ele>
        <time>2010-08-20T12:22:54Z</time>
      </trkpt>
      <trkpt lat="51.0621710" lon="7.6842990">
        <ele>365.9200000</ele>
        <time>2010-08-20T12:22:55Z</time>
      </trkpt>
      <trkpt lat="51.0622280" lon="7.6842620">
        <ele>366.4000000</ele>
        <time>2010-08-20T12:22:56Z</time>
      </trkpt>
      <trkpt lat="51.0622820" lon="7.6841660">
        <ele>366.8800000</ele>
        <time>2010-08-20T12:22:57Z</time>
      </trkpt>
      <trkpt lat="51.0623410" lon="7.6840150">
        <ele>367.3600000</ele>
        <time>2010-08-20T12:22:58Z</time>
      </trkpt>
      <trkpt lat="51.0624100" lon="7.6838400">
        <ele>367.8400000</ele>
        <time>2010-08-20T12:22:59Z</time>
      </trkpt>
      <trkpt lat="51.0627510" lon="7.6828220">
        <ele>372.1700000</ele>
        <time>2010-08-20T12:23:04Z</time>
      </trkpt>
      <trkpt lat="51.0627880" lon="7.6826110">
        <ele>373.1300000</ele>
        <time>2010-08-20T12:23:05Z</time>
      </trkpt>
      <trkpt lat="51.0628130" lon="7.6823870">
        <ele>374.0900000</ele>
        <time>2010-08-20T12:23:06Z</time>
      </trkpt>
      <trkpt lat="51.0628250" lon="7.6821450">
        <ele>374.5700000</ele>
        <time>2010-08-20T12:23:07Z</time>
      </trkpt>
      <trkpt lat="51.0628400" lon="7.6818820">
        <ele>375.5300000</ele>
        <time>2010-08-20T12:23:08Z</time>
      </trkpt>
      <trkpt lat="51.0629980" lon="7.6807930">
        <ele>380.8200000</ele>
        <time>2010-08-20T12:23:12Z</time>
      </trkpt>
      <trkpt lat="51.0630700" lon="7.6805320">
        <ele>382.2600000</ele>
        <time>2010-08-20T12:23:13Z</time>
      </trkpt>
      <trkpt lat="51.0635020" lon="7.6789930">
        <ele>393.8000000</ele>
        <time>2010-08-20T12:23:19Z</time>
      </trkpt>
      <trkpt lat="51.0635380" lon="7.6787040">
        <ele>395.7200000</ele>
        <time>2010-08-20T12:23:20Z</time>
      </trkpt>
      <trkpt lat="51.0635550" lon="7.6784060">
        <ele>398.1200000</ele>
        <time>2010-08-20T12:23:21Z</time>
      </trkpt>
      <trkpt lat="51.0635540" lon="7.6781030">
        <ele>400.5300000</ele>
        <time>2010-08-20T12:23:22Z</time>
      </trkpt>
      <trkpt lat="51.0635370" lon="7.6778010">
        <ele>402.4500000</ele>
        <time>2010-08-20T12:23:23Z</time>
      </trkpt>
      <trkpt lat="51.0635060" lon="7.6775040">
        <ele>404.3700000</ele>
        <time>2010-08-20T12:23:24Z</time>
      </trkpt>
      <trkpt lat="51.0633220" lon="7.6761160">
        <ele>414.9500000</ele>
        <time>2010-08-20T12:23:30Z</time>
      </trkpt>
      <trkpt lat="51.0630670" lon="7.6740680">
        <ele>415.4300000</ele>
        <time>2010-08-20T12:23:39Z</time>
      </trkpt>
      <trkpt lat="51.0629450" lon="7.6717150">
        <ele>406.7700000</ele>
        <time>2010-08-20T12:23:48Z</time>
      </trkpt>
      <trkpt lat="51.0629070" lon="7.6714690">
        <ele>404.8500000</ele>
        <time>2010-08-20T12:23:49Z</time>
      </trkpt>
      <trkpt lat="51.0628440" lon="7.6712040">
        <ele>402.9300000</ele>
        <time>2010-08-20T12:23:50Z</time>
      </trkpt>
      <trkpt lat="51.0627390" lon="7.6699650">
        <ele>395.2400000</ele>
        <time>2010-08-20T12:23:55Z</time>
      </trkpt>
      <trkpt lat="51.0627370" lon="7.6693720">
        <ele>393.3200000</ele>
        <time>2010-08-20T12:23:58Z</time>
      </trkpt>
      <trkpt lat="51.0627100" lon="7.6691990">
        <ele>392.3600000</ele>
        <time>2010-08-20T12:23:59Z</time>
      </trkpt>
      <trkpt lat="51.0626610" lon="7.6690500">
        <ele>391.3900000</ele>
        <time>2010-08-20T12:24:00Z</time>
      </trkpt>
      <trkpt lat="51.0625990" lon="7.6689190">
        <ele>389.9500000</ele>
        <time>2010-08-20T12:24:01Z</time>
      </trkpt>
      <trkpt lat="51.0625290" lon="7.6687970">
        <ele>388.9900000</ele>
        <time>2010-08-20T12:24:02Z</time>
      </trkpt>
      <trkpt lat="51.0624610" lon="7.6686810">
        <ele>387.5500000</ele>
        <time>2010-08-20T12:24:03Z</time>
      </trkpt>
      <trkpt lat="51.0624060" lon="7.6685620">
        <ele>386.5900000</ele>
        <time>2010-08-20T12:24:04Z</time>
      </trkpt>
      <trkpt lat="51.0623680" lon="7.6684300">
        <ele>385.1500000</ele>
        <time>2010-08-20T12:24:05Z</time>
      </trkpt>
      <trkpt lat="51.0623490" lon="7.6682880">
        <ele>384.1800000</ele>
        <time>2010-08-20T12:24:06Z</time>
      </trkpt>
      <trkpt lat="51.0623640" lon="7.6681390">
        <ele>382.7400000</ele>
        <time>2010-08-20T12:24:07Z</time>
      </trkpt>
      <trkpt lat="51.0623980" lon="7.6679790">
        <ele>381.3000000</ele>
        <time>2010-08-20T12:24:08Z</time>
      </trkpt>
      <trkpt lat="51.0624360" lon="7.6678060">
        <ele>379.8600000</ele>
        <time>2010-08-20T12:24:09Z</time>
      </trkpt>
      <trkpt lat="51.0625650" lon="7.6669390">
        <ele>373.6100000</ele>
        <time>2010-08-20T12:24:14Z</time>
      </trkpt>
      <trkpt lat="51.0625620" lon="7.6667780">
        <ele>373.1300000</ele>
        <time>2010-08-20T12:24:15Z</time>
      </trkpt>
      <trkpt lat="51.0625490" lon="7.6666240">
        <ele>372.6500000</ele>
        <time>2010-08-20T12:24:16Z</time>
      </trkpt>
      <trkpt lat="51.0625150" lon="7.6663360">
        <ele>370.7300000</ele>
        <time>2010-08-20T12:24:18Z</time>
      </trkpt>
      <trkpt lat="51.0624680" lon="7.6662420">
        <ele>369.7600000</ele>
        <time>2010-08-20T12:24:19Z</time>
      </trkpt>
      <trkpt lat="51.0624150" lon="7.6660860">
        <ele>369.7600000</ele>
        <time>2010-08-20T12:24:21Z</time>
      </trkpt>
      <trkpt lat="51.0624120" lon="7.6659920">
        <ele>369.7600000</ele>
        <time>2010-08-20T12:24:22Z</time>
      </trkpt>
      <trkpt lat="51.0624210" lon="7.6657550">
        <ele>369.2800000</ele>
        <time>2010-08-20T12:24:24Z</time>
      </trkpt>
      <trkpt lat="51.0624030" lon="7.6656170">
        <ele>368.8000000</ele>
        <time>2010-08-20T12:24:25Z</time>
      </trkpt>
      <trkpt lat="51.0623710" lon="7.6654670">
        <ele>367.8400000</ele>
        <time>2010-08-20T12:24:26Z</time>
      </trkpt>
      <trkpt lat="51.0623220" lon="7.6653110">
        <ele>367.8400000</ele>
        <time>2010-08-20T12:24:27Z</time>
      </trkpt>
      <trkpt lat="51.0622700" lon="7.6651570">
        <ele>367.3600000</ele>
        <time>2010-08-20T12:24:28Z</time>
      </trkpt>
      <trkpt lat="51.0620810" lon="7.6645820">
        <ele>366.8800000</ele>
        <time>2010-08-20T12:24:32Z</time>
      </trkpt>
      <trkpt lat="51.0620210" lon="7.6644710">
        <ele>366.8800000</ele>
        <time>2010-08-20T12:24:33Z</time>
      </trkpt>
      <trkpt lat="51.0619280" lon="7.6644200">
        <ele>366.4000000</ele>
        <time>2010-08-20T12:24:34Z</time>
      </trkpt>
      <trkpt lat="51.0618300" lon="7.6643820">
        <ele>365.9200000</ele>
        <time>2010-08-20T12:24:35Z</time>
      </trkpt>
      <trkpt lat="51.0617300" lon="7.6643510">
        <ele>365.4400000</ele>
        <time>2010-08-20T12:24:36Z</time>
      </trkpt>
      <trkpt lat="51.0616310" lon="7.6642960">
        <ele>365.4400000</ele>
        <time>2010-08-20T12:24:37Z</time>
      </trkpt>
      <trkpt lat="51.0615340" lon="7.6642050">
        <ele>365.4400000</ele>
        <time>2010-08-20T12:24:38Z</time>
      </trkpt>
      <trkpt lat="51.0614400" lon="7.6640850">
        <ele>364.9600000</ele>
        <time>2010-08-20T12:24:39Z</time>
      </trkpt>
      <trkpt lat="51.0613510" lon="7.6639570">
        <ele>364.4800000</ele>
        <time>2010-08-20T12:24:40Z</time>
      </trkpt>
      <trkpt lat="51.0611140" lon="7.6635940">
        <ele>362.5500000</ele>
        <time>2010-08-20T12:24:43Z</time>
      </trkpt>
      <trkpt lat="51.0610800" lon="7.6634580">
        <ele>362.0700000</ele>
        <time>2010-08-20T12:24:44Z</time>
      </trkpt>
      <trkpt lat="51.0610630" lon="7.6633140">
        <ele>362.0700000</ele>
        <time>2010-08-20T12:24:45Z</time>
      </trkpt>
      <trkpt lat="51.0610680" lon="7.6631740">
        <ele>361.5900000</ele>
        <time>2010-08-20T12:24:46Z</time>
      </trkpt>
      <trkpt lat="51.0611070" lon="7.6630350">
        <ele>360.6300000</ele>
        <time>2010-08-20T12:24:47Z</time>
      </trkpt>
      <trkpt lat="51.0611750" lon="7.6629050">
        <ele>360.6300000</ele>
        <time>2010-08-20T12:24:48Z</time>
      </trkpt>
      <trkpt lat="51.0612530" lon="7.6627470">
        <ele>360.6300000</ele>
        <time>2010-08-20T12:24:49Z</time>
      </trkpt>
      <trkpt lat="51.0619030" lon="7.6613650">
        <ele>354.8600000</ele>
        <time>2010-08-20T12:24:56Z</time>
      </trkpt>
      <trkpt lat="51.0626370" lon="7.6602400">
        <ele>348.6200000</ele>
        <time>2010-08-20T12:25:03Z</time>
      </trkpt>
      <trkpt lat="51.0627070" lon="7.6600750">
        <ele>347.1700000</ele>
        <time>2010-08-20T12:25:04Z</time>
      </trkpt>
      <trkpt lat="51.0627540" lon="7.6598980">
        <ele>345.2500000</ele>
        <time>2010-08-20T12:25:05Z</time>
      </trkpt>
      <trkpt lat="51.0627280" lon="7.6596690">
        <ele>342.8500000</ele>
        <time>2010-08-20T12:25:06Z</time>
      </trkpt>
      <trkpt lat="51.0627100" lon="7.6594370">
        <ele>340.9200000</ele>
        <time>2010-08-20T12:25:07Z</time>
      </trkpt>
      <trkpt lat="51.0626690" lon="7.6592120">
        <ele>338.0400000</ele>
        <time>2010-08-20T12:25:08Z</time>
      </trkpt>
      <trkpt lat="51.0626220" lon="7.6589920">
        <ele>335.6400000</ele>
        <time>2010-08-20T12:25:09Z</time>
      </trkpt>
      <trkpt lat="51.0625640" lon="7.6587790">
        <ele>333.2300000</ele>
        <time>2010-08-20T12:25:10Z</time>
      </trkpt>
      <trkpt lat="51.0624840" lon="7.6585970">
        <ele>331.3100000</ele>
        <time>2010-08-20T12:25:11Z</time>
      </trkpt>
      <trkpt lat="51.0624020" lon="7.6584410">
        <ele>330.8300000</ele>
        <time>2010-08-20T12:25:12Z</time>
      </trkpt>
      <trkpt lat="51.0622920" lon="7.6583230">
        <ele>329.8700000</ele>
        <time>2010-08-20T12:25:13Z</time>
      </trkpt>
      <trkpt lat="51.0621860" lon="7.6582240">
        <ele>329.8700000</ele>
        <time>2010-08-20T12:25:14Z</time>
      </trkpt>
      <trkpt lat="51.0620520" lon="7.6582400">
        <ele>329.3900000</ele>
        <time>2010-08-20T12:25:15Z</time>
      </trkpt>
      <trkpt lat="51.0619470" lon="7.6582270">
        <ele>327.9500000</ele>
        <time>2010-08-20T12:25:16Z</time>
      </trkpt>
      <trkpt lat="51.0618290" lon="7.6582550">
        <ele>327.4700000</ele>
        <time>2010-08-20T12:25:17Z</time>
      </trkpt>
      <trkpt lat="51.0617250" lon="7.6582620">
        <ele>327.9500000</ele>
        <time>2010-08-20T12:25:18Z</time>
      </trkpt>
      <trkpt lat="51.0616460" lon="7.6582280">
        <ele>327.9500000</ele>
        <time>2010-08-20T12:25:19Z</time>
      </trkpt>
      <trkpt lat="51.0615890" lon="7.6581970">
        <ele>327.9500000</ele>
        <time>2010-08-20T12:25:20Z</time>
      </trkpt>
      <trkpt lat="51.0615400" lon="7.6580870">
        <ele>327.9500000</ele>
        <time>2010-08-20T12:25:21Z</time>
      </trkpt>
      <trkpt lat="51.0616030" lon="7.6580450">
        <ele>326.5000000</ele>
        <time>2010-08-20T12:25:22Z</time>
      </trkpt>
      <trkpt lat="51.0616920" lon="7.6577770">
        <ele>324.5800000</ele>
        <time>2010-08-20T12:25:24Z</time>
      </trkpt>
      <trkpt lat="51.0617710" lon="7.6576630">
        <ele>322.6600000</ele>
        <time>2010-08-20T12:25:25Z</time>
      </trkpt>
      <trkpt lat="51.0618650" lon="7.6575540">
        <ele>319.7800000</ele>
        <time>2010-08-20T12:25:26Z</time>
      </trkpt>
      <trkpt lat="51.0619700" lon="7.6574060">
        <ele>316.8900000</ele>
        <time>2010-08-20T12:25:27Z</time>
      </trkpt>
      <trkpt lat="51.0621330" lon="7.6570210">
        <ele>313.5300000</ele>
        <time>2010-08-20T12:25:29Z</time>
      </trkpt>
      <trkpt lat="51.0621920" lon="7.6567970">
        <ele>314.0100000</ele>
        <time>2010-08-20T12:25:30Z</time>
      </trkpt>
      <trkpt lat="51.0622300" lon="7.6566020">
        <ele>312.5700000</ele>
        <time>2010-08-20T12:25:31Z</time>
      </trkpt>
      <trkpt lat="51.0622250" lon="7.6563540">
        <ele>310.1600000</ele>
        <time>2010-08-20T12:25:32Z</time>
      </trkpt>
      <trkpt lat="51.0622050" lon="7.6561300">
        <ele>308.2400000</ele>
        <time>2010-08-20T12:25:33Z</time>
      </trkpt>
      <trkpt lat="51.0621760" lon="7.6559170">
        <ele>306.8000000</ele>
        <time>2010-08-20T12:25:34Z</time>
      </trkpt>
      <trkpt lat="51.0620930" lon="7.6557560">
        <ele>304.8800000</ele>
        <time>2010-08-20T12:25:35Z</time>
      </trkpt>
      <trkpt lat="51.0620010" lon="7.6556430">
        <ele>303.9100000</ele>
        <time>2010-08-20T12:25:36Z</time>
      </trkpt>
      <trkpt lat="51.0618980" lon="7.6555110">
        <ele>302.4700000</ele>
        <time>2010-08-20T12:25:37Z</time>
      </trkpt>
      <trkpt lat="51.0617650" lon="7.6554000">
        <ele>302.9500000</ele>
        <time>2010-08-20T12:25:38Z</time>
      </trkpt>
      <trkpt lat="51.0616470" lon="7.6552880">
        <ele>301.5100000</ele>
        <time>2010-08-20T12:25:39Z</time>
      </trkpt>
      <trkpt lat="51.0615330" lon="7.6551830">
        <ele>300.0700000</ele>
        <time>2010-08-20T12:25:40Z</time>
      </trkpt>
      <trkpt lat="51.0602750" lon="7.6540950">
        <ele>289.9700000</ele>
        <time>2010-08-20T12:25:51Z</time>
      </trkpt>
      <trkpt lat="51.0600930" lon="7.6539180">
        <ele>290.4600000</ele>
        <time>2010-08-20T12:25:55Z</time>
      </trkpt>
      <trkpt lat="51.0600970" lon="7.6538620">
        <ele>291.4200000</ele>
        <time>2010-08-20T12:25:56Z</time>
      </trkpt>
      <trkpt lat="51.0601080" lon="7.6538190">
        <ele>293.8200000</ele>
        <time>2010-08-20T12:25:57Z</time>
      </trkpt>
      <trkpt lat="51.0601320" lon="7.6537810">
        <ele>296.2200000</ele>
        <time>2010-08-20T12:25:58Z</time>
      </trkpt>
      <trkpt lat="51.0601130" lon="7.6537460">
        <ele>298.1500000</ele>
        <time>2010-08-20T12:25:59Z</time>
      </trkpt>
      <trkpt lat="51.0601150" lon="7.6537160">
        <ele>299.1100000</ele>
        <time>2010-08-20T12:26:00Z</time>
      </trkpt>
      <trkpt lat="51.0600980" lon="7.6536770">
        <ele>303.4300000</ele>
        <time>2010-08-20T12:26:01Z</time>
      </trkpt>
      <trkpt lat="51.0600600" lon="7.6535970">
        <ele>310.6400000</ele>
        <time>2010-08-20T12:26:04Z</time>
      </trkpt>
      <trkpt lat="51.0600380" lon="7.6535400">
        <ele>312.5700000</ele>
        <time>2010-08-20T12:26:05Z</time>
      </trkpt>
      <trkpt lat="51.0599790" lon="7.6534860">
        <ele>312.5700000</ele>
        <time>2010-08-20T12:26:06Z</time>
      </trkpt>
      <trkpt lat="51.0597060" lon="7.6532240">
        <ele>307.7600000</ele>
        <time>2010-08-20T12:26:09Z</time>
      </trkpt>
      <trkpt lat="51.0595150" lon="7.6531530">
        <ele>305.3600000</ele>
        <time>2010-08-20T12:26:10Z</time>
      </trkpt>
      <trkpt lat="51.0583890" lon="7.6527800">
        <ele>297.6700000</ele>
        <time>2010-08-20T12:26:16Z</time>
      </trkpt>
      <trkpt lat="51.0569280" lon="7.6520690">
        <ele>292.8600000</ele>
        <time>2010-08-20T12:26:24Z</time>
      </trkpt>
      <trkpt lat="51.0566340" lon="7.6517260">
        <ele>290.9400000</ele>
        <time>2010-08-20T12:26:26Z</time>
      </trkpt>
      <trkpt lat="51.0565070" lon="7.6515320">
        <ele>290.4600000</ele>
        <time>2010-08-20T12:26:27Z</time>
      </trkpt>
      <trkpt lat="51.0563960" lon="7.6513340">
        <ele>289.9700000</ele>
        <time>2010-08-20T12:26:28Z</time>
      </trkpt>
      <trkpt lat="51.0563030" lon="7.6511260">
        <ele>289.4900000</ele>
        <time>2010-08-20T12:26:29Z</time>
      </trkpt>
      <trkpt lat="51.0562300" lon="7.6508970">
        <ele>289.0100000</ele>
        <time>2010-08-20T12:26:30Z</time>
      </trkpt>
      <trkpt lat="51.0561750" lon="7.6506410">
        <ele>289.0100000</ele>
        <time>2010-08-20T12:26:31Z</time>
      </trkpt>
      <trkpt lat="51.0561390" lon="7.6503570">
        <ele>289.0100000</ele>
        <time>2010-08-20T12:26:32Z</time>
      </trkpt>
      <trkpt lat="51.0561400" lon="7.6499920">
        <ele>288.5300000</ele>
        <time>2010-08-20T12:26:33Z</time>
      </trkpt>
      <trkpt lat="51.0561540" lon="7.6496450">
        <ele>288.5300000</ele>
        <time>2010-08-20T12:26:34Z</time>
      </trkpt>
      <trkpt lat="51.0561800" lon="7.6492960">
        <ele>288.5300000</ele>
        <time>2010-08-20T12:26:35Z</time>
      </trkpt>
      <trkpt lat="51.0563430" lon="7.6469610">
        <ele>288.5300000</ele>
        <time>2010-08-20T12:26:43Z</time>
      </trkpt>
      <trkpt lat="51.0564220" lon="7.6447420">
        <ele>289.9700000</ele>
        <time>2010-08-20T12:26:53Z</time>
      </trkpt>
      <trkpt lat="51.0563980" lon="7.6445180">
        <ele>290.4600000</ele>
        <time>2010-08-20T12:26:54Z</time>
      </trkpt>
      <trkpt lat="51.0563570" lon="7.6442970">
        <ele>290.4600000</ele>
        <time>2010-08-20T12:26:55Z</time>
      </trkpt>
      <trkpt lat="51.0563020" lon="7.6440800">
        <ele>290.4600000</ele>
        <time>2010-08-20T12:26:56Z</time>
      </trkpt>
      <trkpt lat="51.0562350" lon="7.6438680">
        <ele>290.4600000</ele>
        <time>2010-08-20T12:26:57Z</time>
      </trkpt>
      <trkpt lat="51.0561610" lon="7.6436580">
        <ele>290.4600000</ele>
        <time>2010-08-20T12:26:58Z</time>
      </trkpt>
      <trkpt lat="51.0556370" lon="7.6423790">
        <ele>290.4600000</ele>
        <time>2010-08-20T12:27:04Z</time>
      </trkpt>
      <trkpt lat="51.0555170" lon="7.6421920">
        <ele>289.9700000</ele>
        <time>2010-08-20T12:27:05Z</time>
      </trkpt>
      <trkpt lat="51.0553750" lon="7.6420370">
        <ele>290.4600000</ele>
        <time>2010-08-20T12:27:06Z</time>
      </trkpt>
      <trkpt lat="51.0552220" lon="7.6418970">
        <ele>290.9400000</ele>
        <time>2010-08-20T12:27:07Z</time>
      </trkpt>
      <trkpt lat="51.0550640" lon="7.6417660">
        <ele>290.9400000</ele>
        <time>2010-08-20T12:27:08Z</time>
      </trkpt>
      <trkpt lat="51.0540350" lon="7.6409060">
        <ele>291.9000000</ele>
        <time>2010-08-20T12:27:15Z</time>
      </trkpt>
      <trkpt lat="51.0539390" lon="7.6407190">
        <ele>291.9000000</ele>
        <time>2010-08-20T12:27:16Z</time>
      </trkpt>
      <trkpt lat="51.0538700" lon="7.6404780">
        <ele>291.9000000</ele>
        <time>2010-08-20T12:27:17Z</time>
      </trkpt>
      <trkpt lat="51.0538120" lon="7.6402160">
        <ele>292.3800000</ele>
        <time>2010-08-20T12:27:18Z</time>
      </trkpt>
      <trkpt lat="51.0537580" lon="7.6399360">
        <ele>292.3800000</ele>
        <time>2010-08-20T12:27:19Z</time>
      </trkpt>
      <trkpt lat="51.0535740" lon="7.6388830">
        <ele>292.3800000</ele>
        <time>2010-08-20T12:27:23Z</time>
      </trkpt>
      <trkpt lat="51.0535650" lon="7.6386500">
        <ele>292.3800000</ele>
        <time>2010-08-20T12:27:24Z</time>
      </trkpt>
      <trkpt lat="51.0535920" lon="7.6384170">
        <ele>292.8600000</ele>
        <time>2010-08-20T12:27:25Z</time>
      </trkpt>
      <trkpt lat="51.0536630" lon="7.6382160">
        <ele>292.8600000</ele>
        <time>2010-08-20T12:27:26Z</time>
      </trkpt>
      <trkpt lat="51.0538070" lon="7.6380810">
        <ele>293.3400000</ele>
        <time>2010-08-20T12:27:27Z</time>
      </trkpt>
      <trkpt lat="51.0539660" lon="7.6379590">
        <ele>293.8200000</ele>
        <time>2010-08-20T12:27:28Z</time>
      </trkpt>
      <trkpt lat="51.0541240" lon="7.6378540">
        <ele>293.8200000</ele>
        <time>2010-08-20T12:27:29Z</time>
      </trkpt>
      <trkpt lat="51.0542810" lon="7.6377500">
        <ele>293.8200000</ele>
        <time>2010-08-20T12:27:30Z</time>
      </trkpt>
      <trkpt lat="51.0545640" lon="7.6375030">
        <ele>292.3800000</ele>
        <time>2010-08-20T12:27:32Z</time>
      </trkpt>
      <trkpt lat="51.0546820" lon="7.6373480">
        <ele>292.3800000</ele>
        <time>2010-08-20T12:27:33Z</time>
      </trkpt>
      <trkpt lat="51.0547870" lon="7.6371620">
        <ele>292.3800000</ele>
        <time>2010-08-20T12:27:34Z</time>
      </trkpt>
      <trkpt lat="51.0548750" lon="7.6369410">
        <ele>291.9000000</ele>
        <time>2010-08-20T12:27:35Z</time>
      </trkpt>
      <trkpt lat="51.0549490" lon="7.6366920">
        <ele>291.4200000</ele>
        <time>2010-08-20T12:27:36Z</time>
      </trkpt>
      <trkpt lat="51.0550080" lon="7.6364240">
        <ele>291.4200000</ele>
        <time>2010-08-20T12:27:37Z</time>
      </trkpt>
      <trkpt lat="51.0550450" lon="7.6361500">
        <ele>291.9000000</ele>
        <time>2010-08-20T12:27:38Z</time>
      </trkpt>
      <trkpt lat="51.0550670" lon="7.6358850">
        <ele>291.9000000</ele>
        <time>2010-08-20T12:27:39Z</time>
      </trkpt>
      <trkpt lat="51.0553000" lon="7.6337990">
        <ele>295.7400000</ele>
        <time>2010-08-20T12:27:47Z</time>
      </trkpt>
      <trkpt lat="51.0554730" lon="7.6308970">
        <ele>291.4200000</ele>
        <time>2010-08-20T12:27:56Z</time>
      </trkpt>
      <trkpt lat="51.0552580" lon="7.6296220">
        <ele>287.5700000</ele>
        <time>2010-08-20T12:28:00Z</time>
      </trkpt>
      <trkpt lat="51.0551620" lon="7.6293330">
        <ele>287.0900000</ele>
        <time>2010-08-20T12:28:01Z</time>
      </trkpt>
      <trkpt lat="51.0550520" lon="7.6290620">
        <ele>286.6100000</ele>
        <time>2010-08-20T12:28:02Z</time>
      </trkpt>
      <trkpt lat="51.0549300" lon="7.6288140">
        <ele>286.1300000</ele>
        <time>2010-08-20T12:28:03Z</time>
      </trkpt>
      <trkpt lat="51.0548010" lon="7.6285890">
        <ele>285.6500000</ele>
        <time>2010-08-20T12:28:04Z</time>
      </trkpt>
      <trkpt lat="51.0546680" lon="7.6283890">
        <ele>286.1300000</ele>
        <time>2010-08-20T12:28:05Z</time>
      </trkpt>
      <trkpt lat="51.0545390" lon="7.6282000">
        <ele>286.1300000</ele>
        <time>2010-08-20T12:28:06Z</time>
      </trkpt>
      <trkpt lat="51.0533160" lon="7.6265160">
        <ele>293.8200000</ele>
        <time>2010-08-20T12:28:16Z</time>
      </trkpt>
      <trkpt lat="51.0528140" lon="7.6252390">
        <ele>299.1100000</ele>
        <time>2010-08-20T12:28:24Z</time>
      </trkpt>
      <trkpt lat="51.0526420" lon="7.6235550">
        <ele>305.8400000</ele>
        <time>2010-08-20T12:28:33Z</time>
      </trkpt>
      <trkpt lat="51.0525700" lon="7.6221600">
        <ele>311.1200000</ele>
        <time>2010-08-20T12:28:40Z</time>
      </trkpt>
      <trkpt lat="51.0525840" lon="7.6219670">
        <ele>312.0900000</ele>
        <time>2010-08-20T12:28:41Z</time>
      </trkpt>
      <trkpt lat="51.0526660" lon="7.6211930">
        <ele>314.9700000</ele>
        <time>2010-08-20T12:28:45Z</time>
      </trkpt>
      <trkpt lat="51.0526660" lon="7.6210180">
        <ele>315.4500000</ele>
        <time>2010-08-20T12:28:46Z</time>
      </trkpt>
      <trkpt lat="51.0526560" lon="7.6208550">
        <ele>315.9300000</ele>
        <time>2010-08-20T12:28:47Z</time>
      </trkpt>
      <trkpt lat="51.0526220" lon="7.6204220">
        <ele>316.4100000</ele>
        <time>2010-08-20T12:28:50Z</time>
      </trkpt>
      <trkpt lat="51.0526280" lon="7.6202800">
        <ele>316.4100000</ele>
        <time>2010-08-20T12:28:51Z</time>
      </trkpt>
      <trkpt lat="51.0526590" lon="7.6201370">
        <ele>316.8900000</ele>
        <time>2010-08-20T12:28:52Z</time>
      </trkpt>
      <trkpt lat="51.0527100" lon="7.6199990">
        <ele>316.8900000</ele>
        <time>2010-08-20T12:28:53Z</time>
      </trkpt>
      <trkpt lat="51.0527860" lon="7.6198660">
        <ele>317.3700000</ele>
        <time>2010-08-20T12:28:54Z</time>
      </trkpt>
      <trkpt lat="51.0528910" lon="7.6197470">
        <ele>318.3300000</ele>
        <time>2010-08-20T12:28:55Z</time>
      </trkpt>
      <trkpt lat="51.0530190" lon="7.6196340">
        <ele>319.3000000</ele>
        <time>2010-08-20T12:28:56Z</time>
      </trkpt>
      <trkpt lat="51.0531560" lon="7.6195060">
        <ele>320.7400000</ele>
        <time>2010-08-20T12:28:57Z</time>
      </trkpt>
      <trkpt lat="51.0533350" lon="7.6193210">
        <ele>322.1800000</ele>
        <time>2010-08-20T12:28:58Z</time>
      </trkpt>
      <trkpt lat="51.0534860" lon="7.6190850">
        <ele>324.1000000</ele>
        <time>2010-08-20T12:28:59Z</time>
      </trkpt>
      <trkpt lat="51.0536390" lon="7.6188270">
        <ele>326.9900000</ele>
        <time>2010-08-20T12:29:00Z</time>
      </trkpt>
      <trkpt lat="51.0544890" lon="7.6176190">
        <ele>341.8900000</ele>
        <time>2010-08-20T12:29:05Z</time>
      </trkpt>
      <trkpt lat="51.0561390" lon="7.6161070">
        <ele>372.1700000</ele>
        <time>2010-08-20T12:29:14Z</time>
      </trkpt>
      <trkpt lat="51.0564890" lon="7.6159500">
        <ele>378.4200000</ele>
        <time>2010-08-20T12:29:16Z</time>
      </trkpt>
      <trkpt lat="51.0566830" lon="7.6159160">
        <ele>380.3400000</ele>
        <time>2010-08-20T12:29:17Z</time>
      </trkpt>
      <trkpt lat="51.0568730" lon="7.6159050">
        <ele>383.2200000</ele>
        <time>2010-08-20T12:29:18Z</time>
      </trkpt>
      <trkpt lat="51.0570510" lon="7.6159200">
        <ele>386.1100000</ele>
        <time>2010-08-20T12:29:19Z</time>
      </trkpt>
      <trkpt lat="51.0572220" lon="7.6159600">
        <ele>389.4700000</ele>
        <time>2010-08-20T12:29:20Z</time>
      </trkpt>
      <trkpt lat="51.0573920" lon="7.6160180">
        <ele>391.8700000</ele>
        <time>2010-08-20T12:29:21Z</time>
      </trkpt>
      <trkpt lat="51.0575480" lon="7.6160820">
        <ele>393.8000000</ele>
        <time>2010-08-20T12:29:22Z</time>
      </trkpt>
      <trkpt lat="51.0578040" lon="7.6161640">
        <ele>399.0800000</ele>
        <time>2010-08-20T12:29:24Z</time>
      </trkpt>
      <trkpt lat="51.0579240" lon="7.6161600">
        <ele>400.5300000</ele>
        <time>2010-08-20T12:29:25Z</time>
      </trkpt>
      <trkpt lat="51.0580420" lon="7.6161170">
        <ele>401.9700000</ele>
        <time>2010-08-20T12:29:26Z</time>
      </trkpt>
      <trkpt lat="51.0581720" lon="7.6160350">
        <ele>402.9300000</ele>
        <time>2010-08-20T12:29:27Z</time>
      </trkpt>
      <trkpt lat="51.0583080" lon="7.6159340">
        <ele>403.4100000</ele>
        <time>2010-08-20T12:29:28Z</time>
      </trkpt>
      <trkpt lat="51.0584410" lon="7.6158230">
        <ele>403.8900000</ele>
        <time>2010-08-20T12:29:29Z</time>
      </trkpt>
      <trkpt lat="51.0585500" lon="7.6156930">
        <ele>404.3700000</ele>
        <time>2010-08-20T12:29:30Z</time>
      </trkpt>
      <trkpt lat="51.0586360" lon="7.6155330">
        <ele>405.3300000</ele>
        <time>2010-08-20T12:29:31Z</time>
      </trkpt>
      <trkpt lat="51.0586980" lon="7.6153380">
        <ele>405.8100000</ele>
        <time>2010-08-20T12:29:32Z</time>
      </trkpt>
      <trkpt lat="51.0587360" lon="7.6151390">
        <ele>406.2900000</ele>
        <time>2010-08-20T12:29:33Z</time>
      </trkpt>
      <trkpt lat="51.0587590" lon="7.6149560">
        <ele>406.7700000</ele>
        <time>2010-08-20T12:29:34Z</time>
      </trkpt>
      <trkpt lat="51.0587780" lon="7.6147930">
        <ele>407.7400000</ele>
        <time>2010-08-20T12:29:35Z</time>
      </trkpt>
      <trkpt lat="51.0588050" lon="7.6146540">
        <ele>408.2200000</ele>
        <time>2010-08-20T12:29:36Z</time>
      </trkpt>
      <trkpt lat="51.0588430" lon="7.6145590">
        <ele>409.1800000</ele>
        <time>2010-08-20T12:29:37Z</time>
      </trkpt>
      <trkpt lat="51.0589070" lon="7.6145000">
        <ele>409.6600000</ele>
        <time>2010-08-20T12:29:38Z</time>
      </trkpt>
      <trkpt lat="51.0589890" lon="7.6145020">
        <ele>410.1400000</ele>
        <time>2010-08-20T12:29:39Z</time>
      </trkpt>
      <trkpt lat="51.0590860" lon="7.6145560">
        <ele>410.6200000</ele>
        <time>2010-08-20T12:29:40Z</time>
      </trkpt>
      <trkpt lat="51.0591650" lon="7.6146530">
        <ele>411.1000000</ele>
        <time>2010-08-20T12:29:41Z</time>
      </trkpt>
      <trkpt lat="51.0592090" lon="7.6147890">
        <ele>411.5800000</ele>
        <time>2010-08-20T12:29:42Z</time>
      </trkpt>
      <trkpt lat="51.0592330" lon="7.6149740">
        <ele>412.0600000</ele>
        <time>2010-08-20T12:29:43Z</time>
      </trkpt>
      <trkpt lat="51.0592470" lon="7.6151250">
        <ele>413.0200000</ele>
        <time>2010-08-20T12:29:44Z</time>
      </trkpt>
      <trkpt lat="51.0592700" lon="7.6152650">
        <ele>413.9800000</ele>
        <time>2010-08-20T12:29:45Z</time>
      </trkpt>
      <trkpt lat="51.0592640" lon="7.6154200">
        <ele>414.9500000</ele>
        <time>2010-08-20T12:29:46Z</time>
      </trkpt>
      <trkpt lat="51.0592440" lon="7.6155850">
        <ele>415.4300000</ele>
        <time>2010-08-20T12:29:47Z</time>
      </trkpt>
      <trkpt lat="51.0592090" lon="7.6157470">
        <ele>415.9100000</ele>
        <time>2010-08-20T12:29:48Z</time>
      </trkpt>
      <trkpt lat="51.0591720" lon="7.6158970">
        <ele>416.3900000</ele>
        <time>2010-08-20T12:29:49Z</time>
      </trkpt>
      <trkpt lat="51.0591140" lon="7.6161570">
        <ele>417.3500000</ele>
        <time>2010-08-20T12:29:51Z</time>
      </trkpt>
      <trkpt lat="51.0591110" lon="7.6162700">
        <ele>417.8300000</ele>
        <time>2010-08-20T12:29:52Z</time>
      </trkpt>
      <trkpt lat="51.0591380" lon="7.6163460">
        <ele>418.7900000</ele>
        <time>2010-08-20T12:29:53Z</time>
      </trkpt>
      <trkpt lat="51.0591810" lon="7.6164100">
        <ele>418.7900000</ele>
        <time>2010-08-20T12:29:54Z</time>
      </trkpt>
      <trkpt lat="51.0592430" lon="7.6164460">
        <ele>419.2700000</ele>
        <time>2010-08-20T12:29:55Z</time>
      </trkpt>
      <trkpt lat="51.0593240" lon="7.6164540">
        <ele>420.2300000</ele>
        <time>2010-08-20T12:29:56Z</time>
      </trkpt>
      <trkpt lat="51.0594120" lon="7.6164380">
        <ele>420.7100000</ele>
        <time>2010-08-20T12:29:57Z</time>
      </trkpt>
      <trkpt lat="51.0594940" lon="7.6164140">
        <ele>420.7100000</ele>
        <time>2010-08-20T12:29:58Z</time>
      </trkpt>
      <trkpt lat="51.0595740" lon="7.6163790">
        <ele>420.7100000</ele>
        <time>2010-08-20T12:29:59Z</time>
      </trkpt>
      <trkpt lat="51.0596510" lon="7.6163260">
        <ele>421.1900000</ele>
        <time>2010-08-20T12:30:00Z</time>
      </trkpt>
      <trkpt lat="51.0597280" lon="7.6162650">
        <ele>421.1900000</ele>
        <time>2010-08-20T12:30:01Z</time>
      </trkpt>
      <trkpt lat="51.0598080" lon="7.6161970">
        <ele>421.6800000</ele>
        <time>2010-08-20T12:30:02Z</time>
      </trkpt>
      <trkpt lat="51.0601690" lon="7.6158870">
        <ele>422.1600000</ele>
        <time>2010-08-20T12:30:06Z</time>
      </trkpt>
      <trkpt lat="51.0602710" lon="7.6158460">
        <ele>422.1600000</ele>
        <time>2010-08-20T12:30:07Z</time>
      </trkpt>
      <trkpt lat="51.0603830" lon="7.6158270">
        <ele>421.6800000</ele>
        <time>2010-08-20T12:30:08Z</time>
      </trkpt>
      <trkpt lat="51.0605030" lon="7.6158310">
        <ele>421.1900000</ele>
        <time>2010-08-20T12:30:09Z</time>
      </trkpt>
      <trkpt lat="51.0606280" lon="7.6158460">
        <ele>420.7100000</ele>
        <time>2010-08-20T12:30:10Z</time>
      </trkpt>
      <trkpt lat="51.0613920" lon="7.6159600">
        <ele>416.8700000</ele>
        <time>2010-08-20T12:30:16Z</time>
      </trkpt>
      <trkpt lat="51.0615190" lon="7.6160390">
        <ele>416.3900000</ele>
        <time>2010-08-20T12:30:17Z</time>
      </trkpt>
      <trkpt lat="51.0616390" lon="7.6161430">
        <ele>415.9100000</ele>
        <time>2010-08-20T12:30:18Z</time>
      </trkpt>
      <trkpt lat="51.0617450" lon="7.6162650">
        <ele>415.4300000</ele>
        <time>2010-08-20T12:30:19Z</time>
      </trkpt>
      <trkpt lat="51.0618200" lon="7.6164450">
        <ele>414.9500000</ele>
        <time>2010-08-20T12:30:20Z</time>
      </trkpt>
      <trkpt lat="51.0618530" lon="7.6166360">
        <ele>414.4700000</ele>
        <time>2010-08-20T12:30:21Z</time>
      </trkpt>
      <trkpt lat="51.0618630" lon="7.6168330">
        <ele>414.4700000</ele>
        <time>2010-08-20T12:30:22Z</time>
      </trkpt>
      <trkpt lat="51.0618710" lon="7.6170440">
        <ele>414.9500000</ele>
        <time>2010-08-20T12:30:23Z</time>
      </trkpt>
      <trkpt lat="51.0618820" lon="7.6172480">
        <ele>414.9500000</ele>
        <time>2010-08-20T12:30:24Z</time>
      </trkpt>
      <trkpt lat="51.0619080" lon="7.6174480">
        <ele>414.9500000</ele>
        <time>2010-08-20T12:30:25Z</time>
      </trkpt>
      <trkpt lat="51.0619490" lon="7.6176540">
        <ele>414.9500000</ele>
        <time>2010-08-20T12:30:26Z</time>
      </trkpt>
      <trkpt lat="51.0620110" lon="7.6178590">
        <ele>414.9500000</ele>
        <time>2010-08-20T12:30:27Z</time>
      </trkpt>
      <trkpt lat="51.0620840" lon="7.6180590">
        <ele>415.4300000</ele>
        <time>2010-08-20T12:30:28Z</time>
      </trkpt>
      <trkpt lat="51.0621610" lon="7.6182530">
        <ele>415.4300000</ele>
        <time>2010-08-20T12:30:29Z</time>
      </trkpt>
      <trkpt lat="51.0627680" lon="7.6193300">
        <ele>416.8700000</ele>
        <time>2010-08-20T12:30:37Z</time>
      </trkpt>
      <trkpt lat="51.0628580" lon="7.6193670">
        <ele>416.8700000</ele>
        <time>2010-08-20T12:30:38Z</time>
      </trkpt>
      <trkpt lat="51.0629680" lon="7.6193650">
        <ele>416.8700000</ele>
        <time>2010-08-20T12:30:39Z</time>
      </trkpt>
      <trkpt lat="51.0630730" lon="7.6193290">
        <ele>416.3900000</ele>
        <time>2010-08-20T12:30:40Z</time>
      </trkpt>
      <trkpt lat="51.0631640" lon="7.6192480">
        <ele>416.8700000</ele>
        <time>2010-08-20T12:30:41Z</time>
      </trkpt>
      <trkpt lat="51.0633580" lon="7.6190460">
        <ele>417.8300000</ele>
        <time>2010-08-20T12:30:43Z</time>
      </trkpt>
      <trkpt lat="51.0636270" lon="7.6189180">
        <ele>419.2700000</ele>
        <time>2010-08-20T12:30:46Z</time>
      </trkpt>
      <trkpt lat="51.0637410" lon="7.6189330">
        <ele>419.2700000</ele>
        <time>2010-08-20T12:30:47Z</time>
      </trkpt>
      <trkpt lat="51.0642470" lon="7.6193160">
        <ele>418.7900000</ele>
        <time>2010-08-20T12:30:51Z</time>
      </trkpt>
      <trkpt lat="51.0643240" lon="7.6194990">
        <ele>418.3100000</ele>
        <time>2010-08-20T12:30:52Z</time>
      </trkpt>
      <trkpt lat="51.0643930" lon="7.6196290">
        <ele>417.8300000</ele>
        <time>2010-08-20T12:30:53Z</time>
      </trkpt>
      <trkpt lat="51.0644520" lon="7.6197740">
        <ele>416.8700000</ele>
        <time>2010-08-20T12:30:54Z</time>
      </trkpt>
      <trkpt lat="51.0644900" lon="7.6199310">
        <ele>416.3900000</ele>
        <time>2010-08-20T12:30:55Z</time>
      </trkpt>
      <trkpt lat="51.0645280" lon="7.6200990">
        <ele>416.3900000</ele>
        <time>2010-08-20T12:30:56Z</time>
      </trkpt>
      <trkpt lat="51.0645760" lon="7.6202390">
        <ele>416.8700000</ele>
        <time>2010-08-20T12:30:57Z</time>
      </trkpt>
      <trkpt lat="51.0646250" lon="7.6203590">
        <ele>415.9100000</ele>
        <time>2010-08-20T12:30:58Z</time>
      </trkpt>
      <trkpt lat="51.0646860" lon="7.6204450">
        <ele>415.4300000</ele>
        <time>2010-08-20T12:30:59Z</time>
      </trkpt>
      <trkpt lat="51.0647570" lon="7.6205140">
        <ele>415.9100000</ele>
        <time>2010-08-20T12:31:00Z</time>
      </trkpt>
      <trkpt lat="51.0648300" lon="7.6204950">
        <ele>416.3900000</ele>
        <time>2010-08-20T12:31:01Z</time>
      </trkpt>
      <trkpt lat="51.0649220" lon="7.6204470">
        <ele>416.8700000</ele>
        <time>2010-08-20T12:31:02Z</time>
      </trkpt>
      <trkpt lat="51.0650040" lon="7.6203670">
        <ele>416.8700000</ele>
        <time>2010-08-20T12:31:03Z</time>
      </trkpt>
      <trkpt lat="51.0650770" lon="7.6202530">
        <ele>416.3900000</ele>
        <time>2010-08-20T12:31:04Z</time>
      </trkpt>
      <trkpt lat="51.0651440" lon="7.6201410">
        <ele>416.3900000</ele>
        <time>2010-08-20T12:31:05Z</time>
      </trkpt>
      <trkpt lat="51.0651970" lon="7.6200440">
        <ele>416.3900000</ele>
        <time>2010-08-20T12:31:06Z</time>
      </trkpt>
      <trkpt lat="51.0652320" lon="7.6199600">
        <ele>416.3900000</ele>
        <time>2010-08-20T12:31:07Z</time>
      </trkpt>
      <trkpt lat="51.0652600" lon="7.6198780">
        <ele>416.3900000</ele>
        <time>2010-08-20T12:31:08Z</time>
      </trkpt>
      <trkpt lat="51.0652860" lon="7.6197810">
        <ele>416.3900000</ele>
        <time>2010-08-20T12:31:09Z</time>
      </trkpt>
      <trkpt lat="51.0653120" lon="7.6196340">
        <ele>416.8700000</ele>
        <time>2010-08-20T12:31:10Z</time>
      </trkpt>
      <trkpt lat="51.0653440" lon="7.6194750">
        <ele>416.8700000</ele>
        <time>2010-08-20T12:31:11Z</time>
      </trkpt>
      <trkpt lat="51.0653600" lon="7.6192830">
        <ele>417.3500000</ele>
        <time>2010-08-20T12:31:12Z</time>
      </trkpt>
      <trkpt lat="51.0653700" lon="7.6190840">
        <ele>417.3500000</ele>
        <time>2010-08-20T12:31:13Z</time>
      </trkpt>
      <trkpt lat="51.0653690" lon="7.6188850">
        <ele>417.3500000</ele>
        <time>2010-08-20T12:31:14Z</time>
      </trkpt>
      <trkpt lat="51.0653580" lon="7.6187020">
        <ele>417.3500000</ele>
        <time>2010-08-20T12:31:15Z</time>
      </trkpt>
      <trkpt lat="51.0653410" lon="7.6185260">
        <ele>417.8300000</ele>
        <time>2010-08-20T12:31:16Z</time>
      </trkpt>
      <trkpt lat="51.0653150" lon="7.6183720">
        <ele>417.8300000</ele>
        <time>2010-08-20T12:31:17Z</time>
      </trkpt>
      <trkpt lat="51.0652810" lon="7.6182250">
        <ele>417.8300000</ele>
        <time>2010-08-20T12:31:18Z</time>
      </trkpt>
      <trkpt lat="51.0651060" lon="7.6173330">
        <ele>416.8700000</ele>
        <time>2010-08-20T12:31:23Z</time>
      </trkpt>
      <trkpt lat="51.0651070" lon="7.6171430">
        <ele>416.3900000</ele>
        <time>2010-08-20T12:31:24Z</time>
      </trkpt>
      <trkpt lat="51.0650990" lon="7.6162110">
        <ele>413.5000000</ele>
        <time>2010-08-20T12:31:29Z</time>
      </trkpt>
      <trkpt lat="51.0651320" lon="7.6160690">
        <ele>413.0200000</ele>
        <time>2010-08-20T12:31:30Z</time>
      </trkpt>
      <trkpt lat="51.0652260" lon="7.6159430">
        <ele>413.9800000</ele>
        <time>2010-08-20T12:31:31Z</time>
      </trkpt>
      <trkpt lat="51.0653000" lon="7.6158200">
        <ele>414.9500000</ele>
        <time>2010-08-20T12:31:32Z</time>
      </trkpt>
      <trkpt lat="51.0653860" lon="7.6157270">
        <ele>415.4300000</ele>
        <time>2010-08-20T12:31:33Z</time>
      </trkpt>
      <trkpt lat="51.0655010" lon="7.6156510">
        <ele>415.9100000</ele>
        <time>2010-08-20T12:31:34Z</time>
      </trkpt>
      <trkpt lat="51.0656230" lon="7.6155900">
        <ele>415.9100000</ele>
        <time>2010-08-20T12:31:35Z</time>
      </trkpt>
      <trkpt lat="51.0657370" lon="7.6155330">
        <ele>415.4300000</ele>
        <time>2010-08-20T12:31:36Z</time>
      </trkpt>
      <trkpt lat="51.0658590" lon="7.6154850">
        <ele>415.4300000</ele>
        <time>2010-08-20T12:31:37Z</time>
      </trkpt>
      <trkpt lat="51.0662120" lon="7.6154070">
        <ele>413.9800000</ele>
        <time>2010-08-20T12:31:40Z</time>
      </trkpt>
      <trkpt lat="51.0663310" lon="7.6154190">
        <ele>413.5000000</ele>
        <time>2010-08-20T12:31:41Z</time>
      </trkpt>
      <trkpt lat="51.0665530" lon="7.6153910">
        <ele>412.0600000</ele>
        <time>2010-08-20T12:31:43Z</time>
      </trkpt>
      <trkpt lat="51.0668670" lon="7.6149060">
        <ele>408.7000000</ele>
        <time>2010-08-20T12:31:47Z</time>
      </trkpt>
      <trkpt lat="51.0668910" lon="7.6147200">
        <ele>408.2200000</ele>
        <time>2010-08-20T12:31:48Z</time>
      </trkpt>
      <trkpt lat="51.0668930" lon="7.6145070">
        <ele>407.7400000</ele>
        <time>2010-08-20T12:31:49Z</time>
      </trkpt>
      <trkpt lat="51.0668950" lon="7.6142950">
        <ele>407.2600000</ele>
        <time>2010-08-20T12:31:50Z</time>
      </trkpt>
      <trkpt lat="51.0669010" lon="7.6141060">
        <ele>406.7700000</ele>
        <time>2010-08-20T12:31:51Z</time>
      </trkpt>
      <trkpt lat="51.0669250" lon="7.6137640">
        <ele>407.7400000</ele>
        <time>2010-08-20T12:31:53Z</time>
      </trkpt>
      <trkpt lat="51.0671310" lon="7.6133770">
        <ele>409.6600000</ele>
        <time>2010-08-20T12:31:56Z</time>
      </trkpt>
      <trkpt lat="51.0671950" lon="7.6133130">
        <ele>409.6600000</ele>
        <time>2010-08-20T12:31:57Z</time>
      </trkpt>
      <trkpt lat="51.0672720" lon="7.6132640">
        <ele>409.1800000</ele>
        <time>2010-08-20T12:31:58Z</time>
      </trkpt>
      <trkpt lat="51.0673860" lon="7.6132430">
        <ele>409.1800000</ele>
        <time>2010-08-20T12:31:59Z</time>
      </trkpt>
      <trkpt lat="51.0674750" lon="7.6132330">
        <ele>409.1800000</ele>
        <time>2010-08-20T12:32:00Z</time>
      </trkpt>
      <trkpt lat="51.0675710" lon="7.6132190">
        <ele>409.1800000</ele>
        <time>2010-08-20T12:32:01Z</time>
      </trkpt>
      <trkpt lat="51.0684960" lon="7.6133580">
        <ele>407.2600000</ele>
        <time>2010-08-20T12:32:09Z</time>
      </trkpt>
      <trkpt lat="51.0686080" lon="7.6134470">
        <ele>406.2900000</ele>
        <time>2010-08-20T12:32:10Z</time>
      </trkpt>
      <trkpt lat="51.0689200" lon="7.6135050">
        <ele>406.7700000</ele>
        <time>2010-08-20T12:32:13Z</time>
      </trkpt>
      <trkpt lat="51.0691110" lon="7.6134210">
        <ele>406.2900000</ele>
        <time>2010-08-20T12:32:15Z</time>
      </trkpt>
      <trkpt lat="51.0692090" lon="7.6133510">
        <ele>405.3300000</ele>
        <time>2010-08-20T12:32:16Z</time>
      </trkpt>
      <trkpt lat="51.0692980" lon="7.6132680">
        <ele>405.3300000</ele>
        <time>2010-08-20T12:32:17Z</time>
      </trkpt>
      <trkpt lat="51.0693960" lon="7.6131940">
        <ele>404.3700000</ele>
        <time>2010-08-20T12:32:18Z</time>
      </trkpt>
      <trkpt lat="51.0694870" lon="7.6131380">
        <ele>404.3700000</ele>
        <time>2010-08-20T12:32:19Z</time>
      </trkpt>
      <trkpt lat="51.0695740" lon="7.6131080">
        <ele>403.8900000</ele>
        <time>2010-08-20T12:32:20Z</time>
      </trkpt>
      <trkpt lat="51.0696480" lon="7.6130920">
        <ele>402.9300000</ele>
        <time>2010-08-20T12:32:21Z</time>
      </trkpt>
      <trkpt lat="51.0697360" lon="7.6130720">
        <ele>402.4500000</ele>
        <time>2010-08-20T12:32:23Z</time>
      </trkpt>
      <trkpt lat="51.0697760" lon="7.6130450">
        <ele>403.4100000</ele>
        <time>2010-08-20T12:32:24Z</time>
      </trkpt>
      <trkpt lat="51.0697960" lon="7.6130260">
        <ele>403.4100000</ele>
        <time>2010-08-20T12:32:25Z</time>
      </trkpt>
      <trkpt lat="51.0698030" lon="7.6130060">
        <ele>402.9300000</ele>
        <time>2010-08-20T12:32:26Z</time>
      </trkpt>
      <trkpt lat="51.0698030" lon="7.6129840">
        <ele>402.9300000</ele>
        <time>2010-08-20T12:32:27Z</time>
      </trkpt>
      <trkpt lat="51.0697970" lon="7.6129570">
        <ele>402.9300000</ele>
        <time>2010-08-20T12:32:28Z</time>
      </trkpt>
      <trkpt lat="51.0697820" lon="7.6129050">
        <ele>402.9300000</ele>
        <time>2010-08-20T12:32:29Z</time>
      </trkpt>
      <trkpt lat="51.0697520" lon="7.6128460">
        <ele>402.9300000</ele>
        <time>2010-08-20T12:32:30Z</time>
      </trkpt>
      <trkpt lat="51.0697120" lon="7.6127810">
        <ele>403.4100000</ele>
        <time>2010-08-20T12:32:31Z</time>
      </trkpt>
      <trkpt lat="51.0696680" lon="7.6127010">
        <ele>403.8900000</ele>
        <time>2010-08-20T12:32:32Z</time>
      </trkpt>
      <trkpt lat="51.0695530" lon="7.6125250">
        <ele>403.8900000</ele>
        <time>2010-08-20T12:32:34Z</time>
      </trkpt>
      <trkpt lat="51.0694850" lon="7.6124460">
        <ele>403.8900000</ele>
        <time>2010-08-20T12:32:35Z</time>
      </trkpt>
      <trkpt lat="51.0694120" lon="7.6123790">
        <ele>403.8900000</ele>
        <time>2010-08-20T12:32:36Z</time>
      </trkpt>
      <trkpt lat="51.0693290" lon="7.6123230">
        <ele>404.3700000</ele>
        <time>2010-08-20T12:32:37Z</time>
      </trkpt>
      <trkpt lat="51.0692340" lon="7.6122700">
        <ele>405.3300000</ele>
        <time>2010-08-20T12:32:38Z</time>
      </trkpt>
      <trkpt lat="51.0690440" lon="7.6121470">
        <ele>407.7400000</ele>
        <time>2010-08-20T12:32:40Z</time>
      </trkpt>
      <trkpt lat="51.0689550" lon="7.6120700">
        <ele>409.1800000</ele>
        <time>2010-08-20T12:32:41Z</time>
      </trkpt>
      <trkpt lat="51.0679290" lon="7.6109900">
        <ele>426.9600000</ele>
        <time>2010-08-20T12:32:53Z</time>
      </trkpt>
      <trkpt lat="51.0678800" lon="7.6108510">
        <ele>428.4000000</ele>
        <time>2010-08-20T12:32:54Z</time>
      </trkpt>
      <trkpt lat="51.0676380" lon="7.6102050">
        <ele>436.1000000</ele>
        <time>2010-08-20T12:32:59Z</time>
      </trkpt>
      <trkpt lat="51.0675830" lon="7.6101360">
        <ele>437.0600000</ele>
        <time>2010-08-20T12:33:00Z</time>
      </trkpt>
      <trkpt lat="51.0675230" lon="7.6101070">
        <ele>438.5000000</ele>
        <time>2010-08-20T12:33:01Z</time>
      </trkpt>
      <trkpt lat="51.0674610" lon="7.6101060">
        <ele>439.9400000</ele>
        <time>2010-08-20T12:33:02Z</time>
      </trkpt>
      <trkpt lat="51.0674130" lon="7.6101360">
        <ele>441.3800000</ele>
        <time>2010-08-20T12:33:03Z</time>
      </trkpt>
      <trkpt lat="51.0673570" lon="7.6102810">
        <ele>442.8200000</ele>
        <time>2010-08-20T12:33:04Z</time>
      </trkpt>
      <trkpt lat="51.0673030" lon="7.6103850">
        <ele>443.7900000</ele>
        <time>2010-08-20T12:33:05Z</time>
      </trkpt>
      <trkpt lat="51.0672410" lon="7.6105010">
        <ele>445.2300000</ele>
        <time>2010-08-20T12:33:06Z</time>
      </trkpt>
      <trkpt lat="51.0671800" lon="7.6106450">
        <ele>446.1900000</ele>
        <time>2010-08-20T12:33:07Z</time>
      </trkpt>
      <trkpt lat="51.0671150" lon="7.6108250">
        <ele>448.5900000</ele>
        <time>2010-08-20T12:33:08Z</time>
      </trkpt>
      <trkpt lat="51.0670530" lon="7.6109880">
        <ele>451.0000000</ele>
        <time>2010-08-20T12:33:09Z</time>
      </trkpt>
      <trkpt lat="51.0664700" lon="7.6122250">
        <ele>464.9300000</ele>
        <time>2010-08-20T12:33:18Z</time>
      </trkpt>
      <trkpt lat="51.0662890" lon="7.6124780">
        <ele>466.8600000</ele>
        <time>2010-08-20T12:33:20Z</time>
      </trkpt>
      <trkpt lat="51.0661900" lon="7.6126050">
        <ele>467.8200000</ele>
        <time>2010-08-20T12:33:21Z</time>
      </trkpt>
      <trkpt lat="51.0660880" lon="7.6127320">
        <ele>469.2600000</ele>
        <time>2010-08-20T12:33:22Z</time>
      </trkpt>
      <trkpt lat="51.0655760" lon="7.6132760">
        <ele>475.5100000</ele>
        <time>2010-08-20T12:33:27Z</time>
      </trkpt>
      <trkpt lat="51.0646530" lon="7.6139060">
        <ele>490.4100000</ele>
        <time>2010-08-20T12:33:36Z</time>
      </trkpt>
      <trkpt lat="51.0646000" lon="7.6138810">
        <ele>492.8100000</ele>
        <time>2010-08-20T12:33:37Z</time>
      </trkpt>
      <trkpt lat="51.0645450" lon="7.6138330">
        <ele>494.7400000</ele>
        <time>2010-08-20T12:33:38Z</time>
      </trkpt>
      <trkpt lat="51.0645000" lon="7.6137610">
        <ele>496.1800000</ele>
        <time>2010-08-20T12:33:39Z</time>
      </trkpt>
      <trkpt lat="51.0644600" lon="7.6136590">
        <ele>497.6200000</ele>
        <time>2010-08-20T12:33:40Z</time>
      </trkpt>
      <trkpt lat="51.0644560" lon="7.6134450">
        <ele>498.1000000</ele>
        <time>2010-08-20T12:33:41Z</time>
      </trkpt>
      <trkpt lat="51.0644580" lon="7.6132990">
        <ele>499.5400000</ele>
        <time>2010-08-20T12:33:42Z</time>
      </trkpt>
      <trkpt lat="51.0644550" lon="7.6131600">
        <ele>500.5000000</ele>
        <time>2010-08-20T12:33:43Z</time>
      </trkpt>
      <trkpt lat="51.0644650" lon="7.6128940">
        <ele>503.8700000</ele>
        <time>2010-08-20T12:33:45Z</time>
      </trkpt>
      <trkpt lat="51.0645120" lon="7.6118430">
        <ele>508.6700000</ele>
        <time>2010-08-20T12:33:52Z</time>
      </trkpt>
      <trkpt lat="51.0645560" lon="7.6116500">
        <ele>509.6400000</ele>
        <time>2010-08-20T12:33:54Z</time>
      </trkpt>
      <trkpt lat="51.0645900" lon="7.6115760">
        <ele>510.6000000</ele>
        <time>2010-08-20T12:33:55Z</time>
      </trkpt>
      <trkpt lat="51.0646240" lon="7.6115080">
        <ele>510.6000000</ele>
        <time>2010-08-20T12:33:56Z</time>
      </trkpt>
      <trkpt lat="51.0646580" lon="7.6114350">
        <ele>510.1200000</ele>
        <time>2010-08-20T12:33:57Z</time>
      </trkpt>
      <trkpt lat="51.0646980" lon="7.6113640">
        <ele>510.6000000</ele>
        <time>2010-08-20T12:33:58Z</time>
      </trkpt>
      <trkpt lat="51.0648790" lon="7.6110420">
        <ele>509.1600000</ele>
        <time>2010-08-20T12:34:02Z</time>
      </trkpt>
      <trkpt lat="51.0649160" lon="7.6109570">
        <ele>508.6700000</ele>
        <time>2010-08-20T12:34:03Z</time>
      </trkpt>
      <trkpt lat="51.0650060" lon="7.6107160">
        <ele>506.7500000</ele>
        <time>2010-08-20T12:34:06Z</time>
      </trkpt>
      <trkpt lat="51.0650230" lon="7.6106320">
        <ele>506.7500000</ele>
        <time>2010-08-20T12:34:07Z</time>
      </trkpt>
      <trkpt lat="51.0650400" lon="7.6105500">
        <ele>506.7500000</ele>
        <time>2010-08-20T12:34:08Z</time>
      </trkpt>
      <trkpt lat="51.0650530" lon="7.6104780">
        <ele>506.7500000</ele>
        <time>2010-08-20T12:34:09Z</time>
      </trkpt>
      <trkpt lat="51.0650570" lon="7.6104150">
        <ele>506.2700000</ele>
        <time>2010-08-20T12:34:10Z</time>
      </trkpt>
      <trkpt lat="51.0650520" lon="7.6103610">
        <ele>506.2700000</ele>
        <time>2010-08-20T12:34:11Z</time>
      </trkpt>
      <trkpt lat="51.0650440" lon="7.6103050">
        <ele>506.2700000</ele>
        <time>2010-08-20T12:34:12Z</time>
      </trkpt>
      <trkpt lat="51.0649020" lon="7.6096240">
        <ele>506.7500000</ele>
        <time>2010-08-20T12:34:19Z</time>
      </trkpt>
      <trkpt lat="51.0648340" lon="7.6092880">
        <ele>505.7900000</ele>
        <time>2010-08-20T12:34:22Z</time>
      </trkpt>
      <trkpt lat="51.0647990" lon="7.6091830">
        <ele>504.8300000</ele>
        <time>2010-08-20T12:34:23Z</time>
      </trkpt>
      <trkpt lat="51.0646150" lon="7.6087020">
        <ele>500.9800000</ele>
        <time>2010-08-20T12:34:28Z</time>
      </trkpt>
      <trkpt lat="51.0645660" lon="7.6086190">
        <ele>500.5000000</ele>
        <time>2010-08-20T12:34:29Z</time>
      </trkpt>
      <trkpt lat="51.0645090" lon="7.6085270">
        <ele>500.5000000</ele>
        <time>2010-08-20T12:34:30Z</time>
      </trkpt>
      <trkpt lat="51.0643080" lon="7.6082450">
        <ele>499.5400000</ele>
        <time>2010-08-20T12:34:33Z</time>
      </trkpt>
      <trkpt lat="51.0642320" lon="7.6081590">
        <ele>498.5800000</ele>
        <time>2010-08-20T12:34:34Z</time>
      </trkpt>
      <trkpt lat="51.0633760" lon="7.6074320">
        <ele>487.5300000</ele>
        <time>2010-08-20T12:34:44Z</time>
      </trkpt>
      <trkpt lat="51.0627190" lon="7.6068430">
        <ele>477.9100000</ele>
        <time>2010-08-20T12:34:52Z</time>
      </trkpt>
      <trkpt lat="51.0626490" lon="7.6068100">
        <ele>475.0300000</ele>
        <time>2010-08-20T12:34:53Z</time>
      </trkpt>
      <trkpt lat="51.0625660" lon="7.6067890">
        <ele>475.9900000</ele>
        <time>2010-08-20T12:34:54Z</time>
      </trkpt>
      <trkpt lat="51.0624340" lon="7.6067790">
        <ele>472.1400000</ele>
        <time>2010-08-20T12:34:56Z</time>
      </trkpt>
      <trkpt lat="51.0623650" lon="7.6067900">
        <ele>471.1800000</ele>
        <time>2010-08-20T12:34:57Z</time>
      </trkpt>
      <trkpt lat="51.0622950" lon="7.6068180">
        <ele>470.2200000</ele>
        <time>2010-08-20T12:34:58Z</time>
      </trkpt>
      <trkpt lat="51.0622260" lon="7.6068470">
        <ele>469.2600000</ele>
        <time>2010-08-20T12:34:59Z</time>
      </trkpt>
      <trkpt lat="51.0621470" lon="7.6068770">
        <ele>468.3000000</ele>
        <time>2010-08-20T12:35:00Z</time>
      </trkpt>
      <trkpt lat="51.0619790" lon="7.6069270">
        <ele>466.3800000</ele>
        <time>2010-08-20T12:35:02Z</time>
      </trkpt>
      <trkpt lat="51.0612680" lon="7.6069940">
        <ele>455.3200000</ele>
        <time>2010-08-20T12:35:10Z</time>
      </trkpt>
      <trkpt lat="51.0611850" lon="7.6070320">
        <ele>453.4000000</ele>
        <time>2010-08-20T12:35:11Z</time>
      </trkpt>
      <trkpt lat="51.0610990" lon="7.6070880">
        <ele>452.9200000</ele>
        <time>2010-08-20T12:35:12Z</time>
      </trkpt>
      <trkpt lat="51.0610110" lon="7.6071530">
        <ele>452.4400000</ele>
        <time>2010-08-20T12:35:13Z</time>
      </trkpt>
      <trkpt lat="51.0609310" lon="7.6072240">
        <ele>452.4400000</ele>
        <time>2010-08-20T12:35:14Z</time>
      </trkpt>
      <trkpt lat="51.0608620" lon="7.6073100">
        <ele>451.9600000</ele>
        <time>2010-08-20T12:35:15Z</time>
      </trkpt>
      <trkpt lat="51.0607990" lon="7.6074200">
        <ele>451.9600000</ele>
        <time>2010-08-20T12:35:16Z</time>
      </trkpt>
      <trkpt lat="51.0607520" lon="7.6075420">
        <ele>451.0000000</ele>
        <time>2010-08-20T12:35:17Z</time>
      </trkpt>
      <trkpt lat="51.0607270" lon="7.6077470">
        <ele>450.5200000</ele>
        <time>2010-08-20T12:35:18Z</time>
      </trkpt>
      <trkpt lat="51.0606940" lon="7.6078930">
        <ele>450.5200000</ele>
        <time>2010-08-20T12:35:19Z</time>
      </trkpt>
      <trkpt lat="51.0606610" lon="7.6081580">
        <ele>448.5900000</ele>
        <time>2010-08-20T12:35:21Z</time>
      </trkpt>
      <trkpt lat="51.0606110" lon="7.6084080">
        <ele>447.1500000</ele>
        <time>2010-08-20T12:35:23Z</time>
      </trkpt>
      <trkpt lat="51.0605660" lon="7.6085160">
        <ele>447.1500000</ele>
        <time>2010-08-20T12:35:24Z</time>
      </trkpt>
      <trkpt lat="51.0605030" lon="7.6085690">
        <ele>448.1100000</ele>
        <time>2010-08-20T12:35:25Z</time>
      </trkpt>
      <trkpt lat="51.0604450" lon="7.6086090">
        <ele>448.5900000</ele>
        <time>2010-08-20T12:35:26Z</time>
      </trkpt>
      <trkpt lat="51.0604010" lon="7.6086240">
        <ele>449.0700000</ele>
        <time>2010-08-20T12:35:27Z</time>
      </trkpt>
      <trkpt lat="51.0603690" lon="7.6086280">
        <ele>450.0300000</ele>
        <time>2010-08-20T12:35:28Z</time>
      </trkpt>
      <trkpt lat="51.0603450" lon="7.6086290">
        <ele>451.0000000</ele>
        <time>2010-08-20T12:35:29Z</time>
      </trkpt>
      <trkpt lat="51.0603100" lon="7.6085940">
        <ele>452.4400000</ele>
        <time>2010-08-20T12:35:35Z</time>
      </trkpt>
      <trkpt lat="51.0602940" lon="7.6085690">
        <ele>452.4400000</ele>
        <time>2010-08-20T12:35:36Z</time>
      </trkpt>
      <trkpt lat="51.0602810" lon="7.6085170">
        <ele>451.4800000</ele>
        <time>2010-08-20T12:35:37Z</time>
      </trkpt>
      <trkpt lat="51.0602700" lon="7.6084470">
        <ele>450.5200000</ele>
        <time>2010-08-20T12:35:38Z</time>
      </trkpt>
      <trkpt lat="51.0602690" lon="7.6083740">
        <ele>450.0300000</ele>
        <time>2010-08-20T12:35:39Z</time>
      </trkpt>
      <trkpt lat="51.0602670" lon="7.6083010">
        <ele>449.5500000</ele>
        <time>2010-08-20T12:35:40Z</time>
      </trkpt>
      <trkpt lat="51.0602670" lon="7.6082150">
        <ele>449.5500000</ele>
        <time>2010-08-20T12:35:41Z</time>
      </trkpt>
      <trkpt lat="51.0602640" lon="7.6081130">
        <ele>449.0700000</ele>
        <time>2010-08-20T12:35:42Z</time>
      </trkpt>
      <trkpt lat="51.0602620" lon="7.6068110">
        <ele>445.2300000</ele>
        <time>2010-08-20T12:35:51Z</time>
      </trkpt>
      <trkpt lat="51.0603340" lon="7.6055310">
        <ele>443.7900000</ele>
        <time>2010-08-20T12:36:00Z</time>
      </trkpt>
      <trkpt lat="51.0604070" lon="7.6051400">
        <ele>439.9400000</ele>
        <time>2010-08-20T12:36:03Z</time>
      </trkpt>
      <trkpt lat="51.0604550" lon="7.6050220">
        <ele>438.5000000</ele>
        <time>2010-08-20T12:36:04Z</time>
      </trkpt>
      <trkpt lat="51.0605500" lon="7.6048120">
        <ele>437.0600000</ele>
        <time>2010-08-20T12:36:06Z</time>
      </trkpt>
      <trkpt lat="51.0606060" lon="7.6047250">
        <ele>436.1000000</ele>
        <time>2010-08-20T12:36:07Z</time>
      </trkpt>
      <trkpt lat="51.0606690" lon="7.6046450">
        <ele>435.1300000</ele>
        <time>2010-08-20T12:36:08Z</time>
      </trkpt>
      <trkpt lat="51.0607530" lon="7.6045690">
        <ele>434.6500000</ele>
        <time>2010-08-20T12:36:09Z</time>
      </trkpt>
      <trkpt lat="51.0608400" lon="7.6045110">
        <ele>434.1700000</ele>
        <time>2010-08-20T12:36:10Z</time>
      </trkpt>
      <trkpt lat="51.0609590" lon="7.6044730">
        <ele>433.6900000</ele>
        <time>2010-08-20T12:36:11Z</time>
      </trkpt>
      <trkpt lat="51.0610400" lon="7.6044640">
        <ele>433.6900000</ele>
        <time>2010-08-20T12:36:12Z</time>
      </trkpt>
      <trkpt lat="51.0611410" lon="7.6044590">
        <ele>432.7300000</ele>
        <time>2010-08-20T12:36:13Z</time>
      </trkpt>
      <trkpt lat="51.0612540" lon="7.6044650">
        <ele>431.7700000</ele>
        <time>2010-08-20T12:36:14Z</time>
      </trkpt>
      <trkpt lat="51.0613690" lon="7.6044660">
        <ele>430.3300000</ele>
        <time>2010-08-20T12:36:15Z</time>
      </trkpt>
      <trkpt lat="51.0625800" lon="7.6043860">
        <ele>424.0800000</ele>
        <time>2010-08-20T12:36:24Z</time>
      </trkpt>
      <trkpt lat="51.0634540" lon="7.6038420">
        <ele>423.6000000</ele>
        <time>2010-08-20T12:36:33Z</time>
      </trkpt>
      <trkpt lat="51.0635690" lon="7.6037150">
        <ele>418.7900000</ele>
        <time>2010-08-20T12:36:35Z</time>
      </trkpt>
      <trkpt lat="51.0635520" lon="7.6033780">
        <ele>415.4300000</ele>
        <time>2010-08-20T12:36:38Z</time>
      </trkpt>
      <trkpt lat="51.0632440" lon="7.6029730">
        <ele>408.7000000</ele>
        <time>2010-08-20T12:36:41Z</time>
      </trkpt>
      <trkpt lat="51.0629950" lon="7.6026340">
        <ele>408.7000000</ele>
        <time>2010-08-20T12:36:43Z</time>
      </trkpt>
      <trkpt lat="51.0627210" lon="7.6019740">
        <ele>405.3300000</ele>
        <time>2010-08-20T12:36:47Z</time>
      </trkpt>
      <trkpt lat="51.0627060" lon="7.6017770">
        <ele>402.9300000</ele>
        <time>2010-08-20T12:36:48Z</time>
      </trkpt>
      <trkpt lat="51.0626970" lon="7.6016130">
        <ele>402.4500000</ele>
        <time>2010-08-20T12:36:49Z</time>
      </trkpt>
      <trkpt lat="51.0626900" lon="7.6014630">
        <ele>402.9300000</ele>
        <time>2010-08-20T12:36:50Z</time>
      </trkpt>
      <trkpt lat="51.0627180" lon="7.6013420">
        <ele>401.0100000</ele>
        <time>2010-08-20T12:36:51Z</time>
      </trkpt>
      <trkpt lat="51.0627580" lon="7.6012250">
        <ele>399.0800000</ele>
        <time>2010-08-20T12:36:52Z</time>
      </trkpt>
      <trkpt lat="51.0628060" lon="7.6011100">
        <ele>398.1200000</ele>
        <time>2010-08-20T12:36:53Z</time>
      </trkpt>
      <trkpt lat="51.0628680" lon="7.6009900">
        <ele>397.1600000</ele>
        <time>2010-08-20T12:36:54Z</time>
      </trkpt>
      <trkpt lat="51.0630270" lon="7.6008220">
        <ele>397.6400000</ele>
        <time>2010-08-20T12:36:56Z</time>
      </trkpt>
      <trkpt lat="51.0631450" lon="7.6007720">
        <ele>397.1600000</ele>
        <time>2010-08-20T12:36:57Z</time>
      </trkpt>
      <trkpt lat="51.0636250" lon="7.6004380">
        <ele>390.9100000</ele>
        <time>2010-08-20T12:37:02Z</time>
      </trkpt>
      <trkpt lat="51.0636850" lon="7.6003000">
        <ele>390.4300000</ele>
        <time>2010-08-20T12:37:03Z</time>
      </trkpt>
      <trkpt lat="51.0637280" lon="7.6001230">
        <ele>389.4700000</ele>
        <time>2010-08-20T12:37:04Z</time>
      </trkpt>
      <trkpt lat="51.0637620" lon="7.5999420">
        <ele>388.9900000</ele>
        <time>2010-08-20T12:37:05Z</time>
      </trkpt>
      <trkpt lat="51.0637830" lon="7.5997630">
        <ele>388.5100000</ele>
        <time>2010-08-20T12:37:06Z</time>
      </trkpt>
      <trkpt lat="51.0637500" lon="7.5994830">
        <ele>387.5500000</ele>
        <time>2010-08-20T12:37:07Z</time>
      </trkpt>
      <trkpt lat="51.0636960" lon="7.5992690">
        <ele>386.1100000</ele>
        <time>2010-08-20T12:37:08Z</time>
      </trkpt>
      <trkpt lat="51.0636480" lon="7.5990720">
        <ele>384.6600000</ele>
        <time>2010-08-20T12:37:09Z</time>
      </trkpt>
      <trkpt lat="51.0635890" lon="7.5989070">
        <ele>383.7000000</ele>
        <time>2010-08-20T12:37:10Z</time>
      </trkpt>
      <trkpt lat="51.0635050" lon="7.5987510">
        <ele>381.7800000</ele>
        <time>2010-08-20T12:37:11Z</time>
      </trkpt>
      <trkpt lat="51.0634100" lon="7.5985990">
        <ele>380.3400000</ele>
        <time>2010-08-20T12:37:12Z</time>
      </trkpt>
      <trkpt lat="51.0633040" lon="7.5984650">
        <ele>379.3800000</ele>
        <time>2010-08-20T12:37:13Z</time>
      </trkpt>
      <trkpt lat="51.0632140" lon="7.5983510">
        <ele>377.9400000</ele>
        <time>2010-08-20T12:37:14Z</time>
      </trkpt>
      <trkpt lat="51.0631150" lon="7.5982370">
        <ele>377.9400000</ele>
        <time>2010-08-20T12:37:15Z</time>
      </trkpt>
      <trkpt lat="51.0630540" lon="7.5981120">
        <ele>376.4900000</ele>
        <time>2010-08-20T12:37:16Z</time>
      </trkpt>
      <trkpt lat="51.0630170" lon="7.5979730">
        <ele>376.4900000</ele>
        <time>2010-08-20T12:37:17Z</time>
      </trkpt>
      <trkpt lat="51.0629840" lon="7.5978560">
        <ele>375.5300000</ele>
        <time>2010-08-20T12:37:18Z</time>
      </trkpt>
      <trkpt lat="51.0630420" lon="7.5977290">
        <ele>374.0900000</ele>
        <time>2010-08-20T12:37:19Z</time>
      </trkpt>
      <trkpt lat="51.0631050" lon="7.5976130">
        <ele>373.1300000</ele>
        <time>2010-08-20T12:37:20Z</time>
      </trkpt>
      <trkpt lat="51.0632000" lon="7.5975340">
        <ele>373.6100000</ele>
        <time>2010-08-20T12:37:21Z</time>
      </trkpt>
      <trkpt lat="51.0633040" lon="7.5974670">
        <ele>373.6100000</ele>
        <time>2010-08-20T12:37:22Z</time>
      </trkpt>
      <trkpt lat="51.0634130" lon="7.5974260">
        <ele>373.1300000</ele>
        <time>2010-08-20T12:37:23Z</time>
      </trkpt>
      <trkpt lat="51.0635240" lon="7.5974180">
        <ele>372.6500000</ele>
        <time>2010-08-20T12:37:24Z</time>
      </trkpt>
      <trkpt lat="51.0636350" lon="7.5974350">
        <ele>372.1700000</ele>
        <time>2010-08-20T12:37:25Z</time>
      </trkpt>
      <trkpt lat="51.0637470" lon="7.5974760">
        <ele>371.6900000</ele>
        <time>2010-08-20T12:37:26Z</time>
      </trkpt>
      <trkpt lat="51.0638540" lon="7.5975460">
        <ele>371.2100000</ele>
        <time>2010-08-20T12:37:27Z</time>
      </trkpt>
      <trkpt lat="51.0639650" lon="7.5976560">
        <ele>369.7600000</ele>
        <time>2010-08-20T12:37:28Z</time>
      </trkpt>
      <trkpt lat="51.0640790" lon="7.5977690">
        <ele>369.2800000</ele>
        <time>2010-08-20T12:37:29Z</time>
      </trkpt>
      <trkpt lat="51.0650900" lon="7.5990420">
        <ele>360.1500000</ele>
        <time>2010-08-20T12:37:38Z</time>
      </trkpt>
      <trkpt lat="51.0660880" lon="7.6007020">
        <ele>354.3800000</ele>
        <time>2010-08-20T12:37:48Z</time>
      </trkpt>
      <trkpt lat="51.0665650" lon="7.6015110">
        <ele>352.9400000</ele>
        <time>2010-08-20T12:37:54Z</time>
      </trkpt>
      <trkpt lat="51.0666230" lon="7.6015610">
        <ele>352.4600000</ele>
        <time>2010-08-20T12:37:55Z</time>
      </trkpt>
      <trkpt lat="51.0666840" lon="7.6015930">
        <ele>351.0200000</ele>
        <time>2010-08-20T12:37:56Z</time>
      </trkpt>
      <trkpt lat="51.0667670" lon="7.6015550">
        <ele>350.0600000</ele>
        <time>2010-08-20T12:37:57Z</time>
      </trkpt>
      <trkpt lat="51.0668430" lon="7.6014880">
        <ele>348.6200000</ele>
        <time>2010-08-20T12:37:58Z</time>
      </trkpt>
      <trkpt lat="51.0669040" lon="7.6013570">
        <ele>347.1700000</ele>
        <time>2010-08-20T12:37:59Z</time>
      </trkpt>
      <trkpt lat="51.0669430" lon="7.6012300">
        <ele>346.6900000</ele>
        <time>2010-08-20T12:38:00Z</time>
      </trkpt>
      <trkpt lat="51.0669890" lon="7.6009710">
        <ele>348.1300000</ele>
        <time>2010-08-20T12:38:01Z</time>
      </trkpt>
      <trkpt lat="51.0669930" lon="7.6007840">
        <ele>347.1700000</ele>
        <time>2010-08-20T12:38:02Z</time>
      </trkpt>
      <trkpt lat="51.0669900" lon="7.6005710">
        <ele>347.1700000</ele>
        <time>2010-08-20T12:38:03Z</time>
      </trkpt>
      <trkpt lat="51.0669840" lon="7.6003590">
        <ele>346.6900000</ele>
        <time>2010-08-20T12:38:04Z</time>
      </trkpt>
      <trkpt lat="51.0669680" lon="7.5997710">
        <ele>347.6500000</ele>
        <time>2010-08-20T12:38:07Z</time>
      </trkpt>
      <trkpt lat="51.0669450" lon="7.5996000">
        <ele>348.1300000</ele>
        <time>2010-08-20T12:38:08Z</time>
      </trkpt>
      <trkpt lat="51.0670360" lon="7.5990240">
        <ele>348.6200000</ele>
        <time>2010-08-20T12:38:14Z</time>
      </trkpt>
      <trkpt lat="51.0670470" lon="7.5989760">
        <ele>353.9000000</ele>
        <time>2010-08-20T12:38:22Z</time>
      </trkpt>
      <trkpt lat="51.0670760" lon="7.5990070">
        <ele>354.3800000</ele>
        <time>2010-08-20T12:38:23Z</time>
      </trkpt>
      <trkpt lat="51.0671370" lon="7.5990430">
        <ele>355.3400000</ele>
        <time>2010-08-20T12:38:24Z</time>
      </trkpt>
      <trkpt lat="51.0675820" lon="7.5991310">
        <ele>360.6300000</ele>
        <time>2010-08-20T12:38:28Z</time>
      </trkpt>
      <trkpt lat="51.0677350" lon="7.5990550">
        <ele>363.0400000</ele>
        <time>2010-08-20T12:38:29Z</time>
      </trkpt>
      <trkpt lat="51.0678900" lon="7.5990080">
        <ele>364.4800000</ele>
        <time>2010-08-20T12:38:30Z</time>
      </trkpt>
      <trkpt lat="51.0680600" lon="7.5988980">
        <ele>365.4400000</ele>
        <time>2010-08-20T12:38:31Z</time>
      </trkpt>
      <trkpt lat="51.0682140" lon="7.5988190">
        <ele>367.8400000</ele>
        <time>2010-08-20T12:38:32Z</time>
      </trkpt>
      <trkpt lat="51.0683720" lon="7.5987760">
        <ele>370.7300000</ele>
        <time>2010-08-20T12:38:33Z</time>
      </trkpt>
      <trkpt lat="51.0686210" lon="7.5987450">
        <ele>377.9400000</ele>
        <time>2010-08-20T12:38:35Z</time>
      </trkpt>
      <trkpt lat="51.0687470" lon="7.5987940">
        <ele>380.8200000</ele>
        <time>2010-08-20T12:38:36Z</time>
      </trkpt>
      <trkpt lat="51.0688940" lon="7.5988680">
        <ele>383.7000000</ele>
        <time>2010-08-20T12:38:37Z</time>
      </trkpt>
      <trkpt lat="51.0699290" lon="7.5994710">
        <ele>397.6400000</ele>
        <time>2010-08-20T12:38:43Z</time>
      </trkpt>
      <trkpt lat="51.0710980" lon="7.5997210">
        <ele>415.4300000</ele>
        <time>2010-08-20T12:38:50Z</time>
      </trkpt>
      <trkpt lat="51.0720460" lon="7.5994300">
        <ele>426.0000000</ele>
        <time>2010-08-20T12:38:57Z</time>
      </trkpt>
      <trkpt lat="51.0724420" lon="7.5992190">
        <ele>428.8900000</ele>
        <time>2010-08-20T12:39:00Z</time>
      </trkpt>
      <trkpt lat="51.0730110" lon="7.5989750">
        <ele>429.8500000</ele>
        <time>2010-08-20T12:39:04Z</time>
      </trkpt>
      <trkpt lat="51.0731190" lon="7.5990480">
        <ele>430.3300000</ele>
        <time>2010-08-20T12:39:05Z</time>
      </trkpt>
      <trkpt lat="51.0732520" lon="7.5991250">
        <ele>429.8500000</ele>
        <time>2010-08-20T12:39:06Z</time>
      </trkpt>
      <trkpt lat="51.0733640" lon="7.5992020">
        <ele>428.8900000</ele>
        <time>2010-08-20T12:39:07Z</time>
      </trkpt>
      <trkpt lat="51.0734360" lon="7.5993420">
        <ele>429.8500000</ele>
        <time>2010-08-20T12:39:08Z</time>
      </trkpt>
      <trkpt lat="51.0735060" lon="7.5994710">
        <ele>430.3300000</ele>
        <time>2010-08-20T12:39:09Z</time>
      </trkpt>
      <trkpt lat="51.0735710" lon="7.5995930">
        <ele>431.2900000</ele>
        <time>2010-08-20T12:39:10Z</time>
      </trkpt>
      <trkpt lat="51.0737760" lon="7.5998930">
        <ele>432.2500000</ele>
        <time>2010-08-20T12:39:13Z</time>
      </trkpt>
      <trkpt lat="51.0738530" lon="7.5999600">
        <ele>432.2500000</ele>
        <time>2010-08-20T12:39:14Z</time>
      </trkpt>
      <trkpt lat="51.0739390" lon="7.6000100">
        <ele>432.2500000</ele>
        <time>2010-08-20T12:39:15Z</time>
      </trkpt>
      <trkpt lat="51.0744850" lon="7.6002120">
        <ele>435.6100000</ele>
        <time>2010-08-20T12:39:21Z</time>
      </trkpt>
      <trkpt lat="51.0745510" lon="7.6002140">
        <ele>436.1000000</ele>
        <time>2010-08-20T12:39:22Z</time>
      </trkpt>
      <trkpt lat="51.0745990" lon="7.6002020">
        <ele>436.5800000</ele>
        <time>2010-08-20T12:39:23Z</time>
      </trkpt>
      <trkpt lat="51.0746360" lon="7.6001740">
        <ele>436.5800000</ele>
        <time>2010-08-20T12:39:24Z</time>
      </trkpt>
      <trkpt lat="51.0746730" lon="7.6001250">
        <ele>436.5800000</ele>
        <time>2010-08-20T12:39:25Z</time>
      </trkpt>
      <trkpt lat="51.0747110" lon="7.6000510">
        <ele>436.5800000</ele>
        <time>2010-08-20T12:39:26Z</time>
      </trkpt>
      <trkpt lat="51.0747530" lon="7.5999570">
        <ele>437.0600000</ele>
        <time>2010-08-20T12:39:27Z</time>
      </trkpt>
      <trkpt lat="51.0749060" lon="7.5996150">
        <ele>437.5400000</ele>
        <time>2010-08-20T12:39:30Z</time>
      </trkpt>
      <trkpt lat="51.0749710" lon="7.5995120">
        <ele>438.0200000</ele>
        <time>2010-08-20T12:39:31Z</time>
      </trkpt>
      <trkpt lat="51.0753390" lon="7.5989830">
        <ele>441.3800000</ele>
        <time>2010-08-20T12:39:37Z</time>
      </trkpt>
      <trkpt lat="51.0753760" lon="7.5989440">
        <ele>441.8600000</ele>
        <time>2010-08-20T12:39:38Z</time>
      </trkpt>
      <trkpt lat="51.0754170" lon="7.5988960">
        <ele>444.2700000</ele>
        <time>2010-08-20T12:39:43Z</time>
      </trkpt>
      <trkpt lat="51.0754070" lon="7.5988780">
        <ele>443.7900000</ele>
        <time>2010-08-20T12:39:44Z</time>
      </trkpt>
      <trkpt lat="51.0754140" lon="7.5988030">
        <ele>444.2700000</ele>
        <time>2010-08-20T12:39:45Z</time>
      </trkpt>
      <trkpt lat="51.0754140" lon="7.5987030">
        <ele>443.7900000</ele>
        <time>2010-08-20T12:39:46Z</time>
      </trkpt>
      <trkpt lat="51.0753950" lon="7.5985850">
        <ele>443.7900000</ele>
        <time>2010-08-20T12:39:47Z</time>
      </trkpt>
      <trkpt lat="51.0753610" lon="7.5984730">
        <ele>444.2700000</ele>
        <time>2010-08-20T12:39:48Z</time>
      </trkpt>
      <trkpt lat="51.0753190" lon="7.5983760">
        <ele>444.2700000</ele>
        <time>2010-08-20T12:39:49Z</time>
      </trkpt>
      <trkpt lat="51.0752770" lon="7.5982890">
        <ele>444.7500000</ele>
        <time>2010-08-20T12:39:50Z</time>
      </trkpt>
      <trkpt lat="51.0752090" lon="7.5981190">
        <ele>445.7100000</ele>
        <time>2010-08-20T12:39:53Z</time>
      </trkpt>
      <trkpt lat="51.0752120" lon="7.5981070">
        <ele>445.7100000</ele>
        <time>2010-08-20T12:40:00Z</time>
      </trkpt>
      <trkpt lat="51.0752200" lon="7.5980860">
        <ele>446.1900000</ele>
        <time>2010-08-20T12:40:01Z</time>
      </trkpt>
      <trkpt lat="51.0752360" lon="7.5980550">
        <ele>446.1900000</ele>
        <time>2010-08-20T12:40:02Z</time>
      </trkpt>
      <trkpt lat="51.0752670" lon="7.5980230">
        <ele>446.6700000</ele>
        <time>2010-08-20T12:40:03Z</time>
      </trkpt>
      <trkpt lat="51.0753110" lon="7.5979960">
        <ele>446.6700000</ele>
        <time>2010-08-20T12:40:04Z</time>
      </trkpt>
      <trkpt lat="51.0753680" lon="7.5979780">
        <ele>447.6300000</ele>
        <time>2010-08-20T12:40:05Z</time>
      </trkpt>
      <trkpt lat="51.0754260" lon="7.5979620">
        <ele>447.6300000</ele>
        <time>2010-08-20T12:40:06Z</time>
      </trkpt>
      <trkpt lat="51.0754780" lon="7.5979420">
        <ele>448.1100000</ele>
        <time>2010-08-20T12:40:07Z</time>
      </trkpt>
      <trkpt lat="51.0755250" lon="7.5979010">
        <ele>448.5900000</ele>
        <time>2010-08-20T12:40:08Z</time>
      </trkpt>
      <trkpt lat="51.0755630" lon="7.5978180">
        <ele>449.5500000</ele>
        <time>2010-08-20T12:40:09Z</time>
      </trkpt>
      <trkpt lat="51.0755790" lon="7.5977290">
        <ele>450.0300000</ele>
        <time>2010-08-20T12:40:10Z</time>
      </trkpt>
      <trkpt lat="51.0755880" lon="7.5976440">
        <ele>450.5200000</ele>
        <time>2010-08-20T12:40:11Z</time>
      </trkpt>
      <trkpt lat="51.0755830" lon="7.5974940">
        <ele>451.4800000</ele>
        <time>2010-08-20T12:40:14Z</time>
      </trkpt>
      <trkpt lat="51.0755610" lon="7.5974520">
        <ele>451.9600000</ele>
        <time>2010-08-20T12:40:15Z</time>
      </trkpt>
      <trkpt lat="51.0752310" lon="7.5968690">
        <ele>452.4400000</ele>
        <time>2010-08-20T12:40:22Z</time>
      </trkpt>
      <trkpt lat="51.0746000" lon="7.5955570">
        <ele>450.5200000</ele>
        <time>2010-08-20T12:40:34Z</time>
      </trkpt>
      <trkpt lat="51.0743770" lon="7.5948710">
        <ele>447.1500000</ele>
        <time>2010-08-20T12:40:41Z</time>
      </trkpt>
      <trkpt lat="51.0743710" lon="7.5948120">
        <ele>446.6700000</ele>
        <time>2010-08-20T12:40:42Z</time>
      </trkpt>
      <trkpt lat="51.0743730" lon="7.5947520">
        <ele>446.6700000</ele>
        <time>2010-08-20T12:40:43Z</time>
      </trkpt>
      <trkpt lat="51.0743880" lon="7.5946750">
        <ele>446.6700000</ele>
        <time>2010-08-20T12:40:44Z</time>
      </trkpt>
      <trkpt lat="51.0744210" lon="7.5945770">
        <ele>446.6700000</ele>
        <time>2010-08-20T12:40:45Z</time>
      </trkpt>
      <trkpt lat="51.0744700" lon="7.5944530">
        <ele>446.6700000</ele>
        <time>2010-08-20T12:40:46Z</time>
      </trkpt>
      <trkpt lat="51.0745190" lon="7.5943120">
        <ele>446.6700000</ele>
        <time>2010-08-20T12:40:47Z</time>
      </trkpt>
      <trkpt lat="51.0746040" lon="7.5940410">
        <ele>447.1500000</ele>
        <time>2010-08-20T12:40:49Z</time>
      </trkpt>
      <trkpt lat="51.0746580" lon="7.5939200">
        <ele>447.1500000</ele>
        <time>2010-08-20T12:40:50Z</time>
      </trkpt>
      <trkpt lat="51.0747240" lon="7.5938200">
        <ele>447.1500000</ele>
        <time>2010-08-20T12:40:51Z</time>
      </trkpt>
      <trkpt lat="51.0748010" lon="7.5937500">
        <ele>447.6300000</ele>
        <time>2010-08-20T12:40:52Z</time>
      </trkpt>
      <trkpt lat="51.0748980" lon="7.5937370">
        <ele>447.6300000</ele>
        <time>2010-08-20T12:40:53Z</time>
      </trkpt>
      <trkpt lat="51.0750070" lon="7.5937770">
        <ele>448.1100000</ele>
        <time>2010-08-20T12:40:54Z</time>
      </trkpt>
      <trkpt lat="51.0751170" lon="7.5938560">
        <ele>448.1100000</ele>
        <time>2010-08-20T12:40:55Z</time>
      </trkpt>
      <trkpt lat="51.0752380" lon="7.5939610">
        <ele>448.1100000</ele>
        <time>2010-08-20T12:40:56Z</time>
      </trkpt>
      <trkpt lat="51.0753700" lon="7.5940620">
        <ele>447.6300000</ele>
        <time>2010-08-20T12:40:57Z</time>
      </trkpt>
      <trkpt lat="51.0755030" lon="7.5941430">
        <ele>447.6300000</ele>
        <time>2010-08-20T12:40:58Z</time>
      </trkpt>
      <trkpt lat="51.0756350" lon="7.5942000">
        <ele>447.6300000</ele>
        <time>2010-08-20T12:40:59Z</time>
      </trkpt>
      <trkpt lat="51.0757690" lon="7.5942270">
        <ele>447.1500000</ele>
        <time>2010-08-20T12:41:00Z</time>
      </trkpt>
      <trkpt lat="51.0758950" lon="7.5942070">
        <ele>446.6700000</ele>
        <time>2010-08-20T12:41:01Z</time>
      </trkpt>
      <trkpt lat="51.0760160" lon="7.5941640">
        <ele>446.1900000</ele>
        <time>2010-08-20T12:41:02Z</time>
      </trkpt>
      <trkpt lat="51.0761270" lon="7.5940920">
        <ele>445.7100000</ele>
        <time>2010-08-20T12:41:03Z</time>
      </trkpt>
      <trkpt lat="51.0762320" lon="7.5940020">
        <ele>445.2300000</ele>
        <time>2010-08-20T12:41:04Z</time>
      </trkpt>
      <trkpt lat="51.0763300" lon="7.5938960">
        <ele>444.7500000</ele>
        <time>2010-08-20T12:41:05Z</time>
      </trkpt>
      <trkpt lat="51.0763910" lon="7.5937250">
        <ele>444.2700000</ele>
        <time>2010-08-20T12:41:06Z</time>
      </trkpt>
      <trkpt lat="51.0764070" lon="7.5935310">
        <ele>443.7900000</ele>
        <time>2010-08-20T12:41:07Z</time>
      </trkpt>
      <trkpt lat="51.0763750" lon="7.5932940">
        <ele>443.3100000</ele>
        <time>2010-08-20T12:41:08Z</time>
      </trkpt>
      <trkpt lat="51.0763060" lon="7.5930570">
        <ele>442.8200000</ele>
        <time>2010-08-20T12:41:09Z</time>
      </trkpt>
      <trkpt lat="51.0762200" lon="7.5928010">
        <ele>442.8200000</ele>
        <time>2010-08-20T12:41:10Z</time>
      </trkpt>
      <trkpt lat="51.0761330" lon="7.5925440">
        <ele>443.7900000</ele>
        <time>2010-08-20T12:41:11Z</time>
      </trkpt>
      <trkpt lat="51.0759370" lon="7.5918610">
        <ele>444.7500000</ele>
        <time>2010-08-20T12:41:14Z</time>
      </trkpt>
      <trkpt lat="51.0758390" lon="7.5916730">
        <ele>444.7500000</ele>
        <time>2010-08-20T12:41:15Z</time>
      </trkpt>
      <trkpt lat="51.0757170" lon="7.5914800">
        <ele>444.7500000</ele>
        <time>2010-08-20T12:41:16Z</time>
      </trkpt>
      <trkpt lat="51.0755840" lon="7.5912960">
        <ele>445.2300000</ele>
        <time>2010-08-20T12:41:17Z</time>
      </trkpt>
      <trkpt lat="51.0754510" lon="7.5911310">
        <ele>445.7100000</ele>
        <time>2010-08-20T12:41:18Z</time>
      </trkpt>
      <trkpt lat="51.0750700" lon="7.5905590">
        <ele>446.1900000</ele>
        <time>2010-08-20T12:41:22Z</time>
      </trkpt>
      <trkpt lat="51.0750540" lon="7.5903920">
        <ele>446.1900000</ele>
        <time>2010-08-20T12:41:23Z</time>
      </trkpt>
      <trkpt lat="51.0750540" lon="7.5901800">
        <ele>446.1900000</ele>
        <time>2010-08-20T12:41:24Z</time>
      </trkpt>
      <trkpt lat="51.0749320" lon="7.5885540">
        <ele>448.1100000</ele>
        <time>2010-08-20T12:41:30Z</time>
      </trkpt>
      <trkpt lat="51.0745140" lon="7.5867090">
        <ele>449.5500000</ele>
        <time>2010-08-20T12:41:37Z</time>
      </trkpt>
      <trkpt lat="51.0744850" lon="7.5864730">
        <ele>449.0700000</ele>
        <time>2010-08-20T12:41:38Z</time>
      </trkpt>
      <trkpt lat="51.0744770" lon="7.5862170">
        <ele>448.5900000</ele>
        <time>2010-08-20T12:41:39Z</time>
      </trkpt>
      <trkpt lat="51.0744300" lon="7.5850900">
        <ele>445.2300000</ele>
        <time>2010-08-20T12:41:43Z</time>
      </trkpt>
      <trkpt lat="51.0743810" lon="7.5847960">
        <ele>444.7500000</ele>
        <time>2010-08-20T12:41:44Z</time>
      </trkpt>
      <trkpt lat="51.0743110" lon="7.5845090">
        <ele>443.7900000</ele>
        <time>2010-08-20T12:41:45Z</time>
      </trkpt>
      <trkpt lat="51.0742140" lon="7.5842350">
        <ele>443.3100000</ele>
        <time>2010-08-20T12:41:46Z</time>
      </trkpt>
      <trkpt lat="51.0740940" lon="7.5839700">
        <ele>441.8600000</ele>
        <time>2010-08-20T12:41:47Z</time>
      </trkpt>
      <trkpt lat="51.0739650" lon="7.5837070">
        <ele>440.9000000</ele>
        <time>2010-08-20T12:41:48Z</time>
      </trkpt>
      <trkpt lat="51.0728660" lon="7.5814680">
        <ele>431.7700000</ele>
        <time>2010-08-20T12:41:57Z</time>
      </trkpt>
      <trkpt lat="51.0724000" lon="7.5802620">
        <ele>427.9200000</ele>
        <time>2010-08-20T12:42:02Z</time>
      </trkpt>
      <trkpt lat="51.0723430" lon="7.5800220">
        <ele>426.9600000</ele>
        <time>2010-08-20T12:42:03Z</time>
      </trkpt>
      <trkpt lat="51.0722950" lon="7.5797690">
        <ele>426.0000000</ele>
        <time>2010-08-20T12:42:04Z</time>
      </trkpt>
      <trkpt lat="51.0722590" lon="7.5795040">
        <ele>425.5200000</ele>
        <time>2010-08-20T12:42:05Z</time>
      </trkpt>
      <trkpt lat="51.0722370" lon="7.5792360">
        <ele>424.5600000</ele>
        <time>2010-08-20T12:42:06Z</time>
      </trkpt>
      <trkpt lat="51.0722300" lon="7.5789740">
        <ele>423.6000000</ele>
        <time>2010-08-20T12:42:07Z</time>
      </trkpt>
      <trkpt lat="51.0722290" lon="7.5787220">
        <ele>423.1200000</ele>
        <time>2010-08-20T12:42:08Z</time>
      </trkpt>
      <trkpt lat="51.0722080" lon="7.5766750">
        <ele>419.7500000</ele>
        <time>2010-08-20T12:42:17Z</time>
      </trkpt>
      <trkpt lat="51.0722310" lon="7.5765050">
        <ele>420.2300000</ele>
        <time>2010-08-20T12:42:18Z</time>
      </trkpt>
      <trkpt lat="51.0722680" lon="7.5763740">
        <ele>420.2300000</ele>
        <time>2010-08-20T12:42:19Z</time>
      </trkpt>
      <trkpt lat="51.0723080" lon="7.5762810">
        <ele>420.2300000</ele>
        <time>2010-08-20T12:42:20Z</time>
      </trkpt>
      <trkpt lat="51.0723440" lon="7.5762120">
        <ele>420.7100000</ele>
        <time>2010-08-20T12:42:21Z</time>
      </trkpt>
      <trkpt lat="51.0723710" lon="7.5761600">
        <ele>420.7100000</ele>
        <time>2010-08-20T12:42:22Z</time>
      </trkpt>
      <trkpt lat="51.0724020" lon="7.5760600">
        <ele>420.2300000</ele>
        <time>2010-08-20T12:42:24Z</time>
      </trkpt>
      <trkpt lat="51.0723990" lon="7.5759710">
        <ele>420.2300000</ele>
        <time>2010-08-20T12:42:25Z</time>
      </trkpt>
      <trkpt lat="51.0723680" lon="7.5758680">
        <ele>419.7500000</ele>
        <time>2010-08-20T12:42:26Z</time>
      </trkpt>
      <trkpt lat="51.0722920" lon="7.5757360">
        <ele>419.2700000</ele>
        <time>2010-08-20T12:42:27Z</time>
      </trkpt>
      <trkpt lat="51.0721900" lon="7.5755860">
        <ele>419.2700000</ele>
        <time>2010-08-20T12:42:28Z</time>
      </trkpt>
      <trkpt lat="51.0720840" lon="7.5754290">
        <ele>418.7900000</ele>
        <time>2010-08-20T12:42:29Z</time>
      </trkpt>
      <trkpt lat="51.0713630" lon="7.5737250">
        <ele>414.4700000</ele>
        <time>2010-08-20T12:42:38Z</time>
      </trkpt>
      <trkpt lat="51.0708980" lon="7.5717730">
        <ele>409.6600000</ele>
        <time>2010-08-20T12:42:49Z</time>
      </trkpt>
      <trkpt lat="51.0708820" lon="7.5716340">
        <ele>409.1800000</ele>
        <time>2010-08-20T12:42:50Z</time>
      </trkpt>
      <trkpt lat="51.0708810" lon="7.5715040">
        <ele>408.7000000</ele>
        <time>2010-08-20T12:42:51Z</time>
      </trkpt>
      <trkpt lat="51.0708810" lon="7.5713830">
        <ele>408.7000000</ele>
        <time>2010-08-20T12:42:52Z</time>
      </trkpt>
      <trkpt lat="51.0708640" lon="7.5712760">
        <ele>408.2200000</ele>
        <time>2010-08-20T12:42:53Z</time>
      </trkpt>
      <trkpt lat="51.0708250" lon="7.5711790">
        <ele>407.7400000</ele>
        <time>2010-08-20T12:42:54Z</time>
      </trkpt>
      <trkpt lat="51.0707700" lon="7.5710660">
        <ele>407.7400000</ele>
        <time>2010-08-20T12:42:55Z</time>
      </trkpt>
      <trkpt lat="51.0707080" lon="7.5709130">
        <ele>407.2600000</ele>
        <time>2010-08-20T12:42:56Z</time>
      </trkpt>
      <trkpt lat="51.0706580" lon="7.5707000">
        <ele>406.7700000</ele>
        <time>2010-08-20T12:42:57Z</time>
      </trkpt>
      <trkpt lat="51.0702130" lon="7.5690380">
        <ele>403.4100000</ele>
        <time>2010-08-20T12:43:02Z</time>
      </trkpt>
      <trkpt lat="51.0695800" lon="7.5670630">
        <ele>398.1200000</ele>
        <time>2010-08-20T12:43:06Z</time>
      </trkpt>
      <trkpt lat="51.0682920" lon="7.5638870">
        <ele>388.9900000</ele>
        <time>2010-08-20T12:43:13Z</time>
      </trkpt>
      <trkpt lat="51.0671350" lon="7.5616490">
        <ele>383.2200000</ele>
        <time>2010-08-20T12:43:20Z</time>
      </trkpt>
      <trkpt lat="51.0660020" lon="7.5599260">
        <ele>383.7000000</ele>
        <time>2010-08-20T12:43:28Z</time>
      </trkpt>
      <trkpt lat="51.0655300" lon="7.5591150">
        <ele>385.6300000</ele>
        <time>2010-08-20T12:43:33Z</time>
      </trkpt>
      <trkpt lat="51.0654850" lon="7.5589750">
        <ele>385.6300000</ele>
        <time>2010-08-20T12:43:34Z</time>
      </trkpt>
      <trkpt lat="51.0654870" lon="7.5589060">
        <ele>386.1100000</ele>
        <time>2010-08-20T12:43:35Z</time>
      </trkpt>
      <trkpt lat="51.0655110" lon="7.5588250">
        <ele>385.6300000</ele>
        <time>2010-08-20T12:43:36Z</time>
      </trkpt>
      <trkpt lat="51.0655430" lon="7.5587550">
        <ele>386.1100000</ele>
        <time>2010-08-20T12:43:37Z</time>
      </trkpt>
      <trkpt lat="51.0655700" lon="7.5587060">
        <ele>386.5900000</ele>
        <time>2010-08-20T12:43:38Z</time>
      </trkpt>
      <trkpt lat="51.0655880" lon="7.5586730">
        <ele>387.0700000</ele>
        <time>2010-08-20T12:43:39Z</time>
      </trkpt>
      <trkpt lat="51.0656070" lon="7.5585720">
        <ele>388.0300000</ele>
        <time>2010-08-20T12:43:49Z</time>
      </trkpt>
      <trkpt lat="51.0655620" lon="7.5585170">
        <ele>387.5500000</ele>
        <time>2010-08-20T12:43:50Z</time>
      </trkpt>
      <trkpt lat="51.0654740" lon="7.5584820">
        <ele>387.0700000</ele>
        <time>2010-08-20T12:43:51Z</time>
      </trkpt>
      <trkpt lat="51.0653690" lon="7.5584620">
        <ele>386.5900000</ele>
        <time>2010-08-20T12:43:52Z</time>
      </trkpt>
      <trkpt lat="51.0652460" lon="7.5584410">
        <ele>386.1100000</ele>
        <time>2010-08-20T12:43:53Z</time>
      </trkpt>
      <trkpt lat="51.0641660" lon="7.5579590">
        <ele>380.8200000</ele>
        <time>2010-08-20T12:44:00Z</time>
      </trkpt>
      <trkpt lat="51.0623480" lon="7.5565510">
        <ele>375.5300000</ele>
        <time>2010-08-20T12:44:12Z</time>
      </trkpt>
      <trkpt lat="51.0607960" lon="7.5553790">
        <ele>372.1700000</ele>
        <time>2010-08-20T12:44:22Z</time>
      </trkpt>
      <trkpt lat="51.0589380" lon="7.5540120">
        <ele>367.8400000</ele>
        <time>2010-08-20T12:44:34Z</time>
      </trkpt>
      <trkpt lat="51.0588030" lon="7.5538920">
        <ele>367.8400000</ele>
        <time>2010-08-20T12:44:35Z</time>
      </trkpt>
      <trkpt lat="51.0586790" lon="7.5537510">
        <ele>367.3600000</ele>
        <time>2010-08-20T12:44:36Z</time>
      </trkpt>
      <trkpt lat="51.0585710" lon="7.5535840">
        <ele>366.8800000</ele>
        <time>2010-08-20T12:44:37Z</time>
      </trkpt>
      <trkpt lat="51.0584860" lon="7.5533540">
        <ele>366.8800000</ele>
        <time>2010-08-20T12:44:38Z</time>
      </trkpt>
      <trkpt lat="51.0584190" lon="7.5531230">
        <ele>366.8800000</ele>
        <time>2010-08-20T12:44:39Z</time>
      </trkpt>
      <trkpt lat="51.0583690" lon="7.5528680">
        <ele>366.8800000</ele>
        <time>2010-08-20T12:44:40Z</time>
      </trkpt>
      <trkpt lat="51.0583210" lon="7.5526020">
        <ele>366.8800000</ele>
        <time>2010-08-20T12:44:41Z</time>
      </trkpt>
      <trkpt lat="51.0577390" lon="7.5497150">
        <ele>372.1700000</ele>
        <time>2010-08-20T12:44:53Z</time>
      </trkpt>
      <trkpt lat="51.0575840" lon="7.5493290">
        <ele>372.1700000</ele>
        <time>2010-08-20T12:44:55Z</time>
      </trkpt>
      <trkpt lat="51.0574900" lon="7.5491430">
        <ele>371.6900000</ele>
        <time>2010-08-20T12:44:56Z</time>
      </trkpt>
      <trkpt lat="51.0564310" lon="7.5472700">
        <ele>366.8800000</ele>
        <time>2010-08-20T12:45:06Z</time>
      </trkpt>
      <trkpt lat="51.0559580" lon="7.5464160">
        <ele>365.4400000</ele>
        <time>2010-08-20T12:45:13Z</time>
      </trkpt>
      <trkpt lat="51.0556290" lon="7.5458410">
        <ele>364.9600000</ele>
        <time>2010-08-20T12:45:22Z</time>
      </trkpt>
      <trkpt lat="51.0553060" lon="7.5452520">
        <ele>364.9600000</ele>
        <time>2010-08-20T12:45:33Z</time>
      </trkpt>
      <trkpt lat="51.0552980" lon="7.5452400">
        <ele>364.9600000</ele>
        <time>2010-08-20T12:45:45Z</time>
      </trkpt>
      <trkpt lat="51.0551650" lon="7.5449590">
        <ele>364.4800000</ele>
        <time>2010-08-20T12:46:57Z</time>
      </trkpt>
      <trkpt lat="51.0548090" lon="7.5442970">
        <ele>363.5200000</ele>
        <time>2010-08-20T12:47:05Z</time>
      </trkpt>
      <trkpt lat="51.0546860" lon="7.5440760">
        <ele>364.0000000</ele>
        <time>2010-08-20T12:47:12Z</time>
      </trkpt>
      <trkpt lat="51.0545280" lon="7.5437540">
        <ele>366.4000000</ele>
        <time>2010-08-20T12:48:36Z</time>
      </trkpt>
      <trkpt lat="51.0544060" lon="7.5435310">
        <ele>365.9200000</ele>
        <time>2010-08-20T12:48:39Z</time>
      </trkpt>
      <trkpt lat="51.0543940" lon="7.5434620">
        <ele>365.4400000</ele>
        <time>2010-08-20T12:48:40Z</time>
      </trkpt>
      <trkpt lat="51.0544020" lon="7.5434010">
        <ele>365.4400000</ele>
        <time>2010-08-20T12:48:41Z</time>
      </trkpt>
      <trkpt lat="51.0544270" lon="7.5433440">
        <ele>365.4400000</ele>
        <time>2010-08-20T12:48:42Z</time>
      </trkpt>
      <trkpt lat="51.0544740" lon="7.5432850">
        <ele>364.9600000</ele>
        <time>2010-08-20T12:48:43Z</time>
      </trkpt>
      <trkpt lat="51.0545450" lon="7.5432230">
        <ele>364.9600000</ele>
        <time>2010-08-20T12:48:44Z</time>
      </trkpt>
      <trkpt lat="51.0546330" lon="7.5431520">
        <ele>364.4800000</ele>
        <time>2010-08-20T12:48:45Z</time>
      </trkpt>
      <trkpt lat="51.0553590" lon="7.5425460">
        <ele>361.1100000</ele>
        <time>2010-08-20T12:48:52Z</time>
      </trkpt>
      <trkpt lat="51.0559770" lon="7.5422580">
        <ele>356.7900000</ele>
        <time>2010-08-20T12:48:57Z</time>
      </trkpt>
      <trkpt lat="51.0561130" lon="7.5422360">
        <ele>355.3400000</ele>
        <time>2010-08-20T12:48:58Z</time>
      </trkpt>
      <trkpt lat="51.0563680" lon="7.5421850">
        <ele>353.4200000</ele>
        <time>2010-08-20T12:49:00Z</time>
      </trkpt>
      <trkpt lat="51.0564850" lon="7.5421240">
        <ele>351.9800000</ele>
        <time>2010-08-20T12:49:01Z</time>
      </trkpt>
      <trkpt lat="51.0565930" lon="7.5420390">
        <ele>351.0200000</ele>
        <time>2010-08-20T12:49:02Z</time>
      </trkpt>
      <trkpt lat="51.0570010" lon="7.5415830">
        <ele>346.2100000</ele>
        <time>2010-08-20T12:49:06Z</time>
      </trkpt>
      <trkpt lat="51.0573710" lon="7.5410270">
        <ele>339.4800000</ele>
        <time>2010-08-20T12:49:10Z</time>
      </trkpt>
      <trkpt lat="51.0574450" lon="7.5408330">
        <ele>338.0400000</ele>
        <time>2010-08-20T12:49:11Z</time>
      </trkpt>
      <trkpt lat="51.0578720" lon="7.5399640">
        <ele>329.3900000</ele>
        <time>2010-08-20T12:49:17Z</time>
      </trkpt>
      <trkpt lat="51.0579530" lon="7.5398710">
        <ele>328.9100000</ele>
        <time>2010-08-20T12:49:18Z</time>
      </trkpt>
      <trkpt lat="51.0580320" lon="7.5397860">
        <ele>327.9500000</ele>
        <time>2010-08-20T12:49:19Z</time>
      </trkpt>
      <trkpt lat="51.0582330" lon="7.5395580">
        <ele>326.9900000</ele>
        <time>2010-08-20T12:49:22Z</time>
      </trkpt>
      <trkpt lat="51.0582750" lon="7.5394670">
        <ele>326.5000000</ele>
        <time>2010-08-20T12:49:23Z</time>
      </trkpt>
      <trkpt lat="51.0583070" lon="7.5393660">
        <ele>326.0200000</ele>
        <time>2010-08-20T12:49:24Z</time>
      </trkpt>
      <trkpt lat="51.0583230" lon="7.5392520">
        <ele>325.0600000</ele>
        <time>2010-08-20T12:49:25Z</time>
      </trkpt>
      <trkpt lat="51.0583220" lon="7.5391270">
        <ele>324.1000000</ele>
        <time>2010-08-20T12:49:26Z</time>
      </trkpt>
      <trkpt lat="51.0583020" lon="7.5389910">
        <ele>323.1400000</ele>
        <time>2010-08-20T12:49:27Z</time>
      </trkpt>
      <trkpt lat="51.0582740" lon="7.5388600">
        <ele>322.1800000</ele>
        <time>2010-08-20T12:49:28Z</time>
      </trkpt>
      <trkpt lat="51.0582300" lon="7.5384180">
        <ele>318.8100000</ele>
        <time>2010-08-20T12:49:31Z</time>
      </trkpt>
      <trkpt lat="51.0582640" lon="7.5382790">
        <ele>317.3700000</ele>
        <time>2010-08-20T12:49:32Z</time>
      </trkpt>
      <trkpt lat="51.0583450" lon="7.5381590">
        <ele>316.4100000</ele>
        <time>2010-08-20T12:49:33Z</time>
      </trkpt>
      <trkpt lat="51.0592960" lon="7.5369060">
        <ele>304.8800000</ele>
        <time>2010-08-20T12:49:43Z</time>
      </trkpt>
      <trkpt lat="51.0604250" lon="7.5355560">
        <ele>297.1800000</ele>
        <time>2010-08-20T12:49:54Z</time>
      </trkpt>
      <trkpt lat="51.0614580" lon="7.5346980">
        <ele>295.7400000</ele>
        <time>2010-08-20T12:50:03Z</time>
      </trkpt>
      <trkpt lat="51.0615330" lon="7.5345730">
        <ele>296.2200000</ele>
        <time>2010-08-20T12:50:04Z</time>
      </trkpt>
      <trkpt lat="51.0615970" lon="7.5344320">
        <ele>296.2200000</ele>
        <time>2010-08-20T12:50:05Z</time>
      </trkpt>
      <trkpt lat="51.0616530" lon="7.5342850">
        <ele>296.2200000</ele>
        <time>2010-08-20T12:50:06Z</time>
      </trkpt>
      <trkpt lat="51.0616990" lon="7.5341390">
        <ele>296.2200000</ele>
        <time>2010-08-20T12:50:07Z</time>
      </trkpt>
      <trkpt lat="51.0617390" lon="7.5339960">
        <ele>296.2200000</ele>
        <time>2010-08-20T12:50:08Z</time>
      </trkpt>
      <trkpt lat="51.0620680" lon="7.5327610">
        <ele>292.8600000</ele>
        <time>2010-08-20T12:50:16Z</time>
      </trkpt>
      <trkpt lat="51.0620890" lon="7.5326090">
        <ele>292.8600000</ele>
        <time>2010-08-20T12:50:17Z</time>
      </trkpt>
      <trkpt lat="51.0621090" lon="7.5320980">
        <ele>291.9000000</ele>
        <time>2010-08-20T12:50:20Z</time>
      </trkpt>
      <trkpt lat="51.0620840" lon="7.5319100">
        <ele>291.9000000</ele>
        <time>2010-08-20T12:50:21Z</time>
      </trkpt>
      <trkpt lat="51.0620410" lon="7.5317170">
        <ele>291.4200000</ele>
        <time>2010-08-20T12:50:22Z</time>
      </trkpt>
      <trkpt lat="51.0619130" lon="7.5311260">
        <ele>289.4900000</ele>
        <time>2010-08-20T12:50:25Z</time>
      </trkpt>
      <trkpt lat="51.0618910" lon="7.5309020">
        <ele>289.0100000</ele>
        <time>2010-08-20T12:50:26Z</time>
      </trkpt>
      <trkpt lat="51.0618790" lon="7.5306560">
        <ele>288.5300000</ele>
        <time>2010-08-20T12:50:27Z</time>
      </trkpt>
      <trkpt lat="51.0618340" lon="7.5291670">
        <ele>285.1700000</ele>
        <time>2010-08-20T12:50:33Z</time>
      </trkpt>
      <trkpt lat="51.0618000" lon="7.5289350">
        <ele>284.6900000</ele>
        <time>2010-08-20T12:50:34Z</time>
      </trkpt>
      <trkpt lat="51.0617470" lon="7.5287320">
        <ele>284.6900000</ele>
        <time>2010-08-20T12:50:35Z</time>
      </trkpt>
      <trkpt lat="51.0616760" lon="7.5285410">
        <ele>284.2100000</ele>
        <time>2010-08-20T12:50:36Z</time>
      </trkpt>
      <trkpt lat="51.0615840" lon="7.5283450">
        <ele>284.2100000</ele>
        <time>2010-08-20T12:50:37Z</time>
      </trkpt>
      <trkpt lat="51.0614830" lon="7.5281390">
        <ele>283.7300000</ele>
        <time>2010-08-20T12:50:38Z</time>
      </trkpt>
      <trkpt lat="51.0608420" lon="7.5263940">
        <ele>280.8400000</ele>
        <time>2010-08-20T12:50:46Z</time>
      </trkpt>
      <trkpt lat="51.0602160" lon="7.5244820">
        <ele>278.9200000</ele>
        <time>2010-08-20T12:50:55Z</time>
      </trkpt>
      <trkpt lat="51.0599310" lon="7.5235460">
        <ele>278.9200000</ele>
        <time>2010-08-20T12:51:00Z</time>
      </trkpt>
      <trkpt lat="51.0598980" lon="7.5233330">
        <ele>278.4400000</ele>
        <time>2010-08-20T12:51:01Z</time>
      </trkpt>
      <trkpt lat="51.0597790" lon="7.5222080">
        <ele>276.5200000</ele>
        <time>2010-08-20T12:51:06Z</time>
      </trkpt>
      <trkpt lat="51.0597830" lon="7.5219800">
        <ele>276.5200000</ele>
        <time>2010-08-20T12:51:07Z</time>
      </trkpt>
      <trkpt lat="51.0598020" lon="7.5217510">
        <ele>276.0400000</ele>
        <time>2010-08-20T12:51:08Z</time>
      </trkpt>
      <trkpt lat="51.0597640" lon="7.5196920">
        <ele>275.0700000</ele>
        <time>2010-08-20T12:51:16Z</time>
      </trkpt>
      <trkpt lat="51.0595450" lon="7.5178880">
        <ele>274.5900000</ele>
        <time>2010-08-20T12:51:24Z</time>
      </trkpt>
      <trkpt lat="51.0594650" lon="7.5171230">
        <ele>274.1100000</ele>
        <time>2010-08-20T12:51:28Z</time>
      </trkpt>
      <trkpt lat="51.0594310" lon="7.5169680">
        <ele>274.1100000</ele>
        <time>2010-08-20T12:51:29Z</time>
      </trkpt>
      <trkpt lat="51.0593630" lon="7.5166300">
        <ele>274.5900000</ele>
        <time>2010-08-20T12:51:32Z</time>
      </trkpt>
      <trkpt lat="51.0593580" lon="7.5165560">
        <ele>274.5900000</ele>
        <time>2010-08-20T12:51:33Z</time>
      </trkpt>
      <trkpt lat="51.0593530" lon="7.5164930">
        <ele>274.5900000</ele>
        <time>2010-08-20T12:51:34Z</time>
      </trkpt>
      <trkpt lat="51.0593390" lon="7.5164350">
        <ele>274.5900000</ele>
        <time>2010-08-20T12:51:35Z</time>
      </trkpt>
      <trkpt lat="51.0593100" lon="7.5163760">
        <ele>274.5900000</ele>
        <time>2010-08-20T12:51:36Z</time>
      </trkpt>
      <trkpt lat="51.0592580" lon="7.5163150">
        <ele>274.5900000</ele>
        <time>2010-08-20T12:51:37Z</time>
      </trkpt>
      <trkpt lat="51.0591910" lon="7.5162500">
        <ele>274.1100000</ele>
        <time>2010-08-20T12:51:38Z</time>
      </trkpt>
      <trkpt lat="51.0591140" lon="7.5161670">
        <ele>274.1100000</ele>
        <time>2010-08-20T12:51:39Z</time>
      </trkpt>
      <trkpt lat="51.0590360" lon="7.5160560">
        <ele>273.6300000</ele>
        <time>2010-08-20T12:51:40Z</time>
      </trkpt>
      <trkpt lat="51.0589590" lon="7.5159170">
        <ele>273.1500000</ele>
        <time>2010-08-20T12:51:41Z</time>
      </trkpt>
      <trkpt lat="51.0586760" lon="7.5152410">
        <ele>272.1900000</ele>
        <time>2010-08-20T12:51:45Z</time>
      </trkpt>
      <trkpt lat="51.0586120" lon="7.5149980">
        <ele>272.1900000</ele>
        <time>2010-08-20T12:51:46Z</time>
      </trkpt>
      <trkpt lat="51.0585620" lon="7.5147380">
        <ele>271.7100000</ele>
        <time>2010-08-20T12:51:47Z</time>
      </trkpt>
      <trkpt lat="51.0579490" lon="7.5122710">
        <ele>269.3100000</ele>
        <time>2010-08-20T12:51:57Z</time>
      </trkpt>
      <trkpt lat="51.0571640" lon="7.5096400">
        <ele>268.3500000</ele>
        <time>2010-08-20T12:52:07Z</time>
      </trkpt>
      <trkpt lat="51.0560080" lon="7.5071790">
        <ele>266.4200000</ele>
        <time>2010-08-20T12:52:17Z</time>
      </trkpt>
      <trkpt lat="51.0558490" lon="7.5067610">
        <ele>265.9400000</ele>
        <time>2010-08-20T12:52:21Z</time>
      </trkpt>
      <trkpt lat="51.0558600" lon="7.5066950">
        <ele>265.9400000</ele>
        <time>2010-08-20T12:52:22Z</time>
      </trkpt>
      <trkpt lat="51.0558910" lon="7.5066280">
        <ele>265.9400000</ele>
        <time>2010-08-20T12:52:23Z</time>
      </trkpt>
      <trkpt lat="51.0559450" lon="7.5065450">
        <ele>266.4200000</ele>
        <time>2010-08-20T12:52:24Z</time>
      </trkpt>
      <trkpt lat="51.0560000" lon="7.5064410">
        <ele>266.9000000</ele>
        <time>2010-08-20T12:52:25Z</time>
      </trkpt>
      <trkpt lat="51.0560860" lon="7.5063310">
        <ele>267.8600000</ele>
        <time>2010-08-20T12:52:26Z</time>
      </trkpt>
      <trkpt lat="51.0561650" lon="7.5062200">
        <ele>268.8300000</ele>
        <time>2010-08-20T12:52:27Z</time>
      </trkpt>
      <trkpt lat="51.0562530" lon="7.5061150">
        <ele>269.3100000</ele>
        <time>2010-08-20T12:52:28Z</time>
      </trkpt>
      <trkpt lat="51.0563450" lon="7.5060110">
        <ele>269.7900000</ele>
        <time>2010-08-20T12:52:29Z</time>
      </trkpt>
      <trkpt lat="51.0564390" lon="7.5059060">
        <ele>270.2700000</ele>
        <time>2010-08-20T12:52:30Z</time>
      </trkpt>
      <trkpt lat="51.0572440" lon="7.5051540">
        <ele>273.1500000</ele>
        <time>2010-08-20T12:52:37Z</time>
      </trkpt>
      <trkpt lat="51.0577200" lon="7.5050980">
        <ele>275.0700000</ele>
        <time>2010-08-20T12:52:40Z</time>
      </trkpt>
      <trkpt lat="51.0579000" lon="7.5050990">
        <ele>276.0400000</ele>
        <time>2010-08-20T12:52:41Z</time>
      </trkpt>
      <trkpt lat="51.0588170" lon="7.5048760">
        <ele>281.3200000</ele>
        <time>2010-08-20T12:52:47Z</time>
      </trkpt>
      <trkpt lat="51.0592800" lon="7.5046550">
        <ele>285.6500000</ele>
        <time>2010-08-20T12:52:50Z</time>
      </trkpt>
      <trkpt lat="51.0594590" lon="7.5046250">
        <ele>286.6100000</ele>
        <time>2010-08-20T12:52:51Z</time>
      </trkpt>
      <trkpt lat="51.0596100" lon="7.5046240">
        <ele>287.0900000</ele>
        <time>2010-08-20T12:52:52Z</time>
      </trkpt>
      <trkpt lat="51.0597450" lon="7.5046430">
        <ele>288.0500000</ele>
        <time>2010-08-20T12:52:53Z</time>
      </trkpt>
      <trkpt lat="51.0598770" lon="7.5046510">
        <ele>288.0500000</ele>
        <time>2010-08-20T12:52:54Z</time>
      </trkpt>
      <trkpt lat="51.0600180" lon="7.5046190">
        <ele>288.5300000</ele>
        <time>2010-08-20T12:52:55Z</time>
      </trkpt>
      <trkpt lat="51.0601820" lon="7.5045530">
        <ele>289.0100000</ele>
        <time>2010-08-20T12:52:56Z</time>
      </trkpt>
      <trkpt lat="51.0603560" lon="7.5044540">
        <ele>289.9700000</ele>
        <time>2010-08-20T12:52:57Z</time>
      </trkpt>
      <trkpt lat="51.0605210" lon="7.5043480">
        <ele>290.9400000</ele>
        <time>2010-08-20T12:52:58Z</time>
      </trkpt>
      <trkpt lat="51.0608260" lon="7.5042090">
        <ele>291.9000000</ele>
        <time>2010-08-20T12:53:00Z</time>
      </trkpt>
      <trkpt lat="51.0609750" lon="7.5041750">
        <ele>293.8200000</ele>
        <time>2010-08-20T12:53:01Z</time>
      </trkpt>
      <trkpt lat="51.0611060" lon="7.5040960">
        <ele>295.7400000</ele>
        <time>2010-08-20T12:53:02Z</time>
      </trkpt>
      <trkpt lat="51.0620760" lon="7.5034700">
        <ele>300.0700000</ele>
        <time>2010-08-20T12:53:09Z</time>
      </trkpt>
      <trkpt lat="51.0622270" lon="7.5032920">
        <ele>301.0300000</ele>
        <time>2010-08-20T12:53:10Z</time>
      </trkpt>
      <trkpt lat="51.0623720" lon="7.5030770">
        <ele>301.5100000</ele>
        <time>2010-08-20T12:53:11Z</time>
      </trkpt>
      <trkpt lat="51.0634890" lon="7.5018880">
        <ele>305.3600000</ele>
        <time>2010-08-20T12:53:18Z</time>
      </trkpt>
      <trkpt lat="51.0636250" lon="7.5017790">
        <ele>305.3600000</ele>
        <time>2010-08-20T12:53:19Z</time>
      </trkpt>
      <trkpt lat="51.0637660" lon="7.5017240">
        <ele>305.8400000</ele>
        <time>2010-08-20T12:53:20Z</time>
      </trkpt>
      <trkpt lat="51.0639200" lon="7.5016540">
        <ele>306.3200000</ele>
        <time>2010-08-20T12:53:21Z</time>
      </trkpt>
      <trkpt lat="51.0650720" lon="7.5011050">
        <ele>314.4900000</ele>
        <time>2010-08-20T12:53:29Z</time>
      </trkpt>
      <trkpt lat="51.0651760" lon="7.5009580">
        <ele>314.4900000</ele>
        <time>2010-08-20T12:53:30Z</time>
      </trkpt>
      <trkpt lat="51.0652770" lon="7.5007790">
        <ele>314.0100000</ele>
        <time>2010-08-20T12:53:31Z</time>
      </trkpt>
      <trkpt lat="51.0653830" lon="7.5005940">
        <ele>313.5300000</ele>
        <time>2010-08-20T12:53:32Z</time>
      </trkpt>
      <trkpt lat="51.0656860" lon="7.5001530">
        <ele>313.5300000</ele>
        <time>2010-08-20T12:53:35Z</time>
      </trkpt>
      <trkpt lat="51.0658000" lon="7.5000640">
        <ele>313.5300000</ele>
        <time>2010-08-20T12:53:36Z</time>
      </trkpt>
      <trkpt lat="51.0672270" lon="7.4993300">
        <ele>320.7400000</ele>
        <time>2010-08-20T12:53:45Z</time>
      </trkpt>
      <trkpt lat="51.0678430" lon="7.4991110">
        <ele>321.7000000</ele>
        <time>2010-08-20T12:53:49Z</time>
      </trkpt>
      <trkpt lat="51.0679790" lon="7.4991630">
        <ele>321.7000000</ele>
        <time>2010-08-20T12:53:50Z</time>
      </trkpt>
      <trkpt lat="51.0681150" lon="7.4992250">
        <ele>321.7000000</ele>
        <time>2010-08-20T12:53:51Z</time>
      </trkpt>
      <trkpt lat="51.0682480" lon="7.4993080">
        <ele>322.1800000</ele>
        <time>2010-08-20T12:53:52Z</time>
      </trkpt>
      <trkpt lat="51.0683710" lon="7.4994530">
        <ele>322.1800000</ele>
        <time>2010-08-20T12:53:53Z</time>
      </trkpt>
      <trkpt lat="51.0684780" lon="7.4995880">
        <ele>322.1800000</ele>
        <time>2010-08-20T12:53:54Z</time>
      </trkpt>
      <trkpt lat="51.0685800" lon="7.4997310">
        <ele>323.1400000</ele>
        <time>2010-08-20T12:53:55Z</time>
      </trkpt>
      <trkpt lat="51.0686900" lon="7.4998210">
        <ele>324.5800000</ele>
        <time>2010-08-20T12:53:57Z</time>
      </trkpt>
      <trkpt lat="51.0687430" lon="7.4998280">
        <ele>325.0600000</ele>
        <time>2010-08-20T12:53:58Z</time>
      </trkpt>
      <trkpt lat="51.0688120" lon="7.4998080">
        <ele>325.5400000</ele>
        <time>2010-08-20T12:53:59Z</time>
      </trkpt>
      <trkpt lat="51.0688790" lon="7.4997040">
        <ele>326.9900000</ele>
        <time>2010-08-20T12:54:00Z</time>
      </trkpt>
      <trkpt lat="51.0690020" lon="7.4995420">
        <ele>326.9900000</ele>
        <time>2010-08-20T12:54:01Z</time>
      </trkpt>
      <trkpt lat="51.0691130" lon="7.4994090">
        <ele>326.5000000</ele>
        <time>2010-08-20T12:54:02Z</time>
      </trkpt>
      <trkpt lat="51.0692070" lon="7.4992490">
        <ele>326.9900000</ele>
        <time>2010-08-20T12:54:03Z</time>
      </trkpt>
      <trkpt lat="51.0692920" lon="7.4990900">
        <ele>327.4700000</ele>
        <time>2010-08-20T12:54:04Z</time>
      </trkpt>
      <trkpt lat="51.0693670" lon="7.4989520">
        <ele>327.4700000</ele>
        <time>2010-08-20T12:54:05Z</time>
      </trkpt>
      <trkpt lat="51.0699480" lon="7.4978960">
        <ele>333.2300000</ele>
        <time>2010-08-20T12:54:13Z</time>
      </trkpt>
      <trkpt lat="51.0703140" lon="7.4971960">
        <ele>337.0800000</ele>
        <time>2010-08-20T12:54:21Z</time>
      </trkpt>
      <trkpt lat="51.0703620" lon="7.4971500">
        <ele>337.5600000</ele>
        <time>2010-08-20T12:54:22Z</time>
      </trkpt>
      <trkpt lat="51.0704250" lon="7.4971240">
        <ele>338.5200000</ele>
        <time>2010-08-20T12:54:23Z</time>
      </trkpt>
      <trkpt lat="51.0705020" lon="7.4971100">
        <ele>339.4800000</ele>
        <time>2010-08-20T12:54:24Z</time>
      </trkpt>
      <trkpt lat="51.0705820" lon="7.4970980">
        <ele>339.9600000</ele>
        <time>2010-08-20T12:54:25Z</time>
      </trkpt>
      <trkpt lat="51.0707920" lon="7.4970830">
        <ele>340.9200000</ele>
        <time>2010-08-20T12:54:28Z</time>
      </trkpt>
      <trkpt lat="51.0708490" lon="7.4970450">
        <ele>341.4100000</ele>
        <time>2010-08-20T12:54:29Z</time>
      </trkpt>
      <trkpt lat="51.0709110" lon="7.4969810">
        <ele>341.4100000</ele>
        <time>2010-08-20T12:54:30Z</time>
      </trkpt>
      <trkpt lat="51.0709610" lon="7.4968900">
        <ele>341.8900000</ele>
        <time>2010-08-20T12:54:31Z</time>
      </trkpt>
      <trkpt lat="51.0710250" lon="7.4967950">
        <ele>342.3700000</ele>
        <time>2010-08-20T12:54:32Z</time>
      </trkpt>
      <trkpt lat="51.0714490" lon="7.4962350">
        <ele>345.2500000</ele>
        <time>2010-08-20T12:54:38Z</time>
      </trkpt>
      <trkpt lat="51.0715340" lon="7.4961770">
        <ele>345.7300000</ele>
        <time>2010-08-20T12:54:39Z</time>
      </trkpt>
      <trkpt lat="51.0716300" lon="7.4961290">
        <ele>346.2100000</ele>
        <time>2010-08-20T12:54:40Z</time>
      </trkpt>
      <trkpt lat="51.0720350" lon="7.4959620">
        <ele>347.6500000</ele>
        <time>2010-08-20T12:54:44Z</time>
      </trkpt>
      <trkpt lat="51.0721270" lon="7.4959540">
        <ele>348.1300000</ele>
        <time>2010-08-20T12:54:45Z</time>
      </trkpt>
      <trkpt lat="51.0722140" lon="7.4959750">
        <ele>348.6200000</ele>
        <time>2010-08-20T12:54:46Z</time>
      </trkpt>
      <trkpt lat="51.0722990" lon="7.4960350">
        <ele>349.5800000</ele>
        <time>2010-08-20T12:54:47Z</time>
      </trkpt>
      <trkpt lat="51.0723790" lon="7.4961310">
        <ele>350.0600000</ele>
        <time>2010-08-20T12:54:48Z</time>
      </trkpt>
      <trkpt lat="51.0724580" lon="7.4962450">
        <ele>351.0200000</ele>
        <time>2010-08-20T12:54:49Z</time>
      </trkpt>
      <trkpt lat="51.0725530" lon="7.4963670">
        <ele>352.4600000</ele>
        <time>2010-08-20T12:54:50Z</time>
      </trkpt>
      <trkpt lat="51.0726730" lon="7.4964930">
        <ele>353.9000000</ele>
        <time>2010-08-20T12:54:51Z</time>
      </trkpt>
      <trkpt lat="51.0728160" lon="7.4966180">
        <ele>355.8300000</ele>
        <time>2010-08-20T12:54:52Z</time>
      </trkpt>
      <trkpt lat="51.0729790" lon="7.4967360">
        <ele>358.2300000</ele>
        <time>2010-08-20T12:54:53Z</time>
      </trkpt>
      <trkpt lat="51.0731500" lon="7.4968390">
        <ele>360.1500000</ele>
        <time>2010-08-20T12:54:54Z</time>
      </trkpt>
      <trkpt lat="51.0733110" lon="7.4969270">
        <ele>362.0700000</ele>
        <time>2010-08-20T12:54:55Z</time>
      </trkpt>
      <trkpt lat="51.0741230" lon="7.4974570">
        <ele>373.1300000</ele>
        <time>2010-08-20T12:55:02Z</time>
      </trkpt>
      <trkpt lat="51.0750190" lon="7.4983520">
        <ele>384.1800000</ele>
        <time>2010-08-20T12:55:10Z</time>
      </trkpt>
      <trkpt lat="51.0757340" lon="7.4991700">
        <ele>390.4300000</ele>
        <time>2010-08-20T12:55:18Z</time>
      </trkpt>
      <trkpt lat="51.0758100" lon="7.4992280">
        <ele>390.9100000</ele>
        <time>2010-08-20T12:55:19Z</time>
      </trkpt>
      <trkpt lat="51.0758940" lon="7.4992690">
        <ele>390.9100000</ele>
        <time>2010-08-20T12:55:20Z</time>
      </trkpt>
      <trkpt lat="51.0759820" lon="7.4992950">
        <ele>391.3900000</ele>
        <time>2010-08-20T12:55:21Z</time>
      </trkpt>
      <trkpt lat="51.0760680" lon="7.4993090">
        <ele>391.3900000</ele>
        <time>2010-08-20T12:55:22Z</time>
      </trkpt>
      <trkpt lat="51.0761450" lon="7.4993150">
        <ele>391.8700000</ele>
        <time>2010-08-20T12:55:23Z</time>
      </trkpt>
      <trkpt lat="51.0766520" lon="7.4992870">
        <ele>393.8000000</ele>
        <time>2010-08-20T12:55:31Z</time>
      </trkpt>
      <trkpt lat="51.0775390" lon="7.4996170">
        <ele>394.2800000</ele>
        <time>2010-08-20T12:55:38Z</time>
      </trkpt>
      <trkpt lat="51.0788200" lon="7.5005580">
        <ele>398.1200000</ele>
        <time>2010-08-20T12:55:48Z</time>
      </trkpt>
      <trkpt lat="51.0795710" lon="7.5009770">
        <ele>403.4100000</ele>
        <time>2010-08-20T12:55:56Z</time>
      </trkpt>
      <trkpt lat="51.0796440" lon="7.5009930">
        <ele>403.8900000</ele>
        <time>2010-08-20T12:55:57Z</time>
      </trkpt>
      <trkpt lat="51.0797210" lon="7.5009960">
        <ele>404.3700000</ele>
        <time>2010-08-20T12:55:58Z</time>
      </trkpt>
      <trkpt lat="51.0805080" lon="7.5008400">
        <ele>404.3700000</ele>
        <time>2010-08-20T12:56:06Z</time>
      </trkpt>
      <trkpt lat="51.0808720" lon="7.5006410">
        <ele>401.9700000</ele>
        <time>2010-08-20T12:56:13Z</time>
      </trkpt>
      <trkpt lat="51.0808860" lon="7.5005370">
        <ele>401.4900000</ele>
        <time>2010-08-20T12:56:15Z</time>
      </trkpt>
      <trkpt lat="51.0808690" lon="7.5004670">
        <ele>401.4900000</ele>
        <time>2010-08-20T12:56:16Z</time>
      </trkpt>
      <trkpt lat="51.0808300" lon="7.5003820">
        <ele>401.4900000</ele>
        <time>2010-08-20T12:56:17Z</time>
      </trkpt>
      <trkpt lat="51.0802080" lon="7.4991270">
        <ele>398.1200000</ele>
        <time>2010-08-20T12:56:27Z</time>
      </trkpt>
      <trkpt lat="51.0800620" lon="7.4988410">
        <ele>397.1600000</ele>
        <time>2010-08-20T12:56:30Z</time>
      </trkpt>
      <trkpt lat="51.0800450" lon="7.4987880">
        <ele>397.1600000</ele>
        <time>2010-08-20T12:56:31Z</time>
      </trkpt>
      <trkpt lat="51.0800370" lon="7.4987400">
        <ele>396.6800000</ele>
        <time>2010-08-20T12:56:32Z</time>
      </trkpt>
      <trkpt lat="51.0800360" lon="7.4986850">
        <ele>396.6800000</ele>
        <time>2010-08-20T12:56:33Z</time>
      </trkpt>
      <trkpt lat="51.0800410" lon="7.4986130">
        <ele>396.2000000</ele>
        <time>2010-08-20T12:56:34Z</time>
      </trkpt>
      <trkpt lat="51.0800580" lon="7.4985170">
        <ele>395.2400000</ele>
        <time>2010-08-20T12:56:35Z</time>
      </trkpt>
      <trkpt lat="51.0800820" lon="7.4983970">
        <ele>394.2800000</ele>
        <time>2010-08-20T12:56:36Z</time>
      </trkpt>
      <trkpt lat="51.0802070" lon="7.4977940">
        <ele>388.9900000</ele>
        <time>2010-08-20T12:56:40Z</time>
      </trkpt>
      <trkpt lat="51.0802240" lon="7.4976240">
        <ele>388.0300000</ele>
        <time>2010-08-20T12:56:41Z</time>
      </trkpt>
      <trkpt lat="51.0803660" lon="7.4960230">
        <ele>379.3800000</ele>
        <time>2010-08-20T12:56:49Z</time>
      </trkpt>
      <trkpt lat="51.0803670" lon="7.4958250">
        <ele>378.4200000</ele>
        <time>2010-08-20T12:56:50Z</time>
      </trkpt>
      <trkpt lat="51.0803530" lon="7.4956260">
        <ele>377.4500000</ele>
        <time>2010-08-20T12:56:51Z</time>
      </trkpt>
      <trkpt lat="51.0801400" lon="7.4936380">
        <ele>369.2800000</ele>
        <time>2010-08-20T12:57:02Z</time>
      </trkpt>
      <trkpt lat="51.0801170" lon="7.4933730">
        <ele>368.3200000</ele>
        <time>2010-08-20T12:57:04Z</time>
      </trkpt>
      <trkpt lat="51.0801140" lon="7.4932490">
        <ele>367.3600000</ele>
        <time>2010-08-20T12:57:05Z</time>
      </trkpt>
      <trkpt lat="51.0801180" lon="7.4931600">
        <ele>366.8800000</ele>
        <time>2010-08-20T12:57:06Z</time>
      </trkpt>
      <trkpt lat="51.0800880" lon="7.4928200">
        <ele>365.9200000</ele>
        <time>2010-08-20T12:57:13Z</time>
      </trkpt>
      <trkpt lat="51.0797390" lon="7.4922230">
        <ele>367.3600000</ele>
        <time>2010-08-20T12:57:20Z</time>
      </trkpt>
      <trkpt lat="51.0796730" lon="7.4921250">
        <ele>367.8400000</ele>
        <time>2010-08-20T12:57:21Z</time>
      </trkpt>
      <trkpt lat="51.0795880" lon="7.4920430">
        <ele>368.3200000</ele>
        <time>2010-08-20T12:57:22Z</time>
      </trkpt>
      <trkpt lat="51.0793210" lon="7.4917900">
        <ele>371.6900000</ele>
        <time>2010-08-20T12:57:25Z</time>
      </trkpt>
      <trkpt lat="51.0792240" lon="7.4916500">
        <ele>372.6500000</ele>
        <time>2010-08-20T12:57:26Z</time>
      </trkpt>
      <trkpt lat="51.0783950" lon="7.4902450">
        <ele>381.7800000</ele>
        <time>2010-08-20T12:57:34Z</time>
      </trkpt>
      <trkpt lat="51.0775630" lon="7.4890650">
        <ele>393.3200000</ele>
        <time>2010-08-20T12:57:43Z</time>
      </trkpt>
      <trkpt lat="51.0775000" lon="7.4889470">
        <ele>394.7600000</ele>
        <time>2010-08-20T12:57:44Z</time>
      </trkpt>
      <trkpt lat="51.0774530" lon="7.4888290">
        <ele>395.2400000</ele>
        <time>2010-08-20T12:57:45Z</time>
      </trkpt>
      <trkpt lat="51.0774170" lon="7.4887110">
        <ele>396.2000000</ele>
        <time>2010-08-20T12:57:46Z</time>
      </trkpt>
      <trkpt lat="51.0773860" lon="7.4885870">
        <ele>396.2000000</ele>
        <time>2010-08-20T12:57:47Z</time>
      </trkpt>
      <trkpt lat="51.0773620" lon="7.4884470">
        <ele>396.2000000</ele>
        <time>2010-08-20T12:57:48Z</time>
      </trkpt>
      <trkpt lat="51.0773400" lon="7.4882870">
        <ele>396.2000000</ele>
        <time>2010-08-20T12:57:49Z</time>
      </trkpt>
      <trkpt lat="51.0769730" lon="7.4867820">
        <ele>394.7600000</ele>
        <time>2010-08-20T12:57:57Z</time>
      </trkpt>
      <trkpt lat="51.0763040" lon="7.4854400">
        <ele>388.9900000</ele>
        <time>2010-08-20T12:58:06Z</time>
      </trkpt>
      <trkpt lat="51.0751680" lon="7.4836830">
        <ele>381.7800000</ele>
        <time>2010-08-20T12:58:19Z</time>
      </trkpt>
      <trkpt lat="51.0746860" lon="7.4824880">
        <ele>380.3400000</ele>
        <time>2010-08-20T12:58:28Z</time>
      </trkpt>
      <trkpt lat="51.0746500" lon="7.4823430">
        <ele>380.3400000</ele>
        <time>2010-08-20T12:58:29Z</time>
      </trkpt>
      <trkpt lat="51.0745190" lon="7.4817680">
        <ele>381.7800000</ele>
        <time>2010-08-20T12:58:33Z</time>
      </trkpt>
      <trkpt lat="51.0744680" lon="7.4816460">
        <ele>381.7800000</ele>
        <time>2010-08-20T12:58:34Z</time>
      </trkpt>
      <trkpt lat="51.0743980" lon="7.4815440">
        <ele>381.7800000</ele>
        <time>2010-08-20T12:58:35Z</time>
      </trkpt>
      <trkpt lat="51.0743150" lon="7.4814550">
        <ele>381.3000000</ele>
        <time>2010-08-20T12:58:36Z</time>
      </trkpt>
      <trkpt lat="51.0742260" lon="7.4813760">
        <ele>380.3400000</ele>
        <time>2010-08-20T12:58:37Z</time>
      </trkpt>
      <trkpt lat="51.0741360" lon="7.4813010">
        <ele>379.8600000</ele>
        <time>2010-08-20T12:58:38Z</time>
      </trkpt>
      <trkpt lat="51.0730790" lon="7.4802530">
        <ele>367.8400000</ele>
        <time>2010-08-20T12:58:49Z</time>
      </trkpt>
      <trkpt lat="51.0729740" lon="7.4801860">
        <ele>366.8800000</ele>
        <time>2010-08-20T12:58:50Z</time>
      </trkpt>
      <trkpt lat="51.0728630" lon="7.4801460">
        <ele>365.9200000</ele>
        <time>2010-08-20T12:58:51Z</time>
      </trkpt>
      <trkpt lat="51.0727510" lon="7.4801360">
        <ele>365.4400000</ele>
        <time>2010-08-20T12:58:52Z</time>
      </trkpt>
      <trkpt lat="51.0716410" lon="7.4800490">
        <ele>351.9800000</ele>
        <time>2010-08-20T12:59:00Z</time>
      </trkpt>
      <trkpt lat="51.0708690" lon="7.4800070">
        <ele>347.6500000</ele>
        <time>2010-08-20T12:59:06Z</time>
      </trkpt>
      <trkpt lat="51.0707750" lon="7.4800460">
        <ele>346.6900000</ele>
        <time>2010-08-20T12:59:07Z</time>
      </trkpt>
      <trkpt lat="51.0707000" lon="7.4800940">
        <ele>346.6900000</ele>
        <time>2010-08-20T12:59:08Z</time>
      </trkpt>
      <trkpt lat="51.0706410" lon="7.4801550">
        <ele>347.6500000</ele>
        <time>2010-08-20T12:59:09Z</time>
      </trkpt>
      <trkpt lat="51.0706040" lon="7.4802040">
        <ele>348.6200000</ele>
        <time>2010-08-20T12:59:10Z</time>
      </trkpt>
      <trkpt lat="51.0705780" lon="7.4802470">
        <ele>349.1000000</ele>
        <time>2010-08-20T12:59:11Z</time>
      </trkpt>
      <trkpt lat="51.0705540" lon="7.4802930">
        <ele>349.1000000</ele>
        <time>2010-08-20T12:59:12Z</time>
      </trkpt>
      <trkpt lat="51.0705310" lon="7.4803440">
        <ele>349.1000000</ele>
        <time>2010-08-20T12:59:13Z</time>
      </trkpt>
      <trkpt lat="51.0705030" lon="7.4804080">
        <ele>349.1000000</ele>
        <time>2010-08-20T12:59:14Z</time>
      </trkpt>
      <trkpt lat="51.0704370" lon="7.4805940">
        <ele>348.1300000</ele>
        <time>2010-08-20T12:59:16Z</time>
      </trkpt>
      <trkpt lat="51.0704050" lon="7.4807090">
        <ele>348.1300000</ele>
        <time>2010-08-20T12:59:17Z</time>
      </trkpt>
      <trkpt lat="51.0703330" lon="7.4809410">
        <ele>346.6900000</ele>
        <time>2010-08-20T12:59:19Z</time>
      </trkpt>
      <trkpt lat="51.0702890" lon="7.4810460">
        <ele>345.7300000</ele>
        <time>2010-08-20T12:59:20Z</time>
      </trkpt>
      <trkpt lat="51.0702360" lon="7.4811410">
        <ele>344.7700000</ele>
        <time>2010-08-20T12:59:21Z</time>
      </trkpt>
      <trkpt lat="51.0701720" lon="7.4812200">
        <ele>343.8100000</ele>
        <time>2010-08-20T12:59:22Z</time>
      </trkpt>
      <trkpt lat="51.0700980" lon="7.4812830">
        <ele>342.8500000</ele>
        <time>2010-08-20T12:59:23Z</time>
      </trkpt>
      <trkpt lat="51.0700170" lon="7.4813330">
        <ele>341.4100000</ele>
        <time>2010-08-20T12:59:24Z</time>
      </trkpt>
      <trkpt lat="51.0699320" lon="7.4813760">
        <ele>340.4400000</ele>
        <time>2010-08-20T12:59:25Z</time>
      </trkpt>
      <trkpt lat="51.0694920" lon="7.4816460">
        <ele>333.7100000</ele>
        <time>2010-08-20T12:59:30Z</time>
      </trkpt>
      <trkpt lat="51.0694270" lon="7.4817520">
        <ele>332.2700000</ele>
        <time>2010-08-20T12:59:31Z</time>
      </trkpt>
      <trkpt lat="51.0693100" lon="7.4819530">
        <ele>329.8700000</ele>
        <time>2010-08-20T12:59:33Z</time>
      </trkpt>
      <trkpt lat="51.0692360" lon="7.4820200">
        <ele>328.9100000</ele>
        <time>2010-08-20T12:59:34Z</time>
      </trkpt>
      <trkpt lat="51.0691520" lon="7.4820730">
        <ele>327.9500000</ele>
        <time>2010-08-20T12:59:35Z</time>
      </trkpt>
      <trkpt lat="51.0679330" lon="7.4825960">
        <ele>321.7000000</ele>
        <time>2010-08-20T12:59:47Z</time>
      </trkpt>
      <trkpt lat="51.0665910" lon="7.4829230">
        <ele>324.1000000</ele>
        <time>2010-08-20T12:59:58Z</time>
      </trkpt>
      <trkpt lat="51.0656390" lon="7.4830440">
        <ele>324.1000000</ele>
        <time>2010-08-20T13:00:06Z</time>
      </trkpt>
      <trkpt lat="51.0652990" lon="7.4831620">
        <ele>321.2200000</ele>
        <time>2010-08-20T13:00:09Z</time>
      </trkpt>
      <trkpt lat="51.0652070" lon="7.4832200">
        <ele>320.2600000</ele>
        <time>2010-08-20T13:00:10Z</time>
      </trkpt>
      <trkpt lat="51.0649510" lon="7.4833760">
        <ele>316.8900000</ele>
        <time>2010-08-20T13:00:14Z</time>
      </trkpt>
      <trkpt lat="51.0649230" lon="7.4834150">
        <ele>316.4100000</ele>
        <time>2010-08-20T13:00:15Z</time>
      </trkpt>
      <trkpt lat="51.0649090" lon="7.4834660">
        <ele>315.4500000</ele>
        <time>2010-08-20T13:00:16Z</time>
      </trkpt>
      <trkpt lat="51.0649120" lon="7.4835320">
        <ele>315.4500000</ele>
        <time>2010-08-20T13:00:17Z</time>
      </trkpt>
      <trkpt lat="51.0649320" lon="7.4836030">
        <ele>314.4900000</ele>
        <time>2010-08-20T13:00:18Z</time>
      </trkpt>
      <trkpt lat="51.0649670" lon="7.4836900">
        <ele>314.0100000</ele>
        <time>2010-08-20T13:00:19Z</time>
      </trkpt>
      <trkpt lat="51.0651250" lon="7.4840720">
        <ele>309.2000000</ele>
        <time>2010-08-20T13:00:23Z</time>
      </trkpt>
      <trkpt lat="51.0651820" lon="7.4841370">
        <ele>307.7600000</ele>
        <time>2010-08-20T13:00:24Z</time>
      </trkpt>
      <trkpt lat="51.0652500" lon="7.4841780">
        <ele>306.3200000</ele>
        <time>2010-08-20T13:00:25Z</time>
      </trkpt>
      <trkpt lat="51.0653250" lon="7.4841910">
        <ele>305.3600000</ele>
        <time>2010-08-20T13:00:26Z</time>
      </trkpt>
      <trkpt lat="51.0654050" lon="7.4841850">
        <ele>304.3900000</ele>
        <time>2010-08-20T13:00:27Z</time>
      </trkpt>
      <trkpt lat="51.0654850" lon="7.4841680">
        <ele>303.4300000</ele>
        <time>2010-08-20T13:00:28Z</time>
      </trkpt>
      <trkpt lat="51.0655620" lon="7.4841480">
        <ele>302.9500000</ele>
        <time>2010-08-20T13:00:29Z</time>
      </trkpt>
      <trkpt lat="51.0657810" lon="7.4841260">
        <ele>301.5100000</ele>
        <time>2010-08-20T13:00:32Z</time>
      </trkpt>
      <trkpt lat="51.0658460" lon="7.4841540">
        <ele>301.0300000</ele>
        <time>2010-08-20T13:00:33Z</time>
      </trkpt>
      <trkpt lat="51.0659020" lon="7.4842080">
        <ele>300.5500000</ele>
        <time>2010-08-20T13:00:34Z</time>
      </trkpt>
      <trkpt lat="51.0659500" lon="7.4842830">
        <ele>300.0700000</ele>
        <time>2010-08-20T13:00:35Z</time>
      </trkpt>
      <trkpt lat="51.0659890" lon="7.4843700">
        <ele>299.5900000</ele>
        <time>2010-08-20T13:00:36Z</time>
      </trkpt>
      <trkpt lat="51.0660130" lon="7.4844610">
        <ele>299.5900000</ele>
        <time>2010-08-20T13:00:37Z</time>
      </trkpt>
      <trkpt lat="51.0660140" lon="7.4845490">
        <ele>299.1100000</ele>
        <time>2010-08-20T13:00:38Z</time>
      </trkpt>
      <trkpt lat="51.0659960" lon="7.4846250">
        <ele>299.1100000</ele>
        <time>2010-08-20T13:00:39Z</time>
      </trkpt>
      <trkpt lat="51.0659630" lon="7.4846910">
        <ele>298.6300000</ele>
        <time>2010-08-20T13:00:40Z</time>
      </trkpt>
      <trkpt lat="51.0659220" lon="7.4847490">
        <ele>298.1500000</ele>
        <time>2010-08-20T13:00:41Z</time>
      </trkpt>
      <trkpt lat="51.0658780" lon="7.4847980">
        <ele>297.6700000</ele>
        <time>2010-08-20T13:00:42Z</time>
      </trkpt>
      <trkpt lat="51.0658370" lon="7.4848460">
        <ele>297.1800000</ele>
        <time>2010-08-20T13:00:43Z</time>
      </trkpt>
      <trkpt lat="51.0657840" lon="7.4848970">
        <ele>296.7000000</ele>
        <time>2010-08-20T13:00:44Z</time>
      </trkpt>
      <trkpt lat="51.0657350" lon="7.4849400">
        <ele>296.2200000</ele>
        <time>2010-08-20T13:00:45Z</time>
      </trkpt>
      <trkpt lat="51.0656880" lon="7.4849920">
        <ele>296.2200000</ele>
        <time>2010-08-20T13:00:46Z</time>
      </trkpt>
      <trkpt lat="51.0656450" lon="7.4850580">
        <ele>295.7400000</ele>
        <time>2010-08-20T13:00:47Z</time>
      </trkpt>
      <trkpt lat="51.0656120" lon="7.4851330">
        <ele>294.7800000</ele>
        <time>2010-08-20T13:00:48Z</time>
      </trkpt>
      <trkpt lat="51.0655890" lon="7.4852190">
        <ele>294.7800000</ele>
        <time>2010-08-20T13:00:49Z</time>
      </trkpt>
      <trkpt lat="51.0655700" lon="7.4853230">
        <ele>294.7800000</ele>
        <time>2010-08-20T13:00:50Z</time>
      </trkpt>
      <trkpt lat="51.0655390" lon="7.4854300">
        <ele>294.7800000</ele>
        <time>2010-08-20T13:00:51Z</time>
      </trkpt>
      <trkpt lat="51.0654790" lon="7.4856640">
        <ele>295.2600000</ele>
        <time>2010-08-20T13:00:53Z</time>
      </trkpt>
      <trkpt lat="51.0654500" lon="7.4857900">
        <ele>295.7400000</ele>
        <time>2010-08-20T13:00:54Z</time>
      </trkpt>
      <trkpt lat="51.0654250" lon="7.4859180">
        <ele>296.2200000</ele>
        <time>2010-08-20T13:00:55Z</time>
      </trkpt>
      <trkpt lat="51.0654100" lon="7.4860420">
        <ele>296.7000000</ele>
        <time>2010-08-20T13:00:56Z</time>
      </trkpt>
      <trkpt lat="51.0653970" lon="7.4861540">
        <ele>296.7000000</ele>
        <time>2010-08-20T13:00:57Z</time>
      </trkpt>
      <trkpt lat="51.0653860" lon="7.4864810">
        <ele>297.1800000</ele>
        <time>2010-08-20T13:01:00Z</time>
      </trkpt>
      <trkpt lat="51.0653920" lon="7.4865970">
        <ele>297.1800000</ele>
        <time>2010-08-20T13:01:01Z</time>
      </trkpt>
      <trkpt lat="51.0654780" lon="7.4876670">
        <ele>297.6700000</ele>
        <time>2010-08-20T13:01:10Z</time>
      </trkpt>
      <trkpt lat="51.0654960" lon="7.4877960">
        <ele>297.6700000</ele>
        <time>2010-08-20T13:01:11Z</time>
      </trkpt>
      <trkpt lat="51.0655180" lon="7.4879170">
        <ele>297.6700000</ele>
        <time>2010-08-20T13:01:12Z</time>
      </trkpt>
      <trkpt lat="51.0655420" lon="7.4880170">
        <ele>297.6700000</ele>
        <time>2010-08-20T13:01:13Z</time>
      </trkpt>
      <trkpt lat="51.0655620" lon="7.4880950">
        <ele>297.6700000</ele>
        <time>2010-08-20T13:01:14Z</time>
      </trkpt>
      <trkpt lat="51.0655770" lon="7.4881660">
        <ele>297.6700000</ele>
        <time>2010-08-20T13:01:15Z</time>
      </trkpt>
      <trkpt lat="51.0655860" lon="7.4882390">
        <ele>297.6700000</ele>
        <time>2010-08-20T13:01:16Z</time>
      </trkpt>
      <trkpt lat="51.0655900" lon="7.4883210">
        <ele>297.6700000</ele>
        <time>2010-08-20T13:01:17Z</time>
      </trkpt>
      <trkpt lat="51.0655880" lon="7.4884090">
        <ele>297.6700000</ele>
        <time>2010-08-20T13:01:18Z</time>
      </trkpt>
      <trkpt lat="51.0655790" lon="7.4884970">
        <ele>298.1500000</ele>
        <time>2010-08-20T13:01:19Z</time>
      </trkpt>
      <trkpt lat="51.0655720" lon="7.4885740">
        <ele>298.6300000</ele>
        <time>2010-08-20T13:01:20Z</time>
      </trkpt>
      <trkpt lat="51.0655560" lon="7.4886230">
        <ele>298.6300000</ele>
        <time>2010-08-20T13:01:21Z</time>
      </trkpt>
      <trkpt lat="51.0655440" lon="7.4886590">
        <ele>298.6300000</ele>
        <time>2010-08-20T13:01:22Z</time>
      </trkpt>
      <trkpt lat="51.0655370" lon="7.4887000">
        <ele>299.1100000</ele>
        <time>2010-08-20T13:01:23Z</time>
      </trkpt>
      <trkpt lat="51.0655330" lon="7.4887620">
        <ele>298.6300000</ele>
        <time>2010-08-20T13:01:24Z</time>
      </trkpt>
      <trkpt lat="51.0655290" lon="7.4888480">
        <ele>298.6300000</ele>
        <time>2010-08-20T13:01:25Z</time>
      </trkpt>
      <trkpt lat="51.0655430" lon="7.4889720">
        <ele>298.6300000</ele>
        <time>2010-08-20T13:01:26Z</time>
      </trkpt>
      <trkpt lat="51.0655710" lon="7.4891240">
        <ele>299.1100000</ele>
        <time>2010-08-20T13:01:27Z</time>
      </trkpt>
      <trkpt lat="51.0658910" lon="7.4906610">
        <ele>307.2800000</ele>
        <time>2010-08-20T13:01:36Z</time>
      </trkpt>
      <trkpt lat="51.0662720" lon="7.4922890">
        <ele>324.5800000</ele>
        <time>2010-08-20T13:01:44Z</time>
      </trkpt>
      <trkpt lat="51.0664840" lon="7.4935070">
        <ele>337.0800000</ele>
        <time>2010-08-20T13:01:50Z</time>
      </trkpt>
      <trkpt lat="51.0665290" lon="7.4936450">
        <ele>338.5200000</ele>
        <time>2010-08-20T13:01:51Z</time>
      </trkpt>
      <trkpt lat="51.0665970" lon="7.4937780">
        <ele>340.4400000</ele>
        <time>2010-08-20T13:01:52Z</time>
      </trkpt>
      <trkpt lat="51.0666830" lon="7.4939130">
        <ele>342.3700000</ele>
        <time>2010-08-20T13:01:53Z</time>
      </trkpt>
      <trkpt lat="51.0667720" lon="7.4940350">
        <ele>344.7700000</ele>
        <time>2010-08-20T13:01:54Z</time>
      </trkpt>
      <trkpt lat="51.0668530" lon="7.4941310">
        <ele>346.6900000</ele>
        <time>2010-08-20T13:01:55Z</time>
      </trkpt>
      <trkpt lat="51.0669270" lon="7.4942200">
        <ele>348.1300000</ele>
        <time>2010-08-20T13:01:56Z</time>
      </trkpt>
      <trkpt lat="51.0669960" lon="7.4943210">
        <ele>349.5800000</ele>
        <time>2010-08-20T13:01:57Z</time>
      </trkpt>
      <trkpt lat="51.0670620" lon="7.4944400">
        <ele>351.0200000</ele>
        <time>2010-08-20T13:01:58Z</time>
      </trkpt>
      <trkpt lat="51.0671250" lon="7.4945730">
        <ele>352.9400000</ele>
        <time>2010-08-20T13:01:59Z</time>
      </trkpt>
      <trkpt lat="51.0671840" lon="7.4947090">
        <ele>354.3800000</ele>
        <time>2010-08-20T13:02:00Z</time>
      </trkpt>
      <trkpt lat="51.0673650" lon="7.4950860">
        <ele>359.6700000</ele>
        <time>2010-08-20T13:02:04Z</time>
      </trkpt>
      <trkpt lat="51.0674050" lon="7.4951390">
        <ele>360.6300000</ele>
        <time>2010-08-20T13:02:05Z</time>
      </trkpt>
      <trkpt lat="51.0674360" lon="7.4951840">
        <ele>362.0700000</ele>
        <time>2010-08-20T13:02:06Z</time>
      </trkpt>
      <trkpt lat="51.0674760" lon="7.4952520">
        <ele>364.4800000</ele>
        <time>2010-08-20T13:02:14Z</time>
      </trkpt>
      <trkpt lat="51.0674710" lon="7.4952710">
        <ele>364.0000000</ele>
        <time>2010-08-20T13:02:19Z</time>
      </trkpt>
      <trkpt lat="51.0674610" lon="7.4953120">
        <ele>364.0000000</ele>
        <time>2010-08-20T13:02:20Z</time>
      </trkpt>
      <trkpt lat="51.0674380" lon="7.4953620">
        <ele>364.0000000</ele>
        <time>2010-08-20T13:02:21Z</time>
      </trkpt>
      <trkpt lat="51.0674000" lon="7.4953920">
        <ele>364.0000000</ele>
        <time>2010-08-20T13:02:22Z</time>
      </trkpt>
      <trkpt lat="51.0673610" lon="7.4954160">
        <ele>363.5200000</ele>
        <time>2010-08-20T13:02:23Z</time>
      </trkpt>
      <trkpt lat="51.0672880" lon="7.4955030">
        <ele>362.5500000</ele>
        <time>2010-08-20T13:02:26Z</time>
      </trkpt>
      <trkpt lat="51.0672820" lon="7.4955390">
        <ele>363.0400000</ele>
        <time>2010-08-20T13:02:27Z</time>
      </trkpt>
      <trkpt lat="51.0672810" lon="7.4955790">
        <ele>363.0400000</ele>
        <time>2010-08-20T13:02:28Z</time>
      </trkpt>
      <trkpt lat="51.0672830" lon="7.4956190">
        <ele>363.0400000</ele>
        <time>2010-08-20T13:02:29Z</time>
      </trkpt>
      <trkpt lat="51.0672910" lon="7.4956540">
        <ele>363.0400000</ele>
        <time>2010-08-20T13:02:30Z</time>
      </trkpt>
      <trkpt lat="51.0673050" lon="7.4956740">
        <ele>363.0400000</ele>
        <time>2010-08-20T13:02:31Z</time>
      </trkpt>
      <trkpt lat="51.0673190" lon="7.4956830">
        <ele>363.0400000</ele>
        <time>2010-08-20T13:02:32Z</time>
      </trkpt>
      <trkpt lat="51.0673310" lon="7.4956880">
        <ele>363.0400000</ele>
        <time>2010-08-20T13:02:33Z</time>
      </trkpt>
      <trkpt lat="51.0673520" lon="7.4956710">
        <ele>362.5500000</ele>
        <time>2010-08-20T13:02:36Z</time>
      </trkpt>
      <trkpt lat="51.0673560" lon="7.4956550">
        <ele>362.0700000</ele>
        <time>2010-08-20T13:02:37Z</time>
      </trkpt>
      <trkpt lat="51.0673390" lon="7.4956250">
        <ele>361.5900000</ele>
        <time>2010-08-20T13:02:55Z</time>
      </trkpt>
      <trkpt lat="51.0673360" lon="7.4956090">
        <ele>360.6300000</ele>
        <time>2010-08-20T13:03:23Z</time>
      </trkpt>
      <trkpt lat="51.0673210" lon="7.4956050">
        <ele>360.6300000</ele>
        <time>2010-08-20T13:03:24Z</time>
      </trkpt>
      <trkpt lat="51.0673000" lon="7.4956040">
        <ele>361.1100000</ele>
        <time>2010-08-20T13:03:26Z</time>
      </trkpt>
      <trkpt lat="51.0672890" lon="7.4956020">
        <ele>361.1100000</ele>
        <time>2010-08-20T13:03:27Z</time>
      </trkpt>
      <trkpt lat="51.0672770" lon="7.4955950">
        <ele>361.5900000</ele>
        <time>2010-08-20T13:03:28Z</time>
      </trkpt>
      <trkpt lat="51.0672510" lon="7.4955700">
        <ele>361.1100000</ele>
        <time>2010-08-20T13:03:31Z</time>
      </trkpt>
      <trkpt lat="51.0672210" lon="7.4955650">
        <ele>361.1100000</ele>
        <time>2010-08-20T13:03:34Z</time>
      </trkpt>
      <trkpt lat="51.0671450" lon="7.4955540">
        <ele>360.6300000</ele>
        <time>2010-08-20T13:03:41Z</time>
      </trkpt>
      <trkpt lat="51.0673760" lon="7.4956410">
        <ele>349.1000000</ele>
        <time>2010-08-20T13:07:01Z</time>
      </trkpt>
      <trkpt lat="51.0673780" lon="7.4956240">
        <ele>352.4600000</ele>
        <time>2010-08-20T13:07:29Z</time>
      </trkpt>
      <trkpt lat="51.0673550" lon="7.4955920">
        <ele>353.4200000</ele>
        <time>2010-08-20T13:07:39Z</time>
      </trkpt>
      <trkpt lat="51.0673040" lon="7.4955260">
        <ele>359.6700000</ele>
        <time>2010-08-20T13:07:58Z</time>
      </trkpt>
      <trkpt lat="51.0673020" lon="7.4955230">
        <ele>359.6700000</ele>
        <time>2010-08-20T13:07:59Z</time>
      </trkpt>
      <trkpt lat="51.0672500" lon="7.4956460">
        <ele>359.6700000</ele>
        <time>2010-08-20T13:08:08Z</time>
      </trkpt>
      <trkpt lat="51.0672870" lon="7.4955560">
        <ele>358.7100000</ele>
        <time>2010-08-20T13:08:18Z</time>
      </trkpt>
      <trkpt lat="51.0672870" lon="7.4955480">
        <ele>359.1900000</ele>
        <time>2010-08-20T13:08:21Z</time>
      </trkpt>
      <trkpt lat="51.0673910" lon="7.4953550">
        <ele>358.7100000</ele>
        <time>2010-08-20T13:08:31Z</time>
      </trkpt>
      <trkpt lat="51.0674590" lon="7.4953440">
        <ele>358.2300000</ele>
        <time>2010-08-20T13:08:34Z</time>
      </trkpt>
      <trkpt lat="51.0675430" lon="7.4954490">
        <ele>357.7500000</ele>
        <time>2010-08-20T13:08:37Z</time>
      </trkpt>
      <trkpt lat="51.0675750" lon="7.4955140">
        <ele>357.7500000</ele>
        <time>2010-08-20T13:08:38Z</time>
      </trkpt>
      <trkpt lat="51.0676020" lon="7.4955860">
        <ele>357.7500000</ele>
        <time>2010-08-20T13:08:39Z</time>
      </trkpt>
      <trkpt lat="51.0676280" lon="7.4956530">
        <ele>357.7500000</ele>
        <time>2010-08-20T13:08:40Z</time>
      </trkpt>
      <trkpt lat="51.0676560" lon="7.4957110">
        <ele>357.7500000</ele>
        <time>2010-08-20T13:08:41Z</time>
      </trkpt>
      <trkpt lat="51.0679870" lon="7.4961220">
        <ele>352.9400000</ele>
        <time>2010-08-20T13:08:51Z</time>
      </trkpt>
      <trkpt lat="51.0682460" lon="7.4963060">
        <ele>350.0600000</ele>
        <time>2010-08-20T13:08:56Z</time>
      </trkpt>
      <trkpt lat="51.0683070" lon="7.4963240">
        <ele>349.5800000</ele>
        <time>2010-08-20T13:08:57Z</time>
      </trkpt>
      <trkpt lat="51.0683750" lon="7.4963290">
        <ele>349.5800000</ele>
        <time>2010-08-20T13:08:58Z</time>
      </trkpt>
      <trkpt lat="51.0684450" lon="7.4963240">
        <ele>349.1000000</ele>
        <time>2010-08-20T13:08:59Z</time>
      </trkpt>
      <trkpt lat="51.0685170" lon="7.4963140">
        <ele>348.6200000</ele>
        <time>2010-08-20T13:09:00Z</time>
      </trkpt>
      <trkpt lat="51.0690470" lon="7.4961550">
        <ele>347.1700000</ele>
        <time>2010-08-20T13:09:07Z</time>
      </trkpt>
      <trkpt lat="51.0691180" lon="7.4961460">
        <ele>346.6900000</ele>
        <time>2010-08-20T13:09:08Z</time>
      </trkpt>
      <trkpt lat="51.0698230" lon="7.4961860">
        <ele>344.2900000</ele>
        <time>2010-08-20T13:09:19Z</time>
      </trkpt>
      <trkpt lat="51.0698640" lon="7.4961690">
        <ele>344.7700000</ele>
        <time>2010-08-20T13:09:20Z</time>
      </trkpt>
      <trkpt lat="51.0699140" lon="7.4961220">
        <ele>344.7700000</ele>
        <time>2010-08-20T13:09:21Z</time>
      </trkpt>
      <trkpt lat="51.0699750" lon="7.4960410">
        <ele>345.2500000</ele>
        <time>2010-08-20T13:09:22Z</time>
      </trkpt>
      <trkpt lat="51.0700450" lon="7.4959260">
        <ele>345.7300000</ele>
        <time>2010-08-20T13:09:23Z</time>
      </trkpt>
      <trkpt lat="51.0701110" lon="7.4958470">
        <ele>346.2100000</ele>
        <time>2010-08-20T13:09:24Z</time>
      </trkpt>
      <trkpt lat="51.0701790" lon="7.4957950">
        <ele>346.6900000</ele>
        <time>2010-08-20T13:09:25Z</time>
      </trkpt>
      <trkpt lat="51.0702500" lon="7.4957660">
        <ele>347.1700000</ele>
        <time>2010-08-20T13:09:26Z</time>
      </trkpt>
      <trkpt lat="51.0703180" lon="7.4957580">
        <ele>347.6500000</ele>
        <time>2010-08-20T13:09:27Z</time>
      </trkpt>
      <trkpt lat="51.0703820" lon="7.4957690">
        <ele>348.1300000</ele>
        <time>2010-08-20T13:09:28Z</time>
      </trkpt>
      <trkpt lat="51.0704470" lon="7.4957930">
        <ele>348.6200000</ele>
        <time>2010-08-20T13:09:29Z</time>
      </trkpt>
      <trkpt lat="51.0705160" lon="7.4958270">
        <ele>348.6200000</ele>
        <time>2010-08-20T13:09:30Z</time>
      </trkpt>
      <trkpt lat="51.0705890" lon="7.4958680">
        <ele>348.6200000</ele>
        <time>2010-08-20T13:09:31Z</time>
      </trkpt>
      <trkpt lat="51.0708120" lon="7.4960170">
        <ele>348.1300000</ele>
        <time>2010-08-20T13:09:34Z</time>
      </trkpt>
      <trkpt lat="51.0708790" lon="7.4960830">
        <ele>347.6500000</ele>
        <time>2010-08-20T13:09:35Z</time>
      </trkpt>
      <trkpt lat="51.0709470" lon="7.4961450">
        <ele>347.1700000</ele>
        <time>2010-08-20T13:09:36Z</time>
      </trkpt>
      <trkpt lat="51.0710180" lon="7.4961900">
        <ele>346.2100000</ele>
        <time>2010-08-20T13:09:37Z</time>
      </trkpt>
      <trkpt lat="51.0710900" lon="7.4962200">
        <ele>345.2500000</ele>
        <time>2010-08-20T13:09:38Z</time>
      </trkpt>
      <trkpt lat="51.0711590" lon="7.4962430">
        <ele>344.7700000</ele>
        <time>2010-08-20T13:09:39Z</time>
      </trkpt>
      <trkpt lat="51.0713490" lon="7.4962850">
        <ele>342.8500000</ele>
        <time>2010-08-20T13:09:42Z</time>
      </trkpt>
      <trkpt lat="51.0714220" lon="7.4962650">
        <ele>342.8500000</ele>
        <time>2010-08-20T13:09:43Z</time>
      </trkpt>
      <trkpt lat="51.0714990" lon="7.4962280">
        <ele>342.8500000</ele>
        <time>2010-08-20T13:09:44Z</time>
      </trkpt>
      <trkpt lat="51.0720750" lon="7.4959770">
        <ele>345.2500000</ele>
        <time>2010-08-20T13:09:50Z</time>
      </trkpt>
      <trkpt lat="51.0721800" lon="7.4959870">
        <ele>345.7300000</ele>
        <time>2010-08-20T13:09:51Z</time>
      </trkpt>
      <trkpt lat="51.0722840" lon="7.4960650">
        <ele>346.2100000</ele>
        <time>2010-08-20T13:09:52Z</time>
      </trkpt>
      <trkpt lat="51.0723950" lon="7.4962050">
        <ele>347.1700000</ele>
        <time>2010-08-20T13:09:53Z</time>
      </trkpt>
      <trkpt lat="51.0725160" lon="7.4963630">
        <ele>348.6200000</ele>
        <time>2010-08-20T13:09:54Z</time>
      </trkpt>
      <trkpt lat="51.0726530" lon="7.4965190">
        <ele>350.5400000</ele>
        <time>2010-08-20T13:09:55Z</time>
      </trkpt>
      <trkpt lat="51.0728050" lon="7.4966540">
        <ele>352.9400000</ele>
        <time>2010-08-20T13:09:56Z</time>
      </trkpt>
      <trkpt lat="51.0729640" lon="7.4967680">
        <ele>355.3400000</ele>
        <time>2010-08-20T13:09:57Z</time>
      </trkpt>
      <trkpt lat="51.0731190" lon="7.4968620">
        <ele>357.2700000</ele>
        <time>2010-08-20T13:09:58Z</time>
      </trkpt>
      <trkpt lat="51.0732630" lon="7.4969390">
        <ele>359.1900000</ele>
        <time>2010-08-20T13:09:59Z</time>
      </trkpt>
      <trkpt lat="51.0744060" lon="7.4977240">
        <ele>375.0500000</ele>
        <time>2010-08-20T13:10:08Z</time>
      </trkpt>
      <trkpt lat="51.0754000" lon="7.4988060">
        <ele>386.5900000</ele>
        <time>2010-08-20T13:10:18Z</time>
      </trkpt>
      <trkpt lat="51.0758180" lon="7.4992370">
        <ele>389.4700000</ele>
        <time>2010-08-20T13:10:22Z</time>
      </trkpt>
      <trkpt lat="51.0759150" lon="7.4992870">
        <ele>389.9500000</ele>
        <time>2010-08-20T13:10:23Z</time>
      </trkpt>
      <trkpt lat="51.0760130" lon="7.4993160">
        <ele>390.4300000</ele>
        <time>2010-08-20T13:10:24Z</time>
      </trkpt>
      <trkpt lat="51.0761070" lon="7.4993300">
        <ele>390.9100000</ele>
        <time>2010-08-20T13:10:25Z</time>
      </trkpt>
      <trkpt lat="51.0761920" lon="7.4993320">
        <ele>391.3900000</ele>
        <time>2010-08-20T13:10:26Z</time>
      </trkpt>
      <trkpt lat="51.0766550" lon="7.4992980">
        <ele>392.3600000</ele>
        <time>2010-08-20T13:10:31Z</time>
      </trkpt>
      <trkpt lat="51.0767830" lon="7.4993150">
        <ele>392.8400000</ele>
        <time>2010-08-20T13:10:32Z</time>
      </trkpt>
      <trkpt lat="51.0769240" lon="7.4993520">
        <ele>392.8400000</ele>
        <time>2010-08-20T13:10:33Z</time>
      </trkpt>
      <trkpt lat="51.0781210" lon="7.4999700">
        <ele>395.2400000</ele>
        <time>2010-08-20T13:10:40Z</time>
      </trkpt>
      <trkpt lat="51.0791180" lon="7.5007750">
        <ele>400.0500000</ele>
        <time>2010-08-20T13:10:47Z</time>
      </trkpt>
      <trkpt lat="51.0799410" lon="7.5010520">
        <ele>403.8900000</ele>
        <time>2010-08-20T13:10:54Z</time>
      </trkpt>
      <trkpt lat="51.0800780" lon="7.5010390">
        <ele>404.3700000</ele>
        <time>2010-08-20T13:10:55Z</time>
      </trkpt>
      <trkpt lat="51.0802140" lon="7.5010070">
        <ele>403.8900000</ele>
        <time>2010-08-20T13:10:56Z</time>
      </trkpt>
      <trkpt lat="51.0803390" lon="7.5009630">
        <ele>403.4100000</ele>
        <time>2010-08-20T13:10:57Z</time>
      </trkpt>
      <trkpt lat="51.0804500" lon="7.5009160">
        <ele>401.9700000</ele>
        <time>2010-08-20T13:10:58Z</time>
      </trkpt>
      <trkpt lat="51.0808570" lon="7.5007190">
        <ele>400.5300000</ele>
        <time>2010-08-20T13:11:03Z</time>
      </trkpt>
      <trkpt lat="51.0808890" lon="7.5006710">
        <ele>400.5300000</ele>
        <time>2010-08-20T13:11:04Z</time>
      </trkpt>
      <trkpt lat="51.0809040" lon="7.5006050">
        <ele>400.0500000</ele>
        <time>2010-08-20T13:11:05Z</time>
      </trkpt>
      <trkpt lat="51.0808980" lon="7.5005230">
        <ele>400.0500000</ele>
        <time>2010-08-20T13:11:06Z</time>
      </trkpt>
      <trkpt lat="51.0808390" lon="7.5003760">
        <ele>399.5700000</ele>
        <time>2010-08-20T13:11:07Z</time>
      </trkpt>
      <trkpt lat="51.0807470" lon="7.5002130">
        <ele>399.5700000</ele>
        <time>2010-08-20T13:11:08Z</time>
      </trkpt>
      <trkpt lat="51.0806560" lon="7.5000470">
        <ele>399.5700000</ele>
        <time>2010-08-20T13:11:09Z</time>
      </trkpt>
      <trkpt lat="51.0800590" lon="7.4988650">
        <ele>396.6800000</ele>
        <time>2010-08-20T13:11:16Z</time>
      </trkpt>
      <trkpt lat="51.0800210" lon="7.4987510">
        <ele>396.6800000</ele>
        <time>2010-08-20T13:11:17Z</time>
      </trkpt>
      <trkpt lat="51.0800090" lon="7.4986320">
        <ele>395.7200000</ele>
        <time>2010-08-20T13:11:18Z</time>
      </trkpt>
      <trkpt lat="51.0800210" lon="7.4984960">
        <ele>395.2400000</ele>
        <time>2010-08-20T13:11:19Z</time>
      </trkpt>
      <trkpt lat="51.0800550" lon="7.4983290">
        <ele>394.2800000</ele>
        <time>2010-08-20T13:11:20Z</time>
      </trkpt>
      <trkpt lat="51.0801050" lon="7.4981300">
        <ele>392.8400000</ele>
        <time>2010-08-20T13:11:21Z</time>
      </trkpt>
      <trkpt lat="51.0801920" lon="7.4976820">
        <ele>389.4700000</ele>
        <time>2010-08-20T13:11:23Z</time>
      </trkpt>
      <trkpt lat="51.0802130" lon="7.4974370">
        <ele>388.0300000</ele>
        <time>2010-08-20T13:11:24Z</time>
      </trkpt>
      <trkpt lat="51.0803520" lon="7.4960160">
        <ele>379.8600000</ele>
        <time>2010-08-20T13:11:30Z</time>
      </trkpt>
      <trkpt lat="51.0803540" lon="7.4957980">
        <ele>378.4200000</ele>
        <time>2010-08-20T13:11:31Z</time>
      </trkpt>
      <trkpt lat="51.0803410" lon="7.4955730">
        <ele>377.4500000</ele>
        <time>2010-08-20T13:11:32Z</time>
      </trkpt>
      <trkpt lat="51.0801390" lon="7.4935620">
        <ele>368.8000000</ele>
        <time>2010-08-20T13:11:42Z</time>
      </trkpt>
      <trkpt lat="51.0801470" lon="7.4929870">
        <ele>364.9600000</ele>
        <time>2010-08-20T13:11:49Z</time>
      </trkpt>
      <trkpt lat="51.0801380" lon="7.4929340">
        <ele>364.9600000</ele>
        <time>2010-08-20T13:11:50Z</time>
      </trkpt>
      <trkpt lat="51.0801180" lon="7.4928700">
        <ele>364.9600000</ele>
        <time>2010-08-20T13:11:51Z</time>
      </trkpt>
      <trkpt lat="51.0800890" lon="7.4928000">
        <ele>365.4400000</ele>
        <time>2010-08-20T13:11:52Z</time>
      </trkpt>
      <trkpt lat="51.0800460" lon="7.4927170">
        <ele>365.4400000</ele>
        <time>2010-08-20T13:11:53Z</time>
      </trkpt>
      <trkpt lat="51.0795610" lon="7.4920650">
        <ele>368.8000000</ele>
        <time>2010-08-20T13:11:59Z</time>
      </trkpt>
      <trkpt lat="51.0792650" lon="7.4917800">
        <ele>371.6900000</ele>
        <time>2010-08-20T13:12:02Z</time>
      </trkpt>
      <trkpt lat="51.0791630" lon="7.4916310">
        <ele>372.6500000</ele>
        <time>2010-08-20T13:12:03Z</time>
      </trkpt>
      <trkpt lat="51.0782420" lon="7.4900220">
        <ele>382.2600000</ele>
        <time>2010-08-20T13:12:11Z</time>
      </trkpt>
      <trkpt lat="51.0774770" lon="7.4889040">
        <ele>393.8000000</ele>
        <time>2010-08-20T13:12:18Z</time>
      </trkpt>
      <trkpt lat="51.0774450" lon="7.4888110">
        <ele>395.2400000</ele>
        <time>2010-08-20T13:12:19Z</time>
      </trkpt>
      <trkpt lat="51.0774200" lon="7.4887180">
        <ele>396.2000000</ele>
        <time>2010-08-20T13:12:20Z</time>
      </trkpt>
      <trkpt lat="51.0774010" lon="7.4886190">
        <ele>396.6800000</ele>
        <time>2010-08-20T13:12:21Z</time>
      </trkpt>
      <trkpt lat="51.0773820" lon="7.4885030">
        <ele>396.6800000</ele>
        <time>2010-08-20T13:12:22Z</time>
      </trkpt>
      <trkpt lat="51.0771570" lon="7.4873570">
        <ele>396.2000000</ele>
        <time>2010-08-20T13:12:28Z</time>
      </trkpt>
      <trkpt lat="51.0765020" lon="7.4857580">
        <ele>392.3600000</ele>
        <time>2010-08-20T13:12:37Z</time>
      </trkpt>
      <trkpt lat="51.0754050" lon="7.4841180">
        <ele>383.7000000</ele>
        <time>2010-08-20T13:12:48Z</time>
      </trkpt>
      <trkpt lat="51.0751560" lon="7.4836670">
        <ele>382.7400000</ele>
        <time>2010-08-20T13:12:51Z</time>
      </trkpt>
      <trkpt lat="51.0747310" lon="7.4826380">
        <ele>381.3000000</ele>
        <time>2010-08-20T13:12:57Z</time>
      </trkpt>
      <trkpt lat="51.0746730" lon="7.4824480">
        <ele>380.8200000</ele>
        <time>2010-08-20T13:12:58Z</time>
      </trkpt>
      <trkpt lat="51.0744440" lon="7.4816050">
        <ele>381.7800000</ele>
        <time>2010-08-20T13:13:03Z</time>
      </trkpt>
      <trkpt lat="51.0743670" lon="7.4815090">
        <ele>381.7800000</ele>
        <time>2010-08-20T13:13:04Z</time>
      </trkpt>
      <trkpt lat="51.0742640" lon="7.4814220">
        <ele>381.3000000</ele>
        <time>2010-08-20T13:13:05Z</time>
      </trkpt>
      <trkpt lat="51.0741480" lon="7.4813320">
        <ele>380.8200000</ele>
        <time>2010-08-20T13:13:06Z</time>
      </trkpt>
      <trkpt lat="51.0740250" lon="7.4812380">
        <ele>379.8600000</ele>
        <time>2010-08-20T13:13:07Z</time>
      </trkpt>
      <trkpt lat="51.0729700" lon="7.4802240">
        <ele>372.6500000</ele>
        <time>2010-08-20T13:13:15Z</time>
      </trkpt>
      <trkpt lat="51.0728470" lon="7.4801890">
        <ele>371.6900000</ele>
        <time>2010-08-20T13:13:16Z</time>
      </trkpt>
      <trkpt lat="51.0727200" lon="7.4801960">
        <ele>371.6900000</ele>
        <time>2010-08-20T13:13:17Z</time>
      </trkpt>
      <trkpt lat="51.0725910" lon="7.4802120">
        <ele>371.6900000</ele>
        <time>2010-08-20T13:13:18Z</time>
      </trkpt>
      <trkpt lat="51.0716840" lon="7.4802260">
        <ele>362.5500000</ele>
        <time>2010-08-20T13:13:24Z</time>
      </trkpt>
      <trkpt lat="51.0707440" lon="7.4801400">
        <ele>355.8300000</ele>
        <time>2010-08-20T13:13:30Z</time>
      </trkpt>
      <trkpt lat="51.0706470" lon="7.4802010">
        <ele>355.3400000</ele>
        <time>2010-08-20T13:13:31Z</time>
      </trkpt>
      <trkpt lat="51.0705700" lon="7.4802860">
        <ele>355.3400000</ele>
        <time>2010-08-20T13:13:32Z</time>
      </trkpt>
      <trkpt lat="51.0705090" lon="7.4803940">
        <ele>354.3800000</ele>
        <time>2010-08-20T13:13:33Z</time>
      </trkpt>
      <trkpt lat="51.0704510" lon="7.4805310">
        <ele>353.4200000</ele>
        <time>2010-08-20T13:13:34Z</time>
      </trkpt>
      <trkpt lat="51.0704060" lon="7.4806890">
        <ele>351.9800000</ele>
        <time>2010-08-20T13:13:35Z</time>
      </trkpt>
      <trkpt lat="51.0703680" lon="7.4808450">
        <ele>351.0200000</ele>
        <time>2010-08-20T13:13:36Z</time>
      </trkpt>
      <trkpt lat="51.0703270" lon="7.4809830">
        <ele>349.5800000</ele>
        <time>2010-08-20T13:13:37Z</time>
      </trkpt>
      <trkpt lat="51.0702720" lon="7.4811070">
        <ele>348.1300000</ele>
        <time>2010-08-20T13:13:38Z</time>
      </trkpt>
      <trkpt lat="51.0702040" lon="7.4812150">
        <ele>347.1700000</ele>
        <time>2010-08-20T13:13:39Z</time>
      </trkpt>
      <trkpt lat="51.0701220" lon="7.4813030">
        <ele>345.7300000</ele>
        <time>2010-08-20T13:13:40Z</time>
      </trkpt>
      <trkpt lat="51.0700260" lon="7.4813710">
        <ele>343.8100000</ele>
        <time>2010-08-20T13:13:41Z</time>
      </trkpt>
      <trkpt lat="51.0699200" lon="7.4814290">
        <ele>342.3700000</ele>
        <time>2010-08-20T13:13:42Z</time>
      </trkpt>
      <trkpt lat="51.0695200" lon="7.4816320">
        <ele>335.6400000</ele>
        <time>2010-08-20T13:13:46Z</time>
      </trkpt>
      <trkpt lat="51.0694540" lon="7.4816990">
        <ele>334.2000000</ele>
        <time>2010-08-20T13:13:47Z</time>
      </trkpt>
      <trkpt lat="51.0694090" lon="7.4817730">
        <ele>332.7500000</ele>
        <time>2010-08-20T13:13:48Z</time>
      </trkpt>
      <trkpt lat="51.0692910" lon="7.4819900">
        <ele>330.3500000</ele>
        <time>2010-08-20T13:13:52Z</time>
      </trkpt>
      <trkpt lat="51.0692410" lon="7.4820380">
        <ele>329.8700000</ele>
        <time>2010-08-20T13:13:53Z</time>
      </trkpt>
      <trkpt lat="51.0691670" lon="7.4820880">
        <ele>328.9100000</ele>
        <time>2010-08-20T13:13:54Z</time>
      </trkpt>
      <trkpt lat="51.0684220" lon="7.4824220">
        <ele>323.6200000</ele>
        <time>2010-08-20T13:14:00Z</time>
      </trkpt>
      <trkpt lat="51.0671210" lon="7.4829140">
        <ele>322.1800000</ele>
        <time>2010-08-20T13:14:08Z</time>
      </trkpt>
      <trkpt lat="51.0661060" lon="7.4829550">
        <ele>322.6600000</ele>
        <time>2010-08-20T13:14:16Z</time>
      </trkpt>
      <trkpt lat="51.0660000" lon="7.4829660">
        <ele>322.6600000</ele>
        <time>2010-08-20T13:14:17Z</time>
      </trkpt>
      <trkpt lat="51.0658910" lon="7.4829930">
        <ele>322.6600000</ele>
        <time>2010-08-20T13:14:18Z</time>
      </trkpt>
      <trkpt lat="51.0657800" lon="7.4830360">
        <ele>322.1800000</ele>
        <time>2010-08-20T13:14:19Z</time>
      </trkpt>
      <trkpt lat="51.0649280" lon="7.4833970">
        <ele>315.9300000</ele>
        <time>2010-08-20T13:14:27Z</time>
      </trkpt>
      <trkpt lat="51.0648550" lon="7.4833770">
        <ele>315.4500000</ele>
        <time>2010-08-20T13:14:28Z</time>
      </trkpt>
      <trkpt lat="51.0647910" lon="7.4833210">
        <ele>314.9700000</ele>
        <time>2010-08-20T13:14:29Z</time>
      </trkpt>
      <trkpt lat="51.0647320" lon="7.4832250">
        <ele>314.9700000</ele>
        <time>2010-08-20T13:14:30Z</time>
      </trkpt>
      <trkpt lat="51.0646720" lon="7.4830910">
        <ele>314.0100000</ele>
        <time>2010-08-20T13:14:31Z</time>
      </trkpt>
      <trkpt lat="51.0646110" lon="7.4829230">
        <ele>313.5300000</ele>
        <time>2010-08-20T13:14:32Z</time>
      </trkpt>
      <trkpt lat="51.0645490" lon="7.4827330">
        <ele>312.5700000</ele>
        <time>2010-08-20T13:14:33Z</time>
      </trkpt>
      <trkpt lat="51.0642750" lon="7.4820600">
        <ele>307.7600000</ele>
        <time>2010-08-20T13:14:37Z</time>
      </trkpt>
      <trkpt lat="51.0641910" lon="7.4819390">
        <ele>306.3200000</ele>
        <time>2010-08-20T13:14:38Z</time>
      </trkpt>
      <trkpt lat="51.0641070" lon="7.4818440">
        <ele>304.8800000</ele>
        <time>2010-08-20T13:14:39Z</time>
      </trkpt>
      <trkpt lat="51.0640220" lon="7.4817990">
        <ele>303.9100000</ele>
        <time>2010-08-20T13:14:40Z</time>
      </trkpt>
      <trkpt lat="51.0639390" lon="7.4817960">
        <ele>302.4700000</ele>
        <time>2010-08-20T13:14:41Z</time>
      </trkpt>
      <trkpt lat="51.0638900" lon="7.4818480">
        <ele>301.5100000</ele>
        <time>2010-08-20T13:14:42Z</time>
      </trkpt>
      <trkpt lat="51.0638080" lon="7.4819060">
        <ele>300.0700000</ele>
        <time>2010-08-20T13:14:43Z</time>
      </trkpt>
      <trkpt lat="51.0637220" lon="7.4819840">
        <ele>298.6300000</ele>
        <time>2010-08-20T13:14:44Z</time>
      </trkpt>
      <trkpt lat="51.0636430" lon="7.4820810">
        <ele>297.6700000</ele>
        <time>2010-08-20T13:14:45Z</time>
      </trkpt>
      <trkpt lat="51.0635820" lon="7.4822080">
        <ele>296.7000000</ele>
        <time>2010-08-20T13:14:46Z</time>
      </trkpt>
      <trkpt lat="51.0635020" lon="7.4822280">
        <ele>295.7400000</ele>
        <time>2010-08-20T13:14:47Z</time>
      </trkpt>
      <trkpt lat="51.0634320" lon="7.4822840">
        <ele>294.7800000</ele>
        <time>2010-08-20T13:14:48Z</time>
      </trkpt>
      <trkpt lat="51.0633620" lon="7.4822820">
        <ele>294.3000000</ele>
        <time>2010-08-20T13:14:49Z</time>
      </trkpt>
      <trkpt lat="51.0632830" lon="7.4820920">
        <ele>292.8600000</ele>
        <time>2010-08-20T13:14:51Z</time>
      </trkpt>
      <trkpt lat="51.0632130" lon="7.4819440">
        <ele>291.4200000</ele>
        <time>2010-08-20T13:14:52Z</time>
      </trkpt>
      <trkpt lat="51.0631590" lon="7.4818000">
        <ele>290.4600000</ele>
        <time>2010-08-20T13:14:53Z</time>
      </trkpt>
      <trkpt lat="51.0631000" lon="7.4816000">
        <ele>289.9700000</ele>
        <time>2010-08-20T13:14:54Z</time>
      </trkpt>
      <trkpt lat="51.0630460" lon="7.4813910">
        <ele>289.0100000</ele>
        <time>2010-08-20T13:14:55Z</time>
      </trkpt>
      <trkpt lat="51.0629340" lon="7.4807460">
        <ele>280.3600000</ele>
        <time>2010-08-20T13:14:58Z</time>
      </trkpt>
      <trkpt lat="51.0626920" lon="7.4798750">
        <ele>272.1900000</ele>
        <time>2010-08-20T13:15:03Z</time>
      </trkpt>
      <trkpt lat="51.0626350" lon="7.4797800">
        <ele>271.2300000</ele>
        <time>2010-08-20T13:15:04Z</time>
      </trkpt>
      <trkpt lat="51.0625410" lon="7.4797980">
        <ele>270.7500000</ele>
        <time>2010-08-20T13:15:05Z</time>
      </trkpt>
      <trkpt lat="51.0624690" lon="7.4797950">
        <ele>269.7900000</ele>
        <time>2010-08-20T13:15:06Z</time>
      </trkpt>
      <trkpt lat="51.0623870" lon="7.4798140">
        <ele>268.8300000</ele>
        <time>2010-08-20T13:15:07Z</time>
      </trkpt>
      <trkpt lat="51.0623070" lon="7.4798340">
        <ele>268.8300000</ele>
        <time>2010-08-20T13:15:08Z</time>
      </trkpt>
      <trkpt lat="51.0621550" lon="7.4798510">
        <ele>268.8300000</ele>
        <time>2010-08-20T13:15:10Z</time>
      </trkpt>
      <trkpt lat="51.0620930" lon="7.4798330">
        <ele>268.3500000</ele>
        <time>2010-08-20T13:15:11Z</time>
      </trkpt>
      <trkpt lat="51.0620390" lon="7.4798000">
        <ele>268.3500000</ele>
        <time>2010-08-20T13:15:12Z</time>
      </trkpt>
      <trkpt lat="51.0620000" lon="7.4797550">
        <ele>267.3800000</ele>
        <time>2010-08-20T13:15:13Z</time>
      </trkpt>
      <trkpt lat="51.0619830" lon="7.4796550">
        <ele>267.3800000</ele>
        <time>2010-08-20T13:15:14Z</time>
      </trkpt>
      <trkpt lat="51.0619790" lon="7.4795280">
        <ele>266.9000000</ele>
        <time>2010-08-20T13:15:15Z</time>
      </trkpt>
      <trkpt lat="51.0619770" lon="7.4793720">
        <ele>266.9000000</ele>
        <time>2010-08-20T13:15:16Z</time>
      </trkpt>
      <trkpt lat="51.0619730" lon="7.4791910">
        <ele>266.4200000</ele>
        <time>2010-08-20T13:15:17Z</time>
      </trkpt>
      <trkpt lat="51.0619450" lon="7.4788310">
        <ele>265.4600000</ele>
        <time>2010-08-20T13:15:19Z</time>
      </trkpt>
      <trkpt lat="51.0619160" lon="7.4786710">
        <ele>264.9800000</ele>
        <time>2010-08-20T13:15:20Z</time>
      </trkpt>
      <trkpt lat="51.0618700" lon="7.4785340">
        <ele>264.5000000</ele>
        <time>2010-08-20T13:15:21Z</time>
      </trkpt>
      <trkpt lat="51.0618130" lon="7.4783940">
        <ele>264.0200000</ele>
        <time>2010-08-20T13:15:22Z</time>
      </trkpt>
      <trkpt lat="51.0617560" lon="7.4782760">
        <ele>264.0200000</ele>
        <time>2010-08-20T13:15:23Z</time>
      </trkpt>
      <trkpt lat="51.0616830" lon="7.4781690">
        <ele>264.0200000</ele>
        <time>2010-08-20T13:15:24Z</time>
      </trkpt>
      <trkpt lat="51.0616020" lon="7.4780600">
        <ele>264.0200000</ele>
        <time>2010-08-20T13:15:25Z</time>
      </trkpt>
      <trkpt lat="51.0608130" lon="7.4769730">
        <ele>259.6900000</ele>
        <time>2010-08-20T13:15:35Z</time>
      </trkpt>
      <trkpt lat="51.0606710" lon="7.4767040">
        <ele>257.7700000</ele>
        <time>2010-08-20T13:15:38Z</time>
      </trkpt>
      <trkpt lat="51.0606450" lon="7.4766200">
        <ele>257.7700000</ele>
        <time>2010-08-20T13:15:39Z</time>
      </trkpt>
      <trkpt lat="51.0606350" lon="7.4765270">
        <ele>257.2900000</ele>
        <time>2010-08-20T13:15:40Z</time>
      </trkpt>
      <trkpt lat="51.0606360" lon="7.4764270">
        <ele>257.2900000</ele>
        <time>2010-08-20T13:15:41Z</time>
      </trkpt>
      <trkpt lat="51.0606520" lon="7.4763260">
        <ele>257.2900000</ele>
        <time>2010-08-20T13:15:42Z</time>
      </trkpt>
      <trkpt lat="51.0606820" lon="7.4762260">
        <ele>257.2900000</ele>
        <time>2010-08-20T13:15:43Z</time>
      </trkpt>
      <trkpt lat="51.0607230" lon="7.4761340">
        <ele>257.2900000</ele>
        <time>2010-08-20T13:15:44Z</time>
      </trkpt>
      <trkpt lat="51.0607820" lon="7.4760590">
        <ele>257.2900000</ele>
        <time>2010-08-20T13:15:45Z</time>
      </trkpt>
      <trkpt lat="51.0608380" lon="7.4759970">
        <ele>257.7700000</ele>
        <time>2010-08-20T13:15:46Z</time>
      </trkpt>
      <trkpt lat="51.0608810" lon="7.4759370">
        <ele>257.7700000</ele>
        <time>2010-08-20T13:15:47Z</time>
      </trkpt>
      <trkpt lat="51.0610390" lon="7.4756550">
        <ele>260.6500000</ele>
        <time>2010-08-20T13:15:56Z</time>
      </trkpt>
      <trkpt lat="51.0610990" lon="7.4756020">
        <ele>261.1400000</ele>
        <time>2010-08-20T13:15:58Z</time>
      </trkpt>
      <trkpt lat="51.0612060" lon="7.4755400">
        <ele>261.6200000</ele>
        <time>2010-08-20T13:16:00Z</time>
      </trkpt>
      <trkpt lat="51.0612760" lon="7.4755140">
        <ele>261.6200000</ele>
        <time>2010-08-20T13:16:01Z</time>
      </trkpt>
      <trkpt lat="51.0617970" lon="7.4753020">
        <ele>264.5000000</ele>
        <time>2010-08-20T13:16:07Z</time>
      </trkpt>
      <trkpt lat="51.0618750" lon="7.4752460">
        <ele>265.4600000</ele>
        <time>2010-08-20T13:16:08Z</time>
      </trkpt>
      <trkpt lat="51.0619500" lon="7.4751710">
        <ele>265.9400000</ele>
        <time>2010-08-20T13:16:09Z</time>
      </trkpt>
      <trkpt lat="51.0620180" lon="7.4750800">
        <ele>266.4200000</ele>
        <time>2010-08-20T13:16:10Z</time>
      </trkpt>
      <trkpt lat="51.0620740" lon="7.4749740">
        <ele>266.4200000</ele>
        <time>2010-08-20T13:16:11Z</time>
      </trkpt>
      <trkpt lat="51.0621250" lon="7.4748460">
        <ele>266.4200000</ele>
        <time>2010-08-20T13:16:12Z</time>
      </trkpt>
      <trkpt lat="51.0621730" lon="7.4746160">
        <ele>266.4200000</ele>
        <time>2010-08-20T13:16:13Z</time>
      </trkpt>
      <trkpt lat="51.0622310" lon="7.4744110">
        <ele>266.9000000</ele>
        <time>2010-08-20T13:16:14Z</time>
      </trkpt>
      <trkpt lat="51.0623220" lon="7.4742500">
        <ele>267.8600000</ele>
        <time>2010-08-20T13:16:15Z</time>
      </trkpt>
      <trkpt lat="51.0624290" lon="7.4740940">
        <ele>268.8300000</ele>
        <time>2010-08-20T13:16:16Z</time>
      </trkpt>
      <trkpt lat="51.0635720" lon="7.4721550">
        <ele>281.8000000</ele>
        <time>2010-08-20T13:16:27Z</time>
      </trkpt>
      <trkpt lat="51.0639920" lon="7.4715770">
        <ele>286.6100000</ele>
        <time>2010-08-20T13:16:31Z</time>
      </trkpt>
      <trkpt lat="51.0641210" lon="7.4714730">
        <ele>287.5700000</ele>
        <time>2010-08-20T13:16:32Z</time>
      </trkpt>
      <trkpt lat="51.0649110" lon="7.4706140">
        <ele>293.8200000</ele>
        <time>2010-08-20T13:16:39Z</time>
      </trkpt>
      <trkpt lat="51.0649780" lon="7.4704420">
        <ele>294.7800000</ele>
        <time>2010-08-20T13:16:40Z</time>
      </trkpt>
      <trkpt lat="51.0650200" lon="7.4702280">
        <ele>295.7400000</ele>
        <time>2010-08-20T13:16:41Z</time>
      </trkpt>
      <trkpt lat="51.0651320" lon="7.4695890">
        <ele>299.5900000</ele>
        <time>2010-08-20T13:16:44Z</time>
      </trkpt>
      <trkpt lat="51.0651540" lon="7.4693540">
        <ele>301.0300000</ele>
        <time>2010-08-20T13:16:45Z</time>
      </trkpt>
      <trkpt lat="51.0652910" lon="7.4675290">
        <ele>309.6800000</ele>
        <time>2010-08-20T13:16:53Z</time>
      </trkpt>
      <trkpt lat="51.0654160" lon="7.4670160">
        <ele>313.5300000</ele>
        <time>2010-08-20T13:16:56Z</time>
      </trkpt>
      <trkpt lat="51.0654830" lon="7.4669210">
        <ele>314.0100000</ele>
        <time>2010-08-20T13:16:57Z</time>
      </trkpt>
      <trkpt lat="51.0655700" lon="7.4668710">
        <ele>315.9300000</ele>
        <time>2010-08-20T13:16:58Z</time>
      </trkpt>
      <trkpt lat="51.0656740" lon="7.4668120">
        <ele>317.3700000</ele>
        <time>2010-08-20T13:16:59Z</time>
      </trkpt>
      <trkpt lat="51.0657690" lon="7.4667120">
        <ele>319.7800000</ele>
        <time>2010-08-20T13:17:00Z</time>
      </trkpt>
      <trkpt lat="51.0658760" lon="7.4666410">
        <ele>321.7000000</ele>
        <time>2010-08-20T13:17:01Z</time>
      </trkpt>
      <trkpt lat="51.0661660" lon="7.4661640">
        <ele>332.2700000</ele>
        <time>2010-08-20T13:17:07Z</time>
      </trkpt>
      <trkpt lat="51.0661330" lon="7.4660220">
        <ele>332.7500000</ele>
        <time>2010-08-20T13:17:08Z</time>
      </trkpt>
      <trkpt lat="51.0660370" lon="7.4659240">
        <ele>331.7900000</ele>
        <time>2010-08-20T13:17:09Z</time>
      </trkpt>
      <trkpt lat="51.0659600" lon="7.4658450">
        <ele>331.7900000</ele>
        <time>2010-08-20T13:17:10Z</time>
      </trkpt>
      <trkpt lat="51.0658600" lon="7.4657590">
        <ele>329.8700000</ele>
        <time>2010-08-20T13:17:11Z</time>
      </trkpt>
      <trkpt lat="51.0657760" lon="7.4656450">
        <ele>329.3900000</ele>
        <time>2010-08-20T13:17:12Z</time>
      </trkpt>
      <trkpt lat="51.0657460" lon="7.4655230">
        <ele>328.9100000</ele>
        <time>2010-08-20T13:17:13Z</time>
      </trkpt>
      <trkpt lat="51.0657300" lon="7.4653950">
        <ele>327.4700000</ele>
        <time>2010-08-20T13:17:14Z</time>
      </trkpt>
      <trkpt lat="51.0657360" lon="7.4652630">
        <ele>327.4700000</ele>
        <time>2010-08-20T13:17:15Z</time>
      </trkpt>
      <trkpt lat="51.0658000" lon="7.4650600">
        <ele>326.0200000</ele>
        <time>2010-08-20T13:17:16Z</time>
      </trkpt>
      <trkpt lat="51.0658680" lon="7.4648770">
        <ele>326.0200000</ele>
        <time>2010-08-20T13:17:17Z</time>
      </trkpt>
      <trkpt lat="51.0659310" lon="7.4647040">
        <ele>326.5000000</ele>
        <time>2010-08-20T13:17:18Z</time>
      </trkpt>
      <trkpt lat="51.0660350" lon="7.4645460">
        <ele>326.9900000</ele>
        <time>2010-08-20T13:17:19Z</time>
      </trkpt>
      <trkpt lat="51.0666650" lon="7.4629290">
        <ele>334.2000000</ele>
        <time>2010-08-20T13:17:27Z</time>
      </trkpt>
      <trkpt lat="51.0676400" lon="7.4607500">
        <ele>347.6500000</ele>
        <time>2010-08-20T13:17:37Z</time>
      </trkpt>
      <trkpt lat="51.0679890" lon="7.4599130">
        <ele>353.9000000</ele>
        <time>2010-08-20T13:17:43Z</time>
      </trkpt>
      <trkpt lat="51.0680300" lon="7.4598400">
        <ele>354.3800000</ele>
        <time>2010-08-20T13:17:44Z</time>
      </trkpt>
      <trkpt lat="51.0680790" lon="7.4598000">
        <ele>354.3800000</ele>
        <time>2010-08-20T13:17:45Z</time>
      </trkpt>
      <trkpt lat="51.0681480" lon="7.4598240">
        <ele>354.8600000</ele>
        <time>2010-08-20T13:17:46Z</time>
      </trkpt>
      <trkpt lat="51.0682200" lon="7.4598930">
        <ele>354.8600000</ele>
        <time>2010-08-20T13:17:47Z</time>
      </trkpt>
      <trkpt lat="51.0683080" lon="7.4600020">
        <ele>354.8600000</ele>
        <time>2010-08-20T13:17:48Z</time>
      </trkpt>
      <trkpt lat="51.0683970" lon="7.4600910">
        <ele>355.3400000</ele>
        <time>2010-08-20T13:17:49Z</time>
      </trkpt>
      <trkpt lat="51.0685200" lon="7.4602750">
        <ele>353.9000000</ele>
        <time>2010-08-20T13:17:50Z</time>
      </trkpt>
      <trkpt lat="51.0686390" lon="7.4604490">
        <ele>352.9400000</ele>
        <time>2010-08-20T13:17:51Z</time>
      </trkpt>
      <trkpt lat="51.0698190" lon="7.4621510">
        <ele>344.2900000</ele>
        <time>2010-08-20T13:18:01Z</time>
      </trkpt>
      <trkpt lat="51.0708270" lon="7.4638150">
        <ele>332.7500000</ele>
        <time>2010-08-20T13:18:10Z</time>
      </trkpt>
      <trkpt lat="51.0712000" lon="7.4645310">
        <ele>327.4700000</ele>
        <time>2010-08-20T13:18:15Z</time>
      </trkpt>
      <trkpt lat="51.0712480" lon="7.4645970">
        <ele>326.5000000</ele>
        <time>2010-08-20T13:18:16Z</time>
      </trkpt>
      <trkpt lat="51.0712920" lon="7.4645450">
        <ele>326.0200000</ele>
        <time>2010-08-20T13:18:17Z</time>
      </trkpt>
      <trkpt lat="51.0713460" lon="7.4643790">
        <ele>323.6200000</ele>
        <time>2010-08-20T13:18:19Z</time>
      </trkpt>
      <trkpt lat="51.0713370" lon="7.4642570">
        <ele>321.7000000</ele>
        <time>2010-08-20T13:18:20Z</time>
      </trkpt>
      <trkpt lat="51.0713220" lon="7.4641070">
        <ele>319.7800000</ele>
        <time>2010-08-20T13:18:21Z</time>
      </trkpt>
      <trkpt lat="51.0712620" lon="7.4638340">
        <ele>318.8100000</ele>
        <time>2010-08-20T13:18:22Z</time>
      </trkpt>
      <trkpt lat="51.0712080" lon="7.4635740">
        <ele>318.3300000</ele>
        <time>2010-08-20T13:18:23Z</time>
      </trkpt>
      <trkpt lat="51.0711570" lon="7.4633250">
        <ele>317.3700000</ele>
        <time>2010-08-20T13:18:24Z</time>
      </trkpt>
      <trkpt lat="51.0706490" lon="7.4612720">
        <ele>308.7200000</ele>
        <time>2010-08-20T13:18:32Z</time>
      </trkpt>
      <trkpt lat="51.0702340" lon="7.4597610">
        <ele>301.5100000</ele>
        <time>2010-08-20T13:18:39Z</time>
      </trkpt>
      <trkpt lat="51.0700470" lon="7.4588510">
        <ele>297.6700000</ele>
        <time>2010-08-20T13:18:44Z</time>
      </trkpt>
      <trkpt lat="51.0695810" lon="7.4572820">
        <ele>289.9700000</ele>
        <time>2010-08-20T13:18:55Z</time>
      </trkpt>
      <trkpt lat="51.0695850" lon="7.4572390">
        <ele>289.0100000</ele>
        <time>2010-08-20T13:18:56Z</time>
      </trkpt>
      <trkpt lat="51.0696090" lon="7.4572140">
        <ele>288.5300000</ele>
        <time>2010-08-20T13:18:57Z</time>
      </trkpt>
      <trkpt lat="51.0696520" lon="7.4572300">
        <ele>288.0500000</ele>
        <time>2010-08-20T13:18:58Z</time>
      </trkpt>
      <trkpt lat="51.0697000" lon="7.4572450">
        <ele>287.0900000</ele>
        <time>2010-08-20T13:18:59Z</time>
      </trkpt>
      <trkpt lat="51.0697540" lon="7.4572940">
        <ele>286.6100000</ele>
        <time>2010-08-20T13:19:00Z</time>
      </trkpt>
      <trkpt lat="51.0698250" lon="7.4573750">
        <ele>285.6500000</ele>
        <time>2010-08-20T13:19:01Z</time>
      </trkpt>
      <trkpt lat="51.0704360" lon="7.4580850">
        <ele>280.3600000</ele>
        <time>2010-08-20T13:19:07Z</time>
      </trkpt>
      <trkpt lat="51.0706970" lon="7.4583660">
        <ele>277.4800000</ele>
        <time>2010-08-20T13:19:10Z</time>
      </trkpt>
      <trkpt lat="51.0707780" lon="7.4584260">
        <ele>276.5200000</ele>
        <time>2010-08-20T13:19:11Z</time>
      </trkpt>
      <trkpt lat="51.0708710" lon="7.4584300">
        <ele>275.5600000</ele>
        <time>2010-08-20T13:19:12Z</time>
      </trkpt>
      <trkpt lat="51.0709800" lon="7.4583920">
        <ele>274.5900000</ele>
        <time>2010-08-20T13:19:13Z</time>
      </trkpt>
      <trkpt lat="51.0711060" lon="7.4583260">
        <ele>273.1500000</ele>
        <time>2010-08-20T13:19:14Z</time>
      </trkpt>
      <trkpt lat="51.0712470" lon="7.4582520">
        <ele>272.1900000</ele>
        <time>2010-08-20T13:19:15Z</time>
      </trkpt>
      <trkpt lat="51.0726340" lon="7.4577400">
        <ele>277.9600000</ele>
        <time>2010-08-20T13:19:24Z</time>
      </trkpt>
      <trkpt lat="51.0738960" lon="7.4570950">
        <ele>292.8600000</ele>
        <time>2010-08-20T13:19:32Z</time>
      </trkpt>
      <trkpt lat="51.0751300" lon="7.4565260">
        <ele>302.4700000</ele>
        <time>2010-08-20T13:19:39Z</time>
      </trkpt>
      <trkpt lat="51.0763190" lon="7.4560210">
        <ele>304.3900000</ele>
        <time>2010-08-20T13:19:47Z</time>
      </trkpt>
      <trkpt lat="51.0764730" lon="7.4560270">
        <ele>305.8400000</ele>
        <time>2010-08-20T13:19:48Z</time>
      </trkpt>
      <trkpt lat="51.0769850" lon="7.4560770">
        <ele>309.2000000</ele>
        <time>2010-08-20T13:19:52Z</time>
      </trkpt>
      <trkpt lat="51.0770630" lon="7.4560320">
        <ele>309.6800000</ele>
        <time>2010-08-20T13:19:53Z</time>
      </trkpt>
      <trkpt lat="51.0771380" lon="7.4559660">
        <ele>310.6400000</ele>
        <time>2010-08-20T13:19:54Z</time>
      </trkpt>
      <trkpt lat="51.0772140" lon="7.4559060">
        <ele>311.6000000</ele>
        <time>2010-08-20T13:19:55Z</time>
      </trkpt>
      <trkpt lat="51.0772910" lon="7.4558950">
        <ele>311.6000000</ele>
        <time>2010-08-20T13:19:56Z</time>
      </trkpt>
      <trkpt lat="51.0773650" lon="7.4559560">
        <ele>312.0900000</ele>
        <time>2010-08-20T13:19:57Z</time>
      </trkpt>
      <trkpt lat="51.0774410" lon="7.4560680">
        <ele>312.0900000</ele>
        <time>2010-08-20T13:19:58Z</time>
      </trkpt>
      <trkpt lat="51.0775230" lon="7.4562030">
        <ele>313.0500000</ele>
        <time>2010-08-20T13:19:59Z</time>
      </trkpt>
      <trkpt lat="51.0776180" lon="7.4563460">
        <ele>314.0100000</ele>
        <time>2010-08-20T13:20:00Z</time>
      </trkpt>
      <trkpt lat="51.0777260" lon="7.4564740">
        <ele>314.4900000</ele>
        <time>2010-08-20T13:20:01Z</time>
      </trkpt>
      <trkpt lat="51.0778390" lon="7.4565760">
        <ele>315.4500000</ele>
        <time>2010-08-20T13:20:02Z</time>
      </trkpt>
      <trkpt lat="51.0779640" lon="7.4566560">
        <ele>316.4100000</ele>
        <time>2010-08-20T13:20:03Z</time>
      </trkpt>
      <trkpt lat="51.0780910" lon="7.4567300">
        <ele>317.3700000</ele>
        <time>2010-08-20T13:20:04Z</time>
      </trkpt>
      <trkpt lat="51.0785920" lon="7.4569310">
        <ele>321.2200000</ele>
        <time>2010-08-20T13:20:08Z</time>
      </trkpt>
      <trkpt lat="51.0789490" lon="7.4566110">
        <ele>326.0200000</ele>
        <time>2010-08-20T13:20:12Z</time>
      </trkpt>
      <trkpt lat="51.0790660" lon="7.4563810">
        <ele>325.0600000</ele>
        <time>2010-08-20T13:20:13Z</time>
      </trkpt>
      <trkpt lat="51.0791750" lon="7.4561910">
        <ele>324.5800000</ele>
        <time>2010-08-20T13:20:14Z</time>
      </trkpt>
      <trkpt lat="51.0793010" lon="7.4560200">
        <ele>325.0600000</ele>
        <time>2010-08-20T13:20:15Z</time>
      </trkpt>
      <trkpt lat="51.0794320" lon="7.4558760">
        <ele>325.5400000</ele>
        <time>2010-08-20T13:20:16Z</time>
      </trkpt>
      <trkpt lat="51.0795730" lon="7.4557560">
        <ele>326.0200000</ele>
        <time>2010-08-20T13:20:17Z</time>
      </trkpt>
      <trkpt lat="51.0797320" lon="7.4556580">
        <ele>326.9900000</ele>
        <time>2010-08-20T13:20:18Z</time>
      </trkpt>
      <trkpt lat="51.0798890" lon="7.4555720">
        <ele>327.9500000</ele>
        <time>2010-08-20T13:20:19Z</time>
      </trkpt>
      <trkpt lat="51.0803170" lon="7.4554210">
        <ele>329.3900000</ele>
        <time>2010-08-20T13:20:22Z</time>
      </trkpt>
      <trkpt lat="51.0804510" lon="7.4554180">
        <ele>329.8700000</ele>
        <time>2010-08-20T13:20:23Z</time>
      </trkpt>
      <trkpt lat="51.0805900" lon="7.4554420">
        <ele>330.8300000</ele>
        <time>2010-08-20T13:20:24Z</time>
      </trkpt>
      <trkpt lat="51.0807340" lon="7.4554930">
        <ele>331.3100000</ele>
        <time>2010-08-20T13:20:25Z</time>
      </trkpt>
      <trkpt lat="51.0808860" lon="7.4555700">
        <ele>332.7500000</ele>
        <time>2010-08-20T13:20:26Z</time>
      </trkpt>
      <trkpt lat="51.0810510" lon="7.4556710">
        <ele>333.7100000</ele>
        <time>2010-08-20T13:20:27Z</time>
      </trkpt>
      <trkpt lat="51.0821020" lon="7.4565840">
        <ele>342.8500000</ele>
        <time>2010-08-20T13:20:34Z</time>
      </trkpt>
      <trkpt lat="51.0828900" lon="7.4576190">
        <ele>348.1300000</ele>
        <time>2010-08-20T13:20:42Z</time>
      </trkpt>
      <trkpt lat="51.0831800" lon="7.4580440">
        <ele>349.1000000</ele>
        <time>2010-08-20T13:20:46Z</time>
      </trkpt>
      <trkpt lat="51.0832550" lon="7.4580920">
        <ele>349.5800000</ele>
        <time>2010-08-20T13:20:47Z</time>
      </trkpt>
      <trkpt lat="51.0833350" lon="7.4581030">
        <ele>349.5800000</ele>
        <time>2010-08-20T13:20:48Z</time>
      </trkpt>
      <trkpt lat="51.0834120" lon="7.4580750">
        <ele>350.0600000</ele>
        <time>2010-08-20T13:20:49Z</time>
      </trkpt>
      <trkpt lat="51.0834810" lon="7.4579190">
        <ele>350.0600000</ele>
        <time>2010-08-20T13:20:50Z</time>
      </trkpt>
      <trkpt lat="51.0835290" lon="7.4577550">
        <ele>350.0600000</ele>
        <time>2010-08-20T13:20:51Z</time>
      </trkpt>
      <trkpt lat="51.0835420" lon="7.4575950">
        <ele>350.5400000</ele>
        <time>2010-08-20T13:20:52Z</time>
      </trkpt>
      <trkpt lat="51.0835460" lon="7.4574310">
        <ele>351.5000000</ele>
        <time>2010-08-20T13:20:53Z</time>
      </trkpt>
      <trkpt lat="51.0835460" lon="7.4572870">
        <ele>352.4600000</ele>
        <time>2010-08-20T13:20:54Z</time>
      </trkpt>
      <trkpt lat="51.0835640" lon="7.4570460">
        <ele>353.9000000</ele>
        <time>2010-08-20T13:20:56Z</time>
      </trkpt>
      <trkpt lat="51.0835980" lon="7.4569790">
        <ele>354.3800000</ele>
        <time>2010-08-20T13:20:57Z</time>
      </trkpt>
      <trkpt lat="51.0836540" lon="7.4569590">
        <ele>354.8600000</ele>
        <time>2010-08-20T13:20:58Z</time>
      </trkpt>
      <trkpt lat="51.0837370" lon="7.4569910">
        <ele>355.3400000</ele>
        <time>2010-08-20T13:20:59Z</time>
      </trkpt>
      <trkpt lat="51.0838360" lon="7.4570710">
        <ele>355.8300000</ele>
        <time>2010-08-20T13:21:00Z</time>
      </trkpt>
      <trkpt lat="51.0839540" lon="7.4571710">
        <ele>355.8300000</ele>
        <time>2010-08-20T13:21:01Z</time>
      </trkpt>
      <trkpt lat="51.0848570" lon="7.4577740">
        <ele>361.5900000</ele>
        <time>2010-08-20T13:21:06Z</time>
      </trkpt>
      <trkpt lat="51.0858690" lon="7.4584930">
        <ele>372.1700000</ele>
        <time>2010-08-20T13:21:12Z</time>
      </trkpt>
      <trkpt lat="51.0859900" lon="7.4585620">
        <ele>373.6100000</ele>
        <time>2010-08-20T13:21:13Z</time>
      </trkpt>
      <trkpt lat="51.0861070" lon="7.4585960">
        <ele>375.0500000</ele>
        <time>2010-08-20T13:21:14Z</time>
      </trkpt>
      <trkpt lat="51.0862280" lon="7.4585930">
        <ele>376.0100000</ele>
        <time>2010-08-20T13:21:15Z</time>
      </trkpt>
      <trkpt lat="51.0863510" lon="7.4585650">
        <ele>376.9700000</ele>
        <time>2010-08-20T13:21:16Z</time>
      </trkpt>
      <trkpt lat="51.0864680" lon="7.4585320">
        <ele>377.9400000</ele>
        <time>2010-08-20T13:21:17Z</time>
      </trkpt>
      <trkpt lat="51.0871650" lon="7.4584100">
        <ele>382.2600000</ele>
        <time>2010-08-20T13:21:24Z</time>
      </trkpt>
      <trkpt lat="51.0872780" lon="7.4584430">
        <ele>382.7400000</ele>
        <time>2010-08-20T13:21:25Z</time>
      </trkpt>
      <trkpt lat="51.0873990" lon="7.4584970">
        <ele>383.2200000</ele>
        <time>2010-08-20T13:21:26Z</time>
      </trkpt>
      <trkpt lat="51.0879790" lon="7.4587680">
        <ele>385.6300000</ele>
        <time>2010-08-20T13:21:31Z</time>
      </trkpt>
      <trkpt lat="51.0880510" lon="7.4587500">
        <ele>386.1100000</ele>
        <time>2010-08-20T13:21:32Z</time>
      </trkpt>
      <trkpt lat="51.0881020" lon="7.4586870">
        <ele>386.1100000</ele>
        <time>2010-08-20T13:21:33Z</time>
      </trkpt>
      <trkpt lat="51.0881470" lon="7.4586060">
        <ele>386.5900000</ele>
        <time>2010-08-20T13:21:34Z</time>
      </trkpt>
      <trkpt lat="51.0881900" lon="7.4585020">
        <ele>387.0700000</ele>
        <time>2010-08-20T13:21:35Z</time>
      </trkpt>
      <trkpt lat="51.0882330" lon="7.4583810">
        <ele>387.5500000</ele>
        <time>2010-08-20T13:21:36Z</time>
      </trkpt>
      <trkpt lat="51.0887540" lon="7.4569890">
        <ele>388.0300000</ele>
        <time>2010-08-20T13:21:45Z</time>
      </trkpt>
      <trkpt lat="51.0888310" lon="7.4568560">
        <ele>388.0300000</ele>
        <time>2010-08-20T13:21:46Z</time>
      </trkpt>
      <trkpt lat="51.0889200" lon="7.4567330">
        <ele>387.5500000</ele>
        <time>2010-08-20T13:21:47Z</time>
      </trkpt>
      <trkpt lat="51.0898850" lon="7.4557100">
        <ele>383.7000000</ele>
        <time>2010-08-20T13:21:55Z</time>
      </trkpt>
      <trkpt lat="51.0911820" lon="7.4541390">
        <ele>378.9000000</ele>
        <time>2010-08-20T13:22:06Z</time>
      </trkpt>
      <trkpt lat="51.0915500" lon="7.4536990">
        <ele>377.9400000</ele>
        <time>2010-08-20T13:22:09Z</time>
      </trkpt>
      <trkpt lat="51.0916910" lon="7.4535790">
        <ele>377.9400000</ele>
        <time>2010-08-20T13:22:10Z</time>
      </trkpt>
      <trkpt lat="51.0918460" lon="7.4534780">
        <ele>378.4200000</ele>
        <time>2010-08-20T13:22:11Z</time>
      </trkpt>
      <trkpt lat="51.0934800" lon="7.4524930">
        <ele>376.4900000</ele>
        <time>2010-08-20T13:22:22Z</time>
      </trkpt>
      <trkpt lat="51.0935770" lon="7.4523330">
        <ele>375.0500000</ele>
        <time>2010-08-20T13:22:23Z</time>
      </trkpt>
      <trkpt lat="51.0943640" lon="7.4509200">
        <ele>364.0000000</ele>
        <time>2010-08-20T13:22:30Z</time>
      </trkpt>
      <trkpt lat="51.0952580" lon="7.4498560">
        <ele>355.8300000</ele>
        <time>2010-08-20T13:22:37Z</time>
      </trkpt>
      <trkpt lat="51.0963260" lon="7.4489700">
        <ele>348.1300000</ele>
        <time>2010-08-20T13:22:48Z</time>
      </trkpt>
      <trkpt lat="51.0969630" lon="7.4486630">
        <ele>342.3700000</ele>
        <time>2010-08-20T13:22:55Z</time>
      </trkpt>
      <trkpt lat="51.0970210" lon="7.4486490">
        <ele>341.4100000</ele>
        <time>2010-08-20T13:22:56Z</time>
      </trkpt>
      <trkpt lat="51.0970660" lon="7.4486450">
        <ele>340.4400000</ele>
        <time>2010-08-20T13:22:57Z</time>
      </trkpt>
      <trkpt lat="51.0971850" lon="7.4486050">
        <ele>338.5200000</ele>
        <time>2010-08-20T13:23:02Z</time>
      </trkpt>
      <trkpt lat="51.0972030" lon="7.4486090">
        <ele>337.5600000</ele>
        <time>2010-08-20T13:23:03Z</time>
      </trkpt>
      <trkpt lat="51.0972240" lon="7.4486120">
        <ele>337.0800000</ele>
        <time>2010-08-20T13:23:04Z</time>
      </trkpt>
      <trkpt lat="51.0972480" lon="7.4486040">
        <ele>336.6000000</ele>
        <time>2010-08-20T13:23:05Z</time>
      </trkpt>
      <trkpt lat="51.0972730" lon="7.4485830">
        <ele>336.1200000</ele>
        <time>2010-08-20T13:23:06Z</time>
      </trkpt>
      <trkpt lat="51.0972970" lon="7.4485570">
        <ele>335.6400000</ele>
        <time>2010-08-20T13:23:07Z</time>
      </trkpt>
      <trkpt lat="51.0973920" lon="7.4484500">
        <ele>337.0800000</ele>
        <time>2010-08-20T13:23:17Z</time>
      </trkpt>
      <trkpt lat="51.0974030" lon="7.4484520">
        <ele>337.0800000</ele>
        <time>2010-08-20T13:23:18Z</time>
      </trkpt>
      <trkpt lat="51.0974130" lon="7.4484580">
        <ele>337.0800000</ele>
        <time>2010-08-20T13:23:19Z</time>
      </trkpt>
      <trkpt lat="51.0974230" lon="7.4484670">
        <ele>336.6000000</ele>
        <time>2010-08-20T13:23:20Z</time>
      </trkpt>
      <trkpt lat="51.0974340" lon="7.4484820">
        <ele>336.6000000</ele>
        <time>2010-08-20T13:23:21Z</time>
      </trkpt>
      <trkpt lat="51.0974420" lon="7.4485060">
        <ele>336.6000000</ele>
        <time>2010-08-20T13:23:22Z</time>
      </trkpt>
      <trkpt lat="51.0974500" lon="7.4485390">
        <ele>336.1200000</ele>
        <time>2010-08-20T13:23:23Z</time>
      </trkpt>
      <trkpt lat="51.0974590" lon="7.4485820">
        <ele>336.1200000</ele>
        <time>2010-08-20T13:23:24Z</time>
      </trkpt>
      <trkpt lat="51.0974990" lon="7.4487640">
        <ele>336.1200000</ele>
        <time>2010-08-20T13:23:27Z</time>
      </trkpt>
      <trkpt lat="51.0975710" lon="7.4493580">
        <ele>338.5200000</ele>
        <time>2010-08-20T13:23:37Z</time>
      </trkpt>
      <trkpt lat="51.0976010" lon="7.4498270">
        <ele>340.9200000</ele>
        <time>2010-08-20T13:23:45Z</time>
      </trkpt>
      <trkpt lat="51.0976660" lon="7.4506920">
        <ele>343.3300000</ele>
        <time>2010-08-20T13:23:55Z</time>
      </trkpt>
      <trkpt lat="51.0976930" lon="7.4510820">
        <ele>344.2900000</ele>
        <time>2010-08-20T13:23:59Z</time>
      </trkpt>
      <trkpt lat="51.0977110" lon="7.4512530">
        <ele>345.2500000</ele>
        <time>2010-08-20T13:24:01Z</time>
      </trkpt>
      <trkpt lat="51.0977100" lon="7.4513610">
        <ele>345.2500000</ele>
        <time>2010-08-20T13:24:02Z</time>
      </trkpt>
      <trkpt lat="51.0976590" lon="7.4523770">
        <ele>348.1300000</ele>
        <time>2010-08-20T13:24:07Z</time>
      </trkpt>
      <trkpt lat="51.0975210" lon="7.4539880">
        <ele>348.6200000</ele>
        <time>2010-08-20T13:24:14Z</time>
      </trkpt>
      <trkpt lat="51.0974710" lon="7.4541920">
        <ele>348.1300000</ele>
        <time>2010-08-20T13:24:15Z</time>
      </trkpt>
      <trkpt lat="51.0974040" lon="7.4543870">
        <ele>347.6500000</ele>
        <time>2010-08-20T13:24:16Z</time>
      </trkpt>
      <trkpt lat="51.0973190" lon="7.4545780">
        <ele>347.6500000</ele>
        <time>2010-08-20T13:24:17Z</time>
      </trkpt>
      <trkpt lat="51.0972170" lon="7.4547680">
        <ele>347.1700000</ele>
        <time>2010-08-20T13:24:18Z</time>
      </trkpt>
      <trkpt lat="51.0971020" lon="7.4549660">
        <ele>347.1700000</ele>
        <time>2010-08-20T13:24:19Z</time>
      </trkpt>
      <trkpt lat="51.0960950" lon="7.4566830">
        <ele>343.8100000</ele>
        <time>2010-08-20T13:24:27Z</time>
      </trkpt>
      <trkpt lat="51.0955330" lon="7.4579550">
        <ele>342.8500000</ele>
        <time>2010-08-20T13:24:34Z</time>
      </trkpt>
      <trkpt lat="51.0949760" lon="7.4597840">
        <ele>347.1700000</ele>
        <time>2010-08-20T13:24:44Z</time>
      </trkpt>
      <trkpt lat="51.0941090" lon="7.4616260">
        <ele>356.7900000</ele>
        <time>2010-08-20T13:24:55Z</time>
      </trkpt>
      <trkpt lat="51.0932740" lon="7.4629150">
        <ele>361.1100000</ele>
        <time>2010-08-20T13:25:02Z</time>
      </trkpt>
      <trkpt lat="51.0932040" lon="7.4631460">
        <ele>362.0700000</ele>
        <time>2010-08-20T13:25:03Z</time>
      </trkpt>
      <trkpt lat="51.0929270" lon="7.4642550">
        <ele>367.3600000</ele>
        <time>2010-08-20T13:25:09Z</time>
      </trkpt>
      <trkpt lat="51.0929080" lon="7.4643240">
        <ele>367.8400000</ele>
        <time>2010-08-20T13:25:10Z</time>
      </trkpt>
      <trkpt lat="51.0928910" lon="7.4643680">
        <ele>368.8000000</ele>
        <time>2010-08-20T13:25:11Z</time>
      </trkpt>
      <trkpt lat="51.0928720" lon="7.4643950">
        <ele>369.2800000</ele>
        <time>2010-08-20T13:25:12Z</time>
      </trkpt>
      <trkpt lat="51.0928550" lon="7.4644100">
        <ele>370.2400000</ele>
        <time>2010-08-20T13:25:13Z</time>
      </trkpt>
      <trkpt lat="51.0928290" lon="7.4644120">
        <ele>371.6900000</ele>
        <time>2010-08-20T13:25:14Z</time>
      </trkpt>
      <trkpt lat="51.0927930" lon="7.4644080">
        <ele>372.1700000</ele>
        <time>2010-08-20T13:25:15Z</time>
      </trkpt>
      <trkpt lat="51.0927430" lon="7.4643920">
        <ele>372.6500000</ele>
        <time>2010-08-20T13:25:16Z</time>
      </trkpt>
      <trkpt lat="51.0926100" lon="7.4643330">
        <ele>371.6900000</ele>
        <time>2010-08-20T13:25:18Z</time>
      </trkpt>
      <trkpt lat="51.0925480" lon="7.4642720">
        <ele>371.2100000</ele>
        <time>2010-08-20T13:25:19Z</time>
      </trkpt>
      <trkpt lat="51.0924740" lon="7.4642260">
        <ele>371.2100000</ele>
        <time>2010-08-20T13:25:20Z</time>
      </trkpt>
      <trkpt lat="51.0924000" lon="7.4641880">
        <ele>371.6900000</ele>
        <time>2010-08-20T13:25:21Z</time>
      </trkpt>
      <trkpt lat="51.0923020" lon="7.4642150">
        <ele>371.6900000</ele>
        <time>2010-08-20T13:25:22Z</time>
      </trkpt>
      <trkpt lat="51.0922370" lon="7.4643080">
        <ele>372.6500000</ele>
        <time>2010-08-20T13:25:24Z</time>
      </trkpt>
      <trkpt lat="51.0921930" lon="7.4644170">
        <ele>372.1700000</ele>
        <time>2010-08-20T13:25:25Z</time>
      </trkpt>
      <trkpt lat="51.0921410" lon="7.4645860">
        <ele>372.6500000</ele>
        <time>2010-08-20T13:25:26Z</time>
      </trkpt>
      <trkpt lat="51.0920940" lon="7.4647130">
        <ele>373.1300000</ele>
        <time>2010-08-20T13:25:27Z</time>
      </trkpt>
      <trkpt lat="51.0919870" lon="7.4649380">
        <ele>376.0100000</ele>
        <time>2010-08-20T13:25:29Z</time>
      </trkpt>
      <trkpt lat="51.0918370" lon="7.4651270">
        <ele>377.9400000</ele>
        <time>2010-08-20T13:25:31Z</time>
      </trkpt>
      <trkpt lat="51.0917180" lon="7.4651850">
        <ele>379.3800000</ele>
        <time>2010-08-20T13:25:32Z</time>
      </trkpt>
      <trkpt lat="51.0907910" lon="7.4656200">
        <ele>389.9500000</ele>
        <time>2010-08-20T13:25:40Z</time>
      </trkpt>
      <trkpt lat="51.0906930" lon="7.4656210">
        <ele>390.9100000</ele>
        <time>2010-08-20T13:25:41Z</time>
      </trkpt>
      <trkpt lat="51.0906050" lon="7.4656030">
        <ele>391.3900000</ele>
        <time>2010-08-20T13:25:42Z</time>
      </trkpt>
      <trkpt lat="51.0905320" lon="7.4655750">
        <ele>392.3600000</ele>
        <time>2010-08-20T13:25:43Z</time>
      </trkpt>
      <trkpt lat="51.0904800" lon="7.4655520">
        <ele>392.8400000</ele>
        <time>2010-08-20T13:25:44Z</time>
      </trkpt>
      <trkpt lat="51.0903880" lon="7.4655000">
        <ele>393.8000000</ele>
        <time>2010-08-20T13:25:52Z</time>
      </trkpt>
      <trkpt lat="51.0903810" lon="7.4654760">
        <ele>394.2800000</ele>
        <time>2010-08-20T13:26:08Z</time>
      </trkpt>
      <trkpt lat="51.0903730" lon="7.4654520">
        <ele>394.2800000</ele>
        <time>2010-08-20T13:26:14Z</time>
      </trkpt>
      <trkpt lat="51.0903650" lon="7.4654110">
        <ele>394.2800000</ele>
        <time>2010-08-20T13:26:15Z</time>
      </trkpt>
      <trkpt lat="51.0903630" lon="7.4653430">
        <ele>394.2800000</ele>
        <time>2010-08-20T13:26:16Z</time>
      </trkpt>
      <trkpt lat="51.0903690" lon="7.4652520">
        <ele>393.8000000</ele>
        <time>2010-08-20T13:26:17Z</time>
      </trkpt>
      <trkpt lat="51.0903830" lon="7.4651420">
        <ele>393.8000000</ele>
        <time>2010-08-20T13:26:18Z</time>
      </trkpt>
      <trkpt lat="51.0903990" lon="7.4650170">
        <ele>393.3200000</ele>
        <time>2010-08-20T13:26:19Z</time>
      </trkpt>
      <trkpt lat="51.0904240" lon="7.4633930">
        <ele>387.0700000</ele>
        <time>2010-08-20T13:26:29Z</time>
      </trkpt>
      <trkpt lat="51.0902410" lon="7.4615400">
        <ele>388.9900000</ele>
        <time>2010-08-20T13:26:37Z</time>
      </trkpt>
      <trkpt lat="51.0901850" lon="7.4612800">
        <ele>389.4700000</ele>
        <time>2010-08-20T13:26:39Z</time>
      </trkpt>
      <trkpt lat="51.0901100" lon="7.4611190">
        <ele>390.4300000</ele>
        <time>2010-08-20T13:26:45Z</time>
      </trkpt>
      <trkpt lat="51.0901590" lon="7.4611520">
        <ele>391.3900000</ele>
        <time>2010-08-20T13:27:02Z</time>
      </trkpt>
      <trkpt lat="51.0902030" lon="7.4611040">
        <ele>394.2800000</ele>
        <time>2010-08-20T13:27:19Z</time>
      </trkpt>
      <trkpt lat="51.0902810" lon="7.4611420">
        <ele>388.5100000</ele>
        <time>2010-08-20T13:27:50Z</time>
      </trkpt>
      <trkpt lat="51.0902660" lon="7.4611320">
        <ele>388.0300000</ele>
        <time>2010-08-20T13:28:22Z</time>
      </trkpt>
      <trkpt lat="51.0901730" lon="7.4610640">
        <ele>403.4100000</ele>
        <time>2010-08-20T13:29:31Z</time>
      </trkpt>
      <trkpt lat="51.0902330" lon="7.4609580">
        <ele>412.0600000</ele>
        <time>2010-08-20T13:30:41Z</time>
      </trkpt>
      <trkpt lat="51.0902870" lon="7.4609340">
        <ele>441.8600000</ele>
        <time>2010-08-20T13:32:51Z</time>
      </trkpt>
      <trkpt lat="51.0903650" lon="7.4609860">
        <ele>438.5000000</ele>
        <time>2010-08-20T13:33:48Z</time>
      </trkpt>
      <trkpt lat="51.0901860" lon="7.4609530">
        <ele>418.7900000</ele>
        <time>2010-08-20T13:34:35Z</time>
      </trkpt>
      <trkpt lat="51.0902720" lon="7.4610530">
        <ele>413.9800000</ele>
        <time>2010-08-20T13:37:07Z</time>
      </trkpt>
      <trkpt lat="51.0902150" lon="7.4610690">
        <ele>411.5800000</ele>
        <time>2010-08-20T13:37:23Z</time>
      </trkpt>
      <trkpt lat="51.0901260" lon="7.4609900">
        <ele>410.1400000</ele>
        <time>2010-08-20T13:37:26Z</time>
      </trkpt>
      <trkpt lat="51.0896680" lon="7.4603520">
        <ele>402.9300000</ele>
        <time>2010-08-20T13:37:36Z</time>
      </trkpt>
      <trkpt lat="51.0893730" lon="7.4598530">
        <ele>396.2000000</ele>
        <time>2010-08-20T13:37:42Z</time>
      </trkpt>
      <trkpt lat="51.0893090" lon="7.4598000">
        <ele>395.2400000</ele>
        <time>2010-08-20T13:37:43Z</time>
      </trkpt>
      <trkpt lat="51.0884090" lon="7.4590010">
        <ele>388.0300000</ele>
        <time>2010-08-20T13:37:57Z</time>
      </trkpt>
      <trkpt lat="51.0881450" lon="7.4586060">
        <ele>386.5900000</ele>
        <time>2010-08-20T13:38:03Z</time>
      </trkpt>
      <trkpt lat="51.0881240" lon="7.4586050">
        <ele>386.1100000</ele>
        <time>2010-08-20T13:38:04Z</time>
      </trkpt>
      <trkpt lat="51.0881020" lon="7.4586260">
        <ele>386.1100000</ele>
        <time>2010-08-20T13:38:05Z</time>
      </trkpt>
      <trkpt lat="51.0880190" lon="7.4587160">
        <ele>385.1500000</ele>
        <time>2010-08-20T13:38:07Z</time>
      </trkpt>
      <trkpt lat="51.0879500" lon="7.4587360">
        <ele>384.6600000</ele>
        <time>2010-08-20T13:38:08Z</time>
      </trkpt>
      <trkpt lat="51.0878730" lon="7.4587250">
        <ele>383.7000000</ele>
        <time>2010-08-20T13:38:09Z</time>
      </trkpt>
      <trkpt lat="51.0877940" lon="7.4586930">
        <ele>383.2200000</ele>
        <time>2010-08-20T13:38:10Z</time>
      </trkpt>
      <trkpt lat="51.0877130" lon="7.4586520">
        <ele>382.7400000</ele>
        <time>2010-08-20T13:38:11Z</time>
      </trkpt>
      <trkpt lat="51.0869790" lon="7.4583510">
        <ele>379.3800000</ele>
        <time>2010-08-20T13:38:20Z</time>
      </trkpt>
      <trkpt lat="51.0868990" lon="7.4583540">
        <ele>378.9000000</ele>
        <time>2010-08-20T13:38:21Z</time>
      </trkpt>
      <trkpt lat="51.0866300" lon="7.4583690">
        <ele>378.4200000</ele>
        <time>2010-08-20T13:38:25Z</time>
      </trkpt>
      <trkpt lat="51.0865790" lon="7.4583280">
        <ele>378.4200000</ele>
        <time>2010-08-20T13:38:26Z</time>
      </trkpt>
      <trkpt lat="51.0865310" lon="7.4582560">
        <ele>378.9000000</ele>
        <time>2010-08-20T13:38:27Z</time>
      </trkpt>
      <trkpt lat="51.0864890" lon="7.4581630">
        <ele>379.3800000</ele>
        <time>2010-08-20T13:38:28Z</time>
      </trkpt>
      <trkpt lat="51.0864560" lon="7.4580690">
        <ele>379.8600000</ele>
        <time>2010-08-20T13:38:29Z</time>
      </trkpt>
      <trkpt lat="51.0864300" lon="7.4579830">
        <ele>379.8600000</ele>
        <time>2010-08-20T13:38:30Z</time>
      </trkpt>
      <trkpt lat="51.0864070" lon="7.4579000">
        <ele>379.8600000</ele>
        <time>2010-08-20T13:38:31Z</time>
      </trkpt>
      <trkpt lat="51.0862730" lon="7.4574910">
        <ele>379.8600000</ele>
        <time>2010-08-20T13:38:36Z</time>
      </trkpt>
      <trkpt lat="51.0862600" lon="7.4574070">
        <ele>379.8600000</ele>
        <time>2010-08-20T13:38:37Z</time>
      </trkpt>
      <trkpt lat="51.0862600" lon="7.4573210">
        <ele>379.8600000</ele>
        <time>2010-08-20T13:38:38Z</time>
      </trkpt>
      <trkpt lat="51.0862750" lon="7.4572320">
        <ele>379.8600000</ele>
        <time>2010-08-20T13:38:39Z</time>
      </trkpt>
      <trkpt lat="51.0863020" lon="7.4571390">
        <ele>379.8600000</ele>
        <time>2010-08-20T13:38:40Z</time>
      </trkpt>
      <trkpt lat="51.0863380" lon="7.4570420">
        <ele>379.8600000</ele>
        <time>2010-08-20T13:38:41Z</time>
      </trkpt>
      <trkpt lat="51.0863810" lon="7.4569430">
        <ele>379.8600000</ele>
        <time>2010-08-20T13:38:42Z</time>
      </trkpt>
      <trkpt lat="51.0864300" lon="7.4568430">
        <ele>380.3400000</ele>
        <time>2010-08-20T13:38:43Z</time>
      </trkpt>
      <trkpt lat="51.0874190" lon="7.4547830">
        <ele>387.5500000</ele>
        <time>2010-08-20T13:39:02Z</time>
      </trkpt>
      <trkpt lat="51.0882690" lon="7.4528000">
        <ele>393.3200000</ele>
        <time>2010-08-20T13:39:19Z</time>
      </trkpt>
      <trkpt lat="51.0886700" lon="7.4514110">
        <ele>392.8400000</ele>
        <time>2010-08-20T13:39:29Z</time>
      </trkpt>
      <trkpt lat="51.0887220" lon="7.4513020">
        <ele>392.8400000</ele>
        <time>2010-08-20T13:39:30Z</time>
      </trkpt>
      <trkpt lat="51.0887840" lon="7.4512090">
        <ele>392.3600000</ele>
        <time>2010-08-20T13:39:31Z</time>
      </trkpt>
      <trkpt lat="51.0888530" lon="7.4511280">
        <ele>392.3600000</ele>
        <time>2010-08-20T13:39:32Z</time>
      </trkpt>
      <trkpt lat="51.0889300" lon="7.4510580">
        <ele>391.8700000</ele>
        <time>2010-08-20T13:39:33Z</time>
      </trkpt>
      <trkpt lat="51.0890090" lon="7.4509930">
        <ele>391.8700000</ele>
        <time>2010-08-20T13:39:34Z</time>
      </trkpt>
      <trkpt lat="51.0898140" lon="7.4505380">
        <ele>389.4700000</ele>
        <time>2010-08-20T13:39:45Z</time>
      </trkpt>
      <trkpt lat="51.0901110" lon="7.4504630">
        <ele>387.0700000</ele>
        <time>2010-08-20T13:39:48Z</time>
      </trkpt>
      <trkpt lat="51.0902140" lon="7.4504100">
        <ele>385.6300000</ele>
        <time>2010-08-20T13:39:49Z</time>
      </trkpt>
      <trkpt lat="51.0914140" lon="7.4495930">
        <ele>374.0900000</ele>
        <time>2010-08-20T13:39:59Z</time>
      </trkpt>
      <trkpt lat="51.0916530" lon="7.4493860">
        <ele>373.1300000</ele>
        <time>2010-08-20T13:40:01Z</time>
      </trkpt>
      <trkpt lat="51.0917530" lon="7.4492590">
        <ele>372.6500000</ele>
        <time>2010-08-20T13:40:02Z</time>
      </trkpt>
      <trkpt lat="51.0918410" lon="7.4491170">
        <ele>372.6500000</ele>
        <time>2010-08-20T13:40:03Z</time>
      </trkpt>
      <trkpt lat="51.0920670" lon="7.4486540">
        <ele>372.1700000</ele>
        <time>2010-08-20T13:40:06Z</time>
      </trkpt>
      <trkpt lat="51.0921200" lon="7.4484860">
        <ele>372.1700000</ele>
        <time>2010-08-20T13:40:07Z</time>
      </trkpt>
      <trkpt lat="51.0926050" lon="7.4465780">
        <ele>371.6900000</ele>
        <time>2010-08-20T13:40:17Z</time>
      </trkpt>
      <trkpt lat="51.0928500" lon="7.4457020">
        <ele>372.1700000</ele>
        <time>2010-08-20T13:40:25Z</time>
      </trkpt>
      <trkpt lat="51.0928740" lon="7.4455080">
        <ele>371.6900000</ele>
        <time>2010-08-20T13:40:32Z</time>
      </trkpt>
      <trkpt lat="51.0928660" lon="7.4455040">
        <ele>371.6900000</ele>
        <time>2010-08-20T13:40:33Z</time>
      </trkpt>
      <trkpt lat="51.0927770" lon="7.4455010">
        <ele>370.2400000</ele>
        <time>2010-08-20T13:40:36Z</time>
      </trkpt>
      <trkpt lat="51.0927290" lon="7.4455110">
        <ele>369.7600000</ele>
        <time>2010-08-20T13:40:37Z</time>
      </trkpt>
      <trkpt lat="51.0926780" lon="7.4455230">
        <ele>369.2800000</ele>
        <time>2010-08-20T13:40:38Z</time>
      </trkpt>
      <trkpt lat="51.0926250" lon="7.4455280">
        <ele>368.8000000</ele>
        <time>2010-08-20T13:40:39Z</time>
      </trkpt>
      <trkpt lat="51.0925100" lon="7.4455360">
        <ele>367.3600000</ele>
        <time>2010-08-20T13:40:41Z</time>
      </trkpt>
      <trkpt lat="51.0924520" lon="7.4455540">
        <ele>366.8800000</ele>
        <time>2010-08-20T13:40:42Z</time>
      </trkpt>
      <trkpt lat="51.0923960" lon="7.4455820">
        <ele>365.9200000</ele>
        <time>2010-08-20T13:40:43Z</time>
      </trkpt>
      <trkpt lat="51.0922290" lon="7.4456840">
        <ele>364.0000000</ele>
        <time>2010-08-20T13:40:46Z</time>
      </trkpt>
      <trkpt lat="51.0921680" lon="7.4457010">
        <ele>363.0400000</ele>
        <time>2010-08-20T13:40:47Z</time>
      </trkpt>
      <trkpt lat="51.0921040" lon="7.4456970">
        <ele>362.5500000</ele>
        <time>2010-08-20T13:40:48Z</time>
      </trkpt>
      <trkpt lat="51.0920390" lon="7.4456730">
        <ele>361.5900000</ele>
        <time>2010-08-20T13:40:49Z</time>
      </trkpt>
      <trkpt lat="51.0919690" lon="7.4456300">
        <ele>360.1500000</ele>
        <time>2010-08-20T13:40:50Z</time>
      </trkpt>
      <trkpt lat="51.0918930" lon="7.4455720">
        <ele>358.7100000</ele>
        <time>2010-08-20T13:40:51Z</time>
      </trkpt>
      <trkpt lat="51.0918130" lon="7.4455010">
        <ele>357.2700000</ele>
        <time>2010-08-20T13:40:52Z</time>
      </trkpt>
      <trkpt lat="51.0914260" lon="7.4450950">
        <ele>351.9800000</ele>
        <time>2010-08-20T13:40:57Z</time>
      </trkpt>
      <trkpt lat="51.0913870" lon="7.4450050">
        <ele>351.5000000</ele>
        <time>2010-08-20T13:40:58Z</time>
      </trkpt>
      <trkpt lat="51.0913630" lon="7.4449050">
        <ele>351.0200000</ele>
        <time>2010-08-20T13:40:59Z</time>
      </trkpt>
      <trkpt lat="51.0913510" lon="7.4447970">
        <ele>350.0600000</ele>
        <time>2010-08-20T13:41:00Z</time>
      </trkpt>
      <trkpt lat="51.0913470" lon="7.4446810">
        <ele>349.5800000</ele>
        <time>2010-08-20T13:41:01Z</time>
      </trkpt>
      <trkpt lat="51.0913460" lon="7.4445620">
        <ele>348.6200000</ele>
        <time>2010-08-20T13:41:02Z</time>
      </trkpt>
      <trkpt lat="51.0913280" lon="7.4441970">
        <ele>346.2100000</ele>
        <time>2010-08-20T13:41:05Z</time>
      </trkpt>
      <trkpt lat="51.0913000" lon="7.4440800">
        <ele>345.2500000</ele>
        <time>2010-08-20T13:41:06Z</time>
      </trkpt>
      <trkpt lat="51.0912640" lon="7.4439660">
        <ele>344.7700000</ele>
        <time>2010-08-20T13:41:07Z</time>
      </trkpt>
      <trkpt lat="51.0910480" lon="7.4432830">
        <ele>339.0000000</ele>
        <time>2010-08-20T13:41:13Z</time>
      </trkpt>
      <trkpt lat="51.0910270" lon="7.4431960">
        <ele>338.0400000</ele>
        <time>2010-08-20T13:41:14Z</time>
      </trkpt>
      <trkpt lat="51.0910050" lon="7.4430250">
        <ele>336.6000000</ele>
        <time>2010-08-20T13:41:16Z</time>
      </trkpt>
      <trkpt lat="51.0909220" lon="7.4427210">
        <ele>334.2000000</ele>
        <time>2010-08-20T13:41:20Z</time>
      </trkpt>
      <trkpt lat="51.0908700" lon="7.4426540">
        <ele>333.7100000</ele>
        <time>2010-08-20T13:41:21Z</time>
      </trkpt>
      <trkpt lat="51.0907050" lon="7.4422280">
        <ele>332.7500000</ele>
        <time>2010-08-20T13:41:26Z</time>
      </trkpt>
      <trkpt lat="51.0906110" lon="7.4418640">
        <ele>329.3900000</ele>
        <time>2010-08-20T13:41:32Z</time>
      </trkpt>
      <trkpt lat="51.0906050" lon="7.4417890">
        <ele>328.9100000</ele>
        <time>2010-08-20T13:41:33Z</time>
      </trkpt>
      <trkpt lat="51.0905970" lon="7.4416130">
        <ele>327.4700000</ele>
        <time>2010-08-20T13:41:35Z</time>
      </trkpt>
      <trkpt lat="51.0906030" lon="7.4415130">
        <ele>326.9900000</ele>
        <time>2010-08-20T13:41:36Z</time>
      </trkpt>
      <trkpt lat="51.0906120" lon="7.4414210">
        <ele>326.9900000</ele>
        <time>2010-08-20T13:41:37Z</time>
      </trkpt>
      <trkpt lat="51.0906310" lon="7.4412380">
        <ele>326.9900000</ele>
        <time>2010-08-20T13:41:39Z</time>
      </trkpt>
      <trkpt lat="51.0906700" lon="7.4410220">
        <ele>327.4700000</ele>
        <time>2010-08-20T13:41:41Z</time>
      </trkpt>
      <trkpt lat="51.0907210" lon="7.4408490">
        <ele>325.0600000</ele>
        <time>2010-08-20T13:41:43Z</time>
      </trkpt>
      <trkpt lat="51.0908550" lon="7.4405360">
        <ele>324.5800000</ele>
        <time>2010-08-20T13:41:46Z</time>
      </trkpt>
      <trkpt lat="51.0914120" lon="7.4392930">
        <ele>319.7800000</ele>
        <time>2010-08-20T13:41:56Z</time>
      </trkpt>
      <trkpt lat="51.0916080" lon="7.4388770">
        <ele>318.3300000</ele>
        <time>2010-08-20T13:41:59Z</time>
      </trkpt>
      <trkpt lat="51.0917950" lon="7.4379990">
        <ele>305.8400000</ele>
        <time>2010-08-20T13:42:07Z</time>
      </trkpt>
      <trkpt lat="51.0918300" lon="7.4378980">
        <ele>303.4300000</ele>
        <time>2010-08-20T13:42:09Z</time>
      </trkpt>
      <trkpt lat="51.0918670" lon="7.4378440">
        <ele>302.4700000</ele>
        <time>2010-08-20T13:42:10Z</time>
      </trkpt>
      <trkpt lat="51.0919300" lon="7.4376390">
        <ele>302.4700000</ele>
        <time>2010-08-20T13:42:12Z</time>
      </trkpt>
      <trkpt lat="51.0919600" lon="7.4375440">
        <ele>301.5100000</ele>
        <time>2010-08-20T13:42:13Z</time>
      </trkpt>
      <trkpt lat="51.0921120" lon="7.4366910">
        <ele>301.5100000</ele>
        <time>2010-08-20T13:42:19Z</time>
      </trkpt>
      <trkpt lat="51.0921380" lon="7.4364250">
        <ele>300.5500000</ele>
        <time>2010-08-20T13:42:21Z</time>
      </trkpt>
      <trkpt lat="51.0921350" lon="7.4362910">
        <ele>300.0700000</ele>
        <time>2010-08-20T13:42:22Z</time>
      </trkpt>
      <trkpt lat="51.0920850" lon="7.4350260">
        <ele>291.9000000</ele>
        <time>2010-08-20T13:42:33Z</time>
      </trkpt>
      <trkpt lat="51.0921730" lon="7.4342010">
        <ele>287.0900000</ele>
        <time>2010-08-20T13:42:39Z</time>
      </trkpt>
      <trkpt lat="51.0922090" lon="7.4340760">
        <ele>286.6100000</ele>
        <time>2010-08-20T13:42:40Z</time>
      </trkpt>
      <trkpt lat="51.0922500" lon="7.4339520">
        <ele>285.6500000</ele>
        <time>2010-08-20T13:42:41Z</time>
      </trkpt>
      <trkpt lat="51.0923600" lon="7.4335760">
        <ele>283.7300000</ele>
        <time>2010-08-20T13:42:44Z</time>
      </trkpt>
      <trkpt lat="51.0923810" lon="7.4334480">
        <ele>283.2500000</ele>
        <time>2010-08-20T13:42:45Z</time>
      </trkpt>
      <trkpt lat="51.0926920" lon="7.4320840">
        <ele>280.8400000</ele>
        <time>2010-08-20T13:42:58Z</time>
      </trkpt>
      <trkpt lat="51.0927800" lon="7.4318100">
        <ele>282.7700000</ele>
        <time>2010-08-20T13:43:06Z</time>
      </trkpt>
      <trkpt lat="51.0928330" lon="7.4317820">
        <ele>282.7700000</ele>
        <time>2010-08-20T13:43:08Z</time>
      </trkpt>
      <trkpt lat="51.0928890" lon="7.4317820">
        <ele>283.2500000</ele>
        <time>2010-08-20T13:43:09Z</time>
      </trkpt>
      <trkpt lat="51.0932070" lon="7.4317750">
        <ele>284.6900000</ele>
        <time>2010-08-20T13:43:16Z</time>
      </trkpt>
      <trkpt lat="51.0932260" lon="7.4317310">
        <ele>284.6900000</ele>
        <time>2010-08-20T13:43:17Z</time>
      </trkpt>
      <trkpt lat="51.0932350" lon="7.4316580">
        <ele>285.1700000</ele>
        <time>2010-08-20T13:43:18Z</time>
      </trkpt>
      <trkpt lat="51.0932250" lon="7.4315410">
        <ele>285.1700000</ele>
        <time>2010-08-20T13:43:19Z</time>
      </trkpt>
      <trkpt lat="51.0931990" lon="7.4313960">
        <ele>285.1700000</ele>
        <time>2010-08-20T13:43:20Z</time>
      </trkpt>
      <trkpt lat="51.0931700" lon="7.4312420">
        <ele>285.1700000</ele>
        <time>2010-08-20T13:43:21Z</time>
      </trkpt>
      <trkpt lat="51.0929300" lon="7.4293220">
        <ele>292.8600000</ele>
        <time>2010-08-20T13:43:32Z</time>
      </trkpt>
      <trkpt lat="51.0929520" lon="7.4283190">
        <ele>298.1500000</ele>
        <time>2010-08-20T13:43:39Z</time>
      </trkpt>
      <trkpt lat="51.0929770" lon="7.4281790">
        <ele>298.6300000</ele>
        <time>2010-08-20T13:43:40Z</time>
      </trkpt>
      <trkpt lat="51.0931410" lon="7.4275530">
        <ele>301.9900000</ele>
        <time>2010-08-20T13:43:46Z</time>
      </trkpt>
      <trkpt lat="51.0931610" lon="7.4275110">
        <ele>302.4700000</ele>
        <time>2010-08-20T13:43:47Z</time>
      </trkpt>
      <trkpt lat="51.0932160" lon="7.4274010">
        <ele>303.4300000</ele>
        <time>2010-08-20T13:43:51Z</time>
      </trkpt>
      <trkpt lat="51.0932620" lon="7.4273450">
        <ele>304.3900000</ele>
        <time>2010-08-20T13:43:52Z</time>
      </trkpt>
      <trkpt lat="51.0933270" lon="7.4272950">
        <ele>305.3600000</ele>
        <time>2010-08-20T13:43:53Z</time>
      </trkpt>
      <trkpt lat="51.0934000" lon="7.4272550">
        <ele>306.8000000</ele>
        <time>2010-08-20T13:43:54Z</time>
      </trkpt>
      <trkpt lat="51.0934750" lon="7.4272190">
        <ele>308.2400000</ele>
        <time>2010-08-20T13:43:55Z</time>
      </trkpt>
      <trkpt lat="51.0937750" lon="7.4271040">
        <ele>312.5700000</ele>
        <time>2010-08-20T13:43:59Z</time>
      </trkpt>
      <trkpt lat="51.0938510" lon="7.4271050">
        <ele>313.5300000</ele>
        <time>2010-08-20T13:44:00Z</time>
      </trkpt>
      <trkpt lat="51.0940180" lon="7.4271230">
        <ele>315.4500000</ele>
        <time>2010-08-20T13:44:02Z</time>
      </trkpt>
      <trkpt lat="51.0941010" lon="7.4271120">
        <ele>316.4100000</ele>
        <time>2010-08-20T13:44:03Z</time>
      </trkpt>
      <trkpt lat="51.0941830" lon="7.4270820">
        <ele>317.8500000</ele>
        <time>2010-08-20T13:44:04Z</time>
      </trkpt>
      <trkpt lat="51.0942640" lon="7.4270400">
        <ele>319.3000000</ele>
        <time>2010-08-20T13:44:05Z</time>
      </trkpt>
      <trkpt lat="51.0943410" lon="7.4269930">
        <ele>320.2600000</ele>
        <time>2010-08-20T13:44:06Z</time>
      </trkpt>
      <trkpt lat="51.0945500" lon="7.4268250">
        <ele>324.5800000</ele>
        <time>2010-08-20T13:44:09Z</time>
      </trkpt>
      <trkpt lat="51.0946060" lon="7.4267460">
        <ele>325.5400000</ele>
        <time>2010-08-20T13:44:10Z</time>
      </trkpt>
      <trkpt lat="51.0946510" lon="7.4266510">
        <ele>326.9900000</ele>
        <time>2010-08-20T13:44:11Z</time>
      </trkpt>
      <trkpt lat="51.0946880" lon="7.4265270">
        <ele>328.4300000</ele>
        <time>2010-08-20T13:44:12Z</time>
      </trkpt>
      <trkpt lat="51.0947240" lon="7.4263850">
        <ele>329.3900000</ele>
        <time>2010-08-20T13:44:13Z</time>
      </trkpt>
      <trkpt lat="51.0947890" lon="7.4260550">
        <ele>333.7100000</ele>
        <time>2010-08-20T13:44:15Z</time>
      </trkpt>
      <trkpt lat="51.0947980" lon="7.4258880">
        <ele>334.2000000</ele>
        <time>2010-08-20T13:44:16Z</time>
      </trkpt>
      <trkpt lat="51.0948090" lon="7.4257240">
        <ele>336.1200000</ele>
        <time>2010-08-20T13:44:17Z</time>
      </trkpt>
      <trkpt lat="51.0949200" lon="7.4252150">
        <ele>342.3700000</ele>
        <time>2010-08-20T13:44:20Z</time>
      </trkpt>
      <trkpt lat="51.0949820" lon="7.4250410">
        <ele>344.2900000</ele>
        <time>2010-08-20T13:44:21Z</time>
      </trkpt>
      <trkpt lat="51.0950560" lon="7.4248760">
        <ele>346.2100000</ele>
        <time>2010-08-20T13:44:22Z</time>
      </trkpt>
      <trkpt lat="51.0951240" lon="7.4247220">
        <ele>349.1000000</ele>
        <time>2010-08-20T13:44:23Z</time>
      </trkpt>
      <trkpt lat="51.0952000" lon="7.4245900">
        <ele>351.0200000</ele>
        <time>2010-08-20T13:44:24Z</time>
      </trkpt>
      <trkpt lat="51.0955270" lon="7.4240290">
        <ele>360.1500000</ele>
        <time>2010-08-20T13:44:28Z</time>
      </trkpt>
      <trkpt lat="51.0960790" lon="7.4233830">
        <ele>371.6900000</ele>
        <time>2010-08-20T13:44:35Z</time>
      </trkpt>
      <trkpt lat="51.0960760" lon="7.4231660">
        <ele>369.2800000</ele>
        <time>2010-08-20T13:44:40Z</time>
      </trkpt>
      <trkpt lat="51.0960020" lon="7.4230900">
        <ele>368.8000000</ele>
        <time>2010-08-20T13:44:41Z</time>
      </trkpt>
      <trkpt lat="51.0958950" lon="7.4230060">
        <ele>368.8000000</ele>
        <time>2010-08-20T13:44:42Z</time>
      </trkpt>
      <trkpt lat="51.0958020" lon="7.4229370">
        <ele>367.8400000</ele>
        <time>2010-08-20T13:44:43Z</time>
      </trkpt>
      <trkpt lat="51.0957190" lon="7.4228740">
        <ele>367.3600000</ele>
        <time>2010-08-20T13:44:44Z</time>
      </trkpt>
      <trkpt lat="51.0955070" lon="7.4227160">
        <ele>367.8400000</ele>
        <time>2010-08-20T13:44:47Z</time>
      </trkpt>
      <trkpt lat="51.0954760" lon="7.4226480">
        <ele>367.8400000</ele>
        <time>2010-08-20T13:44:48Z</time>
      </trkpt>
      <trkpt lat="51.0954530" lon="7.4225760">
        <ele>368.3200000</ele>
        <time>2010-08-20T13:44:49Z</time>
      </trkpt>
      <trkpt lat="51.0955500" lon="7.4224280">
        <ele>367.3600000</ele>
        <time>2010-08-20T13:44:52Z</time>
      </trkpt>
      <trkpt lat="51.0956250" lon="7.4223470">
        <ele>367.8400000</ele>
        <time>2010-08-20T13:44:53Z</time>
      </trkpt>
      <trkpt lat="51.0957330" lon="7.4222330">
        <ele>368.3200000</ele>
        <time>2010-08-20T13:44:54Z</time>
      </trkpt>
      <trkpt lat="51.0958350" lon="7.4221030">
        <ele>369.7600000</ele>
        <time>2010-08-20T13:44:55Z</time>
      </trkpt>
      <trkpt lat="51.0967150" lon="7.4209580">
        <ele>378.4200000</ele>
        <time>2010-08-20T13:45:06Z</time>
      </trkpt>
      <trkpt lat="51.0970010" lon="7.4206320">
        <ele>378.9000000</ele>
        <time>2010-08-20T13:45:13Z</time>
      </trkpt>
      <trkpt lat="51.0970330" lon="7.4206460">
        <ele>378.9000000</ele>
        <time>2010-08-20T13:45:14Z</time>
      </trkpt>
      <trkpt lat="51.0970710" lon="7.4206840">
        <ele>378.4200000</ele>
        <time>2010-08-20T13:45:15Z</time>
      </trkpt>
      <trkpt lat="51.0971190" lon="7.4207530">
        <ele>377.9400000</ele>
        <time>2010-08-20T13:45:16Z</time>
      </trkpt>
      <trkpt lat="51.0971730" lon="7.4208500">
        <ele>377.4500000</ele>
        <time>2010-08-20T13:45:17Z</time>
      </trkpt>
      <trkpt lat="51.0972280" lon="7.4209710">
        <ele>376.9700000</ele>
        <time>2010-08-20T13:45:18Z</time>
      </trkpt>
      <trkpt lat="51.0972770" lon="7.4211030">
        <ele>376.9700000</ele>
        <time>2010-08-20T13:45:19Z</time>
      </trkpt>
      <trkpt lat="51.0973200" lon="7.4212340">
        <ele>376.4900000</ele>
        <time>2010-08-20T13:45:20Z</time>
      </trkpt>
      <trkpt lat="51.0975230" lon="7.4221660">
        <ele>374.0900000</ele>
        <time>2010-08-20T13:45:29Z</time>
      </trkpt>
      <trkpt lat="51.0976120" lon="7.4224700">
        <ele>373.1300000</ele>
        <time>2010-08-20T13:45:32Z</time>
      </trkpt>
      <trkpt lat="51.0980490" lon="7.4238660">
        <ele>369.2800000</ele>
        <time>2010-08-20T13:45:44Z</time>
      </trkpt>
      <trkpt lat="51.0982040" lon="7.4243520">
        <ele>367.3600000</ele>
        <time>2010-08-20T13:45:50Z</time>
      </trkpt>
      <trkpt lat="51.0985480" lon="7.4254190">
        <ele>364.9600000</ele>
        <time>2010-08-20T13:46:00Z</time>
      </trkpt>
      <trkpt lat="51.0988970" lon="7.4269080">
        <ele>364.9600000</ele>
        <time>2010-08-20T13:46:10Z</time>
      </trkpt>
      <trkpt lat="51.0994400" lon="7.4292660">
        <ele>369.7600000</ele>
        <time>2010-08-20T13:46:22Z</time>
      </trkpt>
      <trkpt lat="51.0997300" lon="7.4305810">
        <ele>369.7600000</ele>
        <time>2010-08-20T13:46:28Z</time>
      </trkpt>
      <trkpt lat="51.0997310" lon="7.4308870">
        <ele>369.7600000</ele>
        <time>2010-08-20T13:46:29Z</time>
      </trkpt>
      <trkpt lat="51.0999530" lon="7.4329510">
        <ele>364.0000000</ele>
        <time>2010-08-20T13:46:36Z</time>
      </trkpt>
      <trkpt lat="51.0999840" lon="7.4348250">
        <ele>358.7100000</ele>
        <time>2010-08-20T13:46:43Z</time>
      </trkpt>
      <trkpt lat="51.1000290" lon="7.4364610">
        <ele>354.3800000</ele>
        <time>2010-08-20T13:46:51Z</time>
      </trkpt>
      <trkpt lat="51.1000780" lon="7.4366470">
        <ele>353.4200000</ele>
        <time>2010-08-20T13:46:52Z</time>
      </trkpt>
      <trkpt lat="51.1001470" lon="7.4371750">
        <ele>351.0200000</ele>
        <time>2010-08-20T13:46:55Z</time>
      </trkpt>
      <trkpt lat="51.1001290" lon="7.4373410">
        <ele>350.0600000</ele>
        <time>2010-08-20T13:46:56Z</time>
      </trkpt>
      <trkpt lat="51.0999900" lon="7.4382170">
        <ele>343.3300000</ele>
        <time>2010-08-20T13:47:03Z</time>
      </trkpt>
      <trkpt lat="51.1000000" lon="7.4382680">
        <ele>343.3300000</ele>
        <time>2010-08-20T13:47:04Z</time>
      </trkpt>
      <trkpt lat="51.1001140" lon="7.4382290">
        <ele>342.8500000</ele>
        <time>2010-08-20T13:47:08Z</time>
      </trkpt>
      <trkpt lat="51.1001650" lon="7.4381630">
        <ele>343.3300000</ele>
        <time>2010-08-20T13:47:09Z</time>
      </trkpt>
      <trkpt lat="51.1002230" lon="7.4380940">
        <ele>343.3300000</ele>
        <time>2010-08-20T13:47:10Z</time>
      </trkpt>
      <trkpt lat="51.1003360" lon="7.4379570">
        <ele>344.2900000</ele>
        <time>2010-08-20T13:47:12Z</time>
      </trkpt>
      <trkpt lat="51.1003890" lon="7.4378790">
        <ele>345.2500000</ele>
        <time>2010-08-20T13:47:13Z</time>
      </trkpt>
      <trkpt lat="51.1007690" lon="7.4371710">
        <ele>350.5400000</ele>
        <time>2010-08-20T13:47:20Z</time>
      </trkpt>
      <trkpt lat="51.1008140" lon="7.4370450">
        <ele>351.0200000</ele>
        <time>2010-08-20T13:47:21Z</time>
      </trkpt>
      <trkpt lat="51.1008510" lon="7.4369100">
        <ele>351.0200000</ele>
        <time>2010-08-20T13:47:22Z</time>
      </trkpt>
      <trkpt lat="51.1009330" lon="7.4366480">
        <ele>350.5400000</ele>
        <time>2010-08-20T13:47:24Z</time>
      </trkpt>
      <trkpt lat="51.1009860" lon="7.4365270">
        <ele>350.0600000</ele>
        <time>2010-08-20T13:47:25Z</time>
      </trkpt>
      <trkpt lat="51.1016360" lon="7.4349930">
        <ele>347.1700000</ele>
        <time>2010-08-20T13:47:37Z</time>
      </trkpt>
      <trkpt lat="51.1019040" lon="7.4345990">
        <ele>347.1700000</ele>
        <time>2010-08-20T13:47:41Z</time>
      </trkpt>
      <trkpt lat="51.1025620" lon="7.4339070">
        <ele>348.1300000</ele>
        <time>2010-08-20T13:47:50Z</time>
      </trkpt>
      <trkpt lat="51.1026100" lon="7.4338370">
        <ele>348.6200000</ele>
        <time>2010-08-20T13:47:51Z</time>
      </trkpt>
      <trkpt lat="51.1026530" lon="7.4337620">
        <ele>348.6200000</ele>
        <time>2010-08-20T13:47:52Z</time>
      </trkpt>
      <trkpt lat="51.1026920" lon="7.4336770">
        <ele>348.6200000</ele>
        <time>2010-08-20T13:47:53Z</time>
      </trkpt>
      <trkpt lat="51.1027300" lon="7.4335780">
        <ele>348.6200000</ele>
        <time>2010-08-20T13:47:54Z</time>
      </trkpt>
      <trkpt lat="51.1028110" lon="7.4333520">
        <ele>348.6200000</ele>
        <time>2010-08-20T13:47:56Z</time>
      </trkpt>
      <trkpt lat="51.1028460" lon="7.4332190">
        <ele>348.6200000</ele>
        <time>2010-08-20T13:47:57Z</time>
      </trkpt>
      <trkpt lat="51.1031870" lon="7.4313290">
        <ele>346.6900000</ele>
        <time>2010-08-20T13:48:09Z</time>
      </trkpt>
      <trkpt lat="51.1035250" lon="7.4295150">
        <ele>342.3700000</ele>
        <time>2010-08-20T13:48:22Z</time>
      </trkpt>
      <trkpt lat="51.1038570" lon="7.4277820">
        <ele>335.1600000</ele>
        <time>2010-08-20T13:48:29Z</time>
      </trkpt>
      <trkpt lat="51.1041820" lon="7.4260940">
        <ele>327.9500000</ele>
        <time>2010-08-20T13:48:36Z</time>
      </trkpt>
      <trkpt lat="51.1042490" lon="7.4258990">
        <ele>326.9900000</ele>
        <time>2010-08-20T13:48:37Z</time>
      </trkpt>
      <trkpt lat="51.1047370" lon="7.4248390">
        <ele>321.2200000</ele>
        <time>2010-08-20T13:48:43Z</time>
      </trkpt>
      <trkpt lat="51.1048300" lon="7.4247020">
        <ele>320.7400000</ele>
        <time>2010-08-20T13:48:44Z</time>
      </trkpt>
      <trkpt lat="51.1049290" lon="7.4245850">
        <ele>319.7800000</ele>
        <time>2010-08-20T13:48:45Z</time>
      </trkpt>
      <trkpt lat="51.1050280" lon="7.4244850">
        <ele>319.3000000</ele>
        <time>2010-08-20T13:48:46Z</time>
      </trkpt>
      <trkpt lat="51.1051270" lon="7.4243930">
        <ele>318.3300000</ele>
        <time>2010-08-20T13:48:47Z</time>
      </trkpt>
      <trkpt lat="51.1053120" lon="7.4242110">
        <ele>316.4100000</ele>
        <time>2010-08-20T13:48:49Z</time>
      </trkpt>
      <trkpt lat="51.1053910" lon="7.4241030">
        <ele>315.9300000</ele>
        <time>2010-08-20T13:48:50Z</time>
      </trkpt>
      <trkpt lat="51.1054550" lon="7.4239850">
        <ele>314.9700000</ele>
        <time>2010-08-20T13:48:51Z</time>
      </trkpt>
      <trkpt lat="51.1055100" lon="7.4238550">
        <ele>314.0100000</ele>
        <time>2010-08-20T13:48:52Z</time>
      </trkpt>
      <trkpt lat="51.1055450" lon="7.4237270">
        <ele>313.0500000</ele>
        <time>2010-08-20T13:48:53Z</time>
      </trkpt>
      <trkpt lat="51.1055600" lon="7.4236020">
        <ele>312.0900000</ele>
        <time>2010-08-20T13:48:54Z</time>
      </trkpt>
      <trkpt lat="51.1055690" lon="7.4234760">
        <ele>311.6000000</ele>
        <time>2010-08-20T13:48:55Z</time>
      </trkpt>
      <trkpt lat="51.1055740" lon="7.4233550">
        <ele>310.6400000</ele>
        <time>2010-08-20T13:48:56Z</time>
      </trkpt>
      <trkpt lat="51.1055760" lon="7.4231110">
        <ele>308.7200000</ele>
        <time>2010-08-20T13:48:58Z</time>
      </trkpt>
      <trkpt lat="51.1055640" lon="7.4229780">
        <ele>307.7600000</ele>
        <time>2010-08-20T13:48:59Z</time>
      </trkpt>
      <trkpt lat="51.1055460" lon="7.4228350">
        <ele>307.2800000</ele>
        <time>2010-08-20T13:49:00Z</time>
      </trkpt>
      <trkpt lat="51.1055170" lon="7.4226910">
        <ele>306.3200000</ele>
        <time>2010-08-20T13:49:01Z</time>
      </trkpt>
      <trkpt lat="51.1054720" lon="7.4225530">
        <ele>305.3600000</ele>
        <time>2010-08-20T13:49:02Z</time>
      </trkpt>
      <trkpt lat="51.1054260" lon="7.4224130">
        <ele>304.3900000</ele>
        <time>2010-08-20T13:49:03Z</time>
      </trkpt>
      <trkpt lat="51.1050450" lon="7.4213930">
        <ele>299.5900000</ele>
        <time>2010-08-20T13:49:11Z</time>
      </trkpt>
      <trkpt lat="51.1049800" lon="7.4212570">
        <ele>298.6300000</ele>
        <time>2010-08-20T13:49:13Z</time>
      </trkpt>
      <trkpt lat="51.1049730" lon="7.4212010">
        <ele>298.6300000</ele>
        <time>2010-08-20T13:49:14Z</time>
      </trkpt>
      <trkpt lat="51.1049690" lon="7.4211520">
        <ele>298.1500000</ele>
        <time>2010-08-20T13:49:15Z</time>
      </trkpt>
      <trkpt lat="51.1049830" lon="7.4210910">
        <ele>297.6700000</ele>
        <time>2010-08-20T13:49:17Z</time>
      </trkpt>
      <trkpt lat="51.1049990" lon="7.4210610">
        <ele>297.1800000</ele>
        <time>2010-08-20T13:49:18Z</time>
      </trkpt>
      <trkpt lat="51.1050100" lon="7.4210000">
        <ele>296.7000000</ele>
        <time>2010-08-20T13:49:19Z</time>
      </trkpt>
      <trkpt lat="51.1049980" lon="7.4208980">
        <ele>296.7000000</ele>
        <time>2010-08-20T13:49:20Z</time>
      </trkpt>
      <trkpt lat="51.1049570" lon="7.4207290">
        <ele>296.2200000</ele>
        <time>2010-08-20T13:49:21Z</time>
      </trkpt>
      <trkpt lat="51.1049090" lon="7.4205250">
        <ele>296.2200000</ele>
        <time>2010-08-20T13:49:22Z</time>
      </trkpt>
      <trkpt lat="51.1048690" lon="7.4202420">
        <ele>296.7000000</ele>
        <time>2010-08-20T13:49:23Z</time>
      </trkpt>
      <trkpt lat="51.1048410" lon="7.4199640">
        <ele>296.7000000</ele>
        <time>2010-08-20T13:49:24Z</time>
      </trkpt>
      <trkpt lat="51.1047020" lon="7.4178900">
        <ele>296.2200000</ele>
        <time>2010-08-20T13:49:32Z</time>
      </trkpt>
      <trkpt lat="51.1045840" lon="7.4168300">
        <ele>295.2600000</ele>
        <time>2010-08-20T13:49:36Z</time>
      </trkpt>
      <trkpt lat="51.1045910" lon="7.4165960">
        <ele>295.2600000</ele>
        <time>2010-08-20T13:49:37Z</time>
      </trkpt>
      <trkpt lat="51.1046270" lon="7.4163630">
        <ele>295.2600000</ele>
        <time>2010-08-20T13:49:38Z</time>
      </trkpt>
      <trkpt lat="51.1046680" lon="7.4161280">
        <ele>294.7800000</ele>
        <time>2010-08-20T13:49:39Z</time>
      </trkpt>
      <trkpt lat="51.1047420" lon="7.4158820">
        <ele>294.7800000</ele>
        <time>2010-08-20T13:49:40Z</time>
      </trkpt>
      <trkpt lat="51.1048580" lon="7.4156320">
        <ele>294.3000000</ele>
        <time>2010-08-20T13:49:41Z</time>
      </trkpt>
      <trkpt lat="51.1049900" lon="7.4153780">
        <ele>293.8200000</ele>
        <time>2010-08-20T13:49:42Z</time>
      </trkpt>
      <trkpt lat="51.1051210" lon="7.4151320">
        <ele>293.8200000</ele>
        <time>2010-08-20T13:49:43Z</time>
      </trkpt>
      <trkpt lat="51.1061430" lon="7.4132400">
        <ele>292.3800000</ele>
        <time>2010-08-20T13:49:52Z</time>
      </trkpt>
      <trkpt lat="51.1065080" lon="7.4122060">
        <ele>291.4200000</ele>
        <time>2010-08-20T13:49:57Z</time>
      </trkpt>
      <trkpt lat="51.1065520" lon="7.4119640">
        <ele>290.9400000</ele>
        <time>2010-08-20T13:49:58Z</time>
      </trkpt>
      <trkpt lat="51.1069010" lon="7.4100940">
        <ele>287.0900000</ele>
        <time>2010-08-20T13:50:07Z</time>
      </trkpt>
      <trkpt lat="51.1070640" lon="7.4096620">
        <ele>285.6500000</ele>
        <time>2010-08-20T13:50:14Z</time>
      </trkpt>
      <trkpt lat="51.1071130" lon="7.4096510">
        <ele>292.8600000</ele>
        <time>2010-08-20T13:50:33Z</time>
      </trkpt>
      <trkpt lat="51.1071650" lon="7.4095620">
        <ele>292.8600000</ele>
        <time>2010-08-20T13:50:34Z</time>
      </trkpt>
      <trkpt lat="51.1072320" lon="7.4094580">
        <ele>292.8600000</ele>
        <time>2010-08-20T13:50:35Z</time>
      </trkpt>
      <trkpt lat="51.1074050" lon="7.4092270">
        <ele>292.8600000</ele>
        <time>2010-08-20T13:50:38Z</time>
      </trkpt>
      <trkpt lat="51.1074570" lon="7.4091930">
        <ele>292.8600000</ele>
        <time>2010-08-20T13:50:39Z</time>
      </trkpt>
      <trkpt lat="51.1075140" lon="7.4091820">
        <ele>292.8600000</ele>
        <time>2010-08-20T13:50:40Z</time>
      </trkpt>
      <trkpt lat="51.1075660" lon="7.4091860">
        <ele>292.8600000</ele>
        <time>2010-08-20T13:50:41Z</time>
      </trkpt>
      <trkpt lat="51.1076010" lon="7.4091960">
        <ele>292.8600000</ele>
        <time>2010-08-20T13:50:42Z</time>
      </trkpt>
      <trkpt lat="51.1076270" lon="7.4092090">
        <ele>292.8600000</ele>
        <time>2010-08-20T13:50:43Z</time>
      </trkpt>
      <trkpt lat="51.1079820" lon="7.4093330">
        <ele>291.9000000</ele>
        <time>2010-08-20T13:50:48Z</time>
      </trkpt>
      <trkpt lat="51.1081100" lon="7.4093430">
        <ele>291.4200000</ele>
        <time>2010-08-20T13:50:49Z</time>
      </trkpt>
      <trkpt lat="51.1082400" lon="7.4093320">
        <ele>291.4200000</ele>
        <time>2010-08-20T13:50:50Z</time>
      </trkpt>
      <trkpt lat="51.1088610" lon="7.4092100">
        <ele>290.9400000</ele>
        <time>2010-08-20T13:50:57Z</time>
      </trkpt>
      <trkpt lat="51.1088760" lon="7.4092040">
        <ele>290.4600000</ele>
        <time>2010-08-20T13:50:58Z</time>
      </trkpt>
      <trkpt lat="51.1088780" lon="7.4092150">
        <ele>289.4900000</ele>
        <time>2010-08-20T13:50:59Z</time>
      </trkpt>
      <trkpt lat="51.1091910" lon="7.4091760">
        <ele>288.5300000</ele>
        <time>2010-08-20T13:51:04Z</time>
      </trkpt>
      <trkpt lat="51.1093100" lon="7.4091390">
        <ele>288.0500000</ele>
        <time>2010-08-20T13:51:05Z</time>
      </trkpt>
      <trkpt lat="51.1094270" lon="7.4090950">
        <ele>288.0500000</ele>
        <time>2010-08-20T13:51:06Z</time>
      </trkpt>
      <trkpt lat="51.1108470" lon="7.4083090">
        <ele>286.6100000</ele>
        <time>2010-08-20T13:51:20Z</time>
      </trkpt>
      <trkpt lat="51.1122370" lon="7.4072700">
        <ele>287.0900000</ele>
        <time>2010-08-20T13:51:32Z</time>
      </trkpt>
      <trkpt lat="51.1139020" lon="7.4055790">
        <ele>290.9400000</ele>
        <time>2010-08-20T13:51:48Z</time>
      </trkpt>
      <trkpt lat="51.1142010" lon="7.4052140">
        <ele>289.4900000</ele>
        <time>2010-08-20T13:51:51Z</time>
      </trkpt>
      <trkpt lat="51.1142790" lon="7.4050650">
        <ele>288.5300000</ele>
        <time>2010-08-20T13:51:52Z</time>
      </trkpt>
      <trkpt lat="51.1143350" lon="7.4049010">
        <ele>287.5700000</ele>
        <time>2010-08-20T13:51:53Z</time>
      </trkpt>
      <trkpt lat="51.1143700" lon="7.4047270">
        <ele>287.0900000</ele>
        <time>2010-08-20T13:51:54Z</time>
      </trkpt>
      <trkpt lat="51.1143900" lon="7.4045490">
        <ele>285.6500000</ele>
        <time>2010-08-20T13:51:55Z</time>
      </trkpt>
      <trkpt lat="51.1144050" lon="7.4043690">
        <ele>285.1700000</ele>
        <time>2010-08-20T13:51:56Z</time>
      </trkpt>
      <trkpt lat="51.1147350" lon="7.4013700">
        <ele>278.4400000</ele>
        <time>2010-08-20T13:52:12Z</time>
      </trkpt>
      <trkpt lat="51.1147980" lon="7.4011920">
        <ele>277.9600000</ele>
        <time>2010-08-20T13:52:13Z</time>
      </trkpt>
      <trkpt lat="51.1148740" lon="7.4010340">
        <ele>277.4800000</ele>
        <time>2010-08-20T13:52:14Z</time>
      </trkpt>
      <trkpt lat="51.1149610" lon="7.4008970">
        <ele>277.9600000</ele>
        <time>2010-08-20T13:52:15Z</time>
      </trkpt>
      <trkpt lat="51.1150600" lon="7.4007780">
        <ele>277.9600000</ele>
        <time>2010-08-20T13:52:16Z</time>
      </trkpt>
      <trkpt lat="51.1151640" lon="7.4006680">
        <ele>278.4400000</ele>
        <time>2010-08-20T13:52:17Z</time>
      </trkpt>
      <trkpt lat="51.1159180" lon="7.3999180">
        <ele>280.8400000</ele>
        <time>2010-08-20T13:52:26Z</time>
      </trkpt>
      <trkpt lat="51.1160950" lon="7.3997430">
        <ele>281.8000000</ele>
        <time>2010-08-20T13:52:30Z</time>
      </trkpt>
      <trkpt lat="51.1161620" lon="7.3997220">
        <ele>282.7700000</ele>
        <time>2010-08-20T13:52:31Z</time>
      </trkpt>
      <trkpt lat="51.1162340" lon="7.3997560">
        <ele>282.2800000</ele>
        <time>2010-08-20T13:52:32Z</time>
      </trkpt>
      <trkpt lat="51.1162960" lon="7.3998490">
        <ele>281.8000000</ele>
        <time>2010-08-20T13:52:33Z</time>
      </trkpt>
      <trkpt lat="51.1163450" lon="7.3999580">
        <ele>280.8400000</ele>
        <time>2010-08-20T13:52:34Z</time>
      </trkpt>
      <trkpt lat="51.1163970" lon="7.4000480">
        <ele>280.3600000</ele>
        <time>2010-08-20T13:52:35Z</time>
      </trkpt>
      <trkpt lat="51.1164650" lon="7.4000890">
        <ele>279.8800000</ele>
        <time>2010-08-20T13:52:36Z</time>
      </trkpt>
      <trkpt lat="51.1165430" lon="7.4000860">
        <ele>279.8800000</ele>
        <time>2010-08-20T13:52:37Z</time>
      </trkpt>
      <trkpt lat="51.1166330" lon="7.4000670">
        <ele>278.9200000</ele>
        <time>2010-08-20T13:52:38Z</time>
      </trkpt>
      <trkpt lat="51.1167260" lon="7.4000450">
        <ele>278.4400000</ele>
        <time>2010-08-20T13:52:39Z</time>
      </trkpt>
      <trkpt lat="51.1168250" lon="7.4000380">
        <ele>277.9600000</ele>
        <time>2010-08-20T13:52:40Z</time>
      </trkpt>
      <trkpt lat="51.1169270" lon="7.4000590">
        <ele>277.0000000</ele>
        <time>2010-08-20T13:52:41Z</time>
      </trkpt>
      <trkpt lat="51.1170250" lon="7.4001040">
        <ele>276.5200000</ele>
        <time>2010-08-20T13:52:42Z</time>
      </trkpt>
      <trkpt lat="51.1171210" lon="7.4001520">
        <ele>276.5200000</ele>
        <time>2010-08-20T13:52:43Z</time>
      </trkpt>
      <trkpt lat="51.1172200" lon="7.4001810">
        <ele>276.0400000</ele>
        <time>2010-08-20T13:52:44Z</time>
      </trkpt>
      <trkpt lat="51.1173120" lon="7.4001600">
        <ele>275.5600000</ele>
        <time>2010-08-20T13:52:45Z</time>
      </trkpt>
      <trkpt lat="51.1174030" lon="7.4001290">
        <ele>275.0700000</ele>
        <time>2010-08-20T13:52:46Z</time>
      </trkpt>
      <trkpt lat="51.1174810" lon="7.4000470">
        <ele>274.5900000</ele>
        <time>2010-08-20T13:52:47Z</time>
      </trkpt>
      <trkpt lat="51.1175620" lon="7.3999700">
        <ele>274.5900000</ele>
        <time>2010-08-20T13:52:48Z</time>
      </trkpt>
      <trkpt lat="51.1176420" lon="7.3998930">
        <ele>274.5900000</ele>
        <time>2010-08-20T13:52:49Z</time>
      </trkpt>
      <trkpt lat="51.1177250" lon="7.3998510">
        <ele>275.0700000</ele>
        <time>2010-08-20T13:52:50Z</time>
      </trkpt>
      <trkpt lat="51.1178020" lon="7.3998560">
        <ele>274.5900000</ele>
        <time>2010-08-20T13:52:51Z</time>
      </trkpt>
      <trkpt lat="51.1178770" lon="7.3998880">
        <ele>274.5900000</ele>
        <time>2010-08-20T13:52:52Z</time>
      </trkpt>
      <trkpt lat="51.1179520" lon="7.3999390">
        <ele>274.1100000</ele>
        <time>2010-08-20T13:52:53Z</time>
      </trkpt>
      <trkpt lat="51.1180300" lon="7.3999960">
        <ele>274.1100000</ele>
        <time>2010-08-20T13:52:54Z</time>
      </trkpt>
      <trkpt lat="51.1181150" lon="7.4000400">
        <ele>274.1100000</ele>
        <time>2010-08-20T13:52:55Z</time>
      </trkpt>
      <trkpt lat="51.1182020" lon="7.4000600">
        <ele>274.1100000</ele>
        <time>2010-08-20T13:52:56Z</time>
      </trkpt>
      <trkpt lat="51.1182880" lon="7.4000530">
        <ele>274.1100000</ele>
        <time>2010-08-20T13:52:57Z</time>
      </trkpt>
      <trkpt lat="51.1183670" lon="7.4000150">
        <ele>273.6300000</ele>
        <time>2010-08-20T13:52:58Z</time>
      </trkpt>
      <trkpt lat="51.1184360" lon="7.3999310">
        <ele>273.6300000</ele>
        <time>2010-08-20T13:52:59Z</time>
      </trkpt>
      <trkpt lat="51.1185040" lon="7.3998310">
        <ele>274.1100000</ele>
        <time>2010-08-20T13:53:00Z</time>
      </trkpt>
      <trkpt lat="51.1185620" lon="7.3997160">
        <ele>274.1100000</ele>
        <time>2010-08-20T13:53:01Z</time>
      </trkpt>
      <trkpt lat="51.1186240" lon="7.3995960">
        <ele>273.6300000</ele>
        <time>2010-08-20T13:53:02Z</time>
      </trkpt>
      <trkpt lat="51.1186860" lon="7.3994680">
        <ele>273.6300000</ele>
        <time>2010-08-20T13:53:03Z</time>
      </trkpt>
      <trkpt lat="51.1187590" lon="7.3993590">
        <ele>274.1100000</ele>
        <time>2010-08-20T13:53:04Z</time>
      </trkpt>
      <trkpt lat="51.1188350" lon="7.3992670">
        <ele>274.5900000</ele>
        <time>2010-08-20T13:53:05Z</time>
      </trkpt>
      <trkpt lat="51.1189140" lon="7.3992350">
        <ele>274.1100000</ele>
        <time>2010-08-20T13:53:06Z</time>
      </trkpt>
      <trkpt lat="51.1189940" lon="7.3992450">
        <ele>274.1100000</ele>
        <time>2010-08-20T13:53:07Z</time>
      </trkpt>
      <trkpt lat="51.1190780" lon="7.3992900">
        <ele>274.5900000</ele>
        <time>2010-08-20T13:53:08Z</time>
      </trkpt>
      <trkpt lat="51.1191610" lon="7.3993500">
        <ele>274.5900000</ele>
        <time>2010-08-20T13:53:09Z</time>
      </trkpt>
      <trkpt lat="51.1192430" lon="7.3994160">
        <ele>274.5900000</ele>
        <time>2010-08-20T13:53:10Z</time>
      </trkpt>
      <trkpt lat="51.1201550" lon="7.3999210">
        <ele>275.0700000</ele>
        <time>2010-08-20T13:53:20Z</time>
      </trkpt>
      <trkpt lat="51.1202390" lon="7.3999240">
        <ele>275.0700000</ele>
        <time>2010-08-20T13:53:21Z</time>
      </trkpt>
      <trkpt lat="51.1204750" lon="7.3998970">
        <ele>275.5600000</ele>
        <time>2010-08-20T13:53:24Z</time>
      </trkpt>
      <trkpt lat="51.1205480" lon="7.3998570">
        <ele>275.5600000</ele>
        <time>2010-08-20T13:53:25Z</time>
      </trkpt>
      <trkpt lat="51.1206170" lon="7.3997880">
        <ele>275.5600000</ele>
        <time>2010-08-20T13:53:26Z</time>
      </trkpt>
      <trkpt lat="51.1206710" lon="7.3996920">
        <ele>276.0400000</ele>
        <time>2010-08-20T13:53:27Z</time>
      </trkpt>
      <trkpt lat="51.1206980" lon="7.3995750">
        <ele>276.0400000</ele>
        <time>2010-08-20T13:53:28Z</time>
      </trkpt>
      <trkpt lat="51.1206960" lon="7.3994480">
        <ele>276.5200000</ele>
        <time>2010-08-20T13:53:29Z</time>
      </trkpt>
      <trkpt lat="51.1206710" lon="7.3993260">
        <ele>276.5200000</ele>
        <time>2010-08-20T13:53:30Z</time>
      </trkpt>
      <trkpt lat="51.1206250" lon="7.3992250">
        <ele>277.0000000</ele>
        <time>2010-08-20T13:53:31Z</time>
      </trkpt>
      <trkpt lat="51.1205660" lon="7.3991480">
        <ele>277.9600000</ele>
        <time>2010-08-20T13:53:32Z</time>
      </trkpt>
      <trkpt lat="51.1205090" lon="7.3990860">
        <ele>278.4400000</ele>
        <time>2010-08-20T13:53:33Z</time>
      </trkpt>
      <trkpt lat="51.1204570" lon="7.3990300">
        <ele>278.9200000</ele>
        <time>2010-08-20T13:53:34Z</time>
      </trkpt>
      <trkpt lat="51.1204120" lon="7.3989770">
        <ele>278.9200000</ele>
        <time>2010-08-20T13:53:35Z</time>
      </trkpt>
      <trkpt lat="51.1203770" lon="7.3989260">
        <ele>279.4000000</ele>
        <time>2010-08-20T13:53:36Z</time>
      </trkpt>
      <trkpt lat="51.1203500" lon="7.3988750">
        <ele>279.8800000</ele>
        <time>2010-08-20T13:53:37Z</time>
      </trkpt>
      <trkpt lat="51.1203320" lon="7.3988210">
        <ele>279.8800000</ele>
        <time>2010-08-20T13:53:38Z</time>
      </trkpt>
      <trkpt lat="51.1203250" lon="7.3987710">
        <ele>280.3600000</ele>
        <time>2010-08-20T13:53:39Z</time>
      </trkpt>
      <trkpt lat="51.1203280" lon="7.3987300">
        <ele>280.3600000</ele>
        <time>2010-08-20T13:53:40Z</time>
      </trkpt>
      <trkpt lat="51.1203360" lon="7.3987010">
        <ele>280.8400000</ele>
        <time>2010-08-20T13:53:41Z</time>
      </trkpt>
      <trkpt lat="51.1203370" lon="7.3986920">
        <ele>280.3600000</ele>
        <time>2010-08-20T13:53:55Z</time>
      </trkpt>
      <trkpt lat="51.1203800" lon="7.3985830">
        <ele>279.8800000</ele>
        <time>2010-08-20T13:54:08Z</time>
      </trkpt>
      <trkpt lat="51.1203930" lon="7.3985030">
        <ele>279.8800000</ele>
        <time>2010-08-20T13:54:09Z</time>
      </trkpt>
      <trkpt lat="51.1203870" lon="7.3984050">
        <ele>279.8800000</ele>
        <time>2010-08-20T13:54:10Z</time>
      </trkpt>
      <trkpt lat="51.1203590" lon="7.3983000">
        <ele>280.3600000</ele>
        <time>2010-08-20T13:54:11Z</time>
      </trkpt>
      <trkpt lat="51.1203060" lon="7.3981770">
        <ele>280.3600000</ele>
        <time>2010-08-20T13:54:12Z</time>
      </trkpt>
      <trkpt lat="51.1201900" lon="7.3979970">
        <ele>280.3600000</ele>
        <time>2010-08-20T13:54:13Z</time>
      </trkpt>
      <trkpt lat="51.1200760" lon="7.3978080">
        <ele>280.3600000</ele>
        <time>2010-08-20T13:54:14Z</time>
      </trkpt>
      <trkpt lat="51.1192030" lon="7.3960080">
        <ele>273.6300000</ele>
        <time>2010-08-20T13:54:23Z</time>
      </trkpt>
      <trkpt lat="51.1184960" lon="7.3941610">
        <ele>275.0700000</ele>
        <time>2010-08-20T13:54:33Z</time>
      </trkpt>
      <trkpt lat="51.1182440" lon="7.3923340">
        <ele>277.4800000</ele>
        <time>2010-08-20T13:54:42Z</time>
      </trkpt>
      <trkpt lat="51.1182710" lon="7.3919560">
        <ele>277.4800000</ele>
        <time>2010-08-20T13:54:44Z</time>
      </trkpt>
      <trkpt lat="51.1183010" lon="7.3917750">
        <ele>277.4800000</ele>
        <time>2010-08-20T13:54:45Z</time>
      </trkpt>
      <trkpt lat="51.1183410" lon="7.3916030">
        <ele>277.9600000</ele>
        <time>2010-08-20T13:54:46Z</time>
      </trkpt>
      <trkpt lat="51.1183920" lon="7.3914360">
        <ele>277.4800000</ele>
        <time>2010-08-20T13:54:47Z</time>
      </trkpt>
      <trkpt lat="51.1184530" lon="7.3912830">
        <ele>277.9600000</ele>
        <time>2010-08-20T13:54:48Z</time>
      </trkpt>
      <trkpt lat="51.1185180" lon="7.3911460">
        <ele>278.4400000</ele>
        <time>2010-08-20T13:54:49Z</time>
      </trkpt>
      <trkpt lat="51.1185760" lon="7.3910260">
        <ele>278.9200000</ele>
        <time>2010-08-20T13:54:50Z</time>
      </trkpt>
      <trkpt lat="51.1188800" lon="7.3899040">
        <ele>278.4400000</ele>
        <time>2010-08-20T13:54:59Z</time>
      </trkpt>
      <trkpt lat="51.1193730" lon="7.3887290">
        <ele>274.5900000</ele>
        <time>2010-08-20T13:55:07Z</time>
      </trkpt>
      <trkpt lat="51.1202140" lon="7.3869690">
        <ele>269.3100000</ele>
        <time>2010-08-20T13:55:17Z</time>
      </trkpt>
      <trkpt lat="51.1206800" lon="7.3860760">
        <ele>268.8300000</ele>
        <time>2010-08-20T13:55:23Z</time>
      </trkpt>
      <trkpt lat="51.1207850" lon="7.3859390">
        <ele>269.3100000</ele>
        <time>2010-08-20T13:55:24Z</time>
      </trkpt>
      <trkpt lat="51.1208970" lon="7.3858220">
        <ele>269.3100000</ele>
        <time>2010-08-20T13:55:25Z</time>
      </trkpt>
      <trkpt lat="51.1210180" lon="7.3857150">
        <ele>269.3100000</ele>
        <time>2010-08-20T13:55:26Z</time>
      </trkpt>
      <trkpt lat="51.1211360" lon="7.3856250">
        <ele>269.3100000</ele>
        <time>2010-08-20T13:55:27Z</time>
      </trkpt>
      <trkpt lat="51.1217240" lon="7.3851060">
        <ele>270.2700000</ele>
        <time>2010-08-20T13:55:33Z</time>
      </trkpt>
      <trkpt lat="51.1218010" lon="7.3850020">
        <ele>270.2700000</ele>
        <time>2010-08-20T13:55:34Z</time>
      </trkpt>
      <trkpt lat="51.1223620" lon="7.3841610">
        <ele>269.3100000</ele>
        <time>2010-08-20T13:55:39Z</time>
      </trkpt>
      <trkpt lat="51.1226430" lon="7.3835280">
        <ele>269.7900000</ele>
        <time>2010-08-20T13:55:42Z</time>
      </trkpt>
      <trkpt lat="51.1226990" lon="7.3833090">
        <ele>269.3100000</ele>
        <time>2010-08-20T13:55:43Z</time>
      </trkpt>
      <trkpt lat="51.1230500" lon="7.3817670">
        <ele>270.7500000</ele>
        <time>2010-08-20T13:55:50Z</time>
      </trkpt>
      <trkpt lat="51.1231270" lon="7.3815810">
        <ele>271.2300000</ele>
        <time>2010-08-20T13:55:51Z</time>
      </trkpt>
      <trkpt lat="51.1232160" lon="7.3814120">
        <ele>271.7100000</ele>
        <time>2010-08-20T13:55:52Z</time>
      </trkpt>
      <trkpt lat="51.1233150" lon="7.3812620">
        <ele>272.1900000</ele>
        <time>2010-08-20T13:55:53Z</time>
      </trkpt>
      <trkpt lat="51.1234250" lon="7.3811320">
        <ele>273.1500000</ele>
        <time>2010-08-20T13:55:54Z</time>
      </trkpt>
      <trkpt lat="51.1235480" lon="7.3810230">
        <ele>273.6300000</ele>
        <time>2010-08-20T13:55:55Z</time>
      </trkpt>
      <trkpt lat="51.1236840" lon="7.3809330">
        <ele>274.1100000</ele>
        <time>2010-08-20T13:55:56Z</time>
      </trkpt>
      <trkpt lat="51.1238300" lon="7.3808540">
        <ele>275.0700000</ele>
        <time>2010-08-20T13:55:57Z</time>
      </trkpt>
      <trkpt lat="51.1239810" lon="7.3807900">
        <ele>276.0400000</ele>
        <time>2010-08-20T13:55:58Z</time>
      </trkpt>
      <trkpt lat="51.1241320" lon="7.3807370">
        <ele>276.5200000</ele>
        <time>2010-08-20T13:55:59Z</time>
      </trkpt>
      <trkpt lat="51.1251630" lon="7.3800470">
        <ele>283.2500000</ele>
        <time>2010-08-20T13:56:06Z</time>
      </trkpt>
      <trkpt lat="51.1259530" lon="7.3789490">
        <ele>290.4600000</ele>
        <time>2010-08-20T13:56:13Z</time>
      </trkpt>
      <trkpt lat="51.1260580" lon="7.3788120">
        <ele>291.4200000</ele>
        <time>2010-08-20T13:56:14Z</time>
      </trkpt>
      <trkpt lat="51.1261690" lon="7.3786840">
        <ele>292.3800000</ele>
        <time>2010-08-20T13:56:15Z</time>
      </trkpt>
      <trkpt lat="51.1271220" lon="7.3776010">
        <ele>300.0700000</ele>
        <time>2010-08-20T13:56:21Z</time>
      </trkpt>
      <trkpt lat="51.1284210" lon="7.3764530">
        <ele>307.2800000</ele>
        <time>2010-08-20T13:56:29Z</time>
      </trkpt>
      <trkpt lat="51.1288760" lon="7.3760840">
        <ele>309.2000000</ele>
        <time>2010-08-20T13:56:35Z</time>
      </trkpt>
      <trkpt lat="51.1294340" lon="7.3756820">
        <ele>309.6800000</ele>
        <time>2010-08-20T13:56:41Z</time>
      </trkpt>
      <trkpt lat="51.1295890" lon="7.3756780">
        <ele>309.6800000</ele>
        <time>2010-08-20T13:56:42Z</time>
      </trkpt>
      <trkpt lat="51.1297570" lon="7.3756980">
        <ele>309.6800000</ele>
        <time>2010-08-20T13:56:43Z</time>
      </trkpt>
      <trkpt lat="51.1310500" lon="7.3759390">
        <ele>310.6400000</ele>
        <time>2010-08-20T13:56:49Z</time>
      </trkpt>
      <trkpt lat="51.1326450" lon="7.3764490">
        <ele>311.6000000</ele>
        <time>2010-08-20T13:56:56Z</time>
      </trkpt>
      <trkpt lat="51.1329920" lon="7.3765290">
        <ele>312.0900000</ele>
        <time>2010-08-20T13:56:58Z</time>
      </trkpt>
      <trkpt lat="51.1331460" lon="7.3764800">
        <ele>312.5700000</ele>
        <time>2010-08-20T13:56:59Z</time>
      </trkpt>
      <trkpt lat="51.1333060" lon="7.3763970">
        <ele>312.5700000</ele>
        <time>2010-08-20T13:57:00Z</time>
      </trkpt>
      <trkpt lat="51.1338080" lon="7.3761840">
        <ele>312.0900000</ele>
        <time>2010-08-20T13:57:03Z</time>
      </trkpt>
      <trkpt lat="51.1339720" lon="7.3762000">
        <ele>311.6000000</ele>
        <time>2010-08-20T13:57:04Z</time>
      </trkpt>
      <trkpt lat="51.1341410" lon="7.3762810">
        <ele>310.6400000</ele>
        <time>2010-08-20T13:57:05Z</time>
      </trkpt>
      <trkpt lat="51.1343230" lon="7.3764110">
        <ele>311.1200000</ele>
        <time>2010-08-20T13:57:06Z</time>
      </trkpt>
      <trkpt lat="51.1345070" lon="7.3765590">
        <ele>311.6000000</ele>
        <time>2010-08-20T13:57:07Z</time>
      </trkpt>
      <trkpt lat="51.1357550" lon="7.3773840">
        <ele>319.7800000</ele>
        <time>2010-08-20T13:57:14Z</time>
      </trkpt>
      <trkpt lat="51.1359430" lon="7.3774070">
        <ele>320.2600000</ele>
        <time>2010-08-20T13:57:15Z</time>
      </trkpt>
      <trkpt lat="51.1361430" lon="7.3774060">
        <ele>320.7400000</ele>
        <time>2010-08-20T13:57:16Z</time>
      </trkpt>
      <trkpt lat="51.1374100" lon="7.3776530">
        <ele>324.1000000</ele>
        <time>2010-08-20T13:57:22Z</time>
      </trkpt>
      <trkpt lat="51.1386340" lon="7.3785870">
        <ele>326.9900000</ele>
        <time>2010-08-20T13:57:29Z</time>
      </trkpt>
      <trkpt lat="51.1394430" lon="7.3794070">
        <ele>332.2700000</ele>
        <time>2010-08-20T13:57:36Z</time>
      </trkpt>
      <trkpt lat="51.1402520" lon="7.3799910">
        <ele>334.2000000</ele>
        <time>2010-08-20T13:57:46Z</time>
      </trkpt>
      <trkpt lat="51.1405060" lon="7.3801340">
        <ele>333.7100000</ele>
        <time>2010-08-20T13:57:49Z</time>
      </trkpt>
      <trkpt lat="51.1405960" lon="7.3802260">
        <ele>333.7100000</ele>
        <time>2010-08-20T13:57:50Z</time>
      </trkpt>
      <trkpt lat="51.1406910" lon="7.3803670">
        <ele>333.2300000</ele>
        <time>2010-08-20T13:57:51Z</time>
      </trkpt>
      <trkpt lat="51.1407990" lon="7.3805820">
        <ele>333.2300000</ele>
        <time>2010-08-20T13:57:52Z</time>
      </trkpt>
      <trkpt lat="51.1409290" lon="7.3808450">
        <ele>332.7500000</ele>
        <time>2010-08-20T13:57:53Z</time>
      </trkpt>
      <trkpt lat="51.1411160" lon="7.3811460">
        <ele>332.7500000</ele>
        <time>2010-08-20T13:57:54Z</time>
      </trkpt>
      <trkpt lat="51.1421590" lon="7.3833020">
        <ele>337.0800000</ele>
        <time>2010-08-20T13:58:01Z</time>
      </trkpt>
      <trkpt lat="51.1426100" lon="7.3844410">
        <ele>338.0400000</ele>
        <time>2010-08-20T13:58:05Z</time>
      </trkpt>
      <trkpt lat="51.1433520" lon="7.3860060">
        <ele>339.0000000</ele>
        <time>2010-08-20T13:58:12Z</time>
      </trkpt>
      <trkpt lat="51.1445130" lon="7.3879480">
        <ele>339.9600000</ele>
        <time>2010-08-20T13:58:22Z</time>
      </trkpt>
      <trkpt lat="51.1457990" lon="7.3897130">
        <ele>341.4100000</ele>
        <time>2010-08-20T13:58:32Z</time>
      </trkpt>
      <trkpt lat="51.1470130" lon="7.3907390">
        <ele>345.2500000</ele>
        <time>2010-08-20T13:58:41Z</time>
      </trkpt>
      <trkpt lat="51.1483490" lon="7.3915710">
        <ele>353.4200000</ele>
        <time>2010-08-20T13:58:51Z</time>
      </trkpt>
      <trkpt lat="51.1484910" lon="7.3915620">
        <ele>354.3800000</ele>
        <time>2010-08-20T13:58:52Z</time>
      </trkpt>
      <trkpt lat="51.1493760" lon="7.3916360">
        <ele>355.3400000</ele>
        <time>2010-08-20T13:58:59Z</time>
      </trkpt>
      <trkpt lat="51.1494570" lon="7.3915550">
        <ele>355.8300000</ele>
        <time>2010-08-20T13:59:00Z</time>
      </trkpt>
      <trkpt lat="51.1495660" lon="7.3914790">
        <ele>355.8300000</ele>
        <time>2010-08-20T13:59:01Z</time>
      </trkpt>
      <trkpt lat="51.1496660" lon="7.3913700">
        <ele>355.3400000</ele>
        <time>2010-08-20T13:59:02Z</time>
      </trkpt>
      <trkpt lat="51.1497660" lon="7.3912410">
        <ele>355.8300000</ele>
        <time>2010-08-20T13:59:03Z</time>
      </trkpt>
      <trkpt lat="51.1498720" lon="7.3911290">
        <ele>355.8300000</ele>
        <time>2010-08-20T13:59:04Z</time>
      </trkpt>
      <trkpt lat="51.1499820" lon="7.3910430">
        <ele>355.8300000</ele>
        <time>2010-08-20T13:59:05Z</time>
      </trkpt>
      <trkpt lat="51.1500930" lon="7.3909810">
        <ele>355.3400000</ele>
        <time>2010-08-20T13:59:06Z</time>
      </trkpt>
      <trkpt lat="51.1502040" lon="7.3909330">
        <ele>354.8600000</ele>
        <time>2010-08-20T13:59:07Z</time>
      </trkpt>
      <trkpt lat="51.1503150" lon="7.3908940">
        <ele>354.3800000</ele>
        <time>2010-08-20T13:59:08Z</time>
      </trkpt>
      <trkpt lat="51.1511180" lon="7.3906530">
        <ele>350.5400000</ele>
        <time>2010-08-20T13:59:15Z</time>
      </trkpt>
      <trkpt lat="51.1516590" lon="7.3904760">
        <ele>347.1700000</ele>
        <time>2010-08-20T13:59:21Z</time>
      </trkpt>
      <trkpt lat="51.1516980" lon="7.3904340">
        <ele>346.6900000</ele>
        <time>2010-08-20T13:59:22Z</time>
      </trkpt>
      <trkpt lat="51.1517150" lon="7.3903790">
        <ele>346.2100000</ele>
        <time>2010-08-20T13:59:23Z</time>
      </trkpt>
      <trkpt lat="51.1517100" lon="7.3902930">
        <ele>345.7300000</ele>
        <time>2010-08-20T13:59:27Z</time>
      </trkpt>
      <trkpt lat="51.1516630" lon="7.3902150">
        <ele>344.7700000</ele>
        <time>2010-08-20T13:59:29Z</time>
      </trkpt>
      <trkpt lat="51.1515840" lon="7.3901820">
        <ele>345.2500000</ele>
        <time>2010-08-20T13:59:30Z</time>
      </trkpt>
      <trkpt lat="51.1514730" lon="7.3901620">
        <ele>344.7700000</ele>
        <time>2010-08-20T13:59:31Z</time>
      </trkpt>
      <trkpt lat="51.1513520" lon="7.3901440">
        <ele>344.7700000</ele>
        <time>2010-08-20T13:59:32Z</time>
      </trkpt>
      <trkpt lat="51.1504850" lon="7.3897280">
        <ele>341.8900000</ele>
        <time>2010-08-20T13:59:39Z</time>
      </trkpt>
      <trkpt lat="51.1503700" lon="7.3896070">
        <ele>341.4100000</ele>
        <time>2010-08-20T13:59:40Z</time>
      </trkpt>
      <trkpt lat="51.1502620" lon="7.3894750">
        <ele>340.4400000</ele>
        <time>2010-08-20T13:59:41Z</time>
      </trkpt>
      <trkpt lat="51.1501610" lon="7.3893330">
        <ele>339.9600000</ele>
        <time>2010-08-20T13:59:42Z</time>
      </trkpt>
      <trkpt lat="51.1500670" lon="7.3891840">
        <ele>339.4800000</ele>
        <time>2010-08-20T13:59:43Z</time>
      </trkpt>
      <trkpt lat="51.1489330" lon="7.3871750">
        <ele>329.8700000</ele>
        <time>2010-08-20T13:59:57Z</time>
      </trkpt>
      <trkpt lat="51.1482880" lon="7.3858740">
        <ele>325.0600000</ele>
        <time>2010-08-20T14:00:06Z</time>
      </trkpt>
      <trkpt lat="51.1477170" lon="7.3844630">
        <ele>317.3700000</ele>
        <time>2010-08-20T14:00:15Z</time>
      </trkpt>
      <trkpt lat="51.1468080" lon="7.3827550">
        <ele>306.8000000</ele>
        <time>2010-08-20T14:00:27Z</time>
      </trkpt>
      <trkpt lat="51.1460760" lon="7.3812680">
        <ele>302.9500000</ele>
        <time>2010-08-20T14:00:38Z</time>
      </trkpt>
      <trkpt lat="51.1448630" lon="7.3795040">
        <ele>305.8400000</ele>
        <time>2010-08-20T14:00:53Z</time>
      </trkpt>
      <trkpt lat="51.1439010" lon="7.3775430">
        <ele>301.5100000</ele>
        <time>2010-08-20T14:01:07Z</time>
      </trkpt>
      <trkpt lat="51.1429210" lon="7.3753580">
        <ele>299.5900000</ele>
        <time>2010-08-20T14:01:22Z</time>
      </trkpt>
      <trkpt lat="51.1425830" lon="7.3746730">
        <ele>300.0700000</ele>
        <time>2010-08-20T14:01:27Z</time>
      </trkpt>
      <trkpt lat="51.1425030" lon="7.3745620">
        <ele>300.5500000</ele>
        <time>2010-08-20T14:01:28Z</time>
      </trkpt>
      <trkpt lat="51.1424090" lon="7.3744720">
        <ele>300.5500000</ele>
        <time>2010-08-20T14:01:29Z</time>
      </trkpt>
      <trkpt lat="51.1423100" lon="7.3743940">
        <ele>300.5500000</ele>
        <time>2010-08-20T14:01:30Z</time>
      </trkpt>
      <trkpt lat="51.1422130" lon="7.3743230">
        <ele>300.5500000</ele>
        <time>2010-08-20T14:01:31Z</time>
      </trkpt>
      <trkpt lat="51.1414230" lon="7.3737400">
        <ele>301.5100000</ele>
        <time>2010-08-20T14:01:41Z</time>
      </trkpt>
      <trkpt lat="51.1403550" lon="7.3726740">
        <ele>301.0300000</ele>
        <time>2010-08-20T14:01:54Z</time>
      </trkpt>
      <trkpt lat="51.1395310" lon="7.3714900">
        <ele>296.7000000</ele>
        <time>2010-08-20T14:02:02Z</time>
      </trkpt>
      <trkpt lat="51.1385110" lon="7.3695450">
        <ele>288.5300000</ele>
        <time>2010-08-20T14:02:14Z</time>
      </trkpt>
      <trkpt lat="51.1377980" lon="7.3679200">
        <ele>281.3200000</ele>
        <time>2010-08-20T14:02:23Z</time>
      </trkpt>
      <trkpt lat="51.1376580" lon="7.3673850">
        <ele>278.4400000</ele>
        <time>2010-08-20T14:02:26Z</time>
      </trkpt>
      <trkpt lat="51.1376360" lon="7.3671880">
        <ele>277.9600000</ele>
        <time>2010-08-20T14:02:27Z</time>
      </trkpt>
      <trkpt lat="51.1376260" lon="7.3669800">
        <ele>277.0000000</ele>
        <time>2010-08-20T14:02:28Z</time>
      </trkpt>
      <trkpt lat="51.1376360" lon="7.3667690">
        <ele>276.0400000</ele>
        <time>2010-08-20T14:02:29Z</time>
      </trkpt>
      <trkpt lat="51.1376710" lon="7.3665660">
        <ele>275.0700000</ele>
        <time>2010-08-20T14:02:30Z</time>
      </trkpt>
      <trkpt lat="51.1377110" lon="7.3663750">
        <ele>274.5900000</ele>
        <time>2010-08-20T14:02:31Z</time>
      </trkpt>
      <trkpt lat="51.1377650" lon="7.3661920">
        <ele>273.6300000</ele>
        <time>2010-08-20T14:02:32Z</time>
      </trkpt>
      <trkpt lat="51.1378100" lon="7.3660120">
        <ele>273.1500000</ele>
        <time>2010-08-20T14:02:33Z</time>
      </trkpt>
      <trkpt lat="51.1378450" lon="7.3658240">
        <ele>272.1900000</ele>
        <time>2010-08-20T14:02:34Z</time>
      </trkpt>
      <trkpt lat="51.1378620" lon="7.3656320">
        <ele>270.7500000</ele>
        <time>2010-08-20T14:02:35Z</time>
      </trkpt>
      <trkpt lat="51.1378520" lon="7.3654400">
        <ele>269.7900000</ele>
        <time>2010-08-20T14:02:36Z</time>
      </trkpt>
      <trkpt lat="51.1378260" lon="7.3652420">
        <ele>268.3500000</ele>
        <time>2010-08-20T14:02:37Z</time>
      </trkpt>
      <trkpt lat="51.1377860" lon="7.3650400">
        <ele>266.9000000</ele>
        <time>2010-08-20T14:02:38Z</time>
      </trkpt>
      <trkpt lat="51.1377340" lon="7.3648330">
        <ele>266.4200000</ele>
        <time>2010-08-20T14:02:39Z</time>
      </trkpt>
      <trkpt lat="51.1376680" lon="7.3646240">
        <ele>266.4200000</ele>
        <time>2010-08-20T14:02:40Z</time>
      </trkpt>
      <trkpt lat="51.1375920" lon="7.3644120">
        <ele>266.4200000</ele>
        <time>2010-08-20T14:02:41Z</time>
      </trkpt>
      <trkpt lat="51.1372950" lon="7.3632410">
        <ele>263.0600000</ele>
        <time>2010-08-20T14:02:46Z</time>
      </trkpt>
      <trkpt lat="51.1372790" lon="7.3629850">
        <ele>262.5800000</ele>
        <time>2010-08-20T14:02:47Z</time>
      </trkpt>
      <trkpt lat="51.1372810" lon="7.3627280">
        <ele>262.1000000</ele>
        <time>2010-08-20T14:02:48Z</time>
      </trkpt>
      <trkpt lat="51.1373650" lon="7.3607230">
        <ele>261.6200000</ele>
        <time>2010-08-20T14:02:57Z</time>
      </trkpt>
      <trkpt lat="51.1375050" lon="7.3575640">
        <ele>264.5000000</ele>
        <time>2010-08-20T14:03:12Z</time>
      </trkpt>
      <trkpt lat="51.1376270" lon="7.3562160">
        <ele>264.5000000</ele>
        <time>2010-08-20T14:03:19Z</time>
      </trkpt>
      <trkpt lat="51.1376750" lon="7.3560310">
        <ele>265.4600000</ele>
        <time>2010-08-20T14:03:20Z</time>
      </trkpt>
      <trkpt lat="51.1377420" lon="7.3558470">
        <ele>265.4600000</ele>
        <time>2010-08-20T14:03:21Z</time>
      </trkpt>
      <trkpt lat="51.1378250" lon="7.3556590">
        <ele>264.9800000</ele>
        <time>2010-08-20T14:03:22Z</time>
      </trkpt>
      <trkpt lat="51.1379240" lon="7.3554660">
        <ele>264.5000000</ele>
        <time>2010-08-20T14:03:23Z</time>
      </trkpt>
      <trkpt lat="51.1380230" lon="7.3552730">
        <ele>263.5400000</ele>
        <time>2010-08-20T14:03:24Z</time>
      </trkpt>
      <trkpt lat="51.1387540" lon="7.3535240">
        <ele>261.6200000</ele>
        <time>2010-08-20T14:03:33Z</time>
      </trkpt>
      <trkpt lat="51.1388470" lon="7.3533570">
        <ele>262.1000000</ele>
        <time>2010-08-20T14:03:34Z</time>
      </trkpt>
      <trkpt lat="51.1398240" lon="7.3522270">
        <ele>263.0600000</ele>
        <time>2010-08-20T14:03:43Z</time>
      </trkpt>
      <trkpt lat="51.1402490" lon="7.3515600">
        <ele>263.5400000</ele>
        <time>2010-08-20T14:03:48Z</time>
      </trkpt>
      <trkpt lat="51.1403130" lon="7.3513810">
        <ele>264.0200000</ele>
        <time>2010-08-20T14:03:49Z</time>
      </trkpt>
      <trkpt lat="51.1403730" lon="7.3511930">
        <ele>264.0200000</ele>
        <time>2010-08-20T14:03:50Z</time>
      </trkpt>
      <trkpt lat="51.1407980" lon="7.3497980">
        <ele>266.9000000</ele>
        <time>2010-08-20T14:03:59Z</time>
      </trkpt>
      <trkpt lat="51.1408280" lon="7.3497030">
        <ele>267.3800000</ele>
        <time>2010-08-20T14:04:00Z</time>
      </trkpt>
      <trkpt lat="51.1408720" lon="7.3496320">
        <ele>268.3500000</ele>
        <time>2010-08-20T14:04:01Z</time>
      </trkpt>
      <trkpt lat="51.1408810" lon="7.3496270">
        <ele>268.8300000</ele>
        <time>2010-08-20T14:04:02Z</time>
      </trkpt>
      <trkpt lat="51.1408730" lon="7.3496010">
        <ele>269.3100000</ele>
        <time>2010-08-20T14:04:03Z</time>
      </trkpt>
      <trkpt lat="51.1408670" lon="7.3495610">
        <ele>270.2700000</ele>
        <time>2010-08-20T14:04:04Z</time>
      </trkpt>
      <trkpt lat="51.1408340" lon="7.3495190">
        <ele>271.2300000</ele>
        <time>2010-08-20T14:04:05Z</time>
      </trkpt>
      <trkpt lat="51.1407840" lon="7.3494470">
        <ele>271.7100000</ele>
        <time>2010-08-20T14:04:06Z</time>
      </trkpt>
      <trkpt lat="51.1406970" lon="7.3493660">
        <ele>272.6700000</ele>
        <time>2010-08-20T14:04:07Z</time>
      </trkpt>
      <trkpt lat="51.1405410" lon="7.3492750">
        <ele>273.1500000</ele>
        <time>2010-08-20T14:04:08Z</time>
      </trkpt>
      <trkpt lat="51.1404150" lon="7.3491530">
        <ele>273.1500000</ele>
        <time>2010-08-20T14:04:09Z</time>
      </trkpt>
      <trkpt lat="51.1401890" lon="7.3488630">
        <ele>272.6700000</ele>
        <time>2010-08-20T14:04:11Z</time>
      </trkpt>
      <trkpt lat="51.1400840" lon="7.3486660">
        <ele>272.1900000</ele>
        <time>2010-08-20T14:04:12Z</time>
      </trkpt>
      <trkpt lat="51.1399790" lon="7.3484340">
        <ele>271.7100000</ele>
        <time>2010-08-20T14:04:13Z</time>
      </trkpt>
      <trkpt lat="51.1398720" lon="7.3481830">
        <ele>271.2300000</ele>
        <time>2010-08-20T14:04:14Z</time>
      </trkpt>
      <trkpt lat="51.1390100" lon="7.3460960">
        <ele>267.3800000</ele>
        <time>2010-08-20T14:04:22Z</time>
      </trkpt>
      <trkpt lat="51.1388890" lon="7.3458960">
        <ele>267.3800000</ele>
        <time>2010-08-20T14:04:23Z</time>
      </trkpt>
      <trkpt lat="51.1387570" lon="7.3457170">
        <ele>267.3800000</ele>
        <time>2010-08-20T14:04:24Z</time>
      </trkpt>
      <trkpt lat="51.1386100" lon="7.3455770">
        <ele>267.3800000</ele>
        <time>2010-08-20T14:04:25Z</time>
      </trkpt>
      <trkpt lat="51.1384490" lon="7.3454760">
        <ele>267.3800000</ele>
        <time>2010-08-20T14:04:26Z</time>
      </trkpt>
      <trkpt lat="51.1382630" lon="7.3454250">
        <ele>266.9000000</ele>
        <time>2010-08-20T14:04:27Z</time>
      </trkpt>
      <trkpt lat="51.1380800" lon="7.3454450">
        <ele>265.9400000</ele>
        <time>2010-08-20T14:04:28Z</time>
      </trkpt>
      <trkpt lat="51.1379190" lon="7.3454630">
        <ele>265.4600000</ele>
        <time>2010-08-20T14:04:29Z</time>
      </trkpt>
      <trkpt lat="51.1377630" lon="7.3454990">
        <ele>264.9800000</ele>
        <time>2010-08-20T14:04:30Z</time>
      </trkpt>
      <trkpt lat="51.1376270" lon="7.3455400">
        <ele>264.9800000</ele>
        <time>2010-08-20T14:04:31Z</time>
      </trkpt>
      <trkpt lat="51.1371600" lon="7.3456770">
        <ele>265.4600000</ele>
        <time>2010-08-20T14:04:36Z</time>
      </trkpt>
      <trkpt lat="51.1371070" lon="7.3456610">
        <ele>265.4600000</ele>
        <time>2010-08-20T14:04:37Z</time>
      </trkpt>
      <trkpt lat="51.1370680" lon="7.3456240">
        <ele>265.9400000</ele>
        <time>2010-08-20T14:04:38Z</time>
      </trkpt>
      <trkpt lat="51.1370430" lon="7.3455690">
        <ele>265.9400000</ele>
        <time>2010-08-20T14:04:39Z</time>
      </trkpt>
      <trkpt lat="51.1370300" lon="7.3454640">
        <ele>265.9400000</ele>
        <time>2010-08-20T14:04:40Z</time>
      </trkpt>
      <trkpt lat="51.1370050" lon="7.3453010">
        <ele>265.4600000</ele>
        <time>2010-08-20T14:04:41Z</time>
      </trkpt>
      <trkpt lat="51.1369760" lon="7.3451290">
        <ele>265.9400000</ele>
        <time>2010-08-20T14:04:42Z</time>
      </trkpt>
      <trkpt lat="51.1364900" lon="7.3431010">
        <ele>272.6700000</ele>
        <time>2010-08-20T14:04:52Z</time>
      </trkpt>
      <trkpt lat="51.1358020" lon="7.3415670">
        <ele>274.5900000</ele>
        <time>2010-08-20T14:05:00Z</time>
      </trkpt>
      <trkpt lat="51.1347980" lon="7.3401680">
        <ele>281.8000000</ele>
        <time>2010-08-20T14:05:09Z</time>
      </trkpt>
      <trkpt lat="51.1343200" lon="7.3391210">
        <ele>287.5700000</ele>
        <time>2010-08-20T14:05:14Z</time>
      </trkpt>
      <trkpt lat="51.1342130" lon="7.3389580">
        <ele>288.5300000</ele>
        <time>2010-08-20T14:05:15Z</time>
      </trkpt>
      <trkpt lat="51.1341020" lon="7.3388120">
        <ele>289.9700000</ele>
        <time>2010-08-20T14:05:16Z</time>
      </trkpt>
      <trkpt lat="51.1339810" lon="7.3386960">
        <ele>290.9400000</ele>
        <time>2010-08-20T14:05:17Z</time>
      </trkpt>
      <trkpt lat="51.1338560" lon="7.3385950">
        <ele>292.3800000</ele>
        <time>2010-08-20T14:05:18Z</time>
      </trkpt>
      <trkpt lat="51.1337190" lon="7.3384990">
        <ele>292.8600000</ele>
        <time>2010-08-20T14:05:19Z</time>
      </trkpt>
      <trkpt lat="51.1326170" lon="7.3374630">
        <ele>301.5100000</ele>
        <time>2010-08-20T14:05:27Z</time>
      </trkpt>
      <trkpt lat="51.1324960" lon="7.3373080">
        <ele>302.4700000</ele>
        <time>2010-08-20T14:05:28Z</time>
      </trkpt>
      <trkpt lat="51.1323810" lon="7.3371360">
        <ele>302.9500000</ele>
        <time>2010-08-20T14:05:29Z</time>
      </trkpt>
      <trkpt lat="51.1322830" lon="7.3369380">
        <ele>303.9100000</ele>
        <time>2010-08-20T14:05:30Z</time>
      </trkpt>
      <trkpt lat="51.1321960" lon="7.3367200">
        <ele>305.3600000</ele>
        <time>2010-08-20T14:05:31Z</time>
      </trkpt>
      <trkpt lat="51.1321160" lon="7.3364950">
        <ele>306.8000000</ele>
        <time>2010-08-20T14:05:32Z</time>
      </trkpt>
      <trkpt lat="51.1315100" lon="7.3350000">
        <ele>313.0500000</ele>
        <time>2010-08-20T14:05:39Z</time>
      </trkpt>
      <trkpt lat="51.1314420" lon="7.3347510">
        <ele>313.0500000</ele>
        <time>2010-08-20T14:05:40Z</time>
      </trkpt>
      <trkpt lat="51.1306410" lon="7.3314010">
        <ele>321.7000000</ele>
        <time>2010-08-20T14:05:53Z</time>
      </trkpt>
      <trkpt lat="51.1299590" lon="7.3300030">
        <ele>326.9900000</ele>
        <time>2010-08-20T14:06:00Z</time>
      </trkpt>
      <trkpt lat="51.1297810" lon="7.3296670">
        <ele>326.9900000</ele>
        <time>2010-08-20T14:06:02Z</time>
      </trkpt>
      <trkpt lat="51.1297200" lon="7.3294900">
        <ele>326.9900000</ele>
        <time>2010-08-20T14:06:03Z</time>
      </trkpt>
      <trkpt lat="51.1296840" lon="7.3293030">
        <ele>326.9900000</ele>
        <time>2010-08-20T14:06:04Z</time>
      </trkpt>
      <trkpt lat="51.1296910" lon="7.3291080">
        <ele>326.0200000</ele>
        <time>2010-08-20T14:06:05Z</time>
      </trkpt>
      <trkpt lat="51.1297510" lon="7.3289000">
        <ele>325.0600000</ele>
        <time>2010-08-20T14:06:06Z</time>
      </trkpt>
      <trkpt lat="51.1298370" lon="7.3286930">
        <ele>323.1400000</ele>
        <time>2010-08-20T14:06:07Z</time>
      </trkpt>
      <trkpt lat="51.1299560" lon="7.3284670">
        <ele>320.7400000</ele>
        <time>2010-08-20T14:06:08Z</time>
      </trkpt>
      <trkpt lat="51.1301030" lon="7.3282160">
        <ele>318.3300000</ele>
        <time>2010-08-20T14:06:09Z</time>
      </trkpt>
      <trkpt lat="51.1302580" lon="7.3279610">
        <ele>315.4500000</ele>
        <time>2010-08-20T14:06:10Z</time>
      </trkpt>
      <trkpt lat="51.1303950" lon="7.3277180">
        <ele>313.0500000</ele>
        <time>2010-08-20T14:06:11Z</time>
      </trkpt>
      <trkpt lat="51.1314890" lon="7.3255890">
        <ele>304.3900000</ele>
        <time>2010-08-20T14:06:21Z</time>
      </trkpt>
      <trkpt lat="51.1315520" lon="7.3253570">
        <ele>304.3900000</ele>
        <time>2010-08-20T14:06:22Z</time>
      </trkpt>
      <trkpt lat="51.1316000" lon="7.3251010">
        <ele>305.3600000</ele>
        <time>2010-08-20T14:06:23Z</time>
      </trkpt>
      <trkpt lat="51.1316310" lon="7.3248200">
        <ele>306.8000000</ele>
        <time>2010-08-20T14:06:24Z</time>
      </trkpt>
      <trkpt lat="51.1316420" lon="7.3245360">
        <ele>307.7600000</ele>
        <time>2010-08-20T14:06:25Z</time>
      </trkpt>
      <trkpt lat="51.1316470" lon="7.3242610">
        <ele>309.2000000</ele>
        <time>2010-08-20T14:06:26Z</time>
      </trkpt>
      <trkpt lat="51.1317000" lon="7.3235720">
        <ele>317.3700000</ele>
        <time>2010-08-20T14:06:29Z</time>
      </trkpt>
      <trkpt lat="51.1317550" lon="7.3233720">
        <ele>319.7800000</ele>
        <time>2010-08-20T14:06:30Z</time>
      </trkpt>
      <trkpt lat="51.1318400" lon="7.3232040">
        <ele>321.7000000</ele>
        <time>2010-08-20T14:06:31Z</time>
      </trkpt>
      <trkpt lat="51.1319410" lon="7.3230770">
        <ele>324.1000000</ele>
        <time>2010-08-20T14:06:32Z</time>
      </trkpt>
      <trkpt lat="51.1320850" lon="7.3230080">
        <ele>326.5000000</ele>
        <time>2010-08-20T14:06:33Z</time>
      </trkpt>
      <trkpt lat="51.1322140" lon="7.3229540">
        <ele>329.8700000</ele>
        <time>2010-08-20T14:06:34Z</time>
      </trkpt>
      <trkpt lat="51.1323870" lon="7.3230150">
        <ele>331.3100000</ele>
        <time>2010-08-20T14:06:35Z</time>
      </trkpt>
      <trkpt lat="51.1325540" lon="7.3230620">
        <ele>334.2000000</ele>
        <time>2010-08-20T14:06:36Z</time>
      </trkpt>
      <trkpt lat="51.1327220" lon="7.3231200">
        <ele>336.6000000</ele>
        <time>2010-08-20T14:06:37Z</time>
      </trkpt>
      <trkpt lat="51.1329060" lon="7.3231810">
        <ele>338.5200000</ele>
        <time>2010-08-20T14:06:38Z</time>
      </trkpt>
      <trkpt lat="51.1330760" lon="7.3231520">
        <ele>340.4400000</ele>
        <time>2010-08-20T14:06:39Z</time>
      </trkpt>
      <trkpt lat="51.1332240" lon="7.3230400">
        <ele>341.8900000</ele>
        <time>2010-08-20T14:06:40Z</time>
      </trkpt>
      <trkpt lat="51.1333440" lon="7.3228940">
        <ele>344.2900000</ele>
        <time>2010-08-20T14:06:41Z</time>
      </trkpt>
      <trkpt lat="51.1334610" lon="7.3227210">
        <ele>345.2500000</ele>
        <time>2010-08-20T14:06:42Z</time>
      </trkpt>
      <trkpt lat="51.1335610" lon="7.3224900">
        <ele>346.2100000</ele>
        <time>2010-08-20T14:06:43Z</time>
      </trkpt>
      <trkpt lat="51.1336370" lon="7.3222510">
        <ele>345.7300000</ele>
        <time>2010-08-20T14:06:44Z</time>
      </trkpt>
      <trkpt lat="51.1337470" lon="7.3220170">
        <ele>345.2500000</ele>
        <time>2010-08-20T14:06:45Z</time>
      </trkpt>
      <trkpt lat="51.1348820" lon="7.3192850">
        <ele>334.6800000</ele>
        <time>2010-08-20T14:06:56Z</time>
      </trkpt>
      <trkpt lat="51.1357180" lon="7.3174270">
        <ele>333.2300000</ele>
        <time>2010-08-20T14:07:04Z</time>
      </trkpt>
      <trkpt lat="51.1375400" lon="7.3145100">
        <ele>342.8500000</ele>
        <time>2010-08-20T14:07:18Z</time>
      </trkpt>
      <trkpt lat="51.1383570" lon="7.3128130">
        <ele>352.4600000</ele>
        <time>2010-08-20T14:07:26Z</time>
      </trkpt>
      <trkpt lat="51.1385810" lon="7.3124560">
        <ele>354.8600000</ele>
        <time>2010-08-20T14:07:28Z</time>
      </trkpt>
      <trkpt lat="51.1387130" lon="7.3123050">
        <ele>356.3100000</ele>
        <time>2010-08-20T14:07:29Z</time>
      </trkpt>
      <trkpt lat="51.1388560" lon="7.3121700">
        <ele>357.2700000</ele>
        <time>2010-08-20T14:07:30Z</time>
      </trkpt>
      <trkpt lat="51.1401230" lon="7.3112890">
        <ele>360.1500000</ele>
        <time>2010-08-20T14:07:39Z</time>
      </trkpt>
      <trkpt lat="51.1413680" lon="7.3108410">
        <ele>351.9800000</ele>
        <time>2010-08-20T14:07:48Z</time>
      </trkpt>
      <trkpt lat="51.1416780" lon="7.3107880">
        <ele>348.6200000</ele>
        <time>2010-08-20T14:07:54Z</time>
      </trkpt>
      <trkpt lat="51.1416810" lon="7.3107690">
        <ele>347.1700000</ele>
        <time>2010-08-20T14:08:03Z</time>
      </trkpt>
      <trkpt lat="51.1416810" lon="7.3107350">
        <ele>347.6500000</ele>
        <time>2010-08-20T14:08:04Z</time>
      </trkpt>
      <trkpt lat="51.1416670" lon="7.3106830">
        <ele>347.6500000</ele>
        <time>2010-08-20T14:08:05Z</time>
      </trkpt>
      <trkpt lat="51.1416280" lon="7.3106240">
        <ele>347.6500000</ele>
        <time>2010-08-20T14:08:06Z</time>
      </trkpt>
      <trkpt lat="51.1415620" lon="7.3105570">
        <ele>347.1700000</ele>
        <time>2010-08-20T14:08:07Z</time>
      </trkpt>
      <trkpt lat="51.1414760" lon="7.3104800">
        <ele>347.1700000</ele>
        <time>2010-08-20T14:08:08Z</time>
      </trkpt>
      <trkpt lat="51.1406020" lon="7.3096560">
        <ele>347.1700000</ele>
        <time>2010-08-20T14:08:16Z</time>
      </trkpt>
      <trkpt lat="51.1404880" lon="7.3095210">
        <ele>347.1700000</ele>
        <time>2010-08-20T14:08:17Z</time>
      </trkpt>
      <trkpt lat="51.1403780" lon="7.3093590">
        <ele>347.1700000</ele>
        <time>2010-08-20T14:08:18Z</time>
      </trkpt>
      <trkpt lat="51.1402760" lon="7.3091740">
        <ele>347.1700000</ele>
        <time>2010-08-20T14:08:19Z</time>
      </trkpt>
      <trkpt lat="51.1401810" lon="7.3089680">
        <ele>347.1700000</ele>
        <time>2010-08-20T14:08:20Z</time>
      </trkpt>
      <trkpt lat="51.1400950" lon="7.3087470">
        <ele>347.1700000</ele>
        <time>2010-08-20T14:08:21Z</time>
      </trkpt>
      <trkpt lat="51.1400140" lon="7.3085200">
        <ele>347.1700000</ele>
        <time>2010-08-20T14:08:22Z</time>
      </trkpt>
      <trkpt lat="51.1394240" lon="7.3061630">
        <ele>346.6900000</ele>
        <time>2010-08-20T14:08:32Z</time>
      </trkpt>
      <trkpt lat="51.1388250" lon="7.3031080">
        <ele>344.2900000</ele>
        <time>2010-08-20T14:08:44Z</time>
      </trkpt>
      <trkpt lat="51.1382490" lon="7.3013200">
        <ele>342.3700000</ele>
        <time>2010-08-20T14:08:51Z</time>
      </trkpt>
      <trkpt lat="51.1378590" lon="7.3004050">
        <ele>340.4400000</ele>
        <time>2010-08-20T14:08:55Z</time>
      </trkpt>
      <trkpt lat="51.1377910" lon="7.3001530">
        <ele>339.9600000</ele>
        <time>2010-08-20T14:08:56Z</time>
      </trkpt>
      <trkpt lat="51.1377390" lon="7.2998930">
        <ele>339.4800000</ele>
        <time>2010-08-20T14:08:57Z</time>
      </trkpt>
      <trkpt lat="51.1377050" lon="7.2996320">
        <ele>339.0000000</ele>
        <time>2010-08-20T14:08:58Z</time>
      </trkpt>
      <trkpt lat="51.1376780" lon="7.2993770">
        <ele>338.5200000</ele>
        <time>2010-08-20T14:08:59Z</time>
      </trkpt>
      <trkpt lat="51.1376620" lon="7.2989090">
        <ele>337.5600000</ele>
        <time>2010-08-20T14:09:01Z</time>
      </trkpt>
      <trkpt lat="51.1376860" lon="7.2987010">
        <ele>336.6000000</ele>
        <time>2010-08-20T14:09:02Z</time>
      </trkpt>
      <trkpt lat="51.1377440" lon="7.2985550">
        <ele>336.1200000</ele>
        <time>2010-08-20T14:09:03Z</time>
      </trkpt>
      <trkpt lat="51.1377920" lon="7.2984300">
        <ele>335.6400000</ele>
        <time>2010-08-20T14:09:04Z</time>
      </trkpt>
      <trkpt lat="51.1378310" lon="7.2983270">
        <ele>335.6400000</ele>
        <time>2010-08-20T14:09:05Z</time>
      </trkpt>
      <trkpt lat="51.1379190" lon="7.2980140">
        <ele>335.1600000</ele>
        <time>2010-08-20T14:09:10Z</time>
      </trkpt>
      <trkpt lat="51.1378910" lon="7.2978760">
        <ele>334.6800000</ele>
        <time>2010-08-20T14:09:11Z</time>
      </trkpt>
      <trkpt lat="51.1375710" lon="7.2964520">
        <ele>333.2300000</ele>
        <time>2010-08-20T14:09:18Z</time>
      </trkpt>
      <trkpt lat="51.1370200" lon="7.2945830">
        <ele>333.2300000</ele>
        <time>2010-08-20T14:09:27Z</time>
      </trkpt>
      <trkpt lat="51.1360590" lon="7.2924280">
        <ele>337.5600000</ele>
        <time>2010-08-20T14:09:39Z</time>
      </trkpt>
      <trkpt lat="51.1354630" lon="7.2904620">
        <ele>336.6000000</ele>
        <time>2010-08-20T14:09:48Z</time>
      </trkpt>
      <trkpt lat="51.1349190" lon="7.2879950">
        <ele>333.2300000</ele>
        <time>2010-08-20T14:09:57Z</time>
      </trkpt>
      <trkpt lat="51.1345620" lon="7.2851850">
        <ele>327.4700000</ele>
        <time>2010-08-20T14:10:07Z</time>
      </trkpt>
      <trkpt lat="51.1344200" lon="7.2820390">
        <ele>324.1000000</ele>
        <time>2010-08-20T14:10:18Z</time>
      </trkpt>
      <trkpt lat="51.1343770" lon="7.2817480">
        <ele>323.6200000</ele>
        <time>2010-08-20T14:10:19Z</time>
      </trkpt>
      <trkpt lat="51.1343120" lon="7.2814370">
        <ele>323.6200000</ele>
        <time>2010-08-20T14:10:20Z</time>
      </trkpt>
      <trkpt lat="51.1342290" lon="7.2811270">
        <ele>324.1000000</ele>
        <time>2010-08-20T14:10:21Z</time>
      </trkpt>
      <trkpt lat="51.1341460" lon="7.2808370">
        <ele>324.5800000</ele>
        <time>2010-08-20T14:10:22Z</time>
      </trkpt>
      <trkpt lat="51.1337550" lon="7.2793130">
        <ele>326.5000000</ele>
        <time>2010-08-20T14:10:28Z</time>
      </trkpt>
      <trkpt lat="51.1337240" lon="7.2790810">
        <ele>326.5000000</ele>
        <time>2010-08-20T14:10:29Z</time>
      </trkpt>
      <trkpt lat="51.1337060" lon="7.2788570">
        <ele>326.9900000</ele>
        <time>2010-08-20T14:10:30Z</time>
      </trkpt>
      <trkpt lat="51.1336360" lon="7.2774570">
        <ele>328.4300000</ele>
        <time>2010-08-20T14:10:38Z</time>
      </trkpt>
      <trkpt lat="51.1335870" lon="7.2756690">
        <ele>328.9100000</ele>
        <time>2010-08-20T14:10:50Z</time>
      </trkpt>
      <trkpt lat="51.1335510" lon="7.2744100">
        <ele>328.4300000</ele>
        <time>2010-08-20T14:11:01Z</time>
      </trkpt>
      <trkpt lat="51.1335280" lon="7.2731720">
        <ele>328.4300000</ele>
        <time>2010-08-20T14:11:12Z</time>
      </trkpt>
      <trkpt lat="51.1334720" lon="7.2722470">
        <ele>328.4300000</ele>
        <time>2010-08-20T14:11:20Z</time>
      </trkpt>
      <trkpt lat="51.1334720" lon="7.2720550">
        <ele>327.9500000</ele>
        <time>2010-08-20T14:11:22Z</time>
      </trkpt>
      <trkpt lat="51.1334860" lon="7.2719930">
        <ele>327.9500000</ele>
        <time>2010-08-20T14:11:23Z</time>
      </trkpt>
      <trkpt lat="51.1334790" lon="7.2719360">
        <ele>328.4300000</ele>
        <time>2010-08-20T14:11:24Z</time>
      </trkpt>
      <trkpt lat="51.1335320" lon="7.2719230">
        <ele>328.4300000</ele>
        <time>2010-08-20T14:11:25Z</time>
      </trkpt>
      <trkpt lat="51.1336040" lon="7.2719030">
        <ele>328.4300000</ele>
        <time>2010-08-20T14:11:26Z</time>
      </trkpt>
      <trkpt lat="51.1337020" lon="7.2718680">
        <ele>328.4300000</ele>
        <time>2010-08-20T14:11:27Z</time>
      </trkpt>
      <trkpt lat="51.1338230" lon="7.2718160">
        <ele>328.9100000</ele>
        <time>2010-08-20T14:11:28Z</time>
      </trkpt>
      <trkpt lat="51.1343160" lon="7.2716140">
        <ele>328.4300000</ele>
        <time>2010-08-20T14:11:32Z</time>
      </trkpt>
      <trkpt lat="51.1344440" lon="7.2716040">
        <ele>327.9500000</ele>
        <time>2010-08-20T14:11:33Z</time>
      </trkpt>
      <trkpt lat="51.1345760" lon="7.2716190">
        <ele>328.4300000</ele>
        <time>2010-08-20T14:11:34Z</time>
      </trkpt>
      <trkpt lat="51.1355660" lon="7.2717590">
        <ele>332.7500000</ele>
        <time>2010-08-20T14:11:42Z</time>
      </trkpt>
      <trkpt lat="51.1356680" lon="7.2717210">
        <ele>333.2300000</ele>
        <time>2010-08-20T14:11:43Z</time>
      </trkpt>
      <trkpt lat="51.1368190" lon="7.2712150">
        <ele>334.2000000</ele>
        <time>2010-08-20T14:11:53Z</time>
      </trkpt>
      <trkpt lat="51.1373510" lon="7.2711100">
        <ele>334.6800000</ele>
        <time>2010-08-20T14:11:57Z</time>
      </trkpt>
      <trkpt lat="51.1374860" lon="7.2711230">
        <ele>334.6800000</ele>
        <time>2010-08-20T14:11:58Z</time>
      </trkpt>
      <trkpt lat="51.1388750" lon="7.2716000">
        <ele>342.3700000</ele>
        <time>2010-08-20T14:12:08Z</time>
      </trkpt>
      <trkpt lat="51.1404070" lon="7.2719570">
        <ele>347.1700000</ele>
        <time>2010-08-20T14:12:17Z</time>
      </trkpt>
      <trkpt lat="51.1424950" lon="7.2720350">
        <ele>336.6000000</ele>
        <time>2010-08-20T14:12:29Z</time>
      </trkpt>
      <trkpt lat="51.1442980" lon="7.2717450">
        <ele>326.0200000</ele>
        <time>2010-08-20T14:12:39Z</time>
      </trkpt>
      <trkpt lat="51.1444650" lon="7.2716380">
        <ele>325.5400000</ele>
        <time>2010-08-20T14:12:40Z</time>
      </trkpt>
      <trkpt lat="51.1446320" lon="7.2715040">
        <ele>325.5400000</ele>
        <time>2010-08-20T14:12:41Z</time>
      </trkpt>
      <trkpt lat="51.1458840" lon="7.2701500">
        <ele>328.9100000</ele>
        <time>2010-08-20T14:12:49Z</time>
      </trkpt>
      <trkpt lat="51.1464450" lon="7.2696660">
        <ele>330.8300000</ele>
        <time>2010-08-20T14:12:53Z</time>
      </trkpt>
      <trkpt lat="51.1465830" lon="7.2696080">
        <ele>330.8300000</ele>
        <time>2010-08-20T14:12:54Z</time>
      </trkpt>
      <trkpt lat="51.1467230" lon="7.2696150">
        <ele>331.3100000</ele>
        <time>2010-08-20T14:12:55Z</time>
      </trkpt>
      <trkpt lat="51.1468570" lon="7.2696600">
        <ele>331.7900000</ele>
        <time>2010-08-20T14:12:56Z</time>
      </trkpt>
      <trkpt lat="51.1469840" lon="7.2697480">
        <ele>331.7900000</ele>
        <time>2010-08-20T14:12:57Z</time>
      </trkpt>
      <trkpt lat="51.1471040" lon="7.2698620">
        <ele>332.2700000</ele>
        <time>2010-08-20T14:12:58Z</time>
      </trkpt>
      <trkpt lat="51.1472190" lon="7.2699720">
        <ele>332.2700000</ele>
        <time>2010-08-20T14:12:59Z</time>
      </trkpt>
      <trkpt lat="51.1475720" lon="7.2702400">
        <ele>331.3100000</ele>
        <time>2010-08-20T14:13:02Z</time>
      </trkpt>
      <trkpt lat="51.1476930" lon="7.2702830">
        <ele>330.3500000</ele>
        <time>2010-08-20T14:13:03Z</time>
      </trkpt>
      <trkpt lat="51.1478140" lon="7.2702830">
        <ele>329.3900000</ele>
        <time>2010-08-20T14:13:04Z</time>
      </trkpt>
      <trkpt lat="51.1479330" lon="7.2702420">
        <ele>327.9500000</ele>
        <time>2010-08-20T14:13:05Z</time>
      </trkpt>
      <trkpt lat="51.1480400" lon="7.2701320">
        <ele>326.9900000</ele>
        <time>2010-08-20T14:13:06Z</time>
      </trkpt>
      <trkpt lat="51.1481370" lon="7.2699730">
        <ele>326.0200000</ele>
        <time>2010-08-20T14:13:07Z</time>
      </trkpt>
      <trkpt lat="51.1482240" lon="7.2697950">
        <ele>324.5800000</ele>
        <time>2010-08-20T14:13:08Z</time>
      </trkpt>
      <trkpt lat="51.1483030" lon="7.2695860">
        <ele>323.6200000</ele>
        <time>2010-08-20T14:13:09Z</time>
      </trkpt>
      <trkpt lat="51.1483840" lon="7.2693480">
        <ele>322.6600000</ele>
        <time>2010-08-20T14:13:10Z</time>
      </trkpt>
      <trkpt lat="51.1490580" lon="7.2673170">
        <ele>323.1400000</ele>
        <time>2010-08-20T14:13:20Z</time>
      </trkpt>
      <trkpt lat="51.1492940" lon="7.2668090">
        <ele>323.1400000</ele>
        <time>2010-08-20T14:13:23Z</time>
      </trkpt>
      <trkpt lat="51.1494000" lon="7.2666440">
        <ele>324.1000000</ele>
        <time>2010-08-20T14:13:24Z</time>
      </trkpt>
      <trkpt lat="51.1495220" lon="7.2664940">
        <ele>323.6200000</ele>
        <time>2010-08-20T14:13:25Z</time>
      </trkpt>
      <trkpt lat="51.1496640" lon="7.2663710">
        <ele>323.6200000</ele>
        <time>2010-08-20T14:13:26Z</time>
      </trkpt>
      <trkpt lat="51.1498180" lon="7.2662800">
        <ele>324.1000000</ele>
        <time>2010-08-20T14:13:27Z</time>
      </trkpt>
      <trkpt lat="51.1499830" lon="7.2662470">
        <ele>324.1000000</ele>
        <time>2010-08-20T14:13:28Z</time>
      </trkpt>
      <trkpt lat="51.1501440" lon="7.2661910">
        <ele>324.5800000</ele>
        <time>2010-08-20T14:13:29Z</time>
      </trkpt>
      <trkpt lat="51.1502930" lon="7.2661510">
        <ele>326.0200000</ele>
        <time>2010-08-20T14:13:30Z</time>
      </trkpt>
      <trkpt lat="51.1503810" lon="7.2661400">
        <ele>327.4700000</ele>
        <time>2010-08-20T14:13:31Z</time>
      </trkpt>
      <trkpt lat="51.1505160" lon="7.2662160">
        <ele>328.9100000</ele>
        <time>2010-08-20T14:13:32Z</time>
      </trkpt>
      <trkpt lat="51.1506900" lon="7.2663700">
        <ele>329.8700000</ele>
        <time>2010-08-20T14:13:33Z</time>
      </trkpt>
      <trkpt lat="51.1508410" lon="7.2665200">
        <ele>330.3500000</ele>
        <time>2010-08-20T14:13:34Z</time>
      </trkpt>
      <trkpt lat="51.1509800" lon="7.2666980">
        <ele>330.8300000</ele>
        <time>2010-08-20T14:13:35Z</time>
      </trkpt>
      <trkpt lat="51.1511150" lon="7.2669010">
        <ele>331.7900000</ele>
        <time>2010-08-20T14:13:36Z</time>
      </trkpt>
      <trkpt lat="51.1512460" lon="7.2671140">
        <ele>332.7500000</ele>
        <time>2010-08-20T14:13:37Z</time>
      </trkpt>
      <trkpt lat="51.1515040" lon="7.2674690">
        <ele>334.2000000</ele>
        <time>2010-08-20T14:13:39Z</time>
      </trkpt>
      <trkpt lat="51.1516400" lon="7.2676060">
        <ele>334.6800000</ele>
        <time>2010-08-20T14:13:40Z</time>
      </trkpt>
      <trkpt lat="51.1517900" lon="7.2677150">
        <ele>334.6800000</ele>
        <time>2010-08-20T14:13:41Z</time>
      </trkpt>
      <trkpt lat="51.1519490" lon="7.2677950">
        <ele>335.1600000</ele>
        <time>2010-08-20T14:13:42Z</time>
      </trkpt>
      <trkpt lat="51.1521080" lon="7.2678470">
        <ele>335.1600000</ele>
        <time>2010-08-20T14:13:43Z</time>
      </trkpt>
      <trkpt lat="51.1522640" lon="7.2678860">
        <ele>335.6400000</ele>
        <time>2010-08-20T14:13:44Z</time>
      </trkpt>
      <trkpt lat="51.1532470" lon="7.2681010">
        <ele>338.5200000</ele>
        <time>2010-08-20T14:13:52Z</time>
      </trkpt>
      <trkpt lat="51.1538260" lon="7.2681250">
        <ele>340.9200000</ele>
        <time>2010-08-20T14:14:01Z</time>
      </trkpt>
      <trkpt lat="51.1540670" lon="7.2681770">
        <ele>340.4400000</ele>
        <time>2010-08-20T14:14:11Z</time>
      </trkpt>
      <trkpt lat="51.1541940" lon="7.2681620">
        <ele>342.3700000</ele>
        <time>2010-08-20T14:14:58Z</time>
      </trkpt>
      <trkpt lat="51.1544640" lon="7.2682700">
        <ele>339.0000000</ele>
        <time>2010-08-20T14:15:04Z</time>
      </trkpt>
      <trkpt lat="51.1544860" lon="7.2682440">
        <ele>339.0000000</ele>
        <time>2010-08-20T14:15:05Z</time>
      </trkpt>
      <trkpt lat="51.1545010" lon="7.2682200">
        <ele>338.5200000</ele>
        <time>2010-08-20T14:15:06Z</time>
      </trkpt>
      <trkpt lat="51.1545570" lon="7.2680540">
        <ele>336.1200000</ele>
        <time>2010-08-20T14:15:16Z</time>
      </trkpt>
      <trkpt lat="51.1545550" lon="7.2677720">
        <ele>336.1200000</ele>
        <time>2010-08-20T14:15:20Z</time>
      </trkpt>
      <trkpt lat="51.1545070" lon="7.2672990">
        <ele>336.1200000</ele>
        <time>2010-08-20T14:15:26Z</time>
      </trkpt>
      <trkpt lat="51.1543530" lon="7.2668010">
        <ele>337.0800000</ele>
        <time>2010-08-20T14:15:37Z</time>
      </trkpt>
      <trkpt lat="51.1542390" lon="7.2664080">
        <ele>337.0800000</ele>
        <time>2010-08-20T14:15:51Z</time>
      </trkpt>
      <trkpt lat="51.1541550" lon="7.2661800">
        <ele>338.5200000</ele>
        <time>2010-08-20T14:16:09Z</time>
      </trkpt>
      <trkpt lat="51.1541550" lon="7.2660790">
        <ele>337.5600000</ele>
        <time>2010-08-20T14:16:24Z</time>
      </trkpt>
      <trkpt lat="51.1540110" lon="7.2651880">
        <ele>336.6000000</ele>
        <time>2010-08-20T14:16:34Z</time>
      </trkpt>
      <trkpt lat="51.1539140" lon="7.2642270">
        <ele>338.0400000</ele>
        <time>2010-08-20T14:16:45Z</time>
      </trkpt>
      <trkpt lat="51.1538690" lon="7.2638990">
        <ele>338.0400000</ele>
        <time>2010-08-20T14:16:55Z</time>
      </trkpt>
      <trkpt lat="51.1538240" lon="7.2638150">
        <ele>338.0400000</ele>
        <time>2010-08-20T14:17:03Z</time>
      </trkpt>
      <trkpt lat="51.1538480" lon="7.2638560">
        <ele>337.0800000</ele>
        <time>2010-08-20T14:18:05Z</time>
      </trkpt>
      <trkpt lat="51.1538360" lon="7.2638360">
        <ele>338.5200000</ele>
        <time>2010-08-20T14:18:09Z</time>
      </trkpt>
      <trkpt lat="51.1538190" lon="7.2638120">
        <ele>338.5200000</ele>
        <time>2010-08-20T14:18:10Z</time>
      </trkpt>
      <trkpt lat="51.1538010" lon="7.2637800">
        <ele>338.5200000</ele>
        <time>2010-08-20T14:18:11Z</time>
      </trkpt>
      <trkpt lat="51.1537470" lon="7.2636440">
        <ele>338.5200000</ele>
        <time>2010-08-20T14:18:14Z</time>
      </trkpt>
      <trkpt lat="51.1537510" lon="7.2635620">
        <ele>339.0000000</ele>
        <time>2010-08-20T14:18:15Z</time>
      </trkpt>
      <trkpt lat="51.1537720" lon="7.2634930">
        <ele>339.9600000</ele>
        <time>2010-08-20T14:18:16Z</time>
      </trkpt>
      <trkpt lat="51.1538530" lon="7.2634760">
        <ele>340.4400000</ele>
        <time>2010-08-20T14:18:17Z</time>
      </trkpt>
      <trkpt lat="51.1539240" lon="7.2634650">
        <ele>340.9200000</ele>
        <time>2010-08-20T14:18:18Z</time>
      </trkpt>
      <trkpt lat="51.1539990" lon="7.2634950">
        <ele>340.4400000</ele>
        <time>2010-08-20T14:18:19Z</time>
      </trkpt>
      <trkpt lat="51.1540970" lon="7.2635580">
        <ele>340.4400000</ele>
        <time>2010-08-20T14:18:20Z</time>
      </trkpt>
      <trkpt lat="51.1551590" lon="7.2641940">
        <ele>342.3700000</ele>
        <time>2010-08-20T14:18:29Z</time>
      </trkpt>
      <trkpt lat="51.1569230" lon="7.2651670">
        <ele>346.6900000</ele>
        <time>2010-08-20T14:18:41Z</time>
      </trkpt>
      <trkpt lat="51.1583200" lon="7.2652130">
        <ele>350.5400000</ele>
        <time>2010-08-20T14:18:50Z</time>
      </trkpt>
      <trkpt lat="51.1595460" lon="7.2651500">
        <ele>350.5400000</ele>
        <time>2010-08-20T14:18:59Z</time>
      </trkpt>
      <trkpt lat="51.1598360" lon="7.2651050">
        <ele>350.5400000</ele>
        <time>2010-08-20T14:19:05Z</time>
      </trkpt>
      <trkpt lat="51.1599060" lon="7.2650930">
        <ele>351.0200000</ele>
        <time>2010-08-20T14:19:14Z</time>
      </trkpt>
      <trkpt lat="51.1599390" lon="7.2650990">
        <ele>354.3800000</ele>
        <time>2010-08-20T14:19:27Z</time>
      </trkpt>
      <trkpt lat="51.1599540" lon="7.2650640">
        <ele>353.9000000</ele>
        <time>2010-08-20T14:19:28Z</time>
      </trkpt>
      <trkpt lat="51.1599660" lon="7.2649910">
        <ele>353.9000000</ele>
        <time>2010-08-20T14:19:29Z</time>
      </trkpt>
      <trkpt lat="51.1601290" lon="7.2641470">
        <ele>350.5400000</ele>
        <time>2010-08-20T14:19:35Z</time>
      </trkpt>
      <trkpt lat="51.1604630" lon="7.2631740">
        <ele>348.1300000</ele>
        <time>2010-08-20T14:19:40Z</time>
      </trkpt>
      <trkpt lat="51.1604950" lon="7.2629700">
        <ele>347.6500000</ele>
        <time>2010-08-20T14:19:41Z</time>
      </trkpt>
      <trkpt lat="51.1604930" lon="7.2627520">
        <ele>347.1700000</ele>
        <time>2010-08-20T14:19:42Z</time>
      </trkpt>
      <trkpt lat="51.1604650" lon="7.2625270">
        <ele>347.1700000</ele>
        <time>2010-08-20T14:19:43Z</time>
      </trkpt>
      <trkpt lat="51.1604230" lon="7.2623070">
        <ele>347.6500000</ele>
        <time>2010-08-20T14:19:44Z</time>
      </trkpt>
      <trkpt lat="51.1603790" lon="7.2620830">
        <ele>347.6500000</ele>
        <time>2010-08-20T14:19:45Z</time>
      </trkpt>
      <trkpt lat="51.1603300" lon="7.2618600">
        <ele>347.6500000</ele>
        <time>2010-08-20T14:19:46Z</time>
      </trkpt>
      <trkpt lat="51.1598210" lon="7.2603430">
        <ele>343.3300000</ele>
        <time>2010-08-20T14:19:54Z</time>
      </trkpt>
      <trkpt lat="51.1597510" lon="7.2600810">
        <ele>340.9200000</ele>
        <time>2010-08-20T14:19:56Z</time>
      </trkpt>
      <trkpt lat="51.1597730" lon="7.2599840">
        <ele>339.0000000</ele>
        <time>2010-08-20T14:19:57Z</time>
      </trkpt>
      <trkpt lat="51.1598210" lon="7.2598710">
        <ele>337.5600000</ele>
        <time>2010-08-20T14:19:58Z</time>
      </trkpt>
      <trkpt lat="51.1599060" lon="7.2597620">
        <ele>335.6400000</ele>
        <time>2010-08-20T14:19:59Z</time>
      </trkpt>
      <trkpt lat="51.1600360" lon="7.2596410">
        <ele>334.2000000</ele>
        <time>2010-08-20T14:20:00Z</time>
      </trkpt>
      <trkpt lat="51.1601670" lon="7.2594890">
        <ele>332.7500000</ele>
        <time>2010-08-20T14:20:01Z</time>
      </trkpt>
      <trkpt lat="51.1605000" lon="7.2588730">
        <ele>330.8300000</ele>
        <time>2010-08-20T14:20:04Z</time>
      </trkpt>
      <trkpt lat="51.1605650" lon="7.2586370">
        <ele>330.8300000</ele>
        <time>2010-08-20T14:20:05Z</time>
      </trkpt>
      <trkpt lat="51.1606120" lon="7.2583630">
        <ele>330.8300000</ele>
        <time>2010-08-20T14:20:06Z</time>
      </trkpt>
      <trkpt lat="51.1606330" lon="7.2580740">
        <ele>330.8300000</ele>
        <time>2010-08-20T14:20:07Z</time>
      </trkpt>
      <trkpt lat="51.1606410" lon="7.2577710">
        <ele>331.3100000</ele>
        <time>2010-08-20T14:20:08Z</time>
      </trkpt>
      <trkpt lat="51.1607250" lon="7.2551910">
        <ele>326.9900000</ele>
        <time>2010-08-20T14:20:17Z</time>
      </trkpt>
      <trkpt lat="51.1607510" lon="7.2534330">
        <ele>318.8100000</ele>
        <time>2010-08-20T14:20:24Z</time>
      </trkpt>
      <trkpt lat="51.1607750" lon="7.2532070">
        <ele>316.8900000</ele>
        <time>2010-08-20T14:20:25Z</time>
      </trkpt>
      <trkpt lat="51.1609520" lon="7.2517890">
        <ele>306.8000000</ele>
        <time>2010-08-20T14:20:33Z</time>
      </trkpt>
      <trkpt lat="51.1609440" lon="7.2516650">
        <ele>305.8400000</ele>
        <time>2010-08-20T14:20:34Z</time>
      </trkpt>
      <trkpt lat="51.1609190" lon="7.2503720">
        <ele>303.4300000</ele>
        <time>2010-08-20T14:20:41Z</time>
      </trkpt>
      <trkpt lat="51.1611630" lon="7.2483370">
        <ele>305.8400000</ele>
        <time>2010-08-20T14:20:50Z</time>
      </trkpt>
      <trkpt lat="51.1617270" lon="7.2459750">
        <ele>302.4700000</ele>
        <time>2010-08-20T14:21:00Z</time>
      </trkpt>
      <trkpt lat="51.1624530" lon="7.2442500">
        <ele>291.9000000</ele>
        <time>2010-08-20T14:21:10Z</time>
      </trkpt>
      <trkpt lat="51.1625900" lon="7.2440380">
        <ele>289.9700000</ele>
        <time>2010-08-20T14:21:12Z</time>
      </trkpt>
      <trkpt lat="51.1626650" lon="7.2439760">
        <ele>288.5300000</ele>
        <time>2010-08-20T14:21:13Z</time>
      </trkpt>
      <trkpt lat="51.1627440" lon="7.2439410">
        <ele>287.5700000</ele>
        <time>2010-08-20T14:21:14Z</time>
      </trkpt>
      <trkpt lat="51.1628260" lon="7.2439330">
        <ele>286.6100000</ele>
        <time>2010-08-20T14:21:15Z</time>
      </trkpt>
      <trkpt lat="51.1629030" lon="7.2439450">
        <ele>285.6500000</ele>
        <time>2010-08-20T14:21:16Z</time>
      </trkpt>
      <trkpt lat="51.1629730" lon="7.2439670">
        <ele>284.6900000</ele>
        <time>2010-08-20T14:21:17Z</time>
      </trkpt>
      <trkpt lat="51.1630380" lon="7.2439880">
        <ele>284.2100000</ele>
        <time>2010-08-20T14:21:18Z</time>
      </trkpt>
      <trkpt lat="51.1631080" lon="7.2439980">
        <ele>283.7300000</ele>
        <time>2010-08-20T14:21:19Z</time>
      </trkpt>
      <trkpt lat="51.1631920" lon="7.2437690">
        <ele>281.8000000</ele>
        <time>2010-08-20T14:21:23Z</time>
      </trkpt>
      <trkpt lat="51.1631890" lon="7.2436260">
        <ele>279.8800000</ele>
        <time>2010-08-20T14:21:25Z</time>
      </trkpt>
      <trkpt lat="51.1630750" lon="7.2434240">
        <ele>276.5200000</ele>
        <time>2010-08-20T14:21:27Z</time>
      </trkpt>
      <trkpt lat="51.1629820" lon="7.2433200">
        <ele>273.6300000</ele>
        <time>2010-08-20T14:21:28Z</time>
      </trkpt>
      <trkpt lat="51.1628410" lon="7.2431970">
        <ele>271.2300000</ele>
        <time>2010-08-20T14:21:30Z</time>
      </trkpt>
      <trkpt lat="51.1627060" lon="7.2429760">
        <ele>275.0700000</ele>
        <time>2010-08-20T14:21:34Z</time>
      </trkpt>
      <trkpt lat="51.1628470" lon="7.2428060">
        <ele>274.5900000</ele>
        <time>2010-08-20T14:21:37Z</time>
      </trkpt>
      <trkpt lat="51.1629480" lon="7.2428100">
        <ele>273.1500000</ele>
        <time>2010-08-20T14:21:38Z</time>
      </trkpt>
      <trkpt lat="51.1630720" lon="7.2428510">
        <ele>273.1500000</ele>
        <time>2010-08-20T14:21:39Z</time>
      </trkpt>
      <trkpt lat="51.1631880" lon="7.2429090">
        <ele>272.1900000</ele>
        <time>2010-08-20T14:21:40Z</time>
      </trkpt>
      <trkpt lat="51.1632840" lon="7.2429870">
        <ele>271.2300000</ele>
        <time>2010-08-20T14:21:41Z</time>
      </trkpt>
      <trkpt lat="51.1633700" lon="7.2431030">
        <ele>270.2700000</ele>
        <time>2010-08-20T14:21:42Z</time>
      </trkpt>
      <trkpt lat="51.1634590" lon="7.2432280">
        <ele>268.8300000</ele>
        <time>2010-08-20T14:21:43Z</time>
      </trkpt>
      <trkpt lat="51.1635510" lon="7.2433500">
        <ele>268.3500000</ele>
        <time>2010-08-20T14:21:44Z</time>
      </trkpt>
      <trkpt lat="51.1636350" lon="7.2434650">
        <ele>267.8600000</ele>
        <time>2010-08-20T14:21:45Z</time>
      </trkpt>
      <trkpt lat="51.1638850" lon="7.2437540">
        <ele>265.4600000</ele>
        <time>2010-08-20T14:21:48Z</time>
      </trkpt>
      <trkpt lat="51.1639840" lon="7.2438280">
        <ele>264.5000000</ele>
        <time>2010-08-20T14:21:49Z</time>
      </trkpt>
      <trkpt lat="51.1640920" lon="7.2438260">
        <ele>264.5000000</ele>
        <time>2010-08-20T14:21:50Z</time>
      </trkpt>
      <trkpt lat="51.1641910" lon="7.2438090">
        <ele>263.5400000</ele>
        <time>2010-08-20T14:21:51Z</time>
      </trkpt>
      <trkpt lat="51.1642890" lon="7.2437420">
        <ele>261.6200000</ele>
        <time>2010-08-20T14:21:52Z</time>
      </trkpt>
      <trkpt lat="51.1643590" lon="7.2436920">
        <ele>262.1000000</ele>
        <time>2010-08-20T14:21:53Z</time>
      </trkpt>
      <trkpt lat="51.1644000" lon="7.2435680">
        <ele>263.0600000</ele>
        <time>2010-08-20T14:21:54Z</time>
      </trkpt>
      <trkpt lat="51.1644180" lon="7.2434670">
        <ele>265.4600000</ele>
        <time>2010-08-20T14:21:55Z</time>
      </trkpt>
      <trkpt lat="51.1644300" lon="7.2433880">
        <ele>265.9400000</ele>
        <time>2010-08-20T14:21:56Z</time>
      </trkpt>
      <trkpt lat="51.1644110" lon="7.2432830">
        <ele>267.8600000</ele>
        <time>2010-08-20T14:21:57Z</time>
      </trkpt>
      <trkpt lat="51.1644260" lon="7.2431920">
        <ele>269.3100000</ele>
        <time>2010-08-20T14:21:58Z</time>
      </trkpt>
      <trkpt lat="51.1644820" lon="7.2431250">
        <ele>269.7900000</ele>
        <time>2010-08-20T14:21:59Z</time>
      </trkpt>
      <trkpt lat="51.1646570" lon="7.2427790">
        <ele>268.3500000</ele>
        <time>2010-08-20T14:22:03Z</time>
      </trkpt>
      <trkpt lat="51.1646330" lon="7.2426580">
        <ele>268.3500000</ele>
        <time>2010-08-20T14:22:04Z</time>
      </trkpt>
      <trkpt lat="51.1645640" lon="7.2425460">
        <ele>268.3500000</ele>
        <time>2010-08-20T14:22:05Z</time>
      </trkpt>
      <trkpt lat="51.1644930" lon="7.2424370">
        <ele>268.8300000</ele>
        <time>2010-08-20T14:22:06Z</time>
      </trkpt>
      <trkpt lat="51.1644270" lon="7.2423150">
        <ele>269.7900000</ele>
        <time>2010-08-20T14:22:07Z</time>
      </trkpt>
      <trkpt lat="51.1643710" lon="7.2421690">
        <ele>270.7500000</ele>
        <time>2010-08-20T14:22:08Z</time>
      </trkpt>
      <trkpt lat="51.1643120" lon="7.2420130">
        <ele>270.7500000</ele>
        <time>2010-08-20T14:22:09Z</time>
      </trkpt>
      <trkpt lat="51.1642660" lon="7.2418200">
        <ele>271.2300000</ele>
        <time>2010-08-20T14:22:10Z</time>
      </trkpt>
      <trkpt lat="51.1642380" lon="7.2416130">
        <ele>271.7100000</ele>
        <time>2010-08-20T14:22:11Z</time>
      </trkpt>
      <trkpt lat="51.1642180" lon="7.2413790">
        <ele>273.1500000</ele>
        <time>2010-08-20T14:22:12Z</time>
      </trkpt>
      <trkpt lat="51.1642040" lon="7.2411360">
        <ele>274.1100000</ele>
        <time>2010-08-20T14:22:13Z</time>
      </trkpt>
      <trkpt lat="51.1641910" lon="7.2409110">
        <ele>275.5600000</ele>
        <time>2010-08-20T14:22:14Z</time>
      </trkpt>
      <trkpt lat="51.1642060" lon="7.2399620">
        <ele>278.9200000</ele>
        <time>2010-08-20T14:22:19Z</time>
      </trkpt>
      <trkpt lat="51.1642460" lon="7.2397890">
        <ele>279.8800000</ele>
        <time>2010-08-20T14:22:20Z</time>
      </trkpt>
      <trkpt lat="51.1643150" lon="7.2395980">
        <ele>280.8400000</ele>
        <time>2010-08-20T14:22:21Z</time>
      </trkpt>
      <trkpt lat="51.1644130" lon="7.2393980">
        <ele>281.8000000</ele>
        <time>2010-08-20T14:22:22Z</time>
      </trkpt>
      <trkpt lat="51.1645060" lon="7.2392020">
        <ele>282.7700000</ele>
        <time>2010-08-20T14:22:23Z</time>
      </trkpt>
      <trkpt lat="51.1646530" lon="7.2388460">
        <ele>285.1700000</ele>
        <time>2010-08-20T14:22:25Z</time>
      </trkpt>
      <trkpt lat="51.1646940" lon="7.2386890">
        <ele>285.6500000</ele>
        <time>2010-08-20T14:22:26Z</time>
      </trkpt>
      <trkpt lat="51.1647040" lon="7.2385510">
        <ele>286.1300000</ele>
        <time>2010-08-20T14:22:27Z</time>
      </trkpt>
      <trkpt lat="51.1646840" lon="7.2384000">
        <ele>286.6100000</ele>
        <time>2010-08-20T14:22:28Z</time>
      </trkpt>
      <trkpt lat="51.1646570" lon="7.2382520">
        <ele>286.1300000</ele>
        <time>2010-08-20T14:22:29Z</time>
      </trkpt>
      <trkpt lat="51.1646390" lon="7.2381190">
        <ele>286.1300000</ele>
        <time>2010-08-20T14:22:30Z</time>
      </trkpt>
      <trkpt lat="51.1646380" lon="7.2380050">
        <ele>286.1300000</ele>
        <time>2010-08-20T14:22:31Z</time>
      </trkpt>
      <trkpt lat="51.1646560" lon="7.2379050">
        <ele>286.1300000</ele>
        <time>2010-08-20T14:22:32Z</time>
      </trkpt>
      <trkpt lat="51.1646980" lon="7.2378070">
        <ele>286.1300000</ele>
        <time>2010-08-20T14:22:33Z</time>
      </trkpt>
      <trkpt lat="51.1647520" lon="7.2377050">
        <ele>285.6500000</ele>
        <time>2010-08-20T14:22:34Z</time>
      </trkpt>
      <trkpt lat="51.1648070" lon="7.2375970">
        <ele>285.1700000</ele>
        <time>2010-08-20T14:22:35Z</time>
      </trkpt>
      <trkpt lat="51.1650670" lon="7.2370360">
        <ele>281.8000000</ele>
        <time>2010-08-20T14:22:40Z</time>
      </trkpt>
      <trkpt lat="51.1651280" lon="7.2369600">
        <ele>280.8400000</ele>
        <time>2010-08-20T14:22:41Z</time>
      </trkpt>
      <trkpt lat="51.1651910" lon="7.2369120">
        <ele>279.8800000</ele>
        <time>2010-08-20T14:22:42Z</time>
      </trkpt>
      <trkpt lat="51.1652650" lon="7.2368810">
        <ele>278.4400000</ele>
        <time>2010-08-20T14:22:43Z</time>
      </trkpt>
      <trkpt lat="51.1653510" lon="7.2368560">
        <ele>277.4800000</ele>
        <time>2010-08-20T14:22:44Z</time>
      </trkpt>
      <trkpt lat="51.1654430" lon="7.2368340">
        <ele>276.5200000</ele>
        <time>2010-08-20T14:22:45Z</time>
      </trkpt>
      <trkpt lat="51.1655230" lon="7.2368160">
        <ele>275.5600000</ele>
        <time>2010-08-20T14:22:46Z</time>
      </trkpt>
      <trkpt lat="51.1656000" lon="7.2368340">
        <ele>275.0700000</ele>
        <time>2010-08-20T14:22:47Z</time>
      </trkpt>
      <trkpt lat="51.1656760" lon="7.2368730">
        <ele>274.1100000</ele>
        <time>2010-08-20T14:22:48Z</time>
      </trkpt>
      <trkpt lat="51.1657460" lon="7.2369520">
        <ele>274.1100000</ele>
        <time>2010-08-20T14:22:49Z</time>
      </trkpt>
      <trkpt lat="51.1657890" lon="7.2370510">
        <ele>274.1100000</ele>
        <time>2010-08-20T14:22:50Z</time>
      </trkpt>
      <trkpt lat="51.1658210" lon="7.2371670">
        <ele>273.6300000</ele>
        <time>2010-08-20T14:22:51Z</time>
      </trkpt>
      <trkpt lat="51.1658510" lon="7.2372880">
        <ele>273.1500000</ele>
        <time>2010-08-20T14:22:52Z</time>
      </trkpt>
      <trkpt lat="51.1658910" lon="7.2373850">
        <ele>272.1900000</ele>
        <time>2010-08-20T14:22:53Z</time>
      </trkpt>
      <trkpt lat="51.1659470" lon="7.2374630">
        <ele>272.1900000</ele>
        <time>2010-08-20T14:22:54Z</time>
      </trkpt>
      <trkpt lat="51.1660100" lon="7.2375280">
        <ele>271.7100000</ele>
        <time>2010-08-20T14:22:55Z</time>
      </trkpt>
      <trkpt lat="51.1660770" lon="7.2375820">
        <ele>271.2300000</ele>
        <time>2010-08-20T14:22:56Z</time>
      </trkpt>
      <trkpt lat="51.1661520" lon="7.2375540">
        <ele>272.6700000</ele>
        <time>2010-08-20T14:22:57Z</time>
      </trkpt>
      <trkpt lat="51.1662490" lon="7.2375310">
        <ele>273.1500000</ele>
        <time>2010-08-20T14:22:58Z</time>
      </trkpt>
      <trkpt lat="51.1663490" lon="7.2375070">
        <ele>272.1900000</ele>
        <time>2010-08-20T14:22:59Z</time>
      </trkpt>
      <trkpt lat="51.1664460" lon="7.2374650">
        <ele>271.2300000</ele>
        <time>2010-08-20T14:23:00Z</time>
      </trkpt>
      <trkpt lat="51.1665360" lon="7.2374130">
        <ele>269.7900000</ele>
        <time>2010-08-20T14:23:01Z</time>
      </trkpt>
      <trkpt lat="51.1666220" lon="7.2373540">
        <ele>268.8300000</ele>
        <time>2010-08-20T14:23:02Z</time>
      </trkpt>
      <trkpt lat="51.1669740" lon="7.2370720">
        <ele>263.5400000</ele>
        <time>2010-08-20T14:23:07Z</time>
      </trkpt>
      <trkpt lat="51.1669940" lon="7.2370110">
        <ele>263.5400000</ele>
        <time>2010-08-20T14:23:08Z</time>
      </trkpt>
      <trkpt lat="51.1669830" lon="7.2369380">
        <ele>262.5800000</ele>
        <time>2010-08-20T14:23:09Z</time>
      </trkpt>
      <trkpt lat="51.1669660" lon="7.2368470">
        <ele>262.1000000</ele>
        <time>2010-08-20T14:23:10Z</time>
      </trkpt>
      <trkpt lat="51.1669370" lon="7.2367050">
        <ele>261.6200000</ele>
        <time>2010-08-20T14:23:11Z</time>
      </trkpt>
      <trkpt lat="51.1669200" lon="7.2365420">
        <ele>260.6500000</ele>
        <time>2010-08-20T14:23:12Z</time>
      </trkpt>
      <trkpt lat="51.1668940" lon="7.2363760">
        <ele>259.6900000</ele>
        <time>2010-08-20T14:23:13Z</time>
      </trkpt>
      <trkpt lat="51.1668570" lon="7.2362240">
        <ele>257.7700000</ele>
        <time>2010-08-20T14:23:14Z</time>
      </trkpt>
      <trkpt lat="51.1667920" lon="7.2360950">
        <ele>256.8100000</ele>
        <time>2010-08-20T14:23:15Z</time>
      </trkpt>
      <trkpt lat="51.1667020" lon="7.2359830">
        <ele>255.8500000</ele>
        <time>2010-08-20T14:23:16Z</time>
      </trkpt>
      <trkpt lat="51.1666200" lon="7.2358680">
        <ele>254.4100000</ele>
        <time>2010-08-20T14:23:17Z</time>
      </trkpt>
      <trkpt lat="51.1665580" lon="7.2357390">
        <ele>253.4400000</ele>
        <time>2010-08-20T14:23:18Z</time>
      </trkpt>
      <trkpt lat="51.1665340" lon="7.2355960">
        <ele>252.9600000</ele>
        <time>2010-08-20T14:23:19Z</time>
      </trkpt>
      <trkpt lat="51.1665400" lon="7.2354480">
        <ele>252.4800000</ele>
        <time>2010-08-20T14:23:20Z</time>
      </trkpt>
      <trkpt lat="51.1665430" lon="7.2353030">
        <ele>251.0400000</ele>
        <time>2010-08-20T14:23:21Z</time>
      </trkpt>
      <trkpt lat="51.1667700" lon="7.2342290">
        <ele>246.7200000</ele>
        <time>2010-08-20T14:23:28Z</time>
      </trkpt>
      <trkpt lat="51.1667570" lon="7.2338830">
        <ele>247.6800000</ele>
        <time>2010-08-20T14:23:31Z</time>
      </trkpt>
      <trkpt lat="51.1667870" lon="7.2336920">
        <ele>250.5600000</ele>
        <time>2010-08-20T14:23:33Z</time>
      </trkpt>
      <trkpt lat="51.1668730" lon="7.2336420">
        <ele>251.5200000</ele>
        <time>2010-08-20T14:23:34Z</time>
      </trkpt>
      <trkpt lat="51.1670240" lon="7.2336380">
        <ele>251.0400000</ele>
        <time>2010-08-20T14:23:35Z</time>
      </trkpt>
      <trkpt lat="51.1671660" lon="7.2336030">
        <ele>252.0000000</ele>
        <time>2010-08-20T14:23:36Z</time>
      </trkpt>
      <trkpt lat="51.1672830" lon="7.2335580">
        <ele>252.9600000</ele>
        <time>2010-08-20T14:23:37Z</time>
      </trkpt>
      <trkpt lat="51.1673640" lon="7.2335140">
        <ele>252.4800000</ele>
        <time>2010-08-20T14:23:38Z</time>
      </trkpt>
      <trkpt lat="51.1674390" lon="7.2333420">
        <ele>254.4100000</ele>
        <time>2010-08-20T14:23:42Z</time>
      </trkpt>
      <trkpt lat="51.1673780" lon="7.2333040">
        <ele>255.3700000</ele>
        <time>2010-08-20T14:23:43Z</time>
      </trkpt>
      <trkpt lat="51.1672450" lon="7.2332830">
        <ele>256.3300000</ele>
        <time>2010-08-20T14:23:44Z</time>
      </trkpt>
      <trkpt lat="51.1670880" lon="7.2332650">
        <ele>258.2500000</ele>
        <time>2010-08-20T14:23:45Z</time>
      </trkpt>
      <trkpt lat="51.1669440" lon="7.2332370">
        <ele>259.6900000</ele>
        <time>2010-08-20T14:23:46Z</time>
      </trkpt>
      <trkpt lat="51.1666580" lon="7.2331240">
        <ele>261.6200000</ele>
        <time>2010-08-20T14:23:49Z</time>
      </trkpt>
      <trkpt lat="51.1666240" lon="7.2330200">
        <ele>263.0600000</ele>
        <time>2010-08-20T14:23:50Z</time>
      </trkpt>
      <trkpt lat="51.1666150" lon="7.2328710">
        <ele>264.9800000</ele>
        <time>2010-08-20T14:23:51Z</time>
      </trkpt>
      <trkpt lat="51.1666450" lon="7.2327210">
        <ele>264.9800000</ele>
        <time>2010-08-20T14:23:52Z</time>
      </trkpt>
      <trkpt lat="51.1666920" lon="7.2326440">
        <ele>265.4600000</ele>
        <time>2010-08-20T14:23:53Z</time>
      </trkpt>
      <trkpt lat="51.1667750" lon="7.2326610">
        <ele>265.4600000</ele>
        <time>2010-08-20T14:23:54Z</time>
      </trkpt>
      <trkpt lat="51.1668650" lon="7.2326680">
        <ele>265.9400000</ele>
        <time>2010-08-20T14:23:55Z</time>
      </trkpt>
      <trkpt lat="51.1669960" lon="7.2327170">
        <ele>265.9400000</ele>
        <time>2010-08-20T14:23:56Z</time>
      </trkpt>
      <trkpt lat="51.1671640" lon="7.2327660">
        <ele>265.9400000</ele>
        <time>2010-08-20T14:23:57Z</time>
      </trkpt>
      <trkpt lat="51.1673040" lon="7.2328120">
        <ele>265.4600000</ele>
        <time>2010-08-20T14:23:58Z</time>
      </trkpt>
      <trkpt lat="51.1677070" lon="7.2329000">
        <ele>265.4600000</ele>
        <time>2010-08-20T14:24:01Z</time>
      </trkpt>
      <trkpt lat="51.1678280" lon="7.2328590">
        <ele>265.9400000</ele>
        <time>2010-08-20T14:24:02Z</time>
      </trkpt>
      <trkpt lat="51.1686230" lon="7.2323820">
        <ele>271.7100000</ele>
        <time>2010-08-20T14:24:09Z</time>
      </trkpt>
      <trkpt lat="51.1688080" lon="7.2321680">
        <ele>273.6300000</ele>
        <time>2010-08-20T14:24:11Z</time>
      </trkpt>
      <trkpt lat="51.1690470" lon="7.2318610">
        <ele>276.5200000</ele>
        <time>2010-08-20T14:24:14Z</time>
      </trkpt>
      <trkpt lat="51.1691220" lon="7.2317940">
        <ele>277.0000000</ele>
        <time>2010-08-20T14:24:15Z</time>
      </trkpt>
      <trkpt lat="51.1691970" lon="7.2317220">
        <ele>277.9600000</ele>
        <time>2010-08-20T14:24:16Z</time>
      </trkpt>
      <trkpt lat="51.1692660" lon="7.2316240">
        <ele>278.9200000</ele>
        <time>2010-08-20T14:24:17Z</time>
      </trkpt>
      <trkpt lat="51.1693270" lon="7.2314990">
        <ele>279.8800000</ele>
        <time>2010-08-20T14:24:18Z</time>
      </trkpt>
      <trkpt lat="51.1694000" lon="7.2313730">
        <ele>280.8400000</ele>
        <time>2010-08-20T14:24:19Z</time>
      </trkpt>
      <trkpt lat="51.1694850" lon="7.2312430">
        <ele>282.2800000</ele>
        <time>2010-08-20T14:24:20Z</time>
      </trkpt>
      <trkpt lat="51.1703590" lon="7.2299110">
        <ele>293.3400000</ele>
        <time>2010-08-20T14:24:29Z</time>
      </trkpt>
      <trkpt lat="51.1704660" lon="7.2295390">
        <ele>295.2600000</ele>
        <time>2010-08-20T14:24:31Z</time>
      </trkpt>
      <trkpt lat="51.1704860" lon="7.2293470">
        <ele>296.2200000</ele>
        <time>2010-08-20T14:24:32Z</time>
      </trkpt>
      <trkpt lat="51.1704960" lon="7.2291430">
        <ele>297.1800000</ele>
        <time>2010-08-20T14:24:33Z</time>
      </trkpt>
      <trkpt lat="51.1705290" lon="7.2289600">
        <ele>297.6700000</ele>
        <time>2010-08-20T14:24:34Z</time>
      </trkpt>
      <trkpt lat="51.1705750" lon="7.2287880">
        <ele>298.6300000</ele>
        <time>2010-08-20T14:24:35Z</time>
      </trkpt>
      <trkpt lat="51.1706310" lon="7.2286120">
        <ele>299.5900000</ele>
        <time>2010-08-20T14:24:36Z</time>
      </trkpt>
      <trkpt lat="51.1707130" lon="7.2284650">
        <ele>300.0700000</ele>
        <time>2010-08-20T14:24:37Z</time>
      </trkpt>
      <trkpt lat="51.1707780" lon="7.2283020">
        <ele>301.9900000</ele>
        <time>2010-08-20T14:24:38Z</time>
      </trkpt>
      <trkpt lat="51.1709710" lon="7.2278600">
        <ele>304.3900000</ele>
        <time>2010-08-20T14:24:41Z</time>
      </trkpt>
      <trkpt lat="51.1712580" lon="7.2272490">
        <ele>307.7600000</ele>
        <time>2010-08-20T14:24:45Z</time>
      </trkpt>
      <trkpt lat="51.1713680" lon="7.2270810">
        <ele>309.2000000</ele>
        <time>2010-08-20T14:24:46Z</time>
      </trkpt>
      <trkpt lat="51.1723560" lon="7.2256230">
        <ele>321.7000000</ele>
        <time>2010-08-20T14:24:56Z</time>
      </trkpt>
      <trkpt lat="51.1732590" lon="7.2241050">
        <ele>325.0600000</ele>
        <time>2010-08-20T14:25:06Z</time>
      </trkpt>
      <trkpt lat="51.1736970" lon="7.2224060">
        <ele>328.4300000</ele>
        <time>2010-08-20T14:25:15Z</time>
      </trkpt>
      <trkpt lat="51.1738870" lon="7.2208290">
        <ele>331.3100000</ele>
        <time>2010-08-20T14:25:24Z</time>
      </trkpt>
      <trkpt lat="51.1739050" lon="7.2196740">
        <ele>331.3100000</ele>
        <time>2010-08-20T14:25:33Z</time>
      </trkpt>
      <trkpt lat="51.1739520" lon="7.2190070">
        <ele>336.6000000</ele>
        <time>2010-08-20T14:25:39Z</time>
      </trkpt>
      <trkpt lat="51.1739670" lon="7.2188790">
        <ele>337.5600000</ele>
        <time>2010-08-20T14:25:40Z</time>
      </trkpt>
      <trkpt lat="51.1739930" lon="7.2186530">
        <ele>339.0000000</ele>
        <time>2010-08-20T14:25:42Z</time>
      </trkpt>
      <trkpt lat="51.1740580" lon="7.2175610">
        <ele>340.4400000</ele>
        <time>2010-08-20T14:25:50Z</time>
      </trkpt>
      <trkpt lat="51.1740520" lon="7.2174370">
        <ele>339.9600000</ele>
        <time>2010-08-20T14:25:51Z</time>
      </trkpt>
      <trkpt lat="51.1740370" lon="7.2173260">
        <ele>339.4800000</ele>
        <time>2010-08-20T14:25:52Z</time>
      </trkpt>
      <trkpt lat="51.1740230" lon="7.2172170">
        <ele>338.5200000</ele>
        <time>2010-08-20T14:25:53Z</time>
      </trkpt>
      <trkpt lat="51.1740080" lon="7.2171140">
        <ele>338.0400000</ele>
        <time>2010-08-20T14:25:54Z</time>
      </trkpt>
      <trkpt lat="51.1739250" lon="7.2169130">
        <ele>338.0400000</ele>
        <time>2010-08-20T14:25:56Z</time>
      </trkpt>
      <trkpt lat="51.1738720" lon="7.2166010">
        <ele>339.9600000</ele>
        <time>2010-08-20T14:26:05Z</time>
      </trkpt>
      <trkpt lat="51.1738960" lon="7.2163500">
        <ele>338.5200000</ele>
        <time>2010-08-20T14:26:23Z</time>
      </trkpt>
      <trkpt lat="51.1739240" lon="7.2162780">
        <ele>338.0400000</ele>
        <time>2010-08-20T14:26:24Z</time>
      </trkpt>
      <trkpt lat="51.1739670" lon="7.2162080">
        <ele>337.0800000</ele>
        <time>2010-08-20T14:26:25Z</time>
      </trkpt>
      <trkpt lat="51.1740230" lon="7.2161530">
        <ele>336.6000000</ele>
        <time>2010-08-20T14:26:26Z</time>
      </trkpt>
      <trkpt lat="51.1740830" lon="7.2161090">
        <ele>336.6000000</ele>
        <time>2010-08-20T14:26:27Z</time>
      </trkpt>
      <trkpt lat="51.1741380" lon="7.2160550">
        <ele>336.6000000</ele>
        <time>2010-08-20T14:26:28Z</time>
      </trkpt>
      <trkpt lat="51.1741970" lon="7.2159900">
        <ele>336.1200000</ele>
        <time>2010-08-20T14:26:29Z</time>
      </trkpt>
      <trkpt lat="51.1742570" lon="7.2159150">
        <ele>336.1200000</ele>
        <time>2010-08-20T14:26:30Z</time>
      </trkpt>
      <trkpt lat="51.1743100" lon="7.2158290">
        <ele>335.6400000</ele>
        <time>2010-08-20T14:26:31Z</time>
      </trkpt>
      <trkpt lat="51.1743540" lon="7.2157330">
        <ele>335.6400000</ele>
        <time>2010-08-20T14:26:32Z</time>
      </trkpt>
      <trkpt lat="51.1743780" lon="7.2156160">
        <ele>335.6400000</ele>
        <time>2010-08-20T14:26:33Z</time>
      </trkpt>
      <trkpt lat="51.1744000" lon="7.2154800">
        <ele>335.6400000</ele>
        <time>2010-08-20T14:26:34Z</time>
      </trkpt>
      <trkpt lat="51.1744040" lon="7.2153050">
        <ele>335.6400000</ele>
        <time>2010-08-20T14:26:35Z</time>
      </trkpt>
      <trkpt lat="51.1744960" lon="7.2148760">
        <ele>334.6800000</ele>
        <time>2010-08-20T14:26:38Z</time>
      </trkpt>
      <trkpt lat="51.1744680" lon="7.2147170">
        <ele>334.2000000</ele>
        <time>2010-08-20T14:26:39Z</time>
      </trkpt>
      <trkpt lat="51.1743860" lon="7.2142590">
        <ele>333.2300000</ele>
        <time>2010-08-20T14:26:42Z</time>
      </trkpt>
      <trkpt lat="51.1741190" lon="7.2129810">
        <ele>331.7900000</ele>
        <time>2010-08-20T14:26:52Z</time>
      </trkpt>
      <trkpt lat="51.1739130" lon="7.2114550">
        <ele>333.7100000</ele>
        <time>2010-08-20T14:27:01Z</time>
      </trkpt>
      <trkpt lat="51.1738020" lon="7.2098830">
        <ele>335.1600000</ele>
        <time>2010-08-20T14:27:12Z</time>
      </trkpt>
      <trkpt lat="51.1738060" lon="7.2093230">
        <ele>333.7100000</ele>
        <time>2010-08-20T14:27:20Z</time>
      </trkpt>
      <trkpt lat="51.1737950" lon="7.2093310">
        <ele>333.7100000</ele>
        <time>2010-08-20T14:27:36Z</time>
      </trkpt>
      <trkpt lat="51.1738070" lon="7.2091550">
        <ele>334.6800000</ele>
        <time>2010-08-20T14:27:53Z</time>
      </trkpt>
      <trkpt lat="51.1738190" lon="7.2090720">
        <ele>334.6800000</ele>
        <time>2010-08-20T14:27:54Z</time>
      </trkpt>
      <trkpt lat="51.1738380" lon="7.2089840">
        <ele>334.2000000</ele>
        <time>2010-08-20T14:27:55Z</time>
      </trkpt>
      <trkpt lat="51.1738660" lon="7.2088920">
        <ele>333.7100000</ele>
        <time>2010-08-20T14:27:56Z</time>
      </trkpt>
      <trkpt lat="51.1739000" lon="7.2087910">
        <ele>333.2300000</ele>
        <time>2010-08-20T14:27:57Z</time>
      </trkpt>
      <trkpt lat="51.1739460" lon="7.2086740">
        <ele>332.7500000</ele>
        <time>2010-08-20T14:27:58Z</time>
      </trkpt>
      <trkpt lat="51.1740080" lon="7.2085420">
        <ele>331.7900000</ele>
        <time>2010-08-20T14:27:59Z</time>
      </trkpt>
      <trkpt lat="51.1740490" lon="7.2083880">
        <ele>332.2700000</ele>
        <time>2010-08-20T14:28:00Z</time>
      </trkpt>
      <trkpt lat="51.1741090" lon="7.2082580">
        <ele>332.7500000</ele>
        <time>2010-08-20T14:28:01Z</time>
      </trkpt>
      <trkpt lat="51.1741870" lon="7.2081510">
        <ele>332.2700000</ele>
        <time>2010-08-20T14:28:02Z</time>
      </trkpt>
      <trkpt lat="51.1743070" lon="7.2080750">
        <ele>329.8700000</ele>
        <time>2010-08-20T14:28:03Z</time>
      </trkpt>
      <trkpt lat="51.1744220" lon="7.2079800">
        <ele>328.9100000</ele>
        <time>2010-08-20T14:28:04Z</time>
      </trkpt>
      <trkpt lat="51.1755660" lon="7.2069780">
        <ele>324.1000000</ele>
        <time>2010-08-20T14:28:14Z</time>
      </trkpt>
      <trkpt lat="51.1761890" lon="7.2062740">
        <ele>321.7000000</ele>
        <time>2010-08-20T14:28:22Z</time>
      </trkpt>
      <trkpt lat="51.1763250" lon="7.2060900">
        <ele>322.6600000</ele>
        <time>2010-08-20T14:28:29Z</time>
      </trkpt>
      <trkpt lat="51.1762860" lon="7.2061040">
        <ele>333.2300000</ele>
        <time>2010-08-20T14:29:07Z</time>
      </trkpt>
      <trkpt lat="51.1765390" lon="7.2058370">
        <ele>330.8300000</ele>
        <time>2010-08-20T14:29:15Z</time>
      </trkpt>
      <trkpt lat="51.1770950" lon="7.2053060">
        <ele>321.7000000</ele>
        <time>2010-08-20T14:29:23Z</time>
      </trkpt>
      <trkpt lat="51.1771830" lon="7.2051660">
        <ele>319.3000000</ele>
        <time>2010-08-20T14:29:26Z</time>
      </trkpt>
      <trkpt lat="51.1772150" lon="7.2051180">
        <ele>318.8100000</ele>
        <time>2010-08-20T14:29:27Z</time>
      </trkpt>
      <trkpt lat="51.1773060" lon="7.2050080">
        <ele>317.3700000</ele>
        <time>2010-08-20T14:29:29Z</time>
      </trkpt>
      <trkpt lat="51.1774580" lon="7.2047730">
        <ele>316.8900000</ele>
        <time>2010-08-20T14:29:32Z</time>
      </trkpt>
      <trkpt lat="51.1776620" lon="7.2046570">
        <ele>316.4100000</ele>
        <time>2010-08-20T14:29:35Z</time>
      </trkpt>
      <trkpt lat="51.1777730" lon="7.2046540">
        <ele>314.4900000</ele>
        <time>2010-08-20T14:29:36Z</time>
      </trkpt>
      <trkpt lat="51.1780700" lon="7.2044030">
        <ele>312.5700000</ele>
        <time>2010-08-20T14:29:40Z</time>
      </trkpt>
      <trkpt lat="51.1781560" lon="7.2042940">
        <ele>308.2400000</ele>
        <time>2010-08-20T14:29:41Z</time>
      </trkpt>
      <trkpt lat="51.1783270" lon="7.2040100">
        <ele>304.8800000</ele>
        <time>2010-08-20T14:29:43Z</time>
      </trkpt>
      <trkpt lat="51.1792090" lon="7.2030730">
        <ele>307.7600000</ele>
        <time>2010-08-20T14:29:52Z</time>
      </trkpt>
      <trkpt lat="51.1801960" lon="7.2022330">
        <ele>303.4300000</ele>
        <time>2010-08-20T14:30:00Z</time>
      </trkpt>
      <trkpt lat="51.1814280" lon="7.2012500">
        <ele>296.2200000</ele>
        <time>2010-08-20T14:30:08Z</time>
      </trkpt>
      <trkpt lat="51.1822620" lon="7.2008870">
        <ele>291.4200000</ele>
        <time>2010-08-20T14:30:15Z</time>
      </trkpt>
      <trkpt lat="51.1826060" lon="7.2008210">
        <ele>290.9400000</ele>
        <time>2010-08-20T14:30:19Z</time>
      </trkpt>
      <trkpt lat="51.1826960" lon="7.2008610">
        <ele>290.4600000</ele>
        <time>2010-08-20T14:30:20Z</time>
      </trkpt>
      <trkpt lat="51.1827870" lon="7.2008740">
        <ele>289.0100000</ele>
        <time>2010-08-20T14:30:21Z</time>
      </trkpt>
      <trkpt lat="51.1828720" lon="7.2008700">
        <ele>288.0500000</ele>
        <time>2010-08-20T14:30:22Z</time>
      </trkpt>
      <trkpt lat="51.1829540" lon="7.2008480">
        <ele>287.5700000</ele>
        <time>2010-08-20T14:30:23Z</time>
      </trkpt>
      <trkpt lat="51.1830270" lon="7.2007950">
        <ele>286.6100000</ele>
        <time>2010-08-20T14:30:24Z</time>
      </trkpt>
      <trkpt lat="51.1830990" lon="7.2007100">
        <ele>286.1300000</ele>
        <time>2010-08-20T14:30:25Z</time>
      </trkpt>
      <trkpt lat="51.1831600" lon="7.2005970">
        <ele>285.6500000</ele>
        <time>2010-08-20T14:30:26Z</time>
      </trkpt>
      <trkpt lat="51.1832320" lon="7.2004760">
        <ele>285.6500000</ele>
        <time>2010-08-20T14:30:27Z</time>
      </trkpt>
      <trkpt lat="51.1832930" lon="7.2003460">
        <ele>284.6900000</ele>
        <time>2010-08-20T14:30:28Z</time>
      </trkpt>
      <trkpt lat="51.1833330" lon="7.2002090">
        <ele>284.2100000</ele>
        <time>2010-08-20T14:30:29Z</time>
      </trkpt>
      <trkpt lat="51.1833520" lon="7.2000530">
        <ele>284.2100000</ele>
        <time>2010-08-20T14:30:30Z</time>
      </trkpt>
      <trkpt lat="51.1833840" lon="7.1999180">
        <ele>284.2100000</ele>
        <time>2010-08-20T14:30:31Z</time>
      </trkpt>
      <trkpt lat="51.1834290" lon="7.1997780">
        <ele>284.2100000</ele>
        <time>2010-08-20T14:30:32Z</time>
      </trkpt>
      <trkpt lat="51.1835120" lon="7.1996440">
        <ele>284.6900000</ele>
        <time>2010-08-20T14:30:33Z</time>
      </trkpt>
      <trkpt lat="51.1836080" lon="7.1995230">
        <ele>283.7300000</ele>
        <time>2010-08-20T14:30:34Z</time>
      </trkpt>
      <trkpt lat="51.1836430" lon="7.1993600">
        <ele>284.6900000</ele>
        <time>2010-08-20T14:30:35Z</time>
      </trkpt>
      <trkpt lat="51.1837380" lon="7.1992700">
        <ele>284.6900000</ele>
        <time>2010-08-20T14:30:36Z</time>
      </trkpt>
      <trkpt lat="51.1838020" lon="7.1991780">
        <ele>283.2500000</ele>
        <time>2010-08-20T14:30:37Z</time>
      </trkpt>
      <trkpt lat="51.1845510" lon="7.1981620">
        <ele>277.4800000</ele>
        <time>2010-08-20T14:30:46Z</time>
      </trkpt>
      <trkpt lat="51.1850250" lon="7.1973700">
        <ele>275.0700000</ele>
        <time>2010-08-20T14:30:51Z</time>
      </trkpt>
      <trkpt lat="51.1851380" lon="7.1972570">
        <ele>274.5900000</ele>
        <time>2010-08-20T14:30:52Z</time>
      </trkpt>
      <trkpt lat="51.1852640" lon="7.1971940">
        <ele>272.6700000</ele>
        <time>2010-08-20T14:30:53Z</time>
      </trkpt>
      <trkpt lat="51.1854440" lon="7.1972150">
        <ele>272.1900000</ele>
        <time>2010-08-20T14:30:54Z</time>
      </trkpt>
      <trkpt lat="51.1855980" lon="7.1972590">
        <ele>270.7500000</ele>
        <time>2010-08-20T14:30:55Z</time>
      </trkpt>
      <trkpt lat="51.1857480" lon="7.1973100">
        <ele>269.7900000</ele>
        <time>2010-08-20T14:30:56Z</time>
      </trkpt>
      <trkpt lat="51.1870260" lon="7.1976370">
        <ele>257.7700000</ele>
        <time>2010-08-20T14:31:04Z</time>
      </trkpt>
      <trkpt lat="51.1875040" lon="7.1975890">
        <ele>252.4800000</ele>
        <time>2010-08-20T14:31:07Z</time>
      </trkpt>
      <trkpt lat="51.1876560" lon="7.1975120">
        <ele>251.0400000</ele>
        <time>2010-08-20T14:31:08Z</time>
      </trkpt>
      <trkpt lat="51.1881120" lon="7.1973680">
        <ele>249.1200000</ele>
        <time>2010-08-20T14:31:11Z</time>
      </trkpt>
      <trkpt lat="51.1892040" lon="7.1975520">
        <ele>243.8300000</ele>
        <time>2010-08-20T14:31:19Z</time>
      </trkpt>
      <trkpt lat="51.1900190" lon="7.1979300">
        <ele>240.9500000</ele>
        <time>2010-08-20T14:31:25Z</time>
      </trkpt>
      <trkpt lat="51.1907860" lon="7.1983330">
        <ele>232.7800000</ele>
        <time>2010-08-20T14:31:32Z</time>
      </trkpt>
      <trkpt lat="51.1908970" lon="7.1983270">
        <ele>231.8100000</ele>
        <time>2010-08-20T14:31:33Z</time>
      </trkpt>
      <trkpt lat="51.1910210" lon="7.1983070">
        <ele>230.8500000</ele>
        <time>2010-08-20T14:31:34Z</time>
      </trkpt>
      <trkpt lat="51.1911420" lon="7.1982820">
        <ele>230.8500000</ele>
        <time>2010-08-20T14:31:35Z</time>
      </trkpt>
      <trkpt lat="51.1912540" lon="7.1982500">
        <ele>230.3700000</ele>
        <time>2010-08-20T14:31:36Z</time>
      </trkpt>
      <trkpt lat="51.1922130" lon="7.1977970">
        <ele>228.4500000</ele>
        <time>2010-08-20T14:31:44Z</time>
      </trkpt>
      <trkpt lat="51.1931760" lon="7.1976150">
        <ele>223.1600000</ele>
        <time>2010-08-20T14:31:52Z</time>
      </trkpt>
      <trkpt lat="51.1942070" lon="7.1979080">
        <ele>214.5100000</ele>
        <time>2010-08-20T14:32:01Z</time>
      </trkpt>
      <trkpt lat="51.1944620" lon="7.1980290">
        <ele>212.1100000</ele>
        <time>2010-08-20T14:32:04Z</time>
      </trkpt>
      <trkpt lat="51.1945530" lon="7.1980180">
        <ele>211.6300000</ele>
        <time>2010-08-20T14:32:05Z</time>
      </trkpt>
      <trkpt lat="51.1946490" lon="7.1979620">
        <ele>211.6300000</ele>
        <time>2010-08-20T14:32:06Z</time>
      </trkpt>
      <trkpt lat="51.1947510" lon="7.1979070">
        <ele>211.6300000</ele>
        <time>2010-08-20T14:32:07Z</time>
      </trkpt>
      <trkpt lat="51.1948330" lon="7.1978010">
        <ele>210.1900000</ele>
        <time>2010-08-20T14:32:08Z</time>
      </trkpt>
      <trkpt lat="51.1949130" lon="7.1976800">
        <ele>210.1900000</ele>
        <time>2010-08-20T14:32:09Z</time>
      </trkpt>
      <trkpt lat="51.1949760" lon="7.1975360">
        <ele>209.7000000</ele>
        <time>2010-08-20T14:32:10Z</time>
      </trkpt>
      <trkpt lat="51.1950110" lon="7.1973830">
        <ele>208.7400000</ele>
        <time>2010-08-20T14:32:11Z</time>
      </trkpt>
      <trkpt lat="51.1950490" lon="7.1972220">
        <ele>208.7400000</ele>
        <time>2010-08-20T14:32:12Z</time>
      </trkpt>
      <trkpt lat="51.1950800" lon="7.1970640">
        <ele>208.7400000</ele>
        <time>2010-08-20T14:32:13Z</time>
      </trkpt>
      <trkpt lat="51.1951090" lon="7.1969050">
        <ele>208.2600000</ele>
        <time>2010-08-20T14:32:14Z</time>
      </trkpt>
      <trkpt lat="51.1952050" lon="7.1963060">
        <ele>206.3400000</ele>
        <time>2010-08-20T14:32:18Z</time>
      </trkpt>
      <trkpt lat="51.1952420" lon="7.1962000">
        <ele>206.3400000</ele>
        <time>2010-08-20T14:32:19Z</time>
      </trkpt>
      <trkpt lat="51.1952990" lon="7.1961410">
        <ele>206.3400000</ele>
        <time>2010-08-20T14:32:20Z</time>
      </trkpt>
      <trkpt lat="51.1953930" lon="7.1961040">
        <ele>205.3800000</ele>
        <time>2010-08-20T14:32:21Z</time>
      </trkpt>
      <trkpt lat="51.1954940" lon="7.1960480">
        <ele>205.8600000</ele>
        <time>2010-08-20T14:32:22Z</time>
      </trkpt>
      <trkpt lat="51.1955960" lon="7.1960060">
        <ele>206.3400000</ele>
        <time>2010-08-20T14:32:23Z</time>
      </trkpt>
      <trkpt lat="51.1956860" lon="7.1959450">
        <ele>206.8200000</ele>
        <time>2010-08-20T14:32:24Z</time>
      </trkpt>
      <trkpt lat="51.1957690" lon="7.1958420">
        <ele>206.8200000</ele>
        <time>2010-08-20T14:32:25Z</time>
      </trkpt>
      <trkpt lat="51.1958400" lon="7.1957040">
        <ele>207.3000000</ele>
        <time>2010-08-20T14:32:26Z</time>
      </trkpt>
      <trkpt lat="51.1958990" lon="7.1955580">
        <ele>208.7400000</ele>
        <time>2010-08-20T14:32:27Z</time>
      </trkpt>
      <trkpt lat="51.1959660" lon="7.1954300">
        <ele>209.2200000</ele>
        <time>2010-08-20T14:32:28Z</time>
      </trkpt>
      <trkpt lat="51.1960500" lon="7.1953210">
        <ele>209.7000000</ele>
        <time>2010-08-20T14:32:29Z</time>
      </trkpt>
      <trkpt lat="51.1961260" lon="7.1952330">
        <ele>210.6700000</ele>
        <time>2010-08-20T14:32:30Z</time>
      </trkpt>
      <trkpt lat="51.1962060" lon="7.1951770">
        <ele>212.1100000</ele>
        <time>2010-08-20T14:32:31Z</time>
      </trkpt>
      <trkpt lat="51.1963000" lon="7.1951400">
        <ele>212.5900000</ele>
        <time>2010-08-20T14:32:32Z</time>
      </trkpt>
      <trkpt lat="51.1963960" lon="7.1951070">
        <ele>213.5500000</ele>
        <time>2010-08-20T14:32:33Z</time>
      </trkpt>
      <trkpt lat="51.1970890" lon="7.1949810">
        <ele>217.4000000</ele>
        <time>2010-08-20T14:32:40Z</time>
      </trkpt>
      <trkpt lat="51.1971660" lon="7.1950060">
        <ele>217.4000000</ele>
        <time>2010-08-20T14:32:41Z</time>
      </trkpt>
      <trkpt lat="51.1972290" lon="7.1950360">
        <ele>217.4000000</ele>
        <time>2010-08-20T14:32:42Z</time>
      </trkpt>
      <trkpt lat="51.1972690" lon="7.1950660">
        <ele>217.4000000</ele>
        <time>2010-08-20T14:32:43Z</time>
      </trkpt>
      <trkpt lat="51.1973090" lon="7.1950970">
        <ele>217.8800000</ele>
        <time>2010-08-20T14:32:44Z</time>
      </trkpt>
      <trkpt lat="51.1973860" lon="7.1951100">
        <ele>219.3200000</ele>
        <time>2010-08-20T14:32:46Z</time>
      </trkpt>
      <trkpt lat="51.1974150" lon="7.1950750">
        <ele>219.8000000</ele>
        <time>2010-08-20T14:32:47Z</time>
      </trkpt>
      <trkpt lat="51.1974200" lon="7.1950270">
        <ele>219.3200000</ele>
        <time>2010-08-20T14:32:48Z</time>
      </trkpt>
      <trkpt lat="51.1973970" lon="7.1949920">
        <ele>218.3600000</ele>
        <time>2010-08-20T14:32:49Z</time>
      </trkpt>
      <trkpt lat="51.1973360" lon="7.1949710">
        <ele>216.4300000</ele>
        <time>2010-08-20T14:32:50Z</time>
      </trkpt>
      <trkpt lat="51.1972360" lon="7.1949590">
        <ele>214.5100000</ele>
        <time>2010-08-20T14:32:51Z</time>
      </trkpt>
      <trkpt lat="51.1971050" lon="7.1949500">
        <ele>213.0700000</ele>
        <time>2010-08-20T14:32:52Z</time>
      </trkpt>
      <trkpt lat="51.1969370" lon="7.1949890">
        <ele>211.6300000</ele>
        <time>2010-08-20T14:32:53Z</time>
      </trkpt>
      <trkpt lat="51.1967520" lon="7.1950630">
        <ele>211.1500000</ele>
        <time>2010-08-20T14:32:54Z</time>
      </trkpt>
      <trkpt lat="51.1960140" lon="7.1953380">
        <ele>208.2600000</ele>
        <time>2010-08-20T14:32:59Z</time>
      </trkpt>
      <trkpt lat="51.1957450" lon="7.1955590">
        <ele>209.2200000</ele>
        <time>2010-08-20T14:33:01Z</time>
      </trkpt>
      <trkpt lat="51.1953720" lon="7.1960190">
        <ele>210.1900000</ele>
        <time>2010-08-20T14:33:05Z</time>
      </trkpt>
      <trkpt lat="51.1952800" lon="7.1960520">
        <ele>211.1500000</ele>
        <time>2010-08-20T14:33:06Z</time>
      </trkpt>
      <trkpt lat="51.1951960" lon="7.1960520">
        <ele>211.6300000</ele>
        <time>2010-08-20T14:33:07Z</time>
      </trkpt>
      <trkpt lat="51.1951340" lon="7.1960360">
        <ele>210.6700000</ele>
        <time>2010-08-20T14:33:08Z</time>
      </trkpt>
      <trkpt lat="51.1950840" lon="7.1960090">
        <ele>209.7000000</ele>
        <time>2010-08-20T14:33:09Z</time>
      </trkpt>
      <trkpt lat="51.1950750" lon="7.1959610">
        <ele>209.2200000</ele>
        <time>2010-08-20T14:33:10Z</time>
      </trkpt>
      <trkpt lat="51.1950670" lon="7.1959020">
        <ele>209.2200000</ele>
        <time>2010-08-20T14:33:11Z</time>
      </trkpt>
      <trkpt lat="51.1950890" lon="7.1957910">
        <ele>209.2200000</ele>
        <time>2010-08-20T14:33:12Z</time>
      </trkpt>
      <trkpt lat="51.1950840" lon="7.1955990">
        <ele>208.2600000</ele>
        <time>2010-08-20T14:33:13Z</time>
      </trkpt>
      <trkpt lat="51.1950660" lon="7.1953490">
        <ele>208.2600000</ele>
        <time>2010-08-20T14:33:14Z</time>
      </trkpt>
      <trkpt lat="51.1950480" lon="7.1950990">
        <ele>208.2600000</ele>
        <time>2010-08-20T14:33:15Z</time>
      </trkpt>
      <trkpt lat="51.1950370" lon="7.1940710">
        <ele>207.7800000</ele>
        <time>2010-08-20T14:33:20Z</time>
      </trkpt>
      <trkpt lat="51.1950790" lon="7.1937740">
        <ele>207.3000000</ele>
        <time>2010-08-20T14:33:22Z</time>
      </trkpt>
      <trkpt lat="51.1951660" lon="7.1936860">
        <ele>206.8200000</ele>
        <time>2010-08-20T14:33:23Z</time>
      </trkpt>
      <trkpt lat="51.1952960" lon="7.1936060">
        <ele>207.3000000</ele>
        <time>2010-08-20T14:33:24Z</time>
      </trkpt>
      <trkpt lat="51.1954100" lon="7.1935220">
        <ele>206.8200000</ele>
        <time>2010-08-20T14:33:25Z</time>
      </trkpt>
      <trkpt lat="51.1955230" lon="7.1934370">
        <ele>206.8200000</ele>
        <time>2010-08-20T14:33:26Z</time>
      </trkpt>
      <trkpt lat="51.1956340" lon="7.1933290">
        <ele>206.8200000</ele>
        <time>2010-08-20T14:33:27Z</time>
      </trkpt>
      <trkpt lat="51.1968760" lon="7.1924290">
        <ele>207.3000000</ele>
        <time>2010-08-20T14:33:37Z</time>
      </trkpt>
      <trkpt lat="51.1972700" lon="7.1920610">
        <ele>212.1100000</ele>
        <time>2010-08-20T14:33:42Z</time>
      </trkpt>
      <trkpt lat="51.1972870" lon="7.1920340">
        <ele>213.0700000</ele>
        <time>2010-08-20T14:33:43Z</time>
      </trkpt>
      <trkpt lat="51.1972700" lon="7.1920140">
        <ele>213.0700000</ele>
        <time>2010-08-20T14:33:44Z</time>
      </trkpt>
      <trkpt lat="51.1972070" lon="7.1920640">
        <ele>216.4300000</ele>
        <time>2010-08-20T14:33:55Z</time>
      </trkpt>
      <trkpt lat="51.1972630" lon="7.1920610">
        <ele>216.4300000</ele>
        <time>2010-08-20T14:33:57Z</time>
      </trkpt>
      <trkpt lat="51.1973530" lon="7.1920960">
        <ele>215.9500000</ele>
        <time>2010-08-20T14:33:58Z</time>
      </trkpt>
      <trkpt lat="51.1974560" lon="7.1921680">
        <ele>215.9500000</ele>
        <time>2010-08-20T14:33:59Z</time>
      </trkpt>
      <trkpt lat="51.1975470" lon="7.1922570">
        <ele>215.4700000</ele>
        <time>2010-08-20T14:34:00Z</time>
      </trkpt>
      <trkpt lat="51.1976450" lon="7.1923200">
        <ele>214.5100000</ele>
        <time>2010-08-20T14:34:01Z</time>
      </trkpt>
      <trkpt lat="51.1977630" lon="7.1924030">
        <ele>214.0300000</ele>
        <time>2010-08-20T14:34:02Z</time>
      </trkpt>
      <trkpt lat="51.1978870" lon="7.1924830">
        <ele>213.5500000</ele>
        <time>2010-08-20T14:34:03Z</time>
      </trkpt>
      <trkpt lat="51.1985540" lon="7.1931720">
        <ele>208.7400000</ele>
        <time>2010-08-20T14:34:10Z</time>
      </trkpt>
      <trkpt lat="51.1986190" lon="7.1932980">
        <ele>207.7800000</ele>
        <time>2010-08-20T14:34:11Z</time>
      </trkpt>
      <trkpt lat="51.1990080" lon="7.1944420">
        <ele>202.4900000</ele>
        <time>2010-08-20T14:34:21Z</time>
      </trkpt>
      <trkpt lat="51.1990670" lon="7.1948280">
        <ele>202.0100000</ele>
        <time>2010-08-20T14:34:30Z</time>
      </trkpt>
      <trkpt lat="51.1990740" lon="7.1948520">
        <ele>199.6100000</ele>
        <time>2010-08-20T14:36:14Z</time>
      </trkpt>
      <trkpt lat="51.1990880" lon="7.1949250">
        <ele>199.6100000</ele>
        <time>2010-08-20T14:36:15Z</time>
      </trkpt>
      <trkpt lat="51.1991550" lon="7.1951840">
        <ele>201.5300000</ele>
        <time>2010-08-20T14:36:18Z</time>
      </trkpt>
      <trkpt lat="51.1991930" lon="7.1952100">
        <ele>202.0100000</ele>
        <time>2010-08-20T14:36:19Z</time>
      </trkpt>
      <trkpt lat="51.1991890" lon="7.1951550">
        <ele>202.4900000</ele>
        <time>2010-08-20T14:36:20Z</time>
      </trkpt>
      <trkpt lat="51.1992340" lon="7.1950910">
        <ele>202.4900000</ele>
        <time>2010-08-20T14:36:21Z</time>
      </trkpt>
      <trkpt lat="51.1992780" lon="7.1949820">
        <ele>202.0100000</ele>
        <time>2010-08-20T14:36:22Z</time>
      </trkpt>
      <trkpt lat="51.1993240" lon="7.1948520">
        <ele>201.5300000</ele>
        <time>2010-08-20T14:36:23Z</time>
      </trkpt>
      <trkpt lat="51.1993810" lon="7.1946920">
        <ele>200.5700000</ele>
        <time>2010-08-20T14:36:24Z</time>
      </trkpt>
      <trkpt lat="51.1995360" lon="7.1943900">
        <ele>199.6100000</ele>
        <time>2010-08-20T14:36:26Z</time>
      </trkpt>
      <trkpt lat="51.2002400" lon="7.1932630">
        <ele>199.1300000</ele>
        <time>2010-08-20T14:36:34Z</time>
      </trkpt>
      <trkpt lat="51.2003010" lon="7.1930880">
        <ele>199.1300000</ele>
        <time>2010-08-20T14:36:35Z</time>
      </trkpt>
      <trkpt lat="51.2003460" lon="7.1928930">
        <ele>199.1300000</ele>
        <time>2010-08-20T14:36:36Z</time>
      </trkpt>
      <trkpt lat="51.2003840" lon="7.1926970">
        <ele>199.1300000</ele>
        <time>2010-08-20T14:36:37Z</time>
      </trkpt>
      <trkpt lat="51.2004150" lon="7.1925040">
        <ele>198.6500000</ele>
        <time>2010-08-20T14:36:38Z</time>
      </trkpt>
      <trkpt lat="51.2004380" lon="7.1923060">
        <ele>198.1700000</ele>
        <time>2010-08-20T14:36:39Z</time>
      </trkpt>
      <trkpt lat="51.2003890" lon="7.1914060">
        <ele>194.8000000</ele>
        <time>2010-08-20T14:36:44Z</time>
      </trkpt>
      <trkpt lat="51.2002890" lon="7.1912430">
        <ele>194.3200000</ele>
        <time>2010-08-20T14:36:45Z</time>
      </trkpt>
      <trkpt lat="51.2001880" lon="7.1910780">
        <ele>193.8400000</ele>
        <time>2010-08-20T14:36:46Z</time>
      </trkpt>
      <trkpt lat="51.2000960" lon="7.1909350">
        <ele>194.3200000</ele>
        <time>2010-08-20T14:36:47Z</time>
      </trkpt>
      <trkpt lat="51.1999870" lon="7.1907920">
        <ele>196.2500000</ele>
        <time>2010-08-20T14:36:48Z</time>
      </trkpt>
      <trkpt lat="51.1991000" lon="7.1891520">
        <ele>193.3600000</ele>
        <time>2010-08-20T14:36:59Z</time>
      </trkpt>
      <trkpt lat="51.1988270" lon="7.1881320">
        <ele>191.9200000</ele>
        <time>2010-08-20T14:37:04Z</time>
      </trkpt>
      <trkpt lat="51.1988020" lon="7.1879100">
        <ele>191.9200000</ele>
        <time>2010-08-20T14:37:05Z</time>
      </trkpt>
      <trkpt lat="51.1988350" lon="7.1876970">
        <ele>192.4000000</ele>
        <time>2010-08-20T14:37:06Z</time>
      </trkpt>
      <trkpt lat="51.1988440" lon="7.1874830">
        <ele>192.4000000</ele>
        <time>2010-08-20T14:37:07Z</time>
      </trkpt>
      <trkpt lat="51.1988680" lon="7.1872740">
        <ele>191.9200000</ele>
        <time>2010-08-20T14:37:08Z</time>
      </trkpt>
      <trkpt lat="51.1988970" lon="7.1870710">
        <ele>190.9600000</ele>
        <time>2010-08-20T14:37:09Z</time>
      </trkpt>
      <trkpt lat="51.1989660" lon="7.1868690">
        <ele>190.0000000</ele>
        <time>2010-08-20T14:37:10Z</time>
      </trkpt>
      <trkpt lat="51.1990550" lon="7.1866940">
        <ele>189.0400000</ele>
        <time>2010-08-20T14:37:11Z</time>
      </trkpt>
      <trkpt lat="51.1991980" lon="7.1865290">
        <ele>189.5200000</ele>
        <time>2010-08-20T14:37:12Z</time>
      </trkpt>
      <trkpt lat="51.1993740" lon="7.1863800">
        <ele>189.5200000</ele>
        <time>2010-08-20T14:37:13Z</time>
      </trkpt>
      <trkpt lat="51.1995290" lon="7.1861900">
        <ele>190.0000000</ele>
        <time>2010-08-20T14:37:14Z</time>
      </trkpt>
      <trkpt lat="51.2006890" lon="7.1841310">
        <ele>192.8800000</ele>
        <time>2010-08-20T14:37:23Z</time>
      </trkpt>
      <trkpt lat="51.2009970" lon="7.1825380">
        <ele>190.0000000</ele>
        <time>2010-08-20T14:37:29Z</time>
      </trkpt>
      <trkpt lat="51.2009910" lon="7.1822870">
        <ele>189.5200000</ele>
        <time>2010-08-20T14:37:30Z</time>
      </trkpt>
      <trkpt lat="51.2009610" lon="7.1820330">
        <ele>189.5200000</ele>
        <time>2010-08-20T14:37:31Z</time>
      </trkpt>
      <trkpt lat="51.2009320" lon="7.1817750">
        <ele>189.5200000</ele>
        <time>2010-08-20T14:37:32Z</time>
      </trkpt>
      <trkpt lat="51.2009020" lon="7.1815160">
        <ele>189.0400000</ele>
        <time>2010-08-20T14:37:33Z</time>
      </trkpt>
      <trkpt lat="51.2006430" lon="7.1802850">
        <ele>186.1500000</ele>
        <time>2010-08-20T14:37:38Z</time>
      </trkpt>
      <trkpt lat="51.2005600" lon="7.1800800">
        <ele>185.6700000</ele>
        <time>2010-08-20T14:37:39Z</time>
      </trkpt>
      <trkpt lat="51.2004660" lon="7.1798990">
        <ele>186.1500000</ele>
        <time>2010-08-20T14:37:40Z</time>
      </trkpt>
      <trkpt lat="51.1999750" lon="7.1782590">
        <ele>183.7500000</ele>
        <time>2010-08-20T14:37:48Z</time>
      </trkpt>
      <trkpt lat="51.2000050" lon="7.1780820">
        <ele>184.2300000</ele>
        <time>2010-08-20T14:37:49Z</time>
      </trkpt>
      <trkpt lat="51.2000150" lon="7.1779130">
        <ele>184.2300000</ele>
        <time>2010-08-20T14:37:50Z</time>
      </trkpt>
      <trkpt lat="51.2000510" lon="7.1777610">
        <ele>183.7500000</ele>
        <time>2010-08-20T14:37:51Z</time>
      </trkpt>
      <trkpt lat="51.2000950" lon="7.1776180">
        <ele>183.2700000</ele>
        <time>2010-08-20T14:37:52Z</time>
      </trkpt>
      <trkpt lat="51.2001590" lon="7.1774790">
        <ele>183.7500000</ele>
        <time>2010-08-20T14:37:53Z</time>
      </trkpt>
      <trkpt lat="51.2002390" lon="7.1773390">
        <ele>182.3100000</ele>
        <time>2010-08-20T14:37:54Z</time>
      </trkpt>
      <trkpt lat="51.2003260" lon="7.1772020">
        <ele>181.3500000</ele>
        <time>2010-08-20T14:37:55Z</time>
      </trkpt>
      <trkpt lat="51.2004360" lon="7.1770850">
        <ele>180.3800000</ele>
        <time>2010-08-20T14:37:56Z</time>
      </trkpt>
      <trkpt lat="51.2005560" lon="7.1769770">
        <ele>179.4200000</ele>
        <time>2010-08-20T14:37:57Z</time>
      </trkpt>
      <trkpt lat="51.2006890" lon="7.1768780">
        <ele>178.9400000</ele>
        <time>2010-08-20T14:37:58Z</time>
      </trkpt>
      <trkpt lat="51.2008350" lon="7.1768300">
        <ele>178.9400000</ele>
        <time>2010-08-20T14:37:59Z</time>
      </trkpt>
      <trkpt lat="51.2009850" lon="7.1767830">
        <ele>179.4200000</ele>
        <time>2010-08-20T14:38:00Z</time>
      </trkpt>
      <trkpt lat="51.2026320" lon="7.1762960">
        <ele>177.9800000</ele>
        <time>2010-08-20T14:38:11Z</time>
      </trkpt>
      <trkpt lat="51.2030490" lon="7.1761710">
        <ele>177.9800000</ele>
        <time>2010-08-20T14:38:14Z</time>
      </trkpt>
      <trkpt lat="51.2031890" lon="7.1761710">
        <ele>177.9800000</ele>
        <time>2010-08-20T14:38:15Z</time>
      </trkpt>
      <trkpt lat="51.2033240" lon="7.1761950">
        <ele>177.9800000</ele>
        <time>2010-08-20T14:38:16Z</time>
      </trkpt>
      <trkpt lat="51.2045930" lon="7.1764100">
        <ele>181.8300000</ele>
        <time>2010-08-20T14:38:26Z</time>
      </trkpt>
      <trkpt lat="51.2047050" lon="7.1763680">
        <ele>183.7500000</ele>
        <time>2010-08-20T14:38:27Z</time>
      </trkpt>
      <trkpt lat="51.2056970" lon="7.1757130">
        <ele>188.0800000</ele>
        <time>2010-08-20T14:38:35Z</time>
      </trkpt>
      <trkpt lat="51.2057890" lon="7.1754980">
        <ele>188.5600000</ele>
        <time>2010-08-20T14:38:36Z</time>
      </trkpt>
      <trkpt lat="51.2058470" lon="7.1752860">
        <ele>188.0800000</ele>
        <time>2010-08-20T14:38:37Z</time>
      </trkpt>
      <trkpt lat="51.2058950" lon="7.1751360">
        <ele>186.1500000</ele>
        <time>2010-08-20T14:38:38Z</time>
      </trkpt>
      <trkpt lat="51.2059090" lon="7.1749670">
        <ele>185.6700000</ele>
        <time>2010-08-20T14:38:39Z</time>
      </trkpt>
      <trkpt lat="51.2059390" lon="7.1747790">
        <ele>184.7100000</ele>
        <time>2010-08-20T14:38:40Z</time>
      </trkpt>
      <trkpt lat="51.2059610" lon="7.1745910">
        <ele>183.7500000</ele>
        <time>2010-08-20T14:38:41Z</time>
      </trkpt>
      <trkpt lat="51.2059790" lon="7.1743910">
        <ele>183.2700000</ele>
        <time>2010-08-20T14:38:42Z</time>
      </trkpt>
      <trkpt lat="51.2059900" lon="7.1741820">
        <ele>181.8300000</ele>
        <time>2010-08-20T14:38:43Z</time>
      </trkpt>
      <trkpt lat="51.2059820" lon="7.1739680">
        <ele>180.3800000</ele>
        <time>2010-08-20T14:38:44Z</time>
      </trkpt>
      <trkpt lat="51.2059440" lon="7.1737580">
        <ele>180.8700000</ele>
        <time>2010-08-20T14:38:45Z</time>
      </trkpt>
      <trkpt lat="51.2058680" lon="7.1735560">
        <ele>182.3100000</ele>
        <time>2010-08-20T14:38:46Z</time>
      </trkpt>
      <trkpt lat="51.2057860" lon="7.1733680">
        <ele>182.3100000</ele>
        <time>2010-08-20T14:38:47Z</time>
      </trkpt>
      <trkpt lat="51.2057210" lon="7.1731980">
        <ele>181.8300000</ele>
        <time>2010-08-20T14:38:48Z</time>
      </trkpt>
      <trkpt lat="51.2056590" lon="7.1730510">
        <ele>180.3800000</ele>
        <time>2010-08-20T14:38:49Z</time>
      </trkpt>
      <trkpt lat="51.2055850" lon="7.1729250">
        <ele>179.4200000</ele>
        <time>2010-08-20T14:38:50Z</time>
      </trkpt>
      <trkpt lat="51.2055130" lon="7.1728080">
        <ele>177.9800000</ele>
        <time>2010-08-20T14:38:51Z</time>
      </trkpt>
      <trkpt lat="51.2054290" lon="7.1727090">
        <ele>177.0200000</ele>
        <time>2010-08-20T14:38:52Z</time>
      </trkpt>
      <trkpt lat="51.2053330" lon="7.1726250">
        <ele>176.0600000</ele>
        <time>2010-08-20T14:38:53Z</time>
      </trkpt>
      <trkpt lat="51.2052220" lon="7.1725500">
        <ele>174.6200000</ele>
        <time>2010-08-20T14:38:54Z</time>
      </trkpt>
      <trkpt lat="51.2050950" lon="7.1724800">
        <ele>173.6600000</ele>
        <time>2010-08-20T14:38:55Z</time>
      </trkpt>
      <trkpt lat="51.2049670" lon="7.1724090">
        <ele>173.1700000</ele>
        <time>2010-08-20T14:38:56Z</time>
      </trkpt>
      <trkpt lat="51.2042540" lon="7.1718220">
        <ele>171.2500000</ele>
        <time>2010-08-20T14:39:02Z</time>
      </trkpt>
      <trkpt lat="51.2041490" lon="7.1716800">
        <ele>170.7700000</ele>
        <time>2010-08-20T14:39:03Z</time>
      </trkpt>
      <trkpt lat="51.2040600" lon="7.1715260">
        <ele>170.2900000</ele>
        <time>2010-08-20T14:39:04Z</time>
      </trkpt>
      <trkpt lat="51.2039750" lon="7.1713490">
        <ele>169.8100000</ele>
        <time>2010-08-20T14:39:05Z</time>
      </trkpt>
      <trkpt lat="51.2038990" lon="7.1711580">
        <ele>169.3300000</ele>
        <time>2010-08-20T14:39:06Z</time>
      </trkpt>
      <trkpt lat="51.2038230" lon="7.1709550">
        <ele>169.3300000</ele>
        <time>2010-08-20T14:39:07Z</time>
      </trkpt>
      <trkpt lat="51.2037630" lon="7.1707450">
        <ele>168.8500000</ele>
        <time>2010-08-20T14:39:08Z</time>
      </trkpt>
      <trkpt lat="51.2030290" lon="7.1681640">
        <ele>166.9300000</ele>
        <time>2010-08-20T14:39:21Z</time>
      </trkpt>
      <trkpt lat="51.2027540" lon="7.1674680">
        <ele>166.4500000</ele>
        <time>2010-08-20T14:39:25Z</time>
      </trkpt>
      <trkpt lat="51.2021800" lon="7.1666190">
        <ele>163.5600000</ele>
        <time>2010-08-20T14:39:33Z</time>
      </trkpt>
      <trkpt lat="51.2020730" lon="7.1664510">
        <ele>162.6000000</ele>
        <time>2010-08-20T14:39:35Z</time>
      </trkpt>
      <trkpt lat="51.2020070" lon="7.1663270">
        <ele>162.6000000</ele>
        <time>2010-08-20T14:39:36Z</time>
      </trkpt>
      <trkpt lat="51.2016080" lon="7.1651630">
        <ele>162.6000000</ele>
        <time>2010-08-20T14:39:41Z</time>
      </trkpt>
      <trkpt lat="51.2015380" lon="7.1648560">
        <ele>162.1200000</ele>
        <time>2010-08-20T14:39:42Z</time>
      </trkpt>
      <trkpt lat="51.2011590" lon="7.1628620">
        <ele>163.5600000</ele>
        <time>2010-08-20T14:39:50Z</time>
      </trkpt>
      <trkpt lat="51.2007680" lon="7.1608950">
        <ele>166.4500000</ele>
        <time>2010-08-20T14:40:00Z</time>
      </trkpt>
      <trkpt lat="51.2006600" lon="7.1604370">
        <ele>167.4100000</ele>
        <time>2010-08-20T14:40:07Z</time>
      </trkpt>
      <trkpt lat="51.2004000" lon="7.1597210">
        <ele>167.8900000</ele>
        <time>2010-08-20T14:40:14Z</time>
      </trkpt>
      <trkpt lat="51.2002730" lon="7.1594630">
        <ele>168.3700000</ele>
        <time>2010-08-20T14:40:16Z</time>
      </trkpt>
      <trkpt lat="51.2001920" lon="7.1593590">
        <ele>167.8900000</ele>
        <time>2010-08-20T14:40:17Z</time>
      </trkpt>
      <trkpt lat="51.2000940" lon="7.1592620">
        <ele>167.4100000</ele>
        <time>2010-08-20T14:40:18Z</time>
      </trkpt>
      <trkpt lat="51.1999930" lon="7.1591890">
        <ele>167.4100000</ele>
        <time>2010-08-20T14:40:19Z</time>
      </trkpt>
      <trkpt lat="51.1998590" lon="7.1591180">
        <ele>166.9300000</ele>
        <time>2010-08-20T14:40:20Z</time>
      </trkpt>
      <trkpt lat="51.1994680" lon="7.1588810">
        <ele>165.0000000</ele>
        <time>2010-08-20T14:40:23Z</time>
      </trkpt>
      <trkpt lat="51.1993570" lon="7.1588420">
        <ele>165.0000000</ele>
        <time>2010-08-20T14:40:24Z</time>
      </trkpt>
      <trkpt lat="51.1992380" lon="7.1588260">
        <ele>164.5200000</ele>
        <time>2010-08-20T14:40:25Z</time>
      </trkpt>
      <trkpt lat="51.1980150" lon="7.1585140">
        <ele>161.1600000</ele>
        <time>2010-08-20T14:40:34Z</time>
      </trkpt>
      <trkpt lat="51.1966520" lon="7.1578220">
        <ele>159.7200000</ele>
        <time>2010-08-20T14:40:44Z</time>
      </trkpt>
      <trkpt lat="51.1953690" lon="7.1564870">
        <ele>157.3100000</ele>
        <time>2010-08-20T14:40:53Z</time>
      </trkpt>
      <trkpt lat="51.1935940" lon="7.1546590">
        <ele>158.2700000</ele>
        <time>2010-08-20T14:41:06Z</time>
      </trkpt>
      <trkpt lat="51.1931750" lon="7.1540580">
        <ele>155.3900000</ele>
        <time>2010-08-20T14:41:10Z</time>
      </trkpt>
      <trkpt lat="51.1930930" lon="7.1538680">
        <ele>154.4300000</ele>
        <time>2010-08-20T14:41:11Z</time>
      </trkpt>
      <trkpt lat="51.1930290" lon="7.1536700">
        <ele>153.9500000</ele>
        <time>2010-08-20T14:41:12Z</time>
      </trkpt>
      <trkpt lat="51.1928380" lon="7.1526670">
        <ele>151.0600000</ele>
        <time>2010-08-20T14:41:17Z</time>
      </trkpt>
      <trkpt lat="51.1928850" lon="7.1524490">
        <ele>150.5800000</ele>
        <time>2010-08-20T14:41:18Z</time>
      </trkpt>
      <trkpt lat="51.1929560" lon="7.1522290">
        <ele>150.1000000</ele>
        <time>2010-08-20T14:41:19Z</time>
      </trkpt>
      <trkpt lat="51.1930420" lon="7.1520230">
        <ele>150.5800000</ele>
        <time>2010-08-20T14:41:20Z</time>
      </trkpt>
      <trkpt lat="51.1931280" lon="7.1518360">
        <ele>149.6200000</ele>
        <time>2010-08-20T14:41:21Z</time>
      </trkpt>
      <trkpt lat="51.1932530" lon="7.1514450">
        <ele>150.5800000</ele>
        <time>2010-08-20T14:41:23Z</time>
      </trkpt>
      <trkpt lat="51.1933000" lon="7.1512520">
        <ele>150.5800000</ele>
        <time>2010-08-20T14:41:24Z</time>
      </trkpt>
      <trkpt lat="51.1933350" lon="7.1510540">
        <ele>150.5800000</ele>
        <time>2010-08-20T14:41:25Z</time>
      </trkpt>
      <trkpt lat="51.1933560" lon="7.1508460">
        <ele>150.5800000</ele>
        <time>2010-08-20T14:41:26Z</time>
      </trkpt>
      <trkpt lat="51.1933680" lon="7.1506380">
        <ele>150.1000000</ele>
        <time>2010-08-20T14:41:27Z</time>
      </trkpt>
      <trkpt lat="51.1933730" lon="7.1504310">
        <ele>149.6200000</ele>
        <time>2010-08-20T14:41:28Z</time>
      </trkpt>
      <trkpt lat="51.1933510" lon="7.1502230">
        <ele>149.6200000</ele>
        <time>2010-08-20T14:41:29Z</time>
      </trkpt>
      <trkpt lat="51.1933300" lon="7.1500260">
        <ele>149.6200000</ele>
        <time>2010-08-20T14:41:30Z</time>
      </trkpt>
      <trkpt lat="51.1932980" lon="7.1498430">
        <ele>150.1000000</ele>
        <time>2010-08-20T14:41:31Z</time>
      </trkpt>
      <trkpt lat="51.1932680" lon="7.1496770">
        <ele>151.0600000</ele>
        <time>2010-08-20T14:41:32Z</time>
      </trkpt>
      <trkpt lat="51.1932080" lon="7.1494050">
        <ele>152.0300000</ele>
        <time>2010-08-20T14:41:34Z</time>
      </trkpt>
      <trkpt lat="51.1931220" lon="7.1492780">
        <ele>152.0300000</ele>
        <time>2010-08-20T14:41:35Z</time>
      </trkpt>
      <trkpt lat="51.1929510" lon="7.1491710">
        <ele>151.5400000</ele>
        <time>2010-08-20T14:41:36Z</time>
      </trkpt>
      <trkpt lat="51.1928070" lon="7.1490810">
        <ele>149.6200000</ele>
        <time>2010-08-20T14:41:37Z</time>
      </trkpt>
      <trkpt lat="51.1926600" lon="7.1489820">
        <ele>147.7000000</ele>
        <time>2010-08-20T14:41:38Z</time>
      </trkpt>
      <trkpt lat="51.1925280" lon="7.1488870">
        <ele>144.3400000</ele>
        <time>2010-08-20T14:41:39Z</time>
      </trkpt>
      <trkpt lat="51.1923920" lon="7.1488040">
        <ele>141.9300000</ele>
        <time>2010-08-20T14:41:40Z</time>
      </trkpt>
      <trkpt lat="51.1922610" lon="7.1487290">
        <ele>139.0500000</ele>
        <time>2010-08-20T14:41:41Z</time>
      </trkpt>
      <trkpt lat="51.1920380" lon="7.1485510">
        <ele>131.3600000</ele>
        <time>2010-08-20T14:41:43Z</time>
      </trkpt>
      <trkpt lat="51.1919310" lon="7.1484300">
        <ele>129.4300000</ele>
        <time>2010-08-20T14:41:44Z</time>
      </trkpt>
      <trkpt lat="51.1918350" lon="7.1482910">
        <ele>127.0300000</ele>
        <time>2010-08-20T14:41:45Z</time>
      </trkpt>
      <trkpt lat="51.1917460" lon="7.1481280">
        <ele>125.5900000</ele>
        <time>2010-08-20T14:41:46Z</time>
      </trkpt>
      <trkpt lat="51.1916570" lon="7.1479570">
        <ele>125.5900000</ele>
        <time>2010-08-20T14:41:47Z</time>
      </trkpt>
      <trkpt lat="51.1915660" lon="7.1477820">
        <ele>127.9900000</ele>
        <time>2010-08-20T14:41:48Z</time>
      </trkpt>
      <trkpt lat="51.1914860" lon="7.1475900">
        <ele>128.9500000</ele>
        <time>2010-08-20T14:41:49Z</time>
      </trkpt>
      <trkpt lat="51.1914230" lon="7.1473880">
        <ele>129.4300000</ele>
        <time>2010-08-20T14:41:50Z</time>
      </trkpt>
      <trkpt lat="51.1913800" lon="7.1471830">
        <ele>130.8800000</ele>
        <time>2010-08-20T14:41:51Z</time>
      </trkpt>
      <trkpt lat="51.1913550" lon="7.1469670">
        <ele>131.8400000</ele>
        <time>2010-08-20T14:41:52Z</time>
      </trkpt>
      <trkpt lat="51.1913490" lon="7.1467340">
        <ele>132.8000000</ele>
        <time>2010-08-20T14:41:53Z</time>
      </trkpt>
      <trkpt lat="51.1913420" lon="7.1464890">
        <ele>133.2800000</ele>
        <time>2010-08-20T14:41:54Z</time>
      </trkpt>
      <trkpt lat="51.1912600" lon="7.1440170">
        <ele>142.4100000</ele>
        <time>2010-08-20T14:42:04Z</time>
      </trkpt>
      <trkpt lat="51.1912180" lon="7.1438040">
        <ele>143.3700000</ele>
        <time>2010-08-20T14:42:05Z</time>
      </trkpt>
      <trkpt lat="51.1909850" lon="7.1430370">
        <ele>144.3400000</ele>
        <time>2010-08-20T14:42:09Z</time>
      </trkpt>
      <trkpt lat="51.1908880" lon="7.1428720">
        <ele>144.3400000</ele>
        <time>2010-08-20T14:42:10Z</time>
      </trkpt>
      <trkpt lat="51.1905940" lon="7.1424350">
        <ele>143.3700000</ele>
        <time>2010-08-20T14:42:13Z</time>
      </trkpt>
      <trkpt lat="51.1904720" lon="7.1423350">
        <ele>143.3700000</ele>
        <time>2010-08-20T14:42:14Z</time>
      </trkpt>
      <trkpt lat="51.1903480" lon="7.1422430">
        <ele>142.8900000</ele>
        <time>2010-08-20T14:42:15Z</time>
      </trkpt>
      <trkpt lat="51.1902240" lon="7.1421620">
        <ele>142.8900000</ele>
        <time>2010-08-20T14:42:16Z</time>
      </trkpt>
      <trkpt lat="51.1901050" lon="7.1420880">
        <ele>142.4100000</ele>
        <time>2010-08-20T14:42:17Z</time>
      </trkpt>
      <trkpt lat="51.1898710" lon="7.1419710">
        <ele>141.9300000</ele>
        <time>2010-08-20T14:42:19Z</time>
      </trkpt>
      <trkpt lat="51.1897520" lon="7.1419500">
        <ele>141.9300000</ele>
        <time>2010-08-20T14:42:20Z</time>
      </trkpt>
      <trkpt lat="51.1896340" lon="7.1419600">
        <ele>141.4500000</ele>
        <time>2010-08-20T14:42:21Z</time>
      </trkpt>
      <trkpt lat="51.1895140" lon="7.1419980">
        <ele>141.4500000</ele>
        <time>2010-08-20T14:42:22Z</time>
      </trkpt>
      <trkpt lat="51.1893910" lon="7.1420560">
        <ele>141.4500000</ele>
        <time>2010-08-20T14:42:23Z</time>
      </trkpt>
      <trkpt lat="51.1892720" lon="7.1421390">
        <ele>140.9700000</ele>
        <time>2010-08-20T14:42:24Z</time>
      </trkpt>
      <trkpt lat="51.1891510" lon="7.1422450">
        <ele>140.9700000</ele>
        <time>2010-08-20T14:42:25Z</time>
      </trkpt>
      <trkpt lat="51.1890310" lon="7.1423650">
        <ele>141.4500000</ele>
        <time>2010-08-20T14:42:26Z</time>
      </trkpt>
      <trkpt lat="51.1889060" lon="7.1424940">
        <ele>141.9300000</ele>
        <time>2010-08-20T14:42:27Z</time>
      </trkpt>
      <trkpt lat="51.1882000" lon="7.1436400">
        <ele>142.4100000</ele>
        <time>2010-08-20T14:42:34Z</time>
      </trkpt>
      <trkpt lat="51.1881440" lon="7.1438330">
        <ele>142.8900000</ele>
        <time>2010-08-20T14:42:35Z</time>
      </trkpt>
      <trkpt lat="51.1874460" lon="7.1454270">
        <ele>139.0500000</ele>
        <time>2010-08-20T14:42:44Z</time>
      </trkpt>
      <trkpt lat="51.1873210" lon="7.1455680">
        <ele>138.0900000</ele>
        <time>2010-08-20T14:42:45Z</time>
      </trkpt>
      <trkpt lat="51.1861450" lon="7.1469770">
        <ele>136.1600000</ele>
        <time>2010-08-20T14:42:54Z</time>
      </trkpt>
      <trkpt lat="51.1846240" lon="7.1482760">
        <ele>140.0100000</ele>
        <time>2010-08-20T14:43:03Z</time>
      </trkpt>
      <trkpt lat="51.1830340" lon="7.1494780">
        <ele>139.0500000</ele>
        <time>2010-08-20T14:43:13Z</time>
      </trkpt>
      <trkpt lat="51.1824200" lon="7.1498860">
        <ele>137.6100000</ele>
        <time>2010-08-20T14:43:17Z</time>
      </trkpt>
      <trkpt lat="51.1822780" lon="7.1499100">
        <ele>136.6400000</ele>
        <time>2010-08-20T14:43:18Z</time>
      </trkpt>
      <trkpt lat="51.1810810" lon="7.1505760">
        <ele>118.8600000</ele>
        <time>2010-08-20T14:43:27Z</time>
      </trkpt>
      <trkpt lat="51.1806110" lon="7.1509550">
        <ele>117.4200000</ele>
        <time>2010-08-20T14:43:30Z</time>
      </trkpt>
      <trkpt lat="51.1804540" lon="7.1510650">
        <ele>117.4200000</ele>
        <time>2010-08-20T14:43:31Z</time>
      </trkpt>
      <trkpt lat="51.1802980" lon="7.1511360">
        <ele>116.4600000</ele>
        <time>2010-08-20T14:43:32Z</time>
      </trkpt>
      <trkpt lat="51.1801400" lon="7.1511910">
        <ele>116.4600000</ele>
        <time>2010-08-20T14:43:33Z</time>
      </trkpt>
      <trkpt lat="51.1799840" lon="7.1512330">
        <ele>115.9800000</ele>
        <time>2010-08-20T14:43:34Z</time>
      </trkpt>
      <trkpt lat="51.1781790" lon="7.1516040">
        <ele>125.1100000</ele>
        <time>2010-08-20T14:43:45Z</time>
      </trkpt>
      <trkpt lat="51.1766050" lon="7.1519620">
        <ele>125.1100000</ele>
        <time>2010-08-20T14:43:56Z</time>
      </trkpt>
      <trkpt lat="51.1764750" lon="7.1519560">
        <ele>125.1100000</ele>
        <time>2010-08-20T14:43:57Z</time>
      </trkpt>
      <trkpt lat="51.1763430" lon="7.1519290">
        <ele>125.1100000</ele>
        <time>2010-08-20T14:43:58Z</time>
      </trkpt>
      <trkpt lat="51.1762080" lon="7.1518820">
        <ele>125.1100000</ele>
        <time>2010-08-20T14:43:59Z</time>
      </trkpt>
      <trkpt lat="51.1755340" lon="7.1515710">
        <ele>124.1500000</ele>
        <time>2010-08-20T14:44:03Z</time>
      </trkpt>
      <trkpt lat="51.1744240" lon="7.1509310">
        <ele>126.0700000</ele>
        <time>2010-08-20T14:44:10Z</time>
      </trkpt>
      <trkpt lat="51.1743230" lon="7.1508360">
        <ele>126.0700000</ele>
        <time>2010-08-20T14:44:11Z</time>
      </trkpt>
      <trkpt lat="51.1742330" lon="7.1507170">
        <ele>126.0700000</ele>
        <time>2010-08-20T14:44:12Z</time>
      </trkpt>
      <trkpt lat="51.1741470" lon="7.1505680">
        <ele>126.5500000</ele>
        <time>2010-08-20T14:44:13Z</time>
      </trkpt>
      <trkpt lat="51.1739450" lon="7.1500890">
        <ele>127.9900000</ele>
        <time>2010-08-20T14:44:16Z</time>
      </trkpt>
      <trkpt lat="51.1739090" lon="7.1499490">
        <ele>127.5100000</ele>
        <time>2010-08-20T14:44:17Z</time>
      </trkpt>
      <trkpt lat="51.1736580" lon="7.1491180">
        <ele>127.0300000</ele>
        <time>2010-08-20T14:44:22Z</time>
      </trkpt>
      <trkpt lat="51.1735780" lon="7.1489410">
        <ele>126.0700000</ele>
        <time>2010-08-20T14:44:23Z</time>
      </trkpt>
      <trkpt lat="51.1734810" lon="7.1487770">
        <ele>127.0300000</ele>
        <time>2010-08-20T14:44:24Z</time>
      </trkpt>
      <trkpt lat="51.1733790" lon="7.1486320">
        <ele>127.0300000</ele>
        <time>2010-08-20T14:44:25Z</time>
      </trkpt>
      <trkpt lat="51.1732590" lon="7.1484980">
        <ele>127.9900000</ele>
        <time>2010-08-20T14:44:26Z</time>
      </trkpt>
      <trkpt lat="51.1731430" lon="7.1483700">
        <ele>128.4700000</ele>
        <time>2010-08-20T14:44:27Z</time>
      </trkpt>
      <trkpt lat="51.1726600" lon="7.1477610">
        <ele>126.0700000</ele>
        <time>2010-08-20T14:44:32Z</time>
      </trkpt>
      <trkpt lat="51.1725940" lon="7.1476030">
        <ele>125.5900000</ele>
        <time>2010-08-20T14:44:33Z</time>
      </trkpt>
      <trkpt lat="51.1725640" lon="7.1474290">
        <ele>124.6300000</ele>
        <time>2010-08-20T14:44:34Z</time>
      </trkpt>
      <trkpt lat="51.1725460" lon="7.1472490">
        <ele>124.1500000</ele>
        <time>2010-08-20T14:44:35Z</time>
      </trkpt>
      <trkpt lat="51.1725540" lon="7.1470670">
        <ele>124.6300000</ele>
        <time>2010-08-20T14:44:36Z</time>
      </trkpt>
      <trkpt lat="51.1726040" lon="7.1468830">
        <ele>124.1500000</ele>
        <time>2010-08-20T14:44:37Z</time>
      </trkpt>
      <trkpt lat="51.1726820" lon="7.1466970">
        <ele>124.1500000</ele>
        <time>2010-08-20T14:44:38Z</time>
      </trkpt>
      <trkpt lat="51.1727870" lon="7.1465330">
        <ele>123.1900000</ele>
        <time>2010-08-20T14:44:39Z</time>
      </trkpt>
      <trkpt lat="51.1729020" lon="7.1463820">
        <ele>123.1900000</ele>
        <time>2010-08-20T14:44:40Z</time>
      </trkpt>
      <trkpt lat="51.1730090" lon="7.1462180">
        <ele>123.1900000</ele>
        <time>2010-08-20T14:44:41Z</time>
      </trkpt>
      <trkpt lat="51.1734110" lon="7.1453190">
        <ele>121.2600000</ele>
        <time>2010-08-20T14:44:46Z</time>
      </trkpt>
      <trkpt lat="51.1734520" lon="7.1451240">
        <ele>121.2600000</ele>
        <time>2010-08-20T14:44:47Z</time>
      </trkpt>
      <trkpt lat="51.1734650" lon="7.1449300">
        <ele>120.3000000</ele>
        <time>2010-08-20T14:44:48Z</time>
      </trkpt>
      <trkpt lat="51.1734410" lon="7.1447310">
        <ele>120.3000000</ele>
        <time>2010-08-20T14:44:49Z</time>
      </trkpt>
      <trkpt lat="51.1733850" lon="7.1445280">
        <ele>120.7800000</ele>
        <time>2010-08-20T14:44:50Z</time>
      </trkpt>
      <trkpt lat="51.1733220" lon="7.1443310">
        <ele>120.7800000</ele>
        <time>2010-08-20T14:44:51Z</time>
      </trkpt>
      <trkpt lat="51.1732430" lon="7.1441380">
        <ele>120.3000000</ele>
        <time>2010-08-20T14:44:52Z</time>
      </trkpt>
      <trkpt lat="51.1731620" lon="7.1439510">
        <ele>119.8200000</ele>
        <time>2010-08-20T14:44:53Z</time>
      </trkpt>
      <trkpt lat="51.1722320" lon="7.1420240">
        <ele>120.3000000</ele>
        <time>2010-08-20T14:45:00Z</time>
      </trkpt>
      <trkpt lat="51.1709430" lon="7.1397500">
        <ele>115.9800000</ele>
        <time>2010-08-20T14:45:08Z</time>
      </trkpt>
      <trkpt lat="51.1695110" lon="7.1380400">
        <ele>115.0100000</ele>
        <time>2010-08-20T14:45:16Z</time>
      </trkpt>
      <trkpt lat="51.1686370" lon="7.1370000">
        <ele>112.6100000</ele>
        <time>2010-08-20T14:45:23Z</time>
      </trkpt>
      <trkpt lat="51.1675280" lon="7.1361440">
        <ele>110.2100000</ele>
        <time>2010-08-20T14:45:32Z</time>
      </trkpt>
      <trkpt lat="51.1666150" lon="7.1356930">
        <ele>109.2500000</ele>
        <time>2010-08-20T14:45:41Z</time>
      </trkpt>
      <trkpt lat="51.1665620" lon="7.1356410">
        <ele>110.2100000</ele>
        <time>2010-08-20T14:45:42Z</time>
      </trkpt>
      <trkpt lat="51.1665360" lon="7.1355840">
        <ele>110.2100000</ele>
        <time>2010-08-20T14:45:43Z</time>
      </trkpt>
      <trkpt lat="51.1665370" lon="7.1354940">
        <ele>110.2100000</ele>
        <time>2010-08-20T14:45:44Z</time>
      </trkpt>
      <trkpt lat="51.1665450" lon="7.1353110">
        <ele>111.1700000</ele>
        <time>2010-08-20T14:45:45Z</time>
      </trkpt>
      <trkpt lat="51.1665880" lon="7.1350620">
        <ele>110.6900000</ele>
        <time>2010-08-20T14:45:46Z</time>
      </trkpt>
      <trkpt lat="51.1666430" lon="7.1348280">
        <ele>110.6900000</ele>
        <time>2010-08-20T14:45:47Z</time>
      </trkpt>
      <trkpt lat="51.1667050" lon="7.1346070">
        <ele>110.6900000</ele>
        <time>2010-08-20T14:45:48Z</time>
      </trkpt>
      <trkpt lat="51.1667790" lon="7.1344080">
        <ele>111.1700000</ele>
        <time>2010-08-20T14:45:49Z</time>
      </trkpt>
      <trkpt lat="51.1668550" lon="7.1342160">
        <ele>111.1700000</ele>
        <time>2010-08-20T14:45:50Z</time>
      </trkpt>
      <trkpt lat="51.1671670" lon="7.1337000">
        <ele>113.0900000</ele>
        <time>2010-08-20T14:45:53Z</time>
      </trkpt>
      <trkpt lat="51.1672990" lon="7.1335560">
        <ele>113.5700000</ele>
        <time>2010-08-20T14:45:54Z</time>
      </trkpt>
      <trkpt lat="51.1674500" lon="7.1334280">
        <ele>113.5700000</ele>
        <time>2010-08-20T14:45:55Z</time>
      </trkpt>
      <trkpt lat="51.1676010" lon="7.1333180">
        <ele>114.0500000</ele>
        <time>2010-08-20T14:45:56Z</time>
      </trkpt>
      <trkpt lat="51.1677610" lon="7.1332340">
        <ele>114.5300000</ele>
        <time>2010-08-20T14:45:57Z</time>
      </trkpt>
      <trkpt lat="51.1679270" lon="7.1331720">
        <ele>116.4600000</ele>
        <time>2010-08-20T14:45:58Z</time>
      </trkpt>
      <trkpt lat="51.1681340" lon="7.1331370">
        <ele>117.9000000</ele>
        <time>2010-08-20T14:45:59Z</time>
      </trkpt>
      <trkpt lat="51.1683980" lon="7.1331220">
        <ele>119.3400000</ele>
        <time>2010-08-20T14:46:00Z</time>
      </trkpt>
      <trkpt lat="51.1686770" lon="7.1331130">
        <ele>120.7800000</ele>
        <time>2010-08-20T14:46:01Z</time>
      </trkpt>
      <trkpt lat="51.1702820" lon="7.1326340">
        <ele>129.4300000</ele>
        <time>2010-08-20T14:46:06Z</time>
      </trkpt>
      <trkpt lat="51.1719290" lon="7.1317540">
        <ele>136.1600000</ele>
        <time>2010-08-20T14:46:12Z</time>
      </trkpt>
      <trkpt lat="51.1736210" lon="7.1302380">
        <ele>140.9700000</ele>
        <time>2010-08-20T14:46:19Z</time>
      </trkpt>
      <trkpt lat="51.1750430" lon="7.1282410">
        <ele>141.9300000</ele>
        <time>2010-08-20T14:46:26Z</time>
      </trkpt>
      <trkpt lat="51.1758400" lon="7.1263030">
        <ele>140.9700000</ele>
        <time>2010-08-20T14:46:32Z</time>
      </trkpt>
      <trkpt lat="51.1767440" lon="7.1246230">
        <ele>146.7400000</ele>
        <time>2010-08-20T14:46:39Z</time>
      </trkpt>
      <trkpt lat="51.1769140" lon="7.1244900">
        <ele>147.7000000</ele>
        <time>2010-08-20T14:46:40Z</time>
      </trkpt>
      <trkpt lat="51.1770850" lon="7.1243920">
        <ele>149.1400000</ele>
        <time>2010-08-20T14:46:41Z</time>
      </trkpt>
      <trkpt lat="51.1772670" lon="7.1243210">
        <ele>152.0300000</ele>
        <time>2010-08-20T14:46:42Z</time>
      </trkpt>
      <trkpt lat="51.1774670" lon="7.1243200">
        <ele>154.4300000</ele>
        <time>2010-08-20T14:46:43Z</time>
      </trkpt>
      <trkpt lat="51.1776870" lon="7.1243600">
        <ele>154.9100000</ele>
        <time>2010-08-20T14:46:44Z</time>
      </trkpt>
      <trkpt lat="51.1779120" lon="7.1244270">
        <ele>154.4300000</ele>
        <time>2010-08-20T14:46:45Z</time>
      </trkpt>
      <trkpt lat="51.1781360" lon="7.1245140">
        <ele>153.4700000</ele>
        <time>2010-08-20T14:46:46Z</time>
      </trkpt>
      <trkpt lat="51.1783390" lon="7.1246140">
        <ele>152.9900000</ele>
        <time>2010-08-20T14:46:47Z</time>
      </trkpt>
      <trkpt lat="51.1785360" lon="7.1247360">
        <ele>152.5100000</ele>
        <time>2010-08-20T14:46:48Z</time>
      </trkpt>
      <trkpt lat="51.1787160" lon="7.1248990">
        <ele>152.0300000</ele>
        <time>2010-08-20T14:46:49Z</time>
      </trkpt>
      <trkpt lat="51.1788930" lon="7.1250740">
        <ele>151.0600000</ele>
        <time>2010-08-20T14:46:50Z</time>
      </trkpt>
      <trkpt lat="51.1802360" lon="7.1264520">
        <ele>149.1400000</ele>
        <time>2010-08-20T14:46:57Z</time>
      </trkpt>
      <trkpt lat="51.1815100" lon="7.1269060">
        <ele>146.7400000</ele>
        <time>2010-08-20T14:47:03Z</time>
      </trkpt>
      <trkpt lat="51.1827390" lon="7.1266040">
        <ele>140.9700000</ele>
        <time>2010-08-20T14:47:09Z</time>
      </trkpt>
      <trkpt lat="51.1838470" lon="7.1255720">
        <ele>136.1600000</ele>
        <time>2010-08-20T14:47:15Z</time>
      </trkpt>
      <trkpt lat="51.1846810" lon="7.1238270">
        <ele>131.3600000</ele>
        <time>2010-08-20T14:47:21Z</time>
      </trkpt>
      <trkpt lat="51.1851240" lon="7.1212880">
        <ele>128.4700000</ele>
        <time>2010-08-20T14:47:28Z</time>
      </trkpt>
      <trkpt lat="51.1854750" lon="7.1182190">
        <ele>127.5100000</ele>
        <time>2010-08-20T14:47:37Z</time>
      </trkpt>
      <trkpt lat="51.1860860" lon="7.1151250">
        <ele>129.4300000</ele>
        <time>2010-08-20T14:47:48Z</time>
      </trkpt>
      <trkpt lat="51.1868700" lon="7.1125650">
        <ele>133.7600000</ele>
        <time>2010-08-20T14:47:56Z</time>
      </trkpt>
      <trkpt lat="51.1879170" lon="7.1099960">
        <ele>140.0100000</ele>
        <time>2010-08-20T14:48:05Z</time>
      </trkpt>
      <trkpt lat="51.1889360" lon="7.1084120">
        <ele>143.3700000</ele>
        <time>2010-08-20T14:48:11Z</time>
      </trkpt>
      <trkpt lat="51.1891440" lon="7.1082250">
        <ele>143.3700000</ele>
        <time>2010-08-20T14:48:12Z</time>
      </trkpt>
      <trkpt lat="51.1904790" lon="7.1072910">
        <ele>143.3700000</ele>
        <time>2010-08-20T14:48:19Z</time>
      </trkpt>
      <trkpt lat="51.1915530" lon="7.1070050">
        <ele>142.4100000</ele>
        <time>2010-08-20T14:48:26Z</time>
      </trkpt>
      <trkpt lat="51.1916720" lon="7.1070770">
        <ele>141.9300000</ele>
        <time>2010-08-20T14:48:27Z</time>
      </trkpt>
      <trkpt lat="51.1917540" lon="7.1072100">
        <ele>140.9700000</ele>
        <time>2010-08-20T14:48:28Z</time>
      </trkpt>
      <trkpt lat="51.1918370" lon="7.1073820">
        <ele>140.4900000</ele>
        <time>2010-08-20T14:48:29Z</time>
      </trkpt>
      <trkpt lat="51.1918630" lon="7.1075850">
        <ele>140.0100000</ele>
        <time>2010-08-20T14:48:30Z</time>
      </trkpt>
      <trkpt lat="51.1918360" lon="7.1077780">
        <ele>139.5300000</ele>
        <time>2010-08-20T14:48:31Z</time>
      </trkpt>
      <trkpt lat="51.1917920" lon="7.1079580">
        <ele>138.5700000</ele>
        <time>2010-08-20T14:48:32Z</time>
      </trkpt>
      <trkpt lat="51.1917210" lon="7.1081020">
        <ele>137.6100000</ele>
        <time>2010-08-20T14:48:33Z</time>
      </trkpt>
      <trkpt lat="51.1915990" lon="7.1081660">
        <ele>136.6400000</ele>
        <time>2010-08-20T14:48:34Z</time>
      </trkpt>
      <trkpt lat="51.1914530" lon="7.1081680">
        <ele>136.1600000</ele>
        <time>2010-08-20T14:48:35Z</time>
      </trkpt>
      <trkpt lat="51.1912980" lon="7.1081400">
        <ele>136.1600000</ele>
        <time>2010-08-20T14:48:36Z</time>
      </trkpt>
      <trkpt lat="51.1911090" lon="7.1080840">
        <ele>136.6400000</ele>
        <time>2010-08-20T14:48:37Z</time>
      </trkpt>
      <trkpt lat="51.1909540" lon="7.1080760">
        <ele>136.6400000</ele>
        <time>2010-08-20T14:48:38Z</time>
      </trkpt>
      <trkpt lat="51.1899460" lon="7.1081070">
        <ele>130.8800000</ele>
        <time>2010-08-20T14:48:47Z</time>
      </trkpt>
      <trkpt lat="51.1898720" lon="7.1081640">
        <ele>131.3600000</ele>
        <time>2010-08-20T14:48:50Z</time>
      </trkpt>
      <trkpt lat="51.1898710" lon="7.1082250">
        <ele>131.3600000</ele>
        <time>2010-08-20T14:48:51Z</time>
      </trkpt>
      <trkpt lat="51.1898580" lon="7.1083100">
        <ele>130.8800000</ele>
        <time>2010-08-20T14:48:52Z</time>
      </trkpt>
      <trkpt lat="51.1899120" lon="7.1084620">
        <ele>130.4000000</ele>
        <time>2010-08-20T14:48:53Z</time>
      </trkpt>
      <trkpt lat="51.1899640" lon="7.1086250">
        <ele>129.9200000</ele>
        <time>2010-08-20T14:48:54Z</time>
      </trkpt>
      <trkpt lat="51.1899680" lon="7.1087820">
        <ele>129.4300000</ele>
        <time>2010-08-20T14:48:55Z</time>
      </trkpt>
      <trkpt lat="51.1899930" lon="7.1089570">
        <ele>130.4000000</ele>
        <time>2010-08-20T14:48:56Z</time>
      </trkpt>
      <trkpt lat="51.1900410" lon="7.1102520">
        <ele>124.6300000</ele>
        <time>2010-08-20T14:49:07Z</time>
      </trkpt>
      <trkpt lat="51.1900680" lon="7.1103740">
        <ele>124.6300000</ele>
        <time>2010-08-20T14:49:13Z</time>
      </trkpt>
      <trkpt lat="51.1900790" lon="7.1103910">
        <ele>124.6300000</ele>
        <time>2010-08-20T14:49:14Z</time>
      </trkpt>
      <trkpt lat="51.1901140" lon="7.1103870">
        <ele>124.6300000</ele>
        <time>2010-08-20T14:49:16Z</time>
      </trkpt>
      <trkpt lat="51.1901400" lon="7.1103790">
        <ele>124.6300000</ele>
        <time>2010-08-20T14:49:17Z</time>
      </trkpt>
      <trkpt lat="51.1904820" lon="7.1102880">
        <ele>124.1500000</ele>
        <time>2010-08-20T14:49:30Z</time>
      </trkpt>
    </trkseg>
  </trk>

  <trk>
    <name>ACTIVE LOG: 21 AUG 2010 12:16</name>
    <extensions>
      <gpxx:TrackExtension xmlns:gpxx="http://www.garmin.com/xmlschemas/GpxExtensions/v3">
        <gpxx:DisplayColor>White</gpxx:DisplayColor>
      </gpxx:TrackExtension>
    </extensions>
    <trkseg>
      <trkpt lat="51.1694370" lon="7.0795860">
        <ele>249.1200000</ele>
        <time>2010-08-21T10:16:04Z</time>
      </trkpt>
      <trkpt lat="51.1695600" lon="7.0794580">
        <ele>256.3300000</ele>
        <time>2010-08-21T10:16:49Z</time>
      </trkpt>
      <trkpt lat="51.1695830" lon="7.0794270">
        <ele>262.5800000</ele>
        <time>2010-08-21T10:17:07Z</time>
      </trkpt>
      <trkpt lat="51.1696530" lon="7.0798330">
        <ele>257.2900000</ele>
        <time>2010-08-21T10:17:12Z</time>
      </trkpt>
      <trkpt lat="51.1700030" lon="7.0809290">
        <ele>255.3700000</ele>
        <time>2010-08-21T10:17:22Z</time>
      </trkpt>
      <trkpt lat="51.1702000" lon="7.0812270">
        <ele>258.2500000</ele>
        <time>2010-08-21T10:17:29Z</time>
      </trkpt>
      <trkpt lat="51.1701790" lon="7.0812750">
        <ele>257.7700000</ele>
        <time>2010-08-21T10:17:30Z</time>
      </trkpt>
      <trkpt lat="51.1701580" lon="7.0813320">
        <ele>255.3700000</ele>
        <time>2010-08-21T10:17:31Z</time>
      </trkpt>
      <trkpt lat="51.1701360" lon="7.0814020">
        <ele>253.4400000</ele>
        <time>2010-08-21T10:17:32Z</time>
      </trkpt>
      <trkpt lat="51.1700370" lon="7.0814770">
        <ele>252.0000000</ele>
        <time>2010-08-21T10:17:33Z</time>
      </trkpt>
      <trkpt lat="51.1699490" lon="7.0815590">
        <ele>251.0400000</ele>
        <time>2010-08-21T10:17:34Z</time>
      </trkpt>
      <trkpt lat="51.1698680" lon="7.0816450">
        <ele>250.0800000</ele>
        <time>2010-08-21T10:17:35Z</time>
      </trkpt>
      <trkpt lat="51.1698030" lon="7.0817440">
        <ele>248.1600000</ele>
        <time>2010-08-21T10:17:36Z</time>
      </trkpt>
      <trkpt lat="51.1697210" lon="7.0818600">
        <ele>247.2000000</ele>
        <time>2010-08-21T10:17:37Z</time>
      </trkpt>
      <trkpt lat="51.1696550" lon="7.0819750">
        <ele>248.1600000</ele>
        <time>2010-08-21T10:17:38Z</time>
      </trkpt>
      <trkpt lat="51.1695040" lon="7.0822370">
        <ele>251.5200000</ele>
        <time>2010-08-21T10:17:43Z</time>
      </trkpt>
      <trkpt lat="51.1695480" lon="7.0822660">
        <ele>250.5600000</ele>
        <time>2010-08-21T10:17:44Z</time>
      </trkpt>
      <trkpt lat="51.1696230" lon="7.0822970">
        <ele>249.1200000</ele>
        <time>2010-08-21T10:17:45Z</time>
      </trkpt>
      <trkpt lat="51.1696910" lon="7.0823560">
        <ele>248.1600000</ele>
        <time>2010-08-21T10:17:46Z</time>
      </trkpt>
      <trkpt lat="51.1696880" lon="7.0824730">
        <ele>248.6400000</ele>
        <time>2010-08-21T10:17:47Z</time>
      </trkpt>
      <trkpt lat="51.1696940" lon="7.0825490">
        <ele>249.1200000</ele>
        <time>2010-08-21T10:17:48Z</time>
      </trkpt>
      <trkpt lat="51.1697080" lon="7.0826060">
        <ele>249.1200000</ele>
        <time>2010-08-21T10:17:49Z</time>
      </trkpt>
      <trkpt lat="51.1697580" lon="7.0827470">
        <ele>254.8900000</ele>
        <time>2010-08-21T10:17:52Z</time>
      </trkpt>
      <trkpt lat="51.1699150" lon="7.0830550">
        <ele>261.1400000</ele>
        <time>2010-08-21T10:17:56Z</time>
      </trkpt>
      <trkpt lat="51.1699570" lon="7.0831190">
        <ele>261.1400000</ele>
        <time>2010-08-21T10:17:57Z</time>
      </trkpt>
      <trkpt lat="51.1699910" lon="7.0831990">
        <ele>262.1000000</ele>
        <time>2010-08-21T10:17:58Z</time>
      </trkpt>
      <trkpt lat="51.1700110" lon="7.0832920">
        <ele>261.1400000</ele>
        <time>2010-08-21T10:17:59Z</time>
      </trkpt>
      <trkpt lat="51.1700220" lon="7.0833890">
        <ele>261.1400000</ele>
        <time>2010-08-21T10:18:00Z</time>
      </trkpt>
      <trkpt lat="51.1700290" lon="7.0834970">
        <ele>261.1400000</ele>
        <time>2010-08-21T10:18:01Z</time>
      </trkpt>
      <trkpt lat="51.1700440" lon="7.0836460">
        <ele>257.2900000</ele>
        <time>2010-08-21T10:18:02Z</time>
      </trkpt>
      <trkpt lat="51.1700190" lon="7.0837580">
        <ele>255.3700000</ele>
        <time>2010-08-21T10:18:03Z</time>
      </trkpt>
      <trkpt lat="51.1700010" lon="7.0839580">
        <ele>252.0000000</ele>
        <time>2010-08-21T10:18:04Z</time>
      </trkpt>
      <trkpt lat="51.1699570" lon="7.0840700">
        <ele>248.1600000</ele>
        <time>2010-08-21T10:18:05Z</time>
      </trkpt>
      <trkpt lat="51.1699240" lon="7.0841670">
        <ele>244.7900000</ele>
        <time>2010-08-21T10:18:06Z</time>
      </trkpt>
      <trkpt lat="51.1698840" lon="7.0842710">
        <ele>241.4300000</ele>
        <time>2010-08-21T10:18:07Z</time>
      </trkpt>
      <trkpt lat="51.1693130" lon="7.0852110">
        <ele>224.6100000</ele>
        <time>2010-08-21T10:18:18Z</time>
      </trkpt>
      <trkpt lat="51.1693050" lon="7.0852030">
        <ele>225.5700000</ele>
        <time>2010-08-21T10:18:19Z</time>
      </trkpt>
      <trkpt lat="51.1693060" lon="7.0852560">
        <ele>226.0500000</ele>
        <time>2010-08-21T10:18:20Z</time>
      </trkpt>
      <trkpt lat="51.1692860" lon="7.0854130">
        <ele>223.1600000</ele>
        <time>2010-08-21T10:18:22Z</time>
      </trkpt>
      <trkpt lat="51.1692050" lon="7.0855550">
        <ele>226.5300000</ele>
        <time>2010-08-21T10:18:28Z</time>
      </trkpt>
      <trkpt lat="51.1689190" lon="7.0857980">
        <ele>255.3700000</ele>
        <time>2010-08-21T10:19:09Z</time>
      </trkpt>
      <trkpt lat="51.1688230" lon="7.0858220">
        <ele>264.5000000</ele>
        <time>2010-08-21T10:19:10Z</time>
      </trkpt>
      <trkpt lat="51.1687740" lon="7.0858340">
        <ele>268.8300000</ele>
        <time>2010-08-21T10:19:11Z</time>
      </trkpt>
      <trkpt lat="51.1687150" lon="7.0859240">
        <ele>271.7100000</ele>
        <time>2010-08-21T10:19:12Z</time>
      </trkpt>
      <trkpt lat="51.1687060" lon="7.0860730">
        <ele>268.8300000</ele>
        <time>2010-08-21T10:19:13Z</time>
      </trkpt>
      <trkpt lat="51.1686130" lon="7.0863630">
        <ele>262.5800000</ele>
        <time>2010-08-21T10:19:15Z</time>
      </trkpt>
      <trkpt lat="51.1685390" lon="7.0864720">
        <ele>259.2100000</ele>
        <time>2010-08-21T10:19:16Z</time>
      </trkpt>
      <trkpt lat="51.1684260" lon="7.0866140">
        <ele>253.4400000</ele>
        <time>2010-08-21T10:19:17Z</time>
      </trkpt>
      <trkpt lat="51.1677020" lon="7.0873740">
        <ele>244.7900000</ele>
        <time>2010-08-21T10:19:26Z</time>
      </trkpt>
      <trkpt lat="51.1675920" lon="7.0874440">
        <ele>235.6600000</ele>
        <time>2010-08-21T10:19:35Z</time>
      </trkpt>
      <trkpt lat="51.1673770" lon="7.0876250">
        <ele>233.2600000</ele>
        <time>2010-08-21T10:19:46Z</time>
      </trkpt>
      <trkpt lat="51.1671460" lon="7.0880260">
        <ele>222.6800000</ele>
        <time>2010-08-21T10:19:55Z</time>
      </trkpt>
      <trkpt lat="51.1670520" lon="7.0881380">
        <ele>209.2200000</ele>
        <time>2010-08-21T10:20:53Z</time>
      </trkpt>
      <trkpt lat="51.1666450" lon="7.0885990">
        <ele>214.0300000</ele>
        <time>2010-08-21T10:21:00Z</time>
      </trkpt>
      <trkpt lat="51.1661770" lon="7.0892330">
        <ele>215.9500000</ele>
        <time>2010-08-21T10:21:06Z</time>
      </trkpt>
      <trkpt lat="51.1661150" lon="7.0893650">
        <ele>216.4300000</ele>
        <time>2010-08-21T10:21:07Z</time>
      </trkpt>
      <trkpt lat="51.1655080" lon="7.0908640">
        <ele>224.6100000</ele>
        <time>2010-08-21T10:21:17Z</time>
      </trkpt>
      <trkpt lat="51.1647320" lon="7.0925650">
        <ele>228.4500000</ele>
        <time>2010-08-21T10:21:29Z</time>
      </trkpt>
      <trkpt lat="51.1642410" lon="7.0939180">
        <ele>233.7400000</ele>
        <time>2010-08-21T10:21:38Z</time>
      </trkpt>
      <trkpt lat="51.1637220" lon="7.0950570">
        <ele>239.0200000</ele>
        <time>2010-08-21T10:21:47Z</time>
      </trkpt>
      <trkpt lat="51.1628830" lon="7.0971180">
        <ele>243.3500000</ele>
        <time>2010-08-21T10:22:01Z</time>
      </trkpt>
      <trkpt lat="51.1623520" lon="7.0984770">
        <ele>250.0800000</ele>
        <time>2010-08-21T10:22:12Z</time>
      </trkpt>
      <trkpt lat="51.1623000" lon="7.0985690">
        <ele>251.5200000</ele>
        <time>2010-08-21T10:22:14Z</time>
      </trkpt>
      <trkpt lat="51.1621500" lon="7.0988780">
        <ele>249.1200000</ele>
        <time>2010-08-21T10:22:24Z</time>
      </trkpt>
      <trkpt lat="51.1620840" lon="7.0990780">
        <ele>249.1200000</ele>
        <time>2010-08-21T10:22:33Z</time>
      </trkpt>
      <trkpt lat="51.1620510" lon="7.0991410">
        <ele>249.1200000</ele>
        <time>2010-08-21T10:22:34Z</time>
      </trkpt>
      <trkpt lat="51.1620150" lon="7.0992110">
        <ele>248.6400000</ele>
        <time>2010-08-21T10:22:35Z</time>
      </trkpt>
      <trkpt lat="51.1618720" lon="7.0995480">
        <ele>250.0800000</ele>
        <time>2010-08-21T10:22:39Z</time>
      </trkpt>
      <trkpt lat="51.1617160" lon="7.0999520">
        <ele>253.4400000</ele>
        <time>2010-08-21T10:22:43Z</time>
      </trkpt>
      <trkpt lat="51.1615940" lon="7.1002480">
        <ele>253.9300000</ele>
        <time>2010-08-21T10:22:45Z</time>
      </trkpt>
      <trkpt lat="51.1615420" lon="7.1004010">
        <ele>254.4100000</ele>
        <time>2010-08-21T10:22:46Z</time>
      </trkpt>
      <trkpt lat="51.1612390" lon="7.1018370">
        <ele>257.7700000</ele>
        <time>2010-08-21T10:22:56Z</time>
      </trkpt>
      <trkpt lat="51.1611730" lon="7.1023860">
        <ele>258.2500000</ele>
        <time>2010-08-21T10:23:03Z</time>
      </trkpt>
      <trkpt lat="51.1611800" lon="7.1024370">
        <ele>258.7300000</ele>
        <time>2010-08-21T10:23:04Z</time>
      </trkpt>
      <trkpt lat="51.1611790" lon="7.1024930">
        <ele>259.2100000</ele>
        <time>2010-08-21T10:23:05Z</time>
      </trkpt>
      <trkpt lat="51.1611760" lon="7.1025450">
        <ele>259.6900000</ele>
        <time>2010-08-21T10:23:06Z</time>
      </trkpt>
      <trkpt lat="51.1611670" lon="7.1026420">
        <ele>264.0200000</ele>
        <time>2010-08-21T10:23:15Z</time>
      </trkpt>
      <trkpt lat="51.1610620" lon="7.1030620">
        <ele>264.9800000</ele>
        <time>2010-08-21T10:23:32Z</time>
      </trkpt>
      <trkpt lat="51.1610070" lon="7.1042200">
        <ele>264.9800000</ele>
        <time>2010-08-21T10:23:37Z</time>
      </trkpt>
      <trkpt lat="51.1612220" lon="7.1061570">
        <ele>266.4200000</ele>
        <time>2010-08-21T10:23:46Z</time>
      </trkpt>
      <trkpt lat="51.1618650" lon="7.1091570">
        <ele>268.8300000</ele>
        <time>2010-08-21T10:24:01Z</time>
      </trkpt>
      <trkpt lat="51.1622320" lon="7.1110740">
        <ele>265.4600000</ele>
        <time>2010-08-21T10:24:12Z</time>
      </trkpt>
      <trkpt lat="51.1622440" lon="7.1111730">
        <ele>265.4600000</ele>
        <time>2010-08-21T10:24:13Z</time>
      </trkpt>
      <trkpt lat="51.1622470" lon="7.1112360">
        <ele>264.9800000</ele>
        <time>2010-08-21T10:24:14Z</time>
      </trkpt>
      <trkpt lat="51.1622480" lon="7.1115190">
        <ele>264.5000000</ele>
        <time>2010-08-21T10:24:20Z</time>
      </trkpt>
      <trkpt lat="51.1622400" lon="7.1116960">
        <ele>264.0200000</ele>
        <time>2010-08-21T10:24:22Z</time>
      </trkpt>
      <trkpt lat="51.1622230" lon="7.1118710">
        <ele>264.9800000</ele>
        <time>2010-08-21T10:24:24Z</time>
      </trkpt>
      <trkpt lat="51.1621990" lon="7.1119740">
        <ele>265.4600000</ele>
        <time>2010-08-21T10:24:25Z</time>
      </trkpt>
      <trkpt lat="51.1621600" lon="7.1121320">
        <ele>266.4200000</ele>
        <time>2010-08-21T10:24:26Z</time>
      </trkpt>
      <trkpt lat="51.1617720" lon="7.1128250">
        <ele>266.9000000</ele>
        <time>2010-08-21T10:24:31Z</time>
      </trkpt>
      <trkpt lat="51.1608140" lon="7.1141130">
        <ele>253.9300000</ele>
        <time>2010-08-21T10:24:42Z</time>
      </trkpt>
      <trkpt lat="51.1598240" lon="7.1154600">
        <ele>246.7200000</ele>
        <time>2010-08-21T10:24:53Z</time>
      </trkpt>
      <trkpt lat="51.1588680" lon="7.1167340">
        <ele>242.8700000</ele>
        <time>2010-08-21T10:25:05Z</time>
      </trkpt>
      <trkpt lat="51.1578370" lon="7.1181120">
        <ele>239.5100000</ele>
        <time>2010-08-21T10:25:17Z</time>
      </trkpt>
      <trkpt lat="51.1566770" lon="7.1189880">
        <ele>237.5800000</ele>
        <time>2010-08-21T10:25:28Z</time>
      </trkpt>
      <trkpt lat="51.1549400" lon="7.1202710">
        <ele>234.2200000</ele>
        <time>2010-08-21T10:25:43Z</time>
      </trkpt>
      <trkpt lat="51.1531400" lon="7.1215830">
        <ele>235.6600000</ele>
        <time>2010-08-21T10:25:58Z</time>
      </trkpt>
      <trkpt lat="51.1514630" lon="7.1225980">
        <ele>231.8100000</ele>
        <time>2010-08-21T10:26:10Z</time>
      </trkpt>
      <trkpt lat="51.1502400" lon="7.1231210">
        <ele>228.4500000</ele>
        <time>2010-08-21T10:26:16Z</time>
      </trkpt>
      <trkpt lat="51.1475530" lon="7.1244240">
        <ele>215.9500000</ele>
        <time>2010-08-21T10:26:36Z</time>
      </trkpt>
      <trkpt lat="51.1463860" lon="7.1253500">
        <ele>210.6700000</ele>
        <time>2010-08-21T10:26:47Z</time>
      </trkpt>
      <trkpt lat="51.1452030" lon="7.1263550">
        <ele>210.1900000</ele>
        <time>2010-08-21T10:26:57Z</time>
      </trkpt>
      <trkpt lat="51.1438420" lon="7.1276150">
        <ele>204.9000000</ele>
        <time>2010-08-21T10:27:08Z</time>
      </trkpt>
      <trkpt lat="51.1431090" lon="7.1284820">
        <ele>197.2100000</ele>
        <time>2010-08-21T10:27:15Z</time>
      </trkpt>
      <trkpt lat="51.1430530" lon="7.1286880">
        <ele>194.8000000</ele>
        <time>2010-08-21T10:27:16Z</time>
      </trkpt>
      <trkpt lat="51.1429900" lon="7.1289450">
        <ele>193.3600000</ele>
        <time>2010-08-21T10:27:17Z</time>
      </trkpt>
      <trkpt lat="51.1429350" lon="7.1292540">
        <ele>190.9600000</ele>
        <time>2010-08-21T10:27:18Z</time>
      </trkpt>
      <trkpt lat="51.1428800" lon="7.1295360">
        <ele>190.0000000</ele>
        <time>2010-08-21T10:27:19Z</time>
      </trkpt>
      <trkpt lat="51.1421530" lon="7.1323850">
        <ele>189.5200000</ele>
        <time>2010-08-21T10:27:31Z</time>
      </trkpt>
      <trkpt lat="51.1419390" lon="7.1327100">
        <ele>188.0800000</ele>
        <time>2010-08-21T10:27:33Z</time>
      </trkpt>
      <trkpt lat="51.1418250" lon="7.1328370">
        <ele>187.5900000</ele>
        <time>2010-08-21T10:27:34Z</time>
      </trkpt>
      <trkpt lat="51.1416970" lon="7.1329850">
        <ele>186.1500000</ele>
        <time>2010-08-21T10:27:35Z</time>
      </trkpt>
      <trkpt lat="51.1415520" lon="7.1330920">
        <ele>185.1900000</ele>
        <time>2010-08-21T10:27:36Z</time>
      </trkpt>
      <trkpt lat="51.1413940" lon="7.1331580">
        <ele>184.7100000</ele>
        <time>2010-08-21T10:27:37Z</time>
      </trkpt>
      <trkpt lat="51.1412360" lon="7.1332210">
        <ele>183.2700000</ele>
        <time>2010-08-21T10:27:38Z</time>
      </trkpt>
      <trkpt lat="51.1410790" lon="7.1332720">
        <ele>182.7900000</ele>
        <time>2010-08-21T10:27:39Z</time>
      </trkpt>
      <trkpt lat="51.1409210" lon="7.1333000">
        <ele>182.7900000</ele>
        <time>2010-08-21T10:27:40Z</time>
      </trkpt>
      <trkpt lat="51.1403050" lon="7.1332040">
        <ele>180.8700000</ele>
        <time>2010-08-21T10:27:44Z</time>
      </trkpt>
      <trkpt lat="51.1398670" lon="7.1331540">
        <ele>179.4200000</ele>
        <time>2010-08-21T10:27:47Z</time>
      </trkpt>
      <trkpt lat="51.1397210" lon="7.1331990">
        <ele>179.4200000</ele>
        <time>2010-08-21T10:27:48Z</time>
      </trkpt>
      <trkpt lat="51.1395770" lon="7.1332560">
        <ele>179.4200000</ele>
        <time>2010-08-21T10:27:49Z</time>
      </trkpt>
      <trkpt lat="51.1389980" lon="7.1337020">
        <ele>177.5000000</ele>
        <time>2010-08-21T10:27:54Z</time>
      </trkpt>
      <trkpt lat="51.1388770" lon="7.1339270">
        <ele>175.5800000</ele>
        <time>2010-08-21T10:27:56Z</time>
      </trkpt>
      <trkpt lat="51.1389200" lon="7.1341110">
        <ele>177.5000000</ele>
        <time>2010-08-21T10:27:57Z</time>
      </trkpt>
      <trkpt lat="51.1390470" lon="7.1343930">
        <ele>175.1000000</ele>
        <time>2010-08-21T10:27:58Z</time>
      </trkpt>
      <trkpt lat="51.1391010" lon="7.1345550">
        <ele>175.1000000</ele>
        <time>2010-08-21T10:27:59Z</time>
      </trkpt>
      <trkpt lat="51.1391260" lon="7.1347110">
        <ele>177.5000000</ele>
        <time>2010-08-21T10:28:00Z</time>
      </trkpt>
      <trkpt lat="51.1391240" lon="7.1348900">
        <ele>177.5000000</ele>
        <time>2010-08-21T10:28:01Z</time>
      </trkpt>
      <trkpt lat="51.1390130" lon="7.1351730">
        <ele>177.0200000</ele>
        <time>2010-08-21T10:28:03Z</time>
      </trkpt>
      <trkpt lat="51.1389140" lon="7.1352440">
        <ele>176.5400000</ele>
        <time>2010-08-21T10:28:04Z</time>
      </trkpt>
      <trkpt lat="51.1387780" lon="7.1352700">
        <ele>176.0600000</ele>
        <time>2010-08-21T10:28:05Z</time>
      </trkpt>
      <trkpt lat="51.1386490" lon="7.1352740">
        <ele>176.0600000</ele>
        <time>2010-08-21T10:28:06Z</time>
      </trkpt>
      <trkpt lat="51.1385020" lon="7.1352850">
        <ele>176.0600000</ele>
        <time>2010-08-21T10:28:07Z</time>
      </trkpt>
      <trkpt lat="51.1379870" lon="7.1356680">
        <ele>174.6200000</ele>
        <time>2010-08-21T10:28:11Z</time>
      </trkpt>
      <trkpt lat="51.1378840" lon="7.1358920">
        <ele>171.2500000</ele>
        <time>2010-08-21T10:28:12Z</time>
      </trkpt>
      <trkpt lat="51.1377660" lon="7.1360700">
        <ele>168.3700000</ele>
        <time>2010-08-21T10:28:13Z</time>
      </trkpt>
      <trkpt lat="51.1366420" lon="7.1373550">
        <ele>155.3900000</ele>
        <time>2010-08-21T10:28:22Z</time>
      </trkpt>
      <trkpt lat="51.1354710" lon="7.1386240">
        <ele>143.8500000</ele>
        <time>2010-08-21T10:28:33Z</time>
      </trkpt>
      <trkpt lat="51.1353960" lon="7.1387960">
        <ele>142.8900000</ele>
        <time>2010-08-21T10:28:34Z</time>
      </trkpt>
      <trkpt lat="51.1352470" lon="7.1394350">
        <ele>139.0500000</ele>
        <time>2010-08-21T10:28:37Z</time>
      </trkpt>
      <trkpt lat="51.1352570" lon="7.1397150">
        <ele>137.6100000</ele>
        <time>2010-08-21T10:28:38Z</time>
      </trkpt>
      <trkpt lat="51.1352940" lon="7.1400150">
        <ele>136.6400000</ele>
        <time>2010-08-21T10:28:39Z</time>
      </trkpt>
      <trkpt lat="51.1353410" lon="7.1402910">
        <ele>135.2000000</ele>
        <time>2010-08-21T10:28:40Z</time>
      </trkpt>
      <trkpt lat="51.1354120" lon="7.1405610">
        <ele>134.2400000</ele>
        <time>2010-08-21T10:28:41Z</time>
      </trkpt>
      <trkpt lat="51.1355040" lon="7.1407970">
        <ele>132.8000000</ele>
        <time>2010-08-21T10:28:42Z</time>
      </trkpt>
      <trkpt lat="51.1356070" lon="7.1410090">
        <ele>132.3200000</ele>
        <time>2010-08-21T10:28:43Z</time>
      </trkpt>
      <trkpt lat="51.1357010" lon="7.1412210">
        <ele>131.3600000</ele>
        <time>2010-08-21T10:28:44Z</time>
      </trkpt>
      <trkpt lat="51.1360890" lon="7.1429720">
        <ele>123.1900000</ele>
        <time>2010-08-21T10:28:51Z</time>
      </trkpt>
      <trkpt lat="51.1360420" lon="7.1448340">
        <ele>116.4600000</ele>
        <time>2010-08-21T10:28:58Z</time>
      </trkpt>
      <trkpt lat="51.1363120" lon="7.1468920">
        <ele>109.7300000</ele>
        <time>2010-08-21T10:29:07Z</time>
      </trkpt>
      <trkpt lat="51.1365520" lon="7.1478340">
        <ele>105.8800000</ele>
        <time>2010-08-21T10:29:14Z</time>
      </trkpt>
      <trkpt lat="51.1366400" lon="7.1481490">
        <ele>101.5600000</ele>
        <time>2010-08-21T10:29:23Z</time>
      </trkpt>
      <trkpt lat="51.1366650" lon="7.1482310">
        <ele>98.1900000</ele>
        <time>2010-08-21T10:29:34Z</time>
      </trkpt>
      <trkpt lat="51.1367160" lon="7.1483200">
        <ele>97.7100000</ele>
        <time>2010-08-21T10:29:37Z</time>
      </trkpt>
      <trkpt lat="51.1367660" lon="7.1483650">
        <ele>97.7100000</ele>
        <time>2010-08-21T10:29:38Z</time>
      </trkpt>
      <trkpt lat="51.1368260" lon="7.1483890">
        <ele>97.7100000</ele>
        <time>2010-08-21T10:29:39Z</time>
      </trkpt>
      <trkpt lat="51.1368890" lon="7.1483930">
        <ele>97.7100000</ele>
        <time>2010-08-21T10:29:40Z</time>
      </trkpt>
      <trkpt lat="51.1369570" lon="7.1483270">
        <ele>97.7100000</ele>
        <time>2010-08-21T10:29:41Z</time>
      </trkpt>
      <trkpt lat="51.1370240" lon="7.1482410">
        <ele>97.7100000</ele>
        <time>2010-08-21T10:29:42Z</time>
      </trkpt>
      <trkpt lat="51.1370940" lon="7.1481420">
        <ele>97.7100000</ele>
        <time>2010-08-21T10:29:43Z</time>
      </trkpt>
      <trkpt lat="51.1371670" lon="7.1480390">
        <ele>97.7100000</ele>
        <time>2010-08-21T10:29:44Z</time>
      </trkpt>
      <trkpt lat="51.1372490" lon="7.1479440">
        <ele>97.2300000</ele>
        <time>2010-08-21T10:29:45Z</time>
      </trkpt>
      <trkpt lat="51.1373340" lon="7.1478650">
        <ele>97.2300000</ele>
        <time>2010-08-21T10:29:46Z</time>
      </trkpt>
      <trkpt lat="51.1374200" lon="7.1478150">
        <ele>96.7500000</ele>
        <time>2010-08-21T10:29:47Z</time>
      </trkpt>
      <trkpt lat="51.1375060" lon="7.1477960">
        <ele>96.2700000</ele>
        <time>2010-08-21T10:29:48Z</time>
      </trkpt>
      <trkpt lat="51.1375950" lon="7.1478060">
        <ele>96.2700000</ele>
        <time>2010-08-21T10:29:49Z</time>
      </trkpt>
      <trkpt lat="51.1376850" lon="7.1478360">
        <ele>95.7900000</ele>
        <time>2010-08-21T10:29:50Z</time>
      </trkpt>
      <trkpt lat="51.1377760" lon="7.1478770">
        <ele>95.3100000</ele>
        <time>2010-08-21T10:29:51Z</time>
      </trkpt>
      <trkpt lat="51.1378640" lon="7.1479230">
        <ele>95.3100000</ele>
        <time>2010-08-21T10:29:52Z</time>
      </trkpt>
      <trkpt lat="51.1379440" lon="7.1479780">
        <ele>94.8300000</ele>
        <time>2010-08-21T10:29:53Z</time>
      </trkpt>
      <trkpt lat="51.1380210" lon="7.1480430">
        <ele>94.3500000</ele>
        <time>2010-08-21T10:29:54Z</time>
      </trkpt>
      <trkpt lat="51.1385000" lon="7.1485050">
        <ele>94.3500000</ele>
        <time>2010-08-21T10:30:04Z</time>
      </trkpt>
      <trkpt lat="51.1385570" lon="7.1485850">
        <ele>97.2300000</ele>
        <time>2010-08-21T10:30:13Z</time>
      </trkpt>
      <trkpt lat="51.1385400" lon="7.1486060">
        <ele>104.4400000</ele>
        <time>2010-08-21T10:30:53Z</time>
      </trkpt>
      <trkpt lat="51.1386320" lon="7.1486520">
        <ele>103.0000000</ele>
        <time>2010-08-21T10:31:17Z</time>
      </trkpt>
      <trkpt lat="51.1386960" lon="7.1486880">
        <ele>103.0000000</ele>
        <time>2010-08-21T10:31:18Z</time>
      </trkpt>
      <trkpt lat="51.1387680" lon="7.1487240">
        <ele>102.5200000</ele>
        <time>2010-08-21T10:31:19Z</time>
      </trkpt>
      <trkpt lat="51.1390680" lon="7.1489230">
        <ele>100.6000000</ele>
        <time>2010-08-21T10:31:23Z</time>
      </trkpt>
      <trkpt lat="51.1391370" lon="7.1490150">
        <ele>100.1100000</ele>
        <time>2010-08-21T10:31:24Z</time>
      </trkpt>
      <trkpt lat="51.1396420" lon="7.1495310">
        <ele>98.1900000</ele>
        <time>2010-08-21T10:31:31Z</time>
      </trkpt>
      <trkpt lat="51.1397090" lon="7.1495630">
        <ele>98.1900000</ele>
        <time>2010-08-21T10:31:32Z</time>
      </trkpt>
      <trkpt lat="51.1397680" lon="7.1495800">
        <ele>98.1900000</ele>
        <time>2010-08-21T10:31:33Z</time>
      </trkpt>
      <trkpt lat="51.1398490" lon="7.1495630">
        <ele>97.7100000</ele>
        <time>2010-08-21T10:31:34Z</time>
      </trkpt>
      <trkpt lat="51.1399520" lon="7.1495170">
        <ele>97.7100000</ele>
        <time>2010-08-21T10:31:35Z</time>
      </trkpt>
      <trkpt lat="51.1400590" lon="7.1494610">
        <ele>97.7100000</ele>
        <time>2010-08-21T10:31:36Z</time>
      </trkpt>
      <trkpt lat="51.1401600" lon="7.1494040">
        <ele>97.7100000</ele>
        <time>2010-08-21T10:31:37Z</time>
      </trkpt>
      <trkpt lat="51.1404620" lon="7.1492590">
        <ele>97.7100000</ele>
        <time>2010-08-21T10:31:40Z</time>
      </trkpt>
      <trkpt lat="51.1405600" lon="7.1492530">
        <ele>97.7100000</ele>
        <time>2010-08-21T10:31:41Z</time>
      </trkpt>
      <trkpt lat="51.1406550" lon="7.1492740">
        <ele>97.7100000</ele>
        <time>2010-08-21T10:31:42Z</time>
      </trkpt>
      <trkpt lat="51.1407550" lon="7.1493110">
        <ele>98.1900000</ele>
        <time>2010-08-21T10:31:43Z</time>
      </trkpt>
      <trkpt lat="51.1408630" lon="7.1493520">
        <ele>98.6700000</ele>
        <time>2010-08-21T10:31:44Z</time>
      </trkpt>
      <trkpt lat="51.1415460" lon="7.1496400">
        <ele>99.6300000</ele>
        <time>2010-08-21T10:31:51Z</time>
      </trkpt>
      <trkpt lat="51.1416480" lon="7.1496410">
        <ele>100.6000000</ele>
        <time>2010-08-21T10:31:52Z</time>
      </trkpt>
      <trkpt lat="51.1417580" lon="7.1496210">
        <ele>101.0800000</ele>
        <time>2010-08-21T10:31:53Z</time>
      </trkpt>
      <trkpt lat="51.1426520" lon="7.1492770">
        <ele>103.4800000</ele>
        <time>2010-08-21T10:32:01Z</time>
      </trkpt>
      <trkpt lat="51.1431850" lon="7.1489750">
        <ele>102.5200000</ele>
        <time>2010-08-21T10:32:06Z</time>
      </trkpt>
      <trkpt lat="51.1433010" lon="7.1489530">
        <ele>102.5200000</ele>
        <time>2010-08-21T10:32:07Z</time>
      </trkpt>
      <trkpt lat="51.1434210" lon="7.1489600">
        <ele>102.5200000</ele>
        <time>2010-08-21T10:32:08Z</time>
      </trkpt>
      <trkpt lat="51.1435420" lon="7.1489860">
        <ele>102.0400000</ele>
        <time>2010-08-21T10:32:09Z</time>
      </trkpt>
      <trkpt lat="51.1436530" lon="7.1490370">
        <ele>102.5200000</ele>
        <time>2010-08-21T10:32:10Z</time>
      </trkpt>
      <trkpt lat="51.1437610" lon="7.1491090">
        <ele>102.5200000</ele>
        <time>2010-08-21T10:32:11Z</time>
      </trkpt>
      <trkpt lat="51.1438600" lon="7.1492180">
        <ele>103.0000000</ele>
        <time>2010-08-21T10:32:12Z</time>
      </trkpt>
      <trkpt lat="51.1439460" lon="7.1493530">
        <ele>103.4800000</ele>
        <time>2010-08-21T10:32:13Z</time>
      </trkpt>
      <trkpt lat="51.1440160" lon="7.1495090">
        <ele>103.4800000</ele>
        <time>2010-08-21T10:32:14Z</time>
      </trkpt>
      <trkpt lat="51.1440890" lon="7.1496710">
        <ele>104.4400000</ele>
        <time>2010-08-21T10:32:15Z</time>
      </trkpt>
      <trkpt lat="51.1441500" lon="7.1498510">
        <ele>104.9200000</ele>
        <time>2010-08-21T10:32:16Z</time>
      </trkpt>
      <trkpt lat="51.1442120" lon="7.1500370">
        <ele>105.4000000</ele>
        <time>2010-08-21T10:32:17Z</time>
      </trkpt>
      <trkpt lat="51.1443560" lon="7.1503930">
        <ele>106.3600000</ele>
        <time>2010-08-21T10:32:19Z</time>
      </trkpt>
      <trkpt lat="51.1444420" lon="7.1505470">
        <ele>106.8400000</ele>
        <time>2010-08-21T10:32:20Z</time>
      </trkpt>
      <trkpt lat="51.1455400" lon="7.1522740">
        <ele>114.0500000</ele>
        <time>2010-08-21T10:32:31Z</time>
      </trkpt>
      <trkpt lat="51.1458210" lon="7.1528250">
        <ele>114.5300000</ele>
        <time>2010-08-21T10:32:36Z</time>
      </trkpt>
      <trkpt lat="51.1457720" lon="7.1529080">
        <ele>114.0500000</ele>
        <time>2010-08-21T10:32:37Z</time>
      </trkpt>
      <trkpt lat="51.1457240" lon="7.1529810">
        <ele>114.0500000</ele>
        <time>2010-08-21T10:32:38Z</time>
      </trkpt>
      <trkpt lat="51.1456620" lon="7.1530360">
        <ele>113.5700000</ele>
        <time>2010-08-21T10:32:39Z</time>
      </trkpt>
      <trkpt lat="51.1455710" lon="7.1530590">
        <ele>113.5700000</ele>
        <time>2010-08-21T10:32:40Z</time>
      </trkpt>
      <trkpt lat="51.1454470" lon="7.1530380">
        <ele>114.5300000</ele>
        <time>2010-08-21T10:32:41Z</time>
      </trkpt>
      <trkpt lat="51.1453530" lon="7.1529500">
        <ele>114.0500000</ele>
        <time>2010-08-21T10:32:42Z</time>
      </trkpt>
      <trkpt lat="51.1452570" lon="7.1528310">
        <ele>115.5000000</ele>
        <time>2010-08-21T10:32:43Z</time>
      </trkpt>
      <trkpt lat="51.1451140" lon="7.1527080">
        <ele>115.9800000</ele>
        <time>2010-08-21T10:32:44Z</time>
      </trkpt>
      <trkpt lat="51.1449040" lon="7.1525340">
        <ele>117.4200000</ele>
        <time>2010-08-21T10:32:45Z</time>
      </trkpt>
      <trkpt lat="51.1438670" lon="7.1517520">
        <ele>125.5900000</ele>
        <time>2010-08-21T10:32:50Z</time>
      </trkpt>
      <trkpt lat="51.1434810" lon="7.1512970">
        <ele>128.4700000</ele>
        <time>2010-08-21T10:32:53Z</time>
      </trkpt>
      <trkpt lat="51.1433890" lon="7.1511460">
        <ele>128.9500000</ele>
        <time>2010-08-21T10:32:54Z</time>
      </trkpt>
      <trkpt lat="51.1433330" lon="7.1510040">
        <ele>131.3600000</ele>
        <time>2010-08-21T10:32:55Z</time>
      </trkpt>
      <trkpt lat="51.1432690" lon="7.1509110">
        <ele>132.3200000</ele>
        <time>2010-08-21T10:32:56Z</time>
      </trkpt>
      <trkpt lat="51.1431810" lon="7.1508550">
        <ele>133.2800000</ele>
        <time>2010-08-21T10:32:57Z</time>
      </trkpt>
      <trkpt lat="51.1430700" lon="7.1508420">
        <ele>133.7600000</ele>
        <time>2010-08-21T10:32:58Z</time>
      </trkpt>
      <trkpt lat="51.1429470" lon="7.1508590">
        <ele>134.2400000</ele>
        <time>2010-08-21T10:32:59Z</time>
      </trkpt>
      <trkpt lat="51.1428010" lon="7.1508900">
        <ele>135.6800000</ele>
        <time>2010-08-21T10:33:00Z</time>
      </trkpt>
      <trkpt lat="51.1426540" lon="7.1509600">
        <ele>137.6100000</ele>
        <time>2010-08-21T10:33:01Z</time>
      </trkpt>
      <trkpt lat="51.1420850" lon="7.1509400">
        <ele>142.8900000</ele>
        <time>2010-08-21T10:33:05Z</time>
      </trkpt>
      <trkpt lat="51.1417990" lon="7.1508550">
        <ele>145.3000000</ele>
        <time>2010-08-21T10:33:07Z</time>
      </trkpt>
      <trkpt lat="51.1416500" lon="7.1508910">
        <ele>146.7400000</ele>
        <time>2010-08-21T10:33:08Z</time>
      </trkpt>
      <trkpt lat="51.1415310" lon="7.1509690">
        <ele>147.7000000</ele>
        <time>2010-08-21T10:33:09Z</time>
      </trkpt>
      <trkpt lat="51.1414370" lon="7.1510890">
        <ele>150.5800000</ele>
        <time>2010-08-21T10:33:10Z</time>
      </trkpt>
      <trkpt lat="51.1413740" lon="7.1512190">
        <ele>151.0600000</ele>
        <time>2010-08-21T10:33:11Z</time>
      </trkpt>
      <trkpt lat="51.1412650" lon="7.1513750">
        <ele>153.4700000</ele>
        <time>2010-08-21T10:33:12Z</time>
      </trkpt>
      <trkpt lat="51.1411680" lon="7.1515530">
        <ele>154.4300000</ele>
        <time>2010-08-21T10:33:13Z</time>
      </trkpt>
      <trkpt lat="51.1410520" lon="7.1517070">
        <ele>155.8700000</ele>
        <time>2010-08-21T10:33:14Z</time>
      </trkpt>
      <trkpt lat="51.1409110" lon="7.1518360">
        <ele>157.3100000</ele>
        <time>2010-08-21T10:33:15Z</time>
      </trkpt>
      <trkpt lat="51.1407580" lon="7.1519530">
        <ele>157.3100000</ele>
        <time>2010-08-21T10:33:16Z</time>
      </trkpt>
      <trkpt lat="51.1406050" lon="7.1520790">
        <ele>158.7500000</ele>
        <time>2010-08-21T10:33:17Z</time>
      </trkpt>
      <trkpt lat="51.1404560" lon="7.1522050">
        <ele>160.6800000</ele>
        <time>2010-08-21T10:33:18Z</time>
      </trkpt>
      <trkpt lat="51.1401820" lon="7.1523540">
        <ele>164.0400000</ele>
        <time>2010-08-21T10:33:20Z</time>
      </trkpt>
      <trkpt lat="51.1400530" lon="7.1523950">
        <ele>165.0000000</ele>
        <time>2010-08-21T10:33:21Z</time>
      </trkpt>
      <trkpt lat="51.1398120" lon="7.1524800">
        <ele>167.4100000</ele>
        <time>2010-08-21T10:33:23Z</time>
      </trkpt>
      <trkpt lat="51.1397140" lon="7.1525570">
        <ele>168.8500000</ele>
        <time>2010-08-21T10:33:24Z</time>
      </trkpt>
      <trkpt lat="51.1396150" lon="7.1526460">
        <ele>170.2900000</ele>
        <time>2010-08-21T10:33:25Z</time>
      </trkpt>
      <trkpt lat="51.1395760" lon="7.1527690">
        <ele>171.2500000</ele>
        <time>2010-08-21T10:33:26Z</time>
      </trkpt>
      <trkpt lat="51.1395380" lon="7.1529110">
        <ele>172.6900000</ele>
        <time>2010-08-21T10:33:27Z</time>
      </trkpt>
      <trkpt lat="51.1395270" lon="7.1530980">
        <ele>174.1400000</ele>
        <time>2010-08-21T10:33:28Z</time>
      </trkpt>
      <trkpt lat="51.1395470" lon="7.1533090">
        <ele>175.5800000</ele>
        <time>2010-08-21T10:33:29Z</time>
      </trkpt>
      <trkpt lat="51.1395700" lon="7.1535270">
        <ele>176.0600000</ele>
        <time>2010-08-21T10:33:30Z</time>
      </trkpt>
      <trkpt lat="51.1395970" lon="7.1537470">
        <ele>175.1000000</ele>
        <time>2010-08-21T10:33:31Z</time>
      </trkpt>
      <trkpt lat="51.1395130" lon="7.1543610">
        <ele>180.3800000</ele>
        <time>2010-08-21T10:33:35Z</time>
      </trkpt>
      <trkpt lat="51.1394120" lon="7.1543610">
        <ele>181.3500000</ele>
        <time>2010-08-21T10:33:36Z</time>
      </trkpt>
      <trkpt lat="51.1393170" lon="7.1543310">
        <ele>182.3100000</ele>
        <time>2010-08-21T10:33:37Z</time>
      </trkpt>
      <trkpt lat="51.1392100" lon="7.1542570">
        <ele>183.2700000</ele>
        <time>2010-08-21T10:33:38Z</time>
      </trkpt>
      <trkpt lat="51.1391090" lon="7.1541860">
        <ele>184.2300000</ele>
        <time>2010-08-21T10:33:39Z</time>
      </trkpt>
      <trkpt lat="51.1390010" lon="7.1541330">
        <ele>185.1900000</ele>
        <time>2010-08-21T10:33:40Z</time>
      </trkpt>
      <trkpt lat="51.1388910" lon="7.1540880">
        <ele>186.6300000</ele>
        <time>2010-08-21T10:33:41Z</time>
      </trkpt>
      <trkpt lat="51.1387910" lon="7.1540230">
        <ele>187.1100000</ele>
        <time>2010-08-21T10:33:42Z</time>
      </trkpt>
      <trkpt lat="51.1387030" lon="7.1539310">
        <ele>187.1100000</ele>
        <time>2010-08-21T10:33:43Z</time>
      </trkpt>
      <trkpt lat="51.1386170" lon="7.1538180">
        <ele>187.5900000</ele>
        <time>2010-08-21T10:33:44Z</time>
      </trkpt>
      <trkpt lat="51.1385450" lon="7.1536860">
        <ele>187.5900000</ele>
        <time>2010-08-21T10:33:45Z</time>
      </trkpt>
      <trkpt lat="51.1384790" lon="7.1535510">
        <ele>188.0800000</ele>
        <time>2010-08-21T10:33:46Z</time>
      </trkpt>
      <trkpt lat="51.1384320" lon="7.1534280">
        <ele>188.0800000</ele>
        <time>2010-08-21T10:33:47Z</time>
      </trkpt>
      <trkpt lat="51.1383160" lon="7.1531390">
        <ele>190.4800000</ele>
        <time>2010-08-21T10:33:50Z</time>
      </trkpt>
      <trkpt lat="51.1382540" lon="7.1530960">
        <ele>190.4800000</ele>
        <time>2010-08-21T10:33:51Z</time>
      </trkpt>
      <trkpt lat="51.1381850" lon="7.1531020">
        <ele>190.9600000</ele>
        <time>2010-08-21T10:33:52Z</time>
      </trkpt>
      <trkpt lat="51.1381050" lon="7.1531370">
        <ele>190.9600000</ele>
        <time>2010-08-21T10:33:53Z</time>
      </trkpt>
      <trkpt lat="51.1380230" lon="7.1531910">
        <ele>191.4400000</ele>
        <time>2010-08-21T10:33:54Z</time>
      </trkpt>
      <trkpt lat="51.1375690" lon="7.1535130">
        <ele>194.8000000</ele>
        <time>2010-08-21T10:33:59Z</time>
      </trkpt>
      <trkpt lat="51.1375110" lon="7.1536370">
        <ele>195.7700000</ele>
        <time>2010-08-21T10:34:00Z</time>
      </trkpt>
      <trkpt lat="51.1374930" lon="7.1537820">
        <ele>196.2500000</ele>
        <time>2010-08-21T10:34:01Z</time>
      </trkpt>
      <trkpt lat="51.1375130" lon="7.1539240">
        <ele>197.2100000</ele>
        <time>2010-08-21T10:34:02Z</time>
      </trkpt>
      <trkpt lat="51.1375510" lon="7.1540530">
        <ele>198.6500000</ele>
        <time>2010-08-21T10:34:03Z</time>
      </trkpt>
      <trkpt lat="51.1376180" lon="7.1541360">
        <ele>200.5700000</ele>
        <time>2010-08-21T10:34:04Z</time>
      </trkpt>
      <trkpt lat="51.1376300" lon="7.1542320">
        <ele>200.5700000</ele>
        <time>2010-08-21T10:34:05Z</time>
      </trkpt>
      <trkpt lat="51.1376440" lon="7.1543410">
        <ele>201.0500000</ele>
        <time>2010-08-21T10:34:06Z</time>
      </trkpt>
      <trkpt lat="51.1377440" lon="7.1547610">
        <ele>202.9800000</ele>
        <time>2010-08-21T10:34:10Z</time>
      </trkpt>
      <trkpt lat="51.1378070" lon="7.1550090">
        <ele>204.9000000</ele>
        <time>2010-08-21T10:34:12Z</time>
      </trkpt>
      <trkpt lat="51.1378360" lon="7.1551220">
        <ele>205.3800000</ele>
        <time>2010-08-21T10:34:13Z</time>
      </trkpt>
      <trkpt lat="51.1378770" lon="7.1552130">
        <ele>206.8200000</ele>
        <time>2010-08-21T10:34:14Z</time>
      </trkpt>
      <trkpt lat="51.1379600" lon="7.1554360">
        <ele>209.7000000</ele>
        <time>2010-08-21T10:34:17Z</time>
      </trkpt>
      <trkpt lat="51.1380010" lon="7.1554710">
        <ele>210.6700000</ele>
        <time>2010-08-21T10:34:18Z</time>
      </trkpt>
      <trkpt lat="51.1380290" lon="7.1555600">
        <ele>211.1500000</ele>
        <time>2010-08-21T10:34:19Z</time>
      </trkpt>
      <trkpt lat="51.1380580" lon="7.1556980">
        <ele>211.6300000</ele>
        <time>2010-08-21T10:34:20Z</time>
      </trkpt>
      <trkpt lat="51.1380670" lon="7.1558730">
        <ele>212.1100000</ele>
        <time>2010-08-21T10:34:21Z</time>
      </trkpt>
      <trkpt lat="51.1380600" lon="7.1560580">
        <ele>212.1100000</ele>
        <time>2010-08-21T10:34:22Z</time>
      </trkpt>
      <trkpt lat="51.1380330" lon="7.1562630">
        <ele>212.5900000</ele>
        <time>2010-08-21T10:34:23Z</time>
      </trkpt>
      <trkpt lat="51.1379990" lon="7.1564680">
        <ele>213.0700000</ele>
        <time>2010-08-21T10:34:24Z</time>
      </trkpt>
      <trkpt lat="51.1379200" lon="7.1571800">
        <ele>216.4300000</ele>
        <time>2010-08-21T10:34:28Z</time>
      </trkpt>
      <trkpt lat="51.1379460" lon="7.1573350">
        <ele>217.4000000</ele>
        <time>2010-08-21T10:34:29Z</time>
      </trkpt>
      <trkpt lat="51.1379980" lon="7.1574750">
        <ele>218.3600000</ele>
        <time>2010-08-21T10:34:30Z</time>
      </trkpt>
      <trkpt lat="51.1380630" lon="7.1576040">
        <ele>219.3200000</ele>
        <time>2010-08-21T10:34:31Z</time>
      </trkpt>
      <trkpt lat="51.1381310" lon="7.1577350">
        <ele>219.8000000</ele>
        <time>2010-08-21T10:34:32Z</time>
      </trkpt>
      <trkpt lat="51.1388070" lon="7.1588600">
        <ele>228.9300000</ele>
        <time>2010-08-21T10:34:40Z</time>
      </trkpt>
      <trkpt lat="51.1388720" lon="7.1589940">
        <ele>229.8900000</ele>
        <time>2010-08-21T10:34:41Z</time>
      </trkpt>
      <trkpt lat="51.1389250" lon="7.1591370">
        <ele>231.3300000</ele>
        <time>2010-08-21T10:34:42Z</time>
      </trkpt>
      <trkpt lat="51.1389690" lon="7.1592880">
        <ele>232.3000000</ele>
        <time>2010-08-21T10:34:43Z</time>
      </trkpt>
      <trkpt lat="51.1390020" lon="7.1594450">
        <ele>232.7800000</ele>
        <time>2010-08-21T10:34:44Z</time>
      </trkpt>
      <trkpt lat="51.1390180" lon="7.1596060">
        <ele>233.7400000</ele>
        <time>2010-08-21T10:34:45Z</time>
      </trkpt>
      <trkpt lat="51.1390200" lon="7.1597780">
        <ele>234.7000000</ele>
        <time>2010-08-21T10:34:46Z</time>
      </trkpt>
      <trkpt lat="51.1390170" lon="7.1599580">
        <ele>235.1800000</ele>
        <time>2010-08-21T10:34:47Z</time>
      </trkpt>
      <trkpt lat="51.1390310" lon="7.1621930">
        <ele>239.0200000</ele>
        <time>2010-08-21T10:34:57Z</time>
      </trkpt>
      <trkpt lat="51.1390600" lon="7.1646680">
        <ele>246.2300000</ele>
        <time>2010-08-21T10:35:06Z</time>
      </trkpt>
      <trkpt lat="51.1388690" lon="7.1666440">
        <ele>254.4100000</ele>
        <time>2010-08-21T10:35:14Z</time>
      </trkpt>
      <trkpt lat="51.1388860" lon="7.1670940">
        <ele>256.8100000</ele>
        <time>2010-08-21T10:35:16Z</time>
      </trkpt>
      <trkpt lat="51.1389230" lon="7.1673180">
        <ele>258.2500000</ele>
        <time>2010-08-21T10:35:17Z</time>
      </trkpt>
      <trkpt lat="51.1391660" lon="7.1690780">
        <ele>271.2300000</ele>
        <time>2010-08-21T10:35:26Z</time>
      </trkpt>
      <trkpt lat="51.1391610" lon="7.1692710">
        <ele>272.1900000</ele>
        <time>2010-08-21T10:35:27Z</time>
      </trkpt>
      <trkpt lat="51.1391370" lon="7.1694610">
        <ele>273.1500000</ele>
        <time>2010-08-21T10:35:28Z</time>
      </trkpt>
      <trkpt lat="51.1390920" lon="7.1696490">
        <ele>273.6300000</ele>
        <time>2010-08-21T10:35:29Z</time>
      </trkpt>
      <trkpt lat="51.1390420" lon="7.1698300">
        <ele>274.1100000</ele>
        <time>2010-08-21T10:35:30Z</time>
      </trkpt>
      <trkpt lat="51.1388630" lon="7.1704490">
        <ele>276.0400000</ele>
        <time>2010-08-21T10:35:34Z</time>
      </trkpt>
      <trkpt lat="51.1388370" lon="7.1705890">
        <ele>276.0400000</ele>
        <time>2010-08-21T10:35:35Z</time>
      </trkpt>
      <trkpt lat="51.1388220" lon="7.1707270">
        <ele>276.5200000</ele>
        <time>2010-08-21T10:35:36Z</time>
      </trkpt>
      <trkpt lat="51.1388160" lon="7.1708700">
        <ele>276.5200000</ele>
        <time>2010-08-21T10:35:37Z</time>
      </trkpt>
      <trkpt lat="51.1388160" lon="7.1710260">
        <ele>277.0000000</ele>
        <time>2010-08-21T10:35:38Z</time>
      </trkpt>
      <trkpt lat="51.1388240" lon="7.1711930">
        <ele>277.0000000</ele>
        <time>2010-08-21T10:35:39Z</time>
      </trkpt>
      <trkpt lat="51.1388390" lon="7.1713710">
        <ele>277.0000000</ele>
        <time>2010-08-21T10:35:40Z</time>
      </trkpt>
      <trkpt lat="51.1388610" lon="7.1715600">
        <ele>276.5200000</ele>
        <time>2010-08-21T10:35:41Z</time>
      </trkpt>
      <trkpt lat="51.1392040" lon="7.1740150">
        <ele>275.5600000</ele>
        <time>2010-08-21T10:35:52Z</time>
      </trkpt>
      <trkpt lat="51.1393730" lon="7.1758780">
        <ele>280.3600000</ele>
        <time>2010-08-21T10:36:00Z</time>
      </trkpt>
      <trkpt lat="51.1393500" lon="7.1761170">
        <ele>280.8400000</ele>
        <time>2010-08-21T10:36:01Z</time>
      </trkpt>
      <trkpt lat="51.1391130" lon="7.1779260">
        <ele>286.6100000</ele>
        <time>2010-08-21T10:36:10Z</time>
      </trkpt>
      <trkpt lat="51.1388970" lon="7.1804470">
        <ele>290.4600000</ele>
        <time>2010-08-21T10:36:23Z</time>
      </trkpt>
      <trkpt lat="51.1388120" lon="7.1820200">
        <ele>293.3400000</ele>
        <time>2010-08-21T10:36:32Z</time>
      </trkpt>
      <trkpt lat="51.1387940" lon="7.1823730">
        <ele>294.3000000</ele>
        <time>2010-08-21T10:36:36Z</time>
      </trkpt>
      <trkpt lat="51.1387970" lon="7.1824490">
        <ele>294.7800000</ele>
        <time>2010-08-21T10:36:37Z</time>
      </trkpt>
      <trkpt lat="51.1387970" lon="7.1825260">
        <ele>294.7800000</ele>
        <time>2010-08-21T10:36:38Z</time>
      </trkpt>
      <trkpt lat="51.1388000" lon="7.1825980">
        <ele>295.2600000</ele>
        <time>2010-08-21T10:36:39Z</time>
      </trkpt>
      <trkpt lat="51.1388090" lon="7.1826740">
        <ele>295.2600000</ele>
        <time>2010-08-21T10:36:40Z</time>
      </trkpt>
      <trkpt lat="51.1388140" lon="7.1827650">
        <ele>294.7800000</ele>
        <time>2010-08-21T10:36:41Z</time>
      </trkpt>
      <trkpt lat="51.1388150" lon="7.1828940">
        <ele>294.7800000</ele>
        <time>2010-08-21T10:36:42Z</time>
      </trkpt>
      <trkpt lat="51.1388210" lon="7.1831290">
        <ele>294.3000000</ele>
        <time>2010-08-21T10:36:43Z</time>
      </trkpt>
      <trkpt lat="51.1388300" lon="7.1833720">
        <ele>293.8200000</ele>
        <time>2010-08-21T10:36:44Z</time>
      </trkpt>
      <trkpt lat="51.1388090" lon="7.1836600">
        <ele>293.3400000</ele>
        <time>2010-08-21T10:36:45Z</time>
      </trkpt>
      <trkpt lat="51.1387860" lon="7.1839410">
        <ele>292.8600000</ele>
        <time>2010-08-21T10:36:46Z</time>
      </trkpt>
      <trkpt lat="51.1386150" lon="7.1861160">
        <ele>290.9400000</ele>
        <time>2010-08-21T10:36:55Z</time>
      </trkpt>
      <trkpt lat="51.1382240" lon="7.1886700">
        <ele>283.2500000</ele>
        <time>2010-08-21T10:37:07Z</time>
      </trkpt>
      <trkpt lat="51.1379990" lon="7.1913240">
        <ele>278.9200000</ele>
        <time>2010-08-21T10:37:19Z</time>
      </trkpt>
      <trkpt lat="51.1377020" lon="7.1940020">
        <ele>284.2100000</ele>
        <time>2010-08-21T10:37:32Z</time>
      </trkpt>
      <trkpt lat="51.1375970" lon="7.1955760">
        <ele>290.9400000</ele>
        <time>2010-08-21T10:37:40Z</time>
      </trkpt>
      <trkpt lat="51.1372160" lon="7.1971450">
        <ele>295.2600000</ele>
        <time>2010-08-21T10:37:49Z</time>
      </trkpt>
      <trkpt lat="51.1371580" lon="7.1972890">
        <ele>296.7000000</ele>
        <time>2010-08-21T10:37:50Z</time>
      </trkpt>
      <trkpt lat="51.1370320" lon="7.1984070">
        <ele>300.5500000</ele>
        <time>2010-08-21T10:37:58Z</time>
      </trkpt>
      <trkpt lat="51.1370400" lon="7.1985420">
        <ele>302.4700000</ele>
        <time>2010-08-21T10:38:00Z</time>
      </trkpt>
      <trkpt lat="51.1368990" lon="7.1988600">
        <ele>303.4300000</ele>
        <time>2010-08-21T10:38:07Z</time>
      </trkpt>
      <trkpt lat="51.1368040" lon="7.1989800">
        <ele>303.4300000</ele>
        <time>2010-08-21T10:38:09Z</time>
      </trkpt>
      <trkpt lat="51.1367710" lon="7.1990540">
        <ele>302.9500000</ele>
        <time>2010-08-21T10:38:10Z</time>
      </trkpt>
      <trkpt lat="51.1367540" lon="7.1991430">
        <ele>302.4700000</ele>
        <time>2010-08-21T10:38:11Z</time>
      </trkpt>
      <trkpt lat="51.1367610" lon="7.1992420">
        <ele>302.9500000</ele>
        <time>2010-08-21T10:38:12Z</time>
      </trkpt>
      <trkpt lat="51.1367650" lon="7.1993480">
        <ele>302.9500000</ele>
        <time>2010-08-21T10:38:13Z</time>
      </trkpt>
      <trkpt lat="51.1367520" lon="7.1994590">
        <ele>302.9500000</ele>
        <time>2010-08-21T10:38:14Z</time>
      </trkpt>
      <trkpt lat="51.1367240" lon="7.1995740">
        <ele>302.9500000</ele>
        <time>2010-08-21T10:38:15Z</time>
      </trkpt>
      <trkpt lat="51.1367010" lon="7.1997050">
        <ele>303.4300000</ele>
        <time>2010-08-21T10:38:16Z</time>
      </trkpt>
      <trkpt lat="51.1366750" lon="7.1998090">
        <ele>304.3900000</ele>
        <time>2010-08-21T10:38:17Z</time>
      </trkpt>
      <trkpt lat="51.1363400" lon="7.2007110">
        <ele>307.7600000</ele>
        <time>2010-08-21T10:38:25Z</time>
      </trkpt>
      <trkpt lat="51.1363090" lon="7.2008050">
        <ele>307.7600000</ele>
        <time>2010-08-21T10:38:26Z</time>
      </trkpt>
      <trkpt lat="51.1362470" lon="7.2010240">
        <ele>307.2800000</ele>
        <time>2010-08-21T10:38:28Z</time>
      </trkpt>
      <trkpt lat="51.1362050" lon="7.2011540">
        <ele>307.2800000</ele>
        <time>2010-08-21T10:38:29Z</time>
      </trkpt>
      <trkpt lat="51.1357600" lon="7.2023140">
        <ele>308.7200000</ele>
        <time>2010-08-21T10:38:41Z</time>
      </trkpt>
      <trkpt lat="51.1357020" lon="7.2025500">
        <ele>309.2000000</ele>
        <time>2010-08-21T10:38:42Z</time>
      </trkpt>
      <trkpt lat="51.1356420" lon="7.2027620">
        <ele>308.7200000</ele>
        <time>2010-08-21T10:38:43Z</time>
      </trkpt>
      <trkpt lat="51.1355910" lon="7.2029530">
        <ele>307.7600000</ele>
        <time>2010-08-21T10:38:44Z</time>
      </trkpt>
      <trkpt lat="51.1355120" lon="7.2032270">
        <ele>305.8400000</ele>
        <time>2010-08-21T10:38:46Z</time>
      </trkpt>
      <trkpt lat="51.1354650" lon="7.2033010">
        <ele>305.3600000</ele>
        <time>2010-08-21T10:38:47Z</time>
      </trkpt>
      <trkpt lat="51.1354210" lon="7.2033490">
        <ele>304.8800000</ele>
        <time>2010-08-21T10:38:48Z</time>
      </trkpt>
      <trkpt lat="51.1354010" lon="7.2033600">
        <ele>301.5100000</ele>
        <time>2010-08-21T10:38:55Z</time>
      </trkpt>
      <trkpt lat="51.1353930" lon="7.2034060">
        <ele>297.6700000</ele>
        <time>2010-08-21T10:39:31Z</time>
      </trkpt>
      <trkpt lat="51.1353720" lon="7.2034990">
        <ele>297.1800000</ele>
        <time>2010-08-21T10:39:32Z</time>
      </trkpt>
      <trkpt lat="51.1353810" lon="7.2036600">
        <ele>297.1800000</ele>
        <time>2010-08-21T10:39:33Z</time>
      </trkpt>
      <trkpt lat="51.1354290" lon="7.2038700">
        <ele>297.1800000</ele>
        <time>2010-08-21T10:39:34Z</time>
      </trkpt>
      <trkpt lat="51.1355170" lon="7.2041270">
        <ele>297.1800000</ele>
        <time>2010-08-21T10:39:35Z</time>
      </trkpt>
      <trkpt lat="51.1356220" lon="7.2043900">
        <ele>297.1800000</ele>
        <time>2010-08-21T10:39:36Z</time>
      </trkpt>
      <trkpt lat="51.1362600" lon="7.2063910">
        <ele>297.1800000</ele>
        <time>2010-08-21T10:39:43Z</time>
      </trkpt>
      <trkpt lat="51.1370810" lon="7.2086320">
        <ele>299.1100000</ele>
        <time>2010-08-21T10:39:53Z</time>
      </trkpt>
      <trkpt lat="51.1377180" lon="7.2097010">
        <ele>301.5100000</ele>
        <time>2010-08-21T10:40:01Z</time>
      </trkpt>
      <trkpt lat="51.1379360" lon="7.2100130">
        <ele>302.4700000</ele>
        <time>2010-08-21T10:40:04Z</time>
      </trkpt>
      <trkpt lat="51.1379640" lon="7.2100940">
        <ele>302.9500000</ele>
        <time>2010-08-21T10:40:05Z</time>
      </trkpt>
      <trkpt lat="51.1379630" lon="7.2101890">
        <ele>302.9500000</ele>
        <time>2010-08-21T10:40:06Z</time>
      </trkpt>
      <trkpt lat="51.1379230" lon="7.2102850">
        <ele>303.4300000</ele>
        <time>2010-08-21T10:40:07Z</time>
      </trkpt>
      <trkpt lat="51.1378550" lon="7.2104090">
        <ele>303.9100000</ele>
        <time>2010-08-21T10:40:08Z</time>
      </trkpt>
      <trkpt lat="51.1377590" lon="7.2105420">
        <ele>304.3900000</ele>
        <time>2010-08-21T10:40:09Z</time>
      </trkpt>
      <trkpt lat="51.1376440" lon="7.2106720">
        <ele>305.3600000</ele>
        <time>2010-08-21T10:40:10Z</time>
      </trkpt>
      <trkpt lat="51.1375270" lon="7.2107860">
        <ele>306.3200000</ele>
        <time>2010-08-21T10:40:11Z</time>
      </trkpt>
      <trkpt lat="51.1374150" lon="7.2108910">
        <ele>307.2800000</ele>
        <time>2010-08-21T10:40:12Z</time>
      </trkpt>
      <trkpt lat="51.1364100" lon="7.2117620">
        <ele>316.8900000</ele>
        <time>2010-08-21T10:40:20Z</time>
      </trkpt>
      <trkpt lat="51.1355690" lon="7.2125340">
        <ele>319.3000000</ele>
        <time>2010-08-21T10:40:27Z</time>
      </trkpt>
      <trkpt lat="51.1354300" lon="7.2126000">
        <ele>318.3300000</ele>
        <time>2010-08-21T10:40:28Z</time>
      </trkpt>
      <trkpt lat="51.1350310" lon="7.2127910">
        <ele>316.4100000</ele>
        <time>2010-08-21T10:40:31Z</time>
      </trkpt>
      <trkpt lat="51.1349120" lon="7.2128860">
        <ele>315.9300000</ele>
        <time>2010-08-21T10:40:32Z</time>
      </trkpt>
      <trkpt lat="51.1340130" lon="7.2139460">
        <ele>315.4500000</ele>
        <time>2010-08-21T10:40:41Z</time>
      </trkpt>
      <trkpt lat="51.1335010" lon="7.2144590">
        <ele>313.0500000</ele>
        <time>2010-08-21T10:40:46Z</time>
      </trkpt>
      <trkpt lat="51.1334000" lon="7.2145060">
        <ele>312.5700000</ele>
        <time>2010-08-21T10:40:47Z</time>
      </trkpt>
      <trkpt lat="51.1333060" lon="7.2145290">
        <ele>313.0500000</ele>
        <time>2010-08-21T10:40:48Z</time>
      </trkpt>
      <trkpt lat="51.1330520" lon="7.2145900">
        <ele>313.5300000</ele>
        <time>2010-08-21T10:40:54Z</time>
      </trkpt>
      <trkpt lat="51.1327560" lon="7.2146280">
        <ele>320.2600000</ele>
        <time>2010-08-21T10:41:09Z</time>
      </trkpt>
      <trkpt lat="51.1317450" lon="7.2150110">
        <ele>307.7600000</ele>
        <time>2010-08-21T10:41:20Z</time>
      </trkpt>
      <trkpt lat="51.1316390" lon="7.2150480">
        <ele>306.8000000</ele>
        <time>2010-08-21T10:41:21Z</time>
      </trkpt>
      <trkpt lat="51.1315280" lon="7.2150720">
        <ele>305.8400000</ele>
        <time>2010-08-21T10:41:22Z</time>
      </trkpt>
      <trkpt lat="51.1304720" lon="7.2152730">
        <ele>297.1800000</ele>
        <time>2010-08-21T10:41:31Z</time>
      </trkpt>
      <trkpt lat="51.1303480" lon="7.2153270">
        <ele>297.1800000</ele>
        <time>2010-08-21T10:41:32Z</time>
      </trkpt>
      <trkpt lat="51.1289450" lon="7.2162640">
        <ele>292.3800000</ele>
        <time>2010-08-21T10:41:44Z</time>
      </trkpt>
      <trkpt lat="51.1285690" lon="7.2164410">
        <ele>292.3800000</ele>
        <time>2010-08-21T10:41:47Z</time>
      </trkpt>
      <trkpt lat="51.1284420" lon="7.2164570">
        <ele>291.9000000</ele>
        <time>2010-08-21T10:41:48Z</time>
      </trkpt>
      <trkpt lat="51.1283160" lon="7.2164530">
        <ele>291.9000000</ele>
        <time>2010-08-21T10:41:49Z</time>
      </trkpt>
      <trkpt lat="51.1281880" lon="7.2164340">
        <ele>291.9000000</ele>
        <time>2010-08-21T10:41:50Z</time>
      </trkpt>
      <trkpt lat="51.1280580" lon="7.2164060">
        <ele>291.4200000</ele>
        <time>2010-08-21T10:41:51Z</time>
      </trkpt>
      <trkpt lat="51.1264310" lon="7.2161320">
        <ele>284.6900000</ele>
        <time>2010-08-21T10:42:03Z</time>
      </trkpt>
      <trkpt lat="51.1251940" lon="7.2154970">
        <ele>284.2100000</ele>
        <time>2010-08-21T10:42:13Z</time>
      </trkpt>
      <trkpt lat="51.1236150" lon="7.2149580">
        <ele>276.0400000</ele>
        <time>2010-08-21T10:42:25Z</time>
      </trkpt>
      <trkpt lat="51.1233300" lon="7.2149920">
        <ele>273.6300000</ele>
        <time>2010-08-21T10:42:27Z</time>
      </trkpt>
      <trkpt lat="51.1231780" lon="7.2150410">
        <ele>272.6700000</ele>
        <time>2010-08-21T10:42:28Z</time>
      </trkpt>
      <trkpt lat="51.1219340" lon="7.2154730">
        <ele>264.5000000</ele>
        <time>2010-08-21T10:42:36Z</time>
      </trkpt>
      <trkpt lat="51.1214270" lon="7.2156500">
        <ele>261.1400000</ele>
        <time>2010-08-21T10:42:42Z</time>
      </trkpt>
      <trkpt lat="51.1208350" lon="7.2158690">
        <ele>259.2100000</ele>
        <time>2010-08-21T10:42:46Z</time>
      </trkpt>
      <trkpt lat="51.1196980" lon="7.2166530">
        <ele>261.1400000</ele>
        <time>2010-08-21T10:42:52Z</time>
      </trkpt>
      <trkpt lat="51.1186720" lon="7.2172990">
        <ele>259.6900000</ele>
        <time>2010-08-21T10:42:59Z</time>
      </trkpt>
      <trkpt lat="51.1174500" lon="7.2177800">
        <ele>244.7900000</ele>
        <time>2010-08-21T10:43:06Z</time>
      </trkpt>
      <trkpt lat="51.1171670" lon="7.2179260">
        <ele>240.9500000</ele>
        <time>2010-08-21T10:43:08Z</time>
      </trkpt>
      <trkpt lat="51.1170400" lon="7.2180360">
        <ele>239.0200000</ele>
        <time>2010-08-21T10:43:09Z</time>
      </trkpt>
      <trkpt lat="51.1169190" lon="7.2181640">
        <ele>237.1000000</ele>
        <time>2010-08-21T10:43:10Z</time>
      </trkpt>
      <trkpt lat="51.1160570" lon="7.2194070">
        <ele>222.6800000</ele>
        <time>2010-08-21T10:43:18Z</time>
      </trkpt>
      <trkpt lat="51.1159900" lon="7.2195930">
        <ele>221.7200000</ele>
        <time>2010-08-21T10:43:19Z</time>
      </trkpt>
      <trkpt lat="51.1159300" lon="7.2197860">
        <ele>219.3200000</ele>
        <time>2010-08-21T10:43:20Z</time>
      </trkpt>
      <trkpt lat="51.1157720" lon="7.2203110">
        <ele>214.9900000</ele>
        <time>2010-08-21T10:43:23Z</time>
      </trkpt>
      <trkpt lat="51.1152610" lon="7.2217470">
        <ele>204.4200000</ele>
        <time>2010-08-21T10:43:32Z</time>
      </trkpt>
      <trkpt lat="51.1144140" lon="7.2232330">
        <ele>199.1300000</ele>
        <time>2010-08-21T10:43:40Z</time>
      </trkpt>
      <trkpt lat="51.1138870" lon="7.2241880">
        <ele>201.5300000</ele>
        <time>2010-08-21T10:43:44Z</time>
      </trkpt>
      <trkpt lat="51.1136700" lon="7.2249480">
        <ele>206.8200000</ele>
        <time>2010-08-21T10:43:47Z</time>
      </trkpt>
      <trkpt lat="51.1136540" lon="7.2252390">
        <ele>208.7400000</ele>
        <time>2010-08-21T10:43:48Z</time>
      </trkpt>
      <trkpt lat="51.1136330" lon="7.2255180">
        <ele>210.6700000</ele>
        <time>2010-08-21T10:43:49Z</time>
      </trkpt>
      <trkpt lat="51.1134730" lon="7.2263350">
        <ele>214.9900000</ele>
        <time>2010-08-21T10:43:52Z</time>
      </trkpt>
      <trkpt lat="51.1133700" lon="7.2265370">
        <ele>215.9500000</ele>
        <time>2010-08-21T10:43:53Z</time>
      </trkpt>
      <trkpt lat="51.1132300" lon="7.2267450">
        <ele>216.9100000</ele>
        <time>2010-08-21T10:43:54Z</time>
      </trkpt>
      <trkpt lat="51.1130740" lon="7.2269380">
        <ele>218.8400000</ele>
        <time>2010-08-21T10:43:55Z</time>
      </trkpt>
      <trkpt lat="51.1128950" lon="7.2270960">
        <ele>220.7600000</ele>
        <time>2010-08-21T10:43:56Z</time>
      </trkpt>
      <trkpt lat="51.1126910" lon="7.2272060">
        <ele>225.0900000</ele>
        <time>2010-08-21T10:43:57Z</time>
      </trkpt>
      <trkpt lat="51.1124800" lon="7.2272320">
        <ele>228.9300000</ele>
        <time>2010-08-21T10:43:58Z</time>
      </trkpt>
      <trkpt lat="51.1123490" lon="7.2272950">
        <ele>229.8900000</ele>
        <time>2010-08-21T10:43:59Z</time>
      </trkpt>
      <trkpt lat="51.1117350" lon="7.2275980">
        <ele>240.9500000</ele>
        <time>2010-08-21T10:44:05Z</time>
      </trkpt>
      <trkpt lat="51.1116320" lon="7.2274790">
        <ele>241.4300000</ele>
        <time>2010-08-21T10:44:06Z</time>
      </trkpt>
      <trkpt lat="51.1114990" lon="7.2273700">
        <ele>241.9100000</ele>
        <time>2010-08-21T10:44:07Z</time>
      </trkpt>
      <trkpt lat="51.1113980" lon="7.2272640">
        <ele>242.8700000</ele>
        <time>2010-08-21T10:44:08Z</time>
      </trkpt>
      <trkpt lat="51.1112960" lon="7.2272020">
        <ele>243.8300000</ele>
        <time>2010-08-21T10:44:09Z</time>
      </trkpt>
      <trkpt lat="51.1111820" lon="7.2271780">
        <ele>244.7900000</ele>
        <time>2010-08-21T10:44:10Z</time>
      </trkpt>
      <trkpt lat="51.1110310" lon="7.2272150">
        <ele>245.7500000</ele>
        <time>2010-08-21T10:44:11Z</time>
      </trkpt>
      <trkpt lat="51.1108810" lon="7.2272550">
        <ele>246.2300000</ele>
        <time>2010-08-21T10:44:12Z</time>
      </trkpt>
      <trkpt lat="51.1107390" lon="7.2273100">
        <ele>248.6400000</ele>
        <time>2010-08-21T10:44:13Z</time>
      </trkpt>
      <trkpt lat="51.1102450" lon="7.2273000">
        <ele>256.8100000</ele>
        <time>2010-08-21T10:44:17Z</time>
      </trkpt>
      <trkpt lat="51.1101760" lon="7.2271930">
        <ele>257.2900000</ele>
        <time>2010-08-21T10:44:18Z</time>
      </trkpt>
      <trkpt lat="51.1101010" lon="7.2270770">
        <ele>258.2500000</ele>
        <time>2010-08-21T10:44:19Z</time>
      </trkpt>
      <trkpt lat="51.1100200" lon="7.2269410">
        <ele>259.2100000</ele>
        <time>2010-08-21T10:44:20Z</time>
      </trkpt>
      <trkpt lat="51.1099640" lon="7.2268430">
        <ele>260.1700000</ele>
        <time>2010-08-21T10:44:21Z</time>
      </trkpt>
      <trkpt lat="51.1098990" lon="7.2268000">
        <ele>261.1400000</ele>
        <time>2010-08-21T10:44:22Z</time>
      </trkpt>
      <trkpt lat="51.1098280" lon="7.2268320">
        <ele>261.6200000</ele>
        <time>2010-08-21T10:44:23Z</time>
      </trkpt>
      <trkpt lat="51.1098040" lon="7.2272520">
        <ele>264.0200000</ele>
        <time>2010-08-21T10:44:26Z</time>
      </trkpt>
      <trkpt lat="51.1098610" lon="7.2275280">
        <ele>260.6500000</ele>
        <time>2010-08-21T10:44:28Z</time>
      </trkpt>
      <trkpt lat="51.1099370" lon="7.2276690">
        <ele>259.2100000</ele>
        <time>2010-08-21T10:44:29Z</time>
      </trkpt>
      <trkpt lat="51.1100220" lon="7.2278030">
        <ele>257.7700000</ele>
        <time>2010-08-21T10:44:30Z</time>
      </trkpt>
      <trkpt lat="51.1101390" lon="7.2279170">
        <ele>256.8100000</ele>
        <time>2010-08-21T10:44:31Z</time>
      </trkpt>
      <trkpt lat="51.1102160" lon="7.2280310">
        <ele>255.8500000</ele>
        <time>2010-08-21T10:44:32Z</time>
      </trkpt>
      <trkpt lat="51.1103980" lon="7.2282520">
        <ele>259.6900000</ele>
        <time>2010-08-21T10:44:34Z</time>
      </trkpt>
      <trkpt lat="51.1104590" lon="7.2283660">
        <ele>261.6200000</ele>
        <time>2010-08-21T10:44:35Z</time>
      </trkpt>
      <trkpt lat="51.1104850" lon="7.2284560">
        <ele>263.0600000</ele>
        <time>2010-08-21T10:44:36Z</time>
      </trkpt>
      <trkpt lat="51.1105050" lon="7.2285790">
        <ele>263.5400000</ele>
        <time>2010-08-21T10:44:37Z</time>
      </trkpt>
      <trkpt lat="51.1105290" lon="7.2287150">
        <ele>266.4200000</ele>
        <time>2010-08-21T10:44:38Z</time>
      </trkpt>
      <trkpt lat="51.1105330" lon="7.2288540">
        <ele>267.3800000</ele>
        <time>2010-08-21T10:44:39Z</time>
      </trkpt>
      <trkpt lat="51.1105230" lon="7.2289920">
        <ele>268.3500000</ele>
        <time>2010-08-21T10:44:40Z</time>
      </trkpt>
      <trkpt lat="51.1104970" lon="7.2291190">
        <ele>269.3100000</ele>
        <time>2010-08-21T10:44:41Z</time>
      </trkpt>
      <trkpt lat="51.1104850" lon="7.2292160">
        <ele>271.2300000</ele>
        <time>2010-08-21T10:44:42Z</time>
      </trkpt>
      <trkpt lat="51.1105160" lon="7.2296420">
        <ele>275.5600000</ele>
        <time>2010-08-21T10:44:50Z</time>
      </trkpt>
      <trkpt lat="51.1104950" lon="7.2300160">
        <ele>274.1100000</ele>
        <time>2010-08-21T10:45:00Z</time>
      </trkpt>
      <trkpt lat="51.1104150" lon="7.2302950">
        <ele>274.1100000</ele>
        <time>2010-08-21T10:45:03Z</time>
      </trkpt>
      <trkpt lat="51.1104090" lon="7.2303940">
        <ele>274.1100000</ele>
        <time>2010-08-21T10:45:04Z</time>
      </trkpt>
      <trkpt lat="51.1104400" lon="7.2305280">
        <ele>274.1100000</ele>
        <time>2010-08-21T10:45:05Z</time>
      </trkpt>
      <trkpt lat="51.1105100" lon="7.2306570">
        <ele>275.0700000</ele>
        <time>2010-08-21T10:45:06Z</time>
      </trkpt>
      <trkpt lat="51.1105910" lon="7.2308080">
        <ele>274.5900000</ele>
        <time>2010-08-21T10:45:07Z</time>
      </trkpt>
      <trkpt lat="51.1107090" lon="7.2309570">
        <ele>274.5900000</ele>
        <time>2010-08-21T10:45:08Z</time>
      </trkpt>
      <trkpt lat="51.1108460" lon="7.2310960">
        <ele>275.0700000</ele>
        <time>2010-08-21T10:45:09Z</time>
      </trkpt>
      <trkpt lat="51.1109990" lon="7.2312440">
        <ele>275.5600000</ele>
        <time>2010-08-21T10:45:10Z</time>
      </trkpt>
      <trkpt lat="51.1111610" lon="7.2313860">
        <ele>276.0400000</ele>
        <time>2010-08-21T10:45:11Z</time>
      </trkpt>
      <trkpt lat="51.1123480" lon="7.2325050">
        <ele>276.0400000</ele>
        <time>2010-08-21T10:45:19Z</time>
      </trkpt>
      <trkpt lat="51.1124890" lon="7.2327050">
        <ele>276.0400000</ele>
        <time>2010-08-21T10:45:20Z</time>
      </trkpt>
      <trkpt lat="51.1135460" lon="7.2344020">
        <ele>280.8400000</ele>
        <time>2010-08-21T10:45:29Z</time>
      </trkpt>
      <trkpt lat="51.1136570" lon="7.2345180">
        <ele>281.3200000</ele>
        <time>2010-08-21T10:45:30Z</time>
      </trkpt>
      <trkpt lat="51.1137830" lon="7.2346060">
        <ele>281.8000000</ele>
        <time>2010-08-21T10:45:31Z</time>
      </trkpt>
      <trkpt lat="51.1139270" lon="7.2346740">
        <ele>282.2800000</ele>
        <time>2010-08-21T10:45:32Z</time>
      </trkpt>
      <trkpt lat="51.1140780" lon="7.2347510">
        <ele>282.2800000</ele>
        <time>2010-08-21T10:45:33Z</time>
      </trkpt>
      <trkpt lat="51.1149020" lon="7.2351290">
        <ele>284.2100000</ele>
        <time>2010-08-21T10:45:38Z</time>
      </trkpt>
      <trkpt lat="51.1150500" lon="7.2352630">
        <ele>285.1700000</ele>
        <time>2010-08-21T10:45:39Z</time>
      </trkpt>
      <trkpt lat="51.1151930" lon="7.2354420">
        <ele>286.1300000</ele>
        <time>2010-08-21T10:45:40Z</time>
      </trkpt>
      <trkpt lat="51.1153310" lon="7.2356600">
        <ele>287.0900000</ele>
        <time>2010-08-21T10:45:41Z</time>
      </trkpt>
      <trkpt lat="51.1154710" lon="7.2359000">
        <ele>287.5700000</ele>
        <time>2010-08-21T10:45:42Z</time>
      </trkpt>
      <trkpt lat="51.1165580" lon="7.2372460">
        <ele>289.4900000</ele>
        <time>2010-08-21T10:45:49Z</time>
      </trkpt>
      <trkpt lat="51.1184860" lon="7.2387900">
        <ele>294.7800000</ele>
        <time>2010-08-21T10:46:00Z</time>
      </trkpt>
      <trkpt lat="51.1199810" lon="7.2403080">
        <ele>296.7000000</ele>
        <time>2010-08-21T10:46:09Z</time>
      </trkpt>
      <trkpt lat="51.1203890" lon="7.2409350">
        <ele>298.1500000</ele>
        <time>2010-08-21T10:46:12Z</time>
      </trkpt>
      <trkpt lat="51.1210430" lon="7.2427280">
        <ele>303.9100000</ele>
        <time>2010-08-21T10:46:19Z</time>
      </trkpt>
      <trkpt lat="51.1215220" lon="7.2447850">
        <ele>307.7600000</ele>
        <time>2010-08-21T10:46:27Z</time>
      </trkpt>
      <trkpt lat="51.1219200" lon="7.2467940">
        <ele>311.1200000</ele>
        <time>2010-08-21T10:46:35Z</time>
      </trkpt>
      <trkpt lat="51.1219370" lon="7.2470090">
        <ele>310.6400000</ele>
        <time>2010-08-21T10:46:36Z</time>
      </trkpt>
      <trkpt lat="51.1219420" lon="7.2472040">
        <ele>310.1600000</ele>
        <time>2010-08-21T10:46:37Z</time>
      </trkpt>
      <trkpt lat="51.1219200" lon="7.2473380">
        <ele>310.1600000</ele>
        <time>2010-08-21T10:46:38Z</time>
      </trkpt>
      <trkpt lat="51.1218960" lon="7.2474400">
        <ele>309.6800000</ele>
        <time>2010-08-21T10:46:39Z</time>
      </trkpt>
      <trkpt lat="51.1218640" lon="7.2475300">
        <ele>309.6800000</ele>
        <time>2010-08-21T10:46:40Z</time>
      </trkpt>
      <trkpt lat="51.1218250" lon="7.2476290">
        <ele>309.2000000</ele>
        <time>2010-08-21T10:46:41Z</time>
      </trkpt>
      <trkpt lat="51.1217990" lon="7.2477410">
        <ele>309.2000000</ele>
        <time>2010-08-21T10:46:42Z</time>
      </trkpt>
      <trkpt lat="51.1218060" lon="7.2478550">
        <ele>308.7200000</ele>
        <time>2010-08-21T10:46:43Z</time>
      </trkpt>
      <trkpt lat="51.1218410" lon="7.2481370">
        <ele>308.2400000</ele>
        <time>2010-08-21T10:46:45Z</time>
      </trkpt>
      <trkpt lat="51.1218400" lon="7.2483400">
        <ele>307.7600000</ele>
        <time>2010-08-21T10:46:46Z</time>
      </trkpt>
      <trkpt lat="51.1218780" lon="7.2495030">
        <ele>307.7600000</ele>
        <time>2010-08-21T10:46:51Z</time>
      </trkpt>
      <trkpt lat="51.1219230" lon="7.2496960">
        <ele>307.7600000</ele>
        <time>2010-08-21T10:46:52Z</time>
      </trkpt>
      <trkpt lat="51.1225150" lon="7.2512460">
        <ele>310.6400000</ele>
        <time>2010-08-21T10:47:00Z</time>
      </trkpt>
      <trkpt lat="51.1233840" lon="7.2533600">
        <ele>315.9300000</ele>
        <time>2010-08-21T10:47:10Z</time>
      </trkpt>
      <trkpt lat="51.1234230" lon="7.2536690">
        <ele>317.3700000</ele>
        <time>2010-08-21T10:47:11Z</time>
      </trkpt>
      <trkpt lat="51.1237200" lon="7.2560240">
        <ele>322.6600000</ele>
        <time>2010-08-21T10:47:18Z</time>
      </trkpt>
      <trkpt lat="51.1239350" lon="7.2583130">
        <ele>323.6200000</ele>
        <time>2010-08-21T10:47:25Z</time>
      </trkpt>
      <trkpt lat="51.1240700" lon="7.2588590">
        <ele>324.5800000</ele>
        <time>2010-08-21T10:47:27Z</time>
      </trkpt>
      <trkpt lat="51.1241640" lon="7.2591060">
        <ele>324.5800000</ele>
        <time>2010-08-21T10:47:28Z</time>
      </trkpt>
      <trkpt lat="51.1242740" lon="7.2593480">
        <ele>324.5800000</ele>
        <time>2010-08-21T10:47:29Z</time>
      </trkpt>
      <trkpt lat="51.1244110" lon="7.2595840">
        <ele>323.6200000</ele>
        <time>2010-08-21T10:47:30Z</time>
      </trkpt>
      <trkpt lat="51.1245710" lon="7.2598230">
        <ele>322.6600000</ele>
        <time>2010-08-21T10:47:31Z</time>
      </trkpt>
      <trkpt lat="51.1247370" lon="7.2600600">
        <ele>322.1800000</ele>
        <time>2010-08-21T10:47:32Z</time>
      </trkpt>
      <trkpt lat="51.1259840" lon="7.2615780">
        <ele>319.7800000</ele>
        <time>2010-08-21T10:47:40Z</time>
      </trkpt>
      <trkpt lat="51.1276030" lon="7.2635540">
        <ele>322.6600000</ele>
        <time>2010-08-21T10:47:51Z</time>
      </trkpt>
      <trkpt lat="51.1290570" lon="7.2649580">
        <ele>329.3900000</ele>
        <time>2010-08-21T10:48:01Z</time>
      </trkpt>
      <trkpt lat="51.1304540" lon="7.2660210">
        <ele>329.8700000</ele>
        <time>2010-08-21T10:48:11Z</time>
      </trkpt>
      <trkpt lat="51.1317520" lon="7.2669470">
        <ele>330.8300000</ele>
        <time>2010-08-21T10:48:22Z</time>
      </trkpt>
      <trkpt lat="51.1327280" lon="7.2684490">
        <ele>330.3500000</ele>
        <time>2010-08-21T10:48:31Z</time>
      </trkpt>
      <trkpt lat="51.1328100" lon="7.2686660">
        <ele>330.3500000</ele>
        <time>2010-08-21T10:48:32Z</time>
      </trkpt>
      <trkpt lat="51.1328790" lon="7.2688910">
        <ele>330.8300000</ele>
        <time>2010-08-21T10:48:33Z</time>
      </trkpt>
      <trkpt lat="51.1333140" lon="7.2707950">
        <ele>329.8700000</ele>
        <time>2010-08-21T10:48:42Z</time>
      </trkpt>
      <trkpt lat="51.1334820" lon="7.2726300">
        <ele>329.8700000</ele>
        <time>2010-08-21T10:48:51Z</time>
      </trkpt>
      <trkpt lat="51.1335360" lon="7.2747780">
        <ele>331.3100000</ele>
        <time>2010-08-21T10:49:00Z</time>
      </trkpt>
      <trkpt lat="51.1336160" lon="7.2781120">
        <ele>330.8300000</ele>
        <time>2010-08-21T10:49:13Z</time>
      </trkpt>
      <trkpt lat="51.1337620" lon="7.2797760">
        <ele>328.9100000</ele>
        <time>2010-08-21T10:49:20Z</time>
      </trkpt>
      <trkpt lat="51.1338420" lon="7.2800280">
        <ele>328.4300000</ele>
        <time>2010-08-21T10:49:21Z</time>
      </trkpt>
      <trkpt lat="51.1342560" lon="7.2815160">
        <ele>326.5000000</ele>
        <time>2010-08-21T10:49:26Z</time>
      </trkpt>
      <trkpt lat="51.1344160" lon="7.2822420">
        <ele>326.0200000</ele>
        <time>2010-08-21T10:49:29Z</time>
      </trkpt>
      <trkpt lat="51.1344410" lon="7.2824850">
        <ele>326.0200000</ele>
        <time>2010-08-21T10:49:30Z</time>
      </trkpt>
      <trkpt lat="51.1344540" lon="7.2827370">
        <ele>326.0200000</ele>
        <time>2010-08-21T10:49:31Z</time>
      </trkpt>
      <trkpt lat="51.1345200" lon="7.2845540">
        <ele>326.9900000</ele>
        <time>2010-08-21T10:49:36Z</time>
      </trkpt>
      <trkpt lat="51.1347190" lon="7.2872150">
        <ele>331.7900000</ele>
        <time>2010-08-21T10:49:42Z</time>
      </trkpt>
      <trkpt lat="51.1350990" lon="7.2890990">
        <ele>334.6800000</ele>
        <time>2010-08-21T10:49:48Z</time>
      </trkpt>
      <trkpt lat="51.1355840" lon="7.2912860">
        <ele>336.1200000</ele>
        <time>2010-08-21T10:49:58Z</time>
      </trkpt>
      <trkpt lat="51.1361840" lon="7.2929240">
        <ele>336.6000000</ele>
        <time>2010-08-21T10:50:07Z</time>
      </trkpt>
      <trkpt lat="51.1371130" lon="7.2949700">
        <ele>332.7500000</ele>
        <time>2010-08-21T10:50:19Z</time>
      </trkpt>
      <trkpt lat="51.1374040" lon="7.2957890">
        <ele>332.2700000</ele>
        <time>2010-08-21T10:50:23Z</time>
      </trkpt>
      <trkpt lat="51.1374500" lon="7.2960000">
        <ele>332.7500000</ele>
        <time>2010-08-21T10:50:24Z</time>
      </trkpt>
      <trkpt lat="51.1378740" lon="7.2980500">
        <ele>335.1600000</ele>
        <time>2010-08-21T10:50:35Z</time>
      </trkpt>
      <trkpt lat="51.1378810" lon="7.2981870">
        <ele>335.6400000</ele>
        <time>2010-08-21T10:50:36Z</time>
      </trkpt>
      <trkpt lat="51.1378680" lon="7.2983210">
        <ele>335.6400000</ele>
        <time>2010-08-21T10:50:37Z</time>
      </trkpt>
      <trkpt lat="51.1378380" lon="7.2984620">
        <ele>335.6400000</ele>
        <time>2010-08-21T10:50:38Z</time>
      </trkpt>
      <trkpt lat="51.1377950" lon="7.2986050">
        <ele>335.6400000</ele>
        <time>2010-08-21T10:50:39Z</time>
      </trkpt>
      <trkpt lat="51.1377490" lon="7.2987440">
        <ele>335.6400000</ele>
        <time>2010-08-21T10:50:40Z</time>
      </trkpt>
      <trkpt lat="51.1377100" lon="7.2988840">
        <ele>336.1200000</ele>
        <time>2010-08-21T10:50:41Z</time>
      </trkpt>
      <trkpt lat="51.1376830" lon="7.2990340">
        <ele>336.1200000</ele>
        <time>2010-08-21T10:50:42Z</time>
      </trkpt>
      <trkpt lat="51.1376700" lon="7.2991990">
        <ele>336.1200000</ele>
        <time>2010-08-21T10:50:43Z</time>
      </trkpt>
      <trkpt lat="51.1376670" lon="7.2993780">
        <ele>336.6000000</ele>
        <time>2010-08-21T10:50:44Z</time>
      </trkpt>
      <trkpt lat="51.1376750" lon="7.2995580">
        <ele>337.5600000</ele>
        <time>2010-08-21T10:50:45Z</time>
      </trkpt>
      <trkpt lat="51.1376900" lon="7.2997340">
        <ele>338.0400000</ele>
        <time>2010-08-21T10:50:46Z</time>
      </trkpt>
      <trkpt lat="51.1380940" lon="7.3012350">
        <ele>340.9200000</ele>
        <time>2010-08-21T10:50:54Z</time>
      </trkpt>
      <trkpt lat="51.1387680" lon="7.3029960">
        <ele>344.7700000</ele>
        <time>2010-08-21T10:51:02Z</time>
      </trkpt>
      <trkpt lat="51.1393460" lon="7.3059540">
        <ele>346.6900000</ele>
        <time>2010-08-21T10:51:14Z</time>
      </trkpt>
      <trkpt lat="51.1399050" lon="7.3082750">
        <ele>347.6500000</ele>
        <time>2010-08-21T10:51:25Z</time>
      </trkpt>
      <trkpt lat="51.1406150" lon="7.3098970">
        <ele>347.6500000</ele>
        <time>2010-08-21T10:51:34Z</time>
      </trkpt>
      <trkpt lat="51.1407220" lon="7.3100210">
        <ele>347.1700000</ele>
        <time>2010-08-21T10:51:35Z</time>
      </trkpt>
      <trkpt lat="51.1408350" lon="7.3101250">
        <ele>347.1700000</ele>
        <time>2010-08-21T10:51:36Z</time>
      </trkpt>
      <trkpt lat="51.1415190" lon="7.3107210">
        <ele>347.6500000</ele>
        <time>2010-08-21T10:51:44Z</time>
      </trkpt>
      <trkpt lat="51.1415440" lon="7.3107840">
        <ele>347.6500000</ele>
        <time>2010-08-21T10:51:45Z</time>
      </trkpt>
      <trkpt lat="51.1415480" lon="7.3108500">
        <ele>348.1300000</ele>
        <time>2010-08-21T10:51:46Z</time>
      </trkpt>
      <trkpt lat="51.1415310" lon="7.3109080">
        <ele>348.1300000</ele>
        <time>2010-08-21T10:51:47Z</time>
      </trkpt>
      <trkpt lat="51.1414930" lon="7.3109510">
        <ele>348.6200000</ele>
        <time>2010-08-21T10:51:48Z</time>
      </trkpt>
      <trkpt lat="51.1414330" lon="7.3109700">
        <ele>348.6200000</ele>
        <time>2010-08-21T10:51:49Z</time>
      </trkpt>
      <trkpt lat="51.1413530" lon="7.3109750">
        <ele>349.1000000</ele>
        <time>2010-08-21T10:51:50Z</time>
      </trkpt>
      <trkpt lat="51.1404770" lon="7.3112580">
        <ele>351.9800000</ele>
        <time>2010-08-21T10:51:58Z</time>
      </trkpt>
      <trkpt lat="51.1391930" lon="7.3119630">
        <ele>356.7900000</ele>
        <time>2010-08-21T10:52:08Z</time>
      </trkpt>
      <trkpt lat="51.1384850" lon="7.3125570">
        <ele>354.8600000</ele>
        <time>2010-08-21T10:52:14Z</time>
      </trkpt>
      <trkpt lat="51.1383850" lon="7.3126960">
        <ele>353.9000000</ele>
        <time>2010-08-21T10:52:15Z</time>
      </trkpt>
      <trkpt lat="51.1382910" lon="7.3128540">
        <ele>352.9400000</ele>
        <time>2010-08-21T10:52:16Z</time>
      </trkpt>
      <trkpt lat="51.1373660" lon="7.3147560">
        <ele>341.8900000</ele>
        <time>2010-08-21T10:52:26Z</time>
      </trkpt>
      <trkpt lat="51.1356980" lon="7.3174220">
        <ele>330.3500000</ele>
        <time>2010-08-21T10:52:41Z</time>
      </trkpt>
      <trkpt lat="51.1348500" lon="7.3191380">
        <ele>329.8700000</ele>
        <time>2010-08-21T10:52:50Z</time>
      </trkpt>
      <trkpt lat="51.1346290" lon="7.3198050">
        <ele>330.3500000</ele>
        <time>2010-08-21T10:52:57Z</time>
      </trkpt>
      <trkpt lat="51.1343370" lon="7.3205800">
        <ele>331.7900000</ele>
        <time>2010-08-21T10:53:07Z</time>
      </trkpt>
      <trkpt lat="51.1342720" lon="7.3207230">
        <ele>332.2700000</ele>
        <time>2010-08-21T10:53:09Z</time>
      </trkpt>
      <trkpt lat="51.1342470" lon="7.3207890">
        <ele>332.2700000</ele>
        <time>2010-08-21T10:53:10Z</time>
      </trkpt>
      <trkpt lat="51.1342210" lon="7.3208430">
        <ele>332.7500000</ele>
        <time>2010-08-21T10:53:11Z</time>
      </trkpt>
      <trkpt lat="51.1337770" lon="7.3217850">
        <ele>335.1600000</ele>
        <time>2010-08-21T10:53:26Z</time>
      </trkpt>
      <trkpt lat="51.1334850" lon="7.3223740">
        <ele>337.0800000</ele>
        <time>2010-08-21T10:53:36Z</time>
      </trkpt>
      <trkpt lat="51.1334520" lon="7.3224340">
        <ele>337.0800000</ele>
        <time>2010-08-21T10:53:37Z</time>
      </trkpt>
      <trkpt lat="51.1331640" lon="7.3230250">
        <ele>338.0400000</ele>
        <time>2010-08-21T10:53:45Z</time>
      </trkpt>
      <trkpt lat="51.1331180" lon="7.3230770">
        <ele>338.0400000</ele>
        <time>2010-08-21T10:53:46Z</time>
      </trkpt>
      <trkpt lat="51.1330710" lon="7.3231200">
        <ele>337.5600000</ele>
        <time>2010-08-21T10:53:47Z</time>
      </trkpt>
      <trkpt lat="51.1330200" lon="7.3231560">
        <ele>337.5600000</ele>
        <time>2010-08-21T10:53:48Z</time>
      </trkpt>
      <trkpt lat="51.1329650" lon="7.3231810">
        <ele>337.0800000</ele>
        <time>2010-08-21T10:53:49Z</time>
      </trkpt>
      <trkpt lat="51.1329070" lon="7.3231990">
        <ele>337.0800000</ele>
        <time>2010-08-21T10:53:50Z</time>
      </trkpt>
      <trkpt lat="51.1328440" lon="7.3232110">
        <ele>336.6000000</ele>
        <time>2010-08-21T10:53:51Z</time>
      </trkpt>
      <trkpt lat="51.1327800" lon="7.3232130">
        <ele>336.6000000</ele>
        <time>2010-08-21T10:53:52Z</time>
      </trkpt>
      <trkpt lat="51.1327200" lon="7.3232030">
        <ele>336.1200000</ele>
        <time>2010-08-21T10:53:53Z</time>
      </trkpt>
      <trkpt lat="51.1326620" lon="7.3231820">
        <ele>336.1200000</ele>
        <time>2010-08-21T10:53:54Z</time>
      </trkpt>
      <trkpt lat="51.1325980" lon="7.3231510">
        <ele>335.6400000</ele>
        <time>2010-08-21T10:53:55Z</time>
      </trkpt>
      <trkpt lat="51.1320260" lon="7.3230420">
        <ele>330.3500000</ele>
        <time>2010-08-21T10:54:05Z</time>
      </trkpt>
      <trkpt lat="51.1319700" lon="7.3230690">
        <ele>329.3900000</ele>
        <time>2010-08-21T10:54:06Z</time>
      </trkpt>
      <trkpt lat="51.1319120" lon="7.3231040">
        <ele>329.3900000</ele>
        <time>2010-08-21T10:54:07Z</time>
      </trkpt>
      <trkpt lat="51.1318540" lon="7.3231490">
        <ele>329.3900000</ele>
        <time>2010-08-21T10:54:08Z</time>
      </trkpt>
      <trkpt lat="51.1317990" lon="7.3232080">
        <ele>328.9100000</ele>
        <time>2010-08-21T10:54:09Z</time>
      </trkpt>
      <trkpt lat="51.1317460" lon="7.3232740">
        <ele>328.9100000</ele>
        <time>2010-08-21T10:54:10Z</time>
      </trkpt>
      <trkpt lat="51.1317050" lon="7.3233510">
        <ele>327.9500000</ele>
        <time>2010-08-21T10:54:11Z</time>
      </trkpt>
      <trkpt lat="51.1316720" lon="7.3234270">
        <ele>326.9900000</ele>
        <time>2010-08-21T10:54:12Z</time>
      </trkpt>
      <trkpt lat="51.1316380" lon="7.3235010">
        <ele>326.5000000</ele>
        <time>2010-08-21T10:54:13Z</time>
      </trkpt>
      <trkpt lat="51.1316130" lon="7.3235800">
        <ele>326.0200000</ele>
        <time>2010-08-21T10:54:14Z</time>
      </trkpt>
      <trkpt lat="51.1315930" lon="7.3236700">
        <ele>325.5400000</ele>
        <time>2010-08-21T10:54:15Z</time>
      </trkpt>
      <trkpt lat="51.1315700" lon="7.3237660">
        <ele>324.5800000</ele>
        <time>2010-08-21T10:54:16Z</time>
      </trkpt>
      <trkpt lat="51.1315500" lon="7.3238680">
        <ele>324.1000000</ele>
        <time>2010-08-21T10:54:17Z</time>
      </trkpt>
      <trkpt lat="51.1315380" lon="7.3239630">
        <ele>323.6200000</ele>
        <time>2010-08-21T10:54:18Z</time>
      </trkpt>
      <trkpt lat="51.1315350" lon="7.3240520">
        <ele>323.6200000</ele>
        <time>2010-08-21T10:54:19Z</time>
      </trkpt>
      <trkpt lat="51.1315430" lon="7.3242180">
        <ele>323.1400000</ele>
        <time>2010-08-21T10:54:21Z</time>
      </trkpt>
      <trkpt lat="51.1315500" lon="7.3242870">
        <ele>322.6600000</ele>
        <time>2010-08-21T10:54:22Z</time>
      </trkpt>
      <trkpt lat="51.1315510" lon="7.3243440">
        <ele>322.6600000</ele>
        <time>2010-08-21T10:54:23Z</time>
      </trkpt>
      <trkpt lat="51.1315530" lon="7.3246430">
        <ele>321.7000000</ele>
        <time>2010-08-21T10:54:28Z</time>
      </trkpt>
      <trkpt lat="51.1315400" lon="7.3253990">
        <ele>317.3700000</ele>
        <time>2010-08-21T10:54:36Z</time>
      </trkpt>
      <trkpt lat="51.1315260" lon="7.3254910">
        <ele>316.4100000</ele>
        <time>2010-08-21T10:54:37Z</time>
      </trkpt>
      <trkpt lat="51.1314640" lon="7.3257980">
        <ele>314.0100000</ele>
        <time>2010-08-21T10:54:42Z</time>
      </trkpt>
      <trkpt lat="51.1314350" lon="7.3258750">
        <ele>313.5300000</ele>
        <time>2010-08-21T10:54:43Z</time>
      </trkpt>
      <trkpt lat="51.1313920" lon="7.3259770">
        <ele>313.0500000</ele>
        <time>2010-08-21T10:54:44Z</time>
      </trkpt>
      <trkpt lat="51.1308200" lon="7.3270020">
        <ele>310.6400000</ele>
        <time>2010-08-21T10:54:51Z</time>
      </trkpt>
      <trkpt lat="51.1300510" lon="7.3284720">
        <ele>318.3300000</ele>
        <time>2010-08-21T10:55:00Z</time>
      </trkpt>
      <trkpt lat="51.1297590" lon="7.3290680">
        <ele>322.6600000</ele>
        <time>2010-08-21T10:55:04Z</time>
      </trkpt>
      <trkpt lat="51.1297120" lon="7.3292040">
        <ele>323.6200000</ele>
        <time>2010-08-21T10:55:05Z</time>
      </trkpt>
      <trkpt lat="51.1296840" lon="7.3293480">
        <ele>324.1000000</ele>
        <time>2010-08-21T10:55:06Z</time>
      </trkpt>
      <trkpt lat="51.1296770" lon="7.3294970">
        <ele>325.0600000</ele>
        <time>2010-08-21T10:55:07Z</time>
      </trkpt>
      <trkpt lat="51.1296860" lon="7.3296540">
        <ele>325.0600000</ele>
        <time>2010-08-21T10:55:08Z</time>
      </trkpt>
      <trkpt lat="51.1297150" lon="7.3298090">
        <ele>325.5400000</ele>
        <time>2010-08-21T10:55:09Z</time>
      </trkpt>
      <trkpt lat="51.1297710" lon="7.3299600">
        <ele>326.0200000</ele>
        <time>2010-08-21T10:55:10Z</time>
      </trkpt>
      <trkpt lat="51.1298470" lon="7.3301000">
        <ele>326.0200000</ele>
        <time>2010-08-21T10:55:11Z</time>
      </trkpt>
      <trkpt lat="51.1299330" lon="7.3302350">
        <ele>326.0200000</ele>
        <time>2010-08-21T10:55:12Z</time>
      </trkpt>
      <trkpt lat="51.1300230" lon="7.3303710">
        <ele>325.5400000</ele>
        <time>2010-08-21T10:55:13Z</time>
      </trkpt>
      <trkpt lat="51.1303880" lon="7.3309720">
        <ele>325.0600000</ele>
        <time>2010-08-21T10:55:17Z</time>
      </trkpt>
      <trkpt lat="51.1309530" lon="7.3327330">
        <ele>319.7800000</ele>
        <time>2010-08-21T10:55:26Z</time>
      </trkpt>
      <trkpt lat="51.1316620" lon="7.3354410">
        <ele>313.0500000</ele>
        <time>2010-08-21T10:55:38Z</time>
      </trkpt>
      <trkpt lat="51.1324760" lon="7.3373310">
        <ele>306.3200000</ele>
        <time>2010-08-21T10:55:48Z</time>
      </trkpt>
      <trkpt lat="51.1326790" lon="7.3376280">
        <ele>303.9100000</ele>
        <time>2010-08-21T10:55:50Z</time>
      </trkpt>
      <trkpt lat="51.1327930" lon="7.3377570">
        <ele>302.9500000</ele>
        <time>2010-08-21T10:55:51Z</time>
      </trkpt>
      <trkpt lat="51.1329220" lon="7.3378600">
        <ele>301.5100000</ele>
        <time>2010-08-21T10:55:52Z</time>
      </trkpt>
      <trkpt lat="51.1339570" lon="7.3387920">
        <ele>290.4600000</ele>
        <time>2010-08-21T10:56:00Z</time>
      </trkpt>
      <trkpt lat="51.1342210" lon="7.3390100">
        <ele>288.0500000</ele>
        <time>2010-08-21T10:56:02Z</time>
      </trkpt>
      <trkpt lat="51.1343300" lon="7.3391510">
        <ele>286.6100000</ele>
        <time>2010-08-21T10:56:03Z</time>
      </trkpt>
      <trkpt lat="51.1344390" lon="7.3393160">
        <ele>285.6500000</ele>
        <time>2010-08-21T10:56:04Z</time>
      </trkpt>
      <trkpt lat="51.1345380" lon="7.3395080">
        <ele>284.6900000</ele>
        <time>2010-08-21T10:56:05Z</time>
      </trkpt>
      <trkpt lat="51.1346090" lon="7.3397370">
        <ele>283.2500000</ele>
        <time>2010-08-21T10:56:06Z</time>
      </trkpt>
      <trkpt lat="51.1346860" lon="7.3399530">
        <ele>282.2800000</ele>
        <time>2010-08-21T10:56:07Z</time>
      </trkpt>
      <trkpt lat="51.1352840" lon="7.3409970">
        <ele>272.1900000</ele>
        <time>2010-08-21T10:56:14Z</time>
      </trkpt>
      <trkpt lat="51.1355300" lon="7.3412850">
        <ele>269.3100000</ele>
        <time>2010-08-21T10:56:16Z</time>
      </trkpt>
      <trkpt lat="51.1356700" lon="7.3415030">
        <ele>267.8600000</ele>
        <time>2010-08-21T10:56:17Z</time>
      </trkpt>
      <trkpt lat="51.1362800" lon="7.3427160">
        <ele>263.5400000</ele>
        <time>2010-08-21T10:56:22Z</time>
      </trkpt>
      <trkpt lat="51.1367850" lon="7.3443920">
        <ele>262.1000000</ele>
        <time>2010-08-21T10:56:30Z</time>
      </trkpt>
      <trkpt lat="51.1370390" lon="7.3455000">
        <ele>259.2100000</ele>
        <time>2010-08-21T10:56:37Z</time>
      </trkpt>
      <trkpt lat="51.1370750" lon="7.3457420">
        <ele>260.1700000</ele>
        <time>2010-08-21T10:56:44Z</time>
      </trkpt>
      <trkpt lat="51.1370790" lon="7.3457480">
        <ele>260.1700000</ele>
        <time>2010-08-21T10:56:48Z</time>
      </trkpt>
      <trkpt lat="51.1371100" lon="7.3457800">
        <ele>260.1700000</ele>
        <time>2010-08-21T10:56:49Z</time>
      </trkpt>
      <trkpt lat="51.1371740" lon="7.3457940">
        <ele>260.1700000</ele>
        <time>2010-08-21T10:56:50Z</time>
      </trkpt>
      <trkpt lat="51.1372860" lon="7.3457740">
        <ele>259.6900000</ele>
        <time>2010-08-21T10:56:51Z</time>
      </trkpt>
      <trkpt lat="51.1374200" lon="7.3456880">
        <ele>260.1700000</ele>
        <time>2010-08-21T10:56:52Z</time>
      </trkpt>
      <trkpt lat="51.1375880" lon="7.3456510">
        <ele>260.6500000</ele>
        <time>2010-08-21T10:56:53Z</time>
      </trkpt>
      <trkpt lat="51.1380040" lon="7.3455550">
        <ele>260.1700000</ele>
        <time>2010-08-21T10:56:55Z</time>
      </trkpt>
      <trkpt lat="51.1382460" lon="7.3455600">
        <ele>260.1700000</ele>
        <time>2010-08-21T10:56:56Z</time>
      </trkpt>
      <trkpt lat="51.1384530" lon="7.3456040">
        <ele>260.6500000</ele>
        <time>2010-08-21T10:56:57Z</time>
      </trkpt>
      <trkpt lat="51.1386510" lon="7.3457190">
        <ele>260.6500000</ele>
        <time>2010-08-21T10:56:58Z</time>
      </trkpt>
      <trkpt lat="51.1388120" lon="7.3458940">
        <ele>261.6200000</ele>
        <time>2010-08-21T10:56:59Z</time>
      </trkpt>
      <trkpt lat="51.1389570" lon="7.3460370">
        <ele>262.1000000</ele>
        <time>2010-08-21T10:57:00Z</time>
      </trkpt>
      <trkpt lat="51.1390750" lon="7.3462100">
        <ele>261.6200000</ele>
        <time>2010-08-21T10:57:01Z</time>
      </trkpt>
      <trkpt lat="51.1391550" lon="7.3464550">
        <ele>261.6200000</ele>
        <time>2010-08-21T10:57:02Z</time>
      </trkpt>
      <trkpt lat="51.1392470" lon="7.3466880">
        <ele>262.5800000</ele>
        <time>2010-08-21T10:57:03Z</time>
      </trkpt>
      <trkpt lat="51.1399470" lon="7.3484750">
        <ele>266.4200000</ele>
        <time>2010-08-21T10:57:12Z</time>
      </trkpt>
      <trkpt lat="51.1406630" lon="7.3496890">
        <ele>267.3800000</ele>
        <time>2010-08-21T10:57:20Z</time>
      </trkpt>
      <trkpt lat="51.1407190" lon="7.3498090">
        <ele>267.3800000</ele>
        <time>2010-08-21T10:57:21Z</time>
      </trkpt>
      <trkpt lat="51.1407550" lon="7.3499350">
        <ele>266.9000000</ele>
        <time>2010-08-21T10:57:22Z</time>
      </trkpt>
      <trkpt lat="51.1407460" lon="7.3500810">
        <ele>266.4200000</ele>
        <time>2010-08-21T10:57:23Z</time>
      </trkpt>
      <trkpt lat="51.1406890" lon="7.3502680">
        <ele>266.4200000</ele>
        <time>2010-08-21T10:57:24Z</time>
      </trkpt>
      <trkpt lat="51.1406220" lon="7.3504470">
        <ele>266.9000000</ele>
        <time>2010-08-21T10:57:25Z</time>
      </trkpt>
      <trkpt lat="51.1405500" lon="7.3506300">
        <ele>266.4200000</ele>
        <time>2010-08-21T10:57:26Z</time>
      </trkpt>
      <trkpt lat="51.1404880" lon="7.3508020">
        <ele>265.9400000</ele>
        <time>2010-08-21T10:57:27Z</time>
      </trkpt>
      <trkpt lat="51.1401820" lon="7.3516300">
        <ele>264.5000000</ele>
        <time>2010-08-21T10:57:32Z</time>
      </trkpt>
      <trkpt lat="51.1396340" lon="7.3524030">
        <ele>261.6200000</ele>
        <time>2010-08-21T10:57:38Z</time>
      </trkpt>
      <trkpt lat="51.1386480" lon="7.3536230">
        <ele>258.7300000</ele>
        <time>2010-08-21T10:57:48Z</time>
      </trkpt>
      <trkpt lat="51.1380200" lon="7.3552690">
        <ele>261.1400000</ele>
        <time>2010-08-21T10:57:58Z</time>
      </trkpt>
      <trkpt lat="51.1375690" lon="7.3562920">
        <ele>263.0600000</ele>
        <time>2010-08-21T10:58:06Z</time>
      </trkpt>
      <trkpt lat="51.1375270" lon="7.3564450">
        <ele>263.0600000</ele>
        <time>2010-08-21T10:58:07Z</time>
      </trkpt>
      <trkpt lat="51.1374900" lon="7.3566040">
        <ele>263.0600000</ele>
        <time>2010-08-21T10:58:08Z</time>
      </trkpt>
      <trkpt lat="51.1374600" lon="7.3567660">
        <ele>263.5400000</ele>
        <time>2010-08-21T10:58:09Z</time>
      </trkpt>
      <trkpt lat="51.1374410" lon="7.3569280">
        <ele>263.5400000</ele>
        <time>2010-08-21T10:58:10Z</time>
      </trkpt>
      <trkpt lat="51.1374230" lon="7.3570880">
        <ele>264.0200000</ele>
        <time>2010-08-21T10:58:11Z</time>
      </trkpt>
      <trkpt lat="51.1373470" lon="7.3592060">
        <ele>262.5800000</ele>
        <time>2010-08-21T10:58:22Z</time>
      </trkpt>
      <trkpt lat="51.1372180" lon="7.3621820">
        <ele>262.5800000</ele>
        <time>2010-08-21T10:58:34Z</time>
      </trkpt>
      <trkpt lat="51.1372280" lon="7.3634470">
        <ele>264.5000000</ele>
        <time>2010-08-21T10:58:39Z</time>
      </trkpt>
      <trkpt lat="51.1372690" lon="7.3637170">
        <ele>265.4600000</ele>
        <time>2010-08-21T10:58:40Z</time>
      </trkpt>
      <trkpt lat="51.1373290" lon="7.3639860">
        <ele>266.4200000</ele>
        <time>2010-08-21T10:58:41Z</time>
      </trkpt>
      <trkpt lat="51.1374000" lon="7.3642460">
        <ele>267.3800000</ele>
        <time>2010-08-21T10:58:42Z</time>
      </trkpt>
      <trkpt lat="51.1374750" lon="7.3644900">
        <ele>267.8600000</ele>
        <time>2010-08-21T10:58:43Z</time>
      </trkpt>
      <trkpt lat="51.1378250" lon="7.3657420">
        <ele>271.2300000</ele>
        <time>2010-08-21T10:58:49Z</time>
      </trkpt>
      <trkpt lat="51.1378380" lon="7.3659310">
        <ele>271.7100000</ele>
        <time>2010-08-21T10:58:50Z</time>
      </trkpt>
      <trkpt lat="51.1378310" lon="7.3661310">
        <ele>272.6700000</ele>
        <time>2010-08-21T10:58:51Z</time>
      </trkpt>
      <trkpt lat="51.1377850" lon="7.3663340">
        <ele>273.6300000</ele>
        <time>2010-08-21T10:58:52Z</time>
      </trkpt>
      <trkpt lat="51.1377130" lon="7.3665400">
        <ele>274.1100000</ele>
        <time>2010-08-21T10:58:53Z</time>
      </trkpt>
      <trkpt lat="51.1376580" lon="7.3667530">
        <ele>274.5900000</ele>
        <time>2010-08-21T10:58:54Z</time>
      </trkpt>
      <trkpt lat="51.1376200" lon="7.3669690">
        <ele>275.0700000</ele>
        <time>2010-08-21T10:58:55Z</time>
      </trkpt>
      <trkpt lat="51.1376020" lon="7.3671890">
        <ele>275.5600000</ele>
        <time>2010-08-21T10:58:56Z</time>
      </trkpt>
      <trkpt lat="51.1376040" lon="7.3674040">
        <ele>276.0400000</ele>
        <time>2010-08-21T10:58:57Z</time>
      </trkpt>
      <trkpt lat="51.1376400" lon="7.3676170">
        <ele>276.5200000</ele>
        <time>2010-08-21T10:58:58Z</time>
      </trkpt>
      <trkpt lat="51.1376880" lon="7.3678370">
        <ele>277.0000000</ele>
        <time>2010-08-21T10:58:59Z</time>
      </trkpt>
      <trkpt lat="51.1377500" lon="7.3680570">
        <ele>278.4400000</ele>
        <time>2010-08-21T10:59:00Z</time>
      </trkpt>
      <trkpt lat="51.1379170" lon="7.3684980">
        <ele>279.4000000</ele>
        <time>2010-08-21T10:59:02Z</time>
      </trkpt>
      <trkpt lat="51.1380190" lon="7.3687090">
        <ele>279.4000000</ele>
        <time>2010-08-21T10:59:03Z</time>
      </trkpt>
      <trkpt lat="51.1390270" lon="7.3708220">
        <ele>290.4600000</ele>
        <time>2010-08-21T10:59:14Z</time>
      </trkpt>
      <trkpt lat="51.1400120" lon="7.3723520">
        <ele>298.1500000</ele>
        <time>2010-08-21T10:59:23Z</time>
      </trkpt>
      <trkpt lat="51.1406930" lon="7.3731550">
        <ele>302.9500000</ele>
        <time>2010-08-21T10:59:31Z</time>
      </trkpt>
      <trkpt lat="51.1410240" lon="7.3734370">
        <ele>303.9100000</ele>
        <time>2010-08-21T10:59:39Z</time>
      </trkpt>
      <trkpt lat="51.1411080" lon="7.3735760">
        <ele>301.0300000</ele>
        <time>2010-08-21T10:59:49Z</time>
      </trkpt>
      <trkpt lat="51.1411270" lon="7.3735990">
        <ele>301.0300000</ele>
        <time>2010-08-21T10:59:51Z</time>
      </trkpt>
      <trkpt lat="51.1411140" lon="7.3735720">
        <ele>301.5100000</ele>
        <time>2010-08-21T11:00:03Z</time>
      </trkpt>
      <trkpt lat="51.1410960" lon="7.3735760">
        <ele>301.9900000</ele>
        <time>2010-08-21T11:00:28Z</time>
      </trkpt>
      <trkpt lat="51.1411030" lon="7.3735320">
        <ele>310.1600000</ele>
        <time>2010-08-21T11:02:21Z</time>
      </trkpt>
      <trkpt lat="51.1411190" lon="7.3736210">
        <ele>305.3600000</ele>
        <time>2010-08-21T11:04:30Z</time>
      </trkpt>
      <trkpt lat="51.1411030" lon="7.3735870">
        <ele>303.4300000</ele>
        <time>2010-08-21T11:06:26Z</time>
      </trkpt>
      <trkpt lat="51.1411010" lon="7.3735450">
        <ele>312.0900000</ele>
        <time>2010-08-21T11:08:33Z</time>
      </trkpt>
      <trkpt lat="51.1411010" lon="7.3735240">
        <ele>313.5300000</ele>
        <time>2010-08-21T11:09:39Z</time>
      </trkpt>
      <trkpt lat="51.1411240" lon="7.3735660">
        <ele>313.0500000</ele>
        <time>2010-08-21T11:11:18Z</time>
      </trkpt>
      <trkpt lat="51.1411000" lon="7.3736540">
        <ele>303.4300000</ele>
        <time>2010-08-21T11:12:24Z</time>
      </trkpt>
      <trkpt lat="51.1410960" lon="7.3735740">
        <ele>301.5100000</ele>
        <time>2010-08-21T11:13:51Z</time>
      </trkpt>
      <trkpt lat="51.1410820" lon="7.3735260">
        <ele>301.5100000</ele>
        <time>2010-08-21T11:13:52Z</time>
      </trkpt>
      <trkpt lat="51.1410570" lon="7.3734700">
        <ele>301.5100000</ele>
        <time>2010-08-21T11:13:53Z</time>
      </trkpt>
      <trkpt lat="51.1410150" lon="7.3734190">
        <ele>301.0300000</ele>
        <time>2010-08-21T11:13:54Z</time>
      </trkpt>
      <trkpt lat="51.1409660" lon="7.3733710">
        <ele>301.0300000</ele>
        <time>2010-08-21T11:13:55Z</time>
      </trkpt>
      <trkpt lat="51.1409140" lon="7.3733170">
        <ele>301.0300000</ele>
        <time>2010-08-21T11:13:56Z</time>
      </trkpt>
      <trkpt lat="51.1407620" lon="7.3731510">
        <ele>300.5500000</ele>
        <time>2010-08-21T11:13:58Z</time>
      </trkpt>
      <trkpt lat="51.1400020" lon="7.3722270">
        <ele>297.1800000</ele>
        <time>2010-08-21T11:14:06Z</time>
      </trkpt>
      <trkpt lat="51.1388730" lon="7.3704090">
        <ele>289.0100000</ele>
        <time>2010-08-21T11:14:15Z</time>
      </trkpt>
      <trkpt lat="51.1377550" lon="7.3679100">
        <ele>280.8400000</ele>
        <time>2010-08-21T11:14:26Z</time>
      </trkpt>
      <trkpt lat="51.1376300" lon="7.3674150">
        <ele>279.4000000</ele>
        <time>2010-08-21T11:14:28Z</time>
      </trkpt>
      <trkpt lat="51.1376100" lon="7.3671700">
        <ele>278.4400000</ele>
        <time>2010-08-21T11:14:29Z</time>
      </trkpt>
      <trkpt lat="51.1376000" lon="7.3669240">
        <ele>277.4800000</ele>
        <time>2010-08-21T11:14:30Z</time>
      </trkpt>
      <trkpt lat="51.1376100" lon="7.3666780">
        <ele>276.5200000</ele>
        <time>2010-08-21T11:14:31Z</time>
      </trkpt>
      <trkpt lat="51.1376540" lon="7.3664230">
        <ele>275.5600000</ele>
        <time>2010-08-21T11:14:32Z</time>
      </trkpt>
      <trkpt lat="51.1377220" lon="7.3661910">
        <ele>275.0700000</ele>
        <time>2010-08-21T11:14:33Z</time>
      </trkpt>
      <trkpt lat="51.1377820" lon="7.3659570">
        <ele>274.1100000</ele>
        <time>2010-08-21T11:14:34Z</time>
      </trkpt>
      <trkpt lat="51.1378490" lon="7.3652680">
        <ele>271.7100000</ele>
        <time>2010-08-21T11:14:37Z</time>
      </trkpt>
      <trkpt lat="51.1378080" lon="7.3650210">
        <ele>271.2300000</ele>
        <time>2010-08-21T11:14:38Z</time>
      </trkpt>
      <trkpt lat="51.1377160" lon="7.3647670">
        <ele>270.2700000</ele>
        <time>2010-08-21T11:14:39Z</time>
      </trkpt>
      <trkpt lat="51.1376260" lon="7.3645220">
        <ele>269.7900000</ele>
        <time>2010-08-21T11:14:40Z</time>
      </trkpt>
      <trkpt lat="51.1375430" lon="7.3642800">
        <ele>269.7900000</ele>
        <time>2010-08-21T11:14:41Z</time>
      </trkpt>
      <trkpt lat="51.1373180" lon="7.3635350">
        <ele>267.3800000</ele>
        <time>2010-08-21T11:14:44Z</time>
      </trkpt>
      <trkpt lat="51.1372730" lon="7.3632680">
        <ele>266.9000000</ele>
        <time>2010-08-21T11:14:45Z</time>
      </trkpt>
      <trkpt lat="51.1372450" lon="7.3629910">
        <ele>265.9400000</ele>
        <time>2010-08-21T11:14:46Z</time>
      </trkpt>
      <trkpt lat="51.1372430" lon="7.3627030">
        <ele>265.4600000</ele>
        <time>2010-08-21T11:14:47Z</time>
      </trkpt>
      <trkpt lat="51.1372530" lon="7.3624050">
        <ele>264.9800000</ele>
        <time>2010-08-21T11:14:48Z</time>
      </trkpt>
      <trkpt lat="51.1374080" lon="7.3588370">
        <ele>263.5400000</ele>
        <time>2010-08-21T11:15:00Z</time>
      </trkpt>
      <trkpt lat="51.1375950" lon="7.3562230">
        <ele>262.5800000</ele>
        <time>2010-08-21T11:15:10Z</time>
      </trkpt>
      <trkpt lat="51.1376590" lon="7.3560040">
        <ele>262.5800000</ele>
        <time>2010-08-21T11:15:11Z</time>
      </trkpt>
      <trkpt lat="51.1377370" lon="7.3558080">
        <ele>262.1000000</ele>
        <time>2010-08-21T11:15:12Z</time>
      </trkpt>
      <trkpt lat="51.1378220" lon="7.3556230">
        <ele>261.6200000</ele>
        <time>2010-08-21T11:15:13Z</time>
      </trkpt>
      <trkpt lat="51.1386480" lon="7.3536670">
        <ele>259.2100000</ele>
        <time>2010-08-21T11:15:23Z</time>
      </trkpt>
      <trkpt lat="51.1387340" lon="7.3534950">
        <ele>259.2100000</ele>
        <time>2010-08-21T11:15:24Z</time>
      </trkpt>
      <trkpt lat="51.1388280" lon="7.3533360">
        <ele>259.2100000</ele>
        <time>2010-08-21T11:15:25Z</time>
      </trkpt>
      <trkpt lat="51.1390270" lon="7.3530170">
        <ele>259.6900000</ele>
        <time>2010-08-21T11:15:27Z</time>
      </trkpt>
      <trkpt lat="51.1391420" lon="7.3528750">
        <ele>259.6900000</ele>
        <time>2010-08-21T11:15:28Z</time>
      </trkpt>
      <trkpt lat="51.1392640" lon="7.3527500">
        <ele>260.1700000</ele>
        <time>2010-08-21T11:15:29Z</time>
      </trkpt>
      <trkpt lat="51.1402080" lon="7.3516680">
        <ele>261.1400000</ele>
        <time>2010-08-21T11:15:38Z</time>
      </trkpt>
      <trkpt lat="51.1402670" lon="7.3515270">
        <ele>261.6200000</ele>
        <time>2010-08-21T11:15:39Z</time>
      </trkpt>
      <trkpt lat="51.1404930" lon="7.3508230">
        <ele>263.5400000</ele>
        <time>2010-08-21T11:15:46Z</time>
      </trkpt>
      <trkpt lat="51.1407220" lon="7.3500170">
        <ele>264.5000000</ele>
        <time>2010-08-21T11:15:57Z</time>
      </trkpt>
      <trkpt lat="51.1408360" lon="7.3497010">
        <ele>264.9800000</ele>
        <time>2010-08-21T11:16:04Z</time>
      </trkpt>
      <trkpt lat="51.1408390" lon="7.3496890">
        <ele>265.9400000</ele>
        <time>2010-08-21T11:16:06Z</time>
      </trkpt>
      <trkpt lat="51.1408200" lon="7.3496350">
        <ele>266.9000000</ele>
        <time>2010-08-21T11:16:07Z</time>
      </trkpt>
      <trkpt lat="51.1408090" lon="7.3495460">
        <ele>267.3800000</ele>
        <time>2010-08-21T11:16:08Z</time>
      </trkpt>
      <trkpt lat="51.1407770" lon="7.3494650">
        <ele>267.3800000</ele>
        <time>2010-08-21T11:16:09Z</time>
      </trkpt>
      <trkpt lat="51.1407210" lon="7.3493880">
        <ele>267.8600000</ele>
        <time>2010-08-21T11:16:10Z</time>
      </trkpt>
      <trkpt lat="51.1406320" lon="7.3493260">
        <ele>268.3500000</ele>
        <time>2010-08-21T11:16:11Z</time>
      </trkpt>
      <trkpt lat="51.1405140" lon="7.3492230">
        <ele>267.8600000</ele>
        <time>2010-08-21T11:16:12Z</time>
      </trkpt>
      <trkpt lat="51.1398760" lon="7.3482160">
        <ele>266.9000000</ele>
        <time>2010-08-21T11:16:18Z</time>
      </trkpt>
      <trkpt lat="51.1388900" lon="7.3459290">
        <ele>263.5400000</ele>
        <time>2010-08-21T11:16:28Z</time>
      </trkpt>
      <trkpt lat="51.1387440" lon="7.3457530">
        <ele>264.0200000</ele>
        <time>2010-08-21T11:16:29Z</time>
      </trkpt>
      <trkpt lat="51.1385960" lon="7.3456110">
        <ele>263.5400000</ele>
        <time>2010-08-21T11:16:30Z</time>
      </trkpt>
      <trkpt lat="51.1384270" lon="7.3455080">
        <ele>263.0600000</ele>
        <time>2010-08-21T11:16:31Z</time>
      </trkpt>
      <trkpt lat="51.1382390" lon="7.3454540">
        <ele>263.0600000</ele>
        <time>2010-08-21T11:16:32Z</time>
      </trkpt>
      <trkpt lat="51.1380570" lon="7.3454520">
        <ele>262.5800000</ele>
        <time>2010-08-21T11:16:33Z</time>
      </trkpt>
      <trkpt lat="51.1378810" lon="7.3454800">
        <ele>262.1000000</ele>
        <time>2010-08-21T11:16:34Z</time>
      </trkpt>
      <trkpt lat="51.1377190" lon="7.3455150">
        <ele>261.6200000</ele>
        <time>2010-08-21T11:16:35Z</time>
      </trkpt>
      <trkpt lat="51.1375710" lon="7.3455650">
        <ele>261.1400000</ele>
        <time>2010-08-21T11:16:36Z</time>
      </trkpt>
      <trkpt lat="51.1371540" lon="7.3456620">
        <ele>261.1400000</ele>
        <time>2010-08-21T11:16:40Z</time>
      </trkpt>
      <trkpt lat="51.1370920" lon="7.3456360">
        <ele>261.1400000</ele>
        <time>2010-08-21T11:16:41Z</time>
      </trkpt>
      <trkpt lat="51.1370540" lon="7.3455840">
        <ele>261.6200000</ele>
        <time>2010-08-21T11:16:42Z</time>
      </trkpt>
      <trkpt lat="51.1370300" lon="7.3455090">
        <ele>261.6200000</ele>
        <time>2010-08-21T11:16:43Z</time>
      </trkpt>
      <trkpt lat="51.1370160" lon="7.3453930">
        <ele>261.6200000</ele>
        <time>2010-08-21T11:16:44Z</time>
      </trkpt>
      <trkpt lat="51.1369970" lon="7.3452380">
        <ele>262.5800000</ele>
        <time>2010-08-21T11:16:45Z</time>
      </trkpt>
      <trkpt lat="51.1367080" lon="7.3439780">
        <ele>267.3800000</ele>
        <time>2010-08-21T11:16:51Z</time>
      </trkpt>
      <trkpt lat="51.1361100" lon="7.3421700">
        <ele>272.1900000</ele>
        <time>2010-08-21T11:16:58Z</time>
      </trkpt>
      <trkpt lat="51.1350790" lon="7.3406050">
        <ele>277.0000000</ele>
        <time>2010-08-21T11:17:05Z</time>
      </trkpt>
      <trkpt lat="51.1345370" lon="7.3397320">
        <ele>281.8000000</ele>
        <time>2010-08-21T11:17:09Z</time>
      </trkpt>
      <trkpt lat="51.1344400" lon="7.3394730">
        <ele>283.2500000</ele>
        <time>2010-08-21T11:17:10Z</time>
      </trkpt>
      <trkpt lat="51.1342320" lon="7.3390480">
        <ele>285.6500000</ele>
        <time>2010-08-21T11:17:12Z</time>
      </trkpt>
      <trkpt lat="51.1341340" lon="7.3388880">
        <ele>286.6100000</ele>
        <time>2010-08-21T11:17:13Z</time>
      </trkpt>
      <trkpt lat="51.1340110" lon="7.3387580">
        <ele>288.0500000</ele>
        <time>2010-08-21T11:17:14Z</time>
      </trkpt>
      <trkpt lat="51.1338810" lon="7.3386420">
        <ele>289.0100000</ele>
        <time>2010-08-21T11:17:15Z</time>
      </trkpt>
      <trkpt lat="51.1337510" lon="7.3385460">
        <ele>290.9400000</ele>
        <time>2010-08-21T11:17:16Z</time>
      </trkpt>
      <trkpt lat="51.1325420" lon="7.3374450">
        <ele>301.0300000</ele>
        <time>2010-08-21T11:17:25Z</time>
      </trkpt>
      <trkpt lat="51.1323030" lon="7.3370740">
        <ele>303.9100000</ele>
        <time>2010-08-21T11:17:27Z</time>
      </trkpt>
      <trkpt lat="51.1322100" lon="7.3368490">
        <ele>305.3600000</ele>
        <time>2010-08-21T11:17:28Z</time>
      </trkpt>
      <trkpt lat="51.1321300" lon="7.3365810">
        <ele>306.8000000</ele>
        <time>2010-08-21T11:17:29Z</time>
      </trkpt>
      <trkpt lat="51.1315110" lon="7.3349050">
        <ele>312.0900000</ele>
        <time>2010-08-21T11:17:36Z</time>
      </trkpt>
      <trkpt lat="51.1314350" lon="7.3346370">
        <ele>312.0900000</ele>
        <time>2010-08-21T11:17:37Z</time>
      </trkpt>
      <trkpt lat="51.1307490" lon="7.3318420">
        <ele>321.7000000</ele>
        <time>2010-08-21T11:17:48Z</time>
      </trkpt>
      <trkpt lat="51.1301140" lon="7.3303140">
        <ele>326.9900000</ele>
        <time>2010-08-21T11:17:56Z</time>
      </trkpt>
      <trkpt lat="51.1297320" lon="7.3296450">
        <ele>326.9900000</ele>
        <time>2010-08-21T11:18:02Z</time>
      </trkpt>
      <trkpt lat="51.1297120" lon="7.3295420">
        <ele>326.9900000</ele>
        <time>2010-08-21T11:18:03Z</time>
      </trkpt>
      <trkpt lat="51.1297030" lon="7.3294220">
        <ele>326.5000000</ele>
        <time>2010-08-21T11:18:04Z</time>
      </trkpt>
      <trkpt lat="51.1297100" lon="7.3292730">
        <ele>326.0200000</ele>
        <time>2010-08-21T11:18:05Z</time>
      </trkpt>
      <trkpt lat="51.1297360" lon="7.3290990">
        <ele>325.0600000</ele>
        <time>2010-08-21T11:18:06Z</time>
      </trkpt>
      <trkpt lat="51.1298040" lon="7.3288880">
        <ele>324.1000000</ele>
        <time>2010-08-21T11:18:07Z</time>
      </trkpt>
      <trkpt lat="51.1298800" lon="7.3286870">
        <ele>323.1400000</ele>
        <time>2010-08-21T11:18:08Z</time>
      </trkpt>
      <trkpt lat="51.1299900" lon="7.3284890">
        <ele>321.7000000</ele>
        <time>2010-08-21T11:18:09Z</time>
      </trkpt>
      <trkpt lat="51.1301010" lon="7.3282850">
        <ele>319.7800000</ele>
        <time>2010-08-21T11:18:10Z</time>
      </trkpt>
      <trkpt lat="51.1314670" lon="7.3257380">
        <ele>308.2400000</ele>
        <time>2010-08-21T11:18:22Z</time>
      </trkpt>
      <trkpt lat="51.1315530" lon="7.3255120">
        <ele>308.2400000</ele>
        <time>2010-08-21T11:18:23Z</time>
      </trkpt>
      <trkpt lat="51.1316210" lon="7.3252690">
        <ele>308.7200000</ele>
        <time>2010-08-21T11:18:24Z</time>
      </trkpt>
      <trkpt lat="51.1316490" lon="7.3249850">
        <ele>309.2000000</ele>
        <time>2010-08-21T11:18:25Z</time>
      </trkpt>
      <trkpt lat="51.1316580" lon="7.3247150">
        <ele>310.1600000</ele>
        <time>2010-08-21T11:18:26Z</time>
      </trkpt>
      <trkpt lat="51.1316470" lon="7.3244460">
        <ele>311.1200000</ele>
        <time>2010-08-21T11:18:27Z</time>
      </trkpt>
      <trkpt lat="51.1316390" lon="7.3241930">
        <ele>312.0900000</ele>
        <time>2010-08-21T11:18:28Z</time>
      </trkpt>
      <trkpt lat="51.1316520" lon="7.3237250">
        <ele>314.4900000</ele>
        <time>2010-08-21T11:18:30Z</time>
      </trkpt>
      <trkpt lat="51.1316880" lon="7.3235100">
        <ele>315.9300000</ele>
        <time>2010-08-21T11:18:31Z</time>
      </trkpt>
      <trkpt lat="51.1317570" lon="7.3233130">
        <ele>317.3700000</ele>
        <time>2010-08-21T11:18:32Z</time>
      </trkpt>
      <trkpt lat="51.1318490" lon="7.3231500">
        <ele>318.8100000</ele>
        <time>2010-08-21T11:18:33Z</time>
      </trkpt>
      <trkpt lat="51.1319760" lon="7.3230390">
        <ele>320.2600000</ele>
        <time>2010-08-21T11:18:34Z</time>
      </trkpt>
      <trkpt lat="51.1321080" lon="7.3229820">
        <ele>321.2200000</ele>
        <time>2010-08-21T11:18:35Z</time>
      </trkpt>
      <trkpt lat="51.1322430" lon="7.3229870">
        <ele>322.1800000</ele>
        <time>2010-08-21T11:18:36Z</time>
      </trkpt>
      <trkpt lat="51.1323800" lon="7.3230330">
        <ele>324.1000000</ele>
        <time>2010-08-21T11:18:37Z</time>
      </trkpt>
      <trkpt lat="51.1324980" lon="7.3230730">
        <ele>325.5400000</ele>
        <time>2010-08-21T11:18:38Z</time>
      </trkpt>
      <trkpt lat="51.1326440" lon="7.3231270">
        <ele>326.5000000</ele>
        <time>2010-08-21T11:18:39Z</time>
      </trkpt>
      <trkpt lat="51.1327900" lon="7.3231650">
        <ele>327.9500000</ele>
        <time>2010-08-21T11:18:40Z</time>
      </trkpt>
      <trkpt lat="51.1329260" lon="7.3231860">
        <ele>329.3900000</ele>
        <time>2010-08-21T11:18:41Z</time>
      </trkpt>
      <trkpt lat="51.1330470" lon="7.3231510">
        <ele>330.3500000</ele>
        <time>2010-08-21T11:18:42Z</time>
      </trkpt>
      <trkpt lat="51.1331590" lon="7.3230710">
        <ele>331.7900000</ele>
        <time>2010-08-21T11:18:43Z</time>
      </trkpt>
      <trkpt lat="51.1332550" lon="7.3229620">
        <ele>334.2000000</ele>
        <time>2010-08-21T11:18:44Z</time>
      </trkpt>
      <trkpt lat="51.1333430" lon="7.3228290">
        <ele>335.6400000</ele>
        <time>2010-08-21T11:18:45Z</time>
      </trkpt>
      <trkpt lat="51.1334220" lon="7.3226680">
        <ele>336.1200000</ele>
        <time>2010-08-21T11:18:46Z</time>
      </trkpt>
      <trkpt lat="51.1335020" lon="7.3224900">
        <ele>336.6000000</ele>
        <time>2010-08-21T11:18:47Z</time>
      </trkpt>
      <trkpt lat="51.1344410" lon="7.3204060">
        <ele>330.8300000</ele>
        <time>2010-08-21T11:18:57Z</time>
      </trkpt>
      <trkpt lat="51.1353330" lon="7.3180180">
        <ele>329.3900000</ele>
        <time>2010-08-21T11:19:07Z</time>
      </trkpt>
      <trkpt lat="51.1364820" lon="7.3161710">
        <ele>332.7500000</ele>
        <time>2010-08-21T11:19:17Z</time>
      </trkpt>
      <trkpt lat="51.1378290" lon="7.3139330">
        <ele>345.7300000</ele>
        <time>2010-08-21T11:19:30Z</time>
      </trkpt>
      <trkpt lat="51.1385210" lon="7.3125060">
        <ele>354.8600000</ele>
        <time>2010-08-21T11:19:38Z</time>
      </trkpt>
      <trkpt lat="51.1386250" lon="7.3123770">
        <ele>355.8300000</ele>
        <time>2010-08-21T11:19:39Z</time>
      </trkpt>
      <trkpt lat="51.1387360" lon="7.3122630">
        <ele>356.3100000</ele>
        <time>2010-08-21T11:19:40Z</time>
      </trkpt>
      <trkpt lat="51.1388530" lon="7.3121570">
        <ele>357.2700000</ele>
        <time>2010-08-21T11:19:41Z</time>
      </trkpt>
      <trkpt lat="51.1389770" lon="7.3120570">
        <ele>358.2300000</ele>
        <time>2010-08-21T11:19:42Z</time>
      </trkpt>
      <trkpt lat="51.1404610" lon="7.3111480">
        <ele>357.2700000</ele>
        <time>2010-08-21T11:19:53Z</time>
      </trkpt>
      <trkpt lat="51.1413830" lon="7.3108630">
        <ele>351.5000000</ele>
        <time>2010-08-21T11:20:01Z</time>
      </trkpt>
      <trkpt lat="51.1416340" lon="7.3108200">
        <ele>349.1000000</ele>
        <time>2010-08-21T11:20:08Z</time>
      </trkpt>
      <trkpt lat="51.1416550" lon="7.3107710">
        <ele>348.6200000</ele>
        <time>2010-08-21T11:20:13Z</time>
      </trkpt>
      <trkpt lat="51.1416520" lon="7.3107310">
        <ele>348.6200000</ele>
        <time>2010-08-21T11:20:14Z</time>
      </trkpt>
      <trkpt lat="51.1416300" lon="7.3106700">
        <ele>348.1300000</ele>
        <time>2010-08-21T11:20:15Z</time>
      </trkpt>
      <trkpt lat="51.1415690" lon="7.3105870">
        <ele>348.1300000</ele>
        <time>2010-08-21T11:20:16Z</time>
      </trkpt>
      <trkpt lat="51.1414750" lon="7.3104900">
        <ele>347.6500000</ele>
        <time>2010-08-21T11:20:17Z</time>
      </trkpt>
      <trkpt lat="51.1413740" lon="7.3103860">
        <ele>347.6500000</ele>
        <time>2010-08-21T11:20:18Z</time>
      </trkpt>
      <trkpt lat="51.1404060" lon="7.3094230">
        <ele>346.6900000</ele>
        <time>2010-08-21T11:20:27Z</time>
      </trkpt>
      <trkpt lat="51.1402050" lon="7.3090770">
        <ele>346.2100000</ele>
        <time>2010-08-21T11:20:29Z</time>
      </trkpt>
      <trkpt lat="51.1401290" lon="7.3088600">
        <ele>346.2100000</ele>
        <time>2010-08-21T11:20:30Z</time>
      </trkpt>
      <trkpt lat="51.1400600" lon="7.3086500">
        <ele>346.2100000</ele>
        <time>2010-08-21T11:20:31Z</time>
      </trkpt>
      <trkpt lat="51.1395050" lon="7.3065460">
        <ele>345.2500000</ele>
        <time>2010-08-21T11:20:41Z</time>
      </trkpt>
      <trkpt lat="51.1390160" lon="7.3042810">
        <ele>344.2900000</ele>
        <time>2010-08-21T11:20:50Z</time>
      </trkpt>
      <trkpt lat="51.1385070" lon="7.3019510">
        <ele>343.8100000</ele>
        <time>2010-08-21T11:21:00Z</time>
      </trkpt>
      <trkpt lat="51.1377500" lon="7.3000880">
        <ele>340.4400000</ele>
        <time>2010-08-21T11:21:09Z</time>
      </trkpt>
      <trkpt lat="51.1377060" lon="7.2998600">
        <ele>339.9600000</ele>
        <time>2010-08-21T11:21:10Z</time>
      </trkpt>
      <trkpt lat="51.1376770" lon="7.2996410">
        <ele>339.4800000</ele>
        <time>2010-08-21T11:21:11Z</time>
      </trkpt>
      <trkpt lat="51.1376370" lon="7.2989340">
        <ele>338.0400000</ele>
        <time>2010-08-21T11:21:15Z</time>
      </trkpt>
      <trkpt lat="51.1376550" lon="7.2987880">
        <ele>337.5600000</ele>
        <time>2010-08-21T11:21:16Z</time>
      </trkpt>
      <trkpt lat="51.1376800" lon="7.2986600">
        <ele>337.5600000</ele>
        <time>2010-08-21T11:21:17Z</time>
      </trkpt>
      <trkpt lat="51.1377080" lon="7.2985530">
        <ele>337.0800000</ele>
        <time>2010-08-21T11:21:18Z</time>
      </trkpt>
      <trkpt lat="51.1377370" lon="7.2984710">
        <ele>336.1200000</ele>
        <time>2010-08-21T11:21:19Z</time>
      </trkpt>
      <trkpt lat="51.1377620" lon="7.2984040">
        <ele>336.1200000</ele>
        <time>2010-08-21T11:21:20Z</time>
      </trkpt>
      <trkpt lat="51.1378680" lon="7.2982010">
        <ele>335.6400000</ele>
        <time>2010-08-21T11:21:29Z</time>
      </trkpt>
      <trkpt lat="51.1379240" lon="7.2981230">
        <ele>335.1600000</ele>
        <time>2010-08-21T11:21:37Z</time>
      </trkpt>
      <trkpt lat="51.1379240" lon="7.2980670">
        <ele>335.1600000</ele>
        <time>2010-08-21T11:21:38Z</time>
      </trkpt>
      <trkpt lat="51.1379130" lon="7.2979980">
        <ele>334.6800000</ele>
        <time>2010-08-21T11:21:39Z</time>
      </trkpt>
      <trkpt lat="51.1378900" lon="7.2979090">
        <ele>334.6800000</ele>
        <time>2010-08-21T11:21:40Z</time>
      </trkpt>
      <trkpt lat="51.1378630" lon="7.2978030">
        <ele>334.2000000</ele>
        <time>2010-08-21T11:21:41Z</time>
      </trkpt>
      <trkpt lat="51.1376300" lon="7.2967740">
        <ele>332.7500000</ele>
        <time>2010-08-21T11:21:47Z</time>
      </trkpt>
      <trkpt lat="51.1370170" lon="7.2946010">
        <ele>332.2700000</ele>
        <time>2010-08-21T11:21:57Z</time>
      </trkpt>
      <trkpt lat="51.1357870" lon="7.2917750">
        <ele>337.0800000</ele>
        <time>2010-08-21T11:22:11Z</time>
      </trkpt>
      <trkpt lat="51.1354900" lon="7.2907200">
        <ele>336.1200000</ele>
        <time>2010-08-21T11:22:16Z</time>
      </trkpt>
      <trkpt lat="51.1354210" lon="7.2904050">
        <ele>336.1200000</ele>
        <time>2010-08-21T11:22:18Z</time>
      </trkpt>
      <trkpt lat="51.1353690" lon="7.2903280">
        <ele>336.1200000</ele>
        <time>2010-08-21T11:22:19Z</time>
      </trkpt>
      <trkpt lat="51.1353020" lon="7.2903120">
        <ele>336.1200000</ele>
        <time>2010-08-21T11:22:20Z</time>
      </trkpt>
      <trkpt lat="51.1352120" lon="7.2903420">
        <ele>336.1200000</ele>
        <time>2010-08-21T11:22:21Z</time>
      </trkpt>
      <trkpt lat="51.1350960" lon="7.2904110">
        <ele>335.6400000</ele>
        <time>2010-08-21T11:22:22Z</time>
      </trkpt>
      <trkpt lat="51.1349650" lon="7.2904820">
        <ele>335.6400000</ele>
        <time>2010-08-21T11:22:23Z</time>
      </trkpt>
      <trkpt lat="51.1348060" lon="7.2905530">
        <ele>335.6400000</ele>
        <time>2010-08-21T11:22:24Z</time>
      </trkpt>
      <trkpt lat="51.1337310" lon="7.2914370">
        <ele>332.2700000</ele>
        <time>2010-08-21T11:22:31Z</time>
      </trkpt>
      <trkpt lat="51.1335570" lon="7.2915460">
        <ele>330.8300000</ele>
        <time>2010-08-21T11:22:32Z</time>
      </trkpt>
      <trkpt lat="51.1333730" lon="7.2916330">
        <ele>329.8700000</ele>
        <time>2010-08-21T11:22:33Z</time>
      </trkpt>
      <trkpt lat="51.1331740" lon="7.2916980">
        <ele>328.9100000</ele>
        <time>2010-08-21T11:22:34Z</time>
      </trkpt>
      <trkpt lat="51.1329560" lon="7.2917460">
        <ele>327.4700000</ele>
        <time>2010-08-21T11:22:35Z</time>
      </trkpt>
      <trkpt lat="51.1327150" lon="7.2917670">
        <ele>326.5000000</ele>
        <time>2010-08-21T11:22:36Z</time>
      </trkpt>
      <trkpt lat="51.1324590" lon="7.2917700">
        <ele>326.0200000</ele>
        <time>2010-08-21T11:22:37Z</time>
      </trkpt>
      <trkpt lat="51.1305570" lon="7.2915760">
        <ele>321.7000000</ele>
        <time>2010-08-21T11:22:45Z</time>
      </trkpt>
      <trkpt lat="51.1283220" lon="7.2909530">
        <ele>323.6200000</ele>
        <time>2010-08-21T11:22:55Z</time>
      </trkpt>
      <trkpt lat="51.1257270" lon="7.2904010">
        <ele>328.9100000</ele>
        <time>2010-08-21T11:23:07Z</time>
      </trkpt>
      <trkpt lat="51.1248520" lon="7.2902810">
        <ele>328.4300000</ele>
        <time>2010-08-21T11:23:12Z</time>
      </trkpt>
      <trkpt lat="51.1246830" lon="7.2903090">
        <ele>327.9500000</ele>
        <time>2010-08-21T11:23:13Z</time>
      </trkpt>
      <trkpt lat="51.1245190" lon="7.2903690">
        <ele>327.4700000</ele>
        <time>2010-08-21T11:23:14Z</time>
      </trkpt>
      <trkpt lat="51.1243660" lon="7.2904520">
        <ele>327.4700000</ele>
        <time>2010-08-21T11:23:15Z</time>
      </trkpt>
      <trkpt lat="51.1242190" lon="7.2905470">
        <ele>326.9900000</ele>
        <time>2010-08-21T11:23:16Z</time>
      </trkpt>
      <trkpt lat="51.1239340" lon="7.2906960">
        <ele>326.0200000</ele>
        <time>2010-08-21T11:23:18Z</time>
      </trkpt>
      <trkpt lat="51.1237840" lon="7.2907310">
        <ele>325.0600000</ele>
        <time>2010-08-21T11:23:19Z</time>
      </trkpt>
      <trkpt lat="51.1236240" lon="7.2906990">
        <ele>324.5800000</ele>
        <time>2010-08-21T11:23:20Z</time>
      </trkpt>
      <trkpt lat="51.1234530" lon="7.2906260">
        <ele>324.1000000</ele>
        <time>2010-08-21T11:23:21Z</time>
      </trkpt>
      <trkpt lat="51.1232650" lon="7.2905440">
        <ele>323.6200000</ele>
        <time>2010-08-21T11:23:22Z</time>
      </trkpt>
      <trkpt lat="51.1215130" lon="7.2897720">
        <ele>317.3700000</ele>
        <time>2010-08-21T11:23:31Z</time>
      </trkpt>
      <trkpt lat="51.1211390" lon="7.2895520">
        <ele>316.4100000</ele>
        <time>2010-08-21T11:23:33Z</time>
      </trkpt>
      <trkpt lat="51.1209440" lon="7.2893850">
        <ele>315.4500000</ele>
        <time>2010-08-21T11:23:34Z</time>
      </trkpt>
      <trkpt lat="51.1207470" lon="7.2891830">
        <ele>314.9700000</ele>
        <time>2010-08-21T11:23:35Z</time>
      </trkpt>
      <trkpt lat="51.1192830" lon="7.2877220">
        <ele>311.1200000</ele>
        <time>2010-08-21T11:23:43Z</time>
      </trkpt>
      <trkpt lat="51.1178710" lon="7.2868620">
        <ele>312.0900000</ele>
        <time>2010-08-21T11:23:51Z</time>
      </trkpt>
      <trkpt lat="51.1175750" lon="7.2866820">
        <ele>312.0900000</ele>
        <time>2010-08-21T11:23:53Z</time>
      </trkpt>
      <trkpt lat="51.1174490" lon="7.2865580">
        <ele>311.6000000</ele>
        <time>2010-08-21T11:23:54Z</time>
      </trkpt>
      <trkpt lat="51.1173420" lon="7.2864120">
        <ele>311.6000000</ele>
        <time>2010-08-21T11:23:55Z</time>
      </trkpt>
      <trkpt lat="51.1172490" lon="7.2862510">
        <ele>311.1200000</ele>
        <time>2010-08-21T11:23:56Z</time>
      </trkpt>
      <trkpt lat="51.1171700" lon="7.2860630">
        <ele>311.1200000</ele>
        <time>2010-08-21T11:23:57Z</time>
      </trkpt>
      <trkpt lat="51.1163330" lon="7.2844000">
        <ele>309.6800000</ele>
        <time>2010-08-21T11:24:06Z</time>
      </trkpt>
      <trkpt lat="51.1156850" lon="7.2837120">
        <ele>308.7200000</ele>
        <time>2010-08-21T11:24:12Z</time>
      </trkpt>
      <trkpt lat="51.1155350" lon="7.2836570">
        <ele>309.2000000</ele>
        <time>2010-08-21T11:24:13Z</time>
      </trkpt>
      <trkpt lat="51.1153650" lon="7.2836100">
        <ele>308.7200000</ele>
        <time>2010-08-21T11:24:14Z</time>
      </trkpt>
      <trkpt lat="51.1151560" lon="7.2835670">
        <ele>308.7200000</ele>
        <time>2010-08-21T11:24:15Z</time>
      </trkpt>
      <trkpt lat="51.1149340" lon="7.2835350">
        <ele>308.2400000</ele>
        <time>2010-08-21T11:24:16Z</time>
      </trkpt>
      <trkpt lat="51.1138620" lon="7.2831330">
        <ele>303.4300000</ele>
        <time>2010-08-21T11:24:22Z</time>
      </trkpt>
      <trkpt lat="51.1137160" lon="7.2830060">
        <ele>302.9500000</ele>
        <time>2010-08-21T11:24:23Z</time>
      </trkpt>
      <trkpt lat="51.1135660" lon="7.2828160">
        <ele>302.4700000</ele>
        <time>2010-08-21T11:24:24Z</time>
      </trkpt>
      <trkpt lat="51.1133980" lon="7.2825870">
        <ele>301.9900000</ele>
        <time>2010-08-21T11:24:25Z</time>
      </trkpt>
      <trkpt lat="51.1122620" lon="7.2812420">
        <ele>302.9500000</ele>
        <time>2010-08-21T11:24:31Z</time>
      </trkpt>
      <trkpt lat="51.1121100" lon="7.2810140">
        <ele>303.4300000</ele>
        <time>2010-08-21T11:24:32Z</time>
      </trkpt>
      <trkpt lat="51.1119830" lon="7.2807660">
        <ele>303.9100000</ele>
        <time>2010-08-21T11:24:33Z</time>
      </trkpt>
      <trkpt lat="51.1118910" lon="7.2804720">
        <ele>304.8800000</ele>
        <time>2010-08-21T11:24:34Z</time>
      </trkpt>
      <trkpt lat="51.1111720" lon="7.2782100">
        <ele>314.4900000</ele>
        <time>2010-08-21T11:24:42Z</time>
      </trkpt>
      <trkpt lat="51.1102850" lon="7.2761930">
        <ele>309.6800000</ele>
        <time>2010-08-21T11:24:50Z</time>
      </trkpt>
      <trkpt lat="51.1094620" lon="7.2748930">
        <ele>302.9500000</ele>
        <time>2010-08-21T11:24:56Z</time>
      </trkpt>
      <trkpt lat="51.1085080" lon="7.2727850">
        <ele>297.1800000</ele>
        <time>2010-08-21T11:25:04Z</time>
      </trkpt>
      <trkpt lat="51.1075690" lon="7.2700490">
        <ele>289.0100000</ele>
        <time>2010-08-21T11:25:14Z</time>
      </trkpt>
      <trkpt lat="51.1074610" lon="7.2698210">
        <ele>289.0100000</ele>
        <time>2010-08-21T11:25:15Z</time>
      </trkpt>
      <trkpt lat="51.1073250" lon="7.2696250">
        <ele>289.0100000</ele>
        <time>2010-08-21T11:25:16Z</time>
      </trkpt>
      <trkpt lat="51.1071630" lon="7.2694460">
        <ele>288.5300000</ele>
        <time>2010-08-21T11:25:17Z</time>
      </trkpt>
      <trkpt lat="51.1053190" lon="7.2677260">
        <ele>289.4900000</ele>
        <time>2010-08-21T11:25:27Z</time>
      </trkpt>
      <trkpt lat="51.1040850" lon="7.2664490">
        <ele>284.2100000</ele>
        <time>2010-08-21T11:25:35Z</time>
      </trkpt>
      <trkpt lat="51.1035120" lon="7.2654500">
        <ele>279.8800000</ele>
        <time>2010-08-21T11:25:42Z</time>
      </trkpt>
      <trkpt lat="51.1033870" lon="7.2652480">
        <ele>277.9600000</ele>
        <time>2010-08-21T11:25:48Z</time>
      </trkpt>
      <trkpt lat="51.1033870" lon="7.2652720">
        <ele>277.4800000</ele>
        <time>2010-08-21T11:25:57Z</time>
      </trkpt>
      <trkpt lat="51.1033720" lon="7.2652830">
        <ele>277.4800000</ele>
        <time>2010-08-21T11:25:58Z</time>
      </trkpt>
      <trkpt lat="51.1033550" lon="7.2653150">
        <ele>277.4800000</ele>
        <time>2010-08-21T11:25:59Z</time>
      </trkpt>
      <trkpt lat="51.1033380" lon="7.2654280">
        <ele>277.4800000</ele>
        <time>2010-08-21T11:26:00Z</time>
      </trkpt>
      <trkpt lat="51.1033310" lon="7.2656000">
        <ele>277.4800000</ele>
        <time>2010-08-21T11:26:01Z</time>
      </trkpt>
      <trkpt lat="51.1032670" lon="7.2659890">
        <ele>278.4400000</ele>
        <time>2010-08-21T11:26:03Z</time>
      </trkpt>
      <trkpt lat="51.1032150" lon="7.2661920">
        <ele>278.9200000</ele>
        <time>2010-08-21T11:26:04Z</time>
      </trkpt>
      <trkpt lat="51.1029990" lon="7.2669670">
        <ele>279.8800000</ele>
        <time>2010-08-21T11:26:08Z</time>
      </trkpt>
      <trkpt lat="51.1029330" lon="7.2671330">
        <ele>280.3600000</ele>
        <time>2010-08-21T11:26:09Z</time>
      </trkpt>
      <trkpt lat="51.1028550" lon="7.2672780">
        <ele>280.3600000</ele>
        <time>2010-08-21T11:26:10Z</time>
      </trkpt>
      <trkpt lat="51.1027620" lon="7.2673920">
        <ele>279.8800000</ele>
        <time>2010-08-21T11:26:11Z</time>
      </trkpt>
      <trkpt lat="51.1026710" lon="7.2674940">
        <ele>280.3600000</ele>
        <time>2010-08-21T11:26:12Z</time>
      </trkpt>
      <trkpt lat="51.1025820" lon="7.2675900">
        <ele>280.3600000</ele>
        <time>2010-08-21T11:26:13Z</time>
      </trkpt>
      <trkpt lat="51.1024980" lon="7.2676970">
        <ele>280.3600000</ele>
        <time>2010-08-21T11:26:14Z</time>
      </trkpt>
      <trkpt lat="51.1024250" lon="7.2678230">
        <ele>280.3600000</ele>
        <time>2010-08-21T11:26:15Z</time>
      </trkpt>
      <trkpt lat="51.1023730" lon="7.2679670">
        <ele>280.8400000</ele>
        <time>2010-08-21T11:26:16Z</time>
      </trkpt>
      <trkpt lat="51.1023410" lon="7.2681250">
        <ele>280.8400000</ele>
        <time>2010-08-21T11:26:17Z</time>
      </trkpt>
      <trkpt lat="51.1023280" lon="7.2682930">
        <ele>280.8400000</ele>
        <time>2010-08-21T11:26:18Z</time>
      </trkpt>
      <trkpt lat="51.1023320" lon="7.2684700">
        <ele>280.3600000</ele>
        <time>2010-08-21T11:26:19Z</time>
      </trkpt>
      <trkpt lat="51.1023550" lon="7.2686520">
        <ele>280.3600000</ele>
        <time>2010-08-21T11:26:20Z</time>
      </trkpt>
      <trkpt lat="51.1023850" lon="7.2688350">
        <ele>280.3600000</ele>
        <time>2010-08-21T11:26:21Z</time>
      </trkpt>
      <trkpt lat="51.1024660" lon="7.2693640">
        <ele>280.3600000</ele>
        <time>2010-08-21T11:26:24Z</time>
      </trkpt>
      <trkpt lat="51.1024690" lon="7.2695380">
        <ele>279.8800000</ele>
        <time>2010-08-21T11:26:25Z</time>
      </trkpt>
      <trkpt lat="51.1024500" lon="7.2697070">
        <ele>279.4000000</ele>
        <time>2010-08-21T11:26:26Z</time>
      </trkpt>
      <trkpt lat="51.1024130" lon="7.2698600">
        <ele>279.8800000</ele>
        <time>2010-08-21T11:26:27Z</time>
      </trkpt>
      <trkpt lat="51.1023540" lon="7.2699720">
        <ele>279.8800000</ele>
        <time>2010-08-21T11:26:28Z</time>
      </trkpt>
      <trkpt lat="51.1022720" lon="7.2699870">
        <ele>279.8800000</ele>
        <time>2010-08-21T11:26:29Z</time>
      </trkpt>
      <trkpt lat="51.1021750" lon="7.2699850">
        <ele>279.4000000</ele>
        <time>2010-08-21T11:26:30Z</time>
      </trkpt>
      <trkpt lat="51.1020570" lon="7.2699560">
        <ele>278.9200000</ele>
        <time>2010-08-21T11:26:31Z</time>
      </trkpt>
      <trkpt lat="51.1019610" lon="7.2699380">
        <ele>278.9200000</ele>
        <time>2010-08-21T11:26:32Z</time>
      </trkpt>
      <trkpt lat="51.1018610" lon="7.2699070">
        <ele>278.4400000</ele>
        <time>2010-08-21T11:26:33Z</time>
      </trkpt>
      <trkpt lat="51.1014090" lon="7.2698380">
        <ele>277.9600000</ele>
        <time>2010-08-21T11:26:37Z</time>
      </trkpt>
      <trkpt lat="51.1012870" lon="7.2698610">
        <ele>277.4800000</ele>
        <time>2010-08-21T11:26:38Z</time>
      </trkpt>
      <trkpt lat="51.1011700" lon="7.2699090">
        <ele>277.4800000</ele>
        <time>2010-08-21T11:26:39Z</time>
      </trkpt>
      <trkpt lat="51.1010580" lon="7.2699820">
        <ele>277.4800000</ele>
        <time>2010-08-21T11:26:40Z</time>
      </trkpt>
      <trkpt lat="51.1009580" lon="7.2700790">
        <ele>277.4800000</ele>
        <time>2010-08-21T11:26:41Z</time>
      </trkpt>
      <trkpt lat="51.1008630" lon="7.2701970">
        <ele>277.4800000</ele>
        <time>2010-08-21T11:26:42Z</time>
      </trkpt>
      <trkpt lat="51.1007730" lon="7.2703250">
        <ele>277.4800000</ele>
        <time>2010-08-21T11:26:43Z</time>
      </trkpt>
      <trkpt lat="51.1000560" lon="7.2710750">
        <ele>276.5200000</ele>
        <time>2010-08-21T11:26:50Z</time>
      </trkpt>
      <trkpt lat="51.0989650" lon="7.2718090">
        <ele>272.6700000</ele>
        <time>2010-08-21T11:27:00Z</time>
      </trkpt>
      <trkpt lat="51.0981440" lon="7.2724300">
        <ele>267.8600000</ele>
        <time>2010-08-21T11:27:08Z</time>
      </trkpt>
      <trkpt lat="51.0980570" lon="7.2725320">
        <ele>267.3800000</ele>
        <time>2010-08-21T11:27:09Z</time>
      </trkpt>
      <trkpt lat="51.0979790" lon="7.2726470">
        <ele>266.9000000</ele>
        <time>2010-08-21T11:27:10Z</time>
      </trkpt>
      <trkpt lat="51.0979050" lon="7.2727730">
        <ele>265.9400000</ele>
        <time>2010-08-21T11:27:11Z</time>
      </trkpt>
      <trkpt lat="51.0978360" lon="7.2729110">
        <ele>265.4600000</ele>
        <time>2010-08-21T11:27:12Z</time>
      </trkpt>
      <trkpt lat="51.0977760" lon="7.2730640">
        <ele>264.9800000</ele>
        <time>2010-08-21T11:27:13Z</time>
      </trkpt>
      <trkpt lat="51.0977310" lon="7.2732340">
        <ele>264.5000000</ele>
        <time>2010-08-21T11:27:14Z</time>
      </trkpt>
      <trkpt lat="51.0977060" lon="7.2734330">
        <ele>263.5400000</ele>
        <time>2010-08-21T11:27:15Z</time>
      </trkpt>
      <trkpt lat="51.0977160" lon="7.2736750">
        <ele>262.5800000</ele>
        <time>2010-08-21T11:27:16Z</time>
      </trkpt>
      <trkpt lat="51.0977260" lon="7.2739110">
        <ele>261.6200000</ele>
        <time>2010-08-21T11:27:17Z</time>
      </trkpt>
      <trkpt lat="51.0977520" lon="7.2741500">
        <ele>261.1400000</ele>
        <time>2010-08-21T11:27:18Z</time>
      </trkpt>
      <trkpt lat="51.0977870" lon="7.2743880">
        <ele>260.1700000</ele>
        <time>2010-08-21T11:27:19Z</time>
      </trkpt>
      <trkpt lat="51.0978290" lon="7.2746290">
        <ele>259.6900000</ele>
        <time>2010-08-21T11:27:20Z</time>
      </trkpt>
      <trkpt lat="51.0979720" lon="7.2766920">
        <ele>252.4800000</ele>
        <time>2010-08-21T11:27:29Z</time>
      </trkpt>
      <trkpt lat="51.0979780" lon="7.2774860">
        <ele>250.0800000</ele>
        <time>2010-08-21T11:27:33Z</time>
      </trkpt>
      <trkpt lat="51.0979480" lon="7.2776660">
        <ele>249.6000000</ele>
        <time>2010-08-21T11:27:34Z</time>
      </trkpt>
      <trkpt lat="51.0979060" lon="7.2778380">
        <ele>248.6400000</ele>
        <time>2010-08-21T11:27:35Z</time>
      </trkpt>
      <trkpt lat="51.0978540" lon="7.2780010">
        <ele>248.1600000</ele>
        <time>2010-08-21T11:27:36Z</time>
      </trkpt>
      <trkpt lat="51.0977900" lon="7.2781510">
        <ele>247.2000000</ele>
        <time>2010-08-21T11:27:37Z</time>
      </trkpt>
      <trkpt lat="51.0977190" lon="7.2782840">
        <ele>246.2300000</ele>
        <time>2010-08-21T11:27:38Z</time>
      </trkpt>
      <trkpt lat="51.0976320" lon="7.2783910">
        <ele>245.7500000</ele>
        <time>2010-08-21T11:27:39Z</time>
      </trkpt>
      <trkpt lat="51.0975330" lon="7.2784640">
        <ele>244.7900000</ele>
        <time>2010-08-21T11:27:40Z</time>
      </trkpt>
      <trkpt lat="51.0974290" lon="7.2785100">
        <ele>243.8300000</ele>
        <time>2010-08-21T11:27:41Z</time>
      </trkpt>
      <trkpt lat="51.0973100" lon="7.2785200">
        <ele>242.3900000</ele>
        <time>2010-08-21T11:27:42Z</time>
      </trkpt>
      <trkpt lat="51.0971950" lon="7.2785260">
        <ele>241.4300000</ele>
        <time>2010-08-21T11:27:43Z</time>
      </trkpt>
      <trkpt lat="51.0966250" lon="7.2785560">
        <ele>238.5400000</ele>
        <time>2010-08-21T11:27:48Z</time>
      </trkpt>
      <trkpt lat="51.0965250" lon="7.2784920">
        <ele>238.0600000</ele>
        <time>2010-08-21T11:27:49Z</time>
      </trkpt>
      <trkpt lat="51.0964040" lon="7.2783890">
        <ele>237.5800000</ele>
        <time>2010-08-21T11:27:50Z</time>
      </trkpt>
      <trkpt lat="51.0963270" lon="7.2782660">
        <ele>236.6200000</ele>
        <time>2010-08-21T11:27:51Z</time>
      </trkpt>
      <trkpt lat="51.0962560" lon="7.2781410">
        <ele>235.6600000</ele>
        <time>2010-08-21T11:27:52Z</time>
      </trkpt>
      <trkpt lat="51.0962120" lon="7.2780050">
        <ele>235.1800000</ele>
        <time>2010-08-21T11:27:53Z</time>
      </trkpt>
      <trkpt lat="51.0961990" lon="7.2778710">
        <ele>234.7000000</ele>
        <time>2010-08-21T11:27:54Z</time>
      </trkpt>
      <trkpt lat="51.0962020" lon="7.2777410">
        <ele>234.2200000</ele>
        <time>2010-08-21T11:27:55Z</time>
      </trkpt>
      <trkpt lat="51.0962030" lon="7.2776130">
        <ele>234.2200000</ele>
        <time>2010-08-21T11:27:56Z</time>
      </trkpt>
      <trkpt lat="51.0961450" lon="7.2771650">
        <ele>232.3000000</ele>
        <time>2010-08-21T11:27:59Z</time>
      </trkpt>
      <trkpt lat="51.0961080" lon="7.2770210">
        <ele>231.3300000</ele>
        <time>2010-08-21T11:28:00Z</time>
      </trkpt>
      <trkpt lat="51.0960580" lon="7.2768840">
        <ele>230.3700000</ele>
        <time>2010-08-21T11:28:01Z</time>
      </trkpt>
      <trkpt lat="51.0959950" lon="7.2767780">
        <ele>229.4100000</ele>
        <time>2010-08-21T11:28:02Z</time>
      </trkpt>
      <trkpt lat="51.0959170" lon="7.2766990">
        <ele>228.9300000</ele>
        <time>2010-08-21T11:28:03Z</time>
      </trkpt>
      <trkpt lat="51.0958350" lon="7.2766600">
        <ele>228.4500000</ele>
        <time>2010-08-21T11:28:04Z</time>
      </trkpt>
      <trkpt lat="51.0957560" lon="7.2766500">
        <ele>227.4900000</ele>
        <time>2010-08-21T11:28:05Z</time>
      </trkpt>
      <trkpt lat="51.0956700" lon="7.2766580">
        <ele>227.9700000</ele>
        <time>2010-08-21T11:28:06Z</time>
      </trkpt>
      <trkpt lat="51.0955820" lon="7.2766460">
        <ele>227.4900000</ele>
        <time>2010-08-21T11:28:07Z</time>
      </trkpt>
      <trkpt lat="51.0955010" lon="7.2765910">
        <ele>227.4900000</ele>
        <time>2010-08-21T11:28:08Z</time>
      </trkpt>
      <trkpt lat="51.0954520" lon="7.2765290">
        <ele>227.0100000</ele>
        <time>2010-08-21T11:28:09Z</time>
      </trkpt>
      <trkpt lat="51.0954060" lon="7.2764250">
        <ele>226.5300000</ele>
        <time>2010-08-21T11:28:10Z</time>
      </trkpt>
      <trkpt lat="51.0953600" lon="7.2763020">
        <ele>226.0500000</ele>
        <time>2010-08-21T11:28:11Z</time>
      </trkpt>
      <trkpt lat="51.0952430" lon="7.2760840">
        <ele>224.6100000</ele>
        <time>2010-08-21T11:28:13Z</time>
      </trkpt>
      <trkpt lat="51.0951520" lon="7.2760310">
        <ele>224.1200000</ele>
        <time>2010-08-21T11:28:14Z</time>
      </trkpt>
      <trkpt lat="51.0950460" lon="7.2760060">
        <ele>223.1600000</ele>
        <time>2010-08-21T11:28:15Z</time>
      </trkpt>
      <trkpt lat="51.0944830" lon="7.2759200">
        <ele>220.7600000</ele>
        <time>2010-08-21T11:28:21Z</time>
      </trkpt>
      <trkpt lat="51.0944200" lon="7.2759390">
        <ele>219.8000000</ele>
        <time>2010-08-21T11:28:22Z</time>
      </trkpt>
      <trkpt lat="51.0943590" lon="7.2759790">
        <ele>220.7600000</ele>
        <time>2010-08-21T11:28:23Z</time>
      </trkpt>
      <trkpt lat="51.0943130" lon="7.2760370">
        <ele>220.2800000</ele>
        <time>2010-08-21T11:28:24Z</time>
      </trkpt>
      <trkpt lat="51.0942530" lon="7.2761210">
        <ele>218.8400000</ele>
        <time>2010-08-21T11:28:25Z</time>
      </trkpt>
      <trkpt lat="51.0941880" lon="7.2762160">
        <ele>216.9100000</ele>
        <time>2010-08-21T11:28:26Z</time>
      </trkpt>
      <trkpt lat="51.0941500" lon="7.2763390">
        <ele>214.9900000</ele>
        <time>2010-08-21T11:28:27Z</time>
      </trkpt>
      <trkpt lat="51.0941100" lon="7.2764590">
        <ele>213.5500000</ele>
        <time>2010-08-21T11:28:28Z</time>
      </trkpt>
      <trkpt lat="51.0940230" lon="7.2766800">
        <ele>214.0300000</ele>
        <time>2010-08-21T11:28:30Z</time>
      </trkpt>
      <trkpt lat="51.0939620" lon="7.2767540">
        <ele>214.5100000</ele>
        <time>2010-08-21T11:28:31Z</time>
      </trkpt>
      <trkpt lat="51.0938910" lon="7.2768060">
        <ele>214.9900000</ele>
        <time>2010-08-21T11:28:32Z</time>
      </trkpt>
      <trkpt lat="51.0938150" lon="7.2768460">
        <ele>215.4700000</ele>
        <time>2010-08-21T11:28:33Z</time>
      </trkpt>
      <trkpt lat="51.0937260" lon="7.2768630">
        <ele>215.9500000</ele>
        <time>2010-08-21T11:28:34Z</time>
      </trkpt>
      <trkpt lat="51.0936110" lon="7.2768580">
        <ele>215.9500000</ele>
        <time>2010-08-21T11:28:35Z</time>
      </trkpt>
      <trkpt lat="51.0927090" lon="7.2768690">
        <ele>215.4700000</ele>
        <time>2010-08-21T11:28:40Z</time>
      </trkpt>
      <trkpt lat="51.0920440" lon="7.2768380">
        <ele>212.1100000</ele>
        <time>2010-08-21T11:28:46Z</time>
      </trkpt>
      <trkpt lat="51.0919610" lon="7.2768020">
        <ele>211.1500000</ele>
        <time>2010-08-21T11:28:47Z</time>
      </trkpt>
      <trkpt lat="51.0918790" lon="7.2767460">
        <ele>211.1500000</ele>
        <time>2010-08-21T11:28:48Z</time>
      </trkpt>
      <trkpt lat="51.0912090" lon="7.2762370">
        <ele>206.3400000</ele>
        <time>2010-08-21T11:28:55Z</time>
      </trkpt>
      <trkpt lat="51.0911120" lon="7.2762150">
        <ele>205.8600000</ele>
        <time>2010-08-21T11:28:56Z</time>
      </trkpt>
      <trkpt lat="51.0910190" lon="7.2762240">
        <ele>205.3800000</ele>
        <time>2010-08-21T11:28:57Z</time>
      </trkpt>
      <trkpt lat="51.0909420" lon="7.2762830">
        <ele>204.4200000</ele>
        <time>2010-08-21T11:28:58Z</time>
      </trkpt>
      <trkpt lat="51.0908690" lon="7.2763600">
        <ele>203.4600000</ele>
        <time>2010-08-21T11:28:59Z</time>
      </trkpt>
      <trkpt lat="51.0907960" lon="7.2764550">
        <ele>201.5300000</ele>
        <time>2010-08-21T11:29:00Z</time>
      </trkpt>
      <trkpt lat="51.0907630" lon="7.2766140">
        <ele>202.0100000</ele>
        <time>2010-08-21T11:29:01Z</time>
      </trkpt>
      <trkpt lat="51.0907370" lon="7.2767770">
        <ele>202.0100000</ele>
        <time>2010-08-21T11:29:02Z</time>
      </trkpt>
      <trkpt lat="51.0907350" lon="7.2769460">
        <ele>202.4900000</ele>
        <time>2010-08-21T11:29:03Z</time>
      </trkpt>
      <trkpt lat="51.0907180" lon="7.2771010">
        <ele>202.0100000</ele>
        <time>2010-08-21T11:29:04Z</time>
      </trkpt>
      <trkpt lat="51.0906840" lon="7.2772470">
        <ele>201.5300000</ele>
        <time>2010-08-21T11:29:05Z</time>
      </trkpt>
      <trkpt lat="51.0906460" lon="7.2773980">
        <ele>201.5300000</ele>
        <time>2010-08-21T11:29:06Z</time>
      </trkpt>
      <trkpt lat="51.0904940" lon="7.2778020">
        <ele>201.0500000</ele>
        <time>2010-08-21T11:29:09Z</time>
      </trkpt>
      <trkpt lat="51.0904270" lon="7.2779150">
        <ele>200.5700000</ele>
        <time>2010-08-21T11:29:10Z</time>
      </trkpt>
      <trkpt lat="51.0901880" lon="7.2781950">
        <ele>199.6100000</ele>
        <time>2010-08-21T11:29:13Z</time>
      </trkpt>
      <trkpt lat="51.0899140" lon="7.2783550">
        <ele>200.5700000</ele>
        <time>2010-08-21T11:29:16Z</time>
      </trkpt>
      <trkpt lat="51.0895770" lon="7.2783380">
        <ele>197.2100000</ele>
        <time>2010-08-21T11:29:19Z</time>
      </trkpt>
      <trkpt lat="51.0894590" lon="7.2783070">
        <ele>196.2500000</ele>
        <time>2010-08-21T11:29:20Z</time>
      </trkpt>
      <trkpt lat="51.0885020" lon="7.2783810">
        <ele>190.0000000</ele>
        <time>2010-08-21T11:29:27Z</time>
      </trkpt>
      <trkpt lat="51.0884000" lon="7.2785050">
        <ele>190.0000000</ele>
        <time>2010-08-21T11:29:28Z</time>
      </trkpt>
      <trkpt lat="51.0878240" lon="7.2791610">
        <ele>183.7500000</ele>
        <time>2010-08-21T11:29:34Z</time>
      </trkpt>
      <trkpt lat="51.0874890" lon="7.2794220">
        <ele>183.7500000</ele>
        <time>2010-08-21T11:29:38Z</time>
      </trkpt>
      <trkpt lat="51.0873690" lon="7.2794490">
        <ele>182.7900000</ele>
        <time>2010-08-21T11:29:39Z</time>
      </trkpt>
      <trkpt lat="51.0872500" lon="7.2794590">
        <ele>181.3500000</ele>
        <time>2010-08-21T11:29:40Z</time>
      </trkpt>
      <trkpt lat="51.0871200" lon="7.2794330">
        <ele>180.3800000</ele>
        <time>2010-08-21T11:29:41Z</time>
      </trkpt>
      <trkpt lat="51.0869610" lon="7.2793430">
        <ele>179.4200000</ele>
        <time>2010-08-21T11:29:42Z</time>
      </trkpt>
      <trkpt lat="51.0868370" lon="7.2792530">
        <ele>178.9400000</ele>
        <time>2010-08-21T11:29:43Z</time>
      </trkpt>
      <trkpt lat="51.0867190" lon="7.2791390">
        <ele>178.9400000</ele>
        <time>2010-08-21T11:29:44Z</time>
      </trkpt>
      <trkpt lat="51.0866190" lon="7.2790050">
        <ele>178.4600000</ele>
        <time>2010-08-21T11:29:45Z</time>
      </trkpt>
      <trkpt lat="51.0865390" lon="7.2788480">
        <ele>178.4600000</ele>
        <time>2010-08-21T11:29:46Z</time>
      </trkpt>
      <trkpt lat="51.0864670" lon="7.2785970">
        <ele>178.4600000</ele>
        <time>2010-08-21T11:29:47Z</time>
      </trkpt>
      <trkpt lat="51.0864010" lon="7.2783190">
        <ele>178.4600000</ele>
        <time>2010-08-21T11:29:48Z</time>
      </trkpt>
      <trkpt lat="51.0860370" lon="7.2766730">
        <ele>179.4200000</ele>
        <time>2010-08-21T11:29:54Z</time>
      </trkpt>
      <trkpt lat="51.0858900" lon="7.2763290">
        <ele>181.3500000</ele>
        <time>2010-08-21T11:29:56Z</time>
      </trkpt>
      <trkpt lat="51.0858120" lon="7.2762060">
        <ele>181.8300000</ele>
        <time>2010-08-21T11:29:57Z</time>
      </trkpt>
      <trkpt lat="51.0853070" lon="7.2756860">
        <ele>185.6700000</ele>
        <time>2010-08-21T11:30:01Z</time>
      </trkpt>
      <trkpt lat="51.0851460" lon="7.2755690">
        <ele>187.1100000</ele>
        <time>2010-08-21T11:30:02Z</time>
      </trkpt>
      <trkpt lat="51.0848310" lon="7.2754040">
        <ele>190.0000000</ele>
        <time>2010-08-21T11:30:04Z</time>
      </trkpt>
      <trkpt lat="51.0846840" lon="7.2753700">
        <ele>190.4800000</ele>
        <time>2010-08-21T11:30:05Z</time>
      </trkpt>
      <trkpt lat="51.0844650" lon="7.2752620">
        <ele>192.4000000</ele>
        <time>2010-08-21T11:30:07Z</time>
      </trkpt>
      <trkpt lat="51.0844050" lon="7.2751220">
        <ele>192.8800000</ele>
        <time>2010-08-21T11:30:08Z</time>
      </trkpt>
      <trkpt lat="51.0843530" lon="7.2749150">
        <ele>193.8400000</ele>
        <time>2010-08-21T11:30:09Z</time>
      </trkpt>
      <trkpt lat="51.0842850" lon="7.2746810">
        <ele>194.8000000</ele>
        <time>2010-08-21T11:30:10Z</time>
      </trkpt>
      <trkpt lat="51.0842070" lon="7.2743020">
        <ele>197.6900000</ele>
        <time>2010-08-21T11:30:11Z</time>
      </trkpt>
      <trkpt lat="51.0839140" lon="7.2733330">
        <ele>203.9400000</ele>
        <time>2010-08-21T11:30:14Z</time>
      </trkpt>
      <trkpt lat="51.0836560" lon="7.2724440">
        <ele>209.7000000</ele>
        <time>2010-08-21T11:30:18Z</time>
      </trkpt>
      <trkpt lat="51.0834620" lon="7.2724080">
        <ele>213.0700000</ele>
        <time>2010-08-21T11:30:20Z</time>
      </trkpt>
      <trkpt lat="51.0833720" lon="7.2724530">
        <ele>215.4700000</ele>
        <time>2010-08-21T11:30:21Z</time>
      </trkpt>
      <trkpt lat="51.0832400" lon="7.2724940">
        <ele>216.9100000</ele>
        <time>2010-08-21T11:30:22Z</time>
      </trkpt>
      <trkpt lat="51.0831730" lon="7.2724390">
        <ele>218.3600000</ele>
        <time>2010-08-21T11:30:23Z</time>
      </trkpt>
      <trkpt lat="51.0831050" lon="7.2723590">
        <ele>220.2800000</ele>
        <time>2010-08-21T11:30:24Z</time>
      </trkpt>
      <trkpt lat="51.0830180" lon="7.2722110">
        <ele>220.2800000</ele>
        <time>2010-08-21T11:30:25Z</time>
      </trkpt>
      <trkpt lat="51.0829140" lon="7.2721140">
        <ele>220.7600000</ele>
        <time>2010-08-21T11:30:26Z</time>
      </trkpt>
      <trkpt lat="51.0827860" lon="7.2719580">
        <ele>221.2400000</ele>
        <time>2010-08-21T11:30:27Z</time>
      </trkpt>
      <trkpt lat="51.0825920" lon="7.2717320">
        <ele>221.7200000</ele>
        <time>2010-08-21T11:30:28Z</time>
      </trkpt>
      <trkpt lat="51.0824110" lon="7.2715160">
        <ele>221.2400000</ele>
        <time>2010-08-21T11:30:29Z</time>
      </trkpt>
      <trkpt lat="51.0815810" lon="7.2706990">
        <ele>227.0100000</ele>
        <time>2010-08-21T11:30:34Z</time>
      </trkpt>
      <trkpt lat="51.0814050" lon="7.2708390">
        <ele>222.6800000</ele>
        <time>2010-08-21T11:30:36Z</time>
      </trkpt>
      <trkpt lat="51.0813620" lon="7.2711130">
        <ele>226.5300000</ele>
        <time>2010-08-21T11:30:37Z</time>
      </trkpt>
      <trkpt lat="51.0812690" lon="7.2713980">
        <ele>227.9700000</ele>
        <time>2010-08-21T11:30:38Z</time>
      </trkpt>
      <trkpt lat="51.0811850" lon="7.2716840">
        <ele>228.4500000</ele>
        <time>2010-08-21T11:30:39Z</time>
      </trkpt>
      <trkpt lat="51.0811280" lon="7.2720270">
        <ele>229.4100000</ele>
        <time>2010-08-21T11:30:40Z</time>
      </trkpt>
      <trkpt lat="51.0811380" lon="7.2724510">
        <ele>230.8500000</ele>
        <time>2010-08-21T11:30:41Z</time>
      </trkpt>
      <trkpt lat="51.0811380" lon="7.2727360">
        <ele>231.3300000</ele>
        <time>2010-08-21T11:30:42Z</time>
      </trkpt>
      <trkpt lat="51.0810920" lon="7.2732980">
        <ele>231.3300000</ele>
        <time>2010-08-21T11:30:45Z</time>
      </trkpt>
      <trkpt lat="51.0810470" lon="7.2733580">
        <ele>232.7800000</ele>
        <time>2010-08-21T11:30:46Z</time>
      </trkpt>
      <trkpt lat="51.0809530" lon="7.2733880">
        <ele>234.2200000</ele>
        <time>2010-08-21T11:30:47Z</time>
      </trkpt>
      <trkpt lat="51.0807270" lon="7.2732670">
        <ele>235.1800000</ele>
        <time>2010-08-21T11:30:49Z</time>
      </trkpt>
      <trkpt lat="51.0806000" lon="7.2731810">
        <ele>235.1800000</ele>
        <time>2010-08-21T11:30:50Z</time>
      </trkpt>
      <trkpt lat="51.0805310" lon="7.2731570">
        <ele>234.7000000</ele>
        <time>2010-08-21T11:30:51Z</time>
      </trkpt>
      <trkpt lat="51.0804000" lon="7.2732270">
        <ele>234.7000000</ele>
        <time>2010-08-21T11:30:52Z</time>
      </trkpt>
      <trkpt lat="51.0800810" lon="7.2734210">
        <ele>234.7000000</ele>
        <time>2010-08-21T11:30:54Z</time>
      </trkpt>
      <trkpt lat="51.0799170" lon="7.2736000">
        <ele>235.6600000</ele>
        <time>2010-08-21T11:30:55Z</time>
      </trkpt>
      <trkpt lat="51.0797550" lon="7.2738060">
        <ele>236.1400000</ele>
        <time>2010-08-21T11:30:56Z</time>
      </trkpt>
      <trkpt lat="51.0795770" lon="7.2740470">
        <ele>236.6200000</ele>
        <time>2010-08-21T11:30:57Z</time>
      </trkpt>
      <trkpt lat="51.0794790" lon="7.2742960">
        <ele>237.5800000</ele>
        <time>2010-08-21T11:30:58Z</time>
      </trkpt>
      <trkpt lat="51.0793680" lon="7.2745570">
        <ele>239.0200000</ele>
        <time>2010-08-21T11:30:59Z</time>
      </trkpt>
      <trkpt lat="51.0792310" lon="7.2750340">
        <ele>238.5400000</ele>
        <time>2010-08-21T11:31:01Z</time>
      </trkpt>
      <trkpt lat="51.0792130" lon="7.2752970">
        <ele>239.9900000</ele>
        <time>2010-08-21T11:31:02Z</time>
      </trkpt>
      <trkpt lat="51.0792380" lon="7.2756210">
        <ele>242.3900000</ele>
        <time>2010-08-21T11:31:03Z</time>
      </trkpt>
      <trkpt lat="51.0792900" lon="7.2759690">
        <ele>244.3100000</ele>
        <time>2010-08-21T11:31:04Z</time>
      </trkpt>
      <trkpt lat="51.0793530" lon="7.2763520">
        <ele>245.2700000</ele>
        <time>2010-08-21T11:31:05Z</time>
      </trkpt>
      <trkpt lat="51.0793790" lon="7.2767150">
        <ele>246.2300000</ele>
        <time>2010-08-21T11:31:06Z</time>
      </trkpt>
      <trkpt lat="51.0793220" lon="7.2773110">
        <ele>250.0800000</ele>
        <time>2010-08-21T11:31:08Z</time>
      </trkpt>
      <trkpt lat="51.0792290" lon="7.2775550">
        <ele>252.0000000</ele>
        <time>2010-08-21T11:31:09Z</time>
      </trkpt>
      <trkpt lat="51.0791110" lon="7.2777720">
        <ele>253.4400000</ele>
        <time>2010-08-21T11:31:10Z</time>
      </trkpt>
      <trkpt lat="51.0789810" lon="7.2779610">
        <ele>255.3700000</ele>
        <time>2010-08-21T11:31:11Z</time>
      </trkpt>
      <trkpt lat="51.0788150" lon="7.2780540">
        <ele>256.3300000</ele>
        <time>2010-08-21T11:31:12Z</time>
      </trkpt>
      <trkpt lat="51.0786320" lon="7.2781100">
        <ele>257.2900000</ele>
        <time>2010-08-21T11:31:13Z</time>
      </trkpt>
      <trkpt lat="51.0784530" lon="7.2781810">
        <ele>259.2100000</ele>
        <time>2010-08-21T11:31:14Z</time>
      </trkpt>
      <trkpt lat="51.0782500" lon="7.2781830">
        <ele>261.1400000</ele>
        <time>2010-08-21T11:31:15Z</time>
      </trkpt>
      <trkpt lat="51.0780850" lon="7.2781840">
        <ele>262.1000000</ele>
        <time>2010-08-21T11:31:16Z</time>
      </trkpt>
      <trkpt lat="51.0775120" lon="7.2781070">
        <ele>266.9000000</ele>
        <time>2010-08-21T11:31:21Z</time>
      </trkpt>
      <trkpt lat="51.0774580" lon="7.2780600">
        <ele>267.3800000</ele>
        <time>2010-08-21T11:31:22Z</time>
      </trkpt>
      <trkpt lat="51.0774350" lon="7.2779890">
        <ele>266.9000000</ele>
        <time>2010-08-21T11:31:23Z</time>
      </trkpt>
      <trkpt lat="51.0774390" lon="7.2778460">
        <ele>266.9000000</ele>
        <time>2010-08-21T11:31:24Z</time>
      </trkpt>
      <trkpt lat="51.0774410" lon="7.2776570">
        <ele>266.9000000</ele>
        <time>2010-08-21T11:31:25Z</time>
      </trkpt>
      <trkpt lat="51.0774440" lon="7.2774370">
        <ele>266.9000000</ele>
        <time>2010-08-21T11:31:26Z</time>
      </trkpt>
      <trkpt lat="51.0772290" lon="7.2758760">
        <ele>266.4200000</ele>
        <time>2010-08-21T11:31:32Z</time>
      </trkpt>
      <trkpt lat="51.0763840" lon="7.2735120">
        <ele>264.5000000</ele>
        <time>2010-08-21T11:31:42Z</time>
      </trkpt>
      <trkpt lat="51.0758140" lon="7.2711690">
        <ele>263.0600000</ele>
        <time>2010-08-21T11:31:51Z</time>
      </trkpt>
      <trkpt lat="51.0754560" lon="7.2686960">
        <ele>263.0600000</ele>
        <time>2010-08-21T11:31:59Z</time>
      </trkpt>
      <trkpt lat="51.0746790" lon="7.2669920">
        <ele>265.9400000</ele>
        <time>2010-08-21T11:32:06Z</time>
      </trkpt>
      <trkpt lat="51.0737290" lon="7.2659450">
        <ele>267.3800000</ele>
        <time>2010-08-21T11:32:14Z</time>
      </trkpt>
      <trkpt lat="51.0736750" lon="7.2659020">
        <ele>267.8600000</ele>
        <time>2010-08-21T11:32:16Z</time>
      </trkpt>
      <trkpt lat="51.0736320" lon="7.2659010">
        <ele>268.8300000</ele>
        <time>2010-08-21T11:32:17Z</time>
      </trkpt>
      <trkpt lat="51.0735870" lon="7.2659370">
        <ele>268.8300000</ele>
        <time>2010-08-21T11:32:18Z</time>
      </trkpt>
      <trkpt lat="51.0735270" lon="7.2660670">
        <ele>268.8300000</ele>
        <time>2010-08-21T11:32:19Z</time>
      </trkpt>
      <trkpt lat="51.0734680" lon="7.2661890">
        <ele>268.8300000</ele>
        <time>2010-08-21T11:32:20Z</time>
      </trkpt>
      <trkpt lat="51.0733900" lon="7.2663080">
        <ele>268.3500000</ele>
        <time>2010-08-21T11:32:21Z</time>
      </trkpt>
      <trkpt lat="51.0732980" lon="7.2664410">
        <ele>268.3500000</ele>
        <time>2010-08-21T11:32:22Z</time>
      </trkpt>
      <trkpt lat="51.0731830" lon="7.2665640">
        <ele>268.3500000</ele>
        <time>2010-08-21T11:32:23Z</time>
      </trkpt>
      <trkpt lat="51.0730420" lon="7.2666390">
        <ele>268.3500000</ele>
        <time>2010-08-21T11:32:24Z</time>
      </trkpt>
      <trkpt lat="51.0728500" lon="7.2666390">
        <ele>266.4200000</ele>
        <time>2010-08-21T11:32:25Z</time>
      </trkpt>
      <trkpt lat="51.0726670" lon="7.2666400">
        <ele>264.9800000</ele>
        <time>2010-08-21T11:32:26Z</time>
      </trkpt>
      <trkpt lat="51.0724900" lon="7.2666490">
        <ele>263.5400000</ele>
        <time>2010-08-21T11:32:27Z</time>
      </trkpt>
      <trkpt lat="51.0721430" lon="7.2667260">
        <ele>262.1000000</ele>
        <time>2010-08-21T11:32:29Z</time>
      </trkpt>
      <trkpt lat="51.0719850" lon="7.2668350">
        <ele>261.6200000</ele>
        <time>2010-08-21T11:32:30Z</time>
      </trkpt>
      <trkpt lat="51.0718440" lon="7.2670030">
        <ele>260.6500000</ele>
        <time>2010-08-21T11:32:31Z</time>
      </trkpt>
      <trkpt lat="51.0717130" lon="7.2672320">
        <ele>259.6900000</ele>
        <time>2010-08-21T11:32:32Z</time>
      </trkpt>
      <trkpt lat="51.0715960" lon="7.2674710">
        <ele>258.7300000</ele>
        <time>2010-08-21T11:32:33Z</time>
      </trkpt>
      <trkpt lat="51.0714880" lon="7.2677110">
        <ele>257.7700000</ele>
        <time>2010-08-21T11:32:34Z</time>
      </trkpt>
      <trkpt lat="51.0713980" lon="7.2679520">
        <ele>256.8100000</ele>
        <time>2010-08-21T11:32:35Z</time>
      </trkpt>
      <trkpt lat="51.0713320" lon="7.2681980">
        <ele>255.8500000</ele>
        <time>2010-08-21T11:32:36Z</time>
      </trkpt>
      <trkpt lat="51.0712810" lon="7.2684310">
        <ele>255.3700000</ele>
        <time>2010-08-21T11:32:37Z</time>
      </trkpt>
      <trkpt lat="51.0712280" lon="7.2686300">
        <ele>254.4100000</ele>
        <time>2010-08-21T11:32:38Z</time>
      </trkpt>
      <trkpt lat="51.0711600" lon="7.2687740">
        <ele>253.4400000</ele>
        <time>2010-08-21T11:32:39Z</time>
      </trkpt>
      <trkpt lat="51.0710650" lon="7.2688740">
        <ele>252.9600000</ele>
        <time>2010-08-21T11:32:40Z</time>
      </trkpt>
      <trkpt lat="51.0709260" lon="7.2689260">
        <ele>252.0000000</ele>
        <time>2010-08-21T11:32:41Z</time>
      </trkpt>
      <trkpt lat="51.0707550" lon="7.2689330">
        <ele>251.5200000</ele>
        <time>2010-08-21T11:32:42Z</time>
      </trkpt>
      <trkpt lat="51.0705690" lon="7.2688870">
        <ele>250.5600000</ele>
        <time>2010-08-21T11:32:43Z</time>
      </trkpt>
      <trkpt lat="51.0703590" lon="7.2688280">
        <ele>249.1200000</ele>
        <time>2010-08-21T11:32:44Z</time>
      </trkpt>
      <trkpt lat="51.0701300" lon="7.2687830">
        <ele>247.6800000</ele>
        <time>2010-08-21T11:32:45Z</time>
      </trkpt>
      <trkpt lat="51.0698830" lon="7.2687960">
        <ele>246.2300000</ele>
        <time>2010-08-21T11:32:46Z</time>
      </trkpt>
      <trkpt lat="51.0696340" lon="7.2688240">
        <ele>245.2700000</ele>
        <time>2010-08-21T11:32:47Z</time>
      </trkpt>
      <trkpt lat="51.0685990" lon="7.2686370">
        <ele>238.5400000</ele>
        <time>2010-08-21T11:32:52Z</time>
      </trkpt>
      <trkpt lat="51.0680530" lon="7.2682570">
        <ele>234.2200000</ele>
        <time>2010-08-21T11:32:56Z</time>
      </trkpt>
      <trkpt lat="51.0679860" lon="7.2681040">
        <ele>232.7800000</ele>
        <time>2010-08-21T11:32:57Z</time>
      </trkpt>
      <trkpt lat="51.0679460" lon="7.2679540">
        <ele>231.3300000</ele>
        <time>2010-08-21T11:32:58Z</time>
      </trkpt>
      <trkpt lat="51.0679190" lon="7.2677950">
        <ele>230.3700000</ele>
        <time>2010-08-21T11:32:59Z</time>
      </trkpt>
      <trkpt lat="51.0680050" lon="7.2675050">
        <ele>228.4500000</ele>
        <time>2010-08-21T11:33:01Z</time>
      </trkpt>
      <trkpt lat="51.0680900" lon="7.2673940">
        <ele>227.0100000</ele>
        <time>2010-08-21T11:33:02Z</time>
      </trkpt>
      <trkpt lat="51.0682030" lon="7.2672990">
        <ele>225.5700000</ele>
        <time>2010-08-21T11:33:03Z</time>
      </trkpt>
      <trkpt lat="51.0683180" lon="7.2672080">
        <ele>224.6100000</ele>
        <time>2010-08-21T11:33:04Z</time>
      </trkpt>
      <trkpt lat="51.0684790" lon="7.2670860">
        <ele>224.1200000</ele>
        <time>2010-08-21T11:33:05Z</time>
      </trkpt>
      <trkpt lat="51.0686010" lon="7.2669530">
        <ele>223.6400000</ele>
        <time>2010-08-21T11:33:06Z</time>
      </trkpt>
      <trkpt lat="51.0687840" lon="7.2667550">
        <ele>222.6800000</ele>
        <time>2010-08-21T11:33:08Z</time>
      </trkpt>
      <trkpt lat="51.0688460" lon="7.2666700">
        <ele>222.2000000</ele>
        <time>2010-08-21T11:33:09Z</time>
      </trkpt>
      <trkpt lat="51.0688590" lon="7.2666090">
        <ele>222.2000000</ele>
        <time>2010-08-21T11:33:10Z</time>
      </trkpt>
      <trkpt lat="51.0688720" lon="7.2665270">
        <ele>221.2400000</ele>
        <time>2010-08-21T11:33:11Z</time>
      </trkpt>
      <trkpt lat="51.0688780" lon="7.2664210">
        <ele>221.2400000</ele>
        <time>2010-08-21T11:33:12Z</time>
      </trkpt>
      <trkpt lat="51.0688610" lon="7.2663240">
        <ele>220.7600000</ele>
        <time>2010-08-21T11:33:13Z</time>
      </trkpt>
      <trkpt lat="51.0688120" lon="7.2662370">
        <ele>220.7600000</ele>
        <time>2010-08-21T11:33:14Z</time>
      </trkpt>
      <trkpt lat="51.0687170" lon="7.2662330">
        <ele>219.8000000</ele>
        <time>2010-08-21T11:33:15Z</time>
      </trkpt>
      <trkpt lat="51.0686280" lon="7.2662220">
        <ele>217.8800000</ele>
        <time>2010-08-21T11:33:16Z</time>
      </trkpt>
      <trkpt lat="51.0685430" lon="7.2663110">
        <ele>217.4000000</ele>
        <time>2010-08-21T11:33:17Z</time>
      </trkpt>
      <trkpt lat="51.0684630" lon="7.2664270">
        <ele>215.9500000</ele>
        <time>2010-08-21T11:33:18Z</time>
      </trkpt>
      <trkpt lat="51.0683750" lon="7.2665500">
        <ele>215.4700000</ele>
        <time>2010-08-21T11:33:19Z</time>
      </trkpt>
      <trkpt lat="51.0682980" lon="7.2667150">
        <ele>215.4700000</ele>
        <time>2010-08-21T11:33:20Z</time>
      </trkpt>
      <trkpt lat="51.0678980" lon="7.2669620">
        <ele>215.9500000</ele>
        <time>2010-08-21T11:33:23Z</time>
      </trkpt>
      <trkpt lat="51.0677070" lon="7.2669640">
        <ele>214.9900000</ele>
        <time>2010-08-21T11:33:24Z</time>
      </trkpt>
      <trkpt lat="51.0673780" lon="7.2669300">
        <ele>212.5900000</ele>
        <time>2010-08-21T11:33:26Z</time>
      </trkpt>
      <trkpt lat="51.0672410" lon="7.2667760">
        <ele>212.1100000</ele>
        <time>2010-08-21T11:33:27Z</time>
      </trkpt>
      <trkpt lat="51.0670610" lon="7.2666060">
        <ele>212.5900000</ele>
        <time>2010-08-21T11:33:28Z</time>
      </trkpt>
      <trkpt lat="51.0668690" lon="7.2664610">
        <ele>214.0300000</ele>
        <time>2010-08-21T11:33:29Z</time>
      </trkpt>
      <trkpt lat="51.0667260" lon="7.2663680">
        <ele>214.5100000</ele>
        <time>2010-08-21T11:33:30Z</time>
      </trkpt>
      <trkpt lat="51.0663850" lon="7.2663660">
        <ele>215.9500000</ele>
        <time>2010-08-21T11:33:33Z</time>
      </trkpt>
      <trkpt lat="51.0662420" lon="7.2664200">
        <ele>215.4700000</ele>
        <time>2010-08-21T11:33:34Z</time>
      </trkpt>
      <trkpt lat="51.0661360" lon="7.2665890">
        <ele>214.9900000</ele>
        <time>2010-08-21T11:33:35Z</time>
      </trkpt>
      <trkpt lat="51.0659950" lon="7.2666690">
        <ele>213.5500000</ele>
        <time>2010-08-21T11:33:36Z</time>
      </trkpt>
      <trkpt lat="51.0658530" lon="7.2667590">
        <ele>211.6300000</ele>
        <time>2010-08-21T11:33:37Z</time>
      </trkpt>
      <trkpt lat="51.0654300" lon="7.2669050">
        <ele>208.7400000</ele>
        <time>2010-08-21T11:33:40Z</time>
      </trkpt>
      <trkpt lat="51.0652800" lon="7.2668800">
        <ele>206.8200000</ele>
        <time>2010-08-21T11:33:41Z</time>
      </trkpt>
      <trkpt lat="51.0651540" lon="7.2669230">
        <ele>205.8600000</ele>
        <time>2010-08-21T11:33:42Z</time>
      </trkpt>
      <trkpt lat="51.0649970" lon="7.2670310">
        <ele>204.9000000</ele>
        <time>2010-08-21T11:33:43Z</time>
      </trkpt>
      <trkpt lat="51.0648170" lon="7.2671270">
        <ele>204.4200000</ele>
        <time>2010-08-21T11:33:44Z</time>
      </trkpt>
      <trkpt lat="51.0644200" lon="7.2672890">
        <ele>202.9800000</ele>
        <time>2010-08-21T11:33:46Z</time>
      </trkpt>
      <trkpt lat="51.0635950" lon="7.2676880">
        <ele>199.6100000</ele>
        <time>2010-08-21T11:33:51Z</time>
      </trkpt>
      <trkpt lat="51.0634680" lon="7.2678400">
        <ele>198.6500000</ele>
        <time>2010-08-21T11:33:52Z</time>
      </trkpt>
      <trkpt lat="51.0633540" lon="7.2680140">
        <ele>197.6900000</ele>
        <time>2010-08-21T11:33:53Z</time>
      </trkpt>
      <trkpt lat="51.0632430" lon="7.2681800">
        <ele>196.7300000</ele>
        <time>2010-08-21T11:33:54Z</time>
      </trkpt>
      <trkpt lat="51.0631320" lon="7.2683080">
        <ele>195.7700000</ele>
        <time>2010-08-21T11:33:55Z</time>
      </trkpt>
      <trkpt lat="51.0630240" lon="7.2683680">
        <ele>194.8000000</ele>
        <time>2010-08-21T11:33:56Z</time>
      </trkpt>
      <trkpt lat="51.0629200" lon="7.2683690">
        <ele>193.8400000</ele>
        <time>2010-08-21T11:33:57Z</time>
      </trkpt>
      <trkpt lat="51.0627940" lon="7.2683390">
        <ele>192.8800000</ele>
        <time>2010-08-21T11:33:58Z</time>
      </trkpt>
      <trkpt lat="51.0626730" lon="7.2682180">
        <ele>191.9200000</ele>
        <time>2010-08-21T11:33:59Z</time>
      </trkpt>
      <trkpt lat="51.0625420" lon="7.2680990">
        <ele>191.4400000</ele>
        <time>2010-08-21T11:34:00Z</time>
      </trkpt>
      <trkpt lat="51.0624100" lon="7.2679040">
        <ele>190.0000000</ele>
        <time>2010-08-21T11:34:01Z</time>
      </trkpt>
      <trkpt lat="51.0622990" lon="7.2676480">
        <ele>189.0400000</ele>
        <time>2010-08-21T11:34:02Z</time>
      </trkpt>
      <trkpt lat="51.0621860" lon="7.2674030">
        <ele>188.5600000</ele>
        <time>2010-08-21T11:34:03Z</time>
      </trkpt>
      <trkpt lat="51.0620340" lon="7.2671550">
        <ele>187.1100000</ele>
        <time>2010-08-21T11:34:04Z</time>
      </trkpt>
      <trkpt lat="51.0618660" lon="7.2669280">
        <ele>187.1100000</ele>
        <time>2010-08-21T11:34:05Z</time>
      </trkpt>
      <trkpt lat="51.0617020" lon="7.2667250">
        <ele>187.1100000</ele>
        <time>2010-08-21T11:34:06Z</time>
      </trkpt>
      <trkpt lat="51.0615430" lon="7.2665440">
        <ele>186.6300000</ele>
        <time>2010-08-21T11:34:07Z</time>
      </trkpt>
      <trkpt lat="51.0601750" lon="7.2651500">
        <ele>186.1500000</ele>
        <time>2010-08-21T11:34:15Z</time>
      </trkpt>
      <trkpt lat="51.0588140" lon="7.2639790">
        <ele>185.1900000</ele>
        <time>2010-08-21T11:34:23Z</time>
      </trkpt>
      <trkpt lat="51.0584830" lon="7.2638700">
        <ele>184.2300000</ele>
        <time>2010-08-21T11:34:25Z</time>
      </trkpt>
      <trkpt lat="51.0583210" lon="7.2638860">
        <ele>184.2300000</ele>
        <time>2010-08-21T11:34:26Z</time>
      </trkpt>
      <trkpt lat="51.0573390" lon="7.2641060">
        <ele>168.8500000</ele>
        <time>2010-08-21T11:34:32Z</time>
      </trkpt>
      <trkpt lat="51.0571650" lon="7.2642780">
        <ele>170.2900000</ele>
        <time>2010-08-21T11:34:33Z</time>
      </trkpt>
      <trkpt lat="51.0570770" lon="7.2643790">
        <ele>172.6900000</ele>
        <time>2010-08-21T11:34:34Z</time>
      </trkpt>
      <trkpt lat="51.0569640" lon="7.2643480">
        <ele>174.6200000</ele>
        <time>2010-08-21T11:34:35Z</time>
      </trkpt>
      <trkpt lat="51.0568290" lon="7.2642750">
        <ele>174.6200000</ele>
        <time>2010-08-21T11:34:36Z</time>
      </trkpt>
      <trkpt lat="51.0566840" lon="7.2642080">
        <ele>176.0600000</ele>
        <time>2010-08-21T11:34:37Z</time>
      </trkpt>
      <trkpt lat="51.0565350" lon="7.2641470">
        <ele>177.0200000</ele>
        <time>2010-08-21T11:34:38Z</time>
      </trkpt>
      <trkpt lat="51.0553790" lon="7.2638630">
        <ele>174.6200000</ele>
        <time>2010-08-21T11:34:45Z</time>
      </trkpt>
      <trkpt lat="51.0552710" lon="7.2640440">
        <ele>176.0600000</ele>
        <time>2010-08-21T11:34:46Z</time>
      </trkpt>
      <trkpt lat="51.0551550" lon="7.2641610">
        <ele>176.0600000</ele>
        <time>2010-08-21T11:34:47Z</time>
      </trkpt>
      <trkpt lat="51.0550190" lon="7.2643320">
        <ele>176.5400000</ele>
        <time>2010-08-21T11:34:48Z</time>
      </trkpt>
      <trkpt lat="51.0548970" lon="7.2645340">
        <ele>176.5400000</ele>
        <time>2010-08-21T11:34:49Z</time>
      </trkpt>
      <trkpt lat="51.0547640" lon="7.2647300">
        <ele>176.0600000</ele>
        <time>2010-08-21T11:34:50Z</time>
      </trkpt>
      <trkpt lat="51.0536510" lon="7.2662440">
        <ele>172.2100000</ele>
        <time>2010-08-21T11:34:59Z</time>
      </trkpt>
      <trkpt lat="51.0535640" lon="7.2664370">
        <ele>172.2100000</ele>
        <time>2010-08-21T11:35:00Z</time>
      </trkpt>
      <trkpt lat="51.0531940" lon="7.2673930">
        <ele>172.2100000</ele>
        <time>2010-08-21T11:35:06Z</time>
      </trkpt>
      <trkpt lat="51.0530230" lon="7.2674570">
        <ele>172.6900000</ele>
        <time>2010-08-21T11:35:12Z</time>
      </trkpt>
      <trkpt lat="51.0530080" lon="7.2673500">
        <ele>173.6600000</ele>
        <time>2010-08-21T11:35:13Z</time>
      </trkpt>
      <trkpt lat="51.0529860" lon="7.2672610">
        <ele>174.1400000</ele>
        <time>2010-08-21T11:35:14Z</time>
      </trkpt>
      <trkpt lat="51.0529360" lon="7.2671300">
        <ele>173.6600000</ele>
        <time>2010-08-21T11:35:15Z</time>
      </trkpt>
      <trkpt lat="51.0528630" lon="7.2669770">
        <ele>173.1700000</ele>
        <time>2010-08-21T11:35:16Z</time>
      </trkpt>
      <trkpt lat="51.0527690" lon="7.2668080">
        <ele>173.1700000</ele>
        <time>2010-08-21T11:35:17Z</time>
      </trkpt>
      <trkpt lat="51.0526760" lon="7.2666430">
        <ele>173.1700000</ele>
        <time>2010-08-21T11:35:18Z</time>
      </trkpt>
      <trkpt lat="51.0516940" lon="7.2646770">
        <ele>172.2100000</ele>
        <time>2010-08-21T11:35:30Z</time>
      </trkpt>
      <trkpt lat="51.0515870" lon="7.2644550">
        <ele>172.2100000</ele>
        <time>2010-08-21T11:35:35Z</time>
      </trkpt>
      <trkpt lat="51.0514990" lon="7.2642750">
        <ele>174.6200000</ele>
        <time>2010-08-21T11:36:20Z</time>
      </trkpt>
      <trkpt lat="51.0514500" lon="7.2642360">
        <ele>174.1400000</ele>
        <time>2010-08-21T11:36:22Z</time>
      </trkpt>
      <trkpt lat="51.0514070" lon="7.2642640">
        <ele>173.6600000</ele>
        <time>2010-08-21T11:36:23Z</time>
      </trkpt>
      <trkpt lat="51.0513580" lon="7.2643210">
        <ele>173.6600000</ele>
        <time>2010-08-21T11:36:24Z</time>
      </trkpt>
      <trkpt lat="51.0513040" lon="7.2644120">
        <ele>173.1700000</ele>
        <time>2010-08-21T11:36:25Z</time>
      </trkpt>
      <trkpt lat="51.0512430" lon="7.2645160">
        <ele>172.6900000</ele>
        <time>2010-08-21T11:36:26Z</time>
      </trkpt>
      <trkpt lat="51.0511720" lon="7.2646230">
        <ele>172.6900000</ele>
        <time>2010-08-21T11:36:27Z</time>
      </trkpt>
      <trkpt lat="51.0510010" lon="7.2648240">
        <ele>171.7300000</ele>
        <time>2010-08-21T11:36:29Z</time>
      </trkpt>
      <trkpt lat="51.0508930" lon="7.2649200">
        <ele>171.7300000</ele>
        <time>2010-08-21T11:36:30Z</time>
      </trkpt>
      <trkpt lat="51.0504940" lon="7.2652550">
        <ele>171.2500000</ele>
        <time>2010-08-21T11:36:33Z</time>
      </trkpt>
      <trkpt lat="51.0497880" lon="7.2658440">
        <ele>173.6600000</ele>
        <time>2010-08-21T11:36:38Z</time>
      </trkpt>
      <trkpt lat="51.0496740" lon="7.2660350">
        <ele>174.1400000</ele>
        <time>2010-08-21T11:36:39Z</time>
      </trkpt>
      <trkpt lat="51.0493490" lon="7.2667440">
        <ele>180.8700000</ele>
        <time>2010-08-21T11:36:42Z</time>
      </trkpt>
      <trkpt lat="51.0492770" lon="7.2670170">
        <ele>184.2300000</ele>
        <time>2010-08-21T11:36:43Z</time>
      </trkpt>
      <trkpt lat="51.0492240" lon="7.2672970">
        <ele>186.6300000</ele>
        <time>2010-08-21T11:36:44Z</time>
      </trkpt>
      <trkpt lat="51.0485490" lon="7.2699040">
        <ele>209.7000000</ele>
        <time>2010-08-21T11:36:54Z</time>
      </trkpt>
      <trkpt lat="51.0484350" lon="7.2702670">
        <ele>212.1100000</ele>
        <time>2010-08-21T11:36:56Z</time>
      </trkpt>
      <trkpt lat="51.0484220" lon="7.2704570">
        <ele>213.0700000</ele>
        <time>2010-08-21T11:36:57Z</time>
      </trkpt>
      <trkpt lat="51.0484310" lon="7.2706770">
        <ele>214.0300000</ele>
        <time>2010-08-21T11:36:58Z</time>
      </trkpt>
      <trkpt lat="51.0484620" lon="7.2709420">
        <ele>214.9900000</ele>
        <time>2010-08-21T11:36:59Z</time>
      </trkpt>
      <trkpt lat="51.0484950" lon="7.2712290">
        <ele>216.4300000</ele>
        <time>2010-08-21T11:37:00Z</time>
      </trkpt>
      <trkpt lat="51.0487450" lon="7.2729230">
        <ele>227.4900000</ele>
        <time>2010-08-21T11:37:07Z</time>
      </trkpt>
      <trkpt lat="51.0487480" lon="7.2731190">
        <ele>228.9300000</ele>
        <time>2010-08-21T11:37:08Z</time>
      </trkpt>
      <trkpt lat="51.0487400" lon="7.2733070">
        <ele>230.3700000</ele>
        <time>2010-08-21T11:37:09Z</time>
      </trkpt>
      <trkpt lat="51.0487000" lon="7.2737390">
        <ele>233.7400000</ele>
        <time>2010-08-21T11:37:12Z</time>
      </trkpt>
      <trkpt lat="51.0486750" lon="7.2737720">
        <ele>234.7000000</ele>
        <time>2010-08-21T11:37:13Z</time>
      </trkpt>
      <trkpt lat="51.0486440" lon="7.2737710">
        <ele>235.6600000</ele>
        <time>2010-08-21T11:37:14Z</time>
      </trkpt>
      <trkpt lat="51.0486070" lon="7.2737220">
        <ele>236.6200000</ele>
        <time>2010-08-21T11:37:15Z</time>
      </trkpt>
      <trkpt lat="51.0485770" lon="7.2736180">
        <ele>237.1000000</ele>
        <time>2010-08-21T11:37:16Z</time>
      </trkpt>
      <trkpt lat="51.0485460" lon="7.2734570">
        <ele>238.0600000</ele>
        <time>2010-08-21T11:37:17Z</time>
      </trkpt>
      <trkpt lat="51.0485080" lon="7.2732910">
        <ele>238.0600000</ele>
        <time>2010-08-21T11:37:18Z</time>
      </trkpt>
      <trkpt lat="51.0484610" lon="7.2731220">
        <ele>239.0200000</ele>
        <time>2010-08-21T11:37:19Z</time>
      </trkpt>
      <trkpt lat="51.0483980" lon="7.2729630">
        <ele>239.0200000</ele>
        <time>2010-08-21T11:37:20Z</time>
      </trkpt>
      <trkpt lat="51.0483010" lon="7.2728370">
        <ele>239.5100000</ele>
        <time>2010-08-21T11:37:21Z</time>
      </trkpt>
      <trkpt lat="51.0481970" lon="7.2727310">
        <ele>239.5100000</ele>
        <time>2010-08-21T11:37:22Z</time>
      </trkpt>
      <trkpt lat="51.0481010" lon="7.2726420">
        <ele>239.9900000</ele>
        <time>2010-08-21T11:37:23Z</time>
      </trkpt>
      <trkpt lat="51.0479450" lon="7.2725670">
        <ele>239.5100000</ele>
        <time>2010-08-21T11:37:25Z</time>
      </trkpt>
      <trkpt lat="51.0478890" lon="7.2725820">
        <ele>239.0200000</ele>
        <time>2010-08-21T11:37:26Z</time>
      </trkpt>
      <trkpt lat="51.0478300" lon="7.2727020">
        <ele>239.0200000</ele>
        <time>2010-08-21T11:37:27Z</time>
      </trkpt>
      <trkpt lat="51.0478110" lon="7.2728670">
        <ele>239.5100000</ele>
        <time>2010-08-21T11:37:28Z</time>
      </trkpt>
      <trkpt lat="51.0478340" lon="7.2731080">
        <ele>240.9500000</ele>
        <time>2010-08-21T11:37:29Z</time>
      </trkpt>
      <trkpt lat="51.0479030" lon="7.2733730">
        <ele>243.3500000</ele>
        <time>2010-08-21T11:37:30Z</time>
      </trkpt>
      <trkpt lat="51.0479360" lon="7.2736270">
        <ele>244.3100000</ele>
        <time>2010-08-21T11:37:31Z</time>
      </trkpt>
      <trkpt lat="51.0479230" lon="7.2752150">
        <ele>252.9600000</ele>
        <time>2010-08-21T11:37:37Z</time>
      </trkpt>
      <trkpt lat="51.0478630" lon="7.2755020">
        <ele>255.3700000</ele>
        <time>2010-08-21T11:37:38Z</time>
      </trkpt>
      <trkpt lat="51.0477790" lon="7.2757920">
        <ele>257.7700000</ele>
        <time>2010-08-21T11:37:39Z</time>
      </trkpt>
      <trkpt lat="51.0476850" lon="7.2760660">
        <ele>260.1700000</ele>
        <time>2010-08-21T11:37:40Z</time>
      </trkpt>
      <trkpt lat="51.0475940" lon="7.2763180">
        <ele>262.5800000</ele>
        <time>2010-08-21T11:37:41Z</time>
      </trkpt>
      <trkpt lat="51.0474050" lon="7.2769420">
        <ele>267.3800000</ele>
        <time>2010-08-21T11:37:44Z</time>
      </trkpt>
      <trkpt lat="51.0473780" lon="7.2771240">
        <ele>268.3500000</ele>
        <time>2010-08-21T11:37:45Z</time>
      </trkpt>
      <trkpt lat="51.0472260" lon="7.2787200">
        <ele>265.9400000</ele>
        <time>2010-08-21T11:37:55Z</time>
      </trkpt>
      <trkpt lat="51.0470080" lon="7.2802020">
        <ele>261.6200000</ele>
        <time>2010-08-21T11:38:03Z</time>
      </trkpt>
      <trkpt lat="51.0468640" lon="7.2806390">
        <ele>259.6900000</ele>
        <time>2010-08-21T11:38:05Z</time>
      </trkpt>
      <trkpt lat="51.0460460" lon="7.2829360">
        <ele>255.8500000</ele>
        <time>2010-08-21T11:38:16Z</time>
      </trkpt>
      <trkpt lat="51.0453120" lon="7.2843420">
        <ele>245.2700000</ele>
        <time>2010-08-21T11:38:25Z</time>
      </trkpt>
      <trkpt lat="51.0452310" lon="7.2844790">
        <ele>243.3500000</ele>
        <time>2010-08-21T11:38:26Z</time>
      </trkpt>
      <trkpt lat="51.0451310" lon="7.2846120">
        <ele>241.4300000</ele>
        <time>2010-08-21T11:38:27Z</time>
      </trkpt>
      <trkpt lat="51.0450130" lon="7.2847420">
        <ele>239.5100000</ele>
        <time>2010-08-21T11:38:28Z</time>
      </trkpt>
      <trkpt lat="51.0441920" lon="7.2855160">
        <ele>224.1200000</ele>
        <time>2010-08-21T11:38:36Z</time>
      </trkpt>
      <trkpt lat="51.0441300" lon="7.2855610">
        <ele>222.6800000</ele>
        <time>2010-08-21T11:38:37Z</time>
      </trkpt>
      <trkpt lat="51.0440840" lon="7.2856000">
        <ele>221.7200000</ele>
        <time>2010-08-21T11:38:38Z</time>
      </trkpt>
      <trkpt lat="51.0440510" lon="7.2856470">
        <ele>220.2800000</ele>
        <time>2010-08-21T11:38:39Z</time>
      </trkpt>
      <trkpt lat="51.0440340" lon="7.2857100">
        <ele>219.3200000</ele>
        <time>2010-08-21T11:38:40Z</time>
      </trkpt>
      <trkpt lat="51.0440450" lon="7.2857830">
        <ele>217.8800000</ele>
        <time>2010-08-21T11:38:41Z</time>
      </trkpt>
      <trkpt lat="51.0440850" lon="7.2858760">
        <ele>216.9100000</ele>
        <time>2010-08-21T11:38:42Z</time>
      </trkpt>
      <trkpt lat="51.0441340" lon="7.2860010">
        <ele>216.4300000</ele>
        <time>2010-08-21T11:38:43Z</time>
      </trkpt>
      <trkpt lat="51.0441780" lon="7.2861500">
        <ele>215.4700000</ele>
        <time>2010-08-21T11:38:44Z</time>
      </trkpt>
      <trkpt lat="51.0442140" lon="7.2863150">
        <ele>214.5100000</ele>
        <time>2010-08-21T11:38:45Z</time>
      </trkpt>
      <trkpt lat="51.0442390" lon="7.2864910">
        <ele>214.0300000</ele>
        <time>2010-08-21T11:38:46Z</time>
      </trkpt>
      <trkpt lat="51.0442530" lon="7.2866720">
        <ele>213.0700000</ele>
        <time>2010-08-21T11:38:47Z</time>
      </trkpt>
      <trkpt lat="51.0442610" lon="7.2868570">
        <ele>212.5900000</ele>
        <time>2010-08-21T11:38:48Z</time>
      </trkpt>
      <trkpt lat="51.0442630" lon="7.2870440">
        <ele>211.6300000</ele>
        <time>2010-08-21T11:38:49Z</time>
      </trkpt>
      <trkpt lat="51.0443250" lon="7.2877680">
        <ele>208.7400000</ele>
        <time>2010-08-21T11:38:53Z</time>
      </trkpt>
      <trkpt lat="51.0443720" lon="7.2879390">
        <ele>208.2600000</ele>
        <time>2010-08-21T11:38:54Z</time>
      </trkpt>
      <trkpt lat="51.0444400" lon="7.2880990">
        <ele>207.7800000</ele>
        <time>2010-08-21T11:38:55Z</time>
      </trkpt>
      <trkpt lat="51.0445210" lon="7.2882440">
        <ele>206.8200000</ele>
        <time>2010-08-21T11:38:56Z</time>
      </trkpt>
      <trkpt lat="51.0446070" lon="7.2883850">
        <ele>205.8600000</ele>
        <time>2010-08-21T11:38:57Z</time>
      </trkpt>
      <trkpt lat="51.0446840" lon="7.2885310">
        <ele>205.3800000</ele>
        <time>2010-08-21T11:38:58Z</time>
      </trkpt>
      <trkpt lat="51.0448340" lon="7.2888100">
        <ele>204.9000000</ele>
        <time>2010-08-21T11:39:00Z</time>
      </trkpt>
      <trkpt lat="51.0449190" lon="7.2889310">
        <ele>204.4200000</ele>
        <time>2010-08-21T11:39:01Z</time>
      </trkpt>
      <trkpt lat="51.0458940" lon="7.2903360">
        <ele>209.2200000</ele>
        <time>2010-08-21T11:39:11Z</time>
      </trkpt>
      <trkpt lat="51.0460640" lon="7.2906490">
        <ele>210.1900000</ele>
        <time>2010-08-21T11:39:13Z</time>
      </trkpt>
      <trkpt lat="51.0461140" lon="7.2908160">
        <ele>210.6700000</ele>
        <time>2010-08-21T11:39:14Z</time>
      </trkpt>
      <trkpt lat="51.0461400" lon="7.2909930">
        <ele>211.1500000</ele>
        <time>2010-08-21T11:39:15Z</time>
      </trkpt>
      <trkpt lat="51.0461470" lon="7.2911850">
        <ele>212.1100000</ele>
        <time>2010-08-21T11:39:16Z</time>
      </trkpt>
      <trkpt lat="51.0461400" lon="7.2913940">
        <ele>213.0700000</ele>
        <time>2010-08-21T11:39:17Z</time>
      </trkpt>
      <trkpt lat="51.0461270" lon="7.2916150">
        <ele>214.0300000</ele>
        <time>2010-08-21T11:39:18Z</time>
      </trkpt>
      <trkpt lat="51.0460960" lon="7.2939580">
        <ele>224.1200000</ele>
        <time>2010-08-21T11:39:28Z</time>
      </trkpt>
      <trkpt lat="51.0461260" lon="7.2941630">
        <ele>224.6100000</ele>
        <time>2010-08-21T11:39:29Z</time>
      </trkpt>
      <trkpt lat="51.0461730" lon="7.2943420">
        <ele>224.6100000</ele>
        <time>2010-08-21T11:39:30Z</time>
      </trkpt>
      <trkpt lat="51.0462360" lon="7.2945030">
        <ele>225.0900000</ele>
        <time>2010-08-21T11:39:31Z</time>
      </trkpt>
      <trkpt lat="51.0463260" lon="7.2946470">
        <ele>225.0900000</ele>
        <time>2010-08-21T11:39:32Z</time>
      </trkpt>
      <trkpt lat="51.0464540" lon="7.2947600">
        <ele>225.5700000</ele>
        <time>2010-08-21T11:39:33Z</time>
      </trkpt>
      <trkpt lat="51.0465990" lon="7.2948730">
        <ele>225.5700000</ele>
        <time>2010-08-21T11:39:34Z</time>
      </trkpt>
      <trkpt lat="51.0467560" lon="7.2949750">
        <ele>225.0900000</ele>
        <time>2010-08-21T11:39:35Z</time>
      </trkpt>
      <trkpt lat="51.0475500" lon="7.2955530">
        <ele>221.2400000</ele>
        <time>2010-08-21T11:39:41Z</time>
      </trkpt>
      <trkpt lat="51.0476200" lon="7.2957050">
        <ele>220.2800000</ele>
        <time>2010-08-21T11:39:42Z</time>
      </trkpt>
      <trkpt lat="51.0476580" lon="7.2959210">
        <ele>219.3200000</ele>
        <time>2010-08-21T11:39:43Z</time>
      </trkpt>
      <trkpt lat="51.0476910" lon="7.2961820">
        <ele>217.4000000</ele>
        <time>2010-08-21T11:39:44Z</time>
      </trkpt>
      <trkpt lat="51.0476800" lon="7.2964530">
        <ele>216.4300000</ele>
        <time>2010-08-21T11:39:45Z</time>
      </trkpt>
      <trkpt lat="51.0476610" lon="7.2967340">
        <ele>214.5100000</ele>
        <time>2010-08-21T11:39:46Z</time>
      </trkpt>
      <trkpt lat="51.0476530" lon="7.2970390">
        <ele>213.0700000</ele>
        <time>2010-08-21T11:39:47Z</time>
      </trkpt>
      <trkpt lat="51.0476520" lon="7.2973260">
        <ele>211.6300000</ele>
        <time>2010-08-21T11:39:48Z</time>
      </trkpt>
      <trkpt lat="51.0476810" lon="7.2990880">
        <ele>203.9400000</ele>
        <time>2010-08-21T11:39:55Z</time>
      </trkpt>
      <trkpt lat="51.0477180" lon="7.2992680">
        <ele>202.9800000</ele>
        <time>2010-08-21T11:39:56Z</time>
      </trkpt>
      <trkpt lat="51.0477740" lon="7.2994160">
        <ele>202.4900000</ele>
        <time>2010-08-21T11:39:57Z</time>
      </trkpt>
      <trkpt lat="51.0478170" lon="7.2995330">
        <ele>202.4900000</ele>
        <time>2010-08-21T11:39:58Z</time>
      </trkpt>
      <trkpt lat="51.0478340" lon="7.2996320">
        <ele>202.4900000</ele>
        <time>2010-08-21T11:39:59Z</time>
      </trkpt>
      <trkpt lat="51.0478270" lon="7.2997220">
        <ele>202.0100000</ele>
        <time>2010-08-21T11:40:00Z</time>
      </trkpt>
      <trkpt lat="51.0477980" lon="7.2998010">
        <ele>201.5300000</ele>
        <time>2010-08-21T11:40:01Z</time>
      </trkpt>
      <trkpt lat="51.0477500" lon="7.2998600">
        <ele>201.0500000</ele>
        <time>2010-08-21T11:40:02Z</time>
      </trkpt>
      <trkpt lat="51.0476820" lon="7.2998840">
        <ele>200.0900000</ele>
        <time>2010-08-21T11:40:03Z</time>
      </trkpt>
      <trkpt lat="51.0475930" lon="7.2998640">
        <ele>199.6100000</ele>
        <time>2010-08-21T11:40:04Z</time>
      </trkpt>
      <trkpt lat="51.0474800" lon="7.2998110">
        <ele>198.6500000</ele>
        <time>2010-08-21T11:40:05Z</time>
      </trkpt>
      <trkpt lat="51.0473580" lon="7.2997600">
        <ele>198.1700000</ele>
        <time>2010-08-21T11:40:06Z</time>
      </trkpt>
      <trkpt lat="51.0470850" lon="7.2996880">
        <ele>196.2500000</ele>
        <time>2010-08-21T11:40:08Z</time>
      </trkpt>
      <trkpt lat="51.0469350" lon="7.2996820">
        <ele>195.7700000</ele>
        <time>2010-08-21T11:40:09Z</time>
      </trkpt>
      <trkpt lat="51.0467770" lon="7.2996970">
        <ele>195.2800000</ele>
        <time>2010-08-21T11:40:10Z</time>
      </trkpt>
      <trkpt lat="51.0466160" lon="7.2997320">
        <ele>194.3200000</ele>
        <time>2010-08-21T11:40:11Z</time>
      </trkpt>
      <trkpt lat="51.0464400" lon="7.2997670">
        <ele>193.8400000</ele>
        <time>2010-08-21T11:40:12Z</time>
      </trkpt>
      <trkpt lat="51.0444520" lon="7.3004830">
        <ele>188.0800000</ele>
        <time>2010-08-21T11:40:25Z</time>
      </trkpt>
      <trkpt lat="51.0443320" lon="7.3006010">
        <ele>187.5900000</ele>
        <time>2010-08-21T11:40:26Z</time>
      </trkpt>
      <trkpt lat="51.0436890" lon="7.3011920">
        <ele>186.1500000</ele>
        <time>2010-08-21T11:40:32Z</time>
      </trkpt>
      <trkpt lat="51.0436050" lon="7.3011840">
        <ele>185.6700000</ele>
        <time>2010-08-21T11:40:33Z</time>
      </trkpt>
      <trkpt lat="51.0435090" lon="7.3011430">
        <ele>185.1900000</ele>
        <time>2010-08-21T11:40:34Z</time>
      </trkpt>
      <trkpt lat="51.0434270" lon="7.3010690">
        <ele>184.7100000</ele>
        <time>2010-08-21T11:40:35Z</time>
      </trkpt>
      <trkpt lat="51.0433480" lon="7.3009990">
        <ele>184.2300000</ele>
        <time>2010-08-21T11:40:36Z</time>
      </trkpt>
      <trkpt lat="51.0431660" lon="7.3008010">
        <ele>183.7500000</ele>
        <time>2010-08-21T11:40:42Z</time>
      </trkpt>
      <trkpt lat="51.0431540" lon="7.3007840">
        <ele>183.7500000</ele>
        <time>2010-08-21T11:40:43Z</time>
      </trkpt>
      <trkpt lat="51.0431420" lon="7.3007820">
        <ele>183.2700000</ele>
        <time>2010-08-21T11:40:44Z</time>
      </trkpt>
      <trkpt lat="51.0431340" lon="7.3007920">
        <ele>182.7900000</ele>
        <time>2010-08-21T11:40:45Z</time>
      </trkpt>
      <trkpt lat="51.0431500" lon="7.3008270">
        <ele>183.7500000</ele>
        <time>2010-08-21T11:41:03Z</time>
      </trkpt>
      <trkpt lat="51.0431660" lon="7.3008700">
        <ele>183.7500000</ele>
        <time>2010-08-21T11:41:08Z</time>
      </trkpt>
      <trkpt lat="51.0431810" lon="7.3008840">
        <ele>183.7500000</ele>
        <time>2010-08-21T11:41:09Z</time>
      </trkpt>
      <trkpt lat="51.0432080" lon="7.3009020">
        <ele>184.2300000</ele>
        <time>2010-08-21T11:41:10Z</time>
      </trkpt>
      <trkpt lat="51.0433880" lon="7.3010180">
        <ele>185.1900000</ele>
        <time>2010-08-21T11:41:13Z</time>
      </trkpt>
      <trkpt lat="51.0436280" lon="7.3011860">
        <ele>186.1500000</ele>
        <time>2010-08-21T11:41:16Z</time>
      </trkpt>
      <trkpt lat="51.0437060" lon="7.3011960">
        <ele>186.1500000</ele>
        <time>2010-08-21T11:41:17Z</time>
      </trkpt>
      <trkpt lat="51.0437850" lon="7.3011680">
        <ele>186.6300000</ele>
        <time>2010-08-21T11:41:18Z</time>
      </trkpt>
      <trkpt lat="51.0438650" lon="7.3011070">
        <ele>186.6300000</ele>
        <time>2010-08-21T11:41:19Z</time>
      </trkpt>
      <trkpt lat="51.0439520" lon="7.3010250">
        <ele>186.6300000</ele>
        <time>2010-08-21T11:41:20Z</time>
      </trkpt>
      <trkpt lat="51.0449020" lon="7.3002660">
        <ele>189.5200000</ele>
        <time>2010-08-21T11:41:28Z</time>
      </trkpt>
      <trkpt lat="51.0450690" lon="7.3002030">
        <ele>190.0000000</ele>
        <time>2010-08-21T11:41:29Z</time>
      </trkpt>
      <trkpt lat="51.0465420" lon="7.2997240">
        <ele>192.8800000</ele>
        <time>2010-08-21T11:41:39Z</time>
      </trkpt>
      <trkpt lat="51.0472620" lon="7.2996650">
        <ele>195.7700000</ele>
        <time>2010-08-21T11:41:44Z</time>
      </trkpt>
      <trkpt lat="51.0474010" lon="7.2997040">
        <ele>196.7300000</ele>
        <time>2010-08-21T11:41:45Z</time>
      </trkpt>
      <trkpt lat="51.0475280" lon="7.2997560">
        <ele>197.6900000</ele>
        <time>2010-08-21T11:41:46Z</time>
      </trkpt>
      <trkpt lat="51.0477350" lon="7.2998240">
        <ele>199.1300000</ele>
        <time>2010-08-21T11:41:48Z</time>
      </trkpt>
      <trkpt lat="51.0478070" lon="7.2998130">
        <ele>199.6100000</ele>
        <time>2010-08-21T11:41:49Z</time>
      </trkpt>
      <trkpt lat="51.0478620" lon="7.2997800">
        <ele>200.0900000</ele>
        <time>2010-08-21T11:41:50Z</time>
      </trkpt>
      <trkpt lat="51.0479040" lon="7.2997390">
        <ele>200.5700000</ele>
        <time>2010-08-21T11:41:51Z</time>
      </trkpt>
      <trkpt lat="51.0479340" lon="7.2997020">
        <ele>200.5700000</ele>
        <time>2010-08-21T11:41:52Z</time>
      </trkpt>
      <trkpt lat="51.0479520" lon="7.2996710">
        <ele>201.0500000</ele>
        <time>2010-08-21T11:41:53Z</time>
      </trkpt>
      <trkpt lat="51.0479590" lon="7.2996480">
        <ele>201.5300000</ele>
        <time>2010-08-21T11:41:54Z</time>
      </trkpt>
      <trkpt lat="51.0479370" lon="7.2996200">
        <ele>204.9000000</ele>
        <time>2010-08-21T11:42:12Z</time>
      </trkpt>
      <trkpt lat="51.0479390" lon="7.2995760">
        <ele>204.4200000</ele>
        <time>2010-08-21T11:42:13Z</time>
      </trkpt>
      <trkpt lat="51.0479330" lon="7.2994940">
        <ele>204.4200000</ele>
        <time>2010-08-21T11:42:14Z</time>
      </trkpt>
      <trkpt lat="51.0478890" lon="7.2993750">
        <ele>204.4200000</ele>
        <time>2010-08-21T11:42:15Z</time>
      </trkpt>
      <trkpt lat="51.0478130" lon="7.2992360">
        <ele>204.4200000</ele>
        <time>2010-08-21T11:42:16Z</time>
      </trkpt>
      <trkpt lat="51.0477330" lon="7.2990430">
        <ele>204.9000000</ele>
        <time>2010-08-21T11:42:17Z</time>
      </trkpt>
      <trkpt lat="51.0476940" lon="7.2988110">
        <ele>204.4200000</ele>
        <time>2010-08-21T11:42:18Z</time>
      </trkpt>
      <trkpt lat="51.0476720" lon="7.2985050">
        <ele>204.9000000</ele>
        <time>2010-08-21T11:42:19Z</time>
      </trkpt>
      <trkpt lat="51.0476780" lon="7.2982200">
        <ele>204.9000000</ele>
        <time>2010-08-21T11:42:20Z</time>
      </trkpt>
      <trkpt lat="51.0476760" lon="7.2978860">
        <ele>205.8600000</ele>
        <time>2010-08-21T11:42:21Z</time>
      </trkpt>
      <trkpt lat="51.0476000" lon="7.2956050">
        <ele>214.5100000</ele>
        <time>2010-08-21T11:42:29Z</time>
      </trkpt>
      <trkpt lat="51.0475240" lon="7.2954490">
        <ele>215.4700000</ele>
        <time>2010-08-21T11:42:30Z</time>
      </trkpt>
      <trkpt lat="51.0474240" lon="7.2953200">
        <ele>215.9500000</ele>
        <time>2010-08-21T11:42:31Z</time>
      </trkpt>
      <trkpt lat="51.0472710" lon="7.2952230">
        <ele>217.8800000</ele>
        <time>2010-08-21T11:42:32Z</time>
      </trkpt>
      <trkpt lat="51.0471150" lon="7.2951210">
        <ele>218.8400000</ele>
        <time>2010-08-21T11:42:33Z</time>
      </trkpt>
      <trkpt lat="51.0469400" lon="7.2950060">
        <ele>219.8000000</ele>
        <time>2010-08-21T11:42:34Z</time>
      </trkpt>
      <trkpt lat="51.0467510" lon="7.2948820">
        <ele>220.7600000</ele>
        <time>2010-08-21T11:42:35Z</time>
      </trkpt>
      <trkpt lat="51.0463150" lon="7.2944990">
        <ele>223.6400000</ele>
        <time>2010-08-21T11:42:38Z</time>
      </trkpt>
      <trkpt lat="51.0462150" lon="7.2943440">
        <ele>224.6100000</ele>
        <time>2010-08-21T11:42:39Z</time>
      </trkpt>
      <trkpt lat="51.0461310" lon="7.2941740">
        <ele>225.0900000</ele>
        <time>2010-08-21T11:42:40Z</time>
      </trkpt>
      <trkpt lat="51.0460820" lon="7.2939770">
        <ele>225.5700000</ele>
        <time>2010-08-21T11:42:41Z</time>
      </trkpt>
      <trkpt lat="51.0460560" lon="7.2937720">
        <ele>226.0500000</ele>
        <time>2010-08-21T11:42:42Z</time>
      </trkpt>
      <trkpt lat="51.0460500" lon="7.2935440">
        <ele>225.0900000</ele>
        <time>2010-08-21T11:42:43Z</time>
      </trkpt>
      <trkpt lat="51.0460610" lon="7.2932840">
        <ele>224.1200000</ele>
        <time>2010-08-21T11:42:44Z</time>
      </trkpt>
      <trkpt lat="51.0460710" lon="7.2930060">
        <ele>223.1600000</ele>
        <time>2010-08-21T11:42:45Z</time>
      </trkpt>
      <trkpt lat="51.0461200" lon="7.2907020">
        <ele>213.5500000</ele>
        <time>2010-08-21T11:42:55Z</time>
      </trkpt>
      <trkpt lat="51.0460810" lon="7.2905260">
        <ele>213.0700000</ele>
        <time>2010-08-21T11:42:56Z</time>
      </trkpt>
      <trkpt lat="51.0460190" lon="7.2903690">
        <ele>212.5900000</ele>
        <time>2010-08-21T11:42:57Z</time>
      </trkpt>
      <trkpt lat="51.0459370" lon="7.2902230">
        <ele>212.5900000</ele>
        <time>2010-08-21T11:42:58Z</time>
      </trkpt>
      <trkpt lat="51.0458450" lon="7.2900800">
        <ele>212.1100000</ele>
        <time>2010-08-21T11:42:59Z</time>
      </trkpt>
      <trkpt lat="51.0447360" lon="7.2884060">
        <ele>207.3000000</ele>
        <time>2010-08-21T11:43:12Z</time>
      </trkpt>
      <trkpt lat="51.0444790" lon="7.2880500">
        <ele>208.7400000</ele>
        <time>2010-08-21T11:43:18Z</time>
      </trkpt>
      <trkpt lat="51.0444590" lon="7.2880400">
        <ele>208.2600000</ele>
        <time>2010-08-21T11:43:19Z</time>
      </trkpt>
      <trkpt lat="51.0444300" lon="7.2880540">
        <ele>208.2600000</ele>
        <time>2010-08-21T11:43:20Z</time>
      </trkpt>
      <trkpt lat="51.0443850" lon="7.2881590">
        <ele>208.2600000</ele>
        <time>2010-08-21T11:43:21Z</time>
      </trkpt>
      <trkpt lat="51.0443340" lon="7.2882390">
        <ele>207.7800000</ele>
        <time>2010-08-21T11:43:22Z</time>
      </trkpt>
      <trkpt lat="51.0442860" lon="7.2883300">
        <ele>207.3000000</ele>
        <time>2010-08-21T11:43:23Z</time>
      </trkpt>
      <trkpt lat="51.0436910" lon="7.2889470">
        <ele>202.0100000</ele>
        <time>2010-08-21T11:43:31Z</time>
      </trkpt>
      <trkpt lat="51.0436250" lon="7.2890300">
        <ele>201.5300000</ele>
        <time>2010-08-21T11:43:32Z</time>
      </trkpt>
      <trkpt lat="51.0432590" lon="7.2894420">
        <ele>199.6100000</ele>
        <time>2010-08-21T11:43:36Z</time>
      </trkpt>
      <trkpt lat="51.0425390" lon="7.2899940">
        <ele>198.1700000</ele>
        <time>2010-08-21T11:43:42Z</time>
      </trkpt>
      <trkpt lat="51.0424430" lon="7.2901510">
        <ele>198.1700000</ele>
        <time>2010-08-21T11:43:43Z</time>
      </trkpt>
      <trkpt lat="51.0413940" lon="7.2912380">
        <ele>196.2500000</ele>
        <time>2010-08-21T11:43:51Z</time>
      </trkpt>
      <trkpt lat="51.0404660" lon="7.2918270">
        <ele>191.9200000</ele>
        <time>2010-08-21T11:43:57Z</time>
      </trkpt>
      <trkpt lat="51.0389470" lon="7.2925040">
        <ele>185.1900000</ele>
        <time>2010-08-21T11:44:05Z</time>
      </trkpt>
      <trkpt lat="51.0373860" lon="7.2929900">
        <ele>180.8700000</ele>
        <time>2010-08-21T11:44:14Z</time>
      </trkpt>
      <trkpt lat="51.0365220" lon="7.2934900">
        <ele>183.7500000</ele>
        <time>2010-08-21T11:44:21Z</time>
      </trkpt>
      <trkpt lat="51.0362690" lon="7.2935780">
        <ele>184.7100000</ele>
        <time>2010-08-21T11:44:24Z</time>
      </trkpt>
      <trkpt lat="51.0361920" lon="7.2935180">
        <ele>185.1900000</ele>
        <time>2010-08-21T11:44:25Z</time>
      </trkpt>
      <trkpt lat="51.0361250" lon="7.2934500">
        <ele>185.6700000</ele>
        <time>2010-08-21T11:44:26Z</time>
      </trkpt>
      <trkpt lat="51.0360560" lon="7.2933650">
        <ele>185.6700000</ele>
        <time>2010-08-21T11:44:27Z</time>
      </trkpt>
      <trkpt lat="51.0359890" lon="7.2932060">
        <ele>184.7100000</ele>
        <time>2010-08-21T11:44:28Z</time>
      </trkpt>
      <trkpt lat="51.0358990" lon="7.2930590">
        <ele>184.2300000</ele>
        <time>2010-08-21T11:44:29Z</time>
      </trkpt>
      <trkpt lat="51.0357800" lon="7.2928870">
        <ele>183.2700000</ele>
        <time>2010-08-21T11:44:30Z</time>
      </trkpt>
      <trkpt lat="51.0349170" lon="7.2919020">
        <ele>177.0200000</ele>
        <time>2010-08-21T11:44:37Z</time>
      </trkpt>
      <trkpt lat="51.0347990" lon="7.2918580">
        <ele>176.5400000</ele>
        <time>2010-08-21T11:44:38Z</time>
      </trkpt>
      <trkpt lat="51.0346770" lon="7.2918460">
        <ele>176.0600000</ele>
        <time>2010-08-21T11:44:39Z</time>
      </trkpt>
      <trkpt lat="51.0337680" lon="7.2917260">
        <ele>170.2900000</ele>
        <time>2010-08-21T11:44:47Z</time>
      </trkpt>
      <trkpt lat="51.0336800" lon="7.2917570">
        <ele>169.8100000</ele>
        <time>2010-08-21T11:44:48Z</time>
      </trkpt>
      <trkpt lat="51.0335820" lon="7.2918150">
        <ele>169.3300000</ele>
        <time>2010-08-21T11:44:49Z</time>
      </trkpt>
      <trkpt lat="51.0331770" lon="7.2919880">
        <ele>168.3700000</ele>
        <time>2010-08-21T11:44:53Z</time>
      </trkpt>
      <trkpt lat="51.0331100" lon="7.2919380">
        <ele>168.3700000</ele>
        <time>2010-08-21T11:44:54Z</time>
      </trkpt>
      <trkpt lat="51.0330610" lon="7.2918800">
        <ele>167.4100000</ele>
        <time>2010-08-21T11:44:55Z</time>
      </trkpt>
      <trkpt lat="51.0330210" lon="7.2917400">
        <ele>167.4100000</ele>
        <time>2010-08-21T11:44:56Z</time>
      </trkpt>
      <trkpt lat="51.0329850" lon="7.2915620">
        <ele>166.4500000</ele>
        <time>2010-08-21T11:44:57Z</time>
      </trkpt>
      <trkpt lat="51.0329600" lon="7.2913400">
        <ele>165.9600000</ele>
        <time>2010-08-21T11:44:58Z</time>
      </trkpt>
      <trkpt lat="51.0329260" lon="7.2911000">
        <ele>165.0000000</ele>
        <time>2010-08-21T11:44:59Z</time>
      </trkpt>
      <trkpt lat="51.0329030" lon="7.2908620">
        <ele>165.0000000</ele>
        <time>2010-08-21T11:45:00Z</time>
      </trkpt>
      <trkpt lat="51.0328680" lon="7.2906450">
        <ele>165.0000000</ele>
        <time>2010-08-21T11:45:01Z</time>
      </trkpt>
      <trkpt lat="51.0328140" lon="7.2904530">
        <ele>165.0000000</ele>
        <time>2010-08-21T11:45:02Z</time>
      </trkpt>
      <trkpt lat="51.0327320" lon="7.2902800">
        <ele>165.4800000</ele>
        <time>2010-08-21T11:45:03Z</time>
      </trkpt>
      <trkpt lat="51.0326260" lon="7.2901290">
        <ele>165.9600000</ele>
        <time>2010-08-21T11:45:04Z</time>
      </trkpt>
      <trkpt lat="51.0324970" lon="7.2899990">
        <ele>165.9600000</ele>
        <time>2010-08-21T11:45:05Z</time>
      </trkpt>
      <trkpt lat="51.0323550" lon="7.2898760">
        <ele>166.9300000</ele>
        <time>2010-08-21T11:45:06Z</time>
      </trkpt>
      <trkpt lat="51.0317440" lon="7.2892610">
        <ele>168.3700000</ele>
        <time>2010-08-21T11:45:12Z</time>
      </trkpt>
      <trkpt lat="51.0312410" lon="7.2887190">
        <ele>168.8500000</ele>
        <time>2010-08-21T11:45:17Z</time>
      </trkpt>
      <trkpt lat="51.0310940" lon="7.2883920">
        <ele>167.8900000</ele>
        <time>2010-08-21T11:45:19Z</time>
      </trkpt>
      <trkpt lat="51.0309300" lon="7.2879160">
        <ele>167.8900000</ele>
        <time>2010-08-21T11:45:21Z</time>
      </trkpt>
      <trkpt lat="51.0308840" lon="7.2876720">
        <ele>167.4100000</ele>
        <time>2010-08-21T11:45:22Z</time>
      </trkpt>
      <trkpt lat="51.0305690" lon="7.2860830">
        <ele>166.4500000</ele>
        <time>2010-08-21T11:45:29Z</time>
      </trkpt>
      <trkpt lat="51.0300960" lon="7.2844230">
        <ele>163.0800000</ele>
        <time>2010-08-21T11:45:37Z</time>
      </trkpt>
      <trkpt lat="51.0300000" lon="7.2842910">
        <ele>162.6000000</ele>
        <time>2010-08-21T11:45:38Z</time>
      </trkpt>
      <trkpt lat="51.0298870" lon="7.2841490">
        <ele>161.6400000</ele>
        <time>2010-08-21T11:45:39Z</time>
      </trkpt>
      <trkpt lat="51.0297580" lon="7.2840220">
        <ele>161.1600000</ele>
        <time>2010-08-21T11:45:40Z</time>
      </trkpt>
      <trkpt lat="51.0289210" lon="7.2829690">
        <ele>158.7500000</ele>
        <time>2010-08-21T11:45:47Z</time>
      </trkpt>
      <trkpt lat="51.0288360" lon="7.2827750">
        <ele>158.7500000</ele>
        <time>2010-08-21T11:45:48Z</time>
      </trkpt>
      <trkpt lat="51.0281440" lon="7.2806990">
        <ele>161.1600000</ele>
        <time>2010-08-21T11:45:57Z</time>
      </trkpt>
      <trkpt lat="51.0278800" lon="7.2801270">
        <ele>164.5200000</ele>
        <time>2010-08-21T11:46:00Z</time>
      </trkpt>
      <trkpt lat="51.0277890" lon="7.2799940">
        <ele>165.4800000</ele>
        <time>2010-08-21T11:46:01Z</time>
      </trkpt>
      <trkpt lat="51.0277090" lon="7.2798990">
        <ele>166.4500000</ele>
        <time>2010-08-21T11:46:02Z</time>
      </trkpt>
      <trkpt lat="51.0275580" lon="7.2796880">
        <ele>169.3300000</ele>
        <time>2010-08-21T11:46:04Z</time>
      </trkpt>
      <trkpt lat="51.0274720" lon="7.2794420">
        <ele>172.2100000</ele>
        <time>2010-08-21T11:46:06Z</time>
      </trkpt>
      <trkpt lat="51.0275020" lon="7.2793060">
        <ele>173.1700000</ele>
        <time>2010-08-21T11:46:07Z</time>
      </trkpt>
      <trkpt lat="51.0275480" lon="7.2791710">
        <ele>173.6600000</ele>
        <time>2010-08-21T11:46:08Z</time>
      </trkpt>
      <trkpt lat="51.0275890" lon="7.2789310">
        <ele>177.9800000</ele>
        <time>2010-08-21T11:46:13Z</time>
      </trkpt>
      <trkpt lat="51.0275700" lon="7.2789330">
        <ele>186.6300000</ele>
        <time>2010-08-21T11:46:27Z</time>
      </trkpt>
      <trkpt lat="51.0275460" lon="7.2789240">
        <ele>189.0400000</ele>
        <time>2010-08-21T11:46:34Z</time>
      </trkpt>
      <trkpt lat="51.0274910" lon="7.2789700">
        <ele>188.0800000</ele>
        <time>2010-08-21T11:46:35Z</time>
      </trkpt>
      <trkpt lat="51.0272950" lon="7.2790450">
        <ele>186.6300000</ele>
        <time>2010-08-21T11:46:37Z</time>
      </trkpt>
      <trkpt lat="51.0271720" lon="7.2790540">
        <ele>186.1500000</ele>
        <time>2010-08-21T11:46:38Z</time>
      </trkpt>
      <trkpt lat="51.0270390" lon="7.2789910">
        <ele>185.6700000</ele>
        <time>2010-08-21T11:46:39Z</time>
      </trkpt>
      <trkpt lat="51.0269250" lon="7.2789490">
        <ele>185.1900000</ele>
        <time>2010-08-21T11:46:40Z</time>
      </trkpt>
      <trkpt lat="51.0268010" lon="7.2788570">
        <ele>184.2300000</ele>
        <time>2010-08-21T11:46:41Z</time>
      </trkpt>
      <trkpt lat="51.0267000" lon="7.2787570">
        <ele>183.2700000</ele>
        <time>2010-08-21T11:46:42Z</time>
      </trkpt>
      <trkpt lat="51.0265870" lon="7.2786440">
        <ele>181.8300000</ele>
        <time>2010-08-21T11:46:43Z</time>
      </trkpt>
      <trkpt lat="51.0256070" lon="7.2785440">
        <ele>174.1400000</ele>
        <time>2010-08-21T11:46:50Z</time>
      </trkpt>
      <trkpt lat="51.0254720" lon="7.2786100">
        <ele>173.6600000</ele>
        <time>2010-08-21T11:46:51Z</time>
      </trkpt>
      <trkpt lat="51.0253330" lon="7.2786530">
        <ele>171.2500000</ele>
        <time>2010-08-21T11:46:52Z</time>
      </trkpt>
      <trkpt lat="51.0242480" lon="7.2793640">
        <ele>165.4800000</ele>
        <time>2010-08-21T11:47:00Z</time>
      </trkpt>
      <trkpt lat="51.0238570" lon="7.2796730">
        <ele>165.9600000</ele>
        <time>2010-08-21T11:47:03Z</time>
      </trkpt>
      <trkpt lat="51.0228610" lon="7.2801780">
        <ele>160.6800000</ele>
        <time>2010-08-21T11:47:11Z</time>
      </trkpt>
      <trkpt lat="51.0225580" lon="7.2805990">
        <ele>157.3100000</ele>
        <time>2010-08-21T11:47:16Z</time>
      </trkpt>
      <trkpt lat="51.0225660" lon="7.2806240">
        <ele>155.3900000</ele>
        <time>2010-08-21T11:47:17Z</time>
      </trkpt>
      <trkpt lat="51.0225980" lon="7.2806600">
        <ele>152.5100000</ele>
        <time>2010-08-21T11:47:18Z</time>
      </trkpt>
      <trkpt lat="51.0226220" lon="7.2807040">
        <ele>151.5400000</ele>
        <time>2010-08-21T11:47:19Z</time>
      </trkpt>
      <trkpt lat="51.0226930" lon="7.2808350">
        <ele>150.5800000</ele>
        <time>2010-08-21T11:47:20Z</time>
      </trkpt>
      <trkpt lat="51.0228430" lon="7.2812710">
        <ele>149.1400000</ele>
        <time>2010-08-21T11:47:22Z</time>
      </trkpt>
      <trkpt lat="51.0233120" lon="7.2831760">
        <ele>152.0300000</ele>
        <time>2010-08-21T11:47:29Z</time>
      </trkpt>
      <trkpt lat="51.0235540" lon="7.2848950">
        <ele>160.2000000</ele>
        <time>2010-08-21T11:47:36Z</time>
      </trkpt>
      <trkpt lat="51.0234850" lon="7.2851040">
        <ele>162.1200000</ele>
        <time>2010-08-21T11:47:37Z</time>
      </trkpt>
      <trkpt lat="51.0234060" lon="7.2853220">
        <ele>164.0400000</ele>
        <time>2010-08-21T11:47:38Z</time>
      </trkpt>
      <trkpt lat="51.0232800" lon="7.2860150">
        <ele>171.7300000</ele>
        <time>2010-08-21T11:47:42Z</time>
      </trkpt>
      <trkpt lat="51.0233280" lon="7.2860550">
        <ele>173.6600000</ele>
        <time>2010-08-21T11:47:43Z</time>
      </trkpt>
      <trkpt lat="51.0235250" lon="7.2861150">
        <ele>178.4600000</ele>
        <time>2010-08-21T11:47:45Z</time>
      </trkpt>
      <trkpt lat="51.0236160" lon="7.2860820">
        <ele>180.8700000</ele>
        <time>2010-08-21T11:47:46Z</time>
      </trkpt>
      <trkpt lat="51.0237310" lon="7.2860710">
        <ele>182.3100000</ele>
        <time>2010-08-21T11:47:47Z</time>
      </trkpt>
      <trkpt lat="51.0238250" lon="7.2861570">
        <ele>182.7900000</ele>
        <time>2010-08-21T11:47:48Z</time>
      </trkpt>
      <trkpt lat="51.0238880" lon="7.2862900">
        <ele>183.2700000</ele>
        <time>2010-08-21T11:47:49Z</time>
      </trkpt>
      <trkpt lat="51.0238890" lon="7.2864210">
        <ele>184.2300000</ele>
        <time>2010-08-21T11:47:50Z</time>
      </trkpt>
      <trkpt lat="51.0238680" lon="7.2865640">
        <ele>185.1900000</ele>
        <time>2010-08-21T11:47:51Z</time>
      </trkpt>
      <trkpt lat="51.0238050" lon="7.2867760">
        <ele>185.6700000</ele>
        <time>2010-08-21T11:47:52Z</time>
      </trkpt>
      <trkpt lat="51.0237580" lon="7.2869660">
        <ele>186.1500000</ele>
        <time>2010-08-21T11:47:53Z</time>
      </trkpt>
      <trkpt lat="51.0237460" lon="7.2871640">
        <ele>186.6300000</ele>
        <time>2010-08-21T11:47:54Z</time>
      </trkpt>
      <trkpt lat="51.0237440" lon="7.2873770">
        <ele>186.6300000</ele>
        <time>2010-08-21T11:47:55Z</time>
      </trkpt>
      <trkpt lat="51.0237840" lon="7.2876240">
        <ele>186.6300000</ele>
        <time>2010-08-21T11:47:56Z</time>
      </trkpt>
      <trkpt lat="51.0238110" lon="7.2878580">
        <ele>186.1500000</ele>
        <time>2010-08-21T11:47:57Z</time>
      </trkpt>
      <trkpt lat="51.0239240" lon="7.2881990">
        <ele>186.1500000</ele>
        <time>2010-08-21T11:47:58Z</time>
      </trkpt>
      <trkpt lat="51.0239990" lon="7.2885050">
        <ele>187.1100000</ele>
        <time>2010-08-21T11:47:59Z</time>
      </trkpt>
      <trkpt lat="51.0245250" lon="7.2905850">
        <ele>196.2500000</ele>
        <time>2010-08-21T11:48:07Z</time>
      </trkpt>
      <trkpt lat="51.0246210" lon="7.2907380">
        <ele>197.2100000</ele>
        <time>2010-08-21T11:48:08Z</time>
      </trkpt>
      <trkpt lat="51.0247370" lon="7.2908300">
        <ele>199.1300000</ele>
        <time>2010-08-21T11:48:09Z</time>
      </trkpt>
      <trkpt lat="51.0248300" lon="7.2909580">
        <ele>199.6100000</ele>
        <time>2010-08-21T11:48:10Z</time>
      </trkpt>
      <trkpt lat="51.0249500" lon="7.2910660">
        <ele>200.5700000</ele>
        <time>2010-08-21T11:48:11Z</time>
      </trkpt>
      <trkpt lat="51.0250410" lon="7.2912000">
        <ele>201.0500000</ele>
        <time>2010-08-21T11:48:12Z</time>
      </trkpt>
      <trkpt lat="51.0250870" lon="7.2913510">
        <ele>202.0100000</ele>
        <time>2010-08-21T11:48:13Z</time>
      </trkpt>
      <trkpt lat="51.0250890" lon="7.2914930">
        <ele>202.4900000</ele>
        <time>2010-08-21T11:48:14Z</time>
      </trkpt>
      <trkpt lat="51.0250200" lon="7.2916170">
        <ele>201.0500000</ele>
        <time>2010-08-21T11:48:15Z</time>
      </trkpt>
      <trkpt lat="51.0249300" lon="7.2917620">
        <ele>201.0500000</ele>
        <time>2010-08-21T11:48:16Z</time>
      </trkpt>
      <trkpt lat="51.0248000" lon="7.2919050">
        <ele>201.5300000</ele>
        <time>2010-08-21T11:48:17Z</time>
      </trkpt>
      <trkpt lat="51.0246160" lon="7.2920220">
        <ele>202.4900000</ele>
        <time>2010-08-21T11:48:18Z</time>
      </trkpt>
      <trkpt lat="51.0244090" lon="7.2921120">
        <ele>203.4600000</ele>
        <time>2010-08-21T11:48:19Z</time>
      </trkpt>
      <trkpt lat="51.0242200" lon="7.2921890">
        <ele>204.9000000</ele>
        <time>2010-08-21T11:48:20Z</time>
      </trkpt>
      <trkpt lat="51.0240510" lon="7.2922320">
        <ele>205.8600000</ele>
        <time>2010-08-21T11:48:21Z</time>
      </trkpt>
      <trkpt lat="51.0239060" lon="7.2922770">
        <ele>206.8200000</ele>
        <time>2010-08-21T11:48:22Z</time>
      </trkpt>
      <trkpt lat="51.0237880" lon="7.2923540">
        <ele>207.3000000</ele>
        <time>2010-08-21T11:48:23Z</time>
      </trkpt>
      <trkpt lat="51.0236850" lon="7.2924700">
        <ele>208.2600000</ele>
        <time>2010-08-21T11:48:24Z</time>
      </trkpt>
      <trkpt lat="51.0235960" lon="7.2926560">
        <ele>209.2200000</ele>
        <time>2010-08-21T11:48:25Z</time>
      </trkpt>
      <trkpt lat="51.0235260" lon="7.2929000">
        <ele>209.7000000</ele>
        <time>2010-08-21T11:48:26Z</time>
      </trkpt>
      <trkpt lat="51.0234830" lon="7.2931610">
        <ele>210.6700000</ele>
        <time>2010-08-21T11:48:27Z</time>
      </trkpt>
      <trkpt lat="51.0234560" lon="7.2934160">
        <ele>210.6700000</ele>
        <time>2010-08-21T11:48:28Z</time>
      </trkpt>
      <trkpt lat="51.0234390" lon="7.2936530">
        <ele>211.1500000</ele>
        <time>2010-08-21T11:48:29Z</time>
      </trkpt>
      <trkpt lat="51.0233710" lon="7.2942110">
        <ele>210.6700000</ele>
        <time>2010-08-21T11:48:32Z</time>
      </trkpt>
      <trkpt lat="51.0233240" lon="7.2943540">
        <ele>210.1900000</ele>
        <time>2010-08-21T11:48:33Z</time>
      </trkpt>
      <trkpt lat="51.0232530" lon="7.2944520">
        <ele>209.7000000</ele>
        <time>2010-08-21T11:48:34Z</time>
      </trkpt>
      <trkpt lat="51.0231400" lon="7.2945290">
        <ele>209.2200000</ele>
        <time>2010-08-21T11:48:35Z</time>
      </trkpt>
      <trkpt lat="51.0229850" lon="7.2945950">
        <ele>208.2600000</ele>
        <time>2010-08-21T11:48:36Z</time>
      </trkpt>
      <trkpt lat="51.0228230" lon="7.2946840">
        <ele>207.3000000</ele>
        <time>2010-08-21T11:48:37Z</time>
      </trkpt>
      <trkpt lat="51.0218150" lon="7.2951510">
        <ele>201.5300000</ele>
        <time>2010-08-21T11:48:44Z</time>
      </trkpt>
      <trkpt lat="51.0217360" lon="7.2952710">
        <ele>200.5700000</ele>
        <time>2010-08-21T11:48:45Z</time>
      </trkpt>
      <trkpt lat="51.0216850" lon="7.2954110">
        <ele>199.6100000</ele>
        <time>2010-08-21T11:48:46Z</time>
      </trkpt>
      <trkpt lat="51.0216790" lon="7.2955500">
        <ele>199.1300000</ele>
        <time>2010-08-21T11:48:47Z</time>
      </trkpt>
      <trkpt lat="51.0217170" lon="7.2957100">
        <ele>198.6500000</ele>
        <time>2010-08-21T11:48:48Z</time>
      </trkpt>
      <trkpt lat="51.0218260" lon="7.2959270">
        <ele>197.2100000</ele>
        <time>2010-08-21T11:48:49Z</time>
      </trkpt>
      <trkpt lat="51.0219080" lon="7.2961280">
        <ele>196.7300000</ele>
        <time>2010-08-21T11:48:50Z</time>
      </trkpt>
      <trkpt lat="51.0219840" lon="7.2963280">
        <ele>195.7700000</ele>
        <time>2010-08-21T11:48:51Z</time>
      </trkpt>
      <trkpt lat="51.0220320" lon="7.2965110">
        <ele>194.8000000</ele>
        <time>2010-08-21T11:48:52Z</time>
      </trkpt>
      <trkpt lat="51.0220460" lon="7.2966720">
        <ele>193.8400000</ele>
        <time>2010-08-21T11:48:53Z</time>
      </trkpt>
      <trkpt lat="51.0220330" lon="7.2968220">
        <ele>192.8800000</ele>
        <time>2010-08-21T11:48:54Z</time>
      </trkpt>
      <trkpt lat="51.0219930" lon="7.2969730">
        <ele>191.9200000</ele>
        <time>2010-08-21T11:48:55Z</time>
      </trkpt>
      <trkpt lat="51.0219150" lon="7.2971250">
        <ele>190.9600000</ele>
        <time>2010-08-21T11:48:56Z</time>
      </trkpt>
      <trkpt lat="51.0217780" lon="7.2972600">
        <ele>190.0000000</ele>
        <time>2010-08-21T11:48:57Z</time>
      </trkpt>
      <trkpt lat="51.0216010" lon="7.2973840">
        <ele>189.0400000</ele>
        <time>2010-08-21T11:48:58Z</time>
      </trkpt>
      <trkpt lat="51.0214160" lon="7.2975110">
        <ele>188.0800000</ele>
        <time>2010-08-21T11:48:59Z</time>
      </trkpt>
      <trkpt lat="51.0212250" lon="7.2976310">
        <ele>186.6300000</ele>
        <time>2010-08-21T11:49:00Z</time>
      </trkpt>
      <trkpt lat="51.0194310" lon="7.2987520">
        <ele>174.6200000</ele>
        <time>2010-08-21T11:49:10Z</time>
      </trkpt>
      <trkpt lat="51.0183020" lon="7.2995010">
        <ele>167.4100000</ele>
        <time>2010-08-21T11:49:18Z</time>
      </trkpt>
      <trkpt lat="51.0182230" lon="7.2995780">
        <ele>166.9300000</ele>
        <time>2010-08-21T11:49:19Z</time>
      </trkpt>
      <trkpt lat="51.0181710" lon="7.2996910">
        <ele>165.9600000</ele>
        <time>2010-08-21T11:49:20Z</time>
      </trkpt>
      <trkpt lat="51.0181450" lon="7.2998290">
        <ele>165.0000000</ele>
        <time>2010-08-21T11:49:21Z</time>
      </trkpt>
      <trkpt lat="51.0181600" lon="7.3000020">
        <ele>164.0400000</ele>
        <time>2010-08-21T11:49:22Z</time>
      </trkpt>
      <trkpt lat="51.0182050" lon="7.3001880">
        <ele>163.0800000</ele>
        <time>2010-08-21T11:49:23Z</time>
      </trkpt>
      <trkpt lat="51.0182840" lon="7.3003570">
        <ele>162.1200000</ele>
        <time>2010-08-21T11:49:24Z</time>
      </trkpt>
      <trkpt lat="51.0183800" lon="7.3004970">
        <ele>161.6400000</ele>
        <time>2010-08-21T11:49:25Z</time>
      </trkpt>
      <trkpt lat="51.0184730" lon="7.3006190">
        <ele>160.6800000</ele>
        <time>2010-08-21T11:49:26Z</time>
      </trkpt>
      <trkpt lat="51.0185420" lon="7.3007460">
        <ele>160.2000000</ele>
        <time>2010-08-21T11:49:27Z</time>
      </trkpt>
      <trkpt lat="51.0185760" lon="7.3008930">
        <ele>160.6800000</ele>
        <time>2010-08-21T11:49:28Z</time>
      </trkpt>
      <trkpt lat="51.0185820" lon="7.3010670">
        <ele>160.6800000</ele>
        <time>2010-08-21T11:49:29Z</time>
      </trkpt>
      <trkpt lat="51.0185430" lon="7.3012530">
        <ele>160.6800000</ele>
        <time>2010-08-21T11:49:30Z</time>
      </trkpt>
      <trkpt lat="51.0184890" lon="7.3014440">
        <ele>160.6800000</ele>
        <time>2010-08-21T11:49:31Z</time>
      </trkpt>
      <trkpt lat="51.0183980" lon="7.3018380">
        <ele>160.6800000</ele>
        <time>2010-08-21T11:49:33Z</time>
      </trkpt>
      <trkpt lat="51.0183720" lon="7.3020500">
        <ele>161.1600000</ele>
        <time>2010-08-21T11:49:34Z</time>
      </trkpt>
      <trkpt lat="51.0183560" lon="7.3022730">
        <ele>161.1600000</ele>
        <time>2010-08-21T11:49:35Z</time>
      </trkpt>
      <trkpt lat="51.0182670" lon="7.3035920">
        <ele>164.0400000</ele>
        <time>2010-08-21T11:49:41Z</time>
      </trkpt>
      <trkpt lat="51.0182780" lon="7.3037870">
        <ele>164.5200000</ele>
        <time>2010-08-21T11:49:42Z</time>
      </trkpt>
      <trkpt lat="51.0183120" lon="7.3039880">
        <ele>164.5200000</ele>
        <time>2010-08-21T11:49:43Z</time>
      </trkpt>
      <trkpt lat="51.0183800" lon="7.3041970">
        <ele>164.5200000</ele>
        <time>2010-08-21T11:49:44Z</time>
      </trkpt>
      <trkpt lat="51.0184670" lon="7.3044250">
        <ele>163.5600000</ele>
        <time>2010-08-21T11:49:45Z</time>
      </trkpt>
      <trkpt lat="51.0192390" lon="7.3064920">
        <ele>159.7200000</ele>
        <time>2010-08-21T11:49:54Z</time>
      </trkpt>
      <trkpt lat="51.0195000" lon="7.3073400">
        <ele>159.2400000</ele>
        <time>2010-08-21T11:49:57Z</time>
      </trkpt>
      <trkpt lat="51.0199990" lon="7.3100580">
        <ele>161.1600000</ele>
        <time>2010-08-21T11:50:06Z</time>
      </trkpt>
      <trkpt lat="51.0200250" lon="7.3105590">
        <ele>161.1600000</ele>
        <time>2010-08-21T11:50:08Z</time>
      </trkpt>
      <trkpt lat="51.0200020" lon="7.3107680">
        <ele>160.6800000</ele>
        <time>2010-08-21T11:50:09Z</time>
      </trkpt>
      <trkpt lat="51.0199570" lon="7.3109640">
        <ele>160.6800000</ele>
        <time>2010-08-21T11:50:10Z</time>
      </trkpt>
      <trkpt lat="51.0198900" lon="7.3111490">
        <ele>160.6800000</ele>
        <time>2010-08-21T11:50:11Z</time>
      </trkpt>
      <trkpt lat="51.0197880" lon="7.3113180">
        <ele>160.6800000</ele>
        <time>2010-08-21T11:50:12Z</time>
      </trkpt>
      <trkpt lat="51.0196880" lon="7.3114890">
        <ele>161.1600000</ele>
        <time>2010-08-21T11:50:13Z</time>
      </trkpt>
      <trkpt lat="51.0194270" lon="7.3121850">
        <ele>162.1200000</ele>
        <time>2010-08-21T11:50:17Z</time>
      </trkpt>
      <trkpt lat="51.0194360" lon="7.3124360">
        <ele>162.6000000</ele>
        <time>2010-08-21T11:50:18Z</time>
      </trkpt>
      <trkpt lat="51.0194660" lon="7.3127160">
        <ele>163.0800000</ele>
        <time>2010-08-21T11:50:19Z</time>
      </trkpt>
      <trkpt lat="51.0195330" lon="7.3130390">
        <ele>163.5600000</ele>
        <time>2010-08-21T11:50:20Z</time>
      </trkpt>
      <trkpt lat="51.0196270" lon="7.3134130">
        <ele>165.4800000</ele>
        <time>2010-08-21T11:50:21Z</time>
      </trkpt>
      <trkpt lat="51.0196930" lon="7.3137810">
        <ele>167.4100000</ele>
        <time>2010-08-21T11:50:22Z</time>
      </trkpt>
      <trkpt lat="51.0201290" lon="7.3161820">
        <ele>178.9400000</ele>
        <time>2010-08-21T11:50:29Z</time>
      </trkpt>
      <trkpt lat="51.0203920" lon="7.3177230">
        <ele>189.0400000</ele>
        <time>2010-08-21T11:50:35Z</time>
      </trkpt>
      <trkpt lat="51.0203430" lon="7.3179010">
        <ele>190.9600000</ele>
        <time>2010-08-21T11:50:36Z</time>
      </trkpt>
      <trkpt lat="51.0201420" lon="7.3180050">
        <ele>193.3600000</ele>
        <time>2010-08-21T11:50:37Z</time>
      </trkpt>
      <trkpt lat="51.0194710" lon="7.3192380">
        <ele>203.9400000</ele>
        <time>2010-08-21T11:50:43Z</time>
      </trkpt>
      <trkpt lat="51.0194340" lon="7.3195140">
        <ele>205.3800000</ele>
        <time>2010-08-21T11:50:44Z</time>
      </trkpt>
      <trkpt lat="51.0194240" lon="7.3198020">
        <ele>205.8600000</ele>
        <time>2010-08-21T11:50:45Z</time>
      </trkpt>
      <trkpt lat="51.0194280" lon="7.3200820">
        <ele>206.3400000</ele>
        <time>2010-08-21T11:50:46Z</time>
      </trkpt>
      <trkpt lat="51.0194330" lon="7.3203340">
        <ele>206.8200000</ele>
        <time>2010-08-21T11:50:47Z</time>
      </trkpt>
      <trkpt lat="51.0194460" lon="7.3210120">
        <ele>202.9800000</ele>
        <time>2010-08-21T11:50:52Z</time>
      </trkpt>
      <trkpt lat="51.0194600" lon="7.3211670">
        <ele>204.9000000</ele>
        <time>2010-08-21T11:51:02Z</time>
      </trkpt>
      <trkpt lat="51.0194700" lon="7.3215000">
        <ele>203.9400000</ele>
        <time>2010-08-21T11:51:40Z</time>
      </trkpt>
      <trkpt lat="51.0194010" lon="7.3229800">
        <ele>201.0500000</ele>
        <time>2010-08-21T11:51:49Z</time>
      </trkpt>
      <trkpt lat="51.0194070" lon="7.3238410">
        <ele>199.1300000</ele>
        <time>2010-08-21T11:51:53Z</time>
      </trkpt>
      <trkpt lat="51.0194430" lon="7.3240520">
        <ele>198.6500000</ele>
        <time>2010-08-21T11:51:54Z</time>
      </trkpt>
      <trkpt lat="51.0194940" lon="7.3242540">
        <ele>197.6900000</ele>
        <time>2010-08-21T11:51:55Z</time>
      </trkpt>
      <trkpt lat="51.0195570" lon="7.3244440">
        <ele>197.2100000</ele>
        <time>2010-08-21T11:51:56Z</time>
      </trkpt>
      <trkpt lat="51.0196280" lon="7.3246270">
        <ele>196.7300000</ele>
        <time>2010-08-21T11:51:57Z</time>
      </trkpt>
      <trkpt lat="51.0204110" lon="7.3264620">
        <ele>188.0800000</ele>
        <time>2010-08-21T11:52:07Z</time>
      </trkpt>
      <trkpt lat="51.0205180" lon="7.3265210">
        <ele>187.1100000</ele>
        <time>2010-08-21T11:52:08Z</time>
      </trkpt>
      <trkpt lat="51.0206260" lon="7.3265140">
        <ele>186.6300000</ele>
        <time>2010-08-21T11:52:09Z</time>
      </trkpt>
      <trkpt lat="51.0207430" lon="7.3264680">
        <ele>185.6700000</ele>
        <time>2010-08-21T11:52:10Z</time>
      </trkpt>
      <trkpt lat="51.0208440" lon="7.3263870">
        <ele>184.7100000</ele>
        <time>2010-08-21T11:52:11Z</time>
      </trkpt>
      <trkpt lat="51.0209300" lon="7.3262980">
        <ele>184.2300000</ele>
        <time>2010-08-21T11:52:12Z</time>
      </trkpt>
      <trkpt lat="51.0210690" lon="7.3261540">
        <ele>182.7900000</ele>
        <time>2010-08-21T11:52:14Z</time>
      </trkpt>
      <trkpt lat="51.0211160" lon="7.3261310">
        <ele>182.3100000</ele>
        <time>2010-08-21T11:52:15Z</time>
      </trkpt>
      <trkpt lat="51.0211520" lon="7.3261700">
        <ele>181.8300000</ele>
        <time>2010-08-21T11:52:16Z</time>
      </trkpt>
      <trkpt lat="51.0211610" lon="7.3262250">
        <ele>181.8300000</ele>
        <time>2010-08-21T11:52:17Z</time>
      </trkpt>
      <trkpt lat="51.0211650" lon="7.3263160">
        <ele>180.8700000</ele>
        <time>2010-08-21T11:52:18Z</time>
      </trkpt>
      <trkpt lat="51.0211150" lon="7.3263980">
        <ele>180.8700000</ele>
        <time>2010-08-21T11:52:19Z</time>
      </trkpt>
      <trkpt lat="51.0210520" lon="7.3265040">
        <ele>180.3800000</ele>
        <time>2010-08-21T11:52:20Z</time>
      </trkpt>
      <trkpt lat="51.0209400" lon="7.3266620">
        <ele>180.3800000</ele>
        <time>2010-08-21T11:52:21Z</time>
      </trkpt>
      <trkpt lat="51.0208300" lon="7.3268280">
        <ele>179.4200000</ele>
        <time>2010-08-21T11:52:22Z</time>
      </trkpt>
      <trkpt lat="51.0201940" lon="7.3274410">
        <ele>177.5000000</ele>
        <time>2010-08-21T11:52:27Z</time>
      </trkpt>
      <trkpt lat="51.0194550" lon="7.3279540">
        <ele>173.6600000</ele>
        <time>2010-08-21T11:52:33Z</time>
      </trkpt>
      <trkpt lat="51.0193230" lon="7.3280930">
        <ele>171.7300000</ele>
        <time>2010-08-21T11:52:34Z</time>
      </trkpt>
      <trkpt lat="51.0190490" lon="7.3283850">
        <ele>168.8500000</ele>
        <time>2010-08-21T11:52:36Z</time>
      </trkpt>
      <trkpt lat="51.0189360" lon="7.3285440">
        <ele>167.8900000</ele>
        <time>2010-08-21T11:52:37Z</time>
      </trkpt>
      <trkpt lat="51.0188320" lon="7.3287120">
        <ele>166.9300000</ele>
        <time>2010-08-21T11:52:38Z</time>
      </trkpt>
      <trkpt lat="51.0187480" lon="7.3288920">
        <ele>165.9600000</ele>
        <time>2010-08-21T11:52:39Z</time>
      </trkpt>
      <trkpt lat="51.0186870" lon="7.3290750">
        <ele>165.0000000</ele>
        <time>2010-08-21T11:52:40Z</time>
      </trkpt>
      <trkpt lat="51.0186520" lon="7.3292680">
        <ele>164.0400000</ele>
        <time>2010-08-21T11:52:41Z</time>
      </trkpt>
      <trkpt lat="51.0186440" lon="7.3294860">
        <ele>164.0400000</ele>
        <time>2010-08-21T11:52:42Z</time>
      </trkpt>
      <trkpt lat="51.0186480" lon="7.3297310">
        <ele>163.5600000</ele>
        <time>2010-08-21T11:52:43Z</time>
      </trkpt>
      <trkpt lat="51.0186540" lon="7.3299880">
        <ele>163.0800000</ele>
        <time>2010-08-21T11:52:44Z</time>
      </trkpt>
      <trkpt lat="51.0186970" lon="7.3314100">
        <ele>161.1600000</ele>
        <time>2010-08-21T11:52:50Z</time>
      </trkpt>
      <trkpt lat="51.0186840" lon="7.3315990">
        <ele>161.1600000</ele>
        <time>2010-08-21T11:52:51Z</time>
      </trkpt>
      <trkpt lat="51.0186550" lon="7.3317700">
        <ele>160.6800000</ele>
        <time>2010-08-21T11:52:52Z</time>
      </trkpt>
      <trkpt lat="51.0186060" lon="7.3319050">
        <ele>160.6800000</ele>
        <time>2010-08-21T11:52:53Z</time>
      </trkpt>
      <trkpt lat="51.0185450" lon="7.3320230">
        <ele>160.6800000</ele>
        <time>2010-08-21T11:52:54Z</time>
      </trkpt>
      <trkpt lat="51.0184800" lon="7.3321070">
        <ele>160.6800000</ele>
        <time>2010-08-21T11:52:55Z</time>
      </trkpt>
      <trkpt lat="51.0184130" lon="7.3321510">
        <ele>160.6800000</ele>
        <time>2010-08-21T11:52:56Z</time>
      </trkpt>
      <trkpt lat="51.0183440" lon="7.3321270">
        <ele>160.2000000</ele>
        <time>2010-08-21T11:52:57Z</time>
      </trkpt>
      <trkpt lat="51.0182700" lon="7.3320620">
        <ele>160.2000000</ele>
        <time>2010-08-21T11:52:58Z</time>
      </trkpt>
      <trkpt lat="51.0181770" lon="7.3319450">
        <ele>159.7200000</ele>
        <time>2010-08-21T11:52:59Z</time>
      </trkpt>
      <trkpt lat="51.0180520" lon="7.3317820">
        <ele>160.2000000</ele>
        <time>2010-08-21T11:53:00Z</time>
      </trkpt>
      <trkpt lat="51.0172760" lon="7.3308900">
        <ele>159.7200000</ele>
        <time>2010-08-21T11:53:04Z</time>
      </trkpt>
      <trkpt lat="51.0160590" lon="7.3294980">
        <ele>158.2700000</ele>
        <time>2010-08-21T11:53:10Z</time>
      </trkpt>
      <trkpt lat="51.0157600" lon="7.3290870">
        <ele>157.7900000</ele>
        <time>2010-08-21T11:53:12Z</time>
      </trkpt>
      <trkpt lat="51.0156360" lon="7.3288540">
        <ele>157.7900000</ele>
        <time>2010-08-21T11:53:13Z</time>
      </trkpt>
      <trkpt lat="51.0155310" lon="7.3285930">
        <ele>157.3100000</ele>
        <time>2010-08-21T11:53:14Z</time>
      </trkpt>
      <trkpt lat="51.0154730" lon="7.3282650">
        <ele>157.3100000</ele>
        <time>2010-08-21T11:53:15Z</time>
      </trkpt>
      <trkpt lat="51.0154370" lon="7.3279180">
        <ele>156.8300000</ele>
        <time>2010-08-21T11:53:16Z</time>
      </trkpt>
      <trkpt lat="51.0154300" lon="7.3275440">
        <ele>156.8300000</ele>
        <time>2010-08-21T11:53:17Z</time>
      </trkpt>
      <trkpt lat="51.0154230" lon="7.3271690">
        <ele>156.8300000</ele>
        <time>2010-08-21T11:53:18Z</time>
      </trkpt>
      <trkpt lat="51.0154120" lon="7.3268090">
        <ele>156.8300000</ele>
        <time>2010-08-21T11:53:19Z</time>
      </trkpt>
      <trkpt lat="51.0153610" lon="7.3248660">
        <ele>156.3500000</ele>
        <time>2010-08-21T11:53:25Z</time>
      </trkpt>
      <trkpt lat="51.0152780" lon="7.3238360">
        <ele>155.8700000</ele>
        <time>2010-08-21T11:53:28Z</time>
      </trkpt>
      <trkpt lat="51.0152080" lon="7.3235150">
        <ele>155.3900000</ele>
        <time>2010-08-21T11:53:29Z</time>
      </trkpt>
      <trkpt lat="51.0150960" lon="7.3231820">
        <ele>155.3900000</ele>
        <time>2010-08-21T11:53:30Z</time>
      </trkpt>
      <trkpt lat="51.0149530" lon="7.3228180">
        <ele>154.9100000</ele>
        <time>2010-08-21T11:53:31Z</time>
      </trkpt>
      <trkpt lat="51.0147930" lon="7.3224400">
        <ele>154.4300000</ele>
        <time>2010-08-21T11:53:32Z</time>
      </trkpt>
      <trkpt lat="51.0140060" lon="7.3205780">
        <ele>152.9900000</ele>
        <time>2010-08-21T11:53:38Z</time>
      </trkpt>
      <trkpt lat="51.0136760" lon="7.3199280">
        <ele>152.5100000</ele>
        <time>2010-08-21T11:53:41Z</time>
      </trkpt>
      <trkpt lat="51.0135600" lon="7.3197690">
        <ele>152.0300000</ele>
        <time>2010-08-21T11:53:42Z</time>
      </trkpt>
      <trkpt lat="51.0131350" lon="7.3192890">
        <ele>151.5400000</ele>
        <time>2010-08-21T11:53:46Z</time>
      </trkpt>
      <trkpt lat="51.0130280" lon="7.3193010">
        <ele>152.0300000</ele>
        <time>2010-08-21T11:53:47Z</time>
      </trkpt>
      <trkpt lat="51.0129410" lon="7.3193570">
        <ele>151.5400000</ele>
        <time>2010-08-21T11:53:48Z</time>
      </trkpt>
      <trkpt lat="51.0128750" lon="7.3194300">
        <ele>151.5400000</ele>
        <time>2010-08-21T11:53:49Z</time>
      </trkpt>
      <trkpt lat="51.0128170" lon="7.3195180">
        <ele>151.5400000</ele>
        <time>2010-08-21T11:53:50Z</time>
      </trkpt>
      <trkpt lat="51.0127680" lon="7.3195950">
        <ele>151.5400000</ele>
        <time>2010-08-21T11:53:51Z</time>
      </trkpt>
      <trkpt lat="51.0127350" lon="7.3196410">
        <ele>151.0600000</ele>
        <time>2010-08-21T11:53:52Z</time>
      </trkpt>
      <trkpt lat="51.0127080" lon="7.3196610">
        <ele>151.5400000</ele>
        <time>2010-08-21T11:53:53Z</time>
      </trkpt>
      <trkpt lat="51.0126860" lon="7.3196730">
        <ele>151.5400000</ele>
        <time>2010-08-21T11:53:54Z</time>
      </trkpt>
      <trkpt lat="51.0126690" lon="7.3196850">
        <ele>152.0300000</ele>
        <time>2010-08-21T11:53:55Z</time>
      </trkpt>
      <trkpt lat="51.0123620" lon="7.3199050">
        <ele>152.9900000</ele>
        <time>2010-08-21T11:54:07Z</time>
      </trkpt>
      <trkpt lat="51.0121920" lon="7.3200130">
        <ele>153.4700000</ele>
        <time>2010-08-21T11:54:09Z</time>
      </trkpt>
      <trkpt lat="51.0121060" lon="7.3200430">
        <ele>153.4700000</ele>
        <time>2010-08-21T11:54:10Z</time>
      </trkpt>
      <trkpt lat="51.0120220" lon="7.3200830">
        <ele>153.9500000</ele>
        <time>2010-08-21T11:54:11Z</time>
      </trkpt>
      <trkpt lat="51.0119440" lon="7.3201370">
        <ele>153.9500000</ele>
        <time>2010-08-21T11:54:12Z</time>
      </trkpt>
      <trkpt lat="51.0118760" lon="7.3201860">
        <ele>153.9500000</ele>
        <time>2010-08-21T11:54:13Z</time>
      </trkpt>
      <trkpt lat="51.0116610" lon="7.3202950">
        <ele>154.9100000</ele>
        <time>2010-08-21T11:54:20Z</time>
      </trkpt>
      <trkpt lat="51.0116020" lon="7.3203200">
        <ele>154.9100000</ele>
        <time>2010-08-21T11:54:29Z</time>
      </trkpt>
      <trkpt lat="51.0115940" lon="7.3203200">
        <ele>155.3900000</ele>
        <time>2010-08-21T11:54:59Z</time>
      </trkpt>
      <trkpt lat="51.0116010" lon="7.3203200">
        <ele>155.3900000</ele>
        <time>2010-08-21T11:55:18Z</time>
      </trkpt>
      <trkpt lat="51.0115900" lon="7.3203390">
        <ele>155.3900000</ele>
        <time>2010-08-21T11:55:19Z</time>
      </trkpt>
      <trkpt lat="51.0115780" lon="7.3203550">
        <ele>155.3900000</ele>
        <time>2010-08-21T11:55:20Z</time>
      </trkpt>
      <trkpt lat="51.0115400" lon="7.3203780">
        <ele>155.8700000</ele>
        <time>2010-08-21T11:55:26Z</time>
      </trkpt>
      <trkpt lat="51.0114660" lon="7.3203840">
        <ele>156.8300000</ele>
        <time>2010-08-21T11:55:28Z</time>
      </trkpt>
      <trkpt lat="51.0113920" lon="7.3204110">
        <ele>156.8300000</ele>
        <time>2010-08-21T11:55:29Z</time>
      </trkpt>
      <trkpt lat="51.0112960" lon="7.3204660">
        <ele>157.3100000</ele>
        <time>2010-08-21T11:55:30Z</time>
      </trkpt>
      <trkpt lat="51.0103730" lon="7.3209470">
        <ele>162.1200000</ele>
        <time>2010-08-21T11:55:37Z</time>
      </trkpt>
      <trkpt lat="51.0096040" lon="7.3211580">
        <ele>167.8900000</ele>
        <time>2010-08-21T11:55:43Z</time>
      </trkpt>
      <trkpt lat="51.0092990" lon="7.3210440">
        <ele>169.8100000</ele>
        <time>2010-08-21T11:55:45Z</time>
      </trkpt>
      <trkpt lat="51.0091120" lon="7.3209800">
        <ele>172.2100000</ele>
        <time>2010-08-21T11:55:46Z</time>
      </trkpt>
      <trkpt lat="51.0083420" lon="7.3207120">
        <ele>187.5900000</ele>
        <time>2010-08-21T11:55:52Z</time>
      </trkpt>
      <trkpt lat="51.0082370" lon="7.3207110">
        <ele>189.5200000</ele>
        <time>2010-08-21T11:55:53Z</time>
      </trkpt>
      <trkpt lat="51.0074110" lon="7.3207860">
        <ele>198.1700000</ele>
        <time>2010-08-21T11:56:01Z</time>
      </trkpt>
      <trkpt lat="51.0072650" lon="7.3208660">
        <ele>197.6900000</ele>
        <time>2010-08-21T11:56:03Z</time>
      </trkpt>
      <trkpt lat="51.0074850" lon="7.3210310">
        <ele>201.5300000</ele>
        <time>2010-08-21T11:56:08Z</time>
      </trkpt>
      <trkpt lat="51.0075970" lon="7.3210510">
        <ele>202.9800000</ele>
        <time>2010-08-21T11:56:09Z</time>
      </trkpt>
      <trkpt lat="51.0076700" lon="7.3210720">
        <ele>204.9000000</ele>
        <time>2010-08-21T11:56:10Z</time>
      </trkpt>
      <trkpt lat="51.0077810" lon="7.3210930">
        <ele>205.3800000</ele>
        <time>2010-08-21T11:56:11Z</time>
      </trkpt>
      <trkpt lat="51.0084640" lon="7.3214000">
        <ele>205.8600000</ele>
        <time>2010-08-21T11:56:16Z</time>
      </trkpt>
      <trkpt lat="51.0085810" lon="7.3215720">
        <ele>204.9000000</ele>
        <time>2010-08-21T11:56:18Z</time>
      </trkpt>
      <trkpt lat="51.0085820" lon="7.3216700">
        <ele>204.9000000</ele>
        <time>2010-08-21T11:56:19Z</time>
      </trkpt>
      <trkpt lat="51.0085550" lon="7.3217560">
        <ele>205.8600000</ele>
        <time>2010-08-21T11:56:20Z</time>
      </trkpt>
      <trkpt lat="51.0084170" lon="7.3219020">
        <ele>206.8200000</ele>
        <time>2010-08-21T11:56:22Z</time>
      </trkpt>
      <trkpt lat="51.0083030" lon="7.3218880">
        <ele>207.7800000</ele>
        <time>2010-08-21T11:56:23Z</time>
      </trkpt>
      <trkpt lat="51.0081830" lon="7.3218560">
        <ele>206.3400000</ele>
        <time>2010-08-21T11:56:24Z</time>
      </trkpt>
      <trkpt lat="51.0080780" lon="7.3218330">
        <ele>206.3400000</ele>
        <time>2010-08-21T11:56:25Z</time>
      </trkpt>
      <trkpt lat="51.0079690" lon="7.3218200">
        <ele>207.3000000</ele>
        <time>2010-08-21T11:56:26Z</time>
      </trkpt>
      <trkpt lat="51.0069700" lon="7.3218210">
        <ele>213.5500000</ele>
        <time>2010-08-21T11:56:33Z</time>
      </trkpt>
      <trkpt lat="51.0064280" lon="7.3214300">
        <ele>214.5100000</ele>
        <time>2010-08-21T11:56:37Z</time>
      </trkpt>
      <trkpt lat="51.0063220" lon="7.3213330">
        <ele>214.5100000</ele>
        <time>2010-08-21T11:56:38Z</time>
      </trkpt>
      <trkpt lat="51.0060780" lon="7.3212440">
        <ele>217.8800000</ele>
        <time>2010-08-21T11:56:41Z</time>
      </trkpt>
      <trkpt lat="51.0060210" lon="7.3212910">
        <ele>216.9100000</ele>
        <time>2010-08-21T11:56:42Z</time>
      </trkpt>
      <trkpt lat="51.0060050" lon="7.3213380">
        <ele>214.5100000</ele>
        <time>2010-08-21T11:56:43Z</time>
      </trkpt>
      <trkpt lat="51.0061830" lon="7.3216560">
        <ele>215.9500000</ele>
        <time>2010-08-21T11:56:46Z</time>
      </trkpt>
      <trkpt lat="51.0062520" lon="7.3218030">
        <ele>216.4300000</ele>
        <time>2010-08-21T11:56:47Z</time>
      </trkpt>
      <trkpt lat="51.0063620" lon="7.3219570">
        <ele>217.4000000</ele>
        <time>2010-08-21T11:56:48Z</time>
      </trkpt>
      <trkpt lat="51.0064970" lon="7.3221270">
        <ele>216.9100000</ele>
        <time>2010-08-21T11:56:49Z</time>
      </trkpt>
      <trkpt lat="51.0066230" lon="7.3222830">
        <ele>216.9100000</ele>
        <time>2010-08-21T11:56:50Z</time>
      </trkpt>
      <trkpt lat="51.0067700" lon="7.3224350">
        <ele>216.9100000</ele>
        <time>2010-08-21T11:56:51Z</time>
      </trkpt>
      <trkpt lat="51.0068790" lon="7.3225600">
        <ele>216.9100000</ele>
        <time>2010-08-21T11:56:52Z</time>
      </trkpt>
      <trkpt lat="51.0072320" lon="7.3229320">
        <ele>222.2000000</ele>
        <time>2010-08-21T11:56:57Z</time>
      </trkpt>
      <trkpt lat="51.0072790" lon="7.3230280">
        <ele>222.2000000</ele>
        <time>2010-08-21T11:56:58Z</time>
      </trkpt>
      <trkpt lat="51.0072730" lon="7.3231100">
        <ele>223.6400000</ele>
        <time>2010-08-21T11:56:59Z</time>
      </trkpt>
      <trkpt lat="51.0072250" lon="7.3232030">
        <ele>224.6100000</ele>
        <time>2010-08-21T11:57:00Z</time>
      </trkpt>
      <trkpt lat="51.0071590" lon="7.3232720">
        <ele>227.0100000</ele>
        <time>2010-08-21T11:57:01Z</time>
      </trkpt>
      <trkpt lat="51.0071050" lon="7.3233190">
        <ele>227.9700000</ele>
        <time>2010-08-21T11:57:02Z</time>
      </trkpt>
      <trkpt lat="51.0070490" lon="7.3233510">
        <ele>227.9700000</ele>
        <time>2010-08-21T11:57:03Z</time>
      </trkpt>
      <trkpt lat="51.0069490" lon="7.3233040">
        <ele>227.0100000</ele>
        <time>2010-08-21T11:57:04Z</time>
      </trkpt>
      <trkpt lat="51.0068500" lon="7.3232910">
        <ele>227.0100000</ele>
        <time>2010-08-21T11:57:05Z</time>
      </trkpt>
      <trkpt lat="51.0067260" lon="7.3232280">
        <ele>227.0100000</ele>
        <time>2010-08-21T11:57:06Z</time>
      </trkpt>
      <trkpt lat="51.0065740" lon="7.3231800">
        <ele>227.0100000</ele>
        <time>2010-08-21T11:57:07Z</time>
      </trkpt>
      <trkpt lat="51.0064010" lon="7.3231490">
        <ele>227.4900000</ele>
        <time>2010-08-21T11:57:08Z</time>
      </trkpt>
      <trkpt lat="51.0049740" lon="7.3230060">
        <ele>237.1000000</ele>
        <time>2010-08-21T11:57:17Z</time>
      </trkpt>
      <trkpt lat="51.0043800" lon="7.3230830">
        <ele>240.9500000</ele>
        <time>2010-08-21T11:57:24Z</time>
      </trkpt>
      <trkpt lat="51.0043730" lon="7.3231560">
        <ele>239.9900000</ele>
        <time>2010-08-21T11:57:28Z</time>
      </trkpt>
      <trkpt lat="51.0043650" lon="7.3231960">
        <ele>240.9500000</ele>
        <time>2010-08-21T11:57:30Z</time>
      </trkpt>
      <trkpt lat="51.0043140" lon="7.3233280">
        <ele>241.9100000</ele>
        <time>2010-08-21T11:57:33Z</time>
      </trkpt>
      <trkpt lat="51.0042640" lon="7.3234330">
        <ele>241.9100000</ele>
        <time>2010-08-21T11:57:34Z</time>
      </trkpt>
      <trkpt lat="51.0042110" lon="7.3235750">
        <ele>241.9100000</ele>
        <time>2010-08-21T11:57:35Z</time>
      </trkpt>
      <trkpt lat="51.0041730" lon="7.3237350">
        <ele>241.9100000</ele>
        <time>2010-08-21T11:57:36Z</time>
      </trkpt>
      <trkpt lat="51.0041370" lon="7.3239000">
        <ele>241.4300000</ele>
        <time>2010-08-21T11:57:37Z</time>
      </trkpt>
      <trkpt lat="51.0039060" lon="7.3246050">
        <ele>241.4300000</ele>
        <time>2010-08-21T11:57:42Z</time>
      </trkpt>
      <trkpt lat="51.0038550" lon="7.3246830">
        <ele>241.4300000</ele>
        <time>2010-08-21T11:57:43Z</time>
      </trkpt>
      <trkpt lat="51.0037830" lon="7.3246930">
        <ele>240.9500000</ele>
        <time>2010-08-21T11:57:44Z</time>
      </trkpt>
      <trkpt lat="51.0037120" lon="7.3246450">
        <ele>241.4300000</ele>
        <time>2010-08-21T11:57:45Z</time>
      </trkpt>
      <trkpt lat="51.0036490" lon="7.3245430">
        <ele>241.9100000</ele>
        <time>2010-08-21T11:57:46Z</time>
      </trkpt>
      <trkpt lat="51.0035780" lon="7.3244130">
        <ele>242.3900000</ele>
        <time>2010-08-21T11:57:47Z</time>
      </trkpt>
      <trkpt lat="51.0035390" lon="7.3242560">
        <ele>242.3900000</ele>
        <time>2010-08-21T11:57:48Z</time>
      </trkpt>
      <trkpt lat="51.0034900" lon="7.3240560">
        <ele>242.3900000</ele>
        <time>2010-08-21T11:57:49Z</time>
      </trkpt>
      <trkpt lat="51.0034260" lon="7.3238160">
        <ele>242.3900000</ele>
        <time>2010-08-21T11:57:50Z</time>
      </trkpt>
      <trkpt lat="51.0033120" lon="7.3234050">
        <ele>243.8300000</ele>
        <time>2010-08-21T11:57:52Z</time>
      </trkpt>
      <trkpt lat="51.0031580" lon="7.3230510">
        <ele>244.7900000</ele>
        <time>2010-08-21T11:57:54Z</time>
      </trkpt>
      <trkpt lat="51.0030570" lon="7.3229160">
        <ele>245.7500000</ele>
        <time>2010-08-21T11:57:55Z</time>
      </trkpt>
      <trkpt lat="51.0029550" lon="7.3228090">
        <ele>246.7200000</ele>
        <time>2010-08-21T11:57:56Z</time>
      </trkpt>
      <trkpt lat="51.0028630" lon="7.3227270">
        <ele>247.6800000</ele>
        <time>2010-08-21T11:57:57Z</time>
      </trkpt>
      <trkpt lat="51.0027840" lon="7.3226770">
        <ele>247.6800000</ele>
        <time>2010-08-21T11:57:58Z</time>
      </trkpt>
      <trkpt lat="51.0027100" lon="7.3226650">
        <ele>248.1600000</ele>
        <time>2010-08-21T11:57:59Z</time>
      </trkpt>
      <trkpt lat="51.0026400" lon="7.3226800">
        <ele>248.6400000</ele>
        <time>2010-08-21T11:58:00Z</time>
      </trkpt>
      <trkpt lat="51.0025750" lon="7.3227120">
        <ele>250.0800000</ele>
        <time>2010-08-21T11:58:01Z</time>
      </trkpt>
      <trkpt lat="51.0025280" lon="7.3227530">
        <ele>250.5600000</ele>
        <time>2010-08-21T11:58:02Z</time>
      </trkpt>
      <trkpt lat="51.0024980" lon="7.3227840">
        <ele>251.5200000</ele>
        <time>2010-08-21T11:58:03Z</time>
      </trkpt>
      <trkpt lat="51.0024550" lon="7.3228200">
        <ele>251.0400000</ele>
        <time>2010-08-21T11:58:10Z</time>
      </trkpt>
      <trkpt lat="51.0024310" lon="7.3227840">
        <ele>251.5200000</ele>
        <time>2010-08-21T11:58:11Z</time>
      </trkpt>
      <trkpt lat="51.0024030" lon="7.3226820">
        <ele>251.5200000</ele>
        <time>2010-08-21T11:58:12Z</time>
      </trkpt>
      <trkpt lat="51.0022590" lon="7.3222370">
        <ele>251.0400000</ele>
        <time>2010-08-21T11:58:15Z</time>
      </trkpt>
      <trkpt lat="51.0021980" lon="7.3221390">
        <ele>251.0400000</ele>
        <time>2010-08-21T11:58:16Z</time>
      </trkpt>
      <trkpt lat="51.0021340" lon="7.3220660">
        <ele>251.0400000</ele>
        <time>2010-08-21T11:58:17Z</time>
      </trkpt>
      <trkpt lat="51.0020630" lon="7.3219850">
        <ele>251.0400000</ele>
        <time>2010-08-21T11:58:18Z</time>
      </trkpt>
      <trkpt lat="51.0019820" lon="7.3218770">
        <ele>251.0400000</ele>
        <time>2010-08-21T11:58:19Z</time>
      </trkpt>
      <trkpt lat="51.0018920" lon="7.3217410">
        <ele>251.0400000</ele>
        <time>2010-08-21T11:58:20Z</time>
      </trkpt>
      <trkpt lat="51.0010000" lon="7.3205690">
        <ele>247.6800000</ele>
        <time>2010-08-21T11:58:28Z</time>
      </trkpt>
      <trkpt lat="51.0003060" lon="7.3199570">
        <ele>245.2700000</ele>
        <time>2010-08-21T11:58:33Z</time>
      </trkpt>
      <trkpt lat="51.0001890" lon="7.3197970">
        <ele>244.3100000</ele>
        <time>2010-08-21T11:58:34Z</time>
      </trkpt>
      <trkpt lat="50.9993860" lon="7.3185550">
        <ele>235.6600000</ele>
        <time>2010-08-21T11:58:42Z</time>
      </trkpt>
      <trkpt lat="50.9992790" lon="7.3185190">
        <ele>234.7000000</ele>
        <time>2010-08-21T11:58:43Z</time>
      </trkpt>
      <trkpt lat="50.9991600" lon="7.3185510">
        <ele>233.2600000</ele>
        <time>2010-08-21T11:58:44Z</time>
      </trkpt>
      <trkpt lat="50.9990370" lon="7.3186150">
        <ele>232.3000000</ele>
        <time>2010-08-21T11:58:45Z</time>
      </trkpt>
      <trkpt lat="50.9989060" lon="7.3186970">
        <ele>230.8500000</ele>
        <time>2010-08-21T11:58:46Z</time>
      </trkpt>
      <trkpt lat="50.9987630" lon="7.3187920">
        <ele>229.8900000</ele>
        <time>2010-08-21T11:58:47Z</time>
      </trkpt>
      <trkpt lat="50.9969890" lon="7.3196640">
        <ele>218.3600000</ele>
        <time>2010-08-21T11:58:58Z</time>
      </trkpt>
      <trkpt lat="50.9963530" lon="7.3198510">
        <ele>212.5900000</ele>
        <time>2010-08-21T11:59:02Z</time>
      </trkpt>
      <trkpt lat="50.9962280" lon="7.3199850">
        <ele>211.1500000</ele>
        <time>2010-08-21T11:59:03Z</time>
      </trkpt>
      <trkpt lat="50.9960970" lon="7.3201710">
        <ele>209.7000000</ele>
        <time>2010-08-21T11:59:04Z</time>
      </trkpt>
      <trkpt lat="50.9949810" lon="7.3213740">
        <ele>198.1700000</ele>
        <time>2010-08-21T11:59:11Z</time>
      </trkpt>
      <trkpt lat="50.9946890" lon="7.3215560">
        <ele>195.2800000</ele>
        <time>2010-08-21T11:59:13Z</time>
      </trkpt>
      <trkpt lat="50.9945530" lon="7.3215970">
        <ele>193.8400000</ele>
        <time>2010-08-21T11:59:14Z</time>
      </trkpt>
      <trkpt lat="50.9944070" lon="7.3216040">
        <ele>192.8800000</ele>
        <time>2010-08-21T11:59:15Z</time>
      </trkpt>
      <trkpt lat="50.9942400" lon="7.3215720">
        <ele>191.9200000</ele>
        <time>2010-08-21T11:59:16Z</time>
      </trkpt>
      <trkpt lat="50.9940620" lon="7.3215160">
        <ele>190.9600000</ele>
        <time>2010-08-21T11:59:17Z</time>
      </trkpt>
      <trkpt lat="50.9938830" lon="7.3214370">
        <ele>189.5200000</ele>
        <time>2010-08-21T11:59:18Z</time>
      </trkpt>
      <trkpt lat="50.9937040" lon="7.3213390">
        <ele>188.5600000</ele>
        <time>2010-08-21T11:59:19Z</time>
      </trkpt>
      <trkpt lat="50.9924920" lon="7.3202860">
        <ele>179.4200000</ele>
        <time>2010-08-21T11:59:26Z</time>
      </trkpt>
      <trkpt lat="50.9913030" lon="7.3195680">
        <ele>168.8500000</ele>
        <time>2010-08-21T11:59:34Z</time>
      </trkpt>
      <trkpt lat="50.9911810" lon="7.3195490">
        <ele>166.9300000</ele>
        <time>2010-08-21T11:59:35Z</time>
      </trkpt>
      <trkpt lat="50.9910540" lon="7.3195650">
        <ele>165.4800000</ele>
        <time>2010-08-21T11:59:36Z</time>
      </trkpt>
      <trkpt lat="50.9909220" lon="7.3196260">
        <ele>164.5200000</ele>
        <time>2010-08-21T11:59:37Z</time>
      </trkpt>
      <trkpt lat="50.9907880" lon="7.3197000">
        <ele>163.5600000</ele>
        <time>2010-08-21T11:59:38Z</time>
      </trkpt>
      <trkpt lat="50.9902560" lon="7.3199960">
        <ele>159.7200000</ele>
        <time>2010-08-21T11:59:42Z</time>
      </trkpt>
      <trkpt lat="50.9901530" lon="7.3200810">
        <ele>158.7500000</ele>
        <time>2010-08-21T11:59:43Z</time>
      </trkpt>
      <trkpt lat="50.9900110" lon="7.3202450">
        <ele>157.7900000</ele>
        <time>2010-08-21T11:59:45Z</time>
      </trkpt>
      <trkpt lat="50.9899770" lon="7.3203120">
        <ele>157.7900000</ele>
        <time>2010-08-21T11:59:46Z</time>
      </trkpt>
      <trkpt lat="50.9899560" lon="7.3203560">
        <ele>157.3100000</ele>
        <time>2010-08-21T11:59:47Z</time>
      </trkpt>
      <trkpt lat="50.9899420" lon="7.3203860">
        <ele>157.3100000</ele>
        <time>2010-08-21T11:59:48Z</time>
      </trkpt>
      <trkpt lat="50.9899300" lon="7.3204070">
        <ele>157.3100000</ele>
        <time>2010-08-21T11:59:49Z</time>
      </trkpt>
      <trkpt lat="50.9898690" lon="7.3206530">
        <ele>155.8700000</ele>
        <time>2010-08-21T11:59:59Z</time>
      </trkpt>
      <trkpt lat="50.9894860" lon="7.3218680">
        <ele>156.8300000</ele>
        <time>2010-08-21T12:00:07Z</time>
      </trkpt>
      <trkpt lat="50.9894250" lon="7.3219630">
        <ele>157.3100000</ele>
        <time>2010-08-21T12:00:08Z</time>
      </trkpt>
      <trkpt lat="50.9893440" lon="7.3219670">
        <ele>157.7900000</ele>
        <time>2010-08-21T12:00:09Z</time>
      </trkpt>
      <trkpt lat="50.9892680" lon="7.3219410">
        <ele>158.2700000</ele>
        <time>2010-08-21T12:00:10Z</time>
      </trkpt>
      <trkpt lat="50.9892030" lon="7.3218960">
        <ele>158.2700000</ele>
        <time>2010-08-21T12:00:11Z</time>
      </trkpt>
      <trkpt lat="50.9891250" lon="7.3218230">
        <ele>158.7500000</ele>
        <time>2010-08-21T12:00:12Z</time>
      </trkpt>
      <trkpt lat="50.9890480" lon="7.3217330">
        <ele>159.2400000</ele>
        <time>2010-08-21T12:00:13Z</time>
      </trkpt>
      <trkpt lat="50.9889800" lon="7.3216460">
        <ele>158.7500000</ele>
        <time>2010-08-21T12:00:14Z</time>
      </trkpt>
      <trkpt lat="50.9882420" lon="7.3207950">
        <ele>157.7900000</ele>
        <time>2010-08-21T12:00:22Z</time>
      </trkpt>
      <trkpt lat="50.9878940" lon="7.3201710">
        <ele>157.3100000</ele>
        <time>2010-08-21T12:00:26Z</time>
      </trkpt>
      <trkpt lat="50.9878250" lon="7.3199670">
        <ele>156.8300000</ele>
        <time>2010-08-21T12:00:27Z</time>
      </trkpt>
      <trkpt lat="50.9877590" lon="7.3197510">
        <ele>157.3100000</ele>
        <time>2010-08-21T12:00:28Z</time>
      </trkpt>
      <trkpt lat="50.9873260" lon="7.3180760">
        <ele>156.3500000</ele>
        <time>2010-08-21T12:00:35Z</time>
      </trkpt>
      <trkpt lat="50.9866670" lon="7.3163570">
        <ele>159.7200000</ele>
        <time>2010-08-21T12:00:42Z</time>
      </trkpt>
      <trkpt lat="50.9864780" lon="7.3152970">
        <ele>165.0000000</ele>
        <time>2010-08-21T12:00:47Z</time>
      </trkpt>
      <trkpt lat="50.9863810" lon="7.3148710">
        <ele>167.4100000</ele>
        <time>2010-08-21T12:00:50Z</time>
      </trkpt>
      <trkpt lat="50.9863230" lon="7.3147430">
        <ele>168.3700000</ele>
        <time>2010-08-21T12:00:51Z</time>
      </trkpt>
      <trkpt lat="50.9862640" lon="7.3146220">
        <ele>169.8100000</ele>
        <time>2010-08-21T12:00:52Z</time>
      </trkpt>
      <trkpt lat="50.9861800" lon="7.3145360">
        <ele>171.7300000</ele>
        <time>2010-08-21T12:00:53Z</time>
      </trkpt>
      <trkpt lat="50.9860750" lon="7.3145140">
        <ele>174.1400000</ele>
        <time>2010-08-21T12:00:54Z</time>
      </trkpt>
      <trkpt lat="50.9859730" lon="7.3144900">
        <ele>177.0200000</ele>
        <time>2010-08-21T12:00:55Z</time>
      </trkpt>
      <trkpt lat="50.9858570" lon="7.3144880">
        <ele>179.9000000</ele>
        <time>2010-08-21T12:00:56Z</time>
      </trkpt>
      <trkpt lat="50.9857430" lon="7.3144980">
        <ele>182.3100000</ele>
        <time>2010-08-21T12:00:57Z</time>
      </trkpt>
      <trkpt lat="50.9856400" lon="7.3144930">
        <ele>184.2300000</ele>
        <time>2010-08-21T12:00:58Z</time>
      </trkpt>
      <trkpt lat="50.9854740" lon="7.3142720">
        <ele>190.9600000</ele>
        <time>2010-08-21T12:01:01Z</time>
      </trkpt>
      <trkpt lat="50.9855930" lon="7.3139420">
        <ele>193.8400000</ele>
        <time>2010-08-21T12:01:03Z</time>
      </trkpt>
      <trkpt lat="50.9856470" lon="7.3138030">
        <ele>195.2800000</ele>
        <time>2010-08-21T12:01:04Z</time>
      </trkpt>
      <trkpt lat="50.9857020" lon="7.3130480">
        <ele>200.0900000</ele>
        <time>2010-08-21T12:01:08Z</time>
      </trkpt>
      <trkpt lat="50.9856580" lon="7.3128280">
        <ele>201.0500000</ele>
        <time>2010-08-21T12:01:09Z</time>
      </trkpt>
      <trkpt lat="50.9855430" lon="7.3125720">
        <ele>204.4200000</ele>
        <time>2010-08-21T12:01:10Z</time>
      </trkpt>
      <trkpt lat="50.9854240" lon="7.3123200">
        <ele>205.8600000</ele>
        <time>2010-08-21T12:01:11Z</time>
      </trkpt>
      <trkpt lat="50.9853220" lon="7.3120810">
        <ele>207.3000000</ele>
        <time>2010-08-21T12:01:12Z</time>
      </trkpt>
      <trkpt lat="50.9847300" lon="7.3108400">
        <ele>215.4700000</ele>
        <time>2010-08-21T12:01:18Z</time>
      </trkpt>
      <trkpt lat="50.9846230" lon="7.3107340">
        <ele>216.9100000</ele>
        <time>2010-08-21T12:01:19Z</time>
      </trkpt>
      <trkpt lat="50.9845100" lon="7.3106550">
        <ele>217.8800000</ele>
        <time>2010-08-21T12:01:20Z</time>
      </trkpt>
      <trkpt lat="50.9843900" lon="7.3106000">
        <ele>218.8400000</ele>
        <time>2010-08-21T12:01:21Z</time>
      </trkpt>
      <trkpt lat="50.9842700" lon="7.3105780">
        <ele>219.3200000</ele>
        <time>2010-08-21T12:01:22Z</time>
      </trkpt>
      <trkpt lat="50.9841630" lon="7.3105870">
        <ele>220.2800000</ele>
        <time>2010-08-21T12:01:23Z</time>
      </trkpt>
      <trkpt lat="50.9840700" lon="7.3106820">
        <ele>221.2400000</ele>
        <time>2010-08-21T12:01:24Z</time>
      </trkpt>
      <trkpt lat="50.9840070" lon="7.3108170">
        <ele>221.2400000</ele>
        <time>2010-08-21T12:01:25Z</time>
      </trkpt>
      <trkpt lat="50.9839580" lon="7.3109850">
        <ele>221.7200000</ele>
        <time>2010-08-21T12:01:26Z</time>
      </trkpt>
      <trkpt lat="50.9839010" lon="7.3111760">
        <ele>222.6800000</ele>
        <time>2010-08-21T12:01:27Z</time>
      </trkpt>
      <trkpt lat="50.9834110" lon="7.3124010">
        <ele>226.5300000</ele>
        <time>2010-08-21T12:01:32Z</time>
      </trkpt>
      <trkpt lat="50.9830760" lon="7.3129430">
        <ele>228.4500000</ele>
        <time>2010-08-21T12:01:35Z</time>
      </trkpt>
      <trkpt lat="50.9829970" lon="7.3130000">
        <ele>228.9300000</ele>
        <time>2010-08-21T12:01:36Z</time>
      </trkpt>
      <trkpt lat="50.9829260" lon="7.3130330">
        <ele>229.4100000</ele>
        <time>2010-08-21T12:01:37Z</time>
      </trkpt>
      <trkpt lat="50.9828520" lon="7.3130280">
        <ele>229.8900000</ele>
        <time>2010-08-21T12:01:38Z</time>
      </trkpt>
      <trkpt lat="50.9827690" lon="7.3129490">
        <ele>229.8900000</ele>
        <time>2010-08-21T12:01:39Z</time>
      </trkpt>
      <trkpt lat="50.9826740" lon="7.3128200">
        <ele>230.3700000</ele>
        <time>2010-08-21T12:01:40Z</time>
      </trkpt>
      <trkpt lat="50.9825560" lon="7.3126610">
        <ele>230.8500000</ele>
        <time>2010-08-21T12:01:41Z</time>
      </trkpt>
      <trkpt lat="50.9824300" lon="7.3124930">
        <ele>231.3300000</ele>
        <time>2010-08-21T12:01:42Z</time>
      </trkpt>
      <trkpt lat="50.9816150" lon="7.3116060">
        <ele>234.7000000</ele>
        <time>2010-08-21T12:01:49Z</time>
      </trkpt>
      <trkpt lat="50.9804760" lon="7.3109330">
        <ele>234.7000000</ele>
        <time>2010-08-21T12:01:59Z</time>
      </trkpt>
      <trkpt lat="50.9802460" lon="7.3107080">
        <ele>237.1000000</ele>
        <time>2010-08-21T12:02:03Z</time>
      </trkpt>
      <trkpt lat="50.9802190" lon="7.3106150">
        <ele>236.6200000</ele>
        <time>2010-08-21T12:02:04Z</time>
      </trkpt>
      <trkpt lat="50.9801880" lon="7.3105000">
        <ele>236.1400000</ele>
        <time>2010-08-21T12:02:05Z</time>
      </trkpt>
      <trkpt lat="50.9801570" lon="7.3103820">
        <ele>236.1400000</ele>
        <time>2010-08-21T12:02:06Z</time>
      </trkpt>
      <trkpt lat="50.9801260" lon="7.3102440">
        <ele>235.1800000</ele>
        <time>2010-08-21T12:02:07Z</time>
      </trkpt>
      <trkpt lat="50.9800890" lon="7.3101080">
        <ele>234.7000000</ele>
        <time>2010-08-21T12:02:08Z</time>
      </trkpt>
      <trkpt lat="50.9800350" lon="7.3099970">
        <ele>234.7000000</ele>
        <time>2010-08-21T12:02:09Z</time>
      </trkpt>
      <trkpt lat="50.9799630" lon="7.3099100">
        <ele>233.7400000</ele>
        <time>2010-08-21T12:02:10Z</time>
      </trkpt>
      <trkpt lat="50.9798770" lon="7.3098460">
        <ele>232.7800000</ele>
        <time>2010-08-21T12:02:11Z</time>
      </trkpt>
      <trkpt lat="50.9797840" lon="7.3098010">
        <ele>232.3000000</ele>
        <time>2010-08-21T12:02:12Z</time>
      </trkpt>
      <trkpt lat="50.9796860" lon="7.3097580">
        <ele>232.3000000</ele>
        <time>2010-08-21T12:02:13Z</time>
      </trkpt>
      <trkpt lat="50.9796040" lon="7.3097120">
        <ele>232.3000000</ele>
        <time>2010-08-21T12:02:14Z</time>
      </trkpt>
      <trkpt lat="50.9795590" lon="7.3096450">
        <ele>231.3300000</ele>
        <time>2010-08-21T12:02:15Z</time>
      </trkpt>
      <trkpt lat="50.9795280" lon="7.3095390">
        <ele>230.8500000</ele>
        <time>2010-08-21T12:02:16Z</time>
      </trkpt>
      <trkpt lat="50.9794980" lon="7.3092710">
        <ele>229.8900000</ele>
        <time>2010-08-21T12:02:18Z</time>
      </trkpt>
      <trkpt lat="50.9794210" lon="7.3087130">
        <ele>228.9300000</ele>
        <time>2010-08-21T12:02:21Z</time>
      </trkpt>
      <trkpt lat="50.9789800" lon="7.3072800">
        <ele>228.4500000</ele>
        <time>2010-08-21T12:02:29Z</time>
      </trkpt>
      <trkpt lat="50.9789210" lon="7.3072150">
        <ele>227.9700000</ele>
        <time>2010-08-21T12:02:30Z</time>
      </trkpt>
      <trkpt lat="50.9788760" lon="7.3072220">
        <ele>227.9700000</ele>
        <time>2010-08-21T12:02:31Z</time>
      </trkpt>
      <trkpt lat="50.9788240" lon="7.3072470">
        <ele>227.4900000</ele>
        <time>2010-08-21T12:02:32Z</time>
      </trkpt>
      <trkpt lat="50.9787680" lon="7.3073030">
        <ele>227.0100000</ele>
        <time>2010-08-21T12:02:33Z</time>
      </trkpt>
      <trkpt lat="50.9786950" lon="7.3073780">
        <ele>227.0100000</ele>
        <time>2010-08-21T12:02:34Z</time>
      </trkpt>
      <trkpt lat="50.9786160" lon="7.3074540">
        <ele>226.0500000</ele>
        <time>2010-08-21T12:02:35Z</time>
      </trkpt>
      <trkpt lat="50.9779060" lon="7.3081000">
        <ele>218.3600000</ele>
        <time>2010-08-21T12:02:43Z</time>
      </trkpt>
      <trkpt lat="50.9776650" lon="7.3083470">
        <ele>216.4300000</ele>
        <time>2010-08-21T12:02:45Z</time>
      </trkpt>
      <trkpt lat="50.9775520" lon="7.3085120">
        <ele>215.4700000</ele>
        <time>2010-08-21T12:02:46Z</time>
      </trkpt>
      <trkpt lat="50.9766670" lon="7.3101040">
        <ele>212.1100000</ele>
        <time>2010-08-21T12:02:54Z</time>
      </trkpt>
      <trkpt lat="50.9765460" lon="7.3102230">
        <ele>211.1500000</ele>
        <time>2010-08-21T12:02:55Z</time>
      </trkpt>
      <trkpt lat="50.9764090" lon="7.3103090">
        <ele>210.6700000</ele>
        <time>2010-08-21T12:02:56Z</time>
      </trkpt>
      <trkpt lat="50.9762510" lon="7.3103730">
        <ele>209.7000000</ele>
        <time>2010-08-21T12:02:57Z</time>
      </trkpt>
      <trkpt lat="50.9760780" lon="7.3104310">
        <ele>209.2200000</ele>
        <time>2010-08-21T12:02:58Z</time>
      </trkpt>
      <trkpt lat="50.9749100" lon="7.3108530">
        <ele>203.4600000</ele>
        <time>2010-08-21T12:03:05Z</time>
      </trkpt>
      <trkpt lat="50.9747690" lon="7.3109630">
        <ele>202.9800000</ele>
        <time>2010-08-21T12:03:06Z</time>
      </trkpt>
      <trkpt lat="50.9737010" lon="7.3117700">
        <ele>197.2100000</ele>
        <time>2010-08-21T12:03:14Z</time>
      </trkpt>
      <trkpt lat="50.9735890" lon="7.3117890">
        <ele>196.2500000</ele>
        <time>2010-08-21T12:03:15Z</time>
      </trkpt>
      <trkpt lat="50.9734730" lon="7.3117880">
        <ele>195.2800000</ele>
        <time>2010-08-21T12:03:16Z</time>
      </trkpt>
      <trkpt lat="50.9729370" lon="7.3116550">
        <ele>186.6300000</ele>
        <time>2010-08-21T12:03:22Z</time>
      </trkpt>
      <trkpt lat="50.9728570" lon="7.3116070">
        <ele>185.6700000</ele>
        <time>2010-08-21T12:03:23Z</time>
      </trkpt>
      <trkpt lat="50.9727710" lon="7.3115330">
        <ele>184.7100000</ele>
        <time>2010-08-21T12:03:24Z</time>
      </trkpt>
      <trkpt lat="50.9716600" lon="7.3103890">
        <ele>177.5000000</ele>
        <time>2010-08-21T12:03:35Z</time>
      </trkpt>
      <trkpt lat="50.9710520" lon="7.3097490">
        <ele>172.6900000</ele>
        <time>2010-08-21T12:03:42Z</time>
      </trkpt>
      <trkpt lat="50.9704200" lon="7.3091520">
        <ele>164.0400000</ele>
        <time>2010-08-21T12:03:49Z</time>
      </trkpt>
      <trkpt lat="50.9703580" lon="7.3091540">
        <ele>163.0800000</ele>
        <time>2010-08-21T12:03:50Z</time>
      </trkpt>
      <trkpt lat="50.9703230" lon="7.3091550">
        <ele>161.6400000</ele>
        <time>2010-08-21T12:03:51Z</time>
      </trkpt>
      <trkpt lat="50.9703070" lon="7.3091670">
        <ele>160.6800000</ele>
        <time>2010-08-21T12:03:52Z</time>
      </trkpt>
      <trkpt lat="50.9702940" lon="7.3091750">
        <ele>160.6800000</ele>
        <time>2010-08-21T12:03:53Z</time>
      </trkpt>
      <trkpt lat="50.9702820" lon="7.3091830">
        <ele>160.2000000</ele>
        <time>2010-08-21T12:03:54Z</time>
      </trkpt>
      <trkpt lat="50.9702630" lon="7.3092110">
        <ele>158.2700000</ele>
        <time>2010-08-21T12:04:10Z</time>
      </trkpt>
      <trkpt lat="50.9702150" lon="7.3093000">
        <ele>158.2700000</ele>
        <time>2010-08-21T12:04:14Z</time>
      </trkpt>
      <trkpt lat="50.9699570" lon="7.3098290">
        <ele>154.9100000</ele>
        <time>2010-08-21T12:04:19Z</time>
      </trkpt>
      <trkpt lat="50.9698680" lon="7.3099540">
        <ele>154.9100000</ele>
        <time>2010-08-21T12:04:20Z</time>
      </trkpt>
      <trkpt lat="50.9694460" lon="7.3103440">
        <ele>154.4300000</ele>
        <time>2010-08-21T12:04:26Z</time>
      </trkpt>
      <trkpt lat="50.9693620" lon="7.3103790">
        <ele>155.3900000</ele>
        <time>2010-08-21T12:04:27Z</time>
      </trkpt>
      <trkpt lat="50.9689490" lon="7.3105790">
        <ele>158.7500000</ele>
        <time>2010-08-21T12:04:31Z</time>
      </trkpt>
      <trkpt lat="50.9688550" lon="7.3106800">
        <ele>159.7200000</ele>
        <time>2010-08-21T12:04:32Z</time>
      </trkpt>
      <trkpt lat="50.9687700" lon="7.3107950">
        <ele>160.2000000</ele>
        <time>2010-08-21T12:04:33Z</time>
      </trkpt>
      <trkpt lat="50.9683730" lon="7.3113570">
        <ele>162.1200000</ele>
        <time>2010-08-21T12:04:40Z</time>
      </trkpt>
      <trkpt lat="50.9683000" lon="7.3114180">
        <ele>162.6000000</ele>
        <time>2010-08-21T12:04:41Z</time>
      </trkpt>
      <trkpt lat="50.9682250" lon="7.3114670">
        <ele>163.0800000</ele>
        <time>2010-08-21T12:04:42Z</time>
      </trkpt>
      <trkpt lat="50.9681540" lon="7.3115000">
        <ele>163.0800000</ele>
        <time>2010-08-21T12:04:43Z</time>
      </trkpt>
      <trkpt lat="50.9680860" lon="7.3115220">
        <ele>163.5600000</ele>
        <time>2010-08-21T12:04:44Z</time>
      </trkpt>
      <trkpt lat="50.9680190" lon="7.3115400">
        <ele>163.5600000</ele>
        <time>2010-08-21T12:04:45Z</time>
      </trkpt>
      <trkpt lat="50.9672680" lon="7.3119200">
        <ele>163.5600000</ele>
        <time>2010-08-21T12:04:53Z</time>
      </trkpt>
      <trkpt lat="50.9662710" lon="7.3126660">
        <ele>161.6400000</ele>
        <time>2010-08-21T12:05:02Z</time>
      </trkpt>
      <trkpt lat="50.9661790" lon="7.3127980">
        <ele>161.1600000</ele>
        <time>2010-08-21T12:05:03Z</time>
      </trkpt>
      <trkpt lat="50.9660930" lon="7.3129490">
        <ele>160.2000000</ele>
        <time>2010-08-21T12:05:04Z</time>
      </trkpt>
      <trkpt lat="50.9653010" lon="7.3145620">
        <ele>148.1800000</ele>
        <time>2010-08-21T12:05:13Z</time>
      </trkpt>
      <trkpt lat="50.9646070" lon="7.3159700">
        <ele>137.1300000</ele>
        <time>2010-08-21T12:05:23Z</time>
      </trkpt>
      <trkpt lat="50.9645100" lon="7.3161160">
        <ele>135.6800000</ele>
        <time>2010-08-21T12:05:25Z</time>
      </trkpt>
      <trkpt lat="50.9644520" lon="7.3161760">
        <ele>135.2000000</ele>
        <time>2010-08-21T12:05:26Z</time>
      </trkpt>
      <trkpt lat="50.9643890" lon="7.3162380">
        <ele>134.2400000</ele>
        <time>2010-08-21T12:05:27Z</time>
      </trkpt>
      <trkpt lat="50.9643240" lon="7.3163110">
        <ele>133.2800000</ele>
        <time>2010-08-21T12:05:28Z</time>
      </trkpt>
      <trkpt lat="50.9642570" lon="7.3163930">
        <ele>132.8000000</ele>
        <time>2010-08-21T12:05:29Z</time>
      </trkpt>
      <trkpt lat="50.9633660" lon="7.3174440">
        <ele>123.6700000</ele>
        <time>2010-08-21T12:05:40Z</time>
      </trkpt>
      <trkpt lat="50.9623280" lon="7.3184950">
        <ele>114.0500000</ele>
        <time>2010-08-21T12:05:52Z</time>
      </trkpt>
      <trkpt lat="50.9621920" lon="7.3186180">
        <ele>113.0900000</ele>
        <time>2010-08-21T12:05:54Z</time>
      </trkpt>
      <trkpt lat="50.9621200" lon="7.3186550">
        <ele>112.6100000</ele>
        <time>2010-08-21T12:05:55Z</time>
      </trkpt>
      <trkpt lat="50.9620470" lon="7.3186730">
        <ele>112.1300000</ele>
        <time>2010-08-21T12:05:56Z</time>
      </trkpt>
      <trkpt lat="50.9619750" lon="7.3186720">
        <ele>111.6500000</ele>
        <time>2010-08-21T12:05:57Z</time>
      </trkpt>
      <trkpt lat="50.9619070" lon="7.3186540">
        <ele>111.6500000</ele>
        <time>2010-08-21T12:05:58Z</time>
      </trkpt>
      <trkpt lat="50.9618500" lon="7.3186310">
        <ele>111.1700000</ele>
        <time>2010-08-21T12:05:59Z</time>
      </trkpt>
      <trkpt lat="50.9618090" lon="7.3186080">
        <ele>110.6900000</ele>
        <time>2010-08-21T12:06:00Z</time>
      </trkpt>
      <trkpt lat="50.9616860" lon="7.3185560">
        <ele>109.7300000</ele>
        <time>2010-08-21T12:06:10Z</time>
      </trkpt>
      <trkpt lat="50.9616120" lon="7.3185520">
        <ele>109.2500000</ele>
        <time>2010-08-21T12:06:15Z</time>
      </trkpt>
      <trkpt lat="50.9615740" lon="7.3185740">
        <ele>109.2500000</ele>
        <time>2010-08-21T12:06:16Z</time>
      </trkpt>
      <trkpt lat="50.9614270" lon="7.3186910">
        <ele>109.2500000</ele>
        <time>2010-08-21T12:06:20Z</time>
      </trkpt>
      <trkpt lat="50.9613980" lon="7.3187300">
        <ele>108.7700000</ele>
        <time>2010-08-21T12:06:21Z</time>
      </trkpt>
      <trkpt lat="50.9613780" lon="7.3187810">
        <ele>108.7700000</ele>
        <time>2010-08-21T12:06:22Z</time>
      </trkpt>
      <trkpt lat="50.9613650" lon="7.3188570">
        <ele>108.7700000</ele>
        <time>2010-08-21T12:06:23Z</time>
      </trkpt>
      <trkpt lat="50.9613440" lon="7.3189640">
        <ele>108.7700000</ele>
        <time>2010-08-21T12:06:24Z</time>
      </trkpt>
      <trkpt lat="50.9613040" lon="7.3190860">
        <ele>109.2500000</ele>
        <time>2010-08-21T12:06:25Z</time>
      </trkpt>
      <trkpt lat="50.9612470" lon="7.3192120">
        <ele>108.7700000</ele>
        <time>2010-08-21T12:06:26Z</time>
      </trkpt>
      <trkpt lat="50.9611810" lon="7.3193460">
        <ele>108.7700000</ele>
        <time>2010-08-21T12:06:27Z</time>
      </trkpt>
      <trkpt lat="50.9604790" lon="7.3209090">
        <ele>104.9200000</ele>
        <time>2010-08-21T12:06:37Z</time>
      </trkpt>
      <trkpt lat="50.9604250" lon="7.3210900">
        <ele>104.9200000</ele>
        <time>2010-08-21T12:06:38Z</time>
      </trkpt>
      <trkpt lat="50.9603840" lon="7.3212730">
        <ele>104.9200000</ele>
        <time>2010-08-21T12:06:39Z</time>
      </trkpt>
      <trkpt lat="50.9603540" lon="7.3214550">
        <ele>104.9200000</ele>
        <time>2010-08-21T12:06:40Z</time>
      </trkpt>
      <trkpt lat="50.9603350" lon="7.3216340">
        <ele>104.9200000</ele>
        <time>2010-08-21T12:06:41Z</time>
      </trkpt>
      <trkpt lat="50.9603280" lon="7.3218130">
        <ele>105.4000000</ele>
        <time>2010-08-21T12:06:42Z</time>
      </trkpt>
      <trkpt lat="50.9603280" lon="7.3219840">
        <ele>105.4000000</ele>
        <time>2010-08-21T12:06:43Z</time>
      </trkpt>
      <trkpt lat="50.9603340" lon="7.3221450">
        <ele>105.4000000</ele>
        <time>2010-08-21T12:06:44Z</time>
      </trkpt>
      <trkpt lat="50.9603450" lon="7.3222940">
        <ele>105.4000000</ele>
        <time>2010-08-21T12:06:45Z</time>
      </trkpt>
      <trkpt lat="50.9603570" lon="7.3224220">
        <ele>104.9200000</ele>
        <time>2010-08-21T12:06:46Z</time>
      </trkpt>
      <trkpt lat="50.9603750" lon="7.3229450">
        <ele>104.9200000</ele>
        <time>2010-08-21T12:06:53Z</time>
      </trkpt>
      <trkpt lat="50.9603780" lon="7.3231190">
        <ele>104.9200000</ele>
        <time>2010-08-21T12:06:55Z</time>
      </trkpt>
      <trkpt lat="50.9603830" lon="7.3231800">
        <ele>104.9200000</ele>
        <time>2010-08-21T12:06:56Z</time>
      </trkpt>
      <trkpt lat="50.9603890" lon="7.3232010">
        <ele>104.4400000</ele>
        <time>2010-08-21T12:07:05Z</time>
      </trkpt>
      <trkpt lat="50.9603830" lon="7.3235320">
        <ele>104.9200000</ele>
        <time>2010-08-21T12:07:10Z</time>
      </trkpt>
      <trkpt lat="50.9603150" lon="7.3237610">
        <ele>105.8800000</ele>
        <time>2010-08-21T12:07:14Z</time>
      </trkpt>
      <trkpt lat="50.9602710" lon="7.3238300">
        <ele>105.8800000</ele>
        <time>2010-08-21T12:07:15Z</time>
      </trkpt>
      <trkpt lat="50.9602190" lon="7.3239530">
        <ele>105.8800000</ele>
        <time>2010-08-21T12:07:16Z</time>
      </trkpt>
      <trkpt lat="50.9598000" lon="7.3251840">
        <ele>108.2900000</ele>
        <time>2010-08-21T12:07:23Z</time>
      </trkpt>
      <trkpt lat="50.9592790" lon="7.3270360">
        <ele>111.1700000</ele>
        <time>2010-08-21T12:07:31Z</time>
      </trkpt>
      <trkpt lat="50.9591630" lon="7.3272390">
        <ele>111.1700000</ele>
        <time>2010-08-21T12:07:32Z</time>
      </trkpt>
      <trkpt lat="50.9590290" lon="7.3274240">
        <ele>111.6500000</ele>
        <time>2010-08-21T12:07:33Z</time>
      </trkpt>
      <trkpt lat="50.9588770" lon="7.3275880">
        <ele>111.6500000</ele>
        <time>2010-08-21T12:07:34Z</time>
      </trkpt>
      <trkpt lat="50.9587140" lon="7.3277350">
        <ele>111.6500000</ele>
        <time>2010-08-21T12:07:35Z</time>
      </trkpt>
      <trkpt lat="50.9585430" lon="7.3278790">
        <ele>111.6500000</ele>
        <time>2010-08-21T12:07:36Z</time>
      </trkpt>
      <trkpt lat="50.9572380" lon="7.3289630">
        <ele>111.1700000</ele>
        <time>2010-08-21T12:07:44Z</time>
      </trkpt>
      <trkpt lat="50.9561470" lon="7.3302700">
        <ele>113.0900000</ele>
        <time>2010-08-21T12:07:50Z</time>
      </trkpt>
      <trkpt lat="50.9548180" lon="7.3316450">
        <ele>115.5000000</ele>
        <time>2010-08-21T12:07:57Z</time>
      </trkpt>
      <trkpt lat="50.9539250" lon="7.3328890">
        <ele>120.7800000</ele>
        <time>2010-08-21T12:08:04Z</time>
      </trkpt>
      <trkpt lat="50.9538200" lon="7.3329710">
        <ele>120.7800000</ele>
        <time>2010-08-21T12:08:05Z</time>
      </trkpt>
      <trkpt lat="50.9536710" lon="7.3329650">
        <ele>121.2600000</ele>
        <time>2010-08-21T12:08:06Z</time>
      </trkpt>
      <trkpt lat="50.9535130" lon="7.3329240">
        <ele>121.7400000</ele>
        <time>2010-08-21T12:08:07Z</time>
      </trkpt>
      <trkpt lat="50.9533440" lon="7.3328800">
        <ele>122.7100000</ele>
        <time>2010-08-21T12:08:08Z</time>
      </trkpt>
      <trkpt lat="50.9531590" lon="7.3328260">
        <ele>123.6700000</ele>
        <time>2010-08-21T12:08:09Z</time>
      </trkpt>
      <trkpt lat="50.9519630" lon="7.3322710">
        <ele>129.4300000</ele>
        <time>2010-08-21T12:08:17Z</time>
      </trkpt>
      <trkpt lat="50.9518670" lon="7.3321690">
        <ele>130.4000000</ele>
        <time>2010-08-21T12:08:18Z</time>
      </trkpt>
      <trkpt lat="50.9517740" lon="7.3321150">
        <ele>130.4000000</ele>
        <time>2010-08-21T12:08:19Z</time>
      </trkpt>
      <trkpt lat="50.9516650" lon="7.3321490">
        <ele>131.3600000</ele>
        <time>2010-08-21T12:08:20Z</time>
      </trkpt>
      <trkpt lat="50.9515420" lon="7.3322220">
        <ele>133.2800000</ele>
        <time>2010-08-21T12:08:21Z</time>
      </trkpt>
      <trkpt lat="50.9514150" lon="7.3322920">
        <ele>135.2000000</ele>
        <time>2010-08-21T12:08:22Z</time>
      </trkpt>
      <trkpt lat="50.9511730" lon="7.3323610">
        <ele>137.6100000</ele>
        <time>2010-08-21T12:08:24Z</time>
      </trkpt>
      <trkpt lat="50.9510570" lon="7.3323500">
        <ele>138.5700000</ele>
        <time>2010-08-21T12:08:25Z</time>
      </trkpt>
      <trkpt lat="50.9509380" lon="7.3323040">
        <ele>139.5300000</ele>
        <time>2010-08-21T12:08:26Z</time>
      </trkpt>
      <trkpt lat="50.9508090" lon="7.3322050">
        <ele>140.4900000</ele>
        <time>2010-08-21T12:08:27Z</time>
      </trkpt>
      <trkpt lat="50.9506680" lon="7.3320580">
        <ele>141.9300000</ele>
        <time>2010-08-21T12:08:28Z</time>
      </trkpt>
      <trkpt lat="50.9505230" lon="7.3318810">
        <ele>143.8500000</ele>
        <time>2010-08-21T12:08:29Z</time>
      </trkpt>
      <trkpt lat="50.9503980" lon="7.3316880">
        <ele>145.3000000</ele>
        <time>2010-08-21T12:08:30Z</time>
      </trkpt>
      <trkpt lat="50.9503030" lon="7.3314930">
        <ele>146.7400000</ele>
        <time>2010-08-21T12:08:31Z</time>
      </trkpt>
      <trkpt lat="50.9502360" lon="7.3312920">
        <ele>148.1800000</ele>
        <time>2010-08-21T12:08:32Z</time>
      </trkpt>
      <trkpt lat="50.9501840" lon="7.3310520">
        <ele>148.1800000</ele>
        <time>2010-08-21T12:08:33Z</time>
      </trkpt>
      <trkpt lat="50.9501250" lon="7.3307850">
        <ele>148.6600000</ele>
        <time>2010-08-21T12:08:34Z</time>
      </trkpt>
      <trkpt lat="50.9499600" lon="7.3302850">
        <ele>152.5100000</ele>
        <time>2010-08-21T12:08:36Z</time>
      </trkpt>
      <trkpt lat="50.9498560" lon="7.3300640">
        <ele>154.4300000</ele>
        <time>2010-08-21T12:08:37Z</time>
      </trkpt>
      <trkpt lat="50.9497360" lon="7.3298670">
        <ele>156.3500000</ele>
        <time>2010-08-21T12:08:38Z</time>
      </trkpt>
      <trkpt lat="50.9495910" lon="7.3296890">
        <ele>158.7500000</ele>
        <time>2010-08-21T12:08:39Z</time>
      </trkpt>
      <trkpt lat="50.9494160" lon="7.3295140">
        <ele>161.1600000</ele>
        <time>2010-08-21T12:08:40Z</time>
      </trkpt>
      <trkpt lat="50.9492150" lon="7.3293330">
        <ele>163.5600000</ele>
        <time>2010-08-21T12:08:41Z</time>
      </trkpt>
      <trkpt lat="50.9478530" lon="7.3284750">
        <ele>178.9400000</ele>
        <time>2010-08-21T12:08:47Z</time>
      </trkpt>
      <trkpt lat="50.9470210" lon="7.3281180">
        <ele>188.5600000</ele>
        <time>2010-08-21T12:08:52Z</time>
      </trkpt>
      <trkpt lat="50.9468910" lon="7.3280050">
        <ele>190.0000000</ele>
        <time>2010-08-21T12:08:53Z</time>
      </trkpt>
      <trkpt lat="50.9467560" lon="7.3278550">
        <ele>191.9200000</ele>
        <time>2010-08-21T12:08:54Z</time>
      </trkpt>
      <trkpt lat="50.9457500" lon="7.3268370">
        <ele>199.1300000</ele>
        <time>2010-08-21T12:09:00Z</time>
      </trkpt>
      <trkpt lat="50.9453380" lon="7.3265470">
        <ele>202.0100000</ele>
        <time>2010-08-21T12:09:03Z</time>
      </trkpt>
      <trkpt lat="50.9452510" lon="7.3264140">
        <ele>202.9800000</ele>
        <time>2010-08-21T12:09:04Z</time>
      </trkpt>
      <trkpt lat="50.9451890" lon="7.3262310">
        <ele>203.9400000</ele>
        <time>2010-08-21T12:09:05Z</time>
      </trkpt>
      <trkpt lat="50.9451310" lon="7.3260100">
        <ele>204.9000000</ele>
        <time>2010-08-21T12:09:06Z</time>
      </trkpt>
      <trkpt lat="50.9450640" lon="7.3257720">
        <ele>205.8600000</ele>
        <time>2010-08-21T12:09:07Z</time>
      </trkpt>
      <trkpt lat="50.9449840" lon="7.3255420">
        <ele>207.3000000</ele>
        <time>2010-08-21T12:09:08Z</time>
      </trkpt>
      <trkpt lat="50.9449020" lon="7.3253340">
        <ele>208.7400000</ele>
        <time>2010-08-21T12:09:09Z</time>
      </trkpt>
      <trkpt lat="50.9446780" lon="7.3249280">
        <ele>211.6300000</ele>
        <time>2010-08-21T12:09:12Z</time>
      </trkpt>
      <trkpt lat="50.9445960" lon="7.3249250">
        <ele>212.5900000</ele>
        <time>2010-08-21T12:09:13Z</time>
      </trkpt>
      <trkpt lat="50.9445010" lon="7.3249810">
        <ele>213.0700000</ele>
        <time>2010-08-21T12:09:14Z</time>
      </trkpt>
      <trkpt lat="50.9443970" lon="7.3250920">
        <ele>214.0300000</ele>
        <time>2010-08-21T12:09:15Z</time>
      </trkpt>
      <trkpt lat="50.9442880" lon="7.3252230">
        <ele>214.9900000</ele>
        <time>2010-08-21T12:09:16Z</time>
      </trkpt>
      <trkpt lat="50.9441840" lon="7.3253580">
        <ele>215.4700000</ele>
        <time>2010-08-21T12:09:17Z</time>
      </trkpt>
      <trkpt lat="50.9437580" lon="7.3259430">
        <ele>220.2800000</ele>
        <time>2010-08-21T12:09:23Z</time>
      </trkpt>
      <trkpt lat="50.9437270" lon="7.3259700">
        <ele>220.7600000</ele>
        <time>2010-08-21T12:09:24Z</time>
      </trkpt>
      <trkpt lat="50.9437170" lon="7.3259740">
        <ele>221.2400000</ele>
        <time>2010-08-21T12:09:25Z</time>
      </trkpt>
      <trkpt lat="50.9437590" lon="7.3259360">
        <ele>220.2800000</ele>
        <time>2010-08-21T12:09:41Z</time>
      </trkpt>
      <trkpt lat="50.9437650" lon="7.3259470">
        <ele>219.8000000</ele>
        <time>2010-08-21T12:09:55Z</time>
      </trkpt>
      <trkpt lat="50.9437960" lon="7.3259280">
        <ele>224.1200000</ele>
        <time>2010-08-21T12:13:41Z</time>
      </trkpt>
      <trkpt lat="50.9437730" lon="7.3259590">
        <ele>219.3200000</ele>
        <time>2010-08-21T12:43:28Z</time>
      </trkpt>
      <trkpt lat="50.9437840" lon="7.3259550">
        <ele>220.7600000</ele>
        <time>2010-08-21T12:45:28Z</time>
      </trkpt>
      <trkpt lat="50.9438110" lon="7.3259340">
        <ele>221.7200000</ele>
        <time>2010-08-21T12:48:53Z</time>
      </trkpt>
      <trkpt lat="50.9437770" lon="7.3259530">
        <ele>216.4300000</ele>
        <time>2010-08-21T12:51:28Z</time>
      </trkpt>
      <trkpt lat="50.9437830" lon="7.3265100">
        <ele>217.8800000</ele>
        <time>2010-08-21T12:51:35Z</time>
      </trkpt>
      <trkpt lat="50.9437750" lon="7.3276830">
        <ele>223.1600000</ele>
        <time>2010-08-21T12:51:41Z</time>
      </trkpt>
      <trkpt lat="50.9436300" lon="7.3298700">
        <ele>231.3300000</ele>
        <time>2010-08-21T12:51:50Z</time>
      </trkpt>
      <trkpt lat="50.9434750" lon="7.3313030">
        <ele>232.7800000</ele>
        <time>2010-08-21T12:51:55Z</time>
      </trkpt>
      <trkpt lat="50.9434480" lon="7.3327240">
        <ele>234.2200000</ele>
        <time>2010-08-21T12:52:00Z</time>
      </trkpt>
      <trkpt lat="50.9434120" lon="7.3330010">
        <ele>234.2200000</ele>
        <time>2010-08-21T12:52:01Z</time>
      </trkpt>
      <trkpt lat="50.9428870" lon="7.3352410">
        <ele>232.7800000</ele>
        <time>2010-08-21T12:52:09Z</time>
      </trkpt>
      <trkpt lat="50.9426860" lon="7.3375050">
        <ele>233.7400000</ele>
        <time>2010-08-21T12:52:17Z</time>
      </trkpt>
      <trkpt lat="50.9427430" lon="7.3400400">
        <ele>241.4300000</ele>
        <time>2010-08-21T12:52:26Z</time>
      </trkpt>
      <trkpt lat="50.9427180" lon="7.3402880">
        <ele>242.3900000</ele>
        <time>2010-08-21T12:52:27Z</time>
      </trkpt>
      <trkpt lat="50.9424530" lon="7.3415840">
        <ele>247.2000000</ele>
        <time>2010-08-21T12:52:33Z</time>
      </trkpt>
      <trkpt lat="50.9423890" lon="7.3417370">
        <ele>248.1600000</ele>
        <time>2010-08-21T12:52:34Z</time>
      </trkpt>
      <trkpt lat="50.9423070" lon="7.3418870">
        <ele>249.1200000</ele>
        <time>2010-08-21T12:52:35Z</time>
      </trkpt>
      <trkpt lat="50.9422080" lon="7.3420310">
        <ele>249.6000000</ele>
        <time>2010-08-21T12:52:36Z</time>
      </trkpt>
      <trkpt lat="50.9421020" lon="7.3421760">
        <ele>250.5600000</ele>
        <time>2010-08-21T12:52:37Z</time>
      </trkpt>
      <trkpt lat="50.9419990" lon="7.3423340">
        <ele>251.5200000</ele>
        <time>2010-08-21T12:52:38Z</time>
      </trkpt>
      <trkpt lat="50.9419050" lon="7.3425070">
        <ele>252.0000000</ele>
        <time>2010-08-21T12:52:39Z</time>
      </trkpt>
      <trkpt lat="50.9415370" lon="7.3431920">
        <ele>254.4100000</ele>
        <time>2010-08-21T12:52:43Z</time>
      </trkpt>
      <trkpt lat="50.9413560" lon="7.3434650">
        <ele>255.3700000</ele>
        <time>2010-08-21T12:52:45Z</time>
      </trkpt>
      <trkpt lat="50.9412890" lon="7.3436560">
        <ele>255.3700000</ele>
        <time>2010-08-21T12:52:46Z</time>
      </trkpt>
      <trkpt lat="50.9409110" lon="7.3454410">
        <ele>256.3300000</ele>
        <time>2010-08-21T12:52:53Z</time>
      </trkpt>
      <trkpt lat="50.9407800" lon="7.3458590">
        <ele>255.8500000</ele>
        <time>2010-08-21T12:52:55Z</time>
      </trkpt>
      <trkpt lat="50.9406950" lon="7.3460410">
        <ele>255.3700000</ele>
        <time>2010-08-21T12:52:56Z</time>
      </trkpt>
      <trkpt lat="50.9405940" lon="7.3461980">
        <ele>255.8500000</ele>
        <time>2010-08-21T12:52:57Z</time>
      </trkpt>
      <trkpt lat="50.9398030" lon="7.3475730">
        <ele>263.0600000</ele>
        <time>2010-08-21T12:53:06Z</time>
      </trkpt>
      <trkpt lat="50.9396350" lon="7.3479580">
        <ele>264.0200000</ele>
        <time>2010-08-21T12:53:10Z</time>
      </trkpt>
      <trkpt lat="50.9396060" lon="7.3479900">
        <ele>264.0200000</ele>
        <time>2010-08-21T12:53:11Z</time>
      </trkpt>
      <trkpt lat="50.9395320" lon="7.3480700">
        <ele>264.0200000</ele>
        <time>2010-08-21T12:53:14Z</time>
      </trkpt>
      <trkpt lat="50.9395170" lon="7.3481300">
        <ele>264.0200000</ele>
        <time>2010-08-21T12:53:15Z</time>
      </trkpt>
      <trkpt lat="50.9395170" lon="7.3482130">
        <ele>264.5000000</ele>
        <time>2010-08-21T12:53:16Z</time>
      </trkpt>
      <trkpt lat="50.9394910" lon="7.3491560">
        <ele>265.9400000</ele>
        <time>2010-08-21T12:53:22Z</time>
      </trkpt>
      <trkpt lat="50.9392320" lon="7.3515040">
        <ele>271.7100000</ele>
        <time>2010-08-21T12:53:32Z</time>
      </trkpt>
      <trkpt lat="50.9390340" lon="7.3538850">
        <ele>267.8600000</ele>
        <time>2010-08-21T12:53:42Z</time>
      </trkpt>
      <trkpt lat="50.9390830" lon="7.3545410">
        <ele>265.9400000</ele>
        <time>2010-08-21T12:53:45Z</time>
      </trkpt>
      <trkpt lat="50.9391220" lon="7.3547370">
        <ele>264.9800000</ele>
        <time>2010-08-21T12:53:46Z</time>
      </trkpt>
      <trkpt lat="50.9394580" lon="7.3560940">
        <ele>263.5400000</ele>
        <time>2010-08-21T12:53:55Z</time>
      </trkpt>
      <trkpt lat="50.9394600" lon="7.3562220">
        <ele>263.0600000</ele>
        <time>2010-08-21T12:53:56Z</time>
      </trkpt>
      <trkpt lat="50.9394440" lon="7.3563600">
        <ele>263.0600000</ele>
        <time>2010-08-21T12:53:57Z</time>
      </trkpt>
      <trkpt lat="50.9394100" lon="7.3565170">
        <ele>262.5800000</ele>
        <time>2010-08-21T12:53:58Z</time>
      </trkpt>
      <trkpt lat="50.9393650" lon="7.3566960">
        <ele>262.5800000</ele>
        <time>2010-08-21T12:53:59Z</time>
      </trkpt>
      <trkpt lat="50.9388720" lon="7.3585680">
        <ele>258.2500000</ele>
        <time>2010-08-21T12:54:07Z</time>
      </trkpt>
      <trkpt lat="50.9380360" lon="7.3608950">
        <ele>259.2100000</ele>
        <time>2010-08-21T12:54:16Z</time>
      </trkpt>
      <trkpt lat="50.9375120" lon="7.3629480">
        <ele>252.4800000</ele>
        <time>2010-08-21T12:54:24Z</time>
      </trkpt>
      <trkpt lat="50.9370970" lon="7.3647170">
        <ele>241.9100000</ele>
        <time>2010-08-21T12:54:31Z</time>
      </trkpt>
      <trkpt lat="50.9370020" lon="7.3648940">
        <ele>239.9900000</ele>
        <time>2010-08-21T12:54:32Z</time>
      </trkpt>
      <trkpt lat="50.9368740" lon="7.3650670">
        <ele>238.0600000</ele>
        <time>2010-08-21T12:54:33Z</time>
      </trkpt>
      <trkpt lat="50.9367310" lon="7.3652510">
        <ele>236.6200000</ele>
        <time>2010-08-21T12:54:34Z</time>
      </trkpt>
      <trkpt lat="50.9365860" lon="7.3654380">
        <ele>234.2200000</ele>
        <time>2010-08-21T12:54:35Z</time>
      </trkpt>
      <trkpt lat="50.9355120" lon="7.3669980">
        <ele>226.5300000</ele>
        <time>2010-08-21T12:54:43Z</time>
      </trkpt>
      <trkpt lat="50.9354200" lon="7.3672270">
        <ele>227.0100000</ele>
        <time>2010-08-21T12:54:44Z</time>
      </trkpt>
      <trkpt lat="50.9348480" lon="7.3690440">
        <ele>231.3300000</ele>
        <time>2010-08-21T12:54:50Z</time>
      </trkpt>
      <trkpt lat="50.9336430" lon="7.3728680">
        <ele>234.7000000</ele>
        <time>2010-08-21T12:55:01Z</time>
      </trkpt>
      <trkpt lat="50.9329050" lon="7.3749550">
        <ele>243.3500000</ele>
        <time>2010-08-21T12:55:08Z</time>
      </trkpt>
      <trkpt lat="50.9328310" lon="7.3752390">
        <ele>244.3100000</ele>
        <time>2010-08-21T12:55:09Z</time>
      </trkpt>
      <trkpt lat="50.9327800" lon="7.3755470">
        <ele>245.7500000</ele>
        <time>2010-08-21T12:55:10Z</time>
      </trkpt>
      <trkpt lat="50.9327440" lon="7.3758690">
        <ele>247.2000000</ele>
        <time>2010-08-21T12:55:11Z</time>
      </trkpt>
      <trkpt lat="50.9327140" lon="7.3762000">
        <ele>248.1600000</ele>
        <time>2010-08-21T12:55:12Z</time>
      </trkpt>
      <trkpt lat="50.9324870" lon="7.3779980">
        <ele>256.3300000</ele>
        <time>2010-08-21T12:55:18Z</time>
      </trkpt>
      <trkpt lat="50.9323860" lon="7.3782050">
        <ele>257.7700000</ele>
        <time>2010-08-21T12:55:19Z</time>
      </trkpt>
      <trkpt lat="50.9314390" lon="7.3799390">
        <ele>267.8600000</ele>
        <time>2010-08-21T12:55:26Z</time>
      </trkpt>
      <trkpt lat="50.9302930" lon="7.3819890">
        <ele>280.3600000</ele>
        <time>2010-08-21T12:55:35Z</time>
      </trkpt>
      <trkpt lat="50.9301230" lon="7.3822710">
        <ele>281.8000000</ele>
        <time>2010-08-21T12:55:37Z</time>
      </trkpt>
      <trkpt lat="50.9300390" lon="7.3823650">
        <ele>282.7700000</ele>
        <time>2010-08-21T12:55:38Z</time>
      </trkpt>
      <trkpt lat="50.9299550" lon="7.3824240">
        <ele>283.2500000</ele>
        <time>2010-08-21T12:55:39Z</time>
      </trkpt>
      <trkpt lat="50.9298810" lon="7.3824660">
        <ele>283.7300000</ele>
        <time>2010-08-21T12:55:40Z</time>
      </trkpt>
      <trkpt lat="50.9298340" lon="7.3824930">
        <ele>284.6900000</ele>
        <time>2010-08-21T12:55:41Z</time>
      </trkpt>
      <trkpt lat="50.9298040" lon="7.3825660">
        <ele>285.6500000</ele>
        <time>2010-08-21T12:55:42Z</time>
      </trkpt>
      <trkpt lat="50.9297650" lon="7.3826920">
        <ele>286.1300000</ele>
        <time>2010-08-21T12:55:43Z</time>
      </trkpt>
      <trkpt lat="50.9297170" lon="7.3828570">
        <ele>287.0900000</ele>
        <time>2010-08-21T12:55:44Z</time>
      </trkpt>
      <trkpt lat="50.9296680" lon="7.3830620">
        <ele>288.0500000</ele>
        <time>2010-08-21T12:55:45Z</time>
      </trkpt>
      <trkpt lat="50.9296150" lon="7.3832880">
        <ele>289.0100000</ele>
        <time>2010-08-21T12:55:46Z</time>
      </trkpt>
      <trkpt lat="50.9295720" lon="7.3838860">
        <ele>289.4900000</ele>
        <time>2010-08-21T12:55:48Z</time>
      </trkpt>
      <trkpt lat="50.9296070" lon="7.3858550">
        <ele>287.5700000</ele>
        <time>2010-08-21T12:55:55Z</time>
      </trkpt>
      <trkpt lat="50.9296480" lon="7.3861300">
        <ele>287.5700000</ele>
        <time>2010-08-21T12:55:56Z</time>
      </trkpt>
      <trkpt lat="50.9297150" lon="7.3863850">
        <ele>287.0900000</ele>
        <time>2010-08-21T12:55:57Z</time>
      </trkpt>
      <trkpt lat="50.9298070" lon="7.3866260">
        <ele>286.6100000</ele>
        <time>2010-08-21T12:55:58Z</time>
      </trkpt>
      <trkpt lat="50.9299080" lon="7.3868520">
        <ele>286.6100000</ele>
        <time>2010-08-21T12:55:59Z</time>
      </trkpt>
      <trkpt lat="50.9300140" lon="7.3870730">
        <ele>286.1300000</ele>
        <time>2010-08-21T12:56:00Z</time>
      </trkpt>
      <trkpt lat="50.9307000" lon="7.3887340">
        <ele>284.6900000</ele>
        <time>2010-08-21T12:56:08Z</time>
      </trkpt>
      <trkpt lat="50.9310190" lon="7.3907580">
        <ele>286.1300000</ele>
        <time>2010-08-21T12:56:17Z</time>
      </trkpt>
      <trkpt lat="50.9313830" lon="7.3923540">
        <ele>286.1300000</ele>
        <time>2010-08-21T12:56:24Z</time>
      </trkpt>
      <trkpt lat="50.9315840" lon="7.3939150">
        <ele>283.2500000</ele>
        <time>2010-08-21T12:56:31Z</time>
      </trkpt>
      <trkpt lat="50.9313320" lon="7.3954150">
        <ele>280.8400000</ele>
        <time>2010-08-21T12:56:38Z</time>
      </trkpt>
      <trkpt lat="50.9312580" lon="7.3955910">
        <ele>280.8400000</ele>
        <time>2010-08-21T12:56:39Z</time>
      </trkpt>
      <trkpt lat="50.9311610" lon="7.3957410">
        <ele>280.3600000</ele>
        <time>2010-08-21T12:56:40Z</time>
      </trkpt>
      <trkpt lat="50.9310480" lon="7.3958720">
        <ele>279.8800000</ele>
        <time>2010-08-21T12:56:41Z</time>
      </trkpt>
      <trkpt lat="50.9309220" lon="7.3959850">
        <ele>279.4000000</ele>
        <time>2010-08-21T12:56:42Z</time>
      </trkpt>
      <trkpt lat="50.9307840" lon="7.3960810">
        <ele>278.9200000</ele>
        <time>2010-08-21T12:56:43Z</time>
      </trkpt>
      <trkpt lat="50.9306390" lon="7.3961860">
        <ele>278.4400000</ele>
        <time>2010-08-21T12:56:44Z</time>
      </trkpt>
      <trkpt lat="50.9304940" lon="7.3963130">
        <ele>277.9600000</ele>
        <time>2010-08-21T12:56:45Z</time>
      </trkpt>
      <trkpt lat="50.9303550" lon="7.3964620">
        <ele>277.0000000</ele>
        <time>2010-08-21T12:56:46Z</time>
      </trkpt>
      <trkpt lat="50.9302270" lon="7.3966270">
        <ele>276.5200000</ele>
        <time>2010-08-21T12:56:47Z</time>
      </trkpt>
      <trkpt lat="50.9301130" lon="7.3968080">
        <ele>275.5600000</ele>
        <time>2010-08-21T12:56:48Z</time>
      </trkpt>
      <trkpt lat="50.9300100" lon="7.3970080">
        <ele>274.5900000</ele>
        <time>2010-08-21T12:56:49Z</time>
      </trkpt>
      <trkpt lat="50.9299190" lon="7.3972310">
        <ele>273.6300000</ele>
        <time>2010-08-21T12:56:50Z</time>
      </trkpt>
      <trkpt lat="50.9298420" lon="7.3974750">
        <ele>273.1500000</ele>
        <time>2010-08-21T12:56:51Z</time>
      </trkpt>
      <trkpt lat="50.9297790" lon="7.3977310">
        <ele>271.7100000</ele>
        <time>2010-08-21T12:56:52Z</time>
      </trkpt>
      <trkpt lat="50.9297300" lon="7.3979950">
        <ele>270.7500000</ele>
        <time>2010-08-21T12:56:53Z</time>
      </trkpt>
      <trkpt lat="50.9296910" lon="7.3982650">
        <ele>269.3100000</ele>
        <time>2010-08-21T12:56:54Z</time>
      </trkpt>
      <trkpt lat="50.9294980" lon="7.3993650">
        <ele>265.4600000</ele>
        <time>2010-08-21T12:56:58Z</time>
      </trkpt>
      <trkpt lat="50.9294130" lon="7.3996270">
        <ele>264.5000000</ele>
        <time>2010-08-21T12:56:59Z</time>
      </trkpt>
      <trkpt lat="50.9293090" lon="7.3998790">
        <ele>263.0600000</ele>
        <time>2010-08-21T12:57:00Z</time>
      </trkpt>
      <trkpt lat="50.9291880" lon="7.4001220">
        <ele>262.1000000</ele>
        <time>2010-08-21T12:57:01Z</time>
      </trkpt>
      <trkpt lat="50.9290600" lon="7.4003610">
        <ele>260.6500000</ele>
        <time>2010-08-21T12:57:02Z</time>
      </trkpt>
      <trkpt lat="50.9283240" lon="7.4022940">
        <ele>251.5200000</ele>
        <time>2010-08-21T12:57:09Z</time>
      </trkpt>
      <trkpt lat="50.9280950" lon="7.4035650">
        <ele>245.7500000</ele>
        <time>2010-08-21T12:57:13Z</time>
      </trkpt>
      <trkpt lat="50.9280130" lon="7.4038600">
        <ele>244.3100000</ele>
        <time>2010-08-21T12:57:14Z</time>
      </trkpt>
      <trkpt lat="50.9279170" lon="7.4041310">
        <ele>242.3900000</ele>
        <time>2010-08-21T12:57:15Z</time>
      </trkpt>
      <trkpt lat="50.9277930" lon="7.4043800">
        <ele>240.9500000</ele>
        <time>2010-08-21T12:57:16Z</time>
      </trkpt>
      <trkpt lat="50.9276520" lon="7.4046130">
        <ele>239.9900000</ele>
        <time>2010-08-21T12:57:17Z</time>
      </trkpt>
      <trkpt lat="50.9274940" lon="7.4048270">
        <ele>239.0200000</ele>
        <time>2010-08-21T12:57:18Z</time>
      </trkpt>
      <trkpt lat="50.9273240" lon="7.4050090">
        <ele>238.0600000</ele>
        <time>2010-08-21T12:57:19Z</time>
      </trkpt>
      <trkpt lat="50.9271460" lon="7.4051560">
        <ele>237.1000000</ele>
        <time>2010-08-21T12:57:20Z</time>
      </trkpt>
      <trkpt lat="50.9269710" lon="7.4052640">
        <ele>236.6200000</ele>
        <time>2010-08-21T12:57:21Z</time>
      </trkpt>
      <trkpt lat="50.9267980" lon="7.4053620">
        <ele>237.1000000</ele>
        <time>2010-08-21T12:57:22Z</time>
      </trkpt>
      <trkpt lat="50.9260560" lon="7.4059290">
        <ele>236.6200000</ele>
        <time>2010-08-21T12:57:28Z</time>
      </trkpt>
      <trkpt lat="50.9248770" lon="7.4068590">
        <ele>234.2200000</ele>
        <time>2010-08-21T12:57:39Z</time>
      </trkpt>
      <trkpt lat="50.9235140" lon="7.4070360">
        <ele>229.8900000</ele>
        <time>2010-08-21T12:57:49Z</time>
      </trkpt>
      <trkpt lat="50.9220190" lon="7.4068400">
        <ele>226.0500000</ele>
        <time>2010-08-21T12:57:58Z</time>
      </trkpt>
      <trkpt lat="50.9207210" lon="7.4067340">
        <ele>225.5700000</ele>
        <time>2010-08-21T12:58:05Z</time>
      </trkpt>
      <trkpt lat="50.9193670" lon="7.4068330">
        <ele>227.9700000</ele>
        <time>2010-08-21T12:58:12Z</time>
      </trkpt>
      <trkpt lat="50.9191810" lon="7.4067570">
        <ele>228.4500000</ele>
        <time>2010-08-21T12:58:13Z</time>
      </trkpt>
      <trkpt lat="50.9189880" lon="7.4066160">
        <ele>228.9300000</ele>
        <time>2010-08-21T12:58:14Z</time>
      </trkpt>
      <trkpt lat="50.9188060" lon="7.4064780">
        <ele>228.9300000</ele>
        <time>2010-08-21T12:58:15Z</time>
      </trkpt>
      <trkpt lat="50.9186230" lon="7.4063290">
        <ele>229.4100000</ele>
        <time>2010-08-21T12:58:16Z</time>
      </trkpt>
      <trkpt lat="50.9184440" lon="7.4061310">
        <ele>229.4100000</ele>
        <time>2010-08-21T12:58:17Z</time>
      </trkpt>
      <trkpt lat="50.9182680" lon="7.4059130">
        <ele>229.8900000</ele>
        <time>2010-08-21T12:58:18Z</time>
      </trkpt>
      <trkpt lat="50.9180950" lon="7.4056710">
        <ele>229.4100000</ele>
        <time>2010-08-21T12:58:19Z</time>
      </trkpt>
      <trkpt lat="50.9166370" lon="7.4041500">
        <ele>220.7600000</ele>
        <time>2010-08-21T12:58:27Z</time>
      </trkpt>
      <trkpt lat="50.9150270" lon="7.4029920">
        <ele>212.5900000</ele>
        <time>2010-08-21T12:58:35Z</time>
      </trkpt>
      <trkpt lat="50.9148280" lon="7.4029310">
        <ele>212.1100000</ele>
        <time>2010-08-21T12:58:36Z</time>
      </trkpt>
      <trkpt lat="50.9146300" lon="7.4029100">
        <ele>212.1100000</ele>
        <time>2010-08-21T12:58:37Z</time>
      </trkpt>
      <trkpt lat="50.9144210" lon="7.4029690">
        <ele>212.1100000</ele>
        <time>2010-08-21T12:58:38Z</time>
      </trkpt>
      <trkpt lat="50.9142230" lon="7.4030080">
        <ele>211.1500000</ele>
        <time>2010-08-21T12:58:39Z</time>
      </trkpt>
      <trkpt lat="50.9140370" lon="7.4030650">
        <ele>210.6700000</ele>
        <time>2010-08-21T12:58:40Z</time>
      </trkpt>
      <trkpt lat="50.9138670" lon="7.4031830">
        <ele>209.7000000</ele>
        <time>2010-08-21T12:58:41Z</time>
      </trkpt>
      <trkpt lat="50.9137070" lon="7.4032890">
        <ele>209.2200000</ele>
        <time>2010-08-21T12:58:42Z</time>
      </trkpt>
      <trkpt lat="50.9135540" lon="7.4034040">
        <ele>208.2600000</ele>
        <time>2010-08-21T12:58:43Z</time>
      </trkpt>
      <trkpt lat="50.9133990" lon="7.4035280">
        <ele>207.7800000</ele>
        <time>2010-08-21T12:58:44Z</time>
      </trkpt>
      <trkpt lat="50.9118100" lon="7.4047990">
        <ele>205.8600000</ele>
        <time>2010-08-21T12:58:54Z</time>
      </trkpt>
      <trkpt lat="50.9101370" lon="7.4055460">
        <ele>203.9400000</ele>
        <time>2010-08-21T12:59:04Z</time>
      </trkpt>
      <trkpt lat="50.9090860" lon="7.4067120">
        <ele>202.0100000</ele>
        <time>2010-08-21T12:59:12Z</time>
      </trkpt>
      <trkpt lat="50.9082720" lon="7.4081580">
        <ele>199.1300000</ele>
        <time>2010-08-21T12:59:20Z</time>
      </trkpt>
      <trkpt lat="50.9069790" lon="7.4097450">
        <ele>196.7300000</ele>
        <time>2010-08-21T12:59:29Z</time>
      </trkpt>
      <trkpt lat="50.9057590" lon="7.4109720">
        <ele>196.7300000</ele>
        <time>2010-08-21T12:59:39Z</time>
      </trkpt>
      <trkpt lat="50.9055620" lon="7.4111330">
        <ele>198.1700000</ele>
        <time>2010-08-21T12:59:44Z</time>
      </trkpt>
      <trkpt lat="50.9054490" lon="7.4111690">
        <ele>198.1700000</ele>
        <time>2010-08-21T12:59:52Z</time>
      </trkpt>
      <trkpt lat="50.9053440" lon="7.4111850">
        <ele>198.1700000</ele>
        <time>2010-08-21T12:59:54Z</time>
      </trkpt>
      <trkpt lat="50.9052910" lon="7.4112230">
        <ele>197.6900000</ele>
        <time>2010-08-21T12:59:55Z</time>
      </trkpt>
      <trkpt lat="50.9052300" lon="7.4112680">
        <ele>197.6900000</ele>
        <time>2010-08-21T12:59:56Z</time>
      </trkpt>
      <trkpt lat="50.9051670" lon="7.4112800">
        <ele>196.2500000</ele>
        <time>2010-08-21T12:59:57Z</time>
      </trkpt>
      <trkpt lat="50.9050960" lon="7.4112780">
        <ele>196.2500000</ele>
        <time>2010-08-21T12:59:58Z</time>
      </trkpt>
      <trkpt lat="50.9050310" lon="7.4112790">
        <ele>196.2500000</ele>
        <time>2010-08-21T12:59:59Z</time>
      </trkpt>
      <trkpt lat="50.9049820" lon="7.4113020">
        <ele>195.7700000</ele>
        <time>2010-08-21T13:00:00Z</time>
      </trkpt>
      <trkpt lat="50.9049540" lon="7.4113520">
        <ele>195.7700000</ele>
        <time>2010-08-21T13:00:01Z</time>
      </trkpt>
      <trkpt lat="50.9049400" lon="7.4114170">
        <ele>195.7700000</ele>
        <time>2010-08-21T13:00:02Z</time>
      </trkpt>
      <trkpt lat="50.9049360" lon="7.4115010">
        <ele>196.2500000</ele>
        <time>2010-08-21T13:00:03Z</time>
      </trkpt>
      <trkpt lat="50.9049250" lon="7.4116010">
        <ele>196.2500000</ele>
        <time>2010-08-21T13:00:04Z</time>
      </trkpt>
      <trkpt lat="50.9048990" lon="7.4117130">
        <ele>196.2500000</ele>
        <time>2010-08-21T13:00:05Z</time>
      </trkpt>
      <trkpt lat="50.9048550" lon="7.4118220">
        <ele>196.2500000</ele>
        <time>2010-08-21T13:00:06Z</time>
      </trkpt>
      <trkpt lat="50.9047940" lon="7.4119240">
        <ele>196.2500000</ele>
        <time>2010-08-21T13:00:07Z</time>
      </trkpt>
      <trkpt lat="50.9047170" lon="7.4120150">
        <ele>196.2500000</ele>
        <time>2010-08-21T13:00:08Z</time>
      </trkpt>
      <trkpt lat="50.9046240" lon="7.4120930">
        <ele>196.2500000</ele>
        <time>2010-08-21T13:00:09Z</time>
      </trkpt>
      <trkpt lat="50.9045200" lon="7.4121620">
        <ele>196.7300000</ele>
        <time>2010-08-21T13:00:10Z</time>
      </trkpt>
      <trkpt lat="50.9036480" lon="7.4126080">
        <ele>197.6900000</ele>
        <time>2010-08-21T13:00:18Z</time>
      </trkpt>
      <trkpt lat="50.9033820" lon="7.4124940">
        <ele>197.2100000</ele>
        <time>2010-08-21T13:00:20Z</time>
      </trkpt>
      <trkpt lat="50.9032470" lon="7.4124160">
        <ele>198.1700000</ele>
        <time>2010-08-21T13:00:21Z</time>
      </trkpt>
      <trkpt lat="50.9031050" lon="7.4123230">
        <ele>198.1700000</ele>
        <time>2010-08-21T13:00:22Z</time>
      </trkpt>
      <trkpt lat="50.9029710" lon="7.4122220">
        <ele>197.6900000</ele>
        <time>2010-08-21T13:00:23Z</time>
      </trkpt>
      <trkpt lat="50.9028440" lon="7.4120650">
        <ele>198.1700000</ele>
        <time>2010-08-21T13:00:24Z</time>
      </trkpt>
      <trkpt lat="50.9027300" lon="7.4118430">
        <ele>198.1700000</ele>
        <time>2010-08-21T13:00:25Z</time>
      </trkpt>
      <trkpt lat="50.9026130" lon="7.4116200">
        <ele>198.1700000</ele>
        <time>2010-08-21T13:00:26Z</time>
      </trkpt>
      <trkpt lat="50.9024970" lon="7.4113890">
        <ele>198.6500000</ele>
        <time>2010-08-21T13:00:27Z</time>
      </trkpt>
      <trkpt lat="50.9023880" lon="7.4111240">
        <ele>197.6900000</ele>
        <time>2010-08-21T13:00:28Z</time>
      </trkpt>
      <trkpt lat="50.9022830" lon="7.4108600">
        <ele>198.1700000</ele>
        <time>2010-08-21T13:00:29Z</time>
      </trkpt>
      <trkpt lat="50.9016010" lon="7.4100490">
        <ele>202.4900000</ele>
        <time>2010-08-21T13:00:35Z</time>
      </trkpt>
      <trkpt lat="50.9014500" lon="7.4100670">
        <ele>204.4200000</ele>
        <time>2010-08-21T13:00:36Z</time>
      </trkpt>
      <trkpt lat="50.9012850" lon="7.4100890">
        <ele>205.8600000</ele>
        <time>2010-08-21T13:00:37Z</time>
      </trkpt>
      <trkpt lat="50.9003460" lon="7.4101400">
        <ele>210.6700000</ele>
        <time>2010-08-21T13:00:42Z</time>
      </trkpt>
      <trkpt lat="50.9001150" lon="7.4102490">
        <ele>213.0700000</ele>
        <time>2010-08-21T13:00:43Z</time>
      </trkpt>
      <trkpt lat="50.8991090" lon="7.4106380">
        <ele>220.7600000</ele>
        <time>2010-08-21T13:00:49Z</time>
      </trkpt>
      <trkpt lat="50.8989730" lon="7.4105760">
        <ele>221.7200000</ele>
        <time>2010-08-21T13:00:50Z</time>
      </trkpt>
      <trkpt lat="50.8988490" lon="7.4104630">
        <ele>222.6800000</ele>
        <time>2010-08-21T13:00:51Z</time>
      </trkpt>
      <trkpt lat="50.8985310" lon="7.4104080">
        <ele>227.0100000</ele>
        <time>2010-08-21T13:00:54Z</time>
      </trkpt>
      <trkpt lat="50.8984240" lon="7.4104670">
        <ele>228.4500000</ele>
        <time>2010-08-21T13:00:55Z</time>
      </trkpt>
      <trkpt lat="50.8982780" lon="7.4105190">
        <ele>229.4100000</ele>
        <time>2010-08-21T13:00:56Z</time>
      </trkpt>
      <trkpt lat="50.8973710" lon="7.4109100">
        <ele>236.1400000</ele>
        <time>2010-08-21T13:01:02Z</time>
      </trkpt>
      <trkpt lat="50.8972470" lon="7.4110740">
        <ele>235.6600000</ele>
        <time>2010-08-21T13:01:03Z</time>
      </trkpt>
      <trkpt lat="50.8971080" lon="7.4112750">
        <ele>235.6600000</ele>
        <time>2010-08-21T13:01:04Z</time>
      </trkpt>
      <trkpt lat="50.8969620" lon="7.4115000">
        <ele>236.6200000</ele>
        <time>2010-08-21T13:01:05Z</time>
      </trkpt>
      <trkpt lat="50.8968200" lon="7.4117350">
        <ele>237.5800000</ele>
        <time>2010-08-21T13:01:06Z</time>
      </trkpt>
      <trkpt lat="50.8966840" lon="7.4119860">
        <ele>239.5100000</ele>
        <time>2010-08-21T13:01:07Z</time>
      </trkpt>
      <trkpt lat="50.8964730" lon="7.4128230">
        <ele>239.9900000</ele>
        <time>2010-08-21T13:01:10Z</time>
      </trkpt>
      <trkpt lat="50.8964340" lon="7.4131440">
        <ele>240.4700000</ele>
        <time>2010-08-21T13:01:11Z</time>
      </trkpt>
      <trkpt lat="50.8963460" lon="7.4141390">
        <ele>240.9500000</ele>
        <time>2010-08-21T13:01:14Z</time>
      </trkpt>
      <trkpt lat="50.8963600" lon="7.4144900">
        <ele>240.9500000</ele>
        <time>2010-08-21T13:01:15Z</time>
      </trkpt>
      <trkpt lat="50.8965130" lon="7.4169770">
        <ele>240.4700000</ele>
        <time>2010-08-21T13:01:23Z</time>
      </trkpt>
      <trkpt lat="50.8963710" lon="7.4194800">
        <ele>240.4700000</ele>
        <time>2010-08-21T13:01:32Z</time>
      </trkpt>
      <trkpt lat="50.8962800" lon="7.4197290">
        <ele>240.4700000</ele>
        <time>2010-08-21T13:01:33Z</time>
      </trkpt>
      <trkpt lat="50.8961700" lon="7.4199710">
        <ele>240.4700000</ele>
        <time>2010-08-21T13:01:34Z</time>
      </trkpt>
      <trkpt lat="50.8960620" lon="7.4202050">
        <ele>239.9900000</ele>
        <time>2010-08-21T13:01:35Z</time>
      </trkpt>
      <trkpt lat="50.8959350" lon="7.4203760">
        <ele>240.4700000</ele>
        <time>2010-08-21T13:01:36Z</time>
      </trkpt>
      <trkpt lat="50.8958150" lon="7.4205420">
        <ele>240.4700000</ele>
        <time>2010-08-21T13:01:37Z</time>
      </trkpt>
      <trkpt lat="50.8956840" lon="7.4206660">
        <ele>240.4700000</ele>
        <time>2010-08-21T13:01:38Z</time>
      </trkpt>
      <trkpt lat="50.8955250" lon="7.4207190">
        <ele>240.4700000</ele>
        <time>2010-08-21T13:01:39Z</time>
      </trkpt>
      <trkpt lat="50.8953520" lon="7.4207330">
        <ele>239.9900000</ele>
        <time>2010-08-21T13:01:40Z</time>
      </trkpt>
      <trkpt lat="50.8951630" lon="7.4207260">
        <ele>239.9900000</ele>
        <time>2010-08-21T13:01:41Z</time>
      </trkpt>
      <trkpt lat="50.8949820" lon="7.4207210">
        <ele>239.9900000</ele>
        <time>2010-08-21T13:01:42Z</time>
      </trkpt>
      <trkpt lat="50.8946700" lon="7.4207680">
        <ele>239.5100000</ele>
        <time>2010-08-21T13:01:44Z</time>
      </trkpt>
      <trkpt lat="50.8945590" lon="7.4208530">
        <ele>239.0200000</ele>
        <time>2010-08-21T13:01:45Z</time>
      </trkpt>
      <trkpt lat="50.8944890" lon="7.4209970">
        <ele>239.0200000</ele>
        <time>2010-08-21T13:01:46Z</time>
      </trkpt>
      <trkpt lat="50.8944420" lon="7.4212070">
        <ele>238.5400000</ele>
        <time>2010-08-21T13:01:47Z</time>
      </trkpt>
      <trkpt lat="50.8944050" lon="7.4214730">
        <ele>238.0600000</ele>
        <time>2010-08-21T13:01:48Z</time>
      </trkpt>
      <trkpt lat="50.8943790" lon="7.4217760">
        <ele>237.1000000</ele>
        <time>2010-08-21T13:01:49Z</time>
      </trkpt>
      <trkpt lat="50.8943490" lon="7.4220970">
        <ele>236.1400000</ele>
        <time>2010-08-21T13:01:50Z</time>
      </trkpt>
      <trkpt lat="50.8940830" lon="7.4247230">
        <ele>228.4500000</ele>
        <time>2010-08-21T13:01:59Z</time>
      </trkpt>
      <trkpt lat="50.8940400" lon="7.4249820">
        <ele>227.9700000</ele>
        <time>2010-08-21T13:02:00Z</time>
      </trkpt>
      <trkpt lat="50.8939750" lon="7.4252280">
        <ele>227.0100000</ele>
        <time>2010-08-21T13:02:01Z</time>
      </trkpt>
      <trkpt lat="50.8938810" lon="7.4254620">
        <ele>226.0500000</ele>
        <time>2010-08-21T13:02:02Z</time>
      </trkpt>
      <trkpt lat="50.8925780" lon="7.4283040">
        <ele>216.4300000</ele>
        <time>2010-08-21T13:02:15Z</time>
      </trkpt>
      <trkpt lat="50.8922630" lon="7.4289390">
        <ele>214.0300000</ele>
        <time>2010-08-21T13:02:18Z</time>
      </trkpt>
      <trkpt lat="50.8921280" lon="7.4291240">
        <ele>213.0700000</ele>
        <time>2010-08-21T13:02:19Z</time>
      </trkpt>
      <trkpt lat="50.8919580" lon="7.4292550">
        <ele>212.5900000</ele>
        <time>2010-08-21T13:02:20Z</time>
      </trkpt>
      <trkpt lat="50.8917670" lon="7.4293450">
        <ele>212.5900000</ele>
        <time>2010-08-21T13:02:21Z</time>
      </trkpt>
      <trkpt lat="50.8915820" lon="7.4293950">
        <ele>212.1100000</ele>
        <time>2010-08-21T13:02:22Z</time>
      </trkpt>
      <trkpt lat="50.8913950" lon="7.4294150">
        <ele>211.6300000</ele>
        <time>2010-08-21T13:02:23Z</time>
      </trkpt>
      <trkpt lat="50.8912060" lon="7.4293740">
        <ele>210.6700000</ele>
        <time>2010-08-21T13:02:24Z</time>
      </trkpt>
      <trkpt lat="50.8907780" lon="7.4292820">
        <ele>209.2200000</ele>
        <time>2010-08-21T13:02:26Z</time>
      </trkpt>
      <trkpt lat="50.8900240" lon="7.4293080">
        <ele>209.7000000</ele>
        <time>2010-08-21T13:02:30Z</time>
      </trkpt>
      <trkpt lat="50.8898430" lon="7.4294950">
        <ele>210.1900000</ele>
        <time>2010-08-21T13:02:31Z</time>
      </trkpt>
      <trkpt lat="50.8896760" lon="7.4296360">
        <ele>208.7400000</ele>
        <time>2010-08-21T13:02:32Z</time>
      </trkpt>
      <trkpt lat="50.8894820" lon="7.4298120">
        <ele>208.2600000</ele>
        <time>2010-08-21T13:02:33Z</time>
      </trkpt>
      <trkpt lat="50.8892530" lon="7.4300400">
        <ele>206.8200000</ele>
        <time>2010-08-21T13:02:34Z</time>
      </trkpt>
      <trkpt lat="50.8876840" lon="7.4312970">
        <ele>205.8600000</ele>
        <time>2010-08-21T13:02:41Z</time>
      </trkpt>
      <trkpt lat="50.8872660" lon="7.4320670">
        <ele>207.7800000</ele>
        <time>2010-08-21T13:02:44Z</time>
      </trkpt>
      <trkpt lat="50.8871280" lon="7.4323710">
        <ele>207.7800000</ele>
        <time>2010-08-21T13:02:45Z</time>
      </trkpt>
      <trkpt lat="50.8870240" lon="7.4327020">
        <ele>205.8600000</ele>
        <time>2010-08-21T13:02:46Z</time>
      </trkpt>
      <trkpt lat="50.8866700" lon="7.4335760">
        <ele>202.9800000</ele>
        <time>2010-08-21T13:02:49Z</time>
      </trkpt>
      <trkpt lat="50.8865330" lon="7.4338050">
        <ele>202.0100000</ele>
        <time>2010-08-21T13:02:50Z</time>
      </trkpt>
      <trkpt lat="50.8863870" lon="7.4339950">
        <ele>201.5300000</ele>
        <time>2010-08-21T13:02:51Z</time>
      </trkpt>
      <trkpt lat="50.8862390" lon="7.4341590">
        <ele>201.0500000</ele>
        <time>2010-08-21T13:02:52Z</time>
      </trkpt>
      <trkpt lat="50.8860900" lon="7.4343030">
        <ele>200.5700000</ele>
        <time>2010-08-21T13:02:53Z</time>
      </trkpt>
      <trkpt lat="50.8859430" lon="7.4344310">
        <ele>200.0900000</ele>
        <time>2010-08-21T13:02:54Z</time>
      </trkpt>
      <trkpt lat="50.8852450" lon="7.4349850">
        <ele>197.6900000</ele>
        <time>2010-08-21T13:03:00Z</time>
      </trkpt>
      <trkpt lat="50.8851870" lon="7.4350710">
        <ele>196.2500000</ele>
        <time>2010-08-21T13:03:01Z</time>
      </trkpt>
      <trkpt lat="50.8851450" lon="7.4351710">
        <ele>195.2800000</ele>
        <time>2010-08-21T13:03:02Z</time>
      </trkpt>
      <trkpt lat="50.8851300" lon="7.4352920">
        <ele>194.3200000</ele>
        <time>2010-08-21T13:03:03Z</time>
      </trkpt>
      <trkpt lat="50.8851350" lon="7.4354400">
        <ele>194.3200000</ele>
        <time>2010-08-21T13:03:04Z</time>
      </trkpt>
      <trkpt lat="50.8851340" lon="7.4355940">
        <ele>194.8000000</ele>
        <time>2010-08-21T13:03:05Z</time>
      </trkpt>
      <trkpt lat="50.8851180" lon="7.4357450">
        <ele>194.8000000</ele>
        <time>2010-08-21T13:03:06Z</time>
      </trkpt>
      <trkpt lat="50.8850850" lon="7.4358910">
        <ele>195.2800000</ele>
        <time>2010-08-21T13:03:07Z</time>
      </trkpt>
      <trkpt lat="50.8850190" lon="7.4360440">
        <ele>195.2800000</ele>
        <time>2010-08-21T13:03:08Z</time>
      </trkpt>
      <trkpt lat="50.8849220" lon="7.4362080">
        <ele>195.7700000</ele>
        <time>2010-08-21T13:03:09Z</time>
      </trkpt>
      <trkpt lat="50.8848160" lon="7.4363930">
        <ele>196.2500000</ele>
        <time>2010-08-21T13:03:10Z</time>
      </trkpt>
      <trkpt lat="50.8841570" lon="7.4380190">
        <ele>199.6100000</ele>
        <time>2010-08-21T13:03:17Z</time>
      </trkpt>
      <trkpt lat="50.8835750" lon="7.4403200">
        <ele>212.1100000</ele>
        <time>2010-08-21T13:03:26Z</time>
      </trkpt>
      <trkpt lat="50.8833560" lon="7.4414380">
        <ele>217.8800000</ele>
        <time>2010-08-21T13:03:32Z</time>
      </trkpt>
      <trkpt lat="50.8833490" lon="7.4415460">
        <ele>218.3600000</ele>
        <time>2010-08-21T13:03:33Z</time>
      </trkpt>
      <trkpt lat="50.8833920" lon="7.4415830">
        <ele>218.3600000</ele>
        <time>2010-08-21T13:03:34Z</time>
      </trkpt>
      <trkpt lat="50.8834530" lon="7.4416310">
        <ele>218.8400000</ele>
        <time>2010-08-21T13:03:35Z</time>
      </trkpt>
      <trkpt lat="50.8835310" lon="7.4416690">
        <ele>218.8400000</ele>
        <time>2010-08-21T13:03:36Z</time>
      </trkpt>
      <trkpt lat="50.8836220" lon="7.4417010">
        <ele>218.8400000</ele>
        <time>2010-08-21T13:03:37Z</time>
      </trkpt>
      <trkpt lat="50.8846290" lon="7.4420590">
        <ele>220.7600000</ele>
        <time>2010-08-21T13:03:47Z</time>
      </trkpt>
      <trkpt lat="50.8853150" lon="7.4423580">
        <ele>222.2000000</ele>
        <time>2010-08-21T13:03:55Z</time>
      </trkpt>
      <trkpt lat="50.8853660" lon="7.4424520">
        <ele>223.6400000</ele>
        <time>2010-08-21T13:04:04Z</time>
      </trkpt>
      <trkpt lat="50.8853320" lon="7.4424290">
        <ele>227.0100000</ele>
        <time>2010-08-21T13:04:53Z</time>
      </trkpt>
      <trkpt lat="50.8853660" lon="7.4424020">
        <ele>229.8900000</ele>
        <time>2010-08-21T13:05:39Z</time>
      </trkpt>
      <trkpt lat="50.8853800" lon="7.4423210">
        <ele>230.3700000</ele>
        <time>2010-08-21T13:07:51Z</time>
      </trkpt>
      <trkpt lat="50.8853570" lon="7.4423330">
        <ele>227.0100000</ele>
        <time>2010-08-21T13:08:08Z</time>
      </trkpt>
      <trkpt lat="50.8856740" lon="7.4424120">
        <ele>225.5700000</ele>
        <time>2010-08-21T13:08:15Z</time>
      </trkpt>
      <trkpt lat="50.8865200" lon="7.4425410">
        <ele>227.0100000</ele>
        <time>2010-08-21T13:08:24Z</time>
      </trkpt>
      <trkpt lat="50.8875910" lon="7.4426260">
        <ele>227.4900000</ele>
        <time>2010-08-21T13:08:33Z</time>
      </trkpt>
      <trkpt lat="50.8877070" lon="7.4426870">
        <ele>227.4900000</ele>
        <time>2010-08-21T13:08:34Z</time>
      </trkpt>
      <trkpt lat="50.8878220" lon="7.4427690">
        <ele>227.0100000</ele>
        <time>2010-08-21T13:08:35Z</time>
      </trkpt>
      <trkpt lat="50.8889630" lon="7.4438830">
        <ele>223.6400000</ele>
        <time>2010-08-21T13:08:45Z</time>
      </trkpt>
      <trkpt lat="50.8896550" lon="7.4446000">
        <ele>221.7200000</ele>
        <time>2010-08-21T13:08:50Z</time>
      </trkpt>
      <trkpt lat="50.8907530" lon="7.4458170">
        <ele>218.8400000</ele>
        <time>2010-08-21T13:08:56Z</time>
      </trkpt>
      <trkpt lat="50.8918260" lon="7.4470070">
        <ele>214.9900000</ele>
        <time>2010-08-21T13:09:02Z</time>
      </trkpt>
      <trkpt lat="50.8919360" lon="7.4473180">
        <ele>215.4700000</ele>
        <time>2010-08-21T13:09:03Z</time>
      </trkpt>
      <trkpt lat="50.8925850" lon="7.4491930">
        <ele>220.2800000</ele>
        <time>2010-08-21T13:09:10Z</time>
      </trkpt>
      <trkpt lat="50.8926950" lon="7.4493500">
        <ele>220.2800000</ele>
        <time>2010-08-21T13:09:11Z</time>
      </trkpt>
      <trkpt lat="50.8928160" lon="7.4494670">
        <ele>219.8000000</ele>
        <time>2010-08-21T13:09:12Z</time>
      </trkpt>
      <trkpt lat="50.8929480" lon="7.4495450">
        <ele>219.3200000</ele>
        <time>2010-08-21T13:09:13Z</time>
      </trkpt>
      <trkpt lat="50.8930850" lon="7.4495840">
        <ele>219.3200000</ele>
        <time>2010-08-21T13:09:14Z</time>
      </trkpt>
      <trkpt lat="50.8932260" lon="7.4495850">
        <ele>218.8400000</ele>
        <time>2010-08-21T13:09:15Z</time>
      </trkpt>
      <trkpt lat="50.8933680" lon="7.4495570">
        <ele>218.3600000</ele>
        <time>2010-08-21T13:09:16Z</time>
      </trkpt>
      <trkpt lat="50.8935080" lon="7.4495120">
        <ele>217.8800000</ele>
        <time>2010-08-21T13:09:17Z</time>
      </trkpt>
      <trkpt lat="50.8936530" lon="7.4494590">
        <ele>216.9100000</ele>
        <time>2010-08-21T13:09:18Z</time>
      </trkpt>
      <trkpt lat="50.8938010" lon="7.4494150">
        <ele>215.9500000</ele>
        <time>2010-08-21T13:09:19Z</time>
      </trkpt>
      <trkpt lat="50.8939530" lon="7.4494060">
        <ele>214.9900000</ele>
        <time>2010-08-21T13:09:20Z</time>
      </trkpt>
      <trkpt lat="50.8941030" lon="7.4494450">
        <ele>214.0300000</ele>
        <time>2010-08-21T13:09:21Z</time>
      </trkpt>
      <trkpt lat="50.8942430" lon="7.4495270">
        <ele>213.0700000</ele>
        <time>2010-08-21T13:09:22Z</time>
      </trkpt>
      <trkpt lat="50.8943740" lon="7.4496570">
        <ele>212.5900000</ele>
        <time>2010-08-21T13:09:23Z</time>
      </trkpt>
      <trkpt lat="50.8944960" lon="7.4498110">
        <ele>212.1100000</ele>
        <time>2010-08-21T13:09:24Z</time>
      </trkpt>
      <trkpt lat="50.8946130" lon="7.4499780">
        <ele>211.6300000</ele>
        <time>2010-08-21T13:09:25Z</time>
      </trkpt>
      <trkpt lat="50.8961040" lon="7.4521780">
        <ele>205.8600000</ele>
        <time>2010-08-21T13:09:38Z</time>
      </trkpt>
      <trkpt lat="50.8973690" lon="7.4538040">
        <ele>206.8200000</ele>
        <time>2010-08-21T13:09:46Z</time>
      </trkpt>
      <trkpt lat="50.8977650" lon="7.4540800">
        <ele>207.3000000</ele>
        <time>2010-08-21T13:09:48Z</time>
      </trkpt>
      <trkpt lat="50.8979780" lon="7.4541790">
        <ele>208.2600000</ele>
        <time>2010-08-21T13:09:49Z</time>
      </trkpt>
      <trkpt lat="50.8981900" lon="7.4542490">
        <ele>208.7400000</ele>
        <time>2010-08-21T13:09:50Z</time>
      </trkpt>
      <trkpt lat="50.8983960" lon="7.4542870">
        <ele>209.7000000</ele>
        <time>2010-08-21T13:09:51Z</time>
      </trkpt>
      <trkpt lat="50.8985910" lon="7.4543070">
        <ele>210.6700000</ele>
        <time>2010-08-21T13:09:52Z</time>
      </trkpt>
      <trkpt lat="50.8995330" lon="7.4544200">
        <ele>214.0300000</ele>
        <time>2010-08-21T13:09:58Z</time>
      </trkpt>
      <trkpt lat="50.8996680" lon="7.4545010">
        <ele>214.5100000</ele>
        <time>2010-08-21T13:09:59Z</time>
      </trkpt>
      <trkpt lat="50.8997960" lon="7.4546080">
        <ele>214.9900000</ele>
        <time>2010-08-21T13:10:00Z</time>
      </trkpt>
      <trkpt lat="50.8999220" lon="7.4547320">
        <ele>215.4700000</ele>
        <time>2010-08-21T13:10:01Z</time>
      </trkpt>
      <trkpt lat="50.9000490" lon="7.4548620">
        <ele>215.9500000</ele>
        <time>2010-08-21T13:10:02Z</time>
      </trkpt>
      <trkpt lat="50.9004450" lon="7.4551840">
        <ele>216.4300000</ele>
        <time>2010-08-21T13:10:05Z</time>
      </trkpt>
      <trkpt lat="50.9005850" lon="7.4552310">
        <ele>216.4300000</ele>
        <time>2010-08-21T13:10:06Z</time>
      </trkpt>
      <trkpt lat="50.9007380" lon="7.4552460">
        <ele>216.4300000</ele>
        <time>2010-08-21T13:10:07Z</time>
      </trkpt>
      <trkpt lat="50.9008970" lon="7.4552480">
        <ele>216.4300000</ele>
        <time>2010-08-21T13:10:08Z</time>
      </trkpt>
      <trkpt lat="50.9010620" lon="7.4552410">
        <ele>216.9100000</ele>
        <time>2010-08-21T13:10:09Z</time>
      </trkpt>
      <trkpt lat="50.9027670" lon="7.4549010">
        <ele>220.2800000</ele>
        <time>2010-08-21T13:10:18Z</time>
      </trkpt>
      <trkpt lat="50.9040540" lon="7.4542890">
        <ele>221.7200000</ele>
        <time>2010-08-21T13:10:24Z</time>
      </trkpt>
      <trkpt lat="50.9042650" lon="7.4542930">
        <ele>222.2000000</ele>
        <time>2010-08-21T13:10:25Z</time>
      </trkpt>
      <trkpt lat="50.9044760" lon="7.4543320">
        <ele>223.1600000</ele>
        <time>2010-08-21T13:10:26Z</time>
      </trkpt>
      <trkpt lat="50.9046850" lon="7.4544010">
        <ele>223.6400000</ele>
        <time>2010-08-21T13:10:27Z</time>
      </trkpt>
      <trkpt lat="50.9048940" lon="7.4544860">
        <ele>224.6100000</ele>
        <time>2010-08-21T13:10:28Z</time>
      </trkpt>
      <trkpt lat="50.9068370" lon="7.4555360">
        <ele>237.5800000</ele>
        <time>2010-08-21T13:10:38Z</time>
      </trkpt>
      <trkpt lat="50.9076910" lon="7.4558740">
        <ele>239.5100000</ele>
        <time>2010-08-21T13:10:43Z</time>
      </trkpt>
      <trkpt lat="50.9081740" lon="7.4557620">
        <ele>237.1000000</ele>
        <time>2010-08-21T13:10:46Z</time>
      </trkpt>
      <trkpt lat="50.9083760" lon="7.4555510">
        <ele>237.1000000</ele>
        <time>2010-08-21T13:10:47Z</time>
      </trkpt>
      <trkpt lat="50.9085790" lon="7.4552760">
        <ele>236.6200000</ele>
        <time>2010-08-21T13:10:48Z</time>
      </trkpt>
      <trkpt lat="50.9093170" lon="7.4546640">
        <ele>238.0600000</ele>
        <time>2010-08-21T13:10:52Z</time>
      </trkpt>
      <trkpt lat="50.9094970" lon="7.4546640">
        <ele>239.0200000</ele>
        <time>2010-08-21T13:10:53Z</time>
      </trkpt>
      <trkpt lat="50.9096740" lon="7.4547360">
        <ele>239.5100000</ele>
        <time>2010-08-21T13:10:54Z</time>
      </trkpt>
      <trkpt lat="50.9098600" lon="7.4548730">
        <ele>239.5100000</ele>
        <time>2010-08-21T13:10:55Z</time>
      </trkpt>
      <trkpt lat="50.9100510" lon="7.4550000">
        <ele>239.9900000</ele>
        <time>2010-08-21T13:10:56Z</time>
      </trkpt>
      <trkpt lat="50.9102490" lon="7.4551600">
        <ele>241.4300000</ele>
        <time>2010-08-21T13:10:57Z</time>
      </trkpt>
      <trkpt lat="50.9104470" lon="7.4553340">
        <ele>242.8700000</ele>
        <time>2010-08-21T13:10:58Z</time>
      </trkpt>
      <trkpt lat="50.9113170" lon="7.4564590">
        <ele>249.6000000</ele>
        <time>2010-08-21T13:11:04Z</time>
      </trkpt>
      <trkpt lat="50.9117050" lon="7.4572970">
        <ele>253.9300000</ele>
        <time>2010-08-21T13:11:10Z</time>
      </trkpt>
      <trkpt lat="50.9117290" lon="7.4573430">
        <ele>253.9300000</ele>
        <time>2010-08-21T13:11:11Z</time>
      </trkpt>
      <trkpt lat="50.9117510" lon="7.4573570">
        <ele>253.9300000</ele>
        <time>2010-08-21T13:11:12Z</time>
      </trkpt>
      <trkpt lat="50.9117720" lon="7.4573520">
        <ele>254.4100000</ele>
        <time>2010-08-21T13:11:13Z</time>
      </trkpt>
      <trkpt lat="50.9118240" lon="7.4572520">
        <ele>254.4100000</ele>
        <time>2010-08-21T13:11:16Z</time>
      </trkpt>
      <trkpt lat="50.9118580" lon="7.4571020">
        <ele>255.3700000</ele>
        <time>2010-08-21T13:11:19Z</time>
      </trkpt>
      <trkpt lat="50.9118400" lon="7.4570170">
        <ele>257.7700000</ele>
        <time>2010-08-21T13:11:29Z</time>
      </trkpt>
      <trkpt lat="50.9118280" lon="7.4570300">
        <ele>258.2500000</ele>
        <time>2010-08-21T13:11:34Z</time>
      </trkpt>
      <trkpt lat="50.9116780" lon="7.4571140">
        <ele>257.7700000</ele>
        <time>2010-08-21T13:11:44Z</time>
      </trkpt>
      <trkpt lat="50.9116570" lon="7.4571520">
        <ele>259.2100000</ele>
        <time>2010-08-21T13:11:55Z</time>
      </trkpt>
      <trkpt lat="50.9116850" lon="7.4571410">
        <ele>257.2900000</ele>
        <time>2010-08-21T13:12:31Z</time>
      </trkpt>
      <trkpt lat="50.9115510" lon="7.4570290">
        <ele>287.0900000</ele>
        <time>2010-08-21T14:26:35Z</time>
      </trkpt>
      <trkpt lat="50.9116420" lon="7.4570290">
        <ele>272.6700000</ele>
        <time>2010-08-21T14:27:00Z</time>
      </trkpt>
      <trkpt lat="50.9116350" lon="7.4570180">
        <ele>272.6700000</ele>
        <time>2010-08-21T14:27:01Z</time>
      </trkpt>
      <trkpt lat="50.9116310" lon="7.4569400">
        <ele>273.6300000</ele>
        <time>2010-08-21T14:27:04Z</time>
      </trkpt>
      <trkpt lat="50.9115660" lon="7.4568770">
        <ele>273.6300000</ele>
        <time>2010-08-21T14:27:11Z</time>
      </trkpt>
      <trkpt lat="50.9115630" lon="7.4567410">
        <ele>275.0700000</ele>
        <time>2010-08-21T14:27:14Z</time>
      </trkpt>
      <trkpt lat="50.9114940" lon="7.4566230">
        <ele>273.1500000</ele>
        <time>2010-08-21T14:27:15Z</time>
      </trkpt>
      <trkpt lat="50.9114090" lon="7.4564950">
        <ele>270.7500000</ele>
        <time>2010-08-21T14:27:16Z</time>
      </trkpt>
      <trkpt lat="50.9113090" lon="7.4563670">
        <ele>268.3500000</ele>
        <time>2010-08-21T14:27:17Z</time>
      </trkpt>
      <trkpt lat="50.9112270" lon="7.4562510">
        <ele>266.4200000</ele>
        <time>2010-08-21T14:27:18Z</time>
      </trkpt>
      <trkpt lat="50.9111620" lon="7.4561400">
        <ele>264.5000000</ele>
        <time>2010-08-21T14:27:19Z</time>
      </trkpt>
      <trkpt lat="50.9109150" lon="7.4557410">
        <ele>259.6900000</ele>
        <time>2010-08-21T14:27:22Z</time>
      </trkpt>
      <trkpt lat="50.9107670" lon="7.4555940">
        <ele>257.7700000</ele>
        <time>2010-08-21T14:27:23Z</time>
      </trkpt>
      <trkpt lat="50.9106210" lon="7.4554600">
        <ele>256.3300000</ele>
        <time>2010-08-21T14:27:24Z</time>
      </trkpt>
      <trkpt lat="50.9095080" lon="7.4546780">
        <ele>248.6400000</ele>
        <time>2010-08-21T14:27:32Z</time>
      </trkpt>
      <trkpt lat="50.9093270" lon="7.4546370">
        <ele>247.6800000</ele>
        <time>2010-08-21T14:27:33Z</time>
      </trkpt>
      <trkpt lat="50.9091400" lon="7.4546320">
        <ele>246.7200000</ele>
        <time>2010-08-21T14:27:34Z</time>
      </trkpt>
      <trkpt lat="50.9089520" lon="7.4546630">
        <ele>245.7500000</ele>
        <time>2010-08-21T14:27:35Z</time>
      </trkpt>
      <trkpt lat="50.9087570" lon="7.4547850">
        <ele>244.7900000</ele>
        <time>2010-08-21T14:27:36Z</time>
      </trkpt>
      <trkpt lat="50.9085570" lon="7.4549370">
        <ele>244.7900000</ele>
        <time>2010-08-21T14:27:37Z</time>
      </trkpt>
      <trkpt lat="50.9083550" lon="7.4550590">
        <ele>244.3100000</ele>
        <time>2010-08-21T14:27:38Z</time>
      </trkpt>
      <trkpt lat="50.9074490" lon="7.4557880">
        <ele>242.3900000</ele>
        <time>2010-08-21T14:27:44Z</time>
      </trkpt>
      <trkpt lat="50.9072850" lon="7.4558000">
        <ele>241.9100000</ele>
        <time>2010-08-21T14:27:45Z</time>
      </trkpt>
      <trkpt lat="50.9071140" lon="7.4557690">
        <ele>241.9100000</ele>
        <time>2010-08-21T14:27:46Z</time>
      </trkpt>
      <trkpt lat="50.9069020" lon="7.4556720">
        <ele>240.9500000</ele>
        <time>2010-08-21T14:27:47Z</time>
      </trkpt>
      <trkpt lat="50.9067100" lon="7.4555570">
        <ele>239.9900000</ele>
        <time>2010-08-21T14:27:48Z</time>
      </trkpt>
      <trkpt lat="50.9065450" lon="7.4554140">
        <ele>239.0200000</ele>
        <time>2010-08-21T14:27:49Z</time>
      </trkpt>
      <trkpt lat="50.9063750" lon="7.4552850">
        <ele>238.5400000</ele>
        <time>2010-08-21T14:27:50Z</time>
      </trkpt>
      <trkpt lat="50.9045490" lon="7.4543580">
        <ele>227.9700000</ele>
        <time>2010-08-21T14:28:00Z</time>
      </trkpt>
      <trkpt lat="50.9039490" lon="7.4542490">
        <ele>225.5700000</ele>
        <time>2010-08-21T14:28:03Z</time>
      </trkpt>
      <trkpt lat="50.9037300" lon="7.4542720">
        <ele>224.6100000</ele>
        <time>2010-08-21T14:28:04Z</time>
      </trkpt>
      <trkpt lat="50.9035120" lon="7.4543310">
        <ele>224.1200000</ele>
        <time>2010-08-21T14:28:05Z</time>
      </trkpt>
      <trkpt lat="50.9033010" lon="7.4544260">
        <ele>224.6100000</ele>
        <time>2010-08-21T14:28:06Z</time>
      </trkpt>
      <trkpt lat="50.9031030" lon="7.4545330">
        <ele>224.6100000</ele>
        <time>2010-08-21T14:28:07Z</time>
      </trkpt>
      <trkpt lat="50.9029170" lon="7.4546520">
        <ele>224.6100000</ele>
        <time>2010-08-21T14:28:08Z</time>
      </trkpt>
      <trkpt lat="50.9019350" lon="7.4551140">
        <ele>225.0900000</ele>
        <time>2010-08-21T14:28:13Z</time>
      </trkpt>
      <trkpt lat="50.9017450" lon="7.4551420">
        <ele>224.6100000</ele>
        <time>2010-08-21T14:28:14Z</time>
      </trkpt>
      <trkpt lat="50.9006900" lon="7.4551760">
        <ele>220.2800000</ele>
        <time>2010-08-21T14:28:21Z</time>
      </trkpt>
      <trkpt lat="50.9004560" lon="7.4551610">
        <ele>219.8000000</ele>
        <time>2010-08-21T14:28:23Z</time>
      </trkpt>
      <trkpt lat="50.9003410" lon="7.4551260">
        <ele>219.3200000</ele>
        <time>2010-08-21T14:28:24Z</time>
      </trkpt>
      <trkpt lat="50.9002230" lon="7.4550650">
        <ele>218.8400000</ele>
        <time>2010-08-21T14:28:25Z</time>
      </trkpt>
      <trkpt lat="50.9001050" lon="7.4549820">
        <ele>218.8400000</ele>
        <time>2010-08-21T14:28:26Z</time>
      </trkpt>
      <trkpt lat="50.8999960" lon="7.4548740">
        <ele>218.8400000</ele>
        <time>2010-08-21T14:28:27Z</time>
      </trkpt>
      <trkpt lat="50.8998900" lon="7.4547530">
        <ele>218.8400000</ele>
        <time>2010-08-21T14:28:28Z</time>
      </trkpt>
      <trkpt lat="50.8997810" lon="7.4546310">
        <ele>219.3200000</ele>
        <time>2010-08-21T14:28:29Z</time>
      </trkpt>
      <trkpt lat="50.8995540" lon="7.4544130">
        <ele>218.8400000</ele>
        <time>2010-08-21T14:28:31Z</time>
      </trkpt>
      <trkpt lat="50.8994330" lon="7.4543330">
        <ele>218.3600000</ele>
        <time>2010-08-21T14:28:32Z</time>
      </trkpt>
      <trkpt lat="50.8993060" lon="7.4542730">
        <ele>217.8800000</ele>
        <time>2010-08-21T14:28:33Z</time>
      </trkpt>
      <trkpt lat="50.8991770" lon="7.4542320">
        <ele>216.9100000</ele>
        <time>2010-08-21T14:28:34Z</time>
      </trkpt>
      <trkpt lat="50.8990440" lon="7.4542130">
        <ele>216.4300000</ele>
        <time>2010-08-21T14:28:35Z</time>
      </trkpt>
      <trkpt lat="50.8989070" lon="7.4542070">
        <ele>215.4700000</ele>
        <time>2010-08-21T14:28:36Z</time>
      </trkpt>
      <trkpt lat="50.8987650" lon="7.4542090">
        <ele>214.9900000</ele>
        <time>2010-08-21T14:28:37Z</time>
      </trkpt>
      <trkpt lat="50.8975860" lon="7.4539270">
        <ele>210.6700000</ele>
        <time>2010-08-21T14:28:45Z</time>
      </trkpt>
      <trkpt lat="50.8966300" lon="7.4529090">
        <ele>207.7800000</ele>
        <time>2010-08-21T14:28:51Z</time>
      </trkpt>
      <trkpt lat="50.8950330" lon="7.4505620">
        <ele>208.2600000</ele>
        <time>2010-08-21T14:29:02Z</time>
      </trkpt>
      <trkpt lat="50.8942440" lon="7.4494380">
        <ele>212.1100000</ele>
        <time>2010-08-21T14:29:10Z</time>
      </trkpt>
      <trkpt lat="50.8941220" lon="7.4493330">
        <ele>212.5900000</ele>
        <time>2010-08-21T14:29:11Z</time>
      </trkpt>
      <trkpt lat="50.8939840" lon="7.4492580">
        <ele>213.0700000</ele>
        <time>2010-08-21T14:29:12Z</time>
      </trkpt>
      <trkpt lat="50.8938350" lon="7.4492490">
        <ele>214.0300000</ele>
        <time>2010-08-21T14:29:13Z</time>
      </trkpt>
      <trkpt lat="50.8936810" lon="7.4492640">
        <ele>214.5100000</ele>
        <time>2010-08-21T14:29:14Z</time>
      </trkpt>
      <trkpt lat="50.8935300" lon="7.4493090">
        <ele>214.9900000</ele>
        <time>2010-08-21T14:29:15Z</time>
      </trkpt>
      <trkpt lat="50.8933840" lon="7.4493650">
        <ele>215.9500000</ele>
        <time>2010-08-21T14:29:16Z</time>
      </trkpt>
      <trkpt lat="50.8929740" lon="7.4494360">
        <ele>217.8800000</ele>
        <time>2010-08-21T14:29:19Z</time>
      </trkpt>
      <trkpt lat="50.8928380" lon="7.4494010">
        <ele>218.3600000</ele>
        <time>2010-08-21T14:29:20Z</time>
      </trkpt>
      <trkpt lat="50.8927090" lon="7.4493260">
        <ele>218.8400000</ele>
        <time>2010-08-21T14:29:21Z</time>
      </trkpt>
      <trkpt lat="50.8925880" lon="7.4492050">
        <ele>218.8400000</ele>
        <time>2010-08-21T14:29:22Z</time>
      </trkpt>
      <trkpt lat="50.8924800" lon="7.4490470">
        <ele>219.3200000</ele>
        <time>2010-08-21T14:29:23Z</time>
      </trkpt>
      <trkpt lat="50.8923850" lon="7.4488510">
        <ele>219.8000000</ele>
        <time>2010-08-21T14:29:24Z</time>
      </trkpt>
      <trkpt lat="50.8922960" lon="7.4486240">
        <ele>219.8000000</ele>
        <time>2010-08-21T14:29:25Z</time>
      </trkpt>
      <trkpt lat="50.8922150" lon="7.4483780">
        <ele>219.8000000</ele>
        <time>2010-08-21T14:29:26Z</time>
      </trkpt>
      <trkpt lat="50.8913950" lon="7.4462930">
        <ele>215.9500000</ele>
        <time>2010-08-21T14:29:34Z</time>
      </trkpt>
      <trkpt lat="50.8910030" lon="7.4459090">
        <ele>215.4700000</ele>
        <time>2010-08-21T14:29:36Z</time>
      </trkpt>
      <trkpt lat="50.8907590" lon="7.4457430">
        <ele>215.9500000</ele>
        <time>2010-08-21T14:29:37Z</time>
      </trkpt>
      <trkpt lat="50.8896300" lon="7.4446070">
        <ele>220.2800000</ele>
        <time>2010-08-21T14:29:43Z</time>
      </trkpt>
      <trkpt lat="50.8889590" lon="7.4438290">
        <ele>221.7200000</ele>
        <time>2010-08-21T14:29:49Z</time>
      </trkpt>
      <trkpt lat="50.8888510" lon="7.4437480">
        <ele>222.2000000</ele>
        <time>2010-08-21T14:29:50Z</time>
      </trkpt>
      <trkpt lat="50.8886480" lon="7.4435910">
        <ele>222.2000000</ele>
        <time>2010-08-21T14:29:52Z</time>
      </trkpt>
      <trkpt lat="50.8876580" lon="7.4426430">
        <ele>224.6100000</ele>
        <time>2010-08-21T14:30:01Z</time>
      </trkpt>
      <trkpt lat="50.8875330" lon="7.4425730">
        <ele>224.6100000</ele>
        <time>2010-08-21T14:30:02Z</time>
      </trkpt>
      <trkpt lat="50.8874050" lon="7.4425290">
        <ele>225.0900000</ele>
        <time>2010-08-21T14:30:03Z</time>
      </trkpt>
      <trkpt lat="50.8872760" lon="7.4425150">
        <ele>225.0900000</ele>
        <time>2010-08-21T14:30:04Z</time>
      </trkpt>
      <trkpt lat="50.8871500" lon="7.4425220">
        <ele>225.5700000</ele>
        <time>2010-08-21T14:30:05Z</time>
      </trkpt>
      <trkpt lat="50.8870300" lon="7.4425330">
        <ele>225.5700000</ele>
        <time>2010-08-21T14:30:06Z</time>
      </trkpt>
      <trkpt lat="50.8856900" lon="7.4424350">
        <ele>224.6100000</ele>
        <time>2010-08-21T14:30:18Z</time>
      </trkpt>
      <trkpt lat="50.8844960" lon="7.4419810">
        <ele>222.6800000</ele>
        <time>2010-08-21T14:30:28Z</time>
      </trkpt>
      <trkpt lat="50.8835130" lon="7.4415560">
        <ele>220.7600000</ele>
        <time>2010-08-21T14:30:36Z</time>
      </trkpt>
      <trkpt lat="50.8834490" lon="7.4415000">
        <ele>220.7600000</ele>
        <time>2010-08-21T14:30:37Z</time>
      </trkpt>
      <trkpt lat="50.8834000" lon="7.4414390">
        <ele>220.7600000</ele>
        <time>2010-08-21T14:30:38Z</time>
      </trkpt>
      <trkpt lat="50.8833710" lon="7.4413700">
        <ele>220.7600000</ele>
        <time>2010-08-21T14:30:39Z</time>
      </trkpt>
      <trkpt lat="50.8833660" lon="7.4412850">
        <ele>220.2800000</ele>
        <time>2010-08-21T14:30:40Z</time>
      </trkpt>
      <trkpt lat="50.8833820" lon="7.4411800">
        <ele>220.2800000</ele>
        <time>2010-08-21T14:30:41Z</time>
      </trkpt>
      <trkpt lat="50.8834240" lon="7.4410570">
        <ele>219.3200000</ele>
        <time>2010-08-21T14:30:42Z</time>
      </trkpt>
      <trkpt lat="50.8834630" lon="7.4409040">
        <ele>219.3200000</ele>
        <time>2010-08-21T14:30:43Z</time>
      </trkpt>
      <trkpt lat="50.8835000" lon="7.4407210">
        <ele>218.8400000</ele>
        <time>2010-08-21T14:30:44Z</time>
      </trkpt>
      <trkpt lat="50.8839200" lon="7.4390290">
        <ele>211.1500000</ele>
        <time>2010-08-21T14:30:51Z</time>
      </trkpt>
      <trkpt lat="50.8846370" lon="7.4366960">
        <ele>201.5300000</ele>
        <time>2010-08-21T14:31:00Z</time>
      </trkpt>
      <trkpt lat="50.8852370" lon="7.4355780">
        <ele>199.6100000</ele>
        <time>2010-08-21T14:31:06Z</time>
      </trkpt>
      <trkpt lat="50.8853130" lon="7.4353220">
        <ele>199.1300000</ele>
        <time>2010-08-21T14:31:08Z</time>
      </trkpt>
      <trkpt lat="50.8853040" lon="7.4352200">
        <ele>199.1300000</ele>
        <time>2010-08-21T14:31:09Z</time>
      </trkpt>
      <trkpt lat="50.8852670" lon="7.4351290">
        <ele>199.6100000</ele>
        <time>2010-08-21T14:31:10Z</time>
      </trkpt>
      <trkpt lat="50.8852130" lon="7.4350530">
        <ele>200.0900000</ele>
        <time>2010-08-21T14:31:11Z</time>
      </trkpt>
      <trkpt lat="50.8851550" lon="7.4350000">
        <ele>201.5300000</ele>
        <time>2010-08-21T14:31:12Z</time>
      </trkpt>
      <trkpt lat="50.8851200" lon="7.4349790">
        <ele>202.0100000</ele>
        <time>2010-08-21T14:31:13Z</time>
      </trkpt>
      <trkpt lat="50.8850870" lon="7.4349830">
        <ele>202.0100000</ele>
        <time>2010-08-21T14:31:14Z</time>
      </trkpt>
      <trkpt lat="50.8850490" lon="7.4349990">
        <ele>201.5300000</ele>
        <time>2010-08-21T14:31:15Z</time>
      </trkpt>
      <trkpt lat="50.8850060" lon="7.4350670">
        <ele>200.5700000</ele>
        <time>2010-08-21T14:31:16Z</time>
      </trkpt>
      <trkpt lat="50.8849290" lon="7.4351420">
        <ele>200.0900000</ele>
        <time>2010-08-21T14:31:17Z</time>
      </trkpt>
      <trkpt lat="50.8848190" lon="7.4352520">
        <ele>200.0900000</ele>
        <time>2010-08-21T14:31:18Z</time>
      </trkpt>
      <trkpt lat="50.8846930" lon="7.4353610">
        <ele>199.6100000</ele>
        <time>2010-08-21T14:31:19Z</time>
      </trkpt>
      <trkpt lat="50.8845340" lon="7.4354780">
        <ele>199.6100000</ele>
        <time>2010-08-21T14:31:20Z</time>
      </trkpt>
      <trkpt lat="50.8843700" lon="7.4355790">
        <ele>199.1300000</ele>
        <time>2010-08-21T14:31:21Z</time>
      </trkpt>
      <trkpt lat="50.8829100" lon="7.4366170">
        <ele>195.7700000</ele>
        <time>2010-08-21T14:31:30Z</time>
      </trkpt>
      <trkpt lat="50.8825930" lon="7.4367020">
        <ele>195.2800000</ele>
        <time>2010-08-21T14:31:32Z</time>
      </trkpt>
      <trkpt lat="50.8824390" lon="7.4366440">
        <ele>194.8000000</ele>
        <time>2010-08-21T14:31:33Z</time>
      </trkpt>
      <trkpt lat="50.8822910" lon="7.4365680">
        <ele>193.8400000</ele>
        <time>2010-08-21T14:31:34Z</time>
      </trkpt>
      <trkpt lat="50.8821490" lon="7.4364540">
        <ele>193.8400000</ele>
        <time>2010-08-21T14:31:35Z</time>
      </trkpt>
      <trkpt lat="50.8820210" lon="7.4363070">
        <ele>193.3600000</ele>
        <time>2010-08-21T14:31:36Z</time>
      </trkpt>
      <trkpt lat="50.8819030" lon="7.4361440">
        <ele>193.3600000</ele>
        <time>2010-08-21T14:31:37Z</time>
      </trkpt>
      <trkpt lat="50.8815060" lon="7.4354610">
        <ele>192.8800000</ele>
        <time>2010-08-21T14:31:43Z</time>
      </trkpt>
      <trkpt lat="50.8811780" lon="7.4346670">
        <ele>195.7700000</ele>
        <time>2010-08-21T14:31:50Z</time>
      </trkpt>
      <trkpt lat="50.8810540" lon="7.4344720">
        <ele>195.7700000</ele>
        <time>2010-08-21T14:31:51Z</time>
      </trkpt>
      <trkpt lat="50.8809010" lon="7.4342630">
        <ele>195.2800000</ele>
        <time>2010-08-21T14:31:52Z</time>
      </trkpt>
      <trkpt lat="50.8798630" lon="7.4326570">
        <ele>194.3200000</ele>
        <time>2010-08-21T14:31:59Z</time>
      </trkpt>
      <trkpt lat="50.8789490" lon="7.4314410">
        <ele>190.9600000</ele>
        <time>2010-08-21T14:32:05Z</time>
      </trkpt>
      <trkpt lat="50.8787680" lon="7.4313630">
        <ele>190.4800000</ele>
        <time>2010-08-21T14:32:06Z</time>
      </trkpt>
      <trkpt lat="50.8785590" lon="7.4313470">
        <ele>189.0400000</ele>
        <time>2010-08-21T14:32:07Z</time>
      </trkpt>
      <trkpt lat="50.8783360" lon="7.4313620">
        <ele>188.0800000</ele>
        <time>2010-08-21T14:32:08Z</time>
      </trkpt>
      <trkpt lat="50.8781050" lon="7.4313750">
        <ele>187.1100000</ele>
        <time>2010-08-21T14:32:09Z</time>
      </trkpt>
      <trkpt lat="50.8764650" lon="7.4312380">
        <ele>182.7900000</ele>
        <time>2010-08-21T14:32:17Z</time>
      </trkpt>
      <trkpt lat="50.8748610" lon="7.4306400">
        <ele>180.8700000</ele>
        <time>2010-08-21T14:32:26Z</time>
      </trkpt>
      <trkpt lat="50.8733860" lon="7.4298570">
        <ele>178.9400000</ele>
        <time>2010-08-21T14:32:35Z</time>
      </trkpt>
      <trkpt lat="50.8716120" lon="7.4296870">
        <ele>176.0600000</ele>
        <time>2010-08-21T14:32:45Z</time>
      </trkpt>
      <trkpt lat="50.8714460" lon="7.4296260">
        <ele>176.0600000</ele>
        <time>2010-08-21T14:32:46Z</time>
      </trkpt>
      <trkpt lat="50.8712790" lon="7.4294970">
        <ele>176.5400000</ele>
        <time>2010-08-21T14:32:47Z</time>
      </trkpt>
      <trkpt lat="50.8711160" lon="7.4293590">
        <ele>176.0600000</ele>
        <time>2010-08-21T14:32:48Z</time>
      </trkpt>
      <trkpt lat="50.8709550" lon="7.4292020">
        <ele>175.5800000</ele>
        <time>2010-08-21T14:32:49Z</time>
      </trkpt>
      <trkpt lat="50.8707910" lon="7.4290440">
        <ele>174.6200000</ele>
        <time>2010-08-21T14:32:50Z</time>
      </trkpt>
      <trkpt lat="50.8704290" lon="7.4288030">
        <ele>173.6600000</ele>
        <time>2010-08-21T14:32:52Z</time>
      </trkpt>
      <trkpt lat="50.8702420" lon="7.4287350">
        <ele>173.6600000</ele>
        <time>2010-08-21T14:32:53Z</time>
      </trkpt>
      <trkpt lat="50.8700530" lon="7.4286930">
        <ele>173.1700000</ele>
        <time>2010-08-21T14:32:54Z</time>
      </trkpt>
      <trkpt lat="50.8698610" lon="7.4286760">
        <ele>173.1700000</ele>
        <time>2010-08-21T14:32:55Z</time>
      </trkpt>
      <trkpt lat="50.8696680" lon="7.4286830">
        <ele>172.6900000</ele>
        <time>2010-08-21T14:32:56Z</time>
      </trkpt>
      <trkpt lat="50.8694760" lon="7.4287140">
        <ele>172.2100000</ele>
        <time>2010-08-21T14:32:57Z</time>
      </trkpt>
      <trkpt lat="50.8692870" lon="7.4287730">
        <ele>172.2100000</ele>
        <time>2010-08-21T14:32:58Z</time>
      </trkpt>
      <trkpt lat="50.8691030" lon="7.4288380">
        <ele>171.7300000</ele>
        <time>2010-08-21T14:32:59Z</time>
      </trkpt>
      <trkpt lat="50.8676230" lon="7.4294500">
        <ele>172.2100000</ele>
        <time>2010-08-21T14:33:08Z</time>
      </trkpt>
      <trkpt lat="50.8674760" lon="7.4295490">
        <ele>172.2100000</ele>
        <time>2010-08-21T14:33:09Z</time>
      </trkpt>
      <trkpt lat="50.8673350" lon="7.4296650">
        <ele>171.7300000</ele>
        <time>2010-08-21T14:33:10Z</time>
      </trkpt>
      <trkpt lat="50.8660400" lon="7.4307060">
        <ele>170.7700000</ele>
        <time>2010-08-21T14:33:20Z</time>
      </trkpt>
      <trkpt lat="50.8658770" lon="7.4306900">
        <ele>170.7700000</ele>
        <time>2010-08-21T14:33:21Z</time>
      </trkpt>
      <trkpt lat="50.8657260" lon="7.4305940">
        <ele>170.2900000</ele>
        <time>2010-08-21T14:33:22Z</time>
      </trkpt>
      <trkpt lat="50.8655780" lon="7.4305100">
        <ele>170.2900000</ele>
        <time>2010-08-21T14:33:23Z</time>
      </trkpt>
      <trkpt lat="50.8654330" lon="7.4303780">
        <ele>169.3300000</ele>
        <time>2010-08-21T14:33:24Z</time>
      </trkpt>
      <trkpt lat="50.8652850" lon="7.4302280">
        <ele>168.8500000</ele>
        <time>2010-08-21T14:33:25Z</time>
      </trkpt>
      <trkpt lat="50.8651370" lon="7.4301000">
        <ele>168.3700000</ele>
        <time>2010-08-21T14:33:26Z</time>
      </trkpt>
      <trkpt lat="50.8648280" lon="7.4298850">
        <ele>167.8900000</ele>
        <time>2010-08-21T14:33:28Z</time>
      </trkpt>
      <trkpt lat="50.8644610" lon="7.4297630">
        <ele>166.4500000</ele>
        <time>2010-08-21T14:33:30Z</time>
      </trkpt>
      <trkpt lat="50.8629410" lon="7.4296710">
        <ele>164.5200000</ele>
        <time>2010-08-21T14:33:38Z</time>
      </trkpt>
      <trkpt lat="50.8627680" lon="7.4297160">
        <ele>165.0000000</ele>
        <time>2010-08-21T14:33:39Z</time>
      </trkpt>
      <trkpt lat="50.8626090" lon="7.4297900">
        <ele>165.0000000</ele>
        <time>2010-08-21T14:33:40Z</time>
      </trkpt>
      <trkpt lat="50.8624510" lon="7.4299350">
        <ele>165.0000000</ele>
        <time>2010-08-21T14:33:41Z</time>
      </trkpt>
      <trkpt lat="50.8623010" lon="7.4301300">
        <ele>165.4800000</ele>
        <time>2010-08-21T14:33:42Z</time>
      </trkpt>
      <trkpt lat="50.8621460" lon="7.4303530">
        <ele>164.5200000</ele>
        <time>2010-08-21T14:33:43Z</time>
      </trkpt>
      <trkpt lat="50.8619880" lon="7.4305780">
        <ele>163.5600000</ele>
        <time>2010-08-21T14:33:44Z</time>
      </trkpt>
      <trkpt lat="50.8602750" lon="7.4326950">
        <ele>166.4500000</ele>
        <time>2010-08-21T14:33:55Z</time>
      </trkpt>
      <trkpt lat="50.8601620" lon="7.4329260">
        <ele>165.9600000</ele>
        <time>2010-08-21T14:33:56Z</time>
      </trkpt>
      <trkpt lat="50.8598360" lon="7.4339490">
        <ele>161.1600000</ele>
        <time>2010-08-21T14:34:00Z</time>
      </trkpt>
      <trkpt lat="50.8598010" lon="7.4342320">
        <ele>159.2400000</ele>
        <time>2010-08-21T14:34:01Z</time>
      </trkpt>
      <trkpt lat="50.8597590" lon="7.4345140">
        <ele>159.7200000</ele>
        <time>2010-08-21T14:34:02Z</time>
      </trkpt>
      <trkpt lat="50.8594780" lon="7.4355860">
        <ele>159.2400000</ele>
        <time>2010-08-21T14:34:06Z</time>
      </trkpt>
      <trkpt lat="50.8585120" lon="7.4376080">
        <ele>158.7500000</ele>
        <time>2010-08-21T14:34:14Z</time>
      </trkpt>
      <trkpt lat="50.8577140" lon="7.4398790">
        <ele>155.8700000</ele>
        <time>2010-08-21T14:34:23Z</time>
      </trkpt>
      <trkpt lat="50.8576310" lon="7.4405220">
        <ele>154.4300000</ele>
        <time>2010-08-21T14:34:26Z</time>
      </trkpt>
      <trkpt lat="50.8576310" lon="7.4406850">
        <ele>153.4700000</ele>
        <time>2010-08-21T14:34:27Z</time>
      </trkpt>
      <trkpt lat="50.8576390" lon="7.4408150">
        <ele>152.5100000</ele>
        <time>2010-08-21T14:34:28Z</time>
      </trkpt>
      <trkpt lat="50.8576980" lon="7.4410670">
        <ele>150.5800000</ele>
        <time>2010-08-21T14:34:34Z</time>
      </trkpt>
      <trkpt lat="50.8577020" lon="7.4413780">
        <ele>154.4300000</ele>
        <time>2010-08-21T14:34:52Z</time>
      </trkpt>
      <trkpt lat="50.8577270" lon="7.4423160">
        <ele>156.8300000</ele>
        <time>2010-08-21T14:34:57Z</time>
      </trkpt>
      <trkpt lat="50.8577110" lon="7.4424950">
        <ele>157.3100000</ele>
        <time>2010-08-21T14:34:58Z</time>
      </trkpt>
      <trkpt lat="50.8576850" lon="7.4426630">
        <ele>158.2700000</ele>
        <time>2010-08-21T14:34:59Z</time>
      </trkpt>
      <trkpt lat="50.8576490" lon="7.4431000">
        <ele>160.2000000</ele>
        <time>2010-08-21T14:35:02Z</time>
      </trkpt>
      <trkpt lat="50.8576590" lon="7.4432440">
        <ele>161.6400000</ele>
        <time>2010-08-21T14:35:03Z</time>
      </trkpt>
      <trkpt lat="50.8577030" lon="7.4434000">
        <ele>162.6000000</ele>
        <time>2010-08-21T14:35:04Z</time>
      </trkpt>
      <trkpt lat="50.8577800" lon="7.4435730">
        <ele>163.0800000</ele>
        <time>2010-08-21T14:35:05Z</time>
      </trkpt>
      <trkpt lat="50.8578590" lon="7.4437420">
        <ele>163.0800000</ele>
        <time>2010-08-21T14:35:06Z</time>
      </trkpt>
      <trkpt lat="50.8580310" lon="7.4445240">
        <ele>167.8900000</ele>
        <time>2010-08-21T14:35:11Z</time>
      </trkpt>
      <trkpt lat="50.8579920" lon="7.4446890">
        <ele>170.7700000</ele>
        <time>2010-08-21T14:35:12Z</time>
      </trkpt>
      <trkpt lat="50.8579290" lon="7.4461690">
        <ele>184.2300000</ele>
        <time>2010-08-21T14:35:17Z</time>
      </trkpt>
      <trkpt lat="50.8578030" lon="7.4479510">
        <ele>190.4800000</ele>
        <time>2010-08-21T14:35:22Z</time>
      </trkpt>
      <trkpt lat="50.8577210" lon="7.4491990">
        <ele>199.1300000</ele>
        <time>2010-08-21T14:35:27Z</time>
      </trkpt>
      <trkpt lat="50.8576710" lon="7.4493420">
        <ele>201.0500000</ele>
        <time>2010-08-21T14:35:28Z</time>
      </trkpt>
      <trkpt lat="50.8575940" lon="7.4494350">
        <ele>202.4900000</ele>
        <time>2010-08-21T14:35:29Z</time>
      </trkpt>
      <trkpt lat="50.8574980" lon="7.4495070">
        <ele>203.9400000</ele>
        <time>2010-08-21T14:35:30Z</time>
      </trkpt>
      <trkpt lat="50.8573960" lon="7.4495630">
        <ele>204.4200000</ele>
        <time>2010-08-21T14:35:31Z</time>
      </trkpt>
      <trkpt lat="50.8572740" lon="7.4496100">
        <ele>205.3800000</ele>
        <time>2010-08-21T14:35:32Z</time>
      </trkpt>
      <trkpt lat="50.8571650" lon="7.4496640">
        <ele>205.3800000</ele>
        <time>2010-08-21T14:35:33Z</time>
      </trkpt>
      <trkpt lat="50.8570650" lon="7.4497400">
        <ele>206.3400000</ele>
        <time>2010-08-21T14:35:34Z</time>
      </trkpt>
      <trkpt lat="50.8569850" lon="7.4498490">
        <ele>206.8200000</ele>
        <time>2010-08-21T14:35:35Z</time>
      </trkpt>
      <trkpt lat="50.8569450" lon="7.4499800">
        <ele>207.7800000</ele>
        <time>2010-08-21T14:35:36Z</time>
      </trkpt>
      <trkpt lat="50.8569540" lon="7.4501300">
        <ele>209.2200000</ele>
        <time>2010-08-21T14:35:37Z</time>
      </trkpt>
      <trkpt lat="50.8570060" lon="7.4503060">
        <ele>210.1900000</ele>
        <time>2010-08-21T14:35:38Z</time>
      </trkpt>
      <trkpt lat="50.8570570" lon="7.4504840">
        <ele>211.6300000</ele>
        <time>2010-08-21T14:35:39Z</time>
      </trkpt>
      <trkpt lat="50.8571140" lon="7.4506650">
        <ele>212.5900000</ele>
        <time>2010-08-21T14:35:40Z</time>
      </trkpt>
      <trkpt lat="50.8571610" lon="7.4508550">
        <ele>213.0700000</ele>
        <time>2010-08-21T14:35:41Z</time>
      </trkpt>
      <trkpt lat="50.8571830" lon="7.4510500">
        <ele>213.5500000</ele>
        <time>2010-08-21T14:35:42Z</time>
      </trkpt>
      <trkpt lat="50.8571800" lon="7.4512510">
        <ele>214.0300000</ele>
        <time>2010-08-21T14:35:43Z</time>
      </trkpt>
      <trkpt lat="50.8571370" lon="7.4514420">
        <ele>214.9900000</ele>
        <time>2010-08-21T14:35:44Z</time>
      </trkpt>
      <trkpt lat="50.8570630" lon="7.4516060">
        <ele>215.9500000</ele>
        <time>2010-08-21T14:35:45Z</time>
      </trkpt>
      <trkpt lat="50.8569440" lon="7.4517510">
        <ele>216.9100000</ele>
        <time>2010-08-21T14:35:46Z</time>
      </trkpt>
      <trkpt lat="50.8568060" lon="7.4519230">
        <ele>217.8800000</ele>
        <time>2010-08-21T14:35:47Z</time>
      </trkpt>
      <trkpt lat="50.8566430" lon="7.4520420">
        <ele>218.3600000</ele>
        <time>2010-08-21T14:35:48Z</time>
      </trkpt>
      <trkpt lat="50.8564600" lon="7.4521690">
        <ele>219.8000000</ele>
        <time>2010-08-21T14:35:49Z</time>
      </trkpt>
      <trkpt lat="50.8562950" lon="7.4523020">
        <ele>221.2400000</ele>
        <time>2010-08-21T14:35:50Z</time>
      </trkpt>
      <trkpt lat="50.8560040" lon="7.4525780">
        <ele>224.1200000</ele>
        <time>2010-08-21T14:35:52Z</time>
      </trkpt>
      <trkpt lat="50.8558860" lon="7.4527310">
        <ele>225.0900000</ele>
        <time>2010-08-21T14:35:53Z</time>
      </trkpt>
      <trkpt lat="50.8557990" lon="7.4528980">
        <ele>226.0500000</ele>
        <time>2010-08-21T14:35:54Z</time>
      </trkpt>
      <trkpt lat="50.8557670" lon="7.4530950">
        <ele>227.4900000</ele>
        <time>2010-08-21T14:35:55Z</time>
      </trkpt>
      <trkpt lat="50.8557720" lon="7.4533080">
        <ele>228.4500000</ele>
        <time>2010-08-21T14:35:56Z</time>
      </trkpt>
      <trkpt lat="50.8558410" lon="7.4535440">
        <ele>229.8900000</ele>
        <time>2010-08-21T14:35:57Z</time>
      </trkpt>
      <trkpt lat="50.8558650" lon="7.4538260">
        <ele>230.8500000</ele>
        <time>2010-08-21T14:35:58Z</time>
      </trkpt>
      <trkpt lat="50.8558810" lon="7.4541140">
        <ele>231.3300000</ele>
        <time>2010-08-21T14:35:59Z</time>
      </trkpt>
      <trkpt lat="50.8559210" lon="7.4544220">
        <ele>232.3000000</ele>
        <time>2010-08-21T14:36:00Z</time>
      </trkpt>
      <trkpt lat="50.8559090" lon="7.4547480">
        <ele>233.2600000</ele>
        <time>2010-08-21T14:36:01Z</time>
      </trkpt>
      <trkpt lat="50.8558990" lon="7.4550870">
        <ele>234.7000000</ele>
        <time>2010-08-21T14:36:02Z</time>
      </trkpt>
      <trkpt lat="50.8558590" lon="7.4554350">
        <ele>235.6600000</ele>
        <time>2010-08-21T14:36:03Z</time>
      </trkpt>
      <trkpt lat="50.8558160" lon="7.4557650">
        <ele>237.5800000</ele>
        <time>2010-08-21T14:36:04Z</time>
      </trkpt>
      <trkpt lat="50.8556450" lon="7.4572650">
        <ele>248.1600000</ele>
        <time>2010-08-21T14:36:10Z</time>
      </trkpt>
      <trkpt lat="50.8552680" lon="7.4596950">
        <ele>262.1000000</ele>
        <time>2010-08-21T14:36:20Z</time>
      </trkpt>
      <trkpt lat="50.8548500" lon="7.4616530">
        <ele>261.1400000</ele>
        <time>2010-08-21T14:36:29Z</time>
      </trkpt>
      <trkpt lat="50.8544140" lon="7.4634880">
        <ele>258.2500000</ele>
        <time>2010-08-21T14:36:38Z</time>
      </trkpt>
      <trkpt lat="50.8541820" lon="7.4640310">
        <ele>257.2900000</ele>
        <time>2010-08-21T14:36:41Z</time>
      </trkpt>
      <trkpt lat="50.8540800" lon="7.4641740">
        <ele>256.8100000</ele>
        <time>2010-08-21T14:36:42Z</time>
      </trkpt>
      <trkpt lat="50.8529600" lon="7.4655140">
        <ele>249.1200000</ele>
        <time>2010-08-21T14:36:52Z</time>
      </trkpt>
      <trkpt lat="50.8522970" lon="7.4663070">
        <ele>243.3500000</ele>
        <time>2010-08-21T14:36:58Z</time>
      </trkpt>
      <trkpt lat="50.8521890" lon="7.4664870">
        <ele>242.3900000</ele>
        <time>2010-08-21T14:36:59Z</time>
      </trkpt>
      <trkpt lat="50.8520900" lon="7.4667070">
        <ele>241.4300000</ele>
        <time>2010-08-21T14:37:00Z</time>
      </trkpt>
      <trkpt lat="50.8515740" lon="7.4683930">
        <ele>233.2600000</ele>
        <time>2010-08-21T14:37:06Z</time>
      </trkpt>
      <trkpt lat="50.8509480" lon="7.4709740">
        <ele>222.2000000</ele>
        <time>2010-08-21T14:37:16Z</time>
      </trkpt>
      <trkpt lat="50.8503440" lon="7.4728480">
        <ele>215.4700000</ele>
        <time>2010-08-21T14:37:22Z</time>
      </trkpt>
      <trkpt lat="50.8494760" lon="7.4744340">
        <ele>212.5900000</ele>
        <time>2010-08-21T14:37:29Z</time>
      </trkpt>
      <trkpt lat="50.8487160" lon="7.4759400">
        <ele>217.8800000</ele>
        <time>2010-08-21T14:37:36Z</time>
      </trkpt>
      <trkpt lat="50.8486720" lon="7.4761940">
        <ele>218.8400000</ele>
        <time>2010-08-21T14:37:37Z</time>
      </trkpt>
      <trkpt lat="50.8486310" lon="7.4764470">
        <ele>220.2800000</ele>
        <time>2010-08-21T14:37:38Z</time>
      </trkpt>
      <trkpt lat="50.8485430" lon="7.4771620">
        <ele>222.6800000</ele>
        <time>2010-08-21T14:37:41Z</time>
      </trkpt>
      <trkpt lat="50.8485320" lon="7.4774000">
        <ele>223.1600000</ele>
        <time>2010-08-21T14:37:42Z</time>
      </trkpt>
      <trkpt lat="50.8487440" lon="7.4794250">
        <ele>224.1200000</ele>
        <time>2010-08-21T14:37:50Z</time>
      </trkpt>
      <trkpt lat="50.8494230" lon="7.4824080">
        <ele>219.3200000</ele>
        <time>2010-08-21T14:38:01Z</time>
      </trkpt>
      <trkpt lat="50.8494570" lon="7.4833550">
        <ele>214.0300000</ele>
        <time>2010-08-21T14:38:04Z</time>
      </trkpt>
      <trkpt lat="50.8494340" lon="7.4836590">
        <ele>212.1100000</ele>
        <time>2010-08-21T14:38:05Z</time>
      </trkpt>
      <trkpt lat="50.8493940" lon="7.4839560">
        <ele>210.1900000</ele>
        <time>2010-08-21T14:38:06Z</time>
      </trkpt>
      <trkpt lat="50.8493410" lon="7.4842450">
        <ele>208.2600000</ele>
        <time>2010-08-21T14:38:07Z</time>
      </trkpt>
      <trkpt lat="50.8492760" lon="7.4845270">
        <ele>205.8600000</ele>
        <time>2010-08-21T14:38:08Z</time>
      </trkpt>
      <trkpt lat="50.8491950" lon="7.4848050">
        <ele>203.9400000</ele>
        <time>2010-08-21T14:38:09Z</time>
      </trkpt>
      <trkpt lat="50.8491010" lon="7.4850820">
        <ele>202.0100000</ele>
        <time>2010-08-21T14:38:10Z</time>
      </trkpt>
      <trkpt lat="50.8489850" lon="7.4853460">
        <ele>200.5700000</ele>
        <time>2010-08-21T14:38:11Z</time>
      </trkpt>
      <trkpt lat="50.8488550" lon="7.4855950">
        <ele>198.6500000</ele>
        <time>2010-08-21T14:38:12Z</time>
      </trkpt>
      <trkpt lat="50.8487080" lon="7.4858350">
        <ele>196.7300000</ele>
        <time>2010-08-21T14:38:13Z</time>
      </trkpt>
      <trkpt lat="50.8485440" lon="7.4860530">
        <ele>194.8000000</ele>
        <time>2010-08-21T14:38:14Z</time>
      </trkpt>
      <trkpt lat="50.8483780" lon="7.4862490">
        <ele>192.8800000</ele>
        <time>2010-08-21T14:38:15Z</time>
      </trkpt>
      <trkpt lat="50.8482120" lon="7.4864190">
        <ele>191.4400000</ele>
        <time>2010-08-21T14:38:16Z</time>
      </trkpt>
      <trkpt lat="50.8480470" lon="7.4865660">
        <ele>190.0000000</ele>
        <time>2010-08-21T14:38:17Z</time>
      </trkpt>
      <trkpt lat="50.8470190" lon="7.4872450">
        <ele>181.8300000</ele>
        <time>2010-08-21T14:38:24Z</time>
      </trkpt>
      <trkpt lat="50.8458250" lon="7.4879560">
        <ele>174.6200000</ele>
        <time>2010-08-21T14:38:34Z</time>
      </trkpt>
      <trkpt lat="50.8456050" lon="7.4879640">
        <ele>173.6600000</ele>
        <time>2010-08-21T14:38:39Z</time>
      </trkpt>
      <trkpt lat="50.8455530" lon="7.4879770">
        <ele>173.6600000</ele>
        <time>2010-08-21T14:38:40Z</time>
      </trkpt>
      <trkpt lat="50.8455060" lon="7.4880210">
        <ele>173.6600000</ele>
        <time>2010-08-21T14:38:41Z</time>
      </trkpt>
      <trkpt lat="50.8454700" lon="7.4880950">
        <ele>173.6600000</ele>
        <time>2010-08-21T14:38:42Z</time>
      </trkpt>
      <trkpt lat="50.8454250" lon="7.4881820">
        <ele>173.1700000</ele>
        <time>2010-08-21T14:38:43Z</time>
      </trkpt>
      <trkpt lat="50.8453720" lon="7.4882680">
        <ele>173.1700000</ele>
        <time>2010-08-21T14:38:44Z</time>
      </trkpt>
      <trkpt lat="50.8453070" lon="7.4883460">
        <ele>173.6600000</ele>
        <time>2010-08-21T14:38:45Z</time>
      </trkpt>
      <trkpt lat="50.8452380" lon="7.4884200">
        <ele>174.1400000</ele>
        <time>2010-08-21T14:38:46Z</time>
      </trkpt>
      <trkpt lat="50.8450700" lon="7.4885730">
        <ele>175.5800000</ele>
        <time>2010-08-21T14:38:48Z</time>
      </trkpt>
      <trkpt lat="50.8449650" lon="7.4886330">
        <ele>176.0600000</ele>
        <time>2010-08-21T14:38:49Z</time>
      </trkpt>
      <trkpt lat="50.8448270" lon="7.4886280">
        <ele>176.5400000</ele>
        <time>2010-08-21T14:38:50Z</time>
      </trkpt>
      <trkpt lat="50.8447150" lon="7.4885650">
        <ele>177.5000000</ele>
        <time>2010-08-21T14:38:51Z</time>
      </trkpt>
      <trkpt lat="50.8445960" lon="7.4884440">
        <ele>178.4600000</ele>
        <time>2010-08-21T14:38:52Z</time>
      </trkpt>
      <trkpt lat="50.8444790" lon="7.4882750">
        <ele>179.9000000</ele>
        <time>2010-08-21T14:38:53Z</time>
      </trkpt>
      <trkpt lat="50.8443670" lon="7.4880900">
        <ele>180.8700000</ele>
        <time>2010-08-21T14:38:54Z</time>
      </trkpt>
      <trkpt lat="50.8441530" lon="7.4877870">
        <ele>182.7900000</ele>
        <time>2010-08-21T14:38:56Z</time>
      </trkpt>
      <trkpt lat="50.8440210" lon="7.4876890">
        <ele>184.2300000</ele>
        <time>2010-08-21T14:38:57Z</time>
      </trkpt>
      <trkpt lat="50.8438640" lon="7.4876160">
        <ele>185.1900000</ele>
        <time>2010-08-21T14:38:58Z</time>
      </trkpt>
      <trkpt lat="50.8436670" lon="7.4875820">
        <ele>186.6300000</ele>
        <time>2010-08-21T14:38:59Z</time>
      </trkpt>
      <trkpt lat="50.8434670" lon="7.4875190">
        <ele>188.5600000</ele>
        <time>2010-08-21T14:39:00Z</time>
      </trkpt>
      <trkpt lat="50.8431070" lon="7.4874430">
        <ele>191.9200000</ele>
        <time>2010-08-21T14:39:02Z</time>
      </trkpt>
      <trkpt lat="50.8429360" lon="7.4874570">
        <ele>193.3600000</ele>
        <time>2010-08-21T14:39:03Z</time>
      </trkpt>
      <trkpt lat="50.8427590" lon="7.4875220">
        <ele>195.2800000</ele>
        <time>2010-08-21T14:39:04Z</time>
      </trkpt>
      <trkpt lat="50.8425780" lon="7.4876100">
        <ele>196.7300000</ele>
        <time>2010-08-21T14:39:05Z</time>
      </trkpt>
      <trkpt lat="50.8424050" lon="7.4877360">
        <ele>198.1700000</ele>
        <time>2010-08-21T14:39:06Z</time>
      </trkpt>
      <trkpt lat="50.8422530" lon="7.4878650">
        <ele>200.0900000</ele>
        <time>2010-08-21T14:39:07Z</time>
      </trkpt>
      <trkpt lat="50.8412530" lon="7.4886950">
        <ele>212.5900000</ele>
        <time>2010-08-21T14:39:15Z</time>
      </trkpt>
      <trkpt lat="50.8411910" lon="7.4887970">
        <ele>214.0300000</ele>
        <time>2010-08-21T14:39:16Z</time>
      </trkpt>
      <trkpt lat="50.8411470" lon="7.4889120">
        <ele>215.4700000</ele>
        <time>2010-08-21T14:39:17Z</time>
      </trkpt>
      <trkpt lat="50.8411280" lon="7.4890410">
        <ele>215.9500000</ele>
        <time>2010-08-21T14:39:18Z</time>
      </trkpt>
      <trkpt lat="50.8410960" lon="7.4891720">
        <ele>216.4300000</ele>
        <time>2010-08-21T14:39:19Z</time>
      </trkpt>
      <trkpt lat="50.8410340" lon="7.4892980">
        <ele>216.9100000</ele>
        <time>2010-08-21T14:39:20Z</time>
      </trkpt>
      <trkpt lat="50.8409550" lon="7.4894340">
        <ele>216.9100000</ele>
        <time>2010-08-21T14:39:21Z</time>
      </trkpt>
      <trkpt lat="50.8408500" lon="7.4895890">
        <ele>217.4000000</ele>
        <time>2010-08-21T14:39:22Z</time>
      </trkpt>
      <trkpt lat="50.8407390" lon="7.4897730">
        <ele>216.9100000</ele>
        <time>2010-08-21T14:39:23Z</time>
      </trkpt>
      <trkpt lat="50.8401320" lon="7.4910950">
        <ele>214.0300000</ele>
        <time>2010-08-21T14:39:28Z</time>
      </trkpt>
      <trkpt lat="50.8395130" lon="7.4928390">
        <ele>210.1900000</ele>
        <time>2010-08-21T14:39:34Z</time>
      </trkpt>
      <trkpt lat="50.8393730" lon="7.4930570">
        <ele>210.6700000</ele>
        <time>2010-08-21T14:39:35Z</time>
      </trkpt>
      <trkpt lat="50.8392110" lon="7.4932400">
        <ele>211.6300000</ele>
        <time>2010-08-21T14:39:36Z</time>
      </trkpt>
      <trkpt lat="50.8390310" lon="7.4934020">
        <ele>212.5900000</ele>
        <time>2010-08-21T14:39:37Z</time>
      </trkpt>
      <trkpt lat="50.8388530" lon="7.4935640">
        <ele>214.5100000</ele>
        <time>2010-08-21T14:39:38Z</time>
      </trkpt>
      <trkpt lat="50.8386710" lon="7.4937250">
        <ele>216.9100000</ele>
        <time>2010-08-21T14:39:39Z</time>
      </trkpt>
      <trkpt lat="50.8369850" lon="7.4953430">
        <ele>234.7000000</ele>
        <time>2010-08-21T14:39:49Z</time>
      </trkpt>
      <trkpt lat="50.8362070" lon="7.4969610">
        <ele>246.2300000</ele>
        <time>2010-08-21T14:39:55Z</time>
      </trkpt>
      <trkpt lat="50.8356130" lon="7.4980700">
        <ele>252.9600000</ele>
        <time>2010-08-21T14:39:59Z</time>
      </trkpt>
      <trkpt lat="50.8354140" lon="7.4982980">
        <ele>255.3700000</ele>
        <time>2010-08-21T14:40:00Z</time>
      </trkpt>
      <trkpt lat="50.8352190" lon="7.4985050">
        <ele>257.2900000</ele>
        <time>2010-08-21T14:40:01Z</time>
      </trkpt>
      <trkpt lat="50.8340810" lon="7.5001920">
        <ele>278.4400000</ele>
        <time>2010-08-21T14:40:08Z</time>
      </trkpt>
      <trkpt lat="50.8340090" lon="7.5004840">
        <ele>280.8400000</ele>
        <time>2010-08-21T14:40:09Z</time>
      </trkpt>
      <trkpt lat="50.8334950" lon="7.5026880">
        <ele>292.8600000</ele>
        <time>2010-08-21T14:40:16Z</time>
      </trkpt>
      <trkpt lat="50.8326760" lon="7.5041060">
        <ele>305.8400000</ele>
        <time>2010-08-21T14:40:22Z</time>
      </trkpt>
      <trkpt lat="50.8316830" lon="7.5052840">
        <ele>320.2600000</ele>
        <time>2010-08-21T14:40:28Z</time>
      </trkpt>
      <trkpt lat="50.8316060" lon="7.5055820">
        <ele>322.1800000</ele>
        <time>2010-08-21T14:40:29Z</time>
      </trkpt>
      <trkpt lat="50.8314990" lon="7.5058710">
        <ele>323.1400000</ele>
        <time>2010-08-21T14:40:30Z</time>
      </trkpt>
      <trkpt lat="50.8314090" lon="7.5061680">
        <ele>325.0600000</ele>
        <time>2010-08-21T14:40:31Z</time>
      </trkpt>
      <trkpt lat="50.8313450" lon="7.5064840">
        <ele>326.5000000</ele>
        <time>2010-08-21T14:40:32Z</time>
      </trkpt>
      <trkpt lat="50.8312840" lon="7.5068080">
        <ele>327.4700000</ele>
        <time>2010-08-21T14:40:33Z</time>
      </trkpt>
      <trkpt lat="50.8312180" lon="7.5071370">
        <ele>328.9100000</ele>
        <time>2010-08-21T14:40:34Z</time>
      </trkpt>
      <trkpt lat="50.8303200" lon="7.5106870">
        <ele>338.5200000</ele>
        <time>2010-08-21T14:40:45Z</time>
      </trkpt>
      <trkpt lat="50.8293380" lon="7.5131360">
        <ele>338.5200000</ele>
        <time>2010-08-21T14:40:53Z</time>
      </trkpt>
      <trkpt lat="50.8281320" lon="7.5160890">
        <ele>329.8700000</ele>
        <time>2010-08-21T14:41:03Z</time>
      </trkpt>
      <trkpt lat="50.8267150" lon="7.5193250">
        <ele>323.6200000</ele>
        <time>2010-08-21T14:41:15Z</time>
      </trkpt>
      <trkpt lat="50.8260530" lon="7.5200530">
        <ele>320.7400000</ele>
        <time>2010-08-21T14:41:19Z</time>
      </trkpt>
      <trkpt lat="50.8258500" lon="7.5201670">
        <ele>319.3000000</ele>
        <time>2010-08-21T14:41:20Z</time>
      </trkpt>
      <trkpt lat="50.8256480" lon="7.5202680">
        <ele>317.8500000</ele>
        <time>2010-08-21T14:41:21Z</time>
      </trkpt>
      <trkpt lat="50.8254320" lon="7.5203440">
        <ele>316.8900000</ele>
        <time>2010-08-21T14:41:22Z</time>
      </trkpt>
      <trkpt lat="50.8251840" lon="7.5203990">
        <ele>317.3700000</ele>
        <time>2010-08-21T14:41:23Z</time>
      </trkpt>
      <trkpt lat="50.8249770" lon="7.5204480">
        <ele>314.9700000</ele>
        <time>2010-08-21T14:41:24Z</time>
      </trkpt>
      <trkpt lat="50.8229390" lon="7.5210520">
        <ele>298.1500000</ele>
        <time>2010-08-21T14:41:34Z</time>
      </trkpt>
      <trkpt lat="50.8216170" lon="7.5221220">
        <ele>286.1300000</ele>
        <time>2010-08-21T14:41:41Z</time>
      </trkpt>
      <trkpt lat="50.8205820" lon="7.5239330">
        <ele>271.2300000</ele>
        <time>2010-08-21T14:41:48Z</time>
      </trkpt>
      <trkpt lat="50.8200280" lon="7.5261810">
        <ele>256.8100000</ele>
        <time>2010-08-21T14:41:55Z</time>
      </trkpt>
      <trkpt lat="50.8191620" lon="7.5280230">
        <ele>242.3900000</ele>
        <time>2010-08-21T14:42:02Z</time>
      </trkpt>
      <trkpt lat="50.8185940" lon="7.5285940">
        <ele>234.7000000</ele>
        <time>2010-08-21T14:42:05Z</time>
      </trkpt>
      <trkpt lat="50.8183730" lon="7.5287130">
        <ele>233.2600000</ele>
        <time>2010-08-21T14:42:06Z</time>
      </trkpt>
      <trkpt lat="50.8170640" lon="7.5297940">
        <ele>219.3200000</ele>
        <time>2010-08-21T14:42:13Z</time>
      </trkpt>
      <trkpt lat="50.8158250" lon="7.5309280">
        <ele>202.0100000</ele>
        <time>2010-08-21T14:42:20Z</time>
      </trkpt>
      <trkpt lat="50.8142940" lon="7.5316130">
        <ele>187.1100000</ele>
        <time>2010-08-21T14:42:28Z</time>
      </trkpt>
      <trkpt lat="50.8141480" lon="7.5317750">
        <ele>185.1900000</ele>
        <time>2010-08-21T14:42:29Z</time>
      </trkpt>
      <trkpt lat="50.8140480" lon="7.5319680">
        <ele>183.2700000</ele>
        <time>2010-08-21T14:42:30Z</time>
      </trkpt>
      <trkpt lat="50.8139670" lon="7.5322030">
        <ele>181.8300000</ele>
        <time>2010-08-21T14:42:31Z</time>
      </trkpt>
      <trkpt lat="50.8139000" lon="7.5324620">
        <ele>179.9000000</ele>
        <time>2010-08-21T14:42:32Z</time>
      </trkpt>
      <trkpt lat="50.8138400" lon="7.5327250">
        <ele>178.9400000</ele>
        <time>2010-08-21T14:42:33Z</time>
      </trkpt>
      <trkpt lat="50.8138580" lon="7.5329980">
        <ele>178.4600000</ele>
        <time>2010-08-21T14:42:34Z</time>
      </trkpt>
      <trkpt lat="50.8138850" lon="7.5332170">
        <ele>177.5000000</ele>
        <time>2010-08-21T14:42:35Z</time>
      </trkpt>
      <trkpt lat="50.8139290" lon="7.5334680">
        <ele>176.0600000</ele>
        <time>2010-08-21T14:42:36Z</time>
      </trkpt>
      <trkpt lat="50.8140160" lon="7.5337040">
        <ele>174.1400000</ele>
        <time>2010-08-21T14:42:37Z</time>
      </trkpt>
      <trkpt lat="50.8141500" lon="7.5339500">
        <ele>173.1700000</ele>
        <time>2010-08-21T14:42:38Z</time>
      </trkpt>
      <trkpt lat="50.8143050" lon="7.5341380">
        <ele>172.2100000</ele>
        <time>2010-08-21T14:42:39Z</time>
      </trkpt>
      <trkpt lat="50.8144880" lon="7.5342290">
        <ele>171.2500000</ele>
        <time>2010-08-21T14:42:40Z</time>
      </trkpt>
      <trkpt lat="50.8147170" lon="7.5343160">
        <ele>171.2500000</ele>
        <time>2010-08-21T14:42:41Z</time>
      </trkpt>
      <trkpt lat="50.8149210" lon="7.5343630">
        <ele>169.8100000</ele>
        <time>2010-08-21T14:42:42Z</time>
      </trkpt>
      <trkpt lat="50.8151110" lon="7.5343920">
        <ele>167.4100000</ele>
        <time>2010-08-21T14:42:43Z</time>
      </trkpt>
      <trkpt lat="50.8153060" lon="7.5343840">
        <ele>165.4800000</ele>
        <time>2010-08-21T14:42:44Z</time>
      </trkpt>
      <trkpt lat="50.8154910" lon="7.5343840">
        <ele>164.5200000</ele>
        <time>2010-08-21T14:42:45Z</time>
      </trkpt>
      <trkpt lat="50.8156550" lon="7.5344070">
        <ele>163.0800000</ele>
        <time>2010-08-21T14:42:46Z</time>
      </trkpt>
      <trkpt lat="50.8158030" lon="7.5344650">
        <ele>160.6800000</ele>
        <time>2010-08-21T14:42:47Z</time>
      </trkpt>
      <trkpt lat="50.8159350" lon="7.5345860">
        <ele>159.7200000</ele>
        <time>2010-08-21T14:42:48Z</time>
      </trkpt>
      <trkpt lat="50.8160450" lon="7.5347390">
        <ele>157.7900000</ele>
        <time>2010-08-21T14:42:49Z</time>
      </trkpt>
      <trkpt lat="50.8161440" lon="7.5349200">
        <ele>156.8300000</ele>
        <time>2010-08-21T14:42:50Z</time>
      </trkpt>
      <trkpt lat="50.8162240" lon="7.5351320">
        <ele>155.3900000</ele>
        <time>2010-08-21T14:42:51Z</time>
      </trkpt>
      <trkpt lat="50.8162680" lon="7.5353660">
        <ele>153.4700000</ele>
        <time>2010-08-21T14:42:52Z</time>
      </trkpt>
      <trkpt lat="50.8162580" lon="7.5356120">
        <ele>151.5400000</ele>
        <time>2010-08-21T14:42:53Z</time>
      </trkpt>
      <trkpt lat="50.8161880" lon="7.5358700">
        <ele>150.5800000</ele>
        <time>2010-08-21T14:42:54Z</time>
      </trkpt>
      <trkpt lat="50.8160830" lon="7.5361290">
        <ele>149.6200000</ele>
        <time>2010-08-21T14:42:55Z</time>
      </trkpt>
      <trkpt lat="50.8159930" lon="7.5363430">
        <ele>146.7400000</ele>
        <time>2010-08-21T14:42:56Z</time>
      </trkpt>
      <trkpt lat="50.8158340" lon="7.5367060">
        <ele>129.4300000</ele>
        <time>2010-08-21T14:43:00Z</time>
      </trkpt>
      <trkpt lat="50.8157830" lon="7.5366640">
        <ele>123.6700000</ele>
        <time>2010-08-21T14:43:01Z</time>
      </trkpt>
      <trkpt lat="50.8156870" lon="7.5365160">
        <ele>116.9400000</ele>
        <time>2010-08-21T14:43:02Z</time>
      </trkpt>
      <trkpt lat="50.8147160" lon="7.5356770">
        <ele>94.8300000</ele>
        <time>2010-08-21T14:43:05Z</time>
      </trkpt>
      <trkpt lat="50.8135960" lon="7.5351590">
        <ele>89.5400000</ele>
        <time>2010-08-21T14:43:09Z</time>
      </trkpt>
      <trkpt lat="50.8134440" lon="7.5351450">
        <ele>91.9400000</ele>
        <time>2010-08-21T14:43:10Z</time>
      </trkpt>
      <trkpt lat="50.8132570" lon="7.5351800">
        <ele>100.1100000</ele>
        <time>2010-08-21T14:43:11Z</time>
      </trkpt>
      <trkpt lat="50.8131240" lon="7.5352690">
        <ele>102.0400000</ele>
        <time>2010-08-21T14:43:12Z</time>
      </trkpt>
      <trkpt lat="50.8129970" lon="7.5353560">
        <ele>103.0000000</ele>
        <time>2010-08-21T14:43:13Z</time>
      </trkpt>
      <trkpt lat="50.8128750" lon="7.5354460">
        <ele>103.9600000</ele>
        <time>2010-08-21T14:43:14Z</time>
      </trkpt>
      <trkpt lat="50.8127580" lon="7.5355430">
        <ele>104.4400000</ele>
        <time>2010-08-21T14:43:15Z</time>
      </trkpt>
      <trkpt lat="50.8126370" lon="7.5356460">
        <ele>105.8800000</ele>
        <time>2010-08-21T14:43:16Z</time>
      </trkpt>
      <trkpt lat="50.8108140" lon="7.5372960">
        <ele>118.8600000</ele>
        <time>2010-08-21T14:43:31Z</time>
      </trkpt>
      <trkpt lat="50.8099740" lon="7.5383610">
        <ele>117.9000000</ele>
        <time>2010-08-21T14:43:39Z</time>
      </trkpt>
      <trkpt lat="50.8087960" lon="7.5397770">
        <ele>114.5300000</ele>
        <time>2010-08-21T14:43:50Z</time>
      </trkpt>
      <trkpt lat="50.8077380" lon="7.5401250">
        <ele>112.6100000</ele>
        <time>2010-08-21T14:43:57Z</time>
      </trkpt>
      <trkpt lat="50.8067690" lon="7.5403710">
        <ele>111.1700000</ele>
        <time>2010-08-21T14:44:05Z</time>
      </trkpt>
      <trkpt lat="50.8066400" lon="7.5405310">
        <ele>112.1300000</ele>
        <time>2010-08-21T14:44:10Z</time>
      </trkpt>
      <trkpt lat="50.8066260" lon="7.5406070">
        <ele>114.0500000</ele>
        <time>2010-08-21T14:44:15Z</time>
      </trkpt>
      <trkpt lat="50.8066150" lon="7.5406510">
        <ele>114.5300000</ele>
        <time>2010-08-21T14:44:16Z</time>
      </trkpt>
      <trkpt lat="50.8066120" lon="7.5407140">
        <ele>114.5300000</ele>
        <time>2010-08-21T14:44:17Z</time>
      </trkpt>
      <trkpt lat="50.8066500" lon="7.5407950">
        <ele>115.0100000</ele>
        <time>2010-08-21T14:44:18Z</time>
      </trkpt>
      <trkpt lat="50.8067060" lon="7.5408820">
        <ele>114.5300000</ele>
        <time>2010-08-21T14:44:19Z</time>
      </trkpt>
      <trkpt lat="50.8067760" lon="7.5409780">
        <ele>115.0100000</ele>
        <time>2010-08-21T14:44:20Z</time>
      </trkpt>
      <trkpt lat="50.8068510" lon="7.5410790">
        <ele>115.0100000</ele>
        <time>2010-08-21T14:44:21Z</time>
      </trkpt>
      <trkpt lat="50.8075880" lon="7.5424360">
        <ele>115.5000000</ele>
        <time>2010-08-21T14:44:30Z</time>
      </trkpt>
      <trkpt lat="50.8084830" lon="7.5448230">
        <ele>115.9800000</ele>
        <time>2010-08-21T14:44:41Z</time>
      </trkpt>
      <trkpt lat="50.8093070" lon="7.5476030">
        <ele>115.0100000</ele>
        <time>2010-08-21T14:44:52Z</time>
      </trkpt>
      <trkpt lat="50.8099580" lon="7.5505560">
        <ele>117.4200000</ele>
        <time>2010-08-21T14:45:03Z</time>
      </trkpt>
      <trkpt lat="50.8102650" lon="7.5523100">
        <ele>122.7100000</ele>
        <time>2010-08-21T14:45:10Z</time>
      </trkpt>
      <trkpt lat="50.8102580" lon="7.5525520">
        <ele>122.2200000</ele>
        <time>2010-08-21T14:45:11Z</time>
      </trkpt>
      <trkpt lat="50.8102290" lon="7.5528000">
        <ele>121.7400000</ele>
        <time>2010-08-21T14:45:12Z</time>
      </trkpt>
      <trkpt lat="50.8101710" lon="7.5530500">
        <ele>121.7400000</ele>
        <time>2010-08-21T14:45:13Z</time>
      </trkpt>
      <trkpt lat="50.8100810" lon="7.5532970">
        <ele>121.7400000</ele>
        <time>2010-08-21T14:45:14Z</time>
      </trkpt>
      <trkpt lat="50.8099670" lon="7.5535480">
        <ele>122.2200000</ele>
        <time>2010-08-21T14:45:15Z</time>
      </trkpt>
      <trkpt lat="50.8098510" lon="7.5537960">
        <ele>122.2200000</ele>
        <time>2010-08-21T14:45:16Z</time>
      </trkpt>
      <trkpt lat="50.8088980" lon="7.5554240">
        <ele>120.3000000</ele>
        <time>2010-08-21T14:45:24Z</time>
      </trkpt>
      <trkpt lat="50.8080670" lon="7.5564600">
        <ele>119.8200000</ele>
        <time>2010-08-21T14:45:32Z</time>
      </trkpt>
      <trkpt lat="50.8068470" lon="7.5571580">
        <ele>118.3800000</ele>
        <time>2010-08-21T14:45:43Z</time>
      </trkpt>
      <trkpt lat="50.8056060" lon="7.5576720">
        <ele>118.3800000</ele>
        <time>2010-08-21T14:45:55Z</time>
      </trkpt>
      <trkpt lat="50.8055640" lon="7.5576650">
        <ele>118.3800000</ele>
        <time>2010-08-21T14:45:56Z</time>
      </trkpt>
      <trkpt lat="50.8055400" lon="7.5576660">
        <ele>118.3800000</ele>
        <time>2010-08-21T14:45:57Z</time>
      </trkpt>
      <trkpt lat="50.8055270" lon="7.5576720">
        <ele>117.9000000</ele>
        <time>2010-08-21T14:45:58Z</time>
      </trkpt>
      <trkpt lat="50.8054760" lon="7.5576890">
        <ele>124.6300000</ele>
        <time>2010-08-21T14:46:10Z</time>
      </trkpt>
      <trkpt lat="50.8052020" lon="7.5578260">
        <ele>126.0700000</ele>
        <time>2010-08-21T14:47:16Z</time>
      </trkpt>
      <trkpt lat="50.8043930" lon="7.5582920">
        <ele>124.6300000</ele>
        <time>2010-08-21T14:47:24Z</time>
      </trkpt>
      <trkpt lat="50.8032740" lon="7.5592330">
        <ele>122.7100000</ele>
        <time>2010-08-21T14:47:35Z</time>
      </trkpt>
      <trkpt lat="50.8032290" lon="7.5593470">
        <ele>122.7100000</ele>
        <time>2010-08-21T14:47:36Z</time>
      </trkpt>
      <trkpt lat="50.8031910" lon="7.5594830">
        <ele>122.7100000</ele>
        <time>2010-08-21T14:47:37Z</time>
      </trkpt>
      <trkpt lat="50.8030190" lon="7.5600440">
        <ele>123.6700000</ele>
        <time>2010-08-21T14:47:42Z</time>
      </trkpt>
      <trkpt lat="50.8030250" lon="7.5601280">
        <ele>122.7100000</ele>
        <time>2010-08-21T14:47:43Z</time>
      </trkpt>
      <trkpt lat="50.8030670" lon="7.5602030">
        <ele>122.2200000</ele>
        <time>2010-08-21T14:47:44Z</time>
      </trkpt>
      <trkpt lat="50.8031360" lon="7.5602350">
        <ele>121.7400000</ele>
        <time>2010-08-21T14:47:45Z</time>
      </trkpt>
      <trkpt lat="50.8032080" lon="7.5602680">
        <ele>120.7800000</ele>
        <time>2010-08-21T14:47:46Z</time>
      </trkpt>
      <trkpt lat="50.8033170" lon="7.5603020">
        <ele>120.3000000</ele>
        <time>2010-08-21T14:47:47Z</time>
      </trkpt>
      <trkpt lat="50.8034130" lon="7.5603600">
        <ele>119.8200000</ele>
        <time>2010-08-21T14:47:48Z</time>
      </trkpt>
      <trkpt lat="50.8040360" lon="7.5609950">
        <ele>121.2600000</ele>
        <time>2010-08-21T14:47:54Z</time>
      </trkpt>
      <trkpt lat="50.8041280" lon="7.5611440">
        <ele>121.2600000</ele>
        <time>2010-08-21T14:47:55Z</time>
      </trkpt>
      <trkpt lat="50.8042100" lon="7.5613150">
        <ele>121.2600000</ele>
        <time>2010-08-21T14:47:56Z</time>
      </trkpt>
      <trkpt lat="50.8042830" lon="7.5615020">
        <ele>121.2600000</ele>
        <time>2010-08-21T14:47:57Z</time>
      </trkpt>
      <trkpt lat="50.8043490" lon="7.5617090">
        <ele>121.2600000</ele>
        <time>2010-08-21T14:47:58Z</time>
      </trkpt>
      <trkpt lat="50.8044090" lon="7.5619410">
        <ele>121.2600000</ele>
        <time>2010-08-21T14:47:59Z</time>
      </trkpt>
      <trkpt lat="50.8044610" lon="7.5622040">
        <ele>121.7400000</ele>
        <time>2010-08-21T14:48:00Z</time>
      </trkpt>
      <trkpt lat="50.8044940" lon="7.5624720">
        <ele>122.2200000</ele>
        <time>2010-08-21T14:48:01Z</time>
      </trkpt>
      <trkpt lat="50.8045140" lon="7.5627360">
        <ele>122.7100000</ele>
        <time>2010-08-21T14:48:02Z</time>
      </trkpt>
      <trkpt lat="50.8045220" lon="7.5629930">
        <ele>122.7100000</ele>
        <time>2010-08-21T14:48:03Z</time>
      </trkpt>
      <trkpt lat="50.8046230" lon="7.5654070">
        <ele>127.0300000</ele>
        <time>2010-08-21T14:48:13Z</time>
      </trkpt>
      <trkpt lat="50.8046690" lon="7.5684770">
        <ele>129.9200000</ele>
        <time>2010-08-21T14:48:25Z</time>
      </trkpt>
      <trkpt lat="50.8046210" lon="7.5687290">
        <ele>129.9200000</ele>
        <time>2010-08-21T14:48:26Z</time>
      </trkpt>
      <trkpt lat="50.8045580" lon="7.5689690">
        <ele>129.9200000</ele>
        <time>2010-08-21T14:48:27Z</time>
      </trkpt>
      <trkpt lat="50.8044850" lon="7.5691950">
        <ele>129.9200000</ele>
        <time>2010-08-21T14:48:28Z</time>
      </trkpt>
      <trkpt lat="50.8040040" lon="7.5705600">
        <ele>130.4000000</ele>
        <time>2010-08-21T14:48:35Z</time>
      </trkpt>
      <trkpt lat="50.8035330" lon="7.5722240">
        <ele>131.8400000</ele>
        <time>2010-08-21T14:48:43Z</time>
      </trkpt>
      <trkpt lat="50.8035630" lon="7.5725230">
        <ele>131.8400000</ele>
        <time>2010-08-21T14:48:44Z</time>
      </trkpt>
      <trkpt lat="50.8035980" lon="7.5728420">
        <ele>132.3200000</ele>
        <time>2010-08-21T14:48:45Z</time>
      </trkpt>
      <trkpt lat="50.8039500" lon="7.5751630">
        <ele>133.2800000</ele>
        <time>2010-08-21T14:48:52Z</time>
      </trkpt>
      <trkpt lat="50.8045110" lon="7.5766600">
        <ele>136.1600000</ele>
        <time>2010-08-21T14:48:58Z</time>
      </trkpt>
      <trkpt lat="50.8047770" lon="7.5770510">
        <ele>138.0900000</ele>
        <time>2010-08-21T14:49:00Z</time>
      </trkpt>
      <trkpt lat="50.8049310" lon="7.5772290">
        <ele>138.5700000</ele>
        <time>2010-08-21T14:49:01Z</time>
      </trkpt>
      <trkpt lat="50.8050920" lon="7.5774000">
        <ele>139.0500000</ele>
        <time>2010-08-21T14:49:02Z</time>
      </trkpt>
      <trkpt lat="50.8058510" lon="7.5779590">
        <ele>139.5300000</ele>
        <time>2010-08-21T14:49:07Z</time>
      </trkpt>
      <trkpt lat="50.8060230" lon="7.5780240">
        <ele>139.5300000</ele>
        <time>2010-08-21T14:49:08Z</time>
      </trkpt>
      <trkpt lat="50.8062060" lon="7.5780580">
        <ele>140.0100000</ele>
        <time>2010-08-21T14:49:09Z</time>
      </trkpt>
      <trkpt lat="50.8064070" lon="7.5780810">
        <ele>140.0100000</ele>
        <time>2010-08-21T14:49:10Z</time>
      </trkpt>
      <trkpt lat="50.8066230" lon="7.5780630">
        <ele>140.4900000</ele>
        <time>2010-08-21T14:49:11Z</time>
      </trkpt>
      <trkpt lat="50.8068250" lon="7.5780460">
        <ele>140.4900000</ele>
        <time>2010-08-21T14:49:12Z</time>
      </trkpt>
      <trkpt lat="50.8081440" lon="7.5779790">
        <ele>141.4500000</ele>
        <time>2010-08-21T14:49:20Z</time>
      </trkpt>
      <trkpt lat="50.8084360" lon="7.5778680">
        <ele>141.9300000</ele>
        <time>2010-08-21T14:49:22Z</time>
      </trkpt>
      <trkpt lat="50.8085540" lon="7.5777610">
        <ele>141.9300000</ele>
        <time>2010-08-21T14:49:23Z</time>
      </trkpt>
      <trkpt lat="50.8089530" lon="7.5774990">
        <ele>146.7400000</ele>
        <time>2010-08-21T14:49:27Z</time>
      </trkpt>
      <trkpt lat="50.8090240" lon="7.5776340">
        <ele>146.7400000</ele>
        <time>2010-08-21T14:49:28Z</time>
      </trkpt>
      <trkpt lat="50.8090790" lon="7.5777310">
        <ele>146.2600000</ele>
        <time>2010-08-21T14:49:29Z</time>
      </trkpt>
      <trkpt lat="50.8091220" lon="7.5778480">
        <ele>145.3000000</ele>
        <time>2010-08-21T14:49:30Z</time>
      </trkpt>
      <trkpt lat="50.8091460" lon="7.5779800">
        <ele>144.8200000</ele>
        <time>2010-08-21T14:49:31Z</time>
      </trkpt>
      <trkpt lat="50.8091430" lon="7.5781480">
        <ele>144.3400000</ele>
        <time>2010-08-21T14:49:32Z</time>
      </trkpt>
      <trkpt lat="50.8091240" lon="7.5783570">
        <ele>142.8900000</ele>
        <time>2010-08-21T14:49:33Z</time>
      </trkpt>
      <trkpt lat="50.8090680" lon="7.5785880">
        <ele>142.8900000</ele>
        <time>2010-08-21T14:49:34Z</time>
      </trkpt>
      <trkpt lat="50.8090450" lon="7.5788390">
        <ele>142.8900000</ele>
        <time>2010-08-21T14:49:35Z</time>
      </trkpt>
      <trkpt lat="50.8090360" lon="7.5794190">
        <ele>146.7400000</ele>
        <time>2010-08-21T14:49:39Z</time>
      </trkpt>
      <trkpt lat="50.8090980" lon="7.5795010">
        <ele>146.7400000</ele>
        <time>2010-08-21T14:49:40Z</time>
      </trkpt>
      <trkpt lat="50.8091910" lon="7.5794690">
        <ele>146.2600000</ele>
        <time>2010-08-21T14:49:41Z</time>
      </trkpt>
      <trkpt lat="50.8093290" lon="7.5794470">
        <ele>147.2200000</ele>
        <time>2010-08-21T14:49:42Z</time>
      </trkpt>
      <trkpt lat="50.8095010" lon="7.5794150">
        <ele>146.7400000</ele>
        <time>2010-08-21T14:49:43Z</time>
      </trkpt>
      <trkpt lat="50.8097180" lon="7.5793890">
        <ele>146.7400000</ele>
        <time>2010-08-21T14:49:44Z</time>
      </trkpt>
      <trkpt lat="50.8108540" lon="7.5793810">
        <ele>141.9300000</ele>
        <time>2010-08-21T14:49:49Z</time>
      </trkpt>
      <trkpt lat="50.8126820" lon="7.5799840">
        <ele>139.5300000</ele>
        <time>2010-08-21T14:49:58Z</time>
      </trkpt>
      <trkpt lat="50.8139320" lon="7.5810540">
        <ele>139.5300000</ele>
        <time>2010-08-21T14:50:05Z</time>
      </trkpt>
      <trkpt lat="50.8140740" lon="7.5812680">
        <ele>139.0500000</ele>
        <time>2010-08-21T14:50:06Z</time>
      </trkpt>
      <trkpt lat="50.8142100" lon="7.5815020">
        <ele>138.5700000</ele>
        <time>2010-08-21T14:50:07Z</time>
      </trkpt>
      <trkpt lat="50.8143490" lon="7.5817450">
        <ele>137.6100000</ele>
        <time>2010-08-21T14:50:08Z</time>
      </trkpt>
      <trkpt lat="50.8144820" lon="7.5819980">
        <ele>136.6400000</ele>
        <time>2010-08-21T14:50:09Z</time>
      </trkpt>
      <trkpt lat="50.8146000" lon="7.5822560">
        <ele>136.1600000</ele>
        <time>2010-08-21T14:50:10Z</time>
      </trkpt>
      <trkpt lat="50.8147070" lon="7.5825130">
        <ele>135.6800000</ele>
        <time>2010-08-21T14:50:11Z</time>
      </trkpt>
      <trkpt lat="50.8148830" lon="7.5830420">
        <ele>134.2400000</ele>
        <time>2010-08-21T14:50:13Z</time>
      </trkpt>
      <trkpt lat="50.8151110" lon="7.5847710">
        <ele>130.8800000</ele>
        <time>2010-08-21T14:50:19Z</time>
      </trkpt>
      <trkpt lat="50.8150740" lon="7.5850560">
        <ele>129.9200000</ele>
        <time>2010-08-21T14:50:20Z</time>
      </trkpt>
      <trkpt lat="50.8150140" lon="7.5853370">
        <ele>129.4300000</ele>
        <time>2010-08-21T14:50:21Z</time>
      </trkpt>
      <trkpt lat="50.8149120" lon="7.5856070">
        <ele>129.9200000</ele>
        <time>2010-08-21T14:50:22Z</time>
      </trkpt>
      <trkpt lat="50.8147880" lon="7.5858610">
        <ele>130.4000000</ele>
        <time>2010-08-21T14:50:23Z</time>
      </trkpt>
      <trkpt lat="50.8146560" lon="7.5861140">
        <ele>130.4000000</ele>
        <time>2010-08-21T14:50:24Z</time>
      </trkpt>
      <trkpt lat="50.8144900" lon="7.5863580">
        <ele>131.3600000</ele>
        <time>2010-08-21T14:50:25Z</time>
      </trkpt>
      <trkpt lat="50.8143040" lon="7.5865770">
        <ele>130.4000000</ele>
        <time>2010-08-21T14:50:26Z</time>
      </trkpt>
      <trkpt lat="50.8141310" lon="7.5868120">
        <ele>130.4000000</ele>
        <time>2010-08-21T14:50:27Z</time>
      </trkpt>
      <trkpt lat="50.8133590" lon="7.5884020">
        <ele>127.5100000</ele>
        <time>2010-08-21T14:50:34Z</time>
      </trkpt>
      <trkpt lat="50.8132220" lon="7.5885280">
        <ele>127.5100000</ele>
        <time>2010-08-21T14:50:35Z</time>
      </trkpt>
      <trkpt lat="50.8130560" lon="7.5886290">
        <ele>127.0300000</ele>
        <time>2010-08-21T14:50:36Z</time>
      </trkpt>
      <trkpt lat="50.8128960" lon="7.5887060">
        <ele>123.1900000</ele>
        <time>2010-08-21T14:50:37Z</time>
      </trkpt>
      <trkpt lat="50.8127070" lon="7.5887690">
        <ele>124.6300000</ele>
        <time>2010-08-21T14:50:38Z</time>
      </trkpt>
      <trkpt lat="50.8125320" lon="7.5888090">
        <ele>126.0700000</ele>
        <time>2010-08-21T14:50:39Z</time>
      </trkpt>
      <trkpt lat="50.8123760" lon="7.5888310">
        <ele>126.0700000</ele>
        <time>2010-08-21T14:50:40Z</time>
      </trkpt>
      <trkpt lat="50.8122280" lon="7.5888440">
        <ele>125.5900000</ele>
        <time>2010-08-21T14:50:41Z</time>
      </trkpt>
      <trkpt lat="50.8109470" lon="7.5891100">
        <ele>126.0700000</ele>
        <time>2010-08-21T14:50:49Z</time>
      </trkpt>
      <trkpt lat="50.8096230" lon="7.5896130">
        <ele>128.4700000</ele>
        <time>2010-08-21T14:50:58Z</time>
      </trkpt>
      <trkpt lat="50.8081010" lon="7.5902490">
        <ele>138.0900000</ele>
        <time>2010-08-21T14:51:09Z</time>
      </trkpt>
      <trkpt lat="50.8079900" lon="7.5903300">
        <ele>138.0900000</ele>
        <time>2010-08-21T14:51:10Z</time>
      </trkpt>
      <trkpt lat="50.8078830" lon="7.5904530">
        <ele>138.5700000</ele>
        <time>2010-08-21T14:51:11Z</time>
      </trkpt>
      <trkpt lat="50.8077690" lon="7.5905800">
        <ele>139.5300000</ele>
        <time>2010-08-21T14:51:12Z</time>
      </trkpt>
      <trkpt lat="50.8076800" lon="7.5907380">
        <ele>140.0100000</ele>
        <time>2010-08-21T14:51:13Z</time>
      </trkpt>
      <trkpt lat="50.8076130" lon="7.5909200">
        <ele>140.0100000</ele>
        <time>2010-08-21T14:51:14Z</time>
      </trkpt>
      <trkpt lat="50.8075610" lon="7.5911130">
        <ele>140.4900000</ele>
        <time>2010-08-21T14:51:15Z</time>
      </trkpt>
      <trkpt lat="50.8075180" lon="7.5913060">
        <ele>140.4900000</ele>
        <time>2010-08-21T14:51:16Z</time>
      </trkpt>
      <trkpt lat="50.8074880" lon="7.5914950">
        <ele>140.9700000</ele>
        <time>2010-08-21T14:51:17Z</time>
      </trkpt>
      <trkpt lat="50.8074610" lon="7.5916800">
        <ele>141.9300000</ele>
        <time>2010-08-21T14:51:18Z</time>
      </trkpt>
      <trkpt lat="50.8071470" lon="7.5942150">
        <ele>144.3400000</ele>
        <time>2010-08-21T14:51:30Z</time>
      </trkpt>
      <trkpt lat="50.8070680" lon="7.5962510">
        <ele>141.9300000</ele>
        <time>2010-08-21T14:51:39Z</time>
      </trkpt>
      <trkpt lat="50.8071510" lon="7.5964030">
        <ele>141.4500000</ele>
        <time>2010-08-21T14:51:40Z</time>
      </trkpt>
      <trkpt lat="50.8072540" lon="7.5965340">
        <ele>140.9700000</ele>
        <time>2010-08-21T14:51:41Z</time>
      </trkpt>
      <trkpt lat="50.8074500" lon="7.5966350">
        <ele>140.0100000</ele>
        <time>2010-08-21T14:51:42Z</time>
      </trkpt>
      <trkpt lat="50.8076460" lon="7.5967680">
        <ele>139.0500000</ele>
        <time>2010-08-21T14:51:43Z</time>
      </trkpt>
      <trkpt lat="50.8078550" lon="7.5969060">
        <ele>137.6100000</ele>
        <time>2010-08-21T14:51:44Z</time>
      </trkpt>
      <trkpt lat="50.8095670" lon="7.5982450">
        <ele>133.2800000</ele>
        <time>2010-08-21T14:51:53Z</time>
      </trkpt>
      <trkpt lat="50.8103780" lon="7.5990790">
        <ele>133.7600000</ele>
        <time>2010-08-21T14:51:58Z</time>
      </trkpt>
      <trkpt lat="50.8105030" lon="7.5992950">
        <ele>134.2400000</ele>
        <time>2010-08-21T14:51:59Z</time>
      </trkpt>
      <trkpt lat="50.8106460" lon="7.5995540">
        <ele>134.2400000</ele>
        <time>2010-08-21T14:52:00Z</time>
      </trkpt>
      <trkpt lat="50.8107780" lon="7.5998660">
        <ele>134.2400000</ele>
        <time>2010-08-21T14:52:01Z</time>
      </trkpt>
      <trkpt lat="50.8109120" lon="7.6001570">
        <ele>133.2800000</ele>
        <time>2010-08-21T14:52:02Z</time>
      </trkpt>
      <trkpt lat="50.8118530" lon="7.6024070">
        <ele>133.2800000</ele>
        <time>2010-08-21T14:52:11Z</time>
      </trkpt>
      <trkpt lat="50.8119980" lon="7.6030180">
        <ele>135.2000000</ele>
        <time>2010-08-21T14:52:15Z</time>
      </trkpt>
      <trkpt lat="50.8119820" lon="7.6031250">
        <ele>135.2000000</ele>
        <time>2010-08-21T14:52:16Z</time>
      </trkpt>
      <trkpt lat="50.8119680" lon="7.6032310">
        <ele>135.2000000</ele>
        <time>2010-08-21T14:52:17Z</time>
      </trkpt>
      <trkpt lat="50.8119650" lon="7.6033320">
        <ele>135.2000000</ele>
        <time>2010-08-21T14:52:18Z</time>
      </trkpt>
      <trkpt lat="50.8119810" lon="7.6034150">
        <ele>135.2000000</ele>
        <time>2010-08-21T14:52:19Z</time>
      </trkpt>
      <trkpt lat="50.8120180" lon="7.6034740">
        <ele>134.7200000</ele>
        <time>2010-08-21T14:52:20Z</time>
      </trkpt>
      <trkpt lat="50.8120760" lon="7.6034970">
        <ele>134.7200000</ele>
        <time>2010-08-21T14:52:21Z</time>
      </trkpt>
      <trkpt lat="50.8121580" lon="7.6034780">
        <ele>133.7600000</ele>
        <time>2010-08-21T14:52:22Z</time>
      </trkpt>
      <trkpt lat="50.8122650" lon="7.6034180">
        <ele>133.7600000</ele>
        <time>2010-08-21T14:52:23Z</time>
      </trkpt>
      <trkpt lat="50.8124020" lon="7.6033820">
        <ele>135.2000000</ele>
        <time>2010-08-21T14:52:24Z</time>
      </trkpt>
      <trkpt lat="50.8125700" lon="7.6033640">
        <ele>134.7200000</ele>
        <time>2010-08-21T14:52:25Z</time>
      </trkpt>
      <trkpt lat="50.8134640" lon="7.6036210">
        <ele>135.6800000</ele>
        <time>2010-08-21T14:52:30Z</time>
      </trkpt>
      <trkpt lat="50.8136420" lon="7.6037770">
        <ele>135.6800000</ele>
        <time>2010-08-21T14:52:31Z</time>
      </trkpt>
      <trkpt lat="50.8138260" lon="7.6038870">
        <ele>135.6800000</ele>
        <time>2010-08-21T14:52:32Z</time>
      </trkpt>
      <trkpt lat="50.8143690" lon="7.6040520">
        <ele>136.1600000</ele>
        <time>2010-08-21T14:52:35Z</time>
      </trkpt>
      <trkpt lat="50.8145450" lon="7.6039590">
        <ele>136.1600000</ele>
        <time>2010-08-21T14:52:36Z</time>
      </trkpt>
      <trkpt lat="50.8146920" lon="7.6037860">
        <ele>136.6400000</ele>
        <time>2010-08-21T14:52:37Z</time>
      </trkpt>
      <trkpt lat="50.8147980" lon="7.6034870">
        <ele>136.6400000</ele>
        <time>2010-08-21T14:52:38Z</time>
      </trkpt>
      <trkpt lat="50.8149100" lon="7.6032240">
        <ele>136.6400000</ele>
        <time>2010-08-21T14:52:39Z</time>
      </trkpt>
      <trkpt lat="50.8150090" lon="7.6029370">
        <ele>136.6400000</ele>
        <time>2010-08-21T14:52:40Z</time>
      </trkpt>
      <trkpt lat="50.8150880" lon="7.6026480">
        <ele>137.1300000</ele>
        <time>2010-08-21T14:52:41Z</time>
      </trkpt>
      <trkpt lat="50.8151800" lon="7.6023850">
        <ele>137.1300000</ele>
        <time>2010-08-21T14:52:42Z</time>
      </trkpt>
      <trkpt lat="50.8152850" lon="7.6021530">
        <ele>137.1300000</ele>
        <time>2010-08-21T14:52:43Z</time>
      </trkpt>
      <trkpt lat="50.8154090" lon="7.6019430">
        <ele>136.6400000</ele>
        <time>2010-08-21T14:52:44Z</time>
      </trkpt>
      <trkpt lat="50.8155320" lon="7.6017570">
        <ele>136.6400000</ele>
        <time>2010-08-21T14:52:45Z</time>
      </trkpt>
      <trkpt lat="50.8156790" lon="7.6016090">
        <ele>136.6400000</ele>
        <time>2010-08-21T14:52:46Z</time>
      </trkpt>
      <trkpt lat="50.8158360" lon="7.6015070">
        <ele>138.5700000</ele>
        <time>2010-08-21T14:52:47Z</time>
      </trkpt>
      <trkpt lat="50.8159880" lon="7.6014490">
        <ele>144.3400000</ele>
        <time>2010-08-21T14:52:48Z</time>
      </trkpt>
      <trkpt lat="50.8161810" lon="7.6014420">
        <ele>144.8200000</ele>
        <time>2010-08-21T14:52:49Z</time>
      </trkpt>
      <trkpt lat="50.8163690" lon="7.6014750">
        <ele>145.3000000</ele>
        <time>2010-08-21T14:52:50Z</time>
      </trkpt>
      <trkpt lat="50.8165530" lon="7.6015680">
        <ele>144.8200000</ele>
        <time>2010-08-21T14:52:51Z</time>
      </trkpt>
      <trkpt lat="50.8167200" lon="7.6017180">
        <ele>147.2200000</ele>
        <time>2010-08-21T14:52:52Z</time>
      </trkpt>
      <trkpt lat="50.8168820" lon="7.6018890">
        <ele>148.1800000</ele>
        <time>2010-08-21T14:52:53Z</time>
      </trkpt>
      <trkpt lat="50.8170230" lon="7.6020950">
        <ele>149.6200000</ele>
        <time>2010-08-21T14:52:54Z</time>
      </trkpt>
      <trkpt lat="50.8171490" lon="7.6023390">
        <ele>152.0300000</ele>
        <time>2010-08-21T14:52:55Z</time>
      </trkpt>
      <trkpt lat="50.8172750" lon="7.6026200">
        <ele>152.9900000</ele>
        <time>2010-08-21T14:52:56Z</time>
      </trkpt>
      <trkpt lat="50.8173840" lon="7.6029270">
        <ele>155.8700000</ele>
        <time>2010-08-21T14:52:57Z</time>
      </trkpt>
      <trkpt lat="50.8174940" lon="7.6032490">
        <ele>156.8300000</ele>
        <time>2010-08-21T14:52:58Z</time>
      </trkpt>
      <trkpt lat="50.8182150" lon="7.6051310">
        <ele>159.7200000</ele>
        <time>2010-08-21T14:53:04Z</time>
      </trkpt>
      <trkpt lat="50.8184700" lon="7.6055010">
        <ele>159.2400000</ele>
        <time>2010-08-21T14:53:06Z</time>
      </trkpt>
      <trkpt lat="50.8186310" lon="7.6056170">
        <ele>159.2400000</ele>
        <time>2010-08-21T14:53:07Z</time>
      </trkpt>
      <trkpt lat="50.8187900" lon="7.6056560">
        <ele>158.7500000</ele>
        <time>2010-08-21T14:53:08Z</time>
      </trkpt>
      <trkpt lat="50.8189560" lon="7.6056180">
        <ele>158.7500000</ele>
        <time>2010-08-21T14:53:09Z</time>
      </trkpt>
      <trkpt lat="50.8191400" lon="7.6055110">
        <ele>158.7500000</ele>
        <time>2010-08-21T14:53:10Z</time>
      </trkpt>
      <trkpt lat="50.8193310" lon="7.6053430">
        <ele>158.7500000</ele>
        <time>2010-08-21T14:53:11Z</time>
      </trkpt>
      <trkpt lat="50.8195170" lon="7.6051480">
        <ele>158.7500000</ele>
        <time>2010-08-21T14:53:12Z</time>
      </trkpt>
      <trkpt lat="50.8196960" lon="7.6049190">
        <ele>158.7500000</ele>
        <time>2010-08-21T14:53:13Z</time>
      </trkpt>
      <trkpt lat="50.8198620" lon="7.6047260">
        <ele>158.7500000</ele>
        <time>2010-08-21T14:53:14Z</time>
      </trkpt>
      <trkpt lat="50.8203330" lon="7.6043450">
        <ele>162.1200000</ele>
        <time>2010-08-21T14:53:17Z</time>
      </trkpt>
      <trkpt lat="50.8205010" lon="7.6043120">
        <ele>164.5200000</ele>
        <time>2010-08-21T14:53:18Z</time>
      </trkpt>
      <trkpt lat="50.8206940" lon="7.6043320">
        <ele>165.9600000</ele>
        <time>2010-08-21T14:53:19Z</time>
      </trkpt>
      <trkpt lat="50.8208740" lon="7.6043990">
        <ele>169.3300000</ele>
        <time>2010-08-21T14:53:20Z</time>
      </trkpt>
      <trkpt lat="50.8210580" lon="7.6045330">
        <ele>171.2500000</ele>
        <time>2010-08-21T14:53:21Z</time>
      </trkpt>
      <trkpt lat="50.8212360" lon="7.6047190">
        <ele>172.6900000</ele>
        <time>2010-08-21T14:53:22Z</time>
      </trkpt>
      <trkpt lat="50.8214080" lon="7.6048650">
        <ele>173.1700000</ele>
        <time>2010-08-21T14:53:23Z</time>
      </trkpt>
      <trkpt lat="50.8219170" lon="7.6050880">
        <ele>173.6600000</ele>
        <time>2010-08-21T14:53:26Z</time>
      </trkpt>
      <trkpt lat="50.8221040" lon="7.6049920">
        <ele>173.6600000</ele>
        <time>2010-08-21T14:53:27Z</time>
      </trkpt>
      <trkpt lat="50.8222790" lon="7.6048600">
        <ele>173.6600000</ele>
        <time>2010-08-21T14:53:28Z</time>
      </trkpt>
      <trkpt lat="50.8224300" lon="7.6046670">
        <ele>173.6600000</ele>
        <time>2010-08-21T14:53:29Z</time>
      </trkpt>
      <trkpt lat="50.8225670" lon="7.6044160">
        <ele>173.6600000</ele>
        <time>2010-08-21T14:53:30Z</time>
      </trkpt>
      <trkpt lat="50.8227010" lon="7.6041290">
        <ele>173.6600000</ele>
        <time>2010-08-21T14:53:31Z</time>
      </trkpt>
      <trkpt lat="50.8228510" lon="7.6038480">
        <ele>174.1400000</ele>
        <time>2010-08-21T14:53:32Z</time>
      </trkpt>
      <trkpt lat="50.8231860" lon="7.6033100">
        <ele>174.1400000</ele>
        <time>2010-08-21T14:53:34Z</time>
      </trkpt>
      <trkpt lat="50.8233850" lon="7.6030810">
        <ele>174.1400000</ele>
        <time>2010-08-21T14:53:35Z</time>
      </trkpt>
      <trkpt lat="50.8235920" lon="7.6028780">
        <ele>174.1400000</ele>
        <time>2010-08-21T14:53:36Z</time>
      </trkpt>
      <trkpt lat="50.8250870" lon="7.6014670">
        <ele>173.1700000</ele>
        <time>2010-08-21T14:53:43Z</time>
      </trkpt>
      <trkpt lat="50.8252910" lon="7.6011600">
        <ele>173.1700000</ele>
        <time>2010-08-21T14:53:44Z</time>
      </trkpt>
      <trkpt lat="50.8264900" lon="7.5991270">
        <ele>175.5800000</ele>
        <time>2010-08-21T14:53:51Z</time>
      </trkpt>
      <trkpt lat="50.8267390" lon="7.5982220">
        <ele>181.8300000</ele>
        <time>2010-08-21T14:53:54Z</time>
      </trkpt>
      <trkpt lat="50.8267920" lon="7.5978700">
        <ele>182.3100000</ele>
        <time>2010-08-21T14:53:55Z</time>
      </trkpt>
      <trkpt lat="50.8268340" lon="7.5975130">
        <ele>182.7900000</ele>
        <time>2010-08-21T14:53:56Z</time>
      </trkpt>
      <trkpt lat="50.8272850" lon="7.5953800">
        <ele>184.7100000</ele>
        <time>2010-08-21T14:54:03Z</time>
      </trkpt>
      <trkpt lat="50.8274130" lon="7.5951290">
        <ele>185.1900000</ele>
        <time>2010-08-21T14:54:04Z</time>
      </trkpt>
      <trkpt lat="50.8279250" lon="7.5939440">
        <ele>189.0400000</ele>
        <time>2010-08-21T14:54:09Z</time>
      </trkpt>
      <trkpt lat="50.8280410" lon="7.5938240">
        <ele>190.0000000</ele>
        <time>2010-08-21T14:54:10Z</time>
      </trkpt>
      <trkpt lat="50.8281590" lon="7.5937520">
        <ele>190.4800000</ele>
        <time>2010-08-21T14:54:11Z</time>
      </trkpt>
      <trkpt lat="50.8282930" lon="7.5936990">
        <ele>192.4000000</ele>
        <time>2010-08-21T14:54:12Z</time>
      </trkpt>
      <trkpt lat="50.8284460" lon="7.5936790">
        <ele>196.2500000</ele>
        <time>2010-08-21T14:54:13Z</time>
      </trkpt>
      <trkpt lat="50.8286160" lon="7.5936710">
        <ele>198.6500000</ele>
        <time>2010-08-21T14:54:14Z</time>
      </trkpt>
      <trkpt lat="50.8287760" lon="7.5936450">
        <ele>199.1300000</ele>
        <time>2010-08-21T14:54:15Z</time>
      </trkpt>
      <trkpt lat="50.8289200" lon="7.5935760">
        <ele>199.1300000</ele>
        <time>2010-08-21T14:54:16Z</time>
      </trkpt>
      <trkpt lat="50.8290520" lon="7.5934790">
        <ele>199.1300000</ele>
        <time>2010-08-21T14:54:17Z</time>
      </trkpt>
      <trkpt lat="50.8291780" lon="7.5933290">
        <ele>198.6500000</ele>
        <time>2010-08-21T14:54:18Z</time>
      </trkpt>
      <trkpt lat="50.8292960" lon="7.5931610">
        <ele>197.6900000</ele>
        <time>2010-08-21T14:54:19Z</time>
      </trkpt>
      <trkpt lat="50.8294130" lon="7.5929640">
        <ele>196.2500000</ele>
        <time>2010-08-21T14:54:20Z</time>
      </trkpt>
      <trkpt lat="50.8295230" lon="7.5927420">
        <ele>195.2800000</ele>
        <time>2010-08-21T14:54:21Z</time>
      </trkpt>
      <trkpt lat="50.8296100" lon="7.5924830">
        <ele>197.2100000</ele>
        <time>2010-08-21T14:54:22Z</time>
      </trkpt>
      <trkpt lat="50.8296620" lon="7.5921080">
        <ele>196.7300000</ele>
        <time>2010-08-21T14:54:23Z</time>
      </trkpt>
      <trkpt lat="50.8297050" lon="7.5917630">
        <ele>197.2100000</ele>
        <time>2010-08-21T14:54:24Z</time>
      </trkpt>
      <trkpt lat="50.8297590" lon="7.5914240">
        <ele>196.7300000</ele>
        <time>2010-08-21T14:54:25Z</time>
      </trkpt>
      <trkpt lat="50.8300730" lon="7.5902540">
        <ele>199.1300000</ele>
        <time>2010-08-21T14:54:29Z</time>
      </trkpt>
      <trkpt lat="50.8302080" lon="7.5900580">
        <ele>199.6100000</ele>
        <time>2010-08-21T14:54:30Z</time>
      </trkpt>
      <trkpt lat="50.8303530" lon="7.5898870">
        <ele>200.0900000</ele>
        <time>2010-08-21T14:54:31Z</time>
      </trkpt>
      <trkpt lat="50.8304930" lon="7.5897240">
        <ele>204.9000000</ele>
        <time>2010-08-21T14:54:32Z</time>
      </trkpt>
      <trkpt lat="50.8306320" lon="7.5896340">
        <ele>210.1900000</ele>
        <time>2010-08-21T14:54:33Z</time>
      </trkpt>
      <trkpt lat="50.8307910" lon="7.5896060">
        <ele>212.5900000</ele>
        <time>2010-08-21T14:54:34Z</time>
      </trkpt>
      <trkpt lat="50.8309500" lon="7.5896250">
        <ele>213.0700000</ele>
        <time>2010-08-21T14:54:35Z</time>
      </trkpt>
      <trkpt lat="50.8310790" lon="7.5897190">
        <ele>213.5500000</ele>
        <time>2010-08-21T14:54:36Z</time>
      </trkpt>
      <trkpt lat="50.8311780" lon="7.5898630">
        <ele>214.5100000</ele>
        <time>2010-08-21T14:54:37Z</time>
      </trkpt>
      <trkpt lat="50.8312770" lon="7.5900500">
        <ele>215.4700000</ele>
        <time>2010-08-21T14:54:38Z</time>
      </trkpt>
      <trkpt lat="50.8313810" lon="7.5902900">
        <ele>218.3600000</ele>
        <time>2010-08-21T14:54:39Z</time>
      </trkpt>
      <trkpt lat="50.8315050" lon="7.5905280">
        <ele>219.3200000</ele>
        <time>2010-08-21T14:54:40Z</time>
      </trkpt>
      <trkpt lat="50.8316290" lon="7.5907940">
        <ele>220.7600000</ele>
        <time>2010-08-21T14:54:41Z</time>
      </trkpt>
      <trkpt lat="50.8323510" lon="7.5917880">
        <ele>229.8900000</ele>
        <time>2010-08-21T14:54:48Z</time>
      </trkpt>
      <trkpt lat="50.8326560" lon="7.5921890">
        <ele>231.8100000</ele>
        <time>2010-08-21T14:54:51Z</time>
      </trkpt>
      <trkpt lat="50.8328010" lon="7.5922980">
        <ele>231.8100000</ele>
        <time>2010-08-21T14:54:52Z</time>
      </trkpt>
      <trkpt lat="50.8329660" lon="7.5923750">
        <ele>232.3000000</ele>
        <time>2010-08-21T14:54:53Z</time>
      </trkpt>
      <trkpt lat="50.8335580" lon="7.5924090">
        <ele>231.8100000</ele>
        <time>2010-08-21T14:54:56Z</time>
      </trkpt>
      <trkpt lat="50.8337920" lon="7.5922800">
        <ele>231.8100000</ele>
        <time>2010-08-21T14:54:57Z</time>
      </trkpt>
      <trkpt lat="50.8349980" lon="7.5922430">
        <ele>232.7800000</ele>
        <time>2010-08-21T14:55:03Z</time>
      </trkpt>
      <trkpt lat="50.8356310" lon="7.5925800">
        <ele>234.2200000</ele>
        <time>2010-08-21T14:55:07Z</time>
      </trkpt>
      <trkpt lat="50.8362190" lon="7.5927190">
        <ele>237.1000000</ele>
        <time>2010-08-21T14:55:12Z</time>
      </trkpt>
      <trkpt lat="50.8363490" lon="7.5925900">
        <ele>237.5800000</ele>
        <time>2010-08-21T14:55:13Z</time>
      </trkpt>
      <trkpt lat="50.8368980" lon="7.5923240">
        <ele>241.4300000</ele>
        <time>2010-08-21T14:55:18Z</time>
      </trkpt>
      <trkpt lat="50.8370060" lon="7.5924810">
        <ele>243.8300000</ele>
        <time>2010-08-21T14:55:19Z</time>
      </trkpt>
      <trkpt lat="50.8371010" lon="7.5926300">
        <ele>247.2000000</ele>
        <time>2010-08-21T14:55:20Z</time>
      </trkpt>
      <trkpt lat="50.8371880" lon="7.5928440">
        <ele>251.0400000</ele>
        <time>2010-08-21T14:55:21Z</time>
      </trkpt>
      <trkpt lat="50.8372570" lon="7.5930950">
        <ele>254.8900000</ele>
        <time>2010-08-21T14:55:22Z</time>
      </trkpt>
      <trkpt lat="50.8373490" lon="7.5934050">
        <ele>255.8500000</ele>
        <time>2010-08-21T14:55:23Z</time>
      </trkpt>
      <trkpt lat="50.8374730" lon="7.5936820">
        <ele>255.8500000</ele>
        <time>2010-08-21T14:55:24Z</time>
      </trkpt>
      <trkpt lat="50.8376180" lon="7.5939270">
        <ele>255.8500000</ele>
        <time>2010-08-21T14:55:25Z</time>
      </trkpt>
      <trkpt lat="50.8377840" lon="7.5941550">
        <ele>255.3700000</ele>
        <time>2010-08-21T14:55:26Z</time>
      </trkpt>
      <trkpt lat="50.8391800" lon="7.5954770">
        <ele>260.1700000</ele>
        <time>2010-08-21T14:55:34Z</time>
      </trkpt>
      <trkpt lat="50.8401010" lon="7.5965110">
        <ele>263.5400000</ele>
        <time>2010-08-21T14:55:40Z</time>
      </trkpt>
      <trkpt lat="50.8407890" lon="7.5972980">
        <ele>266.4200000</ele>
        <time>2010-08-21T14:55:45Z</time>
      </trkpt>
      <trkpt lat="50.8409650" lon="7.5972960">
        <ele>266.4200000</ele>
        <time>2010-08-21T14:55:46Z</time>
      </trkpt>
      <trkpt lat="50.8411450" lon="7.5972890">
        <ele>266.4200000</ele>
        <time>2010-08-21T14:55:47Z</time>
      </trkpt>
      <trkpt lat="50.8419840" lon="7.5973670">
        <ele>268.8300000</ele>
        <time>2010-08-21T14:55:54Z</time>
      </trkpt>
      <trkpt lat="50.8420200" lon="7.5974880">
        <ele>268.8300000</ele>
        <time>2010-08-21T14:55:55Z</time>
      </trkpt>
      <trkpt lat="50.8420280" lon="7.5976390">
        <ele>267.8600000</ele>
        <time>2010-08-21T14:55:56Z</time>
      </trkpt>
      <trkpt lat="50.8420670" lon="7.5977920">
        <ele>267.8600000</ele>
        <time>2010-08-21T14:55:57Z</time>
      </trkpt>
      <trkpt lat="50.8420930" lon="7.5979710">
        <ele>268.3500000</ele>
        <time>2010-08-21T14:55:58Z</time>
      </trkpt>
      <trkpt lat="50.8421210" lon="7.5981600">
        <ele>268.3500000</ele>
        <time>2010-08-21T14:55:59Z</time>
      </trkpt>
      <trkpt lat="50.8421580" lon="7.5983460">
        <ele>269.3100000</ele>
        <time>2010-08-21T14:56:00Z</time>
      </trkpt>
      <trkpt lat="50.8426400" lon="7.5995180">
        <ele>273.1500000</ele>
        <time>2010-08-21T14:56:07Z</time>
      </trkpt>
      <trkpt lat="50.8427390" lon="7.5996630">
        <ele>274.1100000</ele>
        <time>2010-08-21T14:56:08Z</time>
      </trkpt>
      <trkpt lat="50.8431620" lon="7.6005300">
        <ele>280.3600000</ele>
        <time>2010-08-21T14:56:13Z</time>
      </trkpt>
      <trkpt lat="50.8432130" lon="7.6007270">
        <ele>281.3200000</ele>
        <time>2010-08-21T14:56:14Z</time>
      </trkpt>
      <trkpt lat="50.8432550" lon="7.6009160">
        <ele>282.7700000</ele>
        <time>2010-08-21T14:56:15Z</time>
      </trkpt>
      <trkpt lat="50.8434040" lon="7.6017980">
        <ele>289.4900000</ele>
        <time>2010-08-21T14:56:22Z</time>
      </trkpt>
      <trkpt lat="50.8434060" lon="7.6019170">
        <ele>289.4900000</ele>
        <time>2010-08-21T14:56:27Z</time>
      </trkpt>
      <trkpt lat="50.8434300" lon="7.6019490">
        <ele>289.4900000</ele>
        <time>2010-08-21T14:56:28Z</time>
      </trkpt>
      <trkpt lat="50.8434580" lon="7.6019540">
        <ele>289.4900000</ele>
        <time>2010-08-21T14:56:29Z</time>
      </trkpt>
      <trkpt lat="50.8435050" lon="7.6018910">
        <ele>289.4900000</ele>
        <time>2010-08-21T14:56:30Z</time>
      </trkpt>
      <trkpt lat="50.8435780" lon="7.6018000">
        <ele>289.9700000</ele>
        <time>2010-08-21T14:56:31Z</time>
      </trkpt>
      <trkpt lat="50.8436880" lon="7.6017280">
        <ele>290.4600000</ele>
        <time>2010-08-21T14:56:32Z</time>
      </trkpt>
      <trkpt lat="50.8438220" lon="7.6016610">
        <ele>290.4600000</ele>
        <time>2010-08-21T14:56:33Z</time>
      </trkpt>
      <trkpt lat="50.8439640" lon="7.6016060">
        <ele>290.9400000</ele>
        <time>2010-08-21T14:56:34Z</time>
      </trkpt>
      <trkpt lat="50.8454310" lon="7.6010840">
        <ele>299.5900000</ele>
        <time>2010-08-21T14:56:44Z</time>
      </trkpt>
      <trkpt lat="50.8468000" lon="7.6004120">
        <ele>310.1600000</ele>
        <time>2010-08-21T14:56:53Z</time>
      </trkpt>
      <trkpt lat="50.8483040" lon="7.6004570">
        <ele>321.2200000</ele>
        <time>2010-08-21T14:57:01Z</time>
      </trkpt>
      <trkpt lat="50.8484840" lon="7.6005340">
        <ele>322.1800000</ele>
        <time>2010-08-21T14:57:02Z</time>
      </trkpt>
      <trkpt lat="50.8486900" lon="7.6007130">
        <ele>322.6600000</ele>
        <time>2010-08-21T14:57:03Z</time>
      </trkpt>
      <trkpt lat="50.8489220" lon="7.6008840">
        <ele>323.1400000</ele>
        <time>2010-08-21T14:57:04Z</time>
      </trkpt>
      <trkpt lat="50.8505640" lon="7.6015780">
        <ele>315.4500000</ele>
        <time>2010-08-21T14:57:11Z</time>
      </trkpt>
      <trkpt lat="50.8515910" lon="7.6014880">
        <ele>313.0500000</ele>
        <time>2010-08-21T14:57:16Z</time>
      </trkpt>
      <trkpt lat="50.8533440" lon="7.6010750">
        <ele>320.2600000</ele>
        <time>2010-08-21T14:57:24Z</time>
      </trkpt>
      <trkpt lat="50.8547700" lon="7.6010940">
        <ele>327.9500000</ele>
        <time>2010-08-21T14:57:31Z</time>
      </trkpt>
      <trkpt lat="50.8556470" lon="7.6006830">
        <ele>331.7900000</ele>
        <time>2010-08-21T14:57:36Z</time>
      </trkpt>
      <trkpt lat="50.8557820" lon="7.6005150">
        <ele>331.7900000</ele>
        <time>2010-08-21T14:57:37Z</time>
      </trkpt>
      <trkpt lat="50.8562030" lon="7.5999300">
        <ele>343.3300000</ele>
        <time>2010-08-21T14:57:43Z</time>
      </trkpt>
      <trkpt lat="50.8562530" lon="7.5999630">
        <ele>346.6900000</ele>
        <time>2010-08-21T14:57:44Z</time>
      </trkpt>
      <trkpt lat="50.8563610" lon="7.6000480">
        <ele>346.2100000</ele>
        <time>2010-08-21T14:57:45Z</time>
      </trkpt>
      <trkpt lat="50.8564980" lon="7.6001620">
        <ele>344.7700000</ele>
        <time>2010-08-21T14:57:46Z</time>
      </trkpt>
      <trkpt lat="50.8566140" lon="7.6003060">
        <ele>343.8100000</ele>
        <time>2010-08-21T14:57:47Z</time>
      </trkpt>
      <trkpt lat="50.8567440" lon="7.6004810">
        <ele>342.8500000</ele>
        <time>2010-08-21T14:57:48Z</time>
      </trkpt>
      <trkpt lat="50.8568740" lon="7.6006910">
        <ele>344.2900000</ele>
        <time>2010-08-21T14:57:49Z</time>
      </trkpt>
      <trkpt lat="50.8570160" lon="7.6009080">
        <ele>344.2900000</ele>
        <time>2010-08-21T14:57:50Z</time>
      </trkpt>
      <trkpt lat="50.8577600" lon="7.6022800">
        <ele>342.3700000</ele>
        <time>2010-08-21T14:57:56Z</time>
      </trkpt>
      <trkpt lat="50.8579150" lon="7.6024860">
        <ele>341.8900000</ele>
        <time>2010-08-21T14:57:57Z</time>
      </trkpt>
      <trkpt lat="50.8593780" lon="7.6040300">
        <ele>340.4400000</ele>
        <time>2010-08-21T14:58:06Z</time>
      </trkpt>
      <trkpt lat="50.8599490" lon="7.6041700">
        <ele>339.4800000</ele>
        <time>2010-08-21T14:58:09Z</time>
      </trkpt>
      <trkpt lat="50.8601460" lon="7.6042010">
        <ele>339.0000000</ele>
        <time>2010-08-21T14:58:10Z</time>
      </trkpt>
      <trkpt lat="50.8603840" lon="7.6041700">
        <ele>339.0000000</ele>
        <time>2010-08-21T14:58:11Z</time>
      </trkpt>
      <trkpt lat="50.8619390" lon="7.6043450">
        <ele>335.1600000</ele>
        <time>2010-08-21T14:58:19Z</time>
      </trkpt>
      <trkpt lat="50.8620650" lon="7.6044460">
        <ele>333.7100000</ele>
        <time>2010-08-21T14:58:20Z</time>
      </trkpt>
      <trkpt lat="50.8621760" lon="7.6046040">
        <ele>332.7500000</ele>
        <time>2010-08-21T14:58:21Z</time>
      </trkpt>
      <trkpt lat="50.8622700" lon="7.6047700">
        <ele>331.7900000</ele>
        <time>2010-08-21T14:58:22Z</time>
      </trkpt>
      <trkpt lat="50.8623270" lon="7.6050440">
        <ele>331.3100000</ele>
        <time>2010-08-21T14:58:23Z</time>
      </trkpt>
      <trkpt lat="50.8623780" lon="7.6053540">
        <ele>330.3500000</ele>
        <time>2010-08-21T14:58:24Z</time>
      </trkpt>
      <trkpt lat="50.8624280" lon="7.6057410">
        <ele>330.8300000</ele>
        <time>2010-08-21T14:58:25Z</time>
      </trkpt>
      <trkpt lat="50.8624780" lon="7.6061060">
        <ele>329.8700000</ele>
        <time>2010-08-21T14:58:26Z</time>
      </trkpt>
      <trkpt lat="50.8625220" lon="7.6065060">
        <ele>328.4300000</ele>
        <time>2010-08-21T14:58:27Z</time>
      </trkpt>
      <trkpt lat="50.8625650" lon="7.6068610">
        <ele>326.5000000</ele>
        <time>2010-08-21T14:58:28Z</time>
      </trkpt>
      <trkpt lat="50.8629020" lon="7.6091560">
        <ele>318.3300000</ele>
        <time>2010-08-21T14:58:36Z</time>
      </trkpt>
      <trkpt lat="50.8629700" lon="7.6093080">
        <ele>317.8500000</ele>
        <time>2010-08-21T14:58:37Z</time>
      </trkpt>
      <trkpt lat="50.8630770" lon="7.6094430">
        <ele>317.8500000</ele>
        <time>2010-08-21T14:58:38Z</time>
      </trkpt>
      <trkpt lat="50.8631650" lon="7.6095600">
        <ele>317.3700000</ele>
        <time>2010-08-21T14:58:39Z</time>
      </trkpt>
      <trkpt lat="50.8632970" lon="7.6095830">
        <ele>317.3700000</ele>
        <time>2010-08-21T14:58:40Z</time>
      </trkpt>
      <trkpt lat="50.8634450" lon="7.6095560">
        <ele>316.8900000</ele>
        <time>2010-08-21T14:58:41Z</time>
      </trkpt>
      <trkpt lat="50.8636140" lon="7.6095130">
        <ele>316.8900000</ele>
        <time>2010-08-21T14:58:42Z</time>
      </trkpt>
      <trkpt lat="50.8637980" lon="7.6094100">
        <ele>316.4100000</ele>
        <time>2010-08-21T14:58:43Z</time>
      </trkpt>
      <trkpt lat="50.8640060" lon="7.6092890">
        <ele>315.9300000</ele>
        <time>2010-08-21T14:58:44Z</time>
      </trkpt>
      <trkpt lat="50.8642010" lon="7.6091710">
        <ele>316.4100000</ele>
        <time>2010-08-21T14:58:45Z</time>
      </trkpt>
      <trkpt lat="50.8643820" lon="7.6090830">
        <ele>315.9300000</ele>
        <time>2010-08-21T14:58:46Z</time>
      </trkpt>
      <trkpt lat="50.8645450" lon="7.6090350">
        <ele>315.9300000</ele>
        <time>2010-08-21T14:58:47Z</time>
      </trkpt>
      <trkpt lat="50.8646870" lon="7.6090420">
        <ele>315.4500000</ele>
        <time>2010-08-21T14:58:48Z</time>
      </trkpt>
      <trkpt lat="50.8648050" lon="7.6091140">
        <ele>315.4500000</ele>
        <time>2010-08-21T14:58:49Z</time>
      </trkpt>
      <trkpt lat="50.8649090" lon="7.6092430">
        <ele>314.9700000</ele>
        <time>2010-08-21T14:58:50Z</time>
      </trkpt>
      <trkpt lat="50.8650010" lon="7.6094050">
        <ele>314.0100000</ele>
        <time>2010-08-21T14:58:51Z</time>
      </trkpt>
      <trkpt lat="50.8650400" lon="7.6096600">
        <ele>314.0100000</ele>
        <time>2010-08-21T14:58:52Z</time>
      </trkpt>
      <trkpt lat="50.8650800" lon="7.6099360">
        <ele>312.5700000</ele>
        <time>2010-08-21T14:58:53Z</time>
      </trkpt>
      <trkpt lat="50.8651130" lon="7.6102230">
        <ele>311.6000000</ele>
        <time>2010-08-21T14:58:54Z</time>
      </trkpt>
      <trkpt lat="50.8651180" lon="7.6105560">
        <ele>311.1200000</ele>
        <time>2010-08-21T14:58:55Z</time>
      </trkpt>
      <trkpt lat="50.8651100" lon="7.6109190">
        <ele>311.6000000</ele>
        <time>2010-08-21T14:58:56Z</time>
      </trkpt>
      <trkpt lat="50.8651150" lon="7.6112420">
        <ele>311.1200000</ele>
        <time>2010-08-21T14:58:57Z</time>
      </trkpt>
      <trkpt lat="50.8652010" lon="7.6130890">
        <ele>306.8000000</ele>
        <time>2010-08-21T14:59:04Z</time>
      </trkpt>
      <trkpt lat="50.8652440" lon="7.6132780">
        <ele>305.8400000</ele>
        <time>2010-08-21T14:59:05Z</time>
      </trkpt>
      <trkpt lat="50.8653270" lon="7.6134190">
        <ele>305.8400000</ele>
        <time>2010-08-21T14:59:06Z</time>
      </trkpt>
      <trkpt lat="50.8654020" lon="7.6135530">
        <ele>305.3600000</ele>
        <time>2010-08-21T14:59:07Z</time>
      </trkpt>
      <trkpt lat="50.8654870" lon="7.6136850">
        <ele>304.8800000</ele>
        <time>2010-08-21T14:59:08Z</time>
      </trkpt>
      <trkpt lat="50.8656050" lon="7.6136980">
        <ele>303.4300000</ele>
        <time>2010-08-21T14:59:09Z</time>
      </trkpt>
      <trkpt lat="50.8657070" lon="7.6137210">
        <ele>302.4700000</ele>
        <time>2010-08-21T14:59:10Z</time>
      </trkpt>
      <trkpt lat="50.8658080" lon="7.6137020">
        <ele>301.9900000</ele>
        <time>2010-08-21T14:59:11Z</time>
      </trkpt>
      <trkpt lat="50.8658970" lon="7.6136440">
        <ele>302.9500000</ele>
        <time>2010-08-21T14:59:12Z</time>
      </trkpt>
      <trkpt lat="50.8659860" lon="7.6135740">
        <ele>303.4300000</ele>
        <time>2010-08-21T14:59:13Z</time>
      </trkpt>
      <trkpt lat="50.8660800" lon="7.6134830">
        <ele>303.4300000</ele>
        <time>2010-08-21T14:59:14Z</time>
      </trkpt>
      <trkpt lat="50.8661760" lon="7.6133650">
        <ele>302.9500000</ele>
        <time>2010-08-21T14:59:15Z</time>
      </trkpt>
      <trkpt lat="50.8662600" lon="7.6132240">
        <ele>302.4700000</ele>
        <time>2010-08-21T14:59:16Z</time>
      </trkpt>
      <trkpt lat="50.8663300" lon="7.6130630">
        <ele>301.9900000</ele>
        <time>2010-08-21T14:59:17Z</time>
      </trkpt>
      <trkpt lat="50.8663900" lon="7.6129030">
        <ele>301.9900000</ele>
        <time>2010-08-21T14:59:18Z</time>
      </trkpt>
      <trkpt lat="50.8666850" lon="7.6121840">
        <ele>300.5500000</ele>
        <time>2010-08-21T14:59:23Z</time>
      </trkpt>
      <trkpt lat="50.8667670" lon="7.6120730">
        <ele>300.5500000</ele>
        <time>2010-08-21T14:59:24Z</time>
      </trkpt>
      <trkpt lat="50.8668610" lon="7.6119880">
        <ele>300.5500000</ele>
        <time>2010-08-21T14:59:25Z</time>
      </trkpt>
      <trkpt lat="50.8669640" lon="7.6119260">
        <ele>300.5500000</ele>
        <time>2010-08-21T14:59:26Z</time>
      </trkpt>
      <trkpt lat="50.8670730" lon="7.6118730">
        <ele>300.5500000</ele>
        <time>2010-08-21T14:59:27Z</time>
      </trkpt>
      <trkpt lat="50.8671810" lon="7.6118110">
        <ele>300.5500000</ele>
        <time>2010-08-21T14:59:28Z</time>
      </trkpt>
      <trkpt lat="50.8672850" lon="7.6117270">
        <ele>300.5500000</ele>
        <time>2010-08-21T14:59:29Z</time>
      </trkpt>
      <trkpt lat="50.8673870" lon="7.6116240">
        <ele>300.5500000</ele>
        <time>2010-08-21T14:59:30Z</time>
      </trkpt>
      <trkpt lat="50.8674850" lon="7.6115110">
        <ele>300.5500000</ele>
        <time>2010-08-21T14:59:31Z</time>
      </trkpt>
      <trkpt lat="50.8675770" lon="7.6113900">
        <ele>300.0700000</ele>
        <time>2010-08-21T14:59:32Z</time>
      </trkpt>
      <trkpt lat="50.8676640" lon="7.6112630">
        <ele>300.0700000</ele>
        <time>2010-08-21T14:59:33Z</time>
      </trkpt>
      <trkpt lat="50.8683620" lon="7.6099940">
        <ele>298.1500000</ele>
        <time>2010-08-21T14:59:42Z</time>
      </trkpt>
      <trkpt lat="50.8684580" lon="7.6098950">
        <ele>297.6700000</ele>
        <time>2010-08-21T14:59:43Z</time>
      </trkpt>
      <trkpt lat="50.8685620" lon="7.6098180">
        <ele>297.6700000</ele>
        <time>2010-08-21T14:59:44Z</time>
      </trkpt>
      <trkpt lat="50.8686770" lon="7.6097630">
        <ele>297.1800000</ele>
        <time>2010-08-21T14:59:45Z</time>
      </trkpt>
      <trkpt lat="50.8688000" lon="7.6097370">
        <ele>296.7000000</ele>
        <time>2010-08-21T14:59:46Z</time>
      </trkpt>
      <trkpt lat="50.8689240" lon="7.6097400">
        <ele>296.7000000</ele>
        <time>2010-08-21T14:59:47Z</time>
      </trkpt>
      <trkpt lat="50.8690470" lon="7.6097870">
        <ele>296.2200000</ele>
        <time>2010-08-21T14:59:48Z</time>
      </trkpt>
      <trkpt lat="50.8691570" lon="7.6098740">
        <ele>295.7400000</ele>
        <time>2010-08-21T14:59:49Z</time>
      </trkpt>
      <trkpt lat="50.8692630" lon="7.6099710">
        <ele>295.2600000</ele>
        <time>2010-08-21T14:59:50Z</time>
      </trkpt>
      <trkpt lat="50.8693700" lon="7.6100760">
        <ele>294.7800000</ele>
        <time>2010-08-21T14:59:51Z</time>
      </trkpt>
      <trkpt lat="50.8694760" lon="7.6101770">
        <ele>294.3000000</ele>
        <time>2010-08-21T14:59:52Z</time>
      </trkpt>
      <trkpt lat="50.8708230" lon="7.6113170">
        <ele>289.0100000</ele>
        <time>2010-08-21T15:00:05Z</time>
      </trkpt>
      <trkpt lat="50.8724620" lon="7.6127170">
        <ele>280.8400000</ele>
        <time>2010-08-21T15:00:20Z</time>
      </trkpt>
      <trkpt lat="50.8733150" lon="7.6134570">
        <ele>277.9600000</ele>
        <time>2010-08-21T15:00:30Z</time>
      </trkpt>
      <trkpt lat="50.8734960" lon="7.6135280">
        <ele>278.9200000</ele>
        <time>2010-08-21T15:00:33Z</time>
      </trkpt>
      <trkpt lat="50.8735420" lon="7.6135510">
        <ele>278.9200000</ele>
        <time>2010-08-21T15:00:34Z</time>
      </trkpt>
      <trkpt lat="50.8735890" lon="7.6135670">
        <ele>278.9200000</ele>
        <time>2010-08-21T15:00:35Z</time>
      </trkpt>
      <trkpt lat="50.8737410" lon="7.6136340">
        <ele>277.4800000</ele>
        <time>2010-08-21T15:00:39Z</time>
      </trkpt>
      <trkpt lat="50.8737870" lon="7.6136930">
        <ele>277.4800000</ele>
        <time>2010-08-21T15:00:40Z</time>
      </trkpt>
      <trkpt lat="50.8739780" lon="7.6139470">
        <ele>276.5200000</ele>
        <time>2010-08-21T15:00:43Z</time>
      </trkpt>
      <trkpt lat="50.8740490" lon="7.6140080">
        <ele>276.0400000</ele>
        <time>2010-08-21T15:00:44Z</time>
      </trkpt>
      <trkpt lat="50.8749910" lon="7.6148410">
        <ele>274.1100000</ele>
        <time>2010-08-21T15:00:55Z</time>
      </trkpt>
      <trkpt lat="50.8755250" lon="7.6155070">
        <ele>275.0700000</ele>
        <time>2010-08-21T15:01:00Z</time>
      </trkpt>
      <trkpt lat="50.8756020" lon="7.6156800">
        <ele>276.5200000</ele>
        <time>2010-08-21T15:01:01Z</time>
      </trkpt>
      <trkpt lat="50.8758180" lon="7.6161720">
        <ele>279.4000000</ele>
        <time>2010-08-21T15:01:04Z</time>
      </trkpt>
      <trkpt lat="50.8760080" lon="7.6166660">
        <ele>282.2800000</ele>
        <time>2010-08-21T15:01:08Z</time>
      </trkpt>
      <trkpt lat="50.8760230" lon="7.6167780">
        <ele>282.2800000</ele>
        <time>2010-08-21T15:01:09Z</time>
      </trkpt>
      <trkpt lat="50.8760860" lon="7.6168650">
        <ele>281.8000000</ele>
        <time>2010-08-21T15:01:10Z</time>
      </trkpt>
      <trkpt lat="50.8763560" lon="7.6170590">
        <ele>283.2500000</ele>
        <time>2010-08-21T15:01:13Z</time>
      </trkpt>
      <trkpt lat="50.8765500" lon="7.6173310">
        <ele>287.5700000</ele>
        <time>2010-08-21T15:01:17Z</time>
      </trkpt>
      <trkpt lat="50.8765710" lon="7.6176040">
        <ele>291.4200000</ele>
        <time>2010-08-21T15:01:20Z</time>
      </trkpt>
      <trkpt lat="50.8768830" lon="7.6181030">
        <ele>297.1800000</ele>
        <time>2010-08-21T15:01:25Z</time>
      </trkpt>
      <trkpt lat="50.8775670" lon="7.6196840">
        <ele>299.5900000</ele>
        <time>2010-08-21T15:01:36Z</time>
      </trkpt>
      <trkpt lat="50.8781200" lon="7.6210420">
        <ele>297.6700000</ele>
        <time>2010-08-21T15:01:46Z</time>
      </trkpt>
      <trkpt lat="50.8789150" lon="7.6229470">
        <ele>296.2200000</ele>
        <time>2010-08-21T15:01:58Z</time>
      </trkpt>
      <trkpt lat="50.8796190" lon="7.6246030">
        <ele>295.2600000</ele>
        <time>2010-08-21T15:02:08Z</time>
      </trkpt>
      <trkpt lat="50.8802550" lon="7.6258960">
        <ele>296.2200000</ele>
        <time>2010-08-21T15:02:17Z</time>
      </trkpt>
      <trkpt lat="50.8803800" lon="7.6261210">
        <ele>296.2200000</ele>
        <time>2010-08-21T15:02:24Z</time>
      </trkpt>
      <trkpt lat="50.8803940" lon="7.6261190">
        <ele>296.2200000</ele>
        <time>2010-08-21T15:02:25Z</time>
      </trkpt>
      <trkpt lat="50.8805150" lon="7.6258660">
        <ele>295.7400000</ele>
        <time>2010-08-21T15:02:37Z</time>
      </trkpt>
      <trkpt lat="50.8805270" lon="7.6258530">
        <ele>295.2600000</ele>
        <time>2010-08-21T15:02:38Z</time>
      </trkpt>
      <trkpt lat="50.8804770" lon="7.6260640">
        <ele>292.8600000</ele>
        <time>2010-08-21T15:03:02Z</time>
      </trkpt>
      <trkpt lat="50.8803510" lon="7.6260200">
        <ele>306.8000000</ele>
        <time>2010-08-21T15:04:00Z</time>
      </trkpt>
      <trkpt lat="50.8803970" lon="7.6260200">
        <ele>301.0300000</ele>
        <time>2010-08-21T15:04:15Z</time>
      </trkpt>
      <trkpt lat="50.8803380" lon="7.6260750">
        <ele>322.1800000</ele>
        <time>2010-08-21T15:04:43Z</time>
      </trkpt>
      <trkpt lat="50.8803950" lon="7.6261150">
        <ele>316.8900000</ele>
        <time>2010-08-21T15:05:07Z</time>
      </trkpt>
      <trkpt lat="50.8803330" lon="7.6261740">
        <ele>315.4500000</ele>
        <time>2010-08-21T15:05:22Z</time>
      </trkpt>
      <trkpt lat="50.8803330" lon="7.6261890">
        <ele>314.9700000</ele>
        <time>2010-08-21T15:05:24Z</time>
      </trkpt>
      <trkpt lat="50.8802530" lon="7.6262060">
        <ele>313.5300000</ele>
        <time>2010-08-21T15:05:30Z</time>
      </trkpt>
      <trkpt lat="50.8803140" lon="7.6262910">
        <ele>306.8000000</ele>
        <time>2010-08-21T15:05:34Z</time>
      </trkpt>
      <trkpt lat="50.8803900" lon="7.6264280">
        <ele>305.3600000</ele>
        <time>2010-08-21T15:05:35Z</time>
      </trkpt>
      <trkpt lat="50.8804540" lon="7.6265870">
        <ele>303.9100000</ele>
        <time>2010-08-21T15:05:36Z</time>
      </trkpt>
      <trkpt lat="50.8805460" lon="7.6267900">
        <ele>301.9900000</ele>
        <time>2010-08-21T15:05:37Z</time>
      </trkpt>
      <trkpt lat="50.8806530" lon="7.6270150">
        <ele>301.0300000</ele>
        <time>2010-08-21T15:05:38Z</time>
      </trkpt>
      <trkpt lat="50.8814670" lon="7.6286140">
        <ele>299.1100000</ele>
        <time>2010-08-21T15:05:46Z</time>
      </trkpt>
      <trkpt lat="50.8826120" lon="7.6308280">
        <ele>305.8400000</ele>
        <time>2010-08-21T15:05:58Z</time>
      </trkpt>
      <trkpt lat="50.8829150" lon="7.6313710">
        <ele>307.7600000</ele>
        <time>2010-08-21T15:06:02Z</time>
      </trkpt>
      <trkpt lat="50.8830010" lon="7.6314210">
        <ele>307.7600000</ele>
        <time>2010-08-21T15:06:03Z</time>
      </trkpt>
      <trkpt lat="50.8830880" lon="7.6314450">
        <ele>307.7600000</ele>
        <time>2010-08-21T15:06:04Z</time>
      </trkpt>
      <trkpt lat="50.8831760" lon="7.6314580">
        <ele>307.7600000</ele>
        <time>2010-08-21T15:06:05Z</time>
      </trkpt>
      <trkpt lat="50.8832760" lon="7.6314840">
        <ele>307.2800000</ele>
        <time>2010-08-21T15:06:06Z</time>
      </trkpt>
      <trkpt lat="50.8833620" lon="7.6315240">
        <ele>307.2800000</ele>
        <time>2010-08-21T15:06:07Z</time>
      </trkpt>
      <trkpt lat="50.8834300" lon="7.6316190">
        <ele>306.8000000</ele>
        <time>2010-08-21T15:06:08Z</time>
      </trkpt>
      <trkpt lat="50.8834800" lon="7.6317720">
        <ele>306.3200000</ele>
        <time>2010-08-21T15:06:09Z</time>
      </trkpt>
      <trkpt lat="50.8835140" lon="7.6319750">
        <ele>305.8400000</ele>
        <time>2010-08-21T15:06:10Z</time>
      </trkpt>
      <trkpt lat="50.8835480" lon="7.6321710">
        <ele>305.3600000</ele>
        <time>2010-08-21T15:06:11Z</time>
      </trkpt>
      <trkpt lat="50.8835720" lon="7.6323860">
        <ele>304.8800000</ele>
        <time>2010-08-21T15:06:12Z</time>
      </trkpt>
      <trkpt lat="50.8836060" lon="7.6325950">
        <ele>303.9100000</ele>
        <time>2010-08-21T15:06:13Z</time>
      </trkpt>
      <trkpt lat="50.8837110" lon="7.6329960">
        <ele>302.4700000</ele>
        <time>2010-08-21T15:06:15Z</time>
      </trkpt>
      <trkpt lat="50.8837910" lon="7.6331680">
        <ele>301.9900000</ele>
        <time>2010-08-21T15:06:16Z</time>
      </trkpt>
      <trkpt lat="50.8849240" lon="7.6353560">
        <ele>297.1800000</ele>
        <time>2010-08-21T15:06:29Z</time>
      </trkpt>
      <trkpt lat="50.8857900" lon="7.6369180">
        <ele>291.4200000</ele>
        <time>2010-08-21T15:06:40Z</time>
      </trkpt>
      <trkpt lat="50.8858740" lon="7.6370690">
        <ele>290.4600000</ele>
        <time>2010-08-21T15:06:42Z</time>
      </trkpt>
      <trkpt lat="50.8859010" lon="7.6371440">
        <ele>290.4600000</ele>
        <time>2010-08-21T15:06:43Z</time>
      </trkpt>
      <trkpt lat="50.8859530" lon="7.6373120">
        <ele>289.9700000</ele>
        <time>2010-08-21T15:06:45Z</time>
      </trkpt>
      <trkpt lat="50.8860000" lon="7.6373810">
        <ele>289.4900000</ele>
        <time>2010-08-21T15:06:46Z</time>
      </trkpt>
      <trkpt lat="50.8860650" lon="7.6374320">
        <ele>289.0100000</ele>
        <time>2010-08-21T15:06:47Z</time>
      </trkpt>
      <trkpt lat="50.8867440" lon="7.6379220">
        <ele>286.6100000</ele>
        <time>2010-08-21T15:06:53Z</time>
      </trkpt>
      <trkpt lat="50.8869050" lon="7.6380440">
        <ele>286.6100000</ele>
        <time>2010-08-21T15:06:54Z</time>
      </trkpt>
      <trkpt lat="50.8870780" lon="7.6381860">
        <ele>286.6100000</ele>
        <time>2010-08-21T15:06:55Z</time>
      </trkpt>
      <trkpt lat="50.8872230" lon="7.6383910">
        <ele>286.1300000</ele>
        <time>2010-08-21T15:06:56Z</time>
      </trkpt>
      <trkpt lat="50.8873510" lon="7.6386300">
        <ele>286.1300000</ele>
        <time>2010-08-21T15:06:57Z</time>
      </trkpt>
      <trkpt lat="50.8874890" lon="7.6388640">
        <ele>286.1300000</ele>
        <time>2010-08-21T15:06:58Z</time>
      </trkpt>
      <trkpt lat="50.8875650" lon="7.6391570">
        <ele>285.6500000</ele>
        <time>2010-08-21T15:06:59Z</time>
      </trkpt>
      <trkpt lat="50.8876380" lon="7.6394920">
        <ele>286.1300000</ele>
        <time>2010-08-21T15:07:00Z</time>
      </trkpt>
      <trkpt lat="50.8876810" lon="7.6398330">
        <ele>287.0900000</ele>
        <time>2010-08-21T15:07:01Z</time>
      </trkpt>
      <trkpt lat="50.8876670" lon="7.6402470">
        <ele>290.4600000</ele>
        <time>2010-08-21T15:07:02Z</time>
      </trkpt>
      <trkpt lat="50.8876880" lon="7.6406550">
        <ele>292.3800000</ele>
        <time>2010-08-21T15:07:03Z</time>
      </trkpt>
      <trkpt lat="50.8877260" lon="7.6410700">
        <ele>293.8200000</ele>
        <time>2010-08-21T15:07:04Z</time>
      </trkpt>
      <trkpt lat="50.8881740" lon="7.6432120">
        <ele>300.5500000</ele>
        <time>2010-08-21T15:07:10Z</time>
      </trkpt>
      <trkpt lat="50.8884330" lon="7.6437530">
        <ele>302.9500000</ele>
        <time>2010-08-21T15:07:12Z</time>
      </trkpt>
      <trkpt lat="50.8886180" lon="7.6440240">
        <ele>303.9100000</ele>
        <time>2010-08-21T15:07:13Z</time>
      </trkpt>
      <trkpt lat="50.8895490" lon="7.6460390">
        <ele>313.0500000</ele>
        <time>2010-08-21T15:07:20Z</time>
      </trkpt>
      <trkpt lat="50.8899900" lon="7.6476910">
        <ele>318.3300000</ele>
        <time>2010-08-21T15:07:27Z</time>
      </trkpt>
      <trkpt lat="50.8900560" lon="7.6479720">
        <ele>319.3000000</ele>
        <time>2010-08-21T15:07:30Z</time>
      </trkpt>
      <trkpt lat="50.8900590" lon="7.6480320">
        <ele>319.7800000</ele>
        <time>2010-08-21T15:07:31Z</time>
      </trkpt>
      <trkpt lat="50.8900640" lon="7.6482040">
        <ele>319.7800000</ele>
        <time>2010-08-21T15:07:33Z</time>
      </trkpt>
      <trkpt lat="50.8900890" lon="7.6483060">
        <ele>319.7800000</ele>
        <time>2010-08-21T15:07:34Z</time>
      </trkpt>
      <trkpt lat="50.8901380" lon="7.6484190">
        <ele>320.2600000</ele>
        <time>2010-08-21T15:07:35Z</time>
      </trkpt>
      <trkpt lat="50.8901960" lon="7.6485610">
        <ele>320.7400000</ele>
        <time>2010-08-21T15:07:36Z</time>
      </trkpt>
      <trkpt lat="50.8902500" lon="7.6487350">
        <ele>321.2200000</ele>
        <time>2010-08-21T15:07:37Z</time>
      </trkpt>
      <trkpt lat="50.8903020" lon="7.6489280">
        <ele>321.7000000</ele>
        <time>2010-08-21T15:07:38Z</time>
      </trkpt>
      <trkpt lat="50.8906520" lon="7.6499870">
        <ele>324.1000000</ele>
        <time>2010-08-21T15:07:43Z</time>
      </trkpt>
      <trkpt lat="50.8907560" lon="7.6501820">
        <ele>324.5800000</ele>
        <time>2010-08-21T15:07:44Z</time>
      </trkpt>
      <trkpt lat="50.8908750" lon="7.6503560">
        <ele>324.5800000</ele>
        <time>2010-08-21T15:07:45Z</time>
      </trkpt>
      <trkpt lat="50.8910040" lon="7.6504900">
        <ele>324.5800000</ele>
        <time>2010-08-21T15:07:46Z</time>
      </trkpt>
      <trkpt lat="50.8911360" lon="7.6506040">
        <ele>324.1000000</ele>
        <time>2010-08-21T15:07:47Z</time>
      </trkpt>
      <trkpt lat="50.8912670" lon="7.6507110">
        <ele>323.1400000</ele>
        <time>2010-08-21T15:07:48Z</time>
      </trkpt>
      <trkpt lat="50.8922100" lon="7.6513980">
        <ele>318.3300000</ele>
        <time>2010-08-21T15:07:55Z</time>
      </trkpt>
      <trkpt lat="50.8923620" lon="7.6514200">
        <ele>317.3700000</ele>
        <time>2010-08-21T15:07:56Z</time>
      </trkpt>
      <trkpt lat="50.8930040" lon="7.6515470">
        <ele>314.9700000</ele>
        <time>2010-08-21T15:08:00Z</time>
      </trkpt>
      <trkpt lat="50.8931410" lon="7.6516600">
        <ele>314.0100000</ele>
        <time>2010-08-21T15:08:01Z</time>
      </trkpt>
      <trkpt lat="50.8932650" lon="7.6518140">
        <ele>313.0500000</ele>
        <time>2010-08-21T15:08:02Z</time>
      </trkpt>
      <trkpt lat="50.8933800" lon="7.6520070">
        <ele>312.0900000</ele>
        <time>2010-08-21T15:08:03Z</time>
      </trkpt>
      <trkpt lat="50.8934770" lon="7.6522400">
        <ele>312.0900000</ele>
        <time>2010-08-21T15:08:04Z</time>
      </trkpt>
      <trkpt lat="50.8935720" lon="7.6524660">
        <ele>312.0900000</ele>
        <time>2010-08-21T15:08:05Z</time>
      </trkpt>
      <trkpt lat="50.8936640" lon="7.6526920">
        <ele>311.6000000</ele>
        <time>2010-08-21T15:08:06Z</time>
      </trkpt>
      <trkpt lat="50.8940310" lon="7.6536180">
        <ele>310.1600000</ele>
        <time>2010-08-21T15:08:10Z</time>
      </trkpt>
      <trkpt lat="50.8940950" lon="7.6538600">
        <ele>309.6800000</ele>
        <time>2010-08-21T15:08:11Z</time>
      </trkpt>
      <trkpt lat="50.8941470" lon="7.6541050">
        <ele>309.2000000</ele>
        <time>2010-08-21T15:08:12Z</time>
      </trkpt>
      <trkpt lat="50.8946330" lon="7.6557270">
        <ele>306.8000000</ele>
        <time>2010-08-21T15:08:19Z</time>
      </trkpt>
      <trkpt lat="50.8948820" lon="7.6563370">
        <ele>305.3600000</ele>
        <time>2010-08-21T15:08:22Z</time>
      </trkpt>
      <trkpt lat="50.8949830" lon="7.6565150">
        <ele>304.8800000</ele>
        <time>2010-08-21T15:08:23Z</time>
      </trkpt>
      <trkpt lat="50.8951050" lon="7.6566450">
        <ele>303.9100000</ele>
        <time>2010-08-21T15:08:24Z</time>
      </trkpt>
      <trkpt lat="50.8952450" lon="7.6567430">
        <ele>303.4300000</ele>
        <time>2010-08-21T15:08:25Z</time>
      </trkpt>
      <trkpt lat="50.8953920" lon="7.6568250">
        <ele>302.4700000</ele>
        <time>2010-08-21T15:08:26Z</time>
      </trkpt>
      <trkpt lat="50.8955380" lon="7.6569140">
        <ele>301.5100000</ele>
        <time>2010-08-21T15:08:27Z</time>
      </trkpt>
      <trkpt lat="50.8965670" lon="7.6580280">
        <ele>296.7000000</ele>
        <time>2010-08-21T15:08:35Z</time>
      </trkpt>
      <trkpt lat="50.8966320" lon="7.6582630">
        <ele>297.1800000</ele>
        <time>2010-08-21T15:08:36Z</time>
      </trkpt>
      <trkpt lat="50.8969730" lon="7.6591180">
        <ele>296.7000000</ele>
        <time>2010-08-21T15:08:40Z</time>
      </trkpt>
      <trkpt lat="50.8971060" lon="7.6592510">
        <ele>296.2200000</ele>
        <time>2010-08-21T15:08:41Z</time>
      </trkpt>
      <trkpt lat="50.8972610" lon="7.6593450">
        <ele>296.2200000</ele>
        <time>2010-08-21T15:08:42Z</time>
      </trkpt>
      <trkpt lat="50.8974240" lon="7.6594090">
        <ele>295.7400000</ele>
        <time>2010-08-21T15:08:43Z</time>
      </trkpt>
      <trkpt lat="50.8976060" lon="7.6594640">
        <ele>295.2600000</ele>
        <time>2010-08-21T15:08:44Z</time>
      </trkpt>
      <trkpt lat="50.8978090" lon="7.6595000">
        <ele>294.7800000</ele>
        <time>2010-08-21T15:08:45Z</time>
      </trkpt>
      <trkpt lat="50.8980100" lon="7.6595380">
        <ele>294.3000000</ele>
        <time>2010-08-21T15:08:46Z</time>
      </trkpt>
      <trkpt lat="50.8995470" lon="7.6599740">
        <ele>290.9400000</ele>
        <time>2010-08-21T15:08:54Z</time>
      </trkpt>
      <trkpt lat="50.9006810" lon="7.6599750">
        <ele>287.5700000</ele>
        <time>2010-08-21T15:09:00Z</time>
      </trkpt>
      <trkpt lat="50.9008600" lon="7.6599100">
        <ele>286.6100000</ele>
        <time>2010-08-21T15:09:01Z</time>
      </trkpt>
      <trkpt lat="50.9010450" lon="7.6598050">
        <ele>285.6500000</ele>
        <time>2010-08-21T15:09:02Z</time>
      </trkpt>
      <trkpt lat="50.9012400" lon="7.6596600">
        <ele>285.1700000</ele>
        <time>2010-08-21T15:09:03Z</time>
      </trkpt>
      <trkpt lat="50.9014340" lon="7.6595150">
        <ele>284.6900000</ele>
        <time>2010-08-21T15:09:04Z</time>
      </trkpt>
      <trkpt lat="50.9030940" lon="7.6584110">
        <ele>281.8000000</ele>
        <time>2010-08-21T15:09:13Z</time>
      </trkpt>
      <trkpt lat="50.9033160" lon="7.6583970">
        <ele>281.3200000</ele>
        <time>2010-08-21T15:09:14Z</time>
      </trkpt>
      <trkpt lat="50.9035460" lon="7.6583970">
        <ele>280.3600000</ele>
        <time>2010-08-21T15:09:15Z</time>
      </trkpt>
      <trkpt lat="50.9038040" lon="7.6584500">
        <ele>279.8800000</ele>
        <time>2010-08-21T15:09:16Z</time>
      </trkpt>
      <trkpt lat="50.9040540" lon="7.6585290">
        <ele>279.4000000</ele>
        <time>2010-08-21T15:09:17Z</time>
      </trkpt>
      <trkpt lat="50.9042960" lon="7.6586370">
        <ele>278.9200000</ele>
        <time>2010-08-21T15:09:18Z</time>
      </trkpt>
      <trkpt lat="50.9045250" lon="7.6587350">
        <ele>278.4400000</ele>
        <time>2010-08-21T15:09:19Z</time>
      </trkpt>
      <trkpt lat="50.9060430" lon="7.6590790">
        <ele>275.0700000</ele>
        <time>2010-08-21T15:09:26Z</time>
      </trkpt>
      <trkpt lat="50.9073260" lon="7.6588360">
        <ele>274.1100000</ele>
        <time>2010-08-21T15:09:32Z</time>
      </trkpt>
      <trkpt lat="50.9088120" lon="7.6576790">
        <ele>270.2700000</ele>
        <time>2010-08-21T15:09:39Z</time>
      </trkpt>
      <trkpt lat="50.9089710" lon="7.6574730">
        <ele>269.3100000</ele>
        <time>2010-08-21T15:09:40Z</time>
      </trkpt>
      <trkpt lat="50.9091180" lon="7.6572380">
        <ele>268.8300000</ele>
        <time>2010-08-21T15:09:41Z</time>
      </trkpt>
      <trkpt lat="50.9100270" lon="7.6559180">
        <ele>266.4200000</ele>
        <time>2010-08-21T15:09:47Z</time>
      </trkpt>
      <trkpt lat="50.9102420" lon="7.6557630">
        <ele>266.4200000</ele>
        <time>2010-08-21T15:09:48Z</time>
      </trkpt>
      <trkpt lat="50.9104810" lon="7.6556400">
        <ele>266.4200000</ele>
        <time>2010-08-21T15:09:49Z</time>
      </trkpt>
      <trkpt lat="50.9107170" lon="7.6555370">
        <ele>266.9000000</ele>
        <time>2010-08-21T15:09:50Z</time>
      </trkpt>
      <trkpt lat="50.9109420" lon="7.6554640">
        <ele>266.9000000</ele>
        <time>2010-08-21T15:09:51Z</time>
      </trkpt>
      <trkpt lat="50.9111560" lon="7.6553940">
        <ele>266.9000000</ele>
        <time>2010-08-21T15:09:52Z</time>
      </trkpt>
      <trkpt lat="50.9124510" lon="7.6551690">
        <ele>265.9400000</ele>
        <time>2010-08-21T15:09:59Z</time>
      </trkpt>
      <trkpt lat="50.9132240" lon="7.6551910">
        <ele>266.9000000</ele>
        <time>2010-08-21T15:10:03Z</time>
      </trkpt>
      <trkpt lat="50.9133930" lon="7.6551200">
        <ele>266.4200000</ele>
        <time>2010-08-21T15:10:04Z</time>
      </trkpt>
      <trkpt lat="50.9136870" lon="7.6549380">
        <ele>264.9800000</ele>
        <time>2010-08-21T15:10:06Z</time>
      </trkpt>
      <trkpt lat="50.9139310" lon="7.6547740">
        <ele>263.5400000</ele>
        <time>2010-08-21T15:10:08Z</time>
      </trkpt>
      <trkpt lat="50.9140400" lon="7.6547510">
        <ele>263.5400000</ele>
        <time>2010-08-21T15:10:09Z</time>
      </trkpt>
      <trkpt lat="50.9141600" lon="7.6547790">
        <ele>263.0600000</ele>
        <time>2010-08-21T15:10:10Z</time>
      </trkpt>
      <trkpt lat="50.9142770" lon="7.6548640">
        <ele>262.5800000</ele>
        <time>2010-08-21T15:10:11Z</time>
      </trkpt>
      <trkpt lat="50.9143790" lon="7.6550180">
        <ele>263.0600000</ele>
        <time>2010-08-21T15:10:12Z</time>
      </trkpt>
      <trkpt lat="50.9144760" lon="7.6551520">
        <ele>262.5800000</ele>
        <time>2010-08-21T15:10:13Z</time>
      </trkpt>
      <trkpt lat="50.9145730" lon="7.6552510">
        <ele>262.1000000</ele>
        <time>2010-08-21T15:10:14Z</time>
      </trkpt>
      <trkpt lat="50.9146690" lon="7.6553100">
        <ele>262.1000000</ele>
        <time>2010-08-21T15:10:15Z</time>
      </trkpt>
      <trkpt lat="50.9147680" lon="7.6553490">
        <ele>262.1000000</ele>
        <time>2010-08-21T15:10:16Z</time>
      </trkpt>
      <trkpt lat="50.9148770" lon="7.6553710">
        <ele>262.1000000</ele>
        <time>2010-08-21T15:10:17Z</time>
      </trkpt>
      <trkpt lat="50.9149970" lon="7.6553810">
        <ele>262.1000000</ele>
        <time>2010-08-21T15:10:18Z</time>
      </trkpt>
      <trkpt lat="50.9151200" lon="7.6553840">
        <ele>262.5800000</ele>
        <time>2010-08-21T15:10:19Z</time>
      </trkpt>
      <trkpt lat="50.9153530" lon="7.6553300">
        <ele>263.0600000</ele>
        <time>2010-08-21T15:10:21Z</time>
      </trkpt>
      <trkpt lat="50.9154550" lon="7.6552430">
        <ele>263.0600000</ele>
        <time>2010-08-21T15:10:22Z</time>
      </trkpt>
      <trkpt lat="50.9155360" lon="7.6551190">
        <ele>263.5400000</ele>
        <time>2010-08-21T15:10:23Z</time>
      </trkpt>
      <trkpt lat="50.9155810" lon="7.6549660">
        <ele>264.5000000</ele>
        <time>2010-08-21T15:10:24Z</time>
      </trkpt>
      <trkpt lat="50.9155540" lon="7.6547260">
        <ele>263.5400000</ele>
        <time>2010-08-21T15:10:25Z</time>
      </trkpt>
      <trkpt lat="50.9155310" lon="7.6545210">
        <ele>263.5400000</ele>
        <time>2010-08-21T15:10:26Z</time>
      </trkpt>
      <trkpt lat="50.9155140" lon="7.6543100">
        <ele>263.5400000</ele>
        <time>2010-08-21T15:10:27Z</time>
      </trkpt>
      <trkpt lat="50.9155150" lon="7.6541280">
        <ele>264.0200000</ele>
        <time>2010-08-21T15:10:28Z</time>
      </trkpt>
      <trkpt lat="50.9154960" lon="7.6531590">
        <ele>263.0600000</ele>
        <time>2010-08-21T15:10:33Z</time>
      </trkpt>
      <trkpt lat="50.9155120" lon="7.6529650">
        <ele>262.5800000</ele>
        <time>2010-08-21T15:10:34Z</time>
      </trkpt>
      <trkpt lat="50.9155510" lon="7.6527790">
        <ele>262.5800000</ele>
        <time>2010-08-21T15:10:35Z</time>
      </trkpt>
      <trkpt lat="50.9156120" lon="7.6526010">
        <ele>262.1000000</ele>
        <time>2010-08-21T15:10:36Z</time>
      </trkpt>
      <trkpt lat="50.9156940" lon="7.6524380">
        <ele>262.1000000</ele>
        <time>2010-08-21T15:10:37Z</time>
      </trkpt>
      <trkpt lat="50.9157940" lon="7.6522920">
        <ele>261.6200000</ele>
        <time>2010-08-21T15:10:38Z</time>
      </trkpt>
      <trkpt lat="50.9159080" lon="7.6521560">
        <ele>261.1400000</ele>
        <time>2010-08-21T15:10:39Z</time>
      </trkpt>
      <trkpt lat="50.9160260" lon="7.6520210">
        <ele>261.1400000</ele>
        <time>2010-08-21T15:10:40Z</time>
      </trkpt>
      <trkpt lat="50.9170110" lon="7.6505650">
        <ele>259.2100000</ele>
        <time>2010-08-21T15:10:50Z</time>
      </trkpt>
      <trkpt lat="50.9173430" lon="7.6502630">
        <ele>257.7700000</ele>
        <time>2010-08-21T15:10:53Z</time>
      </trkpt>
      <trkpt lat="50.9174670" lon="7.6502570">
        <ele>258.2500000</ele>
        <time>2010-08-21T15:10:54Z</time>
      </trkpt>
      <trkpt lat="50.9176010" lon="7.6502730">
        <ele>259.6900000</ele>
        <time>2010-08-21T15:10:55Z</time>
      </trkpt>
      <trkpt lat="50.9177280" lon="7.6502620">
        <ele>261.6200000</ele>
        <time>2010-08-21T15:10:56Z</time>
      </trkpt>
      <trkpt lat="50.9178780" lon="7.6502980">
        <ele>262.5800000</ele>
        <time>2010-08-21T15:10:57Z</time>
      </trkpt>
      <trkpt lat="50.9180250" lon="7.6503270">
        <ele>263.0600000</ele>
        <time>2010-08-21T15:10:58Z</time>
      </trkpt>
      <trkpt lat="50.9181680" lon="7.6503760">
        <ele>262.5800000</ele>
        <time>2010-08-21T15:10:59Z</time>
      </trkpt>
      <trkpt lat="50.9183040" lon="7.6504200">
        <ele>262.1000000</ele>
        <time>2010-08-21T15:11:00Z</time>
      </trkpt>
      <trkpt lat="50.9191390" lon="7.6509750">
        <ele>261.6200000</ele>
        <time>2010-08-21T15:11:07Z</time>
      </trkpt>
      <trkpt lat="50.9191930" lon="7.6511370">
        <ele>261.1400000</ele>
        <time>2010-08-21T15:11:08Z</time>
      </trkpt>
      <trkpt lat="50.9192330" lon="7.6513500">
        <ele>261.1400000</ele>
        <time>2010-08-21T15:11:09Z</time>
      </trkpt>
      <trkpt lat="50.9192610" lon="7.6515590">
        <ele>261.1400000</ele>
        <time>2010-08-21T15:11:10Z</time>
      </trkpt>
      <trkpt lat="50.9193040" lon="7.6517870">
        <ele>261.6200000</ele>
        <time>2010-08-21T15:11:11Z</time>
      </trkpt>
      <trkpt lat="50.9197260" lon="7.6528280">
        <ele>264.5000000</ele>
        <time>2010-08-21T15:11:16Z</time>
      </trkpt>
      <trkpt lat="50.9199910" lon="7.6531310">
        <ele>264.0200000</ele>
        <time>2010-08-21T15:11:18Z</time>
      </trkpt>
      <trkpt lat="50.9201390" lon="7.6531970">
        <ele>264.0200000</ele>
        <time>2010-08-21T15:11:19Z</time>
      </trkpt>
      <trkpt lat="50.9202790" lon="7.6532160">
        <ele>263.5400000</ele>
        <time>2010-08-21T15:11:20Z</time>
      </trkpt>
      <trkpt lat="50.9204230" lon="7.6531940">
        <ele>263.0600000</ele>
        <time>2010-08-21T15:11:21Z</time>
      </trkpt>
      <trkpt lat="50.9205680" lon="7.6531600">
        <ele>264.0200000</ele>
        <time>2010-08-21T15:11:22Z</time>
      </trkpt>
      <trkpt lat="50.9207060" lon="7.6531270">
        <ele>264.9800000</ele>
        <time>2010-08-21T15:11:23Z</time>
      </trkpt>
      <trkpt lat="50.9208430" lon="7.6530780">
        <ele>265.4600000</ele>
        <time>2010-08-21T15:11:24Z</time>
      </trkpt>
      <trkpt lat="50.9209770" lon="7.6530110">
        <ele>265.9400000</ele>
        <time>2010-08-21T15:11:25Z</time>
      </trkpt>
      <trkpt lat="50.9211090" lon="7.6529300">
        <ele>266.4200000</ele>
        <time>2010-08-21T15:11:26Z</time>
      </trkpt>
      <trkpt lat="50.9212440" lon="7.6528400">
        <ele>267.3800000</ele>
        <time>2010-08-21T15:11:27Z</time>
      </trkpt>
      <trkpt lat="50.9214810" lon="7.6525690">
        <ele>268.8300000</ele>
        <time>2010-08-21T15:11:29Z</time>
      </trkpt>
      <trkpt lat="50.9215870" lon="7.6523830">
        <ele>270.2700000</ele>
        <time>2010-08-21T15:11:30Z</time>
      </trkpt>
      <trkpt lat="50.9216740" lon="7.6521660">
        <ele>271.7100000</ele>
        <time>2010-08-21T15:11:31Z</time>
      </trkpt>
      <trkpt lat="50.9217290" lon="7.6519800">
        <ele>272.1900000</ele>
        <time>2010-08-21T15:11:32Z</time>
      </trkpt>
      <trkpt lat="50.9217940" lon="7.6518250">
        <ele>273.1500000</ele>
        <time>2010-08-21T15:11:33Z</time>
      </trkpt>
      <trkpt lat="50.9218610" lon="7.6517020">
        <ele>274.1100000</ele>
        <time>2010-08-21T15:11:34Z</time>
      </trkpt>
      <trkpt lat="50.9219300" lon="7.6516070">
        <ele>274.5900000</ele>
        <time>2010-08-21T15:11:35Z</time>
      </trkpt>
      <trkpt lat="50.9220080" lon="7.6515290">
        <ele>276.0400000</ele>
        <time>2010-08-21T15:11:36Z</time>
      </trkpt>
      <trkpt lat="50.9220880" lon="7.6514730">
        <ele>277.9600000</ele>
        <time>2010-08-21T15:11:37Z</time>
      </trkpt>
      <trkpt lat="50.9221590" lon="7.6514470">
        <ele>279.4000000</ele>
        <time>2010-08-21T15:11:38Z</time>
      </trkpt>
      <trkpt lat="50.9222150" lon="7.6514460">
        <ele>280.8400000</ele>
        <time>2010-08-21T15:11:39Z</time>
      </trkpt>
      <trkpt lat="50.9222540" lon="7.6514620">
        <ele>282.7700000</ele>
        <time>2010-08-21T15:11:40Z</time>
      </trkpt>
      <trkpt lat="50.9222870" lon="7.6514860">
        <ele>284.2100000</ele>
        <time>2010-08-21T15:11:41Z</time>
      </trkpt>
      <trkpt lat="50.9223140" lon="7.6515100">
        <ele>285.1700000</ele>
        <time>2010-08-21T15:11:42Z</time>
      </trkpt>
      <trkpt lat="50.9224400" lon="7.6515270">
        <ele>287.5700000</ele>
        <time>2010-08-21T15:11:47Z</time>
      </trkpt>
      <trkpt lat="50.9224890" lon="7.6514670">
        <ele>287.5700000</ele>
        <time>2010-08-21T15:11:48Z</time>
      </trkpt>
      <trkpt lat="50.9225400" lon="7.6513580">
        <ele>288.5300000</ele>
        <time>2010-08-21T15:11:49Z</time>
      </trkpt>
      <trkpt lat="50.9225840" lon="7.6512190">
        <ele>289.4900000</ele>
        <time>2010-08-21T15:11:50Z</time>
      </trkpt>
      <trkpt lat="50.9226180" lon="7.6510700">
        <ele>289.4900000</ele>
        <time>2010-08-21T15:11:51Z</time>
      </trkpt>
      <trkpt lat="50.9226420" lon="7.6508970">
        <ele>288.5300000</ele>
        <time>2010-08-21T15:11:52Z</time>
      </trkpt>
      <trkpt lat="50.9226630" lon="7.6507010">
        <ele>287.0900000</ele>
        <time>2010-08-21T15:11:53Z</time>
      </trkpt>
      <trkpt lat="50.9226790" lon="7.6504860">
        <ele>286.6100000</ele>
        <time>2010-08-21T15:11:54Z</time>
      </trkpt>
      <trkpt lat="50.9226900" lon="7.6502560">
        <ele>286.1300000</ele>
        <time>2010-08-21T15:11:55Z</time>
      </trkpt>
      <trkpt lat="50.9225820" lon="7.6484360">
        <ele>282.7700000</ele>
        <time>2010-08-21T15:12:02Z</time>
      </trkpt>
      <trkpt lat="50.9220880" lon="7.6466910">
        <ele>283.7300000</ele>
        <time>2010-08-21T15:12:09Z</time>
      </trkpt>
      <trkpt lat="50.9216640" lon="7.6444780">
        <ele>286.6100000</ele>
        <time>2010-08-21T15:12:17Z</time>
      </trkpt>
      <trkpt lat="50.9218490" lon="7.6425060">
        <ele>286.6100000</ele>
        <time>2010-08-21T15:12:23Z</time>
      </trkpt>
      <trkpt lat="50.9224120" lon="7.6405350">
        <ele>285.1700000</ele>
        <time>2010-08-21T15:12:29Z</time>
      </trkpt>
      <trkpt lat="50.9230580" lon="7.6375550">
        <ele>278.4400000</ele>
        <time>2010-08-21T15:12:38Z</time>
      </trkpt>
      <trkpt lat="50.9233850" lon="7.6340910">
        <ele>267.8600000</ele>
        <time>2010-08-21T15:12:48Z</time>
      </trkpt>
      <trkpt lat="50.9239820" lon="7.6324060">
        <ele>266.4200000</ele>
        <time>2010-08-21T15:12:54Z</time>
      </trkpt>
      <trkpt lat="50.9250740" lon="7.6310960">
        <ele>269.3100000</ele>
        <time>2010-08-21T15:13:01Z</time>
      </trkpt>
      <trkpt lat="50.9267570" lon="7.6301060">
        <ele>275.5600000</ele>
        <time>2010-08-21T15:13:10Z</time>
      </trkpt>
      <trkpt lat="50.9281330" lon="7.6288540">
        <ele>277.4800000</ele>
        <time>2010-08-21T15:13:18Z</time>
      </trkpt>
      <trkpt lat="50.9290020" lon="7.6274900">
        <ele>275.5600000</ele>
        <time>2010-08-21T15:13:25Z</time>
      </trkpt>
      <trkpt lat="50.9298070" lon="7.6255290">
        <ele>267.8600000</ele>
        <time>2010-08-21T15:13:36Z</time>
      </trkpt>
      <trkpt lat="50.9307650" lon="7.6239440">
        <ele>257.7700000</ele>
        <time>2010-08-21T15:13:47Z</time>
      </trkpt>
      <trkpt lat="50.9310460" lon="7.6236980">
        <ele>255.8500000</ele>
        <time>2010-08-21T15:13:53Z</time>
      </trkpt>
      <trkpt lat="50.9311870" lon="7.6236590">
        <ele>254.8900000</ele>
        <time>2010-08-21T15:13:58Z</time>
      </trkpt>
      <trkpt lat="50.9312410" lon="7.6236860">
        <ele>254.8900000</ele>
        <time>2010-08-21T15:13:59Z</time>
      </trkpt>
      <trkpt lat="50.9312990" lon="7.6237300">
        <ele>254.4100000</ele>
        <time>2010-08-21T15:14:00Z</time>
      </trkpt>
      <trkpt lat="50.9313600" lon="7.6237920">
        <ele>254.4100000</ele>
        <time>2010-08-21T15:14:01Z</time>
      </trkpt>
      <trkpt lat="50.9314210" lon="7.6238810">
        <ele>253.4400000</ele>
        <time>2010-08-21T15:14:02Z</time>
      </trkpt>
      <trkpt lat="50.9314750" lon="7.6239990">
        <ele>252.9600000</ele>
        <time>2010-08-21T15:14:03Z</time>
      </trkpt>
      <trkpt lat="50.9315220" lon="7.6241370">
        <ele>252.4800000</ele>
        <time>2010-08-21T15:14:04Z</time>
      </trkpt>
      <trkpt lat="50.9315700" lon="7.6242820">
        <ele>252.0000000</ele>
        <time>2010-08-21T15:14:05Z</time>
      </trkpt>
      <trkpt lat="50.9317590" lon="7.6246930">
        <ele>250.0800000</ele>
        <time>2010-08-21T15:14:08Z</time>
      </trkpt>
      <trkpt lat="50.9318390" lon="7.6248060">
        <ele>249.6000000</ele>
        <time>2010-08-21T15:14:09Z</time>
      </trkpt>
      <trkpt lat="50.9319310" lon="7.6249070">
        <ele>249.1200000</ele>
        <time>2010-08-21T15:14:10Z</time>
      </trkpt>
      <trkpt lat="50.9320340" lon="7.6249930">
        <ele>248.6400000</ele>
        <time>2010-08-21T15:14:11Z</time>
      </trkpt>
      <trkpt lat="50.9321500" lon="7.6250580">
        <ele>248.1600000</ele>
        <time>2010-08-21T15:14:12Z</time>
      </trkpt>
      <trkpt lat="50.9322750" lon="7.6251050">
        <ele>247.6800000</ele>
        <time>2010-08-21T15:14:13Z</time>
      </trkpt>
      <trkpt lat="50.9324060" lon="7.6251470">
        <ele>247.6800000</ele>
        <time>2010-08-21T15:14:14Z</time>
      </trkpt>
      <trkpt lat="50.9334690" lon="7.6258090">
        <ele>243.3500000</ele>
        <time>2010-08-21T15:14:22Z</time>
      </trkpt>
      <trkpt lat="50.9343920" lon="7.6272220">
        <ele>241.9100000</ele>
        <time>2010-08-21T15:14:30Z</time>
      </trkpt>
      <trkpt lat="50.9349830" lon="7.6292050">
        <ele>244.3100000</ele>
        <time>2010-08-21T15:14:37Z</time>
      </trkpt>
      <trkpt lat="50.9358450" lon="7.6312240">
        <ele>249.6000000</ele>
        <time>2010-08-21T15:14:42Z</time>
      </trkpt>
      <trkpt lat="50.9360830" lon="7.6315570">
        <ele>250.5600000</ele>
        <time>2010-08-21T15:14:43Z</time>
      </trkpt>
      <trkpt lat="50.9363370" lon="7.6318490">
        <ele>252.0000000</ele>
        <time>2010-08-21T15:14:44Z</time>
      </trkpt>
      <trkpt lat="50.9366230" lon="7.6320430">
        <ele>253.9300000</ele>
        <time>2010-08-21T15:14:45Z</time>
      </trkpt>
      <trkpt lat="50.9369090" lon="7.6322720">
        <ele>255.8500000</ele>
        <time>2010-08-21T15:14:46Z</time>
      </trkpt>
      <trkpt lat="50.9371900" lon="7.6324770">
        <ele>258.2500000</ele>
        <time>2010-08-21T15:14:47Z</time>
      </trkpt>
      <trkpt lat="50.9374730" lon="7.6326510">
        <ele>260.6500000</ele>
        <time>2010-08-21T15:14:48Z</time>
      </trkpt>
      <trkpt lat="50.9382090" lon="7.6333430">
        <ele>265.9400000</ele>
        <time>2010-08-21T15:14:51Z</time>
      </trkpt>
      <trkpt lat="50.9384100" lon="7.6336280">
        <ele>267.8600000</ele>
        <time>2010-08-21T15:14:52Z</time>
      </trkpt>
      <trkpt lat="50.9385890" lon="7.6339470">
        <ele>269.7900000</ele>
        <time>2010-08-21T15:14:53Z</time>
      </trkpt>
      <trkpt lat="50.9387480" lon="7.6343300">
        <ele>272.1900000</ele>
        <time>2010-08-21T15:14:54Z</time>
      </trkpt>
      <trkpt lat="50.9389330" lon="7.6347180">
        <ele>274.1100000</ele>
        <time>2010-08-21T15:14:55Z</time>
      </trkpt>
      <trkpt lat="50.9390790" lon="7.6351440">
        <ele>275.5600000</ele>
        <time>2010-08-21T15:14:56Z</time>
      </trkpt>
      <trkpt lat="50.9392360" lon="7.6355800">
        <ele>277.9600000</ele>
        <time>2010-08-21T15:14:57Z</time>
      </trkpt>
      <trkpt lat="50.9400050" lon="7.6371080">
        <ele>285.6500000</ele>
        <time>2010-08-21T15:15:01Z</time>
      </trkpt>
      <trkpt lat="50.9402540" lon="7.6374050">
        <ele>288.0500000</ele>
        <time>2010-08-21T15:15:02Z</time>
      </trkpt>
      <trkpt lat="50.9405260" lon="7.6376180">
        <ele>290.9400000</ele>
        <time>2010-08-21T15:15:03Z</time>
      </trkpt>
      <trkpt lat="50.9408100" lon="7.6377920">
        <ele>292.8600000</ele>
        <time>2010-08-21T15:15:04Z</time>
      </trkpt>
      <trkpt lat="50.9411010" lon="7.6379090">
        <ele>294.7800000</ele>
        <time>2010-08-21T15:15:05Z</time>
      </trkpt>
      <trkpt lat="50.9413920" lon="7.6380110">
        <ele>297.6700000</ele>
        <time>2010-08-21T15:15:06Z</time>
      </trkpt>
      <trkpt lat="50.9416810" lon="7.6380910">
        <ele>299.5900000</ele>
        <time>2010-08-21T15:15:07Z</time>
      </trkpt>
      <trkpt lat="50.9425520" lon="7.6379610">
        <ele>307.2800000</ele>
        <time>2010-08-21T15:15:10Z</time>
      </trkpt>
      <trkpt lat="50.9428480" lon="7.6378250">
        <ele>309.2000000</ele>
        <time>2010-08-21T15:15:11Z</time>
      </trkpt>
      <trkpt lat="50.9431300" lon="7.6376890">
        <ele>310.6400000</ele>
        <time>2010-08-21T15:15:12Z</time>
      </trkpt>
      <trkpt lat="50.9449080" lon="7.6371920">
        <ele>322.6600000</ele>
        <time>2010-08-21T15:15:18Z</time>
      </trkpt>
      <trkpt lat="50.9467520" lon="7.6371190">
        <ele>334.2000000</ele>
        <time>2010-08-21T15:15:24Z</time>
      </trkpt>
      <trkpt lat="50.9473710" lon="7.6366950">
        <ele>338.5200000</ele>
        <time>2010-08-21T15:15:26Z</time>
      </trkpt>
      <trkpt lat="50.9476570" lon="7.6364280">
        <ele>340.9200000</ele>
        <time>2010-08-21T15:15:27Z</time>
      </trkpt>
      <trkpt lat="50.9479370" lon="7.6361660">
        <ele>342.8500000</ele>
        <time>2010-08-21T15:15:28Z</time>
      </trkpt>
      <trkpt lat="50.9492360" lon="7.6352010">
        <ele>353.4200000</ele>
        <time>2010-08-21T15:15:33Z</time>
      </trkpt>
      <trkpt lat="50.9506520" lon="7.6351940">
        <ele>356.7900000</ele>
        <time>2010-08-21T15:15:38Z</time>
      </trkpt>
      <trkpt lat="50.9509120" lon="7.6353780">
        <ele>356.3100000</ele>
        <time>2010-08-21T15:15:39Z</time>
      </trkpt>
      <trkpt lat="50.9511720" lon="7.6355660">
        <ele>355.3400000</ele>
        <time>2010-08-21T15:15:40Z</time>
      </trkpt>
      <trkpt lat="50.9514180" lon="7.6358480">
        <ele>352.4600000</ele>
        <time>2010-08-21T15:15:41Z</time>
      </trkpt>
      <trkpt lat="50.9516560" lon="7.6361200">
        <ele>348.6200000</ele>
        <time>2010-08-21T15:15:42Z</time>
      </trkpt>
      <trkpt lat="50.9528300" lon="7.6376010">
        <ele>336.6000000</ele>
        <time>2010-08-21T15:15:47Z</time>
      </trkpt>
      <trkpt lat="50.9536890" lon="7.6382290">
        <ele>332.2700000</ele>
        <time>2010-08-21T15:15:50Z</time>
      </trkpt>
      <trkpt lat="50.9539820" lon="7.6383630">
        <ele>329.8700000</ele>
        <time>2010-08-21T15:15:51Z</time>
      </trkpt>
      <trkpt lat="50.9555590" lon="7.6395430">
        <ele>319.3000000</ele>
        <time>2010-08-21T15:15:57Z</time>
      </trkpt>
      <trkpt lat="50.9565650" lon="7.6404990">
        <ele>309.2000000</ele>
        <time>2010-08-21T15:16:01Z</time>
      </trkpt>
      <trkpt lat="50.9568380" lon="7.6406480">
        <ele>307.2800000</ele>
        <time>2010-08-21T15:16:02Z</time>
      </trkpt>
      <trkpt lat="50.9571220" lon="7.6407530">
        <ele>304.8800000</ele>
        <time>2010-08-21T15:16:03Z</time>
      </trkpt>
      <trkpt lat="50.9585950" lon="7.6406180">
        <ele>293.8200000</ele>
        <time>2010-08-21T15:16:08Z</time>
      </trkpt>
      <trkpt lat="50.9588660" lon="7.6404180">
        <ele>291.4200000</ele>
        <time>2010-08-21T15:16:09Z</time>
      </trkpt>
      <trkpt lat="50.9591320" lon="7.6402160">
        <ele>289.4900000</ele>
        <time>2010-08-21T15:16:10Z</time>
      </trkpt>
      <trkpt lat="50.9593800" lon="7.6399880">
        <ele>287.5700000</ele>
        <time>2010-08-21T15:16:11Z</time>
      </trkpt>
      <trkpt lat="50.9596170" lon="7.6397310">
        <ele>285.6500000</ele>
        <time>2010-08-21T15:16:12Z</time>
      </trkpt>
      <trkpt lat="50.9598370" lon="7.6394440">
        <ele>283.2500000</ele>
        <time>2010-08-21T15:16:13Z</time>
      </trkpt>
      <trkpt lat="50.9600450" lon="7.6391260">
        <ele>281.3200000</ele>
        <time>2010-08-21T15:16:14Z</time>
      </trkpt>
      <trkpt lat="50.9602460" lon="7.6387860">
        <ele>279.8800000</ele>
        <time>2010-08-21T15:16:15Z</time>
      </trkpt>
      <trkpt lat="50.9615830" lon="7.6371250">
        <ele>273.1500000</ele>
        <time>2010-08-21T15:16:21Z</time>
      </trkpt>
      <trkpt lat="50.9621650" lon="7.6367960">
        <ele>272.1900000</ele>
        <time>2010-08-21T15:16:23Z</time>
      </trkpt>
      <trkpt lat="50.9625160" lon="7.6368020">
        <ele>272.6700000</ele>
        <time>2010-08-21T15:16:24Z</time>
      </trkpt>
      <trkpt lat="50.9628360" lon="7.6368460">
        <ele>272.6700000</ele>
        <time>2010-08-21T15:16:25Z</time>
      </trkpt>
      <trkpt lat="50.9631620" lon="7.6369080">
        <ele>272.6700000</ele>
        <time>2010-08-21T15:16:26Z</time>
      </trkpt>
      <trkpt lat="50.9634860" lon="7.6369970">
        <ele>273.1500000</ele>
        <time>2010-08-21T15:16:27Z</time>
      </trkpt>
      <trkpt lat="50.9638030" lon="7.6371720">
        <ele>273.6300000</ele>
        <time>2010-08-21T15:16:28Z</time>
      </trkpt>
      <trkpt lat="50.9641160" lon="7.6373830">
        <ele>274.5900000</ele>
        <time>2010-08-21T15:16:29Z</time>
      </trkpt>
      <trkpt lat="50.9644280" lon="7.6376110">
        <ele>276.0400000</ele>
        <time>2010-08-21T15:16:30Z</time>
      </trkpt>
      <trkpt lat="50.9647480" lon="7.6378980">
        <ele>278.9200000</ele>
        <time>2010-08-21T15:16:31Z</time>
      </trkpt>
      <trkpt lat="50.9650790" lon="7.6382230">
        <ele>281.8000000</ele>
        <time>2010-08-21T15:16:32Z</time>
      </trkpt>
      <trkpt lat="50.9666870" lon="7.6398780">
        <ele>296.2200000</ele>
        <time>2010-08-21T15:16:37Z</time>
      </trkpt>
      <trkpt lat="50.9685060" lon="7.6411980">
        <ele>307.7600000</ele>
        <time>2010-08-21T15:16:43Z</time>
      </trkpt>
      <trkpt lat="50.9706670" lon="7.6419720">
        <ele>319.7800000</ele>
        <time>2010-08-21T15:16:50Z</time>
      </trkpt>
      <trkpt lat="50.9733690" lon="7.6423960">
        <ele>326.9900000</ele>
        <time>2010-08-21T15:16:59Z</time>
      </trkpt>
      <trkpt lat="50.9770420" lon="7.6431750">
        <ele>328.9100000</ele>
        <time>2010-08-21T15:17:11Z</time>
      </trkpt>
      <trkpt lat="50.9800360" lon="7.6445320">
        <ele>322.1800000</ele>
        <time>2010-08-21T15:17:21Z</time>
      </trkpt>
      <trkpt lat="50.9831930" lon="7.6456280">
        <ele>310.1600000</ele>
        <time>2010-08-21T15:17:31Z</time>
      </trkpt>
      <trkpt lat="50.9860710" lon="7.6458510">
        <ele>298.1500000</ele>
        <time>2010-08-21T15:17:40Z</time>
      </trkpt>
      <trkpt lat="50.9884370" lon="7.6454840">
        <ele>287.5700000</ele>
        <time>2010-08-21T15:17:48Z</time>
      </trkpt>
      <trkpt lat="50.9904630" lon="7.6445830">
        <ele>280.8400000</ele>
        <time>2010-08-21T15:17:55Z</time>
      </trkpt>
      <trkpt lat="50.9922310" lon="7.6430370">
        <ele>270.2700000</ele>
        <time>2010-08-21T15:18:02Z</time>
      </trkpt>
      <trkpt lat="50.9939790" lon="7.6406820">
        <ele>261.6200000</ele>
        <time>2010-08-21T15:18:10Z</time>
      </trkpt>
      <trkpt lat="50.9956410" lon="7.6388360">
        <ele>259.2100000</ele>
        <time>2010-08-21T15:18:18Z</time>
      </trkpt>
      <trkpt lat="50.9965290" lon="7.6382010">
        <ele>258.7300000</ele>
        <time>2010-08-21T15:18:23Z</time>
      </trkpt>
      <trkpt lat="50.9966950" lon="7.6381580">
        <ele>258.7300000</ele>
        <time>2010-08-21T15:18:24Z</time>
      </trkpt>
      <trkpt lat="50.9968610" lon="7.6381630">
        <ele>258.7300000</ele>
        <time>2010-08-21T15:18:25Z</time>
      </trkpt>
      <trkpt lat="50.9970060" lon="7.6382660">
        <ele>259.2100000</ele>
        <time>2010-08-21T15:18:26Z</time>
      </trkpt>
      <trkpt lat="50.9971410" lon="7.6384040">
        <ele>258.7300000</ele>
        <time>2010-08-21T15:18:27Z</time>
      </trkpt>
      <trkpt lat="50.9972730" lon="7.6385380">
        <ele>258.7300000</ele>
        <time>2010-08-21T15:18:28Z</time>
      </trkpt>
      <trkpt lat="50.9974080" lon="7.6386280">
        <ele>258.2500000</ele>
        <time>2010-08-21T15:18:29Z</time>
      </trkpt>
      <trkpt lat="50.9975520" lon="7.6386550">
        <ele>258.2500000</ele>
        <time>2010-08-21T15:18:30Z</time>
      </trkpt>
      <trkpt lat="50.9976800" lon="7.6386300">
        <ele>257.7700000</ele>
        <time>2010-08-21T15:18:31Z</time>
      </trkpt>
      <trkpt lat="50.9977970" lon="7.6385670">
        <ele>257.2900000</ele>
        <time>2010-08-21T15:18:32Z</time>
      </trkpt>
      <trkpt lat="50.9978920" lon="7.6383980">
        <ele>255.8500000</ele>
        <time>2010-08-21T15:18:33Z</time>
      </trkpt>
      <trkpt lat="50.9979560" lon="7.6382010">
        <ele>254.8900000</ele>
        <time>2010-08-21T15:18:34Z</time>
      </trkpt>
      <trkpt lat="50.9979840" lon="7.6379790">
        <ele>254.4100000</ele>
        <time>2010-08-21T15:18:35Z</time>
      </trkpt>
      <trkpt lat="50.9979890" lon="7.6377300">
        <ele>252.4800000</ele>
        <time>2010-08-21T15:18:36Z</time>
      </trkpt>
      <trkpt lat="50.9980000" lon="7.6375090">
        <ele>252.0000000</ele>
        <time>2010-08-21T15:18:37Z</time>
      </trkpt>
      <trkpt lat="50.9981210" lon="7.6363830">
        <ele>245.7500000</ele>
        <time>2010-08-21T15:18:42Z</time>
      </trkpt>
      <trkpt lat="50.9981860" lon="7.6361810">
        <ele>244.7900000</ele>
        <time>2010-08-21T15:18:43Z</time>
      </trkpt>
      <trkpt lat="50.9982730" lon="7.6359890">
        <ele>243.3500000</ele>
        <time>2010-08-21T15:18:44Z</time>
      </trkpt>
      <trkpt lat="50.9983820" lon="7.6358140">
        <ele>241.9100000</ele>
        <time>2010-08-21T15:18:45Z</time>
      </trkpt>
      <trkpt lat="50.9985100" lon="7.6356660">
        <ele>240.4700000</ele>
        <time>2010-08-21T15:18:46Z</time>
      </trkpt>
      <trkpt lat="50.9986540" lon="7.6355590">
        <ele>239.0200000</ele>
        <time>2010-08-21T15:18:47Z</time>
      </trkpt>
      <trkpt lat="50.9988090" lon="7.6355030">
        <ele>237.5800000</ele>
        <time>2010-08-21T15:18:48Z</time>
      </trkpt>
      <trkpt lat="50.9989740" lon="7.6354960">
        <ele>235.6600000</ele>
        <time>2010-08-21T15:18:49Z</time>
      </trkpt>
      <trkpt lat="50.9991490" lon="7.6355260">
        <ele>235.1800000</ele>
        <time>2010-08-21T15:18:50Z</time>
      </trkpt>
      <trkpt lat="50.9993400" lon="7.6356050">
        <ele>234.2200000</ele>
        <time>2010-08-21T15:18:51Z</time>
      </trkpt>
      <trkpt lat="50.9995420" lon="7.6357080">
        <ele>233.7400000</ele>
        <time>2010-08-21T15:18:52Z</time>
      </trkpt>
      <trkpt lat="50.9997360" lon="7.6357970">
        <ele>233.2600000</ele>
        <time>2010-08-21T15:18:53Z</time>
      </trkpt>
      <trkpt lat="51.0003680" lon="7.6360680">
        <ele>229.8900000</ele>
        <time>2010-08-21T15:18:57Z</time>
      </trkpt>
      <trkpt lat="51.0004930" lon="7.6360750">
        <ele>228.9300000</ele>
        <time>2010-08-21T15:18:58Z</time>
      </trkpt>
      <trkpt lat="51.0006080" lon="7.6360620">
        <ele>227.4900000</ele>
        <time>2010-08-21T15:18:59Z</time>
      </trkpt>
      <trkpt lat="51.0006790" lon="7.6360010">
        <ele>226.0500000</ele>
        <time>2010-08-21T15:19:00Z</time>
      </trkpt>
      <trkpt lat="51.0007310" lon="7.6359150">
        <ele>225.0900000</ele>
        <time>2010-08-21T15:19:01Z</time>
      </trkpt>
      <trkpt lat="51.0007680" lon="7.6358370">
        <ele>224.1200000</ele>
        <time>2010-08-21T15:19:02Z</time>
      </trkpt>
      <trkpt lat="51.0007890" lon="7.6357680">
        <ele>222.6800000</ele>
        <time>2010-08-21T15:19:03Z</time>
      </trkpt>
      <trkpt lat="51.0008000" lon="7.6357130">
        <ele>222.2000000</ele>
        <time>2010-08-21T15:19:04Z</time>
      </trkpt>
      <trkpt lat="51.0008080" lon="7.6356690">
        <ele>221.7200000</ele>
        <time>2010-08-21T15:19:05Z</time>
      </trkpt>
      <trkpt lat="51.0008680" lon="7.6354970">
        <ele>220.7600000</ele>
        <time>2010-08-21T15:19:09Z</time>
      </trkpt>
      <trkpt lat="51.0009190" lon="7.6354600">
        <ele>220.2800000</ele>
        <time>2010-08-21T15:19:10Z</time>
      </trkpt>
      <trkpt lat="51.0009950" lon="7.6354430">
        <ele>220.2800000</ele>
        <time>2010-08-21T15:19:11Z</time>
      </trkpt>
      <trkpt lat="51.0010840" lon="7.6354470">
        <ele>220.2800000</ele>
        <time>2010-08-21T15:19:12Z</time>
      </trkpt>
      <trkpt lat="51.0011820" lon="7.6354600">
        <ele>220.2800000</ele>
        <time>2010-08-21T15:19:13Z</time>
      </trkpt>
      <trkpt lat="51.0024260" lon="7.6357180">
        <ele>219.3200000</ele>
        <time>2010-08-21T15:19:23Z</time>
      </trkpt>
      <trkpt lat="51.0040660" lon="7.6360650">
        <ele>220.2800000</ele>
        <time>2010-08-21T15:19:33Z</time>
      </trkpt>
      <trkpt lat="51.0051850" lon="7.6359110">
        <ele>219.8000000</ele>
        <time>2010-08-21T15:19:40Z</time>
      </trkpt>
      <trkpt lat="51.0053420" lon="7.6357930">
        <ele>219.3200000</ele>
        <time>2010-08-21T15:19:41Z</time>
      </trkpt>
      <trkpt lat="51.0054920" lon="7.6356210">
        <ele>218.8400000</ele>
        <time>2010-08-21T15:19:42Z</time>
      </trkpt>
      <trkpt lat="51.0055980" lon="7.6353070">
        <ele>217.8800000</ele>
        <time>2010-08-21T15:19:43Z</time>
      </trkpt>
      <trkpt lat="51.0056920" lon="7.6350270">
        <ele>216.9100000</ele>
        <time>2010-08-21T15:19:44Z</time>
      </trkpt>
      <trkpt lat="51.0057670" lon="7.6347510">
        <ele>216.4300000</ele>
        <time>2010-08-21T15:19:45Z</time>
      </trkpt>
      <trkpt lat="51.0058140" lon="7.6344680">
        <ele>214.9900000</ele>
        <time>2010-08-21T15:19:46Z</time>
      </trkpt>
      <trkpt lat="51.0058320" lon="7.6341860">
        <ele>214.0300000</ele>
        <time>2010-08-21T15:19:47Z</time>
      </trkpt>
      <trkpt lat="51.0058360" lon="7.6339080">
        <ele>213.5500000</ele>
        <time>2010-08-21T15:19:48Z</time>
      </trkpt>
      <trkpt lat="51.0058170" lon="7.6336460">
        <ele>214.0300000</ele>
        <time>2010-08-21T15:19:49Z</time>
      </trkpt>
      <trkpt lat="51.0057800" lon="7.6333980">
        <ele>214.5100000</ele>
        <time>2010-08-21T15:19:50Z</time>
      </trkpt>
      <trkpt lat="51.0057400" lon="7.6331650">
        <ele>214.5100000</ele>
        <time>2010-08-21T15:19:51Z</time>
      </trkpt>
      <trkpt lat="51.0056830" lon="7.6329520">
        <ele>216.9100000</ele>
        <time>2010-08-21T15:19:52Z</time>
      </trkpt>
      <trkpt lat="51.0056290" lon="7.6327480">
        <ele>218.3600000</ele>
        <time>2010-08-21T15:19:53Z</time>
      </trkpt>
      <trkpt lat="51.0052690" lon="7.6311650">
        <ele>216.4300000</ele>
        <time>2010-08-21T15:20:01Z</time>
      </trkpt>
      <trkpt lat="51.0052580" lon="7.6309340">
        <ele>215.4700000</ele>
        <time>2010-08-21T15:20:02Z</time>
      </trkpt>
      <trkpt lat="51.0052640" lon="7.6307100">
        <ele>214.5100000</ele>
        <time>2010-08-21T15:20:03Z</time>
      </trkpt>
      <trkpt lat="51.0052890" lon="7.6304950">
        <ele>214.0300000</ele>
        <time>2010-08-21T15:20:04Z</time>
      </trkpt>
      <trkpt lat="51.0053350" lon="7.6302860">
        <ele>214.0300000</ele>
        <time>2010-08-21T15:20:05Z</time>
      </trkpt>
      <trkpt lat="51.0054030" lon="7.6300770">
        <ele>214.0300000</ele>
        <time>2010-08-21T15:20:06Z</time>
      </trkpt>
      <trkpt lat="51.0054930" lon="7.6298720">
        <ele>214.0300000</ele>
        <time>2010-08-21T15:20:07Z</time>
      </trkpt>
      <trkpt lat="51.0055890" lon="7.6296680">
        <ele>214.5100000</ele>
        <time>2010-08-21T15:20:08Z</time>
      </trkpt>
      <trkpt lat="51.0057450" lon="7.6292560">
        <ele>214.5100000</ele>
        <time>2010-08-21T15:20:10Z</time>
      </trkpt>
      <trkpt lat="51.0064580" lon="7.6271570">
        <ele>220.2800000</ele>
        <time>2010-08-21T15:20:20Z</time>
      </trkpt>
      <trkpt lat="51.0073550" lon="7.6259900">
        <ele>219.8000000</ele>
        <time>2010-08-21T15:20:28Z</time>
      </trkpt>
      <trkpt lat="51.0077940" lon="7.6251980">
        <ele>216.4300000</ele>
        <time>2010-08-21T15:20:35Z</time>
      </trkpt>
      <trkpt lat="51.0079000" lon="7.6249030">
        <ele>214.0300000</ele>
        <time>2010-08-21T15:20:42Z</time>
      </trkpt>
      <trkpt lat="51.0081550" lon="7.6243230">
        <ele>212.1100000</ele>
        <time>2010-08-21T15:20:50Z</time>
      </trkpt>
      <trkpt lat="51.0088360" lon="7.6233390">
        <ele>211.6300000</ele>
        <time>2010-08-21T15:20:59Z</time>
      </trkpt>
      <trkpt lat="51.0089590" lon="7.6232320">
        <ele>211.1500000</ele>
        <time>2010-08-21T15:21:00Z</time>
      </trkpt>
      <trkpt lat="51.0100120" lon="7.6226300">
        <ele>211.1500000</ele>
        <time>2010-08-21T15:21:09Z</time>
      </trkpt>
      <trkpt lat="51.0101260" lon="7.6226210">
        <ele>210.6700000</ele>
        <time>2010-08-21T15:21:10Z</time>
      </trkpt>
      <trkpt lat="51.0102440" lon="7.6226340">
        <ele>210.1900000</ele>
        <time>2010-08-21T15:21:11Z</time>
      </trkpt>
      <trkpt lat="51.0103650" lon="7.6226610">
        <ele>209.7000000</ele>
        <time>2010-08-21T15:21:12Z</time>
      </trkpt>
      <trkpt lat="51.0104860" lon="7.6227090">
        <ele>209.7000000</ele>
        <time>2010-08-21T15:21:13Z</time>
      </trkpt>
      <trkpt lat="51.0106070" lon="7.6227790">
        <ele>209.7000000</ele>
        <time>2010-08-21T15:21:14Z</time>
      </trkpt>
      <trkpt lat="51.0107310" lon="7.6228760">
        <ele>210.1900000</ele>
        <time>2010-08-21T15:21:15Z</time>
      </trkpt>
      <trkpt lat="51.0108560" lon="7.6229820">
        <ele>210.1900000</ele>
        <time>2010-08-21T15:21:16Z</time>
      </trkpt>
      <trkpt lat="51.0115540" lon="7.6234060">
        <ele>211.1500000</ele>
        <time>2010-08-21T15:21:22Z</time>
      </trkpt>
      <trkpt lat="51.0117020" lon="7.6234070">
        <ele>211.6300000</ele>
        <time>2010-08-21T15:21:23Z</time>
      </trkpt>
      <trkpt lat="51.0128170" lon="7.6232850">
        <ele>215.9500000</ele>
        <time>2010-08-21T15:21:32Z</time>
      </trkpt>
      <trkpt lat="51.0144380" lon="7.6232360">
        <ele>220.2800000</ele>
        <time>2010-08-21T15:21:45Z</time>
      </trkpt>
      <trkpt lat="51.0163920" lon="7.6238040">
        <ele>223.1600000</ele>
        <time>2010-08-21T15:21:59Z</time>
      </trkpt>
      <trkpt lat="51.0176210" lon="7.6238550">
        <ele>223.6400000</ele>
        <time>2010-08-21T15:22:08Z</time>
      </trkpt>
      <trkpt lat="51.0177490" lon="7.6237930">
        <ele>223.6400000</ele>
        <time>2010-08-21T15:22:09Z</time>
      </trkpt>
      <trkpt lat="51.0178730" lon="7.6237020">
        <ele>223.1600000</ele>
        <time>2010-08-21T15:22:10Z</time>
      </trkpt>
      <trkpt lat="51.0187780" lon="7.6227820">
        <ele>223.1600000</ele>
        <time>2010-08-21T15:22:18Z</time>
      </trkpt>
      <trkpt lat="51.0188620" lon="7.6226330">
        <ele>224.1200000</ele>
        <time>2010-08-21T15:22:19Z</time>
      </trkpt>
      <trkpt lat="51.0189270" lon="7.6224650">
        <ele>223.6400000</ele>
        <time>2010-08-21T15:22:20Z</time>
      </trkpt>
      <trkpt lat="51.0189840" lon="7.6222800">
        <ele>223.6400000</ele>
        <time>2010-08-21T15:22:21Z</time>
      </trkpt>
      <trkpt lat="51.0190300" lon="7.6220750">
        <ele>223.6400000</ele>
        <time>2010-08-21T15:22:22Z</time>
      </trkpt>
      <trkpt lat="51.0190610" lon="7.6218610">
        <ele>222.6800000</ele>
        <time>2010-08-21T15:22:23Z</time>
      </trkpt>
      <trkpt lat="51.0190790" lon="7.6216450">
        <ele>222.6800000</ele>
        <time>2010-08-21T15:22:24Z</time>
      </trkpt>
      <trkpt lat="51.0190900" lon="7.6214230">
        <ele>221.7200000</ele>
        <time>2010-08-21T15:22:25Z</time>
      </trkpt>
      <trkpt lat="51.0190960" lon="7.6211970">
        <ele>221.2400000</ele>
        <time>2010-08-21T15:22:26Z</time>
      </trkpt>
      <trkpt lat="51.0192400" lon="7.6189480">
        <ele>221.2400000</ele>
        <time>2010-08-21T15:22:37Z</time>
      </trkpt>
      <trkpt lat="51.0195550" lon="7.6174030">
        <ele>223.6400000</ele>
        <time>2010-08-21T15:22:47Z</time>
      </trkpt>
      <trkpt lat="51.0201200" lon="7.6163410">
        <ele>226.0500000</ele>
        <time>2010-08-21T15:22:58Z</time>
      </trkpt>
      <trkpt lat="51.0209000" lon="7.6156970">
        <ele>230.3700000</ele>
        <time>2010-08-21T15:23:06Z</time>
      </trkpt>
      <trkpt lat="51.0220410" lon="7.6149840">
        <ele>232.7800000</ele>
        <time>2010-08-21T15:23:16Z</time>
      </trkpt>
      <trkpt lat="51.0224790" lon="7.6147310">
        <ele>231.8100000</ele>
        <time>2010-08-21T15:23:22Z</time>
      </trkpt>
      <trkpt lat="51.0231470" lon="7.6143250">
        <ele>232.3000000</ele>
        <time>2010-08-21T15:23:31Z</time>
      </trkpt>
      <trkpt lat="51.0236480" lon="7.6140150">
        <ele>232.7800000</ele>
        <time>2010-08-21T15:23:38Z</time>
      </trkpt>
      <trkpt lat="51.0237070" lon="7.6140190">
        <ele>232.3000000</ele>
        <time>2010-08-21T15:23:39Z</time>
      </trkpt>
      <trkpt lat="51.0237720" lon="7.6140260">
        <ele>231.8100000</ele>
        <time>2010-08-21T15:23:40Z</time>
      </trkpt>
      <trkpt lat="51.0238340" lon="7.6140210">
        <ele>231.8100000</ele>
        <time>2010-08-21T15:23:41Z</time>
      </trkpt>
      <trkpt lat="51.0239010" lon="7.6140080">
        <ele>231.3300000</ele>
        <time>2010-08-21T15:23:42Z</time>
      </trkpt>
      <trkpt lat="51.0239780" lon="7.6140120">
        <ele>231.3300000</ele>
        <time>2010-08-21T15:23:43Z</time>
      </trkpt>
      <trkpt lat="51.0240760" lon="7.6140430">
        <ele>231.3300000</ele>
        <time>2010-08-21T15:23:44Z</time>
      </trkpt>
      <trkpt lat="51.0241750" lon="7.6141030">
        <ele>231.8100000</ele>
        <time>2010-08-21T15:23:45Z</time>
      </trkpt>
      <trkpt lat="51.0242860" lon="7.6141830">
        <ele>232.3000000</ele>
        <time>2010-08-21T15:23:46Z</time>
      </trkpt>
      <trkpt lat="51.0243930" lon="7.6142990">
        <ele>232.3000000</ele>
        <time>2010-08-21T15:23:47Z</time>
      </trkpt>
      <trkpt lat="51.0245030" lon="7.6144150">
        <ele>232.7800000</ele>
        <time>2010-08-21T15:23:48Z</time>
      </trkpt>
      <trkpt lat="51.0257590" lon="7.6152990">
        <ele>236.1400000</ele>
        <time>2010-08-21T15:23:58Z</time>
      </trkpt>
      <trkpt lat="51.0270350" lon="7.6158310">
        <ele>237.5800000</ele>
        <time>2010-08-21T15:24:09Z</time>
      </trkpt>
      <trkpt lat="51.0280190" lon="7.6163350">
        <ele>241.4300000</ele>
        <time>2010-08-21T15:24:18Z</time>
      </trkpt>
      <trkpt lat="51.0285010" lon="7.6166110">
        <ele>243.3500000</ele>
        <time>2010-08-21T15:24:23Z</time>
      </trkpt>
      <trkpt lat="51.0285890" lon="7.6166350">
        <ele>243.8300000</ele>
        <time>2010-08-21T15:24:24Z</time>
      </trkpt>
      <trkpt lat="51.0286800" lon="7.6166760">
        <ele>244.3100000</ele>
        <time>2010-08-21T15:24:25Z</time>
      </trkpt>
      <trkpt lat="51.0296390" lon="7.6172120">
        <ele>249.1200000</ele>
        <time>2010-08-21T15:24:33Z</time>
      </trkpt>
      <trkpt lat="51.0297680" lon="7.6173210">
        <ele>250.0800000</ele>
        <time>2010-08-21T15:24:34Z</time>
      </trkpt>
      <trkpt lat="51.0298960" lon="7.6174590">
        <ele>250.0800000</ele>
        <time>2010-08-21T15:24:35Z</time>
      </trkpt>
      <trkpt lat="51.0300150" lon="7.6176150">
        <ele>250.5600000</ele>
        <time>2010-08-21T15:24:36Z</time>
      </trkpt>
      <trkpt lat="51.0302120" lon="7.6180160">
        <ele>251.5200000</ele>
        <time>2010-08-21T15:24:38Z</time>
      </trkpt>
      <trkpt lat="51.0303050" lon="7.6182260">
        <ele>252.9600000</ele>
        <time>2010-08-21T15:24:39Z</time>
      </trkpt>
      <trkpt lat="51.0303920" lon="7.6184490">
        <ele>253.4400000</ele>
        <time>2010-08-21T15:24:40Z</time>
      </trkpt>
      <trkpt lat="51.0308030" lon="7.6202630">
        <ele>258.7300000</ele>
        <time>2010-08-21T15:24:47Z</time>
      </trkpt>
      <trkpt lat="51.0308200" lon="7.6205490">
        <ele>260.1700000</ele>
        <time>2010-08-21T15:24:48Z</time>
      </trkpt>
      <trkpt lat="51.0307110" lon="7.6227670">
        <ele>265.4600000</ele>
        <time>2010-08-21T15:24:55Z</time>
      </trkpt>
      <trkpt lat="51.0306930" lon="7.6252890">
        <ele>270.2700000</ele>
        <time>2010-08-21T15:25:03Z</time>
      </trkpt>
      <trkpt lat="51.0311860" lon="7.6271910">
        <ele>274.5900000</ele>
        <time>2010-08-21T15:25:10Z</time>
      </trkpt>
      <trkpt lat="51.0318330" lon="7.6283280">
        <ele>282.7700000</ele>
        <time>2010-08-21T15:25:15Z</time>
      </trkpt>
      <trkpt lat="51.0332750" lon="7.6303920">
        <ele>291.4200000</ele>
        <time>2010-08-21T15:25:25Z</time>
      </trkpt>
      <trkpt lat="51.0341890" lon="7.6320240">
        <ele>306.8000000</ele>
        <time>2010-08-21T15:25:32Z</time>
      </trkpt>
      <trkpt lat="51.0351360" lon="7.6335010">
        <ele>323.1400000</ele>
        <time>2010-08-21T15:25:40Z</time>
      </trkpt>
      <trkpt lat="51.0356150" lon="7.6337910">
        <ele>323.1400000</ele>
        <time>2010-08-21T15:25:45Z</time>
      </trkpt>
      <trkpt lat="51.0356900" lon="7.6337050">
        <ele>321.7000000</ele>
        <time>2010-08-21T15:25:46Z</time>
      </trkpt>
      <trkpt lat="51.0357560" lon="7.6336260">
        <ele>319.7800000</ele>
        <time>2010-08-21T15:25:47Z</time>
      </trkpt>
      <trkpt lat="51.0358080" lon="7.6335450">
        <ele>316.8900000</ele>
        <time>2010-08-21T15:25:48Z</time>
      </trkpt>
      <trkpt lat="51.0358510" lon="7.6334590">
        <ele>313.5300000</ele>
        <time>2010-08-21T15:25:49Z</time>
      </trkpt>
      <trkpt lat="51.0358910" lon="7.6333640">
        <ele>310.1600000</ele>
        <time>2010-08-21T15:25:50Z</time>
      </trkpt>
      <trkpt lat="51.0359350" lon="7.6332680">
        <ele>309.2000000</ele>
        <time>2010-08-21T15:25:51Z</time>
      </trkpt>
      <trkpt lat="51.0362270" lon="7.6319800">
        <ele>307.7600000</ele>
        <time>2010-08-21T15:26:00Z</time>
      </trkpt>
      <trkpt lat="51.0362610" lon="7.6310920">
        <ele>307.7600000</ele>
        <time>2010-08-21T15:26:06Z</time>
      </trkpt>
      <trkpt lat="51.0362810" lon="7.6309600">
        <ele>304.8800000</ele>
        <time>2010-08-21T15:26:07Z</time>
      </trkpt>
      <trkpt lat="51.0363350" lon="7.6308520">
        <ele>302.9500000</ele>
        <time>2010-08-21T15:26:08Z</time>
      </trkpt>
      <trkpt lat="51.0364170" lon="7.6307590">
        <ele>301.9900000</ele>
        <time>2010-08-21T15:26:09Z</time>
      </trkpt>
      <trkpt lat="51.0365140" lon="7.6306780">
        <ele>301.9900000</ele>
        <time>2010-08-21T15:26:10Z</time>
      </trkpt>
      <trkpt lat="51.0366080" lon="7.6305900">
        <ele>300.0700000</ele>
        <time>2010-08-21T15:26:11Z</time>
      </trkpt>
      <trkpt lat="51.0372000" lon="7.6301080">
        <ele>299.5900000</ele>
        <time>2010-08-21T15:26:18Z</time>
      </trkpt>
      <trkpt lat="51.0377730" lon="7.6297820">
        <ele>300.5500000</ele>
        <time>2010-08-21T15:26:21Z</time>
      </trkpt>
      <trkpt lat="51.0394020" lon="7.6286360">
        <ele>298.6300000</ele>
        <time>2010-08-21T15:26:29Z</time>
      </trkpt>
      <trkpt lat="51.0407310" lon="7.6276380">
        <ele>298.6300000</ele>
        <time>2010-08-21T15:26:36Z</time>
      </trkpt>
      <trkpt lat="51.0422240" lon="7.6271540">
        <ele>296.7000000</ele>
        <time>2010-08-21T15:26:44Z</time>
      </trkpt>
      <trkpt lat="51.0425890" lon="7.6266870">
        <ele>298.1500000</ele>
        <time>2010-08-21T15:26:47Z</time>
      </trkpt>
      <trkpt lat="51.0426790" lon="7.6264550">
        <ele>296.2200000</ele>
        <time>2010-08-21T15:26:48Z</time>
      </trkpt>
      <trkpt lat="51.0427620" lon="7.6262400">
        <ele>295.2600000</ele>
        <time>2010-08-21T15:26:49Z</time>
      </trkpt>
      <trkpt lat="51.0430120" lon="7.6258540">
        <ele>292.8600000</ele>
        <time>2010-08-21T15:26:52Z</time>
      </trkpt>
      <trkpt lat="51.0431110" lon="7.6258680">
        <ele>292.8600000</ele>
        <time>2010-08-21T15:26:53Z</time>
      </trkpt>
      <trkpt lat="51.0432130" lon="7.6259550">
        <ele>292.8600000</ele>
        <time>2010-08-21T15:26:54Z</time>
      </trkpt>
      <trkpt lat="51.0432940" lon="7.6261480">
        <ele>292.3800000</ele>
        <time>2010-08-21T15:26:55Z</time>
      </trkpt>
      <trkpt lat="51.0433660" lon="7.6263400">
        <ele>291.9000000</ele>
        <time>2010-08-21T15:26:56Z</time>
      </trkpt>
      <trkpt lat="51.0434020" lon="7.6265730">
        <ele>292.3800000</ele>
        <time>2010-08-21T15:26:57Z</time>
      </trkpt>
      <trkpt lat="51.0434590" lon="7.6267760">
        <ele>291.9000000</ele>
        <time>2010-08-21T15:26:58Z</time>
      </trkpt>
      <trkpt lat="51.0435090" lon="7.6269880">
        <ele>291.4200000</ele>
        <time>2010-08-21T15:26:59Z</time>
      </trkpt>
      <trkpt lat="51.0435580" lon="7.6271580">
        <ele>290.9400000</ele>
        <time>2010-08-21T15:27:00Z</time>
      </trkpt>
      <trkpt lat="51.0438050" lon="7.6275730">
        <ele>293.3400000</ele>
        <time>2010-08-21T15:27:03Z</time>
      </trkpt>
      <trkpt lat="51.0439540" lon="7.6276560">
        <ele>292.8600000</ele>
        <time>2010-08-21T15:27:04Z</time>
      </trkpt>
      <trkpt lat="51.0441470" lon="7.6276710">
        <ele>292.8600000</ele>
        <time>2010-08-21T15:27:05Z</time>
      </trkpt>
      <trkpt lat="51.0443650" lon="7.6276000">
        <ele>293.3400000</ele>
        <time>2010-08-21T15:27:06Z</time>
      </trkpt>
      <trkpt lat="51.0445900" lon="7.6274920">
        <ele>293.3400000</ele>
        <time>2010-08-21T15:27:07Z</time>
      </trkpt>
      <trkpt lat="51.0448310" lon="7.6273520">
        <ele>292.8600000</ele>
        <time>2010-08-21T15:27:08Z</time>
      </trkpt>
      <trkpt lat="51.0450690" lon="7.6271680">
        <ele>293.3400000</ele>
        <time>2010-08-21T15:27:09Z</time>
      </trkpt>
      <trkpt lat="51.0453010" lon="7.6269040">
        <ele>293.8200000</ele>
        <time>2010-08-21T15:27:10Z</time>
      </trkpt>
      <trkpt lat="51.0455110" lon="7.6267020">
        <ele>293.8200000</ele>
        <time>2010-08-21T15:27:11Z</time>
      </trkpt>
      <trkpt lat="51.0457140" lon="7.6264940">
        <ele>293.3400000</ele>
        <time>2010-08-21T15:27:12Z</time>
      </trkpt>
      <trkpt lat="51.0462390" lon="7.6260480">
        <ele>292.3800000</ele>
        <time>2010-08-21T15:27:15Z</time>
      </trkpt>
      <trkpt lat="51.0464330" lon="7.6259870">
        <ele>292.8600000</ele>
        <time>2010-08-21T15:27:16Z</time>
      </trkpt>
      <trkpt lat="51.0466520" lon="7.6259540">
        <ele>293.3400000</ele>
        <time>2010-08-21T15:27:17Z</time>
      </trkpt>
      <trkpt lat="51.0479480" lon="7.6260680">
        <ele>293.8200000</ele>
        <time>2010-08-21T15:27:24Z</time>
      </trkpt>
      <trkpt lat="51.0480960" lon="7.6261950">
        <ele>293.3400000</ele>
        <time>2010-08-21T15:27:25Z</time>
      </trkpt>
      <trkpt lat="51.0488660" lon="7.6264320">
        <ele>294.3000000</ele>
        <time>2010-08-21T15:27:30Z</time>
      </trkpt>
      <trkpt lat="51.0489920" lon="7.6262950">
        <ele>293.8200000</ele>
        <time>2010-08-21T15:27:31Z</time>
      </trkpt>
      <trkpt lat="51.0491050" lon="7.6261200">
        <ele>292.8600000</ele>
        <time>2010-08-21T15:27:32Z</time>
      </trkpt>
      <trkpt lat="51.0491790" lon="7.6258210">
        <ele>292.3800000</ele>
        <time>2010-08-21T15:27:33Z</time>
      </trkpt>
      <trkpt lat="51.0492480" lon="7.6255160">
        <ele>292.8600000</ele>
        <time>2010-08-21T15:27:34Z</time>
      </trkpt>
      <trkpt lat="51.0492790" lon="7.6251690">
        <ele>292.8600000</ele>
        <time>2010-08-21T15:27:35Z</time>
      </trkpt>
      <trkpt lat="51.0493290" lon="7.6248470">
        <ele>291.9000000</ele>
        <time>2010-08-21T15:27:36Z</time>
      </trkpt>
      <trkpt lat="51.0493680" lon="7.6245420">
        <ele>292.3800000</ele>
        <time>2010-08-21T15:27:37Z</time>
      </trkpt>
      <trkpt lat="51.0493910" lon="7.6242580">
        <ele>293.3400000</ele>
        <time>2010-08-21T15:27:38Z</time>
      </trkpt>
      <trkpt lat="51.0494110" lon="7.6240270">
        <ele>292.8600000</ele>
        <time>2010-08-21T15:27:39Z</time>
      </trkpt>
      <trkpt lat="51.0496160" lon="7.6236370">
        <ele>293.3400000</ele>
        <time>2010-08-21T15:27:42Z</time>
      </trkpt>
      <trkpt lat="51.0497390" lon="7.6235340">
        <ele>293.3400000</ele>
        <time>2010-08-21T15:27:43Z</time>
      </trkpt>
      <trkpt lat="51.0498830" lon="7.6235290">
        <ele>293.3400000</ele>
        <time>2010-08-21T15:27:44Z</time>
      </trkpt>
      <trkpt lat="51.0500300" lon="7.6235300">
        <ele>292.8600000</ele>
        <time>2010-08-21T15:27:45Z</time>
      </trkpt>
      <trkpt lat="51.0501830" lon="7.6236030">
        <ele>293.3400000</ele>
        <time>2010-08-21T15:27:46Z</time>
      </trkpt>
      <trkpt lat="51.0503170" lon="7.6237450">
        <ele>293.3400000</ele>
        <time>2010-08-21T15:27:47Z</time>
      </trkpt>
      <trkpt lat="51.0504140" lon="7.6239730">
        <ele>292.3800000</ele>
        <time>2010-08-21T15:27:48Z</time>
      </trkpt>
      <trkpt lat="51.0505100" lon="7.6241910">
        <ele>291.4200000</ele>
        <time>2010-08-21T15:27:49Z</time>
      </trkpt>
      <trkpt lat="51.0505860" lon="7.6244200">
        <ele>291.4200000</ele>
        <time>2010-08-21T15:27:50Z</time>
      </trkpt>
      <trkpt lat="51.0506580" lon="7.6246280">
        <ele>290.9400000</ele>
        <time>2010-08-21T15:27:51Z</time>
      </trkpt>
      <trkpt lat="51.0507140" lon="7.6248330">
        <ele>290.9400000</ele>
        <time>2010-08-21T15:27:52Z</time>
      </trkpt>
      <trkpt lat="51.0507720" lon="7.6250210">
        <ele>290.9400000</ele>
        <time>2010-08-21T15:27:53Z</time>
      </trkpt>
      <trkpt lat="51.0508280" lon="7.6252030">
        <ele>291.9000000</ele>
        <time>2010-08-21T15:27:54Z</time>
      </trkpt>
      <trkpt lat="51.0508960" lon="7.6253650">
        <ele>292.8600000</ele>
        <time>2010-08-21T15:27:55Z</time>
      </trkpt>
      <trkpt lat="51.0509780" lon="7.6255050">
        <ele>293.3400000</ele>
        <time>2010-08-21T15:27:56Z</time>
      </trkpt>
      <trkpt lat="51.0510660" lon="7.6256400">
        <ele>293.8200000</ele>
        <time>2010-08-21T15:27:57Z</time>
      </trkpt>
      <trkpt lat="51.0511620" lon="7.6257700">
        <ele>294.3000000</ele>
        <time>2010-08-21T15:27:58Z</time>
      </trkpt>
      <trkpt lat="51.0522180" lon="7.6266590">
        <ele>294.7800000</ele>
        <time>2010-08-21T15:28:07Z</time>
      </trkpt>
      <trkpt lat="51.0537780" lon="7.6278880">
        <ele>294.7800000</ele>
        <time>2010-08-21T15:28:21Z</time>
      </trkpt>
      <trkpt lat="51.0538520" lon="7.6279020">
        <ele>294.7800000</ele>
        <time>2010-08-21T15:28:22Z</time>
      </trkpt>
      <trkpt lat="51.0539100" lon="7.6278910">
        <ele>294.3000000</ele>
        <time>2010-08-21T15:28:23Z</time>
      </trkpt>
      <trkpt lat="51.0539460" lon="7.6278450">
        <ele>295.7400000</ele>
        <time>2010-08-21T15:28:24Z</time>
      </trkpt>
      <trkpt lat="51.0539830" lon="7.6278070">
        <ele>295.7400000</ele>
        <time>2010-08-21T15:28:25Z</time>
      </trkpt>
      <trkpt lat="51.0539960" lon="7.6277600">
        <ele>294.7800000</ele>
        <time>2010-08-21T15:28:26Z</time>
      </trkpt>
      <trkpt lat="51.0540070" lon="7.6277260">
        <ele>295.2600000</ele>
        <time>2010-08-21T15:28:27Z</time>
      </trkpt>
      <trkpt lat="51.0540180" lon="7.6276870">
        <ele>295.2600000</ele>
        <time>2010-08-21T15:28:28Z</time>
      </trkpt>
      <trkpt lat="51.0540180" lon="7.6276270">
        <ele>294.7800000</ele>
        <time>2010-08-21T15:28:29Z</time>
      </trkpt>
      <trkpt lat="51.0539930" lon="7.6275600">
        <ele>294.7800000</ele>
        <time>2010-08-21T15:28:30Z</time>
      </trkpt>
      <trkpt lat="51.0539450" lon="7.6274870">
        <ele>295.7400000</ele>
        <time>2010-08-21T15:28:31Z</time>
      </trkpt>
      <trkpt lat="51.0538810" lon="7.6273980">
        <ele>296.2200000</ele>
        <time>2010-08-21T15:28:32Z</time>
      </trkpt>
      <trkpt lat="51.0537980" lon="7.6272890">
        <ele>296.7000000</ele>
        <time>2010-08-21T15:28:33Z</time>
      </trkpt>
      <trkpt lat="51.0531770" lon="7.6263860">
        <ele>301.5100000</ele>
        <time>2010-08-21T15:28:39Z</time>
      </trkpt>
      <trkpt lat="51.0530750" lon="7.6261800">
        <ele>302.4700000</ele>
        <time>2010-08-21T15:28:40Z</time>
      </trkpt>
      <trkpt lat="51.0529850" lon="7.6259690">
        <ele>303.4300000</ele>
        <time>2010-08-21T15:28:41Z</time>
      </trkpt>
      <trkpt lat="51.0529050" lon="7.6257490">
        <ele>304.3900000</ele>
        <time>2010-08-21T15:28:42Z</time>
      </trkpt>
      <trkpt lat="51.0528360" lon="7.6255050">
        <ele>304.8800000</ele>
        <time>2010-08-21T15:28:43Z</time>
      </trkpt>
      <trkpt lat="51.0527810" lon="7.6252380">
        <ele>305.8400000</ele>
        <time>2010-08-21T15:28:44Z</time>
      </trkpt>
      <trkpt lat="51.0527400" lon="7.6249500">
        <ele>306.3200000</ele>
        <time>2010-08-21T15:28:45Z</time>
      </trkpt>
      <trkpt lat="51.0527080" lon="7.6246420">
        <ele>307.2800000</ele>
        <time>2010-08-21T15:28:46Z</time>
      </trkpt>
      <trkpt lat="51.0525460" lon="7.6222390">
        <ele>314.4900000</ele>
        <time>2010-08-21T15:28:54Z</time>
      </trkpt>
      <trkpt lat="51.0525650" lon="7.6219410">
        <ele>315.4500000</ele>
        <time>2010-08-21T15:28:55Z</time>
      </trkpt>
      <trkpt lat="51.0526340" lon="7.6209120">
        <ele>319.7800000</ele>
        <time>2010-08-21T15:28:59Z</time>
      </trkpt>
      <trkpt lat="51.0526140" lon="7.6203570">
        <ele>321.2200000</ele>
        <time>2010-08-21T15:29:02Z</time>
      </trkpt>
      <trkpt lat="51.0526350" lon="7.6201880">
        <ele>322.1800000</ele>
        <time>2010-08-21T15:29:03Z</time>
      </trkpt>
      <trkpt lat="51.0526830" lon="7.6200290">
        <ele>322.6600000</ele>
        <time>2010-08-21T15:29:04Z</time>
      </trkpt>
      <trkpt lat="51.0527660" lon="7.6198840">
        <ele>323.6200000</ele>
        <time>2010-08-21T15:29:05Z</time>
      </trkpt>
      <trkpt lat="51.0529000" lon="7.6197600">
        <ele>324.5800000</ele>
        <time>2010-08-21T15:29:06Z</time>
      </trkpt>
      <trkpt lat="51.0530470" lon="7.6196460">
        <ele>325.5400000</ele>
        <time>2010-08-21T15:29:07Z</time>
      </trkpt>
      <trkpt lat="51.0532160" lon="7.6195020">
        <ele>326.5000000</ele>
        <time>2010-08-21T15:29:08Z</time>
      </trkpt>
      <trkpt lat="51.0537370" lon="7.6187510">
        <ele>329.3900000</ele>
        <time>2010-08-21T15:29:11Z</time>
      </trkpt>
      <trkpt lat="51.0539200" lon="7.6184320">
        <ele>331.3100000</ele>
        <time>2010-08-21T15:29:12Z</time>
      </trkpt>
      <trkpt lat="51.0551890" lon="7.6168580">
        <ele>347.6500000</ele>
        <time>2010-08-21T15:29:18Z</time>
      </trkpt>
      <trkpt lat="51.0562680" lon="7.6159920">
        <ele>369.2800000</ele>
        <time>2010-08-21T15:29:23Z</time>
      </trkpt>
      <trkpt lat="51.0564720" lon="7.6159230">
        <ele>373.1300000</ele>
        <time>2010-08-21T15:29:24Z</time>
      </trkpt>
      <trkpt lat="51.0566810" lon="7.6158950">
        <ele>377.4500000</ele>
        <time>2010-08-21T15:29:25Z</time>
      </trkpt>
      <trkpt lat="51.0568920" lon="7.6158970">
        <ele>380.3400000</ele>
        <time>2010-08-21T15:29:26Z</time>
      </trkpt>
      <trkpt lat="51.0570910" lon="7.6159240">
        <ele>383.7000000</ele>
        <time>2010-08-21T15:29:27Z</time>
      </trkpt>
      <trkpt lat="51.0572740" lon="7.6159890">
        <ele>387.0700000</ele>
        <time>2010-08-21T15:29:28Z</time>
      </trkpt>
      <trkpt lat="51.0574460" lon="7.6160620">
        <ele>391.3900000</ele>
        <time>2010-08-21T15:29:29Z</time>
      </trkpt>
      <trkpt lat="51.0576060" lon="7.6161380">
        <ele>393.8000000</ele>
        <time>2010-08-21T15:29:30Z</time>
      </trkpt>
      <trkpt lat="51.0578900" lon="7.6161930">
        <ele>399.5700000</ele>
        <time>2010-08-21T15:29:32Z</time>
      </trkpt>
      <trkpt lat="51.0580190" lon="7.6161670">
        <ele>401.9700000</ele>
        <time>2010-08-21T15:29:33Z</time>
      </trkpt>
      <trkpt lat="51.0581450" lon="7.6161040">
        <ele>403.8900000</ele>
        <time>2010-08-21T15:29:34Z</time>
      </trkpt>
      <trkpt lat="51.0582760" lon="7.6160170">
        <ele>405.3300000</ele>
        <time>2010-08-21T15:29:35Z</time>
      </trkpt>
      <trkpt lat="51.0584090" lon="7.6159140">
        <ele>406.2900000</ele>
        <time>2010-08-21T15:29:36Z</time>
      </trkpt>
      <trkpt lat="51.0585250" lon="7.6157700">
        <ele>407.2600000</ele>
        <time>2010-08-21T15:29:37Z</time>
      </trkpt>
      <trkpt lat="51.0586190" lon="7.6156150">
        <ele>408.2200000</ele>
        <time>2010-08-21T15:29:38Z</time>
      </trkpt>
      <trkpt lat="51.0586870" lon="7.6154320">
        <ele>408.7000000</ele>
        <time>2010-08-21T15:29:39Z</time>
      </trkpt>
      <trkpt lat="51.0587240" lon="7.6152190">
        <ele>408.2200000</ele>
        <time>2010-08-21T15:29:40Z</time>
      </trkpt>
      <trkpt lat="51.0587420" lon="7.6150070">
        <ele>408.7000000</ele>
        <time>2010-08-21T15:29:41Z</time>
      </trkpt>
      <trkpt lat="51.0587640" lon="7.6148200">
        <ele>408.2200000</ele>
        <time>2010-08-21T15:29:42Z</time>
      </trkpt>
      <trkpt lat="51.0587940" lon="7.6146710">
        <ele>409.1800000</ele>
        <time>2010-08-21T15:29:43Z</time>
      </trkpt>
      <trkpt lat="51.0588530" lon="7.6145580">
        <ele>410.1400000</ele>
        <time>2010-08-21T15:29:44Z</time>
      </trkpt>
      <trkpt lat="51.0589390" lon="7.6145060">
        <ele>410.6200000</ele>
        <time>2010-08-21T15:29:45Z</time>
      </trkpt>
      <trkpt lat="51.0590370" lon="7.6145090">
        <ele>412.0600000</ele>
        <time>2010-08-21T15:29:46Z</time>
      </trkpt>
      <trkpt lat="51.0591380" lon="7.6145960">
        <ele>413.0200000</ele>
        <time>2010-08-21T15:29:47Z</time>
      </trkpt>
      <trkpt lat="51.0592130" lon="7.6147300">
        <ele>413.9800000</ele>
        <time>2010-08-21T15:29:48Z</time>
      </trkpt>
      <trkpt lat="51.0592780" lon="7.6148980">
        <ele>415.9100000</ele>
        <time>2010-08-21T15:29:49Z</time>
      </trkpt>
      <trkpt lat="51.0592960" lon="7.6151050">
        <ele>414.9500000</ele>
        <time>2010-08-21T15:29:50Z</time>
      </trkpt>
      <trkpt lat="51.0592970" lon="7.6152900">
        <ele>414.9500000</ele>
        <time>2010-08-21T15:29:51Z</time>
      </trkpt>
      <trkpt lat="51.0592680" lon="7.6154860">
        <ele>415.4300000</ele>
        <time>2010-08-21T15:29:52Z</time>
      </trkpt>
      <trkpt lat="51.0592250" lon="7.6156800">
        <ele>416.3900000</ele>
        <time>2010-08-21T15:29:53Z</time>
      </trkpt>
      <trkpt lat="51.0591790" lon="7.6158580">
        <ele>416.8700000</ele>
        <time>2010-08-21T15:29:54Z</time>
      </trkpt>
      <trkpt lat="51.0591110" lon="7.6161590">
        <ele>417.3500000</ele>
        <time>2010-08-21T15:29:56Z</time>
      </trkpt>
      <trkpt lat="51.0591100" lon="7.6162770">
        <ele>417.8300000</ele>
        <time>2010-08-21T15:29:57Z</time>
      </trkpt>
      <trkpt lat="51.0591450" lon="7.6163700">
        <ele>418.7900000</ele>
        <time>2010-08-21T15:29:58Z</time>
      </trkpt>
      <trkpt lat="51.0592150" lon="7.6164080">
        <ele>419.7500000</ele>
        <time>2010-08-21T15:29:59Z</time>
      </trkpt>
      <trkpt lat="51.0592920" lon="7.6164350">
        <ele>420.7100000</ele>
        <time>2010-08-21T15:30:00Z</time>
      </trkpt>
      <trkpt lat="51.0594120" lon="7.6164130">
        <ele>421.1900000</ele>
        <time>2010-08-21T15:30:01Z</time>
      </trkpt>
      <trkpt lat="51.0595360" lon="7.6163960">
        <ele>421.6800000</ele>
        <time>2010-08-21T15:30:02Z</time>
      </trkpt>
      <trkpt lat="51.0596780" lon="7.6163060">
        <ele>421.6800000</ele>
        <time>2010-08-21T15:30:03Z</time>
      </trkpt>
      <trkpt lat="51.0598260" lon="7.6161790">
        <ele>422.1600000</ele>
        <time>2010-08-21T15:30:04Z</time>
      </trkpt>
      <trkpt lat="51.0599520" lon="7.6160610">
        <ele>422.6400000</ele>
        <time>2010-08-21T15:30:05Z</time>
      </trkpt>
      <trkpt lat="51.0602000" lon="7.6158650">
        <ele>423.6000000</ele>
        <time>2010-08-21T15:30:07Z</time>
      </trkpt>
      <trkpt lat="51.0603430" lon="7.6158300">
        <ele>422.6400000</ele>
        <time>2010-08-21T15:30:08Z</time>
      </trkpt>
      <trkpt lat="51.0604930" lon="7.6158340">
        <ele>420.7100000</ele>
        <time>2010-08-21T15:30:09Z</time>
      </trkpt>
      <trkpt lat="51.0615890" lon="7.6160630">
        <ele>417.3500000</ele>
        <time>2010-08-21T15:30:16Z</time>
      </trkpt>
      <trkpt lat="51.0617160" lon="7.6161870">
        <ele>417.3500000</ele>
        <time>2010-08-21T15:30:17Z</time>
      </trkpt>
      <trkpt lat="51.0618110" lon="7.6163380">
        <ele>416.8700000</ele>
        <time>2010-08-21T15:30:18Z</time>
      </trkpt>
      <trkpt lat="51.0618770" lon="7.6165080">
        <ele>416.3900000</ele>
        <time>2010-08-21T15:30:19Z</time>
      </trkpt>
      <trkpt lat="51.0618730" lon="7.6167480">
        <ele>416.8700000</ele>
        <time>2010-08-21T15:30:20Z</time>
      </trkpt>
      <trkpt lat="51.0618620" lon="7.6169750">
        <ele>417.3500000</ele>
        <time>2010-08-21T15:30:21Z</time>
      </trkpt>
      <trkpt lat="51.0618650" lon="7.6172110">
        <ele>417.3500000</ele>
        <time>2010-08-21T15:30:22Z</time>
      </trkpt>
      <trkpt lat="51.0618870" lon="7.6174480">
        <ele>417.3500000</ele>
        <time>2010-08-21T15:30:23Z</time>
      </trkpt>
      <trkpt lat="51.0619340" lon="7.6176800">
        <ele>417.8300000</ele>
        <time>2010-08-21T15:30:24Z</time>
      </trkpt>
      <trkpt lat="51.0620010" lon="7.6179180">
        <ele>417.8300000</ele>
        <time>2010-08-21T15:30:25Z</time>
      </trkpt>
      <trkpt lat="51.0620890" lon="7.6181450">
        <ele>418.3100000</ele>
        <time>2010-08-21T15:30:26Z</time>
      </trkpt>
      <trkpt lat="51.0621790" lon="7.6183580">
        <ele>418.3100000</ele>
        <time>2010-08-21T15:30:27Z</time>
      </trkpt>
      <trkpt lat="51.0627240" lon="7.6193790">
        <ele>418.7900000</ele>
        <time>2010-08-21T15:30:33Z</time>
      </trkpt>
      <trkpt lat="51.0628540" lon="7.6193770">
        <ele>417.8300000</ele>
        <time>2010-08-21T15:30:34Z</time>
      </trkpt>
      <trkpt lat="51.0629710" lon="7.6193790">
        <ele>417.3500000</ele>
        <time>2010-08-21T15:30:35Z</time>
      </trkpt>
      <trkpt lat="51.0630890" lon="7.6193530">
        <ele>417.8300000</ele>
        <time>2010-08-21T15:30:36Z</time>
      </trkpt>
      <trkpt lat="51.0632100" lon="7.6192310">
        <ele>419.7500000</ele>
        <time>2010-08-21T15:30:37Z</time>
      </trkpt>
      <trkpt lat="51.0633260" lon="7.6191690">
        <ele>421.6800000</ele>
        <time>2010-08-21T15:30:38Z</time>
      </trkpt>
      <trkpt lat="51.0634570" lon="7.6190870">
        <ele>423.1200000</ele>
        <time>2010-08-21T15:30:39Z</time>
      </trkpt>
      <trkpt lat="51.0637120" lon="7.6190390">
        <ele>425.0400000</ele>
        <time>2010-08-21T15:30:41Z</time>
      </trkpt>
      <trkpt lat="51.0638550" lon="7.6190570">
        <ele>425.0400000</ele>
        <time>2010-08-21T15:30:42Z</time>
      </trkpt>
      <trkpt lat="51.0640210" lon="7.6191120">
        <ele>425.0400000</ele>
        <time>2010-08-21T15:30:43Z</time>
      </trkpt>
      <trkpt lat="51.0641430" lon="7.6192490">
        <ele>424.0800000</ele>
        <time>2010-08-21T15:30:44Z</time>
      </trkpt>
      <trkpt lat="51.0642720" lon="7.6194250">
        <ele>423.6000000</ele>
        <time>2010-08-21T15:30:45Z</time>
      </trkpt>
      <trkpt lat="51.0643770" lon="7.6196150">
        <ele>423.1200000</ele>
        <time>2010-08-21T15:30:46Z</time>
      </trkpt>
      <trkpt lat="51.0644750" lon="7.6198190">
        <ele>423.1200000</ele>
        <time>2010-08-21T15:30:47Z</time>
      </trkpt>
      <trkpt lat="51.0645440" lon="7.6200730">
        <ele>422.6400000</ele>
        <time>2010-08-21T15:30:48Z</time>
      </trkpt>
      <trkpt lat="51.0646170" lon="7.6202490">
        <ele>425.0400000</ele>
        <time>2010-08-21T15:30:49Z</time>
      </trkpt>
      <trkpt lat="51.0647190" lon="7.6204750">
        <ele>426.0000000</ele>
        <time>2010-08-21T15:30:51Z</time>
      </trkpt>
      <trkpt lat="51.0647780" lon="7.6205040">
        <ele>425.5200000</ele>
        <time>2010-08-21T15:30:52Z</time>
      </trkpt>
      <trkpt lat="51.0648270" lon="7.6205030">
        <ele>426.0000000</ele>
        <time>2010-08-21T15:30:53Z</time>
      </trkpt>
      <trkpt lat="51.0648620" lon="7.6204970">
        <ele>426.0000000</ele>
        <time>2010-08-21T15:30:54Z</time>
      </trkpt>
      <trkpt lat="51.0648870" lon="7.6204870">
        <ele>426.4800000</ele>
        <time>2010-08-21T15:30:55Z</time>
      </trkpt>
      <trkpt lat="51.0649000" lon="7.6204810">
        <ele>426.4800000</ele>
        <time>2010-08-21T15:30:56Z</time>
      </trkpt>
      <trkpt lat="51.0649100" lon="7.6204550">
        <ele>429.8500000</ele>
        <time>2010-08-21T15:31:10Z</time>
      </trkpt>
      <trkpt lat="51.0649290" lon="7.6204230">
        <ele>429.3700000</ele>
        <time>2010-08-21T15:31:11Z</time>
      </trkpt>
      <trkpt lat="51.0649670" lon="7.6203580">
        <ele>428.4000000</ele>
        <time>2010-08-21T15:31:12Z</time>
      </trkpt>
      <trkpt lat="51.0651250" lon="7.6201420">
        <ele>426.9600000</ele>
        <time>2010-08-21T15:31:14Z</time>
      </trkpt>
      <trkpt lat="51.0652070" lon="7.6199890">
        <ele>426.9600000</ele>
        <time>2010-08-21T15:31:15Z</time>
      </trkpt>
      <trkpt lat="51.0652800" lon="7.6198120">
        <ele>426.9600000</ele>
        <time>2010-08-21T15:31:16Z</time>
      </trkpt>
      <trkpt lat="51.0653310" lon="7.6196000">
        <ele>425.0400000</ele>
        <time>2010-08-21T15:31:17Z</time>
      </trkpt>
      <trkpt lat="51.0653750" lon="7.6193800">
        <ele>424.0800000</ele>
        <time>2010-08-21T15:31:18Z</time>
      </trkpt>
      <trkpt lat="51.0654020" lon="7.6191590">
        <ele>423.6000000</ele>
        <time>2010-08-21T15:31:19Z</time>
      </trkpt>
      <trkpt lat="51.0654170" lon="7.6189440">
        <ele>423.6000000</ele>
        <time>2010-08-21T15:31:20Z</time>
      </trkpt>
      <trkpt lat="51.0653780" lon="7.6187180">
        <ele>423.1200000</ele>
        <time>2010-08-21T15:31:21Z</time>
      </trkpt>
      <trkpt lat="51.0653180" lon="7.6184980">
        <ele>423.1200000</ele>
        <time>2010-08-21T15:31:22Z</time>
      </trkpt>
      <trkpt lat="51.0652880" lon="7.6182830">
        <ele>423.6000000</ele>
        <time>2010-08-21T15:31:23Z</time>
      </trkpt>
      <trkpt lat="51.0652200" lon="7.6180950">
        <ele>423.1200000</ele>
        <time>2010-08-21T15:31:24Z</time>
      </trkpt>
      <trkpt lat="51.0651710" lon="7.6179190">
        <ele>423.1200000</ele>
        <time>2010-08-21T15:31:25Z</time>
      </trkpt>
      <trkpt lat="51.0651350" lon="7.6172910">
        <ele>421.1900000</ele>
        <time>2010-08-21T15:31:28Z</time>
      </trkpt>
      <trkpt lat="51.0651500" lon="7.6170720">
        <ele>420.7100000</ele>
        <time>2010-08-21T15:31:29Z</time>
      </trkpt>
      <trkpt lat="51.0651590" lon="7.6162680">
        <ele>417.8300000</ele>
        <time>2010-08-21T15:31:33Z</time>
      </trkpt>
      <trkpt lat="51.0652050" lon="7.6161120">
        <ele>416.8700000</ele>
        <time>2010-08-21T15:31:34Z</time>
      </trkpt>
      <trkpt lat="51.0652870" lon="7.6159710">
        <ele>417.3500000</ele>
        <time>2010-08-21T15:31:35Z</time>
      </trkpt>
      <trkpt lat="51.0653740" lon="7.6158280">
        <ele>417.3500000</ele>
        <time>2010-08-21T15:31:36Z</time>
      </trkpt>
      <trkpt lat="51.0654740" lon="7.6157090">
        <ele>417.8300000</ele>
        <time>2010-08-21T15:31:37Z</time>
      </trkpt>
      <trkpt lat="51.0656030" lon="7.6156230">
        <ele>416.3900000</ele>
        <time>2010-08-21T15:31:38Z</time>
      </trkpt>
      <trkpt lat="51.0657420" lon="7.6155570">
        <ele>415.9100000</ele>
        <time>2010-08-21T15:31:39Z</time>
      </trkpt>
      <trkpt lat="51.0658790" lon="7.6154950">
        <ele>415.9100000</ele>
        <time>2010-08-21T15:31:40Z</time>
      </trkpt>
      <trkpt lat="51.0660190" lon="7.6154480">
        <ele>415.4300000</ele>
        <time>2010-08-21T15:31:41Z</time>
      </trkpt>
      <trkpt lat="51.0661650" lon="7.6154190">
        <ele>415.4300000</ele>
        <time>2010-08-21T15:31:42Z</time>
      </trkpt>
      <trkpt lat="51.0663080" lon="7.6154130">
        <ele>415.4300000</ele>
        <time>2010-08-21T15:31:43Z</time>
      </trkpt>
      <trkpt lat="51.0664540" lon="7.6154500">
        <ele>416.3900000</ele>
        <time>2010-08-21T15:31:44Z</time>
      </trkpt>
      <trkpt lat="51.0666530" lon="7.6153410">
        <ele>416.8700000</ele>
        <time>2010-08-21T15:31:46Z</time>
      </trkpt>
      <trkpt lat="51.0667260" lon="7.6152330">
        <ele>416.3900000</ele>
        <time>2010-08-21T15:31:47Z</time>
      </trkpt>
      <trkpt lat="51.0667820" lon="7.6150800">
        <ele>415.4300000</ele>
        <time>2010-08-21T15:31:48Z</time>
      </trkpt>
      <trkpt lat="51.0668280" lon="7.6148660">
        <ele>414.4700000</ele>
        <time>2010-08-21T15:31:49Z</time>
      </trkpt>
      <trkpt lat="51.0668240" lon="7.6145890">
        <ele>414.4700000</ele>
        <time>2010-08-21T15:31:50Z</time>
      </trkpt>
      <trkpt lat="51.0668420" lon="7.6143470">
        <ele>413.0200000</ele>
        <time>2010-08-21T15:31:51Z</time>
      </trkpt>
      <trkpt lat="51.0668610" lon="7.6141300">
        <ele>412.0600000</ele>
        <time>2010-08-21T15:31:52Z</time>
      </trkpt>
      <trkpt lat="51.0668940" lon="7.6139390">
        <ele>411.5800000</ele>
        <time>2010-08-21T15:31:53Z</time>
      </trkpt>
      <trkpt lat="51.0669340" lon="7.6137630">
        <ele>412.5400000</ele>
        <time>2010-08-21T15:31:54Z</time>
      </trkpt>
      <trkpt lat="51.0670470" lon="7.6134410">
        <ele>413.0200000</ele>
        <time>2010-08-21T15:31:56Z</time>
      </trkpt>
      <trkpt lat="51.0672170" lon="7.6132640">
        <ele>412.0600000</ele>
        <time>2010-08-21T15:31:58Z</time>
      </trkpt>
      <trkpt lat="51.0673420" lon="7.6132150">
        <ele>411.5800000</ele>
        <time>2010-08-21T15:31:59Z</time>
      </trkpt>
      <trkpt lat="51.0674880" lon="7.6131940">
        <ele>411.5800000</ele>
        <time>2010-08-21T15:32:00Z</time>
      </trkpt>
      <trkpt lat="51.0676520" lon="7.6131770">
        <ele>411.5800000</ele>
        <time>2010-08-21T15:32:01Z</time>
      </trkpt>
      <trkpt lat="51.0678360" lon="7.6132020">
        <ele>411.5800000</ele>
        <time>2010-08-21T15:32:02Z</time>
      </trkpt>
      <trkpt lat="51.0680120" lon="7.6132430">
        <ele>412.0600000</ele>
        <time>2010-08-21T15:32:03Z</time>
      </trkpt>
      <trkpt lat="51.0681670" lon="7.6132690">
        <ele>412.0600000</ele>
        <time>2010-08-21T15:32:04Z</time>
      </trkpt>
      <trkpt lat="51.0686410" lon="7.6133740">
        <ele>413.5000000</ele>
        <time>2010-08-21T15:32:07Z</time>
      </trkpt>
      <trkpt lat="51.0687440" lon="7.6134840">
        <ele>414.4700000</ele>
        <time>2010-08-21T15:32:08Z</time>
      </trkpt>
      <trkpt lat="51.0690520" lon="7.6135480">
        <ele>414.9500000</ele>
        <time>2010-08-21T15:32:11Z</time>
      </trkpt>
      <trkpt lat="51.0691540" lon="7.6134410">
        <ele>414.9500000</ele>
        <time>2010-08-21T15:32:12Z</time>
      </trkpt>
      <trkpt lat="51.0692750" lon="7.6133140">
        <ele>414.9500000</ele>
        <time>2010-08-21T15:32:13Z</time>
      </trkpt>
      <trkpt lat="51.0697870" lon="7.6130920">
        <ele>411.5800000</ele>
        <time>2010-08-21T15:32:17Z</time>
      </trkpt>
      <trkpt lat="51.0699260" lon="7.6131280">
        <ele>410.1400000</ele>
        <time>2010-08-21T15:32:18Z</time>
      </trkpt>
      <trkpt lat="51.0700440" lon="7.6132760">
        <ele>412.0600000</ele>
        <time>2010-08-21T15:32:19Z</time>
      </trkpt>
      <trkpt lat="51.0701670" lon="7.6134100">
        <ele>412.0600000</ele>
        <time>2010-08-21T15:32:20Z</time>
      </trkpt>
      <trkpt lat="51.0702860" lon="7.6135490">
        <ele>411.5800000</ele>
        <time>2010-08-21T15:32:21Z</time>
      </trkpt>
      <trkpt lat="51.0704110" lon="7.6137010">
        <ele>412.0600000</ele>
        <time>2010-08-21T15:32:22Z</time>
      </trkpt>
      <trkpt lat="51.0709920" lon="7.6142070">
        <ele>417.3500000</ele>
        <time>2010-08-21T15:32:27Z</time>
      </trkpt>
      <trkpt lat="51.0711290" lon="7.6142570">
        <ele>418.7900000</ele>
        <time>2010-08-21T15:32:28Z</time>
      </trkpt>
      <trkpt lat="51.0722330" lon="7.6147150">
        <ele>423.1200000</ele>
        <time>2010-08-21T15:32:36Z</time>
      </trkpt>
      <trkpt lat="51.0726140" lon="7.6146940">
        <ele>426.9600000</ele>
        <time>2010-08-21T15:32:39Z</time>
      </trkpt>
      <trkpt lat="51.0727390" lon="7.6146000">
        <ele>428.8900000</ele>
        <time>2010-08-21T15:32:40Z</time>
      </trkpt>
      <trkpt lat="51.0728420" lon="7.6144460">
        <ele>428.8900000</ele>
        <time>2010-08-21T15:32:41Z</time>
      </trkpt>
      <trkpt lat="51.0729250" lon="7.6142830">
        <ele>428.4000000</ele>
        <time>2010-08-21T15:32:42Z</time>
      </trkpt>
      <trkpt lat="51.0729430" lon="7.6140920">
        <ele>428.4000000</ele>
        <time>2010-08-21T15:32:43Z</time>
      </trkpt>
      <trkpt lat="51.0729670" lon="7.6138750">
        <ele>427.4400000</ele>
        <time>2010-08-21T15:32:44Z</time>
      </trkpt>
      <trkpt lat="51.0730030" lon="7.6136390">
        <ele>428.4000000</ele>
        <time>2010-08-21T15:32:45Z</time>
      </trkpt>
      <trkpt lat="51.0730550" lon="7.6133990">
        <ele>429.3700000</ele>
        <time>2010-08-21T15:32:46Z</time>
      </trkpt>
      <trkpt lat="51.0731370" lon="7.6131410">
        <ele>428.8900000</ele>
        <time>2010-08-21T15:32:47Z</time>
      </trkpt>
      <trkpt lat="51.0735580" lon="7.6116950">
        <ele>425.0400000</ele>
        <time>2010-08-21T15:32:53Z</time>
      </trkpt>
      <trkpt lat="51.0735710" lon="7.6114100">
        <ele>426.0000000</ele>
        <time>2010-08-21T15:32:54Z</time>
      </trkpt>
      <trkpt lat="51.0735850" lon="7.6111180">
        <ele>426.4800000</ele>
        <time>2010-08-21T15:32:55Z</time>
      </trkpt>
      <trkpt lat="51.0735840" lon="7.6108020">
        <ele>428.8900000</ele>
        <time>2010-08-21T15:32:56Z</time>
      </trkpt>
      <trkpt lat="51.0735720" lon="7.6104930">
        <ele>429.3700000</ele>
        <time>2010-08-21T15:32:57Z</time>
      </trkpt>
      <trkpt lat="51.0737250" lon="7.6077780">
        <ele>438.9800000</ele>
        <time>2010-08-21T15:33:06Z</time>
      </trkpt>
      <trkpt lat="51.0739610" lon="7.6055610">
        <ele>448.5900000</ele>
        <time>2010-08-21T15:33:15Z</time>
      </trkpt>
      <trkpt lat="51.0740370" lon="7.6054410">
        <ele>450.5200000</ele>
        <time>2010-08-21T15:33:16Z</time>
      </trkpt>
      <trkpt lat="51.0741630" lon="7.6054040">
        <ele>451.4800000</ele>
        <time>2010-08-21T15:33:17Z</time>
      </trkpt>
      <trkpt lat="51.0743110" lon="7.6053600">
        <ele>454.3600000</ele>
        <time>2010-08-21T15:33:18Z</time>
      </trkpt>
      <trkpt lat="51.0744530" lon="7.6053530">
        <ele>455.8000000</ele>
        <time>2010-08-21T15:33:19Z</time>
      </trkpt>
      <trkpt lat="51.0745880" lon="7.6053280">
        <ele>455.8000000</ele>
        <time>2010-08-21T15:33:20Z</time>
      </trkpt>
      <trkpt lat="51.0747030" lon="7.6052800">
        <ele>456.2800000</ele>
        <time>2010-08-21T15:33:21Z</time>
      </trkpt>
      <trkpt lat="51.0748030" lon="7.6052180">
        <ele>456.2800000</ele>
        <time>2010-08-21T15:33:22Z</time>
      </trkpt>
      <trkpt lat="51.0748630" lon="7.6051130">
        <ele>455.8000000</ele>
        <time>2010-08-21T15:33:23Z</time>
      </trkpt>
      <trkpt lat="51.0748630" lon="7.6049160">
        <ele>456.7600000</ele>
        <time>2010-08-21T15:33:24Z</time>
      </trkpt>
      <trkpt lat="51.0748450" lon="7.6046940">
        <ele>456.2800000</ele>
        <time>2010-08-21T15:33:25Z</time>
      </trkpt>
      <trkpt lat="51.0748390" lon="7.6044380">
        <ele>455.8000000</ele>
        <time>2010-08-21T15:33:26Z</time>
      </trkpt>
      <trkpt lat="51.0748220" lon="7.6041860">
        <ele>454.8400000</ele>
        <time>2010-08-21T15:33:27Z</time>
      </trkpt>
      <trkpt lat="51.0748240" lon="7.6037180">
        <ele>452.4400000</ele>
        <time>2010-08-21T15:33:29Z</time>
      </trkpt>
      <trkpt lat="51.0748730" lon="7.6034860">
        <ele>451.9600000</ele>
        <time>2010-08-21T15:33:30Z</time>
      </trkpt>
      <trkpt lat="51.0749360" lon="7.6032500">
        <ele>450.0300000</ele>
        <time>2010-08-21T15:33:31Z</time>
      </trkpt>
      <trkpt lat="51.0751990" lon="7.6024260">
        <ele>446.6700000</ele>
        <time>2010-08-21T15:33:35Z</time>
      </trkpt>
      <trkpt lat="51.0752710" lon="7.6023060">
        <ele>446.1900000</ele>
        <time>2010-08-21T15:33:36Z</time>
      </trkpt>
      <trkpt lat="51.0753550" lon="7.6022190">
        <ele>446.1900000</ele>
        <time>2010-08-21T15:33:37Z</time>
      </trkpt>
      <trkpt lat="51.0761650" lon="7.6015740">
        <ele>446.6700000</ele>
        <time>2010-08-21T15:33:43Z</time>
      </trkpt>
      <trkpt lat="51.0765200" lon="7.6013150">
        <ele>450.5200000</ele>
        <time>2010-08-21T15:33:46Z</time>
      </trkpt>
      <trkpt lat="51.0766450" lon="7.6012700">
        <ele>452.4400000</ele>
        <time>2010-08-21T15:33:47Z</time>
      </trkpt>
      <trkpt lat="51.0767710" lon="7.6012150">
        <ele>453.8800000</ele>
        <time>2010-08-21T15:33:48Z</time>
      </trkpt>
      <trkpt lat="51.0768850" lon="7.6011290">
        <ele>455.3200000</ele>
        <time>2010-08-21T15:33:49Z</time>
      </trkpt>
      <trkpt lat="51.0769870" lon="7.6010200">
        <ele>457.2400000</ele>
        <time>2010-08-21T15:33:50Z</time>
      </trkpt>
      <trkpt lat="51.0770670" lon="7.6008840">
        <ele>458.6900000</ele>
        <time>2010-08-21T15:33:51Z</time>
      </trkpt>
      <trkpt lat="51.0771270" lon="7.6007300">
        <ele>460.1300000</ele>
        <time>2010-08-21T15:33:52Z</time>
      </trkpt>
      <trkpt lat="51.0771500" lon="7.6005230">
        <ele>460.6100000</ele>
        <time>2010-08-21T15:33:53Z</time>
      </trkpt>
      <trkpt lat="51.0771610" lon="7.6002870">
        <ele>461.0900000</ele>
        <time>2010-08-21T15:33:54Z</time>
      </trkpt>
      <trkpt lat="51.0771610" lon="7.6000350">
        <ele>462.0500000</ele>
        <time>2010-08-21T15:33:55Z</time>
      </trkpt>
      <trkpt lat="51.0771590" lon="7.5997890">
        <ele>462.5300000</ele>
        <time>2010-08-21T15:33:56Z</time>
      </trkpt>
      <trkpt lat="51.0771600" lon="7.5991020">
        <ele>463.0100000</ele>
        <time>2010-08-21T15:34:00Z</time>
      </trkpt>
      <trkpt lat="51.0771770" lon="7.5990130">
        <ele>463.0100000</ele>
        <time>2010-08-21T15:34:01Z</time>
      </trkpt>
      <trkpt lat="51.0772250" lon="7.5989560">
        <ele>463.4900000</ele>
        <time>2010-08-21T15:34:02Z</time>
      </trkpt>
      <trkpt lat="51.0773110" lon="7.5988990">
        <ele>463.4900000</ele>
        <time>2010-08-21T15:34:03Z</time>
      </trkpt>
      <trkpt lat="51.0774160" lon="7.5988400">
        <ele>463.4900000</ele>
        <time>2010-08-21T15:34:04Z</time>
      </trkpt>
      <trkpt lat="51.0775370" lon="7.5987730">
        <ele>463.4900000</ele>
        <time>2010-08-21T15:34:05Z</time>
      </trkpt>
      <trkpt lat="51.0786010" lon="7.5982620">
        <ele>461.0900000</ele>
        <time>2010-08-21T15:34:13Z</time>
      </trkpt>
      <trkpt lat="51.0787690" lon="7.5982390">
        <ele>460.1300000</ele>
        <time>2010-08-21T15:34:14Z</time>
      </trkpt>
      <trkpt lat="51.0793810" lon="7.5980940">
        <ele>456.7600000</ele>
        <time>2010-08-21T15:34:18Z</time>
      </trkpt>
      <trkpt lat="51.0794930" lon="7.5979700">
        <ele>455.8000000</ele>
        <time>2010-08-21T15:34:19Z</time>
      </trkpt>
      <trkpt lat="51.0795990" lon="7.5978030">
        <ele>454.3600000</ele>
        <time>2010-08-21T15:34:20Z</time>
      </trkpt>
      <trkpt lat="51.0796920" lon="7.5975960">
        <ele>453.4000000</ele>
        <time>2010-08-21T15:34:21Z</time>
      </trkpt>
      <trkpt lat="51.0797660" lon="7.5973370">
        <ele>452.4400000</ele>
        <time>2010-08-21T15:34:22Z</time>
      </trkpt>
      <trkpt lat="51.0798260" lon="7.5970470">
        <ele>451.4800000</ele>
        <time>2010-08-21T15:34:23Z</time>
      </trkpt>
      <trkpt lat="51.0798680" lon="7.5967550">
        <ele>450.0300000</ele>
        <time>2010-08-21T15:34:24Z</time>
      </trkpt>
      <trkpt lat="51.0799060" lon="7.5964690">
        <ele>449.0700000</ele>
        <time>2010-08-21T15:34:25Z</time>
      </trkpt>
      <trkpt lat="51.0799660" lon="7.5962130">
        <ele>448.1100000</ele>
        <time>2010-08-21T15:34:26Z</time>
      </trkpt>
      <trkpt lat="51.0800520" lon="7.5959950">
        <ele>447.1500000</ele>
        <time>2010-08-21T15:34:27Z</time>
      </trkpt>
      <trkpt lat="51.0801750" lon="7.5958060">
        <ele>446.1900000</ele>
        <time>2010-08-21T15:34:28Z</time>
      </trkpt>
      <trkpt lat="51.0803120" lon="7.5956240">
        <ele>445.7100000</ele>
        <time>2010-08-21T15:34:29Z</time>
      </trkpt>
      <trkpt lat="51.0804430" lon="7.5954430">
        <ele>445.2300000</ele>
        <time>2010-08-21T15:34:30Z</time>
      </trkpt>
      <trkpt lat="51.0805560" lon="7.5952690">
        <ele>445.2300000</ele>
        <time>2010-08-21T15:34:31Z</time>
      </trkpt>
      <trkpt lat="51.0806490" lon="7.5950900">
        <ele>445.2300000</ele>
        <time>2010-08-21T15:34:32Z</time>
      </trkpt>
      <trkpt lat="51.0812550" lon="7.5936710">
        <ele>442.3400000</ele>
        <time>2010-08-21T15:34:37Z</time>
      </trkpt>
      <trkpt lat="51.0817270" lon="7.5927160">
        <ele>440.9000000</ele>
        <time>2010-08-21T15:34:41Z</time>
      </trkpt>
      <trkpt lat="51.0818460" lon="7.5926080">
        <ele>439.9400000</ele>
        <time>2010-08-21T15:34:42Z</time>
      </trkpt>
      <trkpt lat="51.0819820" lon="7.5925650">
        <ele>439.9400000</ele>
        <time>2010-08-21T15:34:43Z</time>
      </trkpt>
      <trkpt lat="51.0821050" lon="7.5925640">
        <ele>440.9000000</ele>
        <time>2010-08-21T15:34:44Z</time>
      </trkpt>
      <trkpt lat="51.0822540" lon="7.5926140">
        <ele>441.3800000</ele>
        <time>2010-08-21T15:34:45Z</time>
      </trkpt>
      <trkpt lat="51.0824630" lon="7.5925730">
        <ele>442.3400000</ele>
        <time>2010-08-21T15:34:46Z</time>
      </trkpt>
      <trkpt lat="51.0826700" lon="7.5925800">
        <ele>445.2300000</ele>
        <time>2010-08-21T15:34:47Z</time>
      </trkpt>
      <trkpt lat="51.0828750" lon="7.5925480">
        <ele>446.6700000</ele>
        <time>2010-08-21T15:34:48Z</time>
      </trkpt>
      <trkpt lat="51.0843810" lon="7.5921050">
        <ele>445.7100000</ele>
        <time>2010-08-21T15:34:56Z</time>
      </trkpt>
      <trkpt lat="51.0845510" lon="7.5921890">
        <ele>443.7900000</ele>
        <time>2010-08-21T15:34:57Z</time>
      </trkpt>
      <trkpt lat="51.0846870" lon="7.5923310">
        <ele>442.8200000</ele>
        <time>2010-08-21T15:34:58Z</time>
      </trkpt>
      <trkpt lat="51.0848340" lon="7.5924850">
        <ele>442.3400000</ele>
        <time>2010-08-21T15:34:59Z</time>
      </trkpt>
      <trkpt lat="51.0849770" lon="7.5927100">
        <ele>441.8600000</ele>
        <time>2010-08-21T15:35:00Z</time>
      </trkpt>
      <trkpt lat="51.0851560" lon="7.5928860">
        <ele>441.3800000</ele>
        <time>2010-08-21T15:35:01Z</time>
      </trkpt>
      <trkpt lat="51.0852820" lon="7.5931620">
        <ele>440.9000000</ele>
        <time>2010-08-21T15:35:02Z</time>
      </trkpt>
      <trkpt lat="51.0854360" lon="7.5934030">
        <ele>439.9400000</ele>
        <time>2010-08-21T15:35:03Z</time>
      </trkpt>
      <trkpt lat="51.0856020" lon="7.5936330">
        <ele>438.9800000</ele>
        <time>2010-08-21T15:35:04Z</time>
      </trkpt>
      <trkpt lat="51.0857920" lon="7.5938260">
        <ele>437.5400000</ele>
        <time>2010-08-21T15:35:05Z</time>
      </trkpt>
      <trkpt lat="51.0860050" lon="7.5940070">
        <ele>438.9800000</ele>
        <time>2010-08-21T15:35:06Z</time>
      </trkpt>
      <trkpt lat="51.0868310" lon="7.5946440">
        <ele>441.8600000</ele>
        <time>2010-08-21T15:35:10Z</time>
      </trkpt>
      <trkpt lat="51.0870430" lon="7.5947470">
        <ele>442.8200000</ele>
        <time>2010-08-21T15:35:11Z</time>
      </trkpt>
      <trkpt lat="51.0883690" lon="7.5955230">
        <ele>440.9000000</ele>
        <time>2010-08-21T15:35:18Z</time>
      </trkpt>
      <trkpt lat="51.0897260" lon="7.5966600">
        <ele>436.1000000</ele>
        <time>2010-08-21T15:35:27Z</time>
      </trkpt>
      <trkpt lat="51.0898110" lon="7.5967950">
        <ele>435.1300000</ele>
        <time>2010-08-21T15:35:28Z</time>
      </trkpt>
      <trkpt lat="51.0898760" lon="7.5969430">
        <ele>434.6500000</ele>
        <time>2010-08-21T15:35:29Z</time>
      </trkpt>
      <trkpt lat="51.0899260" lon="7.5971090">
        <ele>433.6900000</ele>
        <time>2010-08-21T15:35:30Z</time>
      </trkpt>
      <trkpt lat="51.0899670" lon="7.5973000">
        <ele>433.6900000</ele>
        <time>2010-08-21T15:35:31Z</time>
      </trkpt>
      <trkpt lat="51.0900020" lon="7.5975100">
        <ele>433.2100000</ele>
        <time>2010-08-21T15:35:32Z</time>
      </trkpt>
      <trkpt lat="51.0900350" lon="7.5977200">
        <ele>432.7300000</ele>
        <time>2010-08-21T15:35:33Z</time>
      </trkpt>
      <trkpt lat="51.0901530" lon="7.5986740">
        <ele>430.3300000</ele>
        <time>2010-08-21T15:35:38Z</time>
      </trkpt>
      <trkpt lat="51.0901940" lon="7.5988270">
        <ele>430.3300000</ele>
        <time>2010-08-21T15:35:39Z</time>
      </trkpt>
      <trkpt lat="51.0902420" lon="7.5989670">
        <ele>429.8500000</ele>
        <time>2010-08-21T15:35:40Z</time>
      </trkpt>
      <trkpt lat="51.0903050" lon="7.5990980">
        <ele>429.3700000</ele>
        <time>2010-08-21T15:35:41Z</time>
      </trkpt>
      <trkpt lat="51.0903770" lon="7.5992090">
        <ele>428.4000000</ele>
        <time>2010-08-21T15:35:42Z</time>
      </trkpt>
      <trkpt lat="51.0904600" lon="7.5992920">
        <ele>427.4400000</ele>
        <time>2010-08-21T15:35:43Z</time>
      </trkpt>
      <trkpt lat="51.0905590" lon="7.5993090">
        <ele>426.4800000</ele>
        <time>2010-08-21T15:35:44Z</time>
      </trkpt>
      <trkpt lat="51.0906540" lon="7.5993030">
        <ele>425.0400000</ele>
        <time>2010-08-21T15:35:45Z</time>
      </trkpt>
      <trkpt lat="51.0907540" lon="7.5992670">
        <ele>424.5600000</ele>
        <time>2010-08-21T15:35:46Z</time>
      </trkpt>
      <trkpt lat="51.0908470" lon="7.5992100">
        <ele>422.6400000</ele>
        <time>2010-08-21T15:35:47Z</time>
      </trkpt>
      <trkpt lat="51.0909320" lon="7.5991310">
        <ele>421.6800000</ele>
        <time>2010-08-21T15:35:48Z</time>
      </trkpt>
      <trkpt lat="51.0909960" lon="7.5990090">
        <ele>420.7100000</ele>
        <time>2010-08-21T15:35:49Z</time>
      </trkpt>
      <trkpt lat="51.0910490" lon="7.5988480">
        <ele>419.7500000</ele>
        <time>2010-08-21T15:35:50Z</time>
      </trkpt>
      <trkpt lat="51.0911020" lon="7.5986710">
        <ele>418.7900000</ele>
        <time>2010-08-21T15:35:51Z</time>
      </trkpt>
      <trkpt lat="51.0911520" lon="7.5984960">
        <ele>418.3100000</ele>
        <time>2010-08-21T15:35:52Z</time>
      </trkpt>
      <trkpt lat="51.0912510" lon="7.5981600">
        <ele>416.8700000</ele>
        <time>2010-08-21T15:35:54Z</time>
      </trkpt>
      <trkpt lat="51.0913100" lon="7.5980290">
        <ele>415.9100000</ele>
        <time>2010-08-21T15:35:55Z</time>
      </trkpt>
      <trkpt lat="51.0913750" lon="7.5979500">
        <ele>414.9500000</ele>
        <time>2010-08-21T15:35:56Z</time>
      </trkpt>
      <trkpt lat="51.0914360" lon="7.5979180">
        <ele>413.9800000</ele>
        <time>2010-08-21T15:35:57Z</time>
      </trkpt>
      <trkpt lat="51.0914980" lon="7.5979150">
        <ele>413.5000000</ele>
        <time>2010-08-21T15:35:58Z</time>
      </trkpt>
      <trkpt lat="51.0915530" lon="7.5979100">
        <ele>413.9800000</ele>
        <time>2010-08-21T15:35:59Z</time>
      </trkpt>
      <trkpt lat="51.0915990" lon="7.5978790">
        <ele>413.5000000</ele>
        <time>2010-08-21T15:36:00Z</time>
      </trkpt>
      <trkpt lat="51.0916300" lon="7.5978120">
        <ele>413.5000000</ele>
        <time>2010-08-21T15:36:01Z</time>
      </trkpt>
      <trkpt lat="51.0916300" lon="7.5977090">
        <ele>413.0200000</ele>
        <time>2010-08-21T15:36:02Z</time>
      </trkpt>
      <trkpt lat="51.0916050" lon="7.5975850">
        <ele>412.5400000</ele>
        <time>2010-08-21T15:36:03Z</time>
      </trkpt>
      <trkpt lat="51.0915460" lon="7.5974400">
        <ele>412.5400000</ele>
        <time>2010-08-21T15:36:04Z</time>
      </trkpt>
      <trkpt lat="51.0914920" lon="7.5972780">
        <ele>412.5400000</ele>
        <time>2010-08-21T15:36:05Z</time>
      </trkpt>
      <trkpt lat="51.0914460" lon="7.5970890">
        <ele>411.5800000</ele>
        <time>2010-08-21T15:36:06Z</time>
      </trkpt>
      <trkpt lat="51.0914030" lon="7.5968760">
        <ele>411.1000000</ele>
        <time>2010-08-21T15:36:07Z</time>
      </trkpt>
      <trkpt lat="51.0909940" lon="7.5947380">
        <ele>407.2600000</ele>
        <time>2010-08-21T15:36:15Z</time>
      </trkpt>
      <trkpt lat="51.0905480" lon="7.5921410">
        <ele>402.4500000</ele>
        <time>2010-08-21T15:36:24Z</time>
      </trkpt>
      <trkpt lat="51.0898190" lon="7.5898970">
        <ele>396.2000000</ele>
        <time>2010-08-21T15:36:31Z</time>
      </trkpt>
      <trkpt lat="51.0890200" lon="7.5878590">
        <ele>392.8400000</ele>
        <time>2010-08-21T15:36:38Z</time>
      </trkpt>
      <trkpt lat="51.0888990" lon="7.5872650">
        <ele>392.3600000</ele>
        <time>2010-08-21T15:36:40Z</time>
      </trkpt>
      <trkpt lat="51.0888650" lon="7.5869410">
        <ele>392.3600000</ele>
        <time>2010-08-21T15:36:41Z</time>
      </trkpt>
      <trkpt lat="51.0888440" lon="7.5865990">
        <ele>392.3600000</ele>
        <time>2010-08-21T15:36:42Z</time>
      </trkpt>
      <trkpt lat="51.0888680" lon="7.5842480">
        <ele>391.8700000</ele>
        <time>2010-08-21T15:36:49Z</time>
      </trkpt>
      <trkpt lat="51.0888950" lon="7.5830590">
        <ele>390.4300000</ele>
        <time>2010-08-21T15:36:55Z</time>
      </trkpt>
      <trkpt lat="51.0889190" lon="7.5829470">
        <ele>389.9500000</ele>
        <time>2010-08-21T15:36:56Z</time>
      </trkpt>
      <trkpt lat="51.0890370" lon="7.5825840">
        <ele>386.5900000</ele>
        <time>2010-08-21T15:37:03Z</time>
      </trkpt>
      <trkpt lat="51.0891150" lon="7.5823790">
        <ele>385.6300000</ele>
        <time>2010-08-21T15:37:05Z</time>
      </trkpt>
      <trkpt lat="51.0891690" lon="7.5822940">
        <ele>385.1500000</ele>
        <time>2010-08-21T15:37:06Z</time>
      </trkpt>
      <trkpt lat="51.0892360" lon="7.5822420">
        <ele>384.6600000</ele>
        <time>2010-08-21T15:37:07Z</time>
      </trkpt>
      <trkpt lat="51.0893260" lon="7.5822590">
        <ele>384.1800000</ele>
        <time>2010-08-21T15:37:08Z</time>
      </trkpt>
      <trkpt lat="51.0894220" lon="7.5823130">
        <ele>384.1800000</ele>
        <time>2010-08-21T15:37:09Z</time>
      </trkpt>
      <trkpt lat="51.0895180" lon="7.5823750">
        <ele>384.1800000</ele>
        <time>2010-08-21T15:37:10Z</time>
      </trkpt>
      <trkpt lat="51.0896050" lon="7.5824310">
        <ele>384.1800000</ele>
        <time>2010-08-21T15:37:11Z</time>
      </trkpt>
      <trkpt lat="51.0896860" lon="7.5824450">
        <ele>383.7000000</ele>
        <time>2010-08-21T15:37:12Z</time>
      </trkpt>
      <trkpt lat="51.0897650" lon="7.5824000">
        <ele>383.7000000</ele>
        <time>2010-08-21T15:37:13Z</time>
      </trkpt>
      <trkpt lat="51.0898430" lon="7.5822700">
        <ele>383.7000000</ele>
        <time>2010-08-21T15:37:14Z</time>
      </trkpt>
      <trkpt lat="51.0899180" lon="7.5820770">
        <ele>383.2200000</ele>
        <time>2010-08-21T15:37:15Z</time>
      </trkpt>
      <trkpt lat="51.0899960" lon="7.5818570">
        <ele>382.7400000</ele>
        <time>2010-08-21T15:37:16Z</time>
      </trkpt>
      <trkpt lat="51.0900780" lon="7.5816210">
        <ele>383.2200000</ele>
        <time>2010-08-21T15:37:17Z</time>
      </trkpt>
      <trkpt lat="51.0907340" lon="7.5794170">
        <ele>380.8200000</ele>
        <time>2010-08-21T15:37:26Z</time>
      </trkpt>
      <trkpt lat="51.0913590" lon="7.5777760">
        <ele>378.9000000</ele>
        <time>2010-08-21T15:37:34Z</time>
      </trkpt>
      <trkpt lat="51.0914610" lon="7.5777510">
        <ele>379.3800000</ele>
        <time>2010-08-21T15:37:35Z</time>
      </trkpt>
      <trkpt lat="51.0915480" lon="7.5777180">
        <ele>379.3800000</ele>
        <time>2010-08-21T15:37:36Z</time>
      </trkpt>
      <trkpt lat="51.0916140" lon="7.5776580">
        <ele>378.9000000</ele>
        <time>2010-08-21T15:37:37Z</time>
      </trkpt>
      <trkpt lat="51.0916580" lon="7.5775510">
        <ele>378.9000000</ele>
        <time>2010-08-21T15:37:38Z</time>
      </trkpt>
      <trkpt lat="51.0916930" lon="7.5773980">
        <ele>378.9000000</ele>
        <time>2010-08-21T15:37:39Z</time>
      </trkpt>
      <trkpt lat="51.0916660" lon="7.5771700">
        <ele>379.3800000</ele>
        <time>2010-08-21T15:37:40Z</time>
      </trkpt>
      <trkpt lat="51.0916570" lon="7.5769090">
        <ele>378.4200000</ele>
        <time>2010-08-21T15:37:41Z</time>
      </trkpt>
      <trkpt lat="51.0916470" lon="7.5766800">
        <ele>378.4200000</ele>
        <time>2010-08-21T15:37:42Z</time>
      </trkpt>
      <trkpt lat="51.0917680" lon="7.5748490">
        <ele>380.8200000</ele>
        <time>2010-08-21T15:37:48Z</time>
      </trkpt>
      <trkpt lat="51.0920780" lon="7.5732860">
        <ele>387.5500000</ele>
        <time>2010-08-21T15:37:54Z</time>
      </trkpt>
      <trkpt lat="51.0921870" lon="7.5731800">
        <ele>390.4300000</ele>
        <time>2010-08-21T15:37:55Z</time>
      </trkpt>
      <trkpt lat="51.0923310" lon="7.5730810">
        <ele>392.8400000</ele>
        <time>2010-08-21T15:37:56Z</time>
      </trkpt>
      <trkpt lat="51.0928950" lon="7.5725740">
        <ele>397.6400000</ele>
        <time>2010-08-21T15:38:00Z</time>
      </trkpt>
      <trkpt lat="51.0929510" lon="7.5724490">
        <ele>398.6000000</ele>
        <time>2010-08-21T15:38:01Z</time>
      </trkpt>
      <trkpt lat="51.0929750" lon="7.5723050">
        <ele>400.0500000</ele>
        <time>2010-08-21T15:38:02Z</time>
      </trkpt>
      <trkpt lat="51.0929770" lon="7.5721480">
        <ele>401.0100000</ele>
        <time>2010-08-21T15:38:03Z</time>
      </trkpt>
      <trkpt lat="51.0929580" lon="7.5719680">
        <ele>401.9700000</ele>
        <time>2010-08-21T15:38:04Z</time>
      </trkpt>
      <trkpt lat="51.0929440" lon="7.5717990">
        <ele>402.9300000</ele>
        <time>2010-08-21T15:38:05Z</time>
      </trkpt>
      <trkpt lat="51.0929480" lon="7.5716440">
        <ele>403.4100000</ele>
        <time>2010-08-21T15:38:06Z</time>
      </trkpt>
      <trkpt lat="51.0929830" lon="7.5715200">
        <ele>404.3700000</ele>
        <time>2010-08-21T15:38:07Z</time>
      </trkpt>
      <trkpt lat="51.0930340" lon="7.5714340">
        <ele>404.8500000</ele>
        <time>2010-08-21T15:38:08Z</time>
      </trkpt>
      <trkpt lat="51.0930900" lon="7.5713760">
        <ele>405.8100000</ele>
        <time>2010-08-21T15:38:09Z</time>
      </trkpt>
      <trkpt lat="51.0931480" lon="7.5713230">
        <ele>405.8100000</ele>
        <time>2010-08-21T15:38:10Z</time>
      </trkpt>
      <trkpt lat="51.0931990" lon="7.5712550">
        <ele>405.8100000</ele>
        <time>2010-08-21T15:38:11Z</time>
      </trkpt>
      <trkpt lat="51.0932300" lon="7.5711640">
        <ele>405.8100000</ele>
        <time>2010-08-21T15:38:12Z</time>
      </trkpt>
      <trkpt lat="51.0932260" lon="7.5710320">
        <ele>405.8100000</ele>
        <time>2010-08-21T15:38:13Z</time>
      </trkpt>
      <trkpt lat="51.0932050" lon="7.5708670">
        <ele>405.3300000</ele>
        <time>2010-08-21T15:38:14Z</time>
      </trkpt>
      <trkpt lat="51.0931750" lon="7.5706880">
        <ele>404.3700000</ele>
        <time>2010-08-21T15:38:15Z</time>
      </trkpt>
      <trkpt lat="51.0931020" lon="7.5701310">
        <ele>402.4500000</ele>
        <time>2010-08-21T15:38:18Z</time>
      </trkpt>
      <trkpt lat="51.0931180" lon="7.5699000">
        <ele>401.4900000</ele>
        <time>2010-08-21T15:38:19Z</time>
      </trkpt>
      <trkpt lat="51.0931690" lon="7.5696390">
        <ele>401.0100000</ele>
        <time>2010-08-21T15:38:20Z</time>
      </trkpt>
      <trkpt lat="51.0932350" lon="7.5693850">
        <ele>400.5300000</ele>
        <time>2010-08-21T15:38:21Z</time>
      </trkpt>
      <trkpt lat="51.0933160" lon="7.5691420">
        <ele>399.5700000</ele>
        <time>2010-08-21T15:38:22Z</time>
      </trkpt>
      <trkpt lat="51.0933980" lon="7.5689180">
        <ele>398.6000000</ele>
        <time>2010-08-21T15:38:23Z</time>
      </trkpt>
      <trkpt lat="51.0934660" lon="7.5687030">
        <ele>397.6400000</ele>
        <time>2010-08-21T15:38:24Z</time>
      </trkpt>
      <trkpt lat="51.0935210" lon="7.5684780">
        <ele>396.6800000</ele>
        <time>2010-08-21T15:38:25Z</time>
      </trkpt>
      <trkpt lat="51.0935690" lon="7.5682240">
        <ele>395.7200000</ele>
        <time>2010-08-21T15:38:26Z</time>
      </trkpt>
      <trkpt lat="51.0939190" lon="7.5662100">
        <ele>387.5500000</ele>
        <time>2010-08-21T15:38:33Z</time>
      </trkpt>
      <trkpt lat="51.0943340" lon="7.5650420">
        <ele>382.2600000</ele>
        <time>2010-08-21T15:38:40Z</time>
      </trkpt>
      <trkpt lat="51.0945740" lon="7.5644700">
        <ele>379.8600000</ele>
        <time>2010-08-21T15:38:46Z</time>
      </trkpt>
      <trkpt lat="51.0946240" lon="7.5645490">
        <ele>380.8200000</ele>
        <time>2010-08-21T15:38:47Z</time>
      </trkpt>
      <trkpt lat="51.0947130" lon="7.5646220">
        <ele>380.8200000</ele>
        <time>2010-08-21T15:38:48Z</time>
      </trkpt>
      <trkpt lat="51.0949080" lon="7.5647190">
        <ele>380.3400000</ele>
        <time>2010-08-21T15:38:50Z</time>
      </trkpt>
      <trkpt lat="51.0950090" lon="7.5647410">
        <ele>380.3400000</ele>
        <time>2010-08-21T15:38:51Z</time>
      </trkpt>
      <trkpt lat="51.0951060" lon="7.5647340">
        <ele>380.3400000</ele>
        <time>2010-08-21T15:38:52Z</time>
      </trkpt>
      <trkpt lat="51.0951950" lon="7.5647100">
        <ele>379.8600000</ele>
        <time>2010-08-21T15:38:53Z</time>
      </trkpt>
      <trkpt lat="51.0952870" lon="7.5646530">
        <ele>379.8600000</ele>
        <time>2010-08-21T15:38:54Z</time>
      </trkpt>
      <trkpt lat="51.0953860" lon="7.5645820">
        <ele>379.3800000</ele>
        <time>2010-08-21T15:38:55Z</time>
      </trkpt>
      <trkpt lat="51.0955930" lon="7.5644850">
        <ele>378.4200000</ele>
        <time>2010-08-21T15:38:57Z</time>
      </trkpt>
      <trkpt lat="51.0957070" lon="7.5644680">
        <ele>377.9400000</ele>
        <time>2010-08-21T15:38:58Z</time>
      </trkpt>
      <trkpt lat="51.0958280" lon="7.5644650">
        <ele>376.9700000</ele>
        <time>2010-08-21T15:38:59Z</time>
      </trkpt>
      <trkpt lat="51.0960660" lon="7.5644580">
        <ele>375.5300000</ele>
        <time>2010-08-21T15:39:01Z</time>
      </trkpt>
      <trkpt lat="51.0961840" lon="7.5644190">
        <ele>374.5700000</ele>
        <time>2010-08-21T15:39:02Z</time>
      </trkpt>
      <trkpt lat="51.0963040" lon="7.5643520">
        <ele>373.6100000</ele>
        <time>2010-08-21T15:39:03Z</time>
      </trkpt>
      <trkpt lat="51.0967390" lon="7.5639900">
        <ele>368.3200000</ele>
        <time>2010-08-21T15:39:07Z</time>
      </trkpt>
      <trkpt lat="51.0967920" lon="7.5638570">
        <ele>367.3600000</ele>
        <time>2010-08-21T15:39:08Z</time>
      </trkpt>
      <trkpt lat="51.0968220" lon="7.5636970">
        <ele>366.4000000</ele>
        <time>2010-08-21T15:39:09Z</time>
      </trkpt>
      <trkpt lat="51.0968420" lon="7.5635280">
        <ele>364.9600000</ele>
        <time>2010-08-21T15:39:10Z</time>
      </trkpt>
      <trkpt lat="51.0968700" lon="7.5633680">
        <ele>364.0000000</ele>
        <time>2010-08-21T15:39:11Z</time>
      </trkpt>
      <trkpt lat="51.0969240" lon="7.5632500">
        <ele>362.5500000</ele>
        <time>2010-08-21T15:39:12Z</time>
      </trkpt>
      <trkpt lat="51.0970250" lon="7.5631730">
        <ele>361.1100000</ele>
        <time>2010-08-21T15:39:13Z</time>
      </trkpt>
      <trkpt lat="51.0971700" lon="7.5631220">
        <ele>359.6700000</ele>
        <time>2010-08-21T15:39:14Z</time>
      </trkpt>
      <trkpt lat="51.0973350" lon="7.5630760">
        <ele>358.7100000</ele>
        <time>2010-08-21T15:39:15Z</time>
      </trkpt>
      <trkpt lat="51.0988690" lon="7.5624020">
        <ele>348.1300000</ele>
        <time>2010-08-21T15:39:24Z</time>
      </trkpt>
      <trkpt lat="51.0991060" lon="7.5622140">
        <ele>346.6900000</ele>
        <time>2010-08-21T15:39:26Z</time>
      </trkpt>
      <trkpt lat="51.0991900" lon="7.5620920">
        <ele>345.2500000</ele>
        <time>2010-08-21T15:39:27Z</time>
      </trkpt>
      <trkpt lat="51.0992200" lon="7.5619370">
        <ele>344.7700000</ele>
        <time>2010-08-21T15:39:28Z</time>
      </trkpt>
      <trkpt lat="51.0991970" lon="7.5617710">
        <ele>344.7700000</ele>
        <time>2010-08-21T15:39:29Z</time>
      </trkpt>
      <trkpt lat="51.0991650" lon="7.5615850">
        <ele>344.2900000</ele>
        <time>2010-08-21T15:39:30Z</time>
      </trkpt>
      <trkpt lat="51.0990950" lon="7.5614240">
        <ele>343.8100000</ele>
        <time>2010-08-21T15:39:31Z</time>
      </trkpt>
      <trkpt lat="51.0990060" lon="7.5612570">
        <ele>343.8100000</ele>
        <time>2010-08-21T15:39:32Z</time>
      </trkpt>
      <trkpt lat="51.0989120" lon="7.5611090">
        <ele>343.8100000</ele>
        <time>2010-08-21T15:39:33Z</time>
      </trkpt>
      <trkpt lat="51.0988350" lon="7.5609520">
        <ele>343.3300000</ele>
        <time>2010-08-21T15:39:34Z</time>
      </trkpt>
      <trkpt lat="51.0987970" lon="7.5607700">
        <ele>342.8500000</ele>
        <time>2010-08-21T15:39:35Z</time>
      </trkpt>
      <trkpt lat="51.0987780" lon="7.5605560">
        <ele>342.3700000</ele>
        <time>2010-08-21T15:39:36Z</time>
      </trkpt>
      <trkpt lat="51.0987780" lon="7.5603190">
        <ele>342.8500000</ele>
        <time>2010-08-21T15:39:37Z</time>
      </trkpt>
      <trkpt lat="51.0987760" lon="7.5600660">
        <ele>342.8500000</ele>
        <time>2010-08-21T15:39:38Z</time>
      </trkpt>
      <trkpt lat="51.0987790" lon="7.5598040">
        <ele>342.8500000</ele>
        <time>2010-08-21T15:39:39Z</time>
      </trkpt>
      <trkpt lat="51.0987370" lon="7.5591290">
        <ele>341.8900000</ele>
        <time>2010-08-21T15:39:42Z</time>
      </trkpt>
      <trkpt lat="51.0987100" lon="7.5589810">
        <ele>342.8500000</ele>
        <time>2010-08-21T15:39:43Z</time>
      </trkpt>
      <trkpt lat="51.0986450" lon="7.5588580">
        <ele>342.8500000</ele>
        <time>2010-08-21T15:39:44Z</time>
      </trkpt>
      <trkpt lat="51.0985690" lon="7.5587130">
        <ele>342.8500000</ele>
        <time>2010-08-21T15:39:45Z</time>
      </trkpt>
      <trkpt lat="51.0984840" lon="7.5585410">
        <ele>342.3700000</ele>
        <time>2010-08-21T15:39:46Z</time>
      </trkpt>
      <trkpt lat="51.0984130" lon="7.5583520">
        <ele>342.3700000</ele>
        <time>2010-08-21T15:39:47Z</time>
      </trkpt>
      <trkpt lat="51.0983570" lon="7.5581570">
        <ele>342.3700000</ele>
        <time>2010-08-21T15:39:48Z</time>
      </trkpt>
      <trkpt lat="51.0983250" lon="7.5579510">
        <ele>342.3700000</ele>
        <time>2010-08-21T15:39:49Z</time>
      </trkpt>
      <trkpt lat="51.0983120" lon="7.5577330">
        <ele>342.3700000</ele>
        <time>2010-08-21T15:39:50Z</time>
      </trkpt>
      <trkpt lat="51.0983100" lon="7.5575040">
        <ele>342.8500000</ele>
        <time>2010-08-21T15:39:51Z</time>
      </trkpt>
      <trkpt lat="51.0983120" lon="7.5572770">
        <ele>342.8500000</ele>
        <time>2010-08-21T15:39:52Z</time>
      </trkpt>
      <trkpt lat="51.0983050" lon="7.5570510">
        <ele>342.8500000</ele>
        <time>2010-08-21T15:39:53Z</time>
      </trkpt>
      <trkpt lat="51.0982760" lon="7.5568660">
        <ele>343.8100000</ele>
        <time>2010-08-21T15:39:54Z</time>
      </trkpt>
      <trkpt lat="51.0982340" lon="7.5566980">
        <ele>344.2900000</ele>
        <time>2010-08-21T15:39:55Z</time>
      </trkpt>
      <trkpt lat="51.0981780" lon="7.5565380">
        <ele>345.2500000</ele>
        <time>2010-08-21T15:39:56Z</time>
      </trkpt>
      <trkpt lat="51.0981240" lon="7.5563830">
        <ele>345.2500000</ele>
        <time>2010-08-21T15:39:57Z</time>
      </trkpt>
      <trkpt lat="51.0978280" lon="7.5556940">
        <ele>348.6200000</ele>
        <time>2010-08-21T15:40:03Z</time>
      </trkpt>
      <trkpt lat="51.0978420" lon="7.5555670">
        <ele>350.0600000</ele>
        <time>2010-08-21T15:40:04Z</time>
      </trkpt>
      <trkpt lat="51.0978640" lon="7.5554540">
        <ele>351.0200000</ele>
        <time>2010-08-21T15:40:05Z</time>
      </trkpt>
      <trkpt lat="51.0979150" lon="7.5553100">
        <ele>351.5000000</ele>
        <time>2010-08-21T15:40:06Z</time>
      </trkpt>
      <trkpt lat="51.0979810" lon="7.5551700">
        <ele>351.9800000</ele>
        <time>2010-08-21T15:40:07Z</time>
      </trkpt>
      <trkpt lat="51.0980370" lon="7.5550290">
        <ele>351.9800000</ele>
        <time>2010-08-21T15:40:08Z</time>
      </trkpt>
      <trkpt lat="51.0980820" lon="7.5548730">
        <ele>351.9800000</ele>
        <time>2010-08-21T15:40:09Z</time>
      </trkpt>
      <trkpt lat="51.0981030" lon="7.5547230">
        <ele>350.5400000</ele>
        <time>2010-08-21T15:40:10Z</time>
      </trkpt>
    </trkseg>
  </trk>

</gpx>
